<?xml version='1.0' encoding='UTF-8'?><gpx version="1.1" creator="JPX - https://github.com/jenetics/jpx" xmlns="http://www.topografix.com/GPX/1/1"><trk><trkseg><trkpt lat="39.2658665" lon="16.7085023"><ele>986.3333333333334</ele><time>2026-03-28T11:13:12.618Z</time></trkpt><trkpt lat="39.2658499" lon="16.7085896"><ele>986.6666666666667</ele><time>2026-03-28T11:16:55.672Z</time></trkpt><trkpt lat="39.2658578" lon="16.7086794"><ele>987.0</ele><time>2026-03-28T11:17:08.647Z</time></trkpt><trkpt lat="39.2659119" lon="16.7087538"><ele>987.3333333333333</ele><time>2026-03-28T11:17:13.642Z</time></trkpt><trkpt lat="39.2659504" lon="16.7088233"><ele>987.6666666666666</ele><time>2026-03-28T11:17:16.641Z</time></trkpt><trkpt lat="39.2659417" lon="16.7089181"><ele>988.0</ele><time>2026-03-28T11:17:18.637Z</time></trkpt><trkpt lat="39.2659031" lon="16.7090856"><ele>988.0</ele><time>2026-03-28T11:17:20.645Z</time></trkpt><trkpt lat="39.2658976" lon="16.7092044"><ele>988.0</ele><time>2026-03-28T11:17:21.646Z</time></trkpt><trkpt lat="39.2658766" lon="16.7093409"><ele>988.0</ele><time>2026-03-28T11:17:22.642Z</time></trkpt><trkpt lat="39.2658317" lon="16.7094643"><ele>988.0</ele><time>2026-03-28T11:17:23.648Z</time></trkpt><trkpt lat="39.2657678" lon="16.7095655"><ele>988.0</ele><time>2026-03-28T11:17:24.643Z</time></trkpt><trkpt lat="39.2656981" lon="16.7096377"><ele>988.3333333333333</ele><time>2026-03-28T11:17:25.646Z</time></trkpt><trkpt lat="39.2656281" lon="16.7097034"><ele>988.6666666666666</ele><time>2026-03-28T11:17:26.643Z</time></trkpt><trkpt lat="39.2655595" lon="16.7097707"><ele>989.0</ele><time>2026-03-28T11:17:27.641Z</time></trkpt><trkpt lat="39.2654986" lon="16.7098463"><ele>989.3333333333333</ele><time>2026-03-28T11:17:28.641Z</time></trkpt><trkpt lat="39.2654466" lon="16.709937"><ele>989.6666666666666</ele><time>2026-03-28T11:17:29.641Z</time></trkpt><trkpt lat="39.2654035" lon="16.7100376"><ele>990.0</ele><time>2026-03-28T11:17:30.643Z</time></trkpt><trkpt lat="39.2653645" lon="16.7101413"><ele>988.0</ele><time>2026-03-28T11:17:31.646Z</time></trkpt><trkpt lat="39.2653367" lon="16.7102514"><ele>986.0</ele><time>2026-03-28T11:17:32.644Z</time></trkpt><trkpt lat="39.2653263" lon="16.7103636"><ele>984.0</ele><time>2026-03-28T11:17:33.636Z</time></trkpt><trkpt lat="39.2653178" lon="16.710474"><ele>982.0</ele><time>2026-03-28T11:17:34.637Z</time></trkpt><trkpt lat="39.2653488" lon="16.7105859"><ele>980.0</ele><time>2026-03-28T11:17:35.636Z</time></trkpt><trkpt lat="39.2653741" lon="16.7106977"><ele>978.0</ele><time>2026-03-28T11:17:36.643Z</time></trkpt><trkpt lat="39.2653826" lon="16.7108115"><ele>978.0</ele><time>2026-03-28T11:17:37.647Z</time></trkpt><trkpt lat="39.265372" lon="16.7109253"><ele>978.0</ele><time>2026-03-28T11:17:38.643Z</time></trkpt><trkpt lat="39.2653421" lon="16.7110393"><ele>978.0</ele><time>2026-03-28T11:17:39.642Z</time></trkpt><trkpt lat="39.2652981" lon="16.7111428"><ele>978.0</ele><time>2026-03-28T11:17:40.643Z</time></trkpt><trkpt lat="39.2652468" lon="16.7112358"><ele>978.0</ele><time>2026-03-28T11:17:41.646Z</time></trkpt><trkpt lat="39.2651931" lon="16.7113251"><ele>978.0</ele><time>2026-03-28T11:17:42.646Z</time></trkpt><trkpt lat="39.2651459" lon="16.7114139"><ele>978.0</ele><time>2026-03-28T11:17:43.65Z</time></trkpt><trkpt lat="39.265114" lon="16.7115093"><ele>978.0</ele><time>2026-03-28T11:17:44.643Z</time></trkpt><trkpt lat="39.2650995" lon="16.7116113"><ele>978.0</ele><time>2026-03-28T11:17:45.643Z</time></trkpt><trkpt lat="39.2651042" lon="16.7117204"><ele>978.0</ele><time>2026-03-28T11:17:46.647Z</time></trkpt><trkpt lat="39.2651253" lon="16.7118296"><ele>978.0</ele><time>2026-03-28T11:17:47.646Z</time></trkpt><trkpt lat="39.2651627" lon="16.7119345"><ele>978.0</ele><time>2026-03-28T11:17:48.646Z</time></trkpt><trkpt lat="39.2652163" lon="16.7120288"><ele>976.8333333333334</ele><time>2026-03-28T11:17:49.642Z</time></trkpt><trkpt lat="39.2652713" lon="16.7121215"><ele>975.6666666666667</ele><time>2026-03-28T11:17:50.638Z</time></trkpt><trkpt lat="39.2653195" lon="16.7122121"><ele>974.5</ele><time>2026-03-28T11:17:51.64Z</time></trkpt><trkpt lat="39.2653491" lon="16.7123192"><ele>973.3333333333334</ele><time>2026-03-28T11:17:52.635Z</time></trkpt><trkpt lat="39.2653512" lon="16.7124318"><ele>972.1666666666667</ele><time>2026-03-28T11:17:53.645Z</time></trkpt><trkpt lat="39.265325" lon="16.7125471"><ele>971.0</ele><time>2026-03-28T11:17:54.637Z</time></trkpt><trkpt lat="39.2652825" lon="16.7126655"><ele>971.5999999999999</ele><time>2026-03-28T11:17:55.644Z</time></trkpt><trkpt lat="39.2652261" lon="16.7127995"><ele>972.1999999999999</ele><time>2026-03-28T11:17:56.638Z</time></trkpt><trkpt lat="39.2651711" lon="16.7129281"><ele>972.8000000000001</ele><time>2026-03-28T11:17:57.639Z</time></trkpt><trkpt lat="39.2651171" lon="16.7130487"><ele>973.4000000000001</ele><time>2026-03-28T11:17:58.641Z</time></trkpt><trkpt lat="39.2650652" lon="16.7131675"><ele>974.0</ele><time>2026-03-28T11:17:59.638Z</time></trkpt><trkpt lat="39.2650122" lon="16.7132891"><ele>974.0</ele><time>2026-03-28T11:18:00.652Z</time></trkpt><trkpt lat="39.2649602" lon="16.71341"><ele>974.0000000000001</ele><time>2026-03-28T11:18:01.64Z</time></trkpt><trkpt lat="39.2649122" lon="16.7135215"><ele>974.0000000000001</ele><time>2026-03-28T11:18:02.642Z</time></trkpt><trkpt lat="39.2648681" lon="16.7136276"><ele>974.0</ele><time>2026-03-28T11:18:03.644Z</time></trkpt><trkpt lat="39.2648216" lon="16.7137428"><ele>974.0</ele><time>2026-03-28T11:18:04.643Z</time></trkpt><trkpt lat="39.2647692" lon="16.713866"><ele>974.5</ele><time>2026-03-28T11:18:05.641Z</time></trkpt><trkpt lat="39.2647139" lon="16.7139973"><ele>975.0</ele><time>2026-03-28T11:18:06.638Z</time></trkpt><trkpt lat="39.2646523" lon="16.7141408"><ele>975.5</ele><time>2026-03-28T11:18:07.636Z</time></trkpt><trkpt lat="39.2645842" lon="16.7143024"><ele>976.0</ele><time>2026-03-28T11:18:08.639Z</time></trkpt><trkpt lat="39.2645101" lon="16.7144784"><ele>976.0</ele><time>2026-03-28T11:18:09.649Z</time></trkpt><trkpt lat="39.2644283" lon="16.7146723"><ele>976.0</ele><time>2026-03-28T11:18:10.641Z</time></trkpt><trkpt lat="39.2643476" lon="16.7148571"><ele>976.0</ele><time>2026-03-28T11:18:11.64Z</time></trkpt><trkpt lat="39.2642696" lon="16.7150347"><ele>976.0</ele><time>2026-03-28T11:18:12.641Z</time></trkpt><trkpt lat="39.2641953" lon="16.7152107"><ele>976.0</ele><time>2026-03-28T11:18:13.641Z</time></trkpt><trkpt lat="39.2641186" lon="16.7153876"><ele>976.0</ele><time>2026-03-28T11:18:14.64Z</time></trkpt><trkpt lat="39.2640369" lon="16.7155808"><ele>976.0</ele><time>2026-03-28T11:18:15.642Z</time></trkpt><trkpt lat="39.2639495" lon="16.7157845"><ele>976.0</ele><time>2026-03-28T11:18:16.635Z</time></trkpt><trkpt lat="39.2638645" lon="16.7159913"><ele>976.0</ele><time>2026-03-28T11:18:17.648Z</time></trkpt><trkpt lat="39.2637832" lon="16.716194"><ele>976.0</ele><time>2026-03-28T11:18:18.639Z</time></trkpt><trkpt lat="39.2637064" lon="16.7163889"><ele>976.0</ele><time>2026-03-28T11:18:19.639Z</time></trkpt><trkpt lat="39.2636313" lon="16.716575"><ele>976.0</ele><time>2026-03-28T11:18:20.64Z</time></trkpt><trkpt lat="39.2635581" lon="16.7167473"><ele>975.5</ele><time>2026-03-28T11:18:21.643Z</time></trkpt><trkpt lat="39.2634879" lon="16.7169071"><ele>975.0</ele><time>2026-03-28T11:18:22.645Z</time></trkpt><trkpt lat="39.2634123" lon="16.7170591"><ele>974.5</ele><time>2026-03-28T11:18:23.643Z</time></trkpt><trkpt lat="39.2633246" lon="16.7171935"><ele>974.0</ele><time>2026-03-28T11:18:24.643Z</time></trkpt><trkpt lat="39.2632235" lon="16.7173089"><ele>973.75</ele><time>2026-03-28T11:18:25.641Z</time></trkpt><trkpt lat="39.2631108" lon="16.7174058"><ele>973.5</ele><time>2026-03-28T11:18:26.635Z</time></trkpt><trkpt lat="39.262988" lon="16.7174908"><ele>973.25</ele><time>2026-03-28T11:18:27.643Z</time></trkpt><trkpt lat="39.2628573" lon="16.7175654"><ele>973.0</ele><time>2026-03-28T11:18:28.639Z</time></trkpt><trkpt lat="39.2627285" lon="16.7176367"><ele>973.0</ele><time>2026-03-28T11:18:29.64Z</time></trkpt><trkpt lat="39.2626069" lon="16.7177038"><ele>973.0</ele><time>2026-03-28T11:18:30.642Z</time></trkpt><trkpt lat="39.2624898" lon="16.7177709"><ele>973.0</ele><time>2026-03-28T11:18:31.64Z</time></trkpt><trkpt lat="39.2623758" lon="16.7178314"><ele>973.0</ele><time>2026-03-28T11:18:32.635Z</time></trkpt><trkpt lat="39.2622694" lon="16.7178915"><ele>974.4</ele><time>2026-03-28T11:18:33.639Z</time></trkpt><trkpt lat="39.2621693" lon="16.7179484"><ele>975.8</ele><time>2026-03-28T11:18:34.646Z</time></trkpt><trkpt lat="39.2620749" lon="16.7180022"><ele>977.2</ele><time>2026-03-28T11:18:35.644Z</time></trkpt><trkpt lat="39.2619876" lon="16.7180495"><ele>978.6</ele><time>2026-03-28T11:18:36.64Z</time></trkpt><trkpt lat="39.2619035" lon="16.7180968"><ele>980.0</ele><time>2026-03-28T11:18:37.637Z</time></trkpt><trkpt lat="39.2618153" lon="16.7181557"><ele>980.0000000000001</ele><time>2026-03-28T11:18:38.642Z</time></trkpt><trkpt lat="39.2617406" lon="16.7182316"><ele>980.0</ele><time>2026-03-28T11:18:39.639Z</time></trkpt><trkpt lat="39.2616806" lon="16.7183227"><ele>980.0</ele><time>2026-03-28T11:18:40.645Z</time></trkpt><trkpt lat="39.2616345" lon="16.71841"><ele>980.0</ele><time>2026-03-28T11:18:41.642Z</time></trkpt><trkpt lat="39.2615868" lon="16.7185079"><ele>980.0000000000001</ele><time>2026-03-28T11:18:43.642Z</time></trkpt><trkpt lat="39.2615528" lon="16.7185775"><ele>980.0</ele><time>2026-03-28T11:18:46.644Z</time></trkpt><trkpt lat="39.2615077" lon="16.7186419"><ele>979.3333333333334</ele><time>2026-03-28T11:18:48.646Z</time></trkpt><trkpt lat="39.2614515" lon="16.7186811"><ele>978.6666666666667</ele><time>2026-03-28T11:18:50.646Z</time></trkpt><trkpt lat="39.2613681" lon="16.7187447"><ele>978.0</ele><time>2026-03-28T11:18:52.642Z</time></trkpt><trkpt lat="39.2613182" lon="16.7188044"><ele>977.3333333333333</ele><time>2026-03-28T11:18:53.645Z</time></trkpt><trkpt lat="39.26125" lon="16.7188723"><ele>976.6666666666666</ele><time>2026-03-28T11:18:54.64Z</time></trkpt><trkpt lat="39.2611761" lon="16.718932"><ele>976.0</ele><time>2026-03-28T11:18:55.647Z</time></trkpt><trkpt lat="39.2611001" lon="16.7189845"><ele>979.1666666666666</ele><time>2026-03-28T11:18:56.646Z</time></trkpt><trkpt lat="39.2610348" lon="16.719037"><ele>982.3333333333333</ele><time>2026-03-28T11:18:57.645Z</time></trkpt><trkpt lat="39.2609709" lon="16.7190582"><ele>985.5</ele><time>2026-03-28T11:18:58.644Z</time></trkpt><trkpt lat="39.2608778" lon="16.719053"><ele>988.6666666666667</ele><time>2026-03-28T11:19:00.643Z</time></trkpt><trkpt lat="39.2608094" lon="16.7190602"><ele>991.8333333333334</ele><time>2026-03-28T11:19:06.645Z</time></trkpt><trkpt lat="39.2607414" lon="16.7190851"><ele>995.0</ele><time>2026-03-28T11:19:08.662Z</time></trkpt><trkpt lat="39.2606026" lon="16.7191664"><ele>998.2</ele><time>2026-03-28T11:19:22.646Z</time></trkpt><trkpt lat="39.2605214" lon="16.7192408"><ele>1001.4</ele><time>2026-03-28T11:19:25.647Z</time></trkpt><trkpt lat="39.2604602" lon="16.719287"><ele>1004.5999999999999</ele><time>2026-03-28T11:19:28.65Z</time></trkpt><trkpt lat="39.2603795" lon="16.7193327"><ele>1007.8</ele><time>2026-03-28T11:19:31.649Z</time></trkpt><trkpt lat="39.260257" lon="16.7193327"><ele>1011.0</ele><time>2026-03-28T11:19:36.642Z</time></trkpt><trkpt lat="39.2601695" lon="16.7193441"><ele>1010.9999999999999</ele><time>2026-03-28T11:19:39.644Z</time></trkpt><trkpt lat="39.2600915" lon="16.7193835"><ele>1011.0</ele><time>2026-03-28T11:19:42.648Z</time></trkpt><trkpt lat="39.2600313" lon="16.7194269"><ele>1010.9999999999999</ele><time>2026-03-28T11:19:44.649Z</time></trkpt><trkpt lat="39.2599667" lon="16.7194554"><ele>1010.9999999999999</ele><time>2026-03-28T11:19:46.646Z</time></trkpt><trkpt lat="39.2598986" lon="16.719471"><ele>1011.0</ele><time>2026-03-28T11:19:48.651Z</time></trkpt><trkpt lat="39.259825" lon="16.7194803"><ele>1010.9999999999999</ele><time>2026-03-28T11:19:50.649Z</time></trkpt><trkpt lat="39.2597553" lon="16.7194916"><ele>1010.9999999999999</ele><time>2026-03-28T11:19:52.644Z</time></trkpt><trkpt lat="39.2596909" lon="16.7194996"><ele>1014.5</ele><time>2026-03-28T11:19:54.638Z</time></trkpt><trkpt lat="39.2595978" lon="16.7195385"><ele>1018.0</ele><time>2026-03-28T11:19:57.642Z</time></trkpt><trkpt lat="39.2595311" lon="16.7195867"><ele>1021.5</ele><time>2026-03-28T11:19:59.641Z</time></trkpt><trkpt lat="39.2594523" lon="16.7196305"><ele>1025.0</ele><time>2026-03-28T11:20:04.641Z</time></trkpt><trkpt lat="39.2593705" lon="16.7196224"><ele>1028.5</ele><time>2026-03-28T11:20:06.65Z</time></trkpt><trkpt lat="39.2592681" lon="16.7196084"><ele>1032.0</ele><time>2026-03-28T11:20:08.641Z</time></trkpt><trkpt lat="39.2591836" lon="16.7196055"><ele>1032.0</ele><time>2026-03-28T11:20:10.646Z</time></trkpt><trkpt lat="39.2591031" lon="16.7196606"><ele>1032.0</ele><time>2026-03-28T11:20:13.643Z</time></trkpt><trkpt lat="39.2590309" lon="16.71967"><ele>1032.0</ele><time>2026-03-28T11:20:15.64Z</time></trkpt><trkpt lat="39.2589552" lon="16.7197045"><ele>1032.0</ele><time>2026-03-28T11:20:17.649Z</time></trkpt><trkpt lat="39.2588653" lon="16.7197423"><ele>1032.0</ele><time>2026-03-28T11:20:20.641Z</time></trkpt><trkpt lat="39.258787" lon="16.7197586"><ele>1032.0</ele><time>2026-03-28T11:20:23.64Z</time></trkpt><trkpt lat="39.2586957" lon="16.7197771"><ele>1033.8333333333333</ele><time>2026-03-28T11:20:26.642Z</time></trkpt><trkpt lat="39.2586068" lon="16.7198006"><ele>1035.6666666666667</ele><time>2026-03-28T11:20:28.642Z</time></trkpt><trkpt lat="39.2585417" lon="16.7198211"><ele>1037.5</ele><time>2026-03-28T11:20:30.638Z</time></trkpt><trkpt lat="39.2584801" lon="16.7198596"><ele>1039.3333333333335</ele><time>2026-03-28T11:20:33.635Z</time></trkpt><trkpt lat="39.2584144" lon="16.7199044"><ele>1041.1666666666667</ele><time>2026-03-28T11:20:36.643Z</time></trkpt><trkpt lat="39.2583421" lon="16.7199799"><ele>1043.0</ele><time>2026-03-28T11:20:38.645Z</time></trkpt><trkpt lat="39.2582543" lon="16.7201105"><ele>1043.0</ele><time>2026-03-28T11:20:40.64Z</time></trkpt><trkpt lat="39.2581876" lon="16.7201762"><ele>1043.0</ele><time>2026-03-28T11:20:41.642Z</time></trkpt><trkpt lat="39.2581352" lon="16.720237"><ele>1043.0</ele><time>2026-03-28T11:20:42.646Z</time></trkpt><trkpt lat="39.2580194" lon="16.7202693"><ele>1043.0</ele><time>2026-03-28T11:20:44.642Z</time></trkpt><trkpt lat="39.2578981" lon="16.7202998"><ele>1043.0</ele><time>2026-03-28T11:20:46.642Z</time></trkpt><trkpt lat="39.2578303" lon="16.7203246"><ele>1044.3333333333335</ele><time>2026-03-28T11:20:47.647Z</time></trkpt><trkpt lat="39.2577564" lon="16.7203496"><ele>1045.6666666666667</ele><time>2026-03-28T11:20:48.652Z</time></trkpt><trkpt lat="39.2576864" lon="16.7204077"><ele>1047.0</ele><time>2026-03-28T11:20:49.65Z</time></trkpt><trkpt lat="39.2576257" lon="16.720475"><ele>1048.3333333333333</ele><time>2026-03-28T11:20:50.641Z</time></trkpt><trkpt lat="39.2575775" lon="16.7205637"><ele>1049.6666666666665</ele><time>2026-03-28T11:20:51.633Z</time></trkpt><trkpt lat="39.257542" lon="16.7206611"><ele>1051.0</ele><time>2026-03-28T11:20:52.639Z</time></trkpt><trkpt lat="39.2575056" lon="16.7207541"><ele>1051.0</ele><time>2026-03-28T11:20:53.643Z</time></trkpt><trkpt lat="39.2574617" lon="16.7208455"><ele>1051.0</ele><time>2026-03-28T11:20:54.637Z</time></trkpt><trkpt lat="39.257396" lon="16.7209332"><ele>1051.0</ele><time>2026-03-28T11:20:55.648Z</time></trkpt><trkpt lat="39.2573381" lon="16.7210287"><ele>1051.0</ele><time>2026-03-28T11:20:56.641Z</time></trkpt><trkpt lat="39.2572551" lon="16.7210907"><ele>1051.0</ele><time>2026-03-28T11:20:57.641Z</time></trkpt><trkpt lat="39.2571844" lon="16.7211436"><ele>1051.0</ele><time>2026-03-28T11:20:58.639Z</time></trkpt><trkpt lat="39.2571157" lon="16.7211921"><ele>1051.3999999999999</ele><time>2026-03-28T11:20:59.644Z</time></trkpt><trkpt lat="39.2570363" lon="16.7212473"><ele>1051.8</ele><time>2026-03-28T11:21:00.643Z</time></trkpt><trkpt lat="39.2569531" lon="16.721309"><ele>1052.1999999999998</ele><time>2026-03-28T11:21:01.643Z</time></trkpt><trkpt lat="39.2568675" lon="16.7213754"><ele>1052.6</ele><time>2026-03-28T11:21:02.639Z</time></trkpt><trkpt lat="39.2567922" lon="16.7214485"><ele>1053.0</ele><time>2026-03-28T11:21:03.634Z</time></trkpt><trkpt lat="39.2567306" lon="16.7215261"><ele>1053.0</ele><time>2026-03-28T11:21:04.635Z</time></trkpt><trkpt lat="39.2566738" lon="16.7216205"><ele>1053.0</ele><time>2026-03-28T11:21:05.641Z</time></trkpt><trkpt lat="39.2566092" lon="16.7217302"><ele>1053.0</ele><time>2026-03-28T11:21:06.642Z</time></trkpt><trkpt lat="39.2565233" lon="16.721826"><ele>1053.0</ele><time>2026-03-28T11:21:07.645Z</time></trkpt><trkpt lat="39.2564392" lon="16.7219175"><ele>1053.0</ele><time>2026-03-28T11:21:08.64Z</time></trkpt><trkpt lat="39.2563531" lon="16.7220155"><ele>1052.0</ele><time>2026-03-28T11:21:09.658Z</time></trkpt><trkpt lat="39.2562606" lon="16.7221138"><ele>1051.0</ele><time>2026-03-28T11:21:10.65Z</time></trkpt><trkpt lat="39.2561621" lon="16.7222126"><ele>1050.0</ele><time>2026-03-28T11:21:11.643Z</time></trkpt><trkpt lat="39.2560714" lon="16.7223113"><ele>1049.0</ele><time>2026-03-28T11:21:12.638Z</time></trkpt><trkpt lat="39.2559776" lon="16.7224059"><ele>1049.0</ele><time>2026-03-28T11:21:13.636Z</time></trkpt><trkpt lat="39.2558878" lon="16.7224801"><ele>1049.0</ele><time>2026-03-28T11:21:14.657Z</time></trkpt><trkpt lat="39.2558008" lon="16.7225328"><ele>1049.0</ele><time>2026-03-28T11:21:15.64Z</time></trkpt><trkpt lat="39.2557132" lon="16.7225764"><ele>1049.0</ele><time>2026-03-28T11:21:16.642Z</time></trkpt><trkpt lat="39.2556391" lon="16.7226158"><ele>1049.0</ele><time>2026-03-28T11:21:17.644Z</time></trkpt><trkpt lat="39.2555738" lon="16.722665"><ele>1048.0</ele><time>2026-03-28T11:21:18.643Z</time></trkpt><trkpt lat="39.2555138" lon="16.7227254"><ele>1047.0</ele><time>2026-03-28T11:21:19.64Z</time></trkpt><trkpt lat="39.2554541" lon="16.7228028"><ele>1046.0</ele><time>2026-03-28T11:21:20.648Z</time></trkpt><trkpt lat="39.2553965" lon="16.7229084"><ele>1045.0</ele><time>2026-03-28T11:21:21.646Z</time></trkpt><trkpt lat="39.2553409" lon="16.7230123"><ele>1044.0</ele><time>2026-03-28T11:21:22.652Z</time></trkpt><trkpt lat="39.2552974" lon="16.7231233"><ele>1044.0</ele><time>2026-03-28T11:21:23.648Z</time></trkpt><trkpt lat="39.2552536" lon="16.7232357"><ele>1044.0</ele><time>2026-03-28T11:21:24.641Z</time></trkpt><trkpt lat="39.2552386" lon="16.723374"><ele>1044.0</ele><time>2026-03-28T11:21:25.644Z</time></trkpt><trkpt lat="39.2552286" lon="16.7235095"><ele>1044.0</ele><time>2026-03-28T11:21:26.648Z</time></trkpt><trkpt lat="39.2552184" lon="16.7236667"><ele>1044.0</ele><time>2026-03-28T11:21:27.644Z</time></trkpt><trkpt lat="39.2552044" lon="16.7238219"><ele>1044.25</ele><time>2026-03-28T11:21:28.639Z</time></trkpt><trkpt lat="39.2551701" lon="16.723968"><ele>1044.5</ele><time>2026-03-28T11:21:29.64Z</time></trkpt><trkpt lat="39.2551173" lon="16.7241005"><ele>1044.75</ele><time>2026-03-28T11:21:30.642Z</time></trkpt><trkpt lat="39.2550628" lon="16.7242281"><ele>1045.0</ele><time>2026-03-28T11:21:31.644Z</time></trkpt><trkpt lat="39.2550013" lon="16.7243431"><ele>1044.6</ele><time>2026-03-28T11:21:32.646Z</time></trkpt><trkpt lat="39.254938" lon="16.7244449"><ele>1044.2</ele><time>2026-03-28T11:21:33.641Z</time></trkpt><trkpt lat="39.2548878" lon="16.7245416"><ele>1043.8</ele><time>2026-03-28T11:21:34.646Z</time></trkpt><trkpt lat="39.2548407" lon="16.7246349"><ele>1043.4</ele><time>2026-03-28T11:21:35.65Z</time></trkpt><trkpt lat="39.2548086" lon="16.7247185"><ele>1043.0</ele><time>2026-03-28T11:21:36.649Z</time></trkpt><trkpt lat="39.2547652" lon="16.7248513"><ele>1047.0</ele><time>2026-03-28T11:21:38.647Z</time></trkpt><trkpt lat="39.2547401" lon="16.7249284"><ele>1051.0</ele><time>2026-03-28T11:21:40.642Z</time></trkpt><trkpt lat="39.2547149" lon="16.7250286"><ele>1055.0</ele><time>2026-03-28T11:21:43.644Z</time></trkpt><trkpt lat="39.2546776" lon="16.7251061"><ele>1059.0</ele><time>2026-03-28T11:21:45.645Z</time></trkpt><trkpt lat="39.2546386" lon="16.7251972"><ele>1063.0</ele><time>2026-03-28T11:21:47.647Z</time></trkpt><trkpt lat="39.2545934" lon="16.7252834"><ele>1067.0</ele><time>2026-03-28T11:21:49.64Z</time></trkpt><trkpt lat="39.2545165" lon="16.7253714"><ele>1067.0</ele><time>2026-03-28T11:21:51.643Z</time></trkpt><trkpt lat="39.254467" lon="16.7254318"><ele>1067.0</ele><time>2026-03-28T11:21:53.644Z</time></trkpt><trkpt lat="39.2543973" lon="16.7255086"><ele>1067.0</ele><time>2026-03-28T11:21:56.657Z</time></trkpt><trkpt lat="39.2543443" lon="16.725592"><ele>1067.0</ele><time>2026-03-28T11:21:59.646Z</time></trkpt><trkpt lat="39.2542829" lon="16.725632"><ele>1067.0</ele><time>2026-03-28T11:22:02.642Z</time></trkpt><trkpt lat="39.2542095" lon="16.725684"><ele>1067.0</ele><time>2026-03-28T11:22:05.644Z</time></trkpt><trkpt lat="39.2541591" lon="16.7257785"><ele>1067.0</ele><time>2026-03-28T11:22:08.65Z</time></trkpt><trkpt lat="39.2541297" lon="16.7259017"><ele>1067.0</ele><time>2026-03-28T11:22:11.642Z</time></trkpt><trkpt lat="39.2541528" lon="16.7260366"><ele>1067.0</ele><time>2026-03-28T11:22:13.636Z</time></trkpt><trkpt lat="39.2541747" lon="16.7261433"><ele>1067.0</ele><time>2026-03-28T11:22:15.645Z</time></trkpt><trkpt lat="39.2541825" lon="16.7262442"><ele>1067.0</ele><time>2026-03-28T11:22:17.651Z</time></trkpt><trkpt lat="39.2541712" lon="16.7263541"><ele>1067.4</ele><time>2026-03-28T11:22:19.65Z</time></trkpt><trkpt lat="39.2541563" lon="16.7264822"><ele>1067.8000000000002</ele><time>2026-03-28T11:22:21.64Z</time></trkpt><trkpt lat="39.2541106" lon="16.7265979"><ele>1068.2</ele><time>2026-03-28T11:22:23.643Z</time></trkpt><trkpt lat="39.254044" lon="16.7267171"><ele>1068.6000000000001</ele><time>2026-03-28T11:22:25.643Z</time></trkpt><trkpt lat="39.2539986" lon="16.7268607"><ele>1069.0</ele><time>2026-03-28T11:22:27.645Z</time></trkpt><trkpt lat="39.2539511" lon="16.7269827"><ele>1074.6000000000001</ele><time>2026-03-28T11:22:29.649Z</time></trkpt><trkpt lat="39.2538968" lon="16.7271012"><ele>1080.2</ele><time>2026-03-28T11:22:31.654Z</time></trkpt><trkpt lat="39.2538453" lon="16.7272382"><ele>1085.8000000000002</ele><time>2026-03-28T11:22:33.641Z</time></trkpt><trkpt lat="39.2538066" lon="16.727343"><ele>1091.4</ele><time>2026-03-28T11:22:35.646Z</time></trkpt><trkpt lat="39.2537799" lon="16.7274264"><ele>1097.0</ele><time>2026-03-28T11:22:37.657Z</time></trkpt><trkpt lat="39.2537519" lon="16.727517"><ele>1097.0</ele><time>2026-03-28T11:22:39.644Z</time></trkpt><trkpt lat="39.2537162" lon="16.7276266"><ele>1097.0</ele><time>2026-03-28T11:22:41.643Z</time></trkpt><trkpt lat="39.2536757" lon="16.7277428"><ele>1097.0</ele><time>2026-03-28T11:22:43.642Z</time></trkpt><trkpt lat="39.2536505" lon="16.7278327"><ele>1097.0</ele><time>2026-03-28T11:22:45.643Z</time></trkpt><trkpt lat="39.2536107" lon="16.727918"><ele>1097.0</ele><time>2026-03-28T11:22:47.658Z</time></trkpt><trkpt lat="39.2535824" lon="16.7280157"><ele>1097.0</ele><time>2026-03-28T11:22:49.64Z</time></trkpt><trkpt lat="39.2535617" lon="16.7281129"><ele>1098.1666666666667</ele><time>2026-03-28T11:22:51.645Z</time></trkpt><trkpt lat="39.2535212" lon="16.7282216"><ele>1099.3333333333335</ele><time>2026-03-28T11:22:53.641Z</time></trkpt><trkpt lat="39.2534988" lon="16.7283424"><ele>1100.5</ele><time>2026-03-28T11:22:55.647Z</time></trkpt><trkpt lat="39.2534713" lon="16.7284392"><ele>1101.6666666666667</ele><time>2026-03-28T11:22:57.646Z</time></trkpt><trkpt lat="39.2534479" lon="16.7285504"><ele>1102.8333333333333</ele><time>2026-03-28T11:22:59.653Z</time></trkpt><trkpt lat="39.2534102" lon="16.7286507"><ele>1104.0</ele><time>2026-03-28T11:23:01.641Z</time></trkpt><trkpt lat="39.2533614" lon="16.7287818"><ele>1104.6000000000001</ele><time>2026-03-28T11:23:03.651Z</time></trkpt><trkpt lat="39.2532623" lon="16.7288691"><ele>1105.2</ele><time>2026-03-28T11:23:05.65Z</time></trkpt><trkpt lat="39.2531484" lon="16.7289264"><ele>1105.8000000000002</ele><time>2026-03-28T11:23:07.642Z</time></trkpt><trkpt lat="39.2530807" lon="16.7289541"><ele>1106.4</ele><time>2026-03-28T11:23:08.641Z</time></trkpt><trkpt lat="39.2529984" lon="16.7289884"><ele>1107.0</ele><time>2026-03-28T11:23:09.642Z</time></trkpt><trkpt lat="39.2529212" lon="16.7290091"><ele>1107.5714285714287</ele><time>2026-03-28T11:23:10.644Z</time></trkpt><trkpt lat="39.2528522" lon="16.7290239"><ele>1108.142857142857</ele><time>2026-03-28T11:23:11.647Z</time></trkpt><trkpt lat="39.252786" lon="16.7290349"><ele>1108.7142857142858</ele><time>2026-03-28T11:23:12.646Z</time></trkpt><trkpt lat="39.2527172" lon="16.7290524"><ele>1109.2857142857142</ele><time>2026-03-28T11:23:13.639Z</time></trkpt><trkpt lat="39.2526456" lon="16.7290806"><ele>1109.857142857143</ele><time>2026-03-28T11:23:14.64Z</time></trkpt><trkpt lat="39.2525723" lon="16.7291156"><ele>1110.4285714285716</ele><time>2026-03-28T11:23:15.64Z</time></trkpt><trkpt lat="39.2525032" lon="16.7291534"><ele>1111.0</ele><time>2026-03-28T11:23:16.642Z</time></trkpt><trkpt lat="39.2524408" lon="16.7291883"><ele>1111.0</ele><time>2026-03-28T11:23:17.642Z</time></trkpt><trkpt lat="39.2523909" lon="16.7292438"><ele>1111.0</ele><time>2026-03-28T11:23:18.655Z</time></trkpt><trkpt lat="39.2523605" lon="16.7293247"><ele>1111.0</ele><time>2026-03-28T11:23:19.655Z</time></trkpt><trkpt lat="39.2522923" lon="16.7294305"><ele>1111.0</ele><time>2026-03-28T11:23:21.647Z</time></trkpt><trkpt lat="39.2522218" lon="16.7294833"><ele>1111.0</ele><time>2026-03-28T11:23:23.651Z</time></trkpt><trkpt lat="39.2521663" lon="16.7295235"><ele>1111.0</ele><time>2026-03-28T11:23:25.649Z</time></trkpt><trkpt lat="39.252101" lon="16.7295672"><ele>1108.8</ele><time>2026-03-28T11:23:27.648Z</time></trkpt><trkpt lat="39.252013" lon="16.7296178"><ele>1106.6</ele><time>2026-03-28T11:23:29.643Z</time></trkpt><trkpt lat="39.2519185" lon="16.7296776"><ele>1104.4</ele><time>2026-03-28T11:23:31.638Z</time></trkpt><trkpt lat="39.2518361" lon="16.7297525"><ele>1102.2</ele><time>2026-03-28T11:23:33.646Z</time></trkpt><trkpt lat="39.2517598" lon="16.7297905"><ele>1100.0</ele><time>2026-03-28T11:23:35.648Z</time></trkpt><trkpt lat="39.2516837" lon="16.7298371"><ele>1100.0</ele><time>2026-03-28T11:23:37.648Z</time></trkpt><trkpt lat="39.2515736" lon="16.7299226"><ele>1100.0</ele><time>2026-03-28T11:23:39.651Z</time></trkpt><trkpt lat="39.2515168" lon="16.7299693"><ele>1100.0</ele><time>2026-03-28T11:23:40.644Z</time></trkpt><trkpt lat="39.2514633" lon="16.7300173"><ele>1100.0</ele><time>2026-03-28T11:23:41.644Z</time></trkpt><trkpt lat="39.2513954" lon="16.730082"><ele>1100.0</ele><time>2026-03-28T11:23:42.652Z</time></trkpt><trkpt lat="39.2513295" lon="16.7301375"><ele>1100.0</ele><time>2026-03-28T11:23:43.647Z</time></trkpt><trkpt lat="39.2512657" lon="16.7301914"><ele>1101.0</ele><time>2026-03-28T11:23:44.642Z</time></trkpt><trkpt lat="39.2512064" lon="16.7302368"><ele>1102.0</ele><time>2026-03-28T11:23:45.642Z</time></trkpt><trkpt lat="39.2511201" lon="16.7303083"><ele>1103.0</ele><time>2026-03-28T11:23:47.643Z</time></trkpt><trkpt lat="39.2510379" lon="16.7304037"><ele>1104.0</ele><time>2026-03-28T11:23:49.64Z</time></trkpt><trkpt lat="39.2509808" lon="16.7304718"><ele>1105.0</ele><time>2026-03-28T11:23:50.64Z</time></trkpt><trkpt lat="39.2508965" lon="16.7305713"><ele>1105.0</ele><time>2026-03-28T11:23:51.645Z</time></trkpt><trkpt lat="39.2507965" lon="16.7306782"><ele>1105.0</ele><time>2026-03-28T11:23:52.646Z</time></trkpt><trkpt lat="39.2506946" lon="16.7307797"><ele>1105.0</ele><time>2026-03-28T11:23:53.644Z</time></trkpt><trkpt lat="39.2505997" lon="16.7308757"><ele>1105.0</ele><time>2026-03-28T11:23:54.651Z</time></trkpt><trkpt lat="39.2505081" lon="16.7309718"><ele>1104.4</ele><time>2026-03-28T11:23:55.644Z</time></trkpt><trkpt lat="39.2504239" lon="16.7310661"><ele>1103.8</ele><time>2026-03-28T11:23:56.638Z</time></trkpt><trkpt lat="39.2503502" lon="16.7311612"><ele>1103.2</ele><time>2026-03-28T11:23:57.642Z</time></trkpt><trkpt lat="39.2502878" lon="16.7312584"><ele>1102.6</ele><time>2026-03-28T11:23:58.646Z</time></trkpt><trkpt lat="39.2502302" lon="16.7313467"><ele>1102.0</ele><time>2026-03-28T11:23:59.644Z</time></trkpt><trkpt lat="39.2501673" lon="16.7314288"><ele>1102.0</ele><time>2026-03-28T11:24:00.64Z</time></trkpt><trkpt lat="39.2501112" lon="16.7315009"><ele>1102.0</ele><time>2026-03-28T11:24:01.642Z</time></trkpt><trkpt lat="39.2500601" lon="16.7315665"><ele>1102.0</ele><time>2026-03-28T11:24:02.641Z</time></trkpt><trkpt lat="39.2500124" lon="16.7316462"><ele>1102.0</ele><time>2026-03-28T11:24:03.641Z</time></trkpt><trkpt lat="39.2499616" lon="16.731752"><ele>1102.0</ele><time>2026-03-28T11:24:04.64Z</time></trkpt><trkpt lat="39.2499137" lon="16.7318687"><ele>1102.0</ele><time>2026-03-28T11:24:05.65Z</time></trkpt><trkpt lat="39.2498953" lon="16.7320139"><ele>1102.2</ele><time>2026-03-28T11:24:06.648Z</time></trkpt><trkpt lat="39.2498872" lon="16.7321693"><ele>1102.4</ele><time>2026-03-28T11:24:07.643Z</time></trkpt><trkpt lat="39.2499069" lon="16.7323106"><ele>1102.6</ele><time>2026-03-28T11:24:08.647Z</time></trkpt><trkpt lat="39.2499274" lon="16.7324249"><ele>1102.8</ele><time>2026-03-28T11:24:09.643Z</time></trkpt><trkpt lat="39.2499384" lon="16.7325199"><ele>1103.0</ele><time>2026-03-28T11:24:10.642Z</time></trkpt><trkpt lat="39.249964" lon="16.7325984"><ele>1103.0</ele><time>2026-03-28T11:24:11.637Z</time></trkpt><trkpt lat="39.2500407" lon="16.7327068"><ele>1103.0</ele><time>2026-03-28T11:24:13.641Z</time></trkpt><trkpt lat="39.2500914" lon="16.7327593"><ele>1103.0</ele><time>2026-03-28T11:24:14.646Z</time></trkpt><trkpt lat="39.2501358" lon="16.7328252"><ele>1103.0</ele><time>2026-03-28T11:24:15.644Z</time></trkpt><trkpt lat="39.2501878" lon="16.7328877"><ele>1103.0</ele><time>2026-03-28T11:24:16.641Z</time></trkpt><trkpt lat="39.2502406" lon="16.7329633"><ele>1103.0</ele><time>2026-03-28T11:24:17.643Z</time></trkpt><trkpt lat="39.2502895" lon="16.7330493"><ele>1103.6666666666667</ele><time>2026-03-28T11:24:18.65Z</time></trkpt><trkpt lat="39.2503193" lon="16.7331358"><ele>1104.3333333333335</ele><time>2026-03-28T11:24:19.639Z</time></trkpt><trkpt lat="39.2503496" lon="16.7332071"><ele>1105.0</ele><time>2026-03-28T11:24:20.646Z</time></trkpt><trkpt lat="39.2504043" lon="16.7333405"><ele>1105.6666666666667</ele><time>2026-03-28T11:24:22.648Z</time></trkpt><trkpt lat="39.2504158" lon="16.7334321"><ele>1106.3333333333333</ele><time>2026-03-28T11:24:23.641Z</time></trkpt><trkpt lat="39.2504049" lon="16.7335353"><ele>1107.0</ele><time>2026-03-28T11:24:24.663Z</time></trkpt><trkpt lat="39.2503947" lon="16.733633"><ele>1107.5</ele><time>2026-03-28T11:24:25.64Z</time></trkpt><trkpt lat="39.2503697" lon="16.733737"><ele>1108.0</ele><time>2026-03-28T11:24:26.641Z</time></trkpt><trkpt lat="39.2503431" lon="16.733824"><ele>1108.5</ele><time>2026-03-28T11:24:27.65Z</time></trkpt><trkpt lat="39.2503102" lon="16.7339047"><ele>1109.0</ele><time>2026-03-28T11:24:28.646Z</time></trkpt><trkpt lat="39.2502649" lon="16.7339921"><ele>1109.5</ele><time>2026-03-28T11:24:29.639Z</time></trkpt><trkpt lat="39.2502029" lon="16.7341127"><ele>1110.0</ele><time>2026-03-28T11:24:31.655Z</time></trkpt><trkpt lat="39.2501548" lon="16.7342221"><ele>1110.0</ele><time>2026-03-28T11:24:33.64Z</time></trkpt><trkpt lat="39.2500662" lon="16.7343647"><ele>1110.0</ele><time>2026-03-28T11:24:35.65Z</time></trkpt><trkpt lat="39.2500338" lon="16.7344871"><ele>1110.0</ele><time>2026-03-28T11:24:36.641Z</time></trkpt><trkpt lat="39.2500487" lon="16.7346361"><ele>1110.0</ele><time>2026-03-28T11:24:37.64Z</time></trkpt><trkpt lat="39.2500855" lon="16.7347933"><ele>1110.1666666666667</ele><time>2026-03-28T11:24:38.65Z</time></trkpt><trkpt lat="39.2501382" lon="16.734939"><ele>1110.3333333333333</ele><time>2026-03-28T11:24:39.649Z</time></trkpt><trkpt lat="39.2501817" lon="16.7350551"><ele>1110.5</ele><time>2026-03-28T11:24:40.646Z</time></trkpt><trkpt lat="39.2502252" lon="16.7351309"><ele>1110.6666666666665</ele><time>2026-03-28T11:24:41.637Z</time></trkpt><trkpt lat="39.2502749" lon="16.7351926"><ele>1110.8333333333333</ele><time>2026-03-28T11:24:42.646Z</time></trkpt><trkpt lat="39.2503324" lon="16.7352344"><ele>1111.0</ele><time>2026-03-28T11:24:43.644Z</time></trkpt><trkpt lat="39.2503988" lon="16.7352454"><ele>1110.5</ele><time>2026-03-28T11:24:44.64Z</time></trkpt><trkpt lat="39.2505106" lon="16.7352556"><ele>1110.0</ele><time>2026-03-28T11:24:46.648Z</time></trkpt><trkpt lat="39.2505796" lon="16.735243"><ele>1109.5</ele><time>2026-03-28T11:24:49.642Z</time></trkpt><trkpt lat="39.2506498" lon="16.7352453"><ele>1109.0</ele><time>2026-03-28T11:24:52.641Z</time></trkpt><trkpt lat="39.2507257" lon="16.735272"><ele>1108.5</ele><time>2026-03-28T11:24:54.638Z</time></trkpt><trkpt lat="39.2508359" lon="16.7353038"><ele>1108.0</ele><time>2026-03-28T11:24:56.64Z</time></trkpt><trkpt lat="39.2509718" lon="16.7353083"><ele>1107.8333333333333</ele><time>2026-03-28T11:24:58.64Z</time></trkpt><trkpt lat="39.2510364" lon="16.7353385"><ele>1107.6666666666665</ele><time>2026-03-28T11:24:59.648Z</time></trkpt><trkpt lat="39.2510837" lon="16.7353948"><ele>1107.5</ele><time>2026-03-28T11:25:00.643Z</time></trkpt><trkpt lat="39.2511137" lon="16.7354701"><ele>1107.3333333333333</ele><time>2026-03-28T11:25:01.644Z</time></trkpt><trkpt lat="39.2511317" lon="16.7355699"><ele>1107.1666666666667</ele><time>2026-03-28T11:25:02.641Z</time></trkpt><trkpt lat="39.2511433" lon="16.7356662"><ele>1107.0</ele><time>2026-03-28T11:25:03.644Z</time></trkpt><trkpt lat="39.2511587" lon="16.7358221"><ele>1107.0</ele><time>2026-03-28T11:25:05.648Z</time></trkpt><trkpt lat="39.2511994" lon="16.7359588"><ele>1107.0</ele><time>2026-03-28T11:25:07.644Z</time></trkpt><trkpt lat="39.2512587" lon="16.7360744"><ele>1107.0</ele><time>2026-03-28T11:25:09.642Z</time></trkpt><trkpt lat="39.2513562" lon="16.7361836"><ele>1107.0</ele><time>2026-03-28T11:25:11.645Z</time></trkpt><trkpt lat="39.2514126" lon="16.7362261"><ele>1107.0</ele><time>2026-03-28T11:25:12.637Z</time></trkpt><trkpt lat="39.2515053" lon="16.7362926"><ele>1105.8333333333333</ele><time>2026-03-28T11:25:14.642Z</time></trkpt><trkpt lat="39.2515838" lon="16.7363669"><ele>1104.6666666666667</ele><time>2026-03-28T11:25:16.642Z</time></trkpt><trkpt lat="39.2516295" lon="16.7364266"><ele>1103.5</ele><time>2026-03-28T11:25:17.645Z</time></trkpt><trkpt lat="39.2516659" lon="16.7364935"><ele>1102.3333333333335</ele><time>2026-03-28T11:25:18.642Z</time></trkpt><trkpt lat="39.2517012" lon="16.7366422"><ele>1101.1666666666667</ele><time>2026-03-28T11:25:20.64Z</time></trkpt><trkpt lat="39.2517286" lon="16.7367666"><ele>1100.0</ele><time>2026-03-28T11:25:22.647Z</time></trkpt><trkpt lat="39.251779" lon="16.7369071"><ele>1100.0</ele><time>2026-03-28T11:25:24.661Z</time></trkpt><trkpt lat="39.2518146" lon="16.7369757"><ele>1100.0</ele><time>2026-03-28T11:25:25.653Z</time></trkpt><trkpt lat="39.2518432" lon="16.7370515"><ele>1100.0</ele><time>2026-03-28T11:25:26.652Z</time></trkpt><trkpt lat="39.2518687" lon="16.7372008"><ele>1100.0</ele><time>2026-03-28T11:25:28.645Z</time></trkpt><trkpt lat="39.2518552" lon="16.7373368"><ele>1100.0</ele><time>2026-03-28T11:25:30.652Z</time></trkpt><trkpt lat="39.2518245" lon="16.7374379"><ele>1100.0</ele><time>2026-03-28T11:25:32.64Z</time></trkpt><trkpt lat="39.2517634" lon="16.7375593"><ele>1100.0</ele><time>2026-03-28T11:25:34.643Z</time></trkpt><trkpt lat="39.2517303" lon="16.7376344"><ele>1100.0</ele><time>2026-03-28T11:25:35.7Z</time></trkpt><trkpt lat="39.2516672" lon="16.7377596"><ele>1100.0</ele><time>2026-03-28T11:25:37.649Z</time></trkpt><trkpt lat="39.2516055" lon="16.737845"><ele>1100.0</ele><time>2026-03-28T11:25:39.643Z</time></trkpt><trkpt lat="39.2515417" lon="16.7379077"><ele>1100.0</ele><time>2026-03-28T11:25:41.644Z</time></trkpt><trkpt lat="39.2514795" lon="16.7379638"><ele>1100.0</ele><time>2026-03-28T11:25:43.655Z</time></trkpt><trkpt lat="39.2513999" lon="16.7380033"><ele>1099.4</ele><time>2026-03-28T11:25:45.656Z</time></trkpt><trkpt lat="39.2513126" lon="16.7380423"><ele>1098.8</ele><time>2026-03-28T11:25:47.652Z</time></trkpt><trkpt lat="39.251216" lon="16.7380793"><ele>1098.2</ele><time>2026-03-28T11:25:49.647Z</time></trkpt><trkpt lat="39.2511002" lon="16.7381084"><ele>1097.6</ele><time>2026-03-28T11:25:51.641Z</time></trkpt><trkpt lat="39.2510412" lon="16.7381437"><ele>1097.0</ele><time>2026-03-28T11:25:52.643Z</time></trkpt><trkpt lat="39.2509508" lon="16.7382005"><ele>1097.0</ele><time>2026-03-28T11:25:54.646Z</time></trkpt><trkpt lat="39.2508981" lon="16.7382615"><ele>1097.0</ele><time>2026-03-28T11:25:57.665Z</time></trkpt><trkpt lat="39.2509175" lon="16.7383671"><ele>1097.0</ele><time>2026-03-28T11:26:02.652Z</time></trkpt><trkpt lat="39.2509736" lon="16.7384147"><ele>1097.0</ele><time>2026-03-28T11:26:05.653Z</time></trkpt><trkpt lat="39.2510449" lon="16.7384479"><ele>1097.0</ele><time>2026-03-28T11:26:07.649Z</time></trkpt><trkpt lat="39.2511053" lon="16.7384717"><ele>1097.0</ele><time>2026-03-28T11:26:09.654Z</time></trkpt><trkpt lat="39.2511811" lon="16.7384704"><ele>1097.0</ele><time>2026-03-28T11:26:12.654Z</time></trkpt><trkpt lat="39.2512435" lon="16.7384183"><ele>1097.0</ele><time>2026-03-28T11:26:15.649Z</time></trkpt><trkpt lat="39.2513228" lon="16.7383907"><ele>1097.0</ele><time>2026-03-28T11:26:18.659Z</time></trkpt><trkpt lat="39.2513879" lon="16.738385"><ele>1097.0</ele><time>2026-03-28T11:26:20.653Z</time></trkpt><trkpt lat="39.2514498" lon="16.7384031"><ele>1097.0</ele><time>2026-03-28T11:26:22.643Z</time></trkpt><trkpt lat="39.2515142" lon="16.7384094"><ele>1097.0</ele><time>2026-03-28T11:26:24.658Z</time></trkpt><trkpt lat="39.251606" lon="16.7384003"><ele>1097.0</ele><time>2026-03-28T11:26:26.647Z</time></trkpt><trkpt lat="39.2516724" lon="16.7383927"><ele>1097.0</ele><time>2026-03-28T11:26:27.644Z</time></trkpt><trkpt lat="39.2517761" lon="16.7383821"><ele>1095.1666666666667</ele><time>2026-03-28T11:26:29.652Z</time></trkpt><trkpt lat="39.2518646" lon="16.738367"><ele>1093.3333333333335</ele><time>2026-03-28T11:26:31.643Z</time></trkpt><trkpt lat="39.2519583" lon="16.7383689"><ele>1091.5</ele><time>2026-03-28T11:26:34.649Z</time></trkpt><trkpt lat="39.252038" lon="16.7383067"><ele>1089.6666666666667</ele><time>2026-03-28T11:26:36.653Z</time></trkpt><trkpt lat="39.2520896" lon="16.7382494"><ele>1087.8333333333333</ele><time>2026-03-28T11:26:37.648Z</time></trkpt><trkpt lat="39.2521412" lon="16.7381881"><ele>1086.0</ele><time>2026-03-28T11:26:38.642Z</time></trkpt><trkpt lat="39.2522215" lon="16.7380734"><ele>1082.8</ele><time>2026-03-28T11:26:40.642Z</time></trkpt><trkpt lat="39.2522961" lon="16.7379356"><ele>1079.6</ele><time>2026-03-28T11:26:42.643Z</time></trkpt><trkpt lat="39.2523575" lon="16.7378946"><ele>1076.4</ele><time>2026-03-28T11:26:43.648Z</time></trkpt><trkpt lat="39.252445" lon="16.7378596"><ele>1073.2</ele><time>2026-03-28T11:26:45.657Z</time></trkpt><trkpt lat="39.2525355" lon="16.7379015"><ele>1070.0</ele><time>2026-03-28T11:26:47.641Z</time></trkpt><trkpt lat="39.2526105" lon="16.7379919"><ele>1070.0</ele><time>2026-03-28T11:26:49.648Z</time></trkpt><trkpt lat="39.2527068" lon="16.7380658"><ele>1070.0</ele><time>2026-03-28T11:26:51.65Z</time></trkpt><trkpt lat="39.2527655" lon="16.7381107"><ele>1070.0</ele><time>2026-03-28T11:26:52.645Z</time></trkpt><trkpt lat="39.252824" lon="16.738158"><ele>1070.0</ele><time>2026-03-28T11:26:53.647Z</time></trkpt><trkpt lat="39.2528829" lon="16.7382068"><ele>1070.0</ele><time>2026-03-28T11:26:54.648Z</time></trkpt><trkpt lat="39.2529443" lon="16.7382675"><ele>1070.0</ele><time>2026-03-28T11:26:55.641Z</time></trkpt><trkpt lat="39.2530001" lon="16.738379"><ele>1070.0</ele><time>2026-03-28T11:26:57.645Z</time></trkpt><trkpt lat="39.2529281" lon="16.7384589"><ele>1070.0</ele><time>2026-03-28T11:26:59.645Z</time></trkpt><trkpt lat="39.2529271" lon="16.7385965"><ele>1070.0</ele><time>2026-03-28T11:27:01.646Z</time></trkpt><trkpt lat="39.2529455" lon="16.7387043"><ele>1070.0</ele><time>2026-03-28T11:27:03.643Z</time></trkpt><trkpt lat="39.2529812" lon="16.73879"><ele>1070.0</ele><time>2026-03-28T11:27:06.646Z</time></trkpt><trkpt lat="39.2530678" lon="16.7387405"><ele>1068.1666666666667</ele><time>2026-03-28T11:27:10.645Z</time></trkpt><trkpt lat="39.2531456" lon="16.7386735"><ele>1066.3333333333335</ele><time>2026-03-28T11:27:12.644Z</time></trkpt><trkpt lat="39.2532038" lon="16.7386299"><ele>1064.5</ele><time>2026-03-28T11:27:13.651Z</time></trkpt><trkpt lat="39.2532625" lon="16.7385957"><ele>1062.6666666666667</ele><time>2026-03-28T11:27:14.645Z</time></trkpt><trkpt lat="39.2533583" lon="16.7385417"><ele>1060.8333333333333</ele><time>2026-03-28T11:27:16.647Z</time></trkpt><trkpt lat="39.2534566" lon="16.7384744"><ele>1059.0</ele><time>2026-03-28T11:27:18.646Z</time></trkpt><trkpt lat="39.2535453" lon="16.7383768"><ele>1059.0</ele><time>2026-03-28T11:27:20.65Z</time></trkpt><trkpt lat="39.2536057" lon="16.7382988"><ele>1059.0</ele><time>2026-03-28T11:27:22.646Z</time></trkpt><trkpt lat="39.2536857" lon="16.7382929"><ele>1059.0</ele><time>2026-03-28T11:27:24.651Z</time></trkpt><trkpt lat="39.2538107" lon="16.7383863"><ele>1059.0</ele><time>2026-03-28T11:27:26.642Z</time></trkpt><trkpt lat="39.2538793" lon="16.7384641"><ele>1059.0</ele><time>2026-03-28T11:27:27.646Z</time></trkpt><trkpt lat="39.253951" lon="16.7385282"><ele>1058.0</ele><time>2026-03-28T11:27:28.649Z</time></trkpt><trkpt lat="39.2540161" lon="16.7385892"><ele>1057.0</ele><time>2026-03-28T11:27:29.642Z</time></trkpt><trkpt lat="39.2540765" lon="16.7386323"><ele>1056.0</ele><time>2026-03-28T11:27:30.639Z</time></trkpt><trkpt lat="39.2541372" lon="16.7386633"><ele>1055.0</ele><time>2026-03-28T11:27:31.642Z</time></trkpt><trkpt lat="39.2542671" lon="16.7386333"><ele>1054.0</ele><time>2026-03-28T11:27:33.638Z</time></trkpt><trkpt lat="39.2543375" lon="16.7385705"><ele>1053.0</ele><time>2026-03-28T11:27:34.643Z</time></trkpt><trkpt lat="39.2543942" lon="16.7384883"><ele>1053.0</ele><time>2026-03-28T11:27:35.648Z</time></trkpt><trkpt lat="39.254437" lon="16.7384106"><ele>1053.0</ele><time>2026-03-28T11:27:36.641Z</time></trkpt><trkpt lat="39.2544787" lon="16.7383362"><ele>1053.0</ele><time>2026-03-28T11:27:37.639Z</time></trkpt><trkpt lat="39.2545232" lon="16.7382615"><ele>1053.0</ele><time>2026-03-28T11:27:38.645Z</time></trkpt><trkpt lat="39.2545738" lon="16.7381722"><ele>1053.0</ele><time>2026-03-28T11:27:39.652Z</time></trkpt><trkpt lat="39.2546256" lon="16.7380657"><ele>1053.0</ele><time>2026-03-28T11:27:40.642Z</time></trkpt><trkpt lat="39.2546755" lon="16.7379912"><ele>1053.0</ele><time>2026-03-28T11:27:41.645Z</time></trkpt><trkpt lat="39.2547376" lon="16.7379594"><ele>1053.0</ele><time>2026-03-28T11:27:42.644Z</time></trkpt><trkpt lat="39.254825" lon="16.7380176"><ele>1053.0</ele><time>2026-03-28T11:27:44.641Z</time></trkpt><trkpt lat="39.2548664" lon="16.738107"><ele>1053.0</ele><time>2026-03-28T11:27:46.643Z</time></trkpt><trkpt lat="39.2548989" lon="16.7381769"><ele>1053.0</ele><time>2026-03-28T11:27:48.644Z</time></trkpt><trkpt lat="39.2549351" lon="16.7382439"><ele>1053.0</ele><time>2026-03-28T11:27:53.646Z</time></trkpt><trkpt lat="39.2550273" lon="16.7382583"><ele>1051.4285714285713</ele><time>2026-03-28T11:28:08.643Z</time></trkpt><trkpt lat="39.2549648" lon="16.7382682"><ele>1049.857142857143</ele><time>2026-03-28T11:28:32.651Z</time></trkpt><trkpt lat="39.2550049" lon="16.7383459"><ele>1048.2857142857142</ele><time>2026-03-28T11:28:40.65Z</time></trkpt><trkpt lat="39.2550232" lon="16.73843"><ele>1046.7142857142858</ele><time>2026-03-28T11:28:43.644Z</time></trkpt><trkpt lat="39.2550326" lon="16.7385106"><ele>1045.142857142857</ele><time>2026-03-28T11:28:46.651Z</time></trkpt><trkpt lat="39.2550479" lon="16.7385964"><ele>1043.5714285714284</ele><time>2026-03-28T11:29:18.643Z</time></trkpt><trkpt lat="39.255027" lon="16.738503"><ele>1042.0</ele><time>2026-03-28T11:29:40.651Z</time></trkpt><trkpt lat="39.2550194" lon="16.7384168"><ele>1042.0</ele><time>2026-03-28T11:29:53.648Z</time></trkpt><trkpt lat="39.2550721" lon="16.7383596"><ele>1042.0</ele><time>2026-03-28T11:29:57.647Z</time></trkpt><trkpt lat="39.2551179" lon="16.7382892"><ele>1042.0</ele><time>2026-03-28T11:30:00.647Z</time></trkpt><trkpt lat="39.2551615" lon="16.738213"><ele>1042.0</ele><time>2026-03-28T11:30:04.648Z</time></trkpt><trkpt lat="39.2552249" lon="16.7381889"><ele>1042.0</ele><time>2026-03-28T11:30:06.642Z</time></trkpt><trkpt lat="39.2553104" lon="16.738256"><ele>1042.0</ele><time>2026-03-28T11:30:11.657Z</time></trkpt><trkpt lat="39.2553758" lon="16.7383219"><ele>1042.0</ele><time>2026-03-28T11:30:14.646Z</time></trkpt><trkpt lat="39.2554338" lon="16.7384178"><ele>1042.0</ele><time>2026-03-28T11:30:20.645Z</time></trkpt><trkpt lat="39.2554681" lon="16.738512"><ele>1042.0</ele><time>2026-03-28T11:30:23.645Z</time></trkpt><trkpt lat="39.255445" lon="16.738603"><ele>1042.0</ele><time>2026-03-28T11:30:40.651Z</time></trkpt><trkpt lat="39.255404" lon="16.7387233"><ele>1042.0</ele><time>2026-03-28T11:30:42.679Z</time></trkpt><trkpt lat="39.2553569" lon="16.7387989"><ele>1042.0</ele><time>2026-03-28T11:30:43.648Z</time></trkpt><trkpt lat="39.2553037" lon="16.7388779"><ele>1040.0</ele><time>2026-03-28T11:30:44.649Z</time></trkpt><trkpt lat="39.2552592" lon="16.7389588"><ele>1038.0</ele><time>2026-03-28T11:30:45.646Z</time></trkpt><trkpt lat="39.2551945" lon="16.7390906"><ele>1036.0</ele><time>2026-03-28T11:30:47.649Z</time></trkpt><trkpt lat="39.2551561" lon="16.7391674"><ele>1034.0</ele><time>2026-03-28T11:30:48.653Z</time></trkpt><trkpt lat="39.2551169" lon="16.7392467"><ele>1032.0</ele><time>2026-03-28T11:30:49.646Z</time></trkpt><trkpt lat="39.2550741" lon="16.739329"><ele>1030.0</ele><time>2026-03-28T11:30:50.652Z</time></trkpt><trkpt lat="39.2550356" lon="16.7394088"><ele>1025.5</ele><time>2026-03-28T11:30:51.644Z</time></trkpt><trkpt lat="39.2549964" lon="16.739478"><ele>1021.0</ele><time>2026-03-28T11:30:52.656Z</time></trkpt><trkpt lat="39.2549579" lon="16.7395463"><ele>1016.5</ele><time>2026-03-28T11:30:53.641Z</time></trkpt><trkpt lat="39.2549228" lon="16.7396163"><ele>1012.0</ele><time>2026-03-28T11:30:54.649Z</time></trkpt><trkpt lat="39.254895" lon="16.7396904"><ele>1007.4999999999999</ele><time>2026-03-28T11:30:55.652Z</time></trkpt><trkpt lat="39.254874" lon="16.7398227"><ele>1003.0</ele><time>2026-03-28T11:30:57.646Z</time></trkpt><trkpt lat="39.2548587" lon="16.739952"><ele>1002.9999999999999</ele><time>2026-03-28T11:30:59.648Z</time></trkpt><trkpt lat="39.2548475" lon="16.7400332"><ele>1003.0</ele><time>2026-03-28T11:31:01.644Z</time></trkpt><trkpt lat="39.2547907" lon="16.7400826"><ele>1003.0</ele><time>2026-03-28T11:31:03.647Z</time></trkpt><trkpt lat="39.254713" lon="16.7400891"><ele>1003.0</ele><time>2026-03-28T11:31:05.647Z</time></trkpt><trkpt lat="39.2546268" lon="16.7400847"><ele>1002.9999999999999</ele><time>2026-03-28T11:31:07.645Z</time></trkpt><trkpt lat="39.254526" lon="16.740094"><ele>1003.0</ele><time>2026-03-28T11:31:09.648Z</time></trkpt><trkpt lat="39.2544376" lon="16.740109"><ele>1003.3333333333333</ele><time>2026-03-28T11:31:11.649Z</time></trkpt><trkpt lat="39.2543587" lon="16.7401102"><ele>1003.6666666666666</ele><time>2026-03-28T11:31:13.643Z</time></trkpt><trkpt lat="39.2542625" lon="16.7401029"><ele>1004.0</ele><time>2026-03-28T11:31:15.649Z</time></trkpt><trkpt lat="39.2541904" lon="16.7401305"><ele>1004.3333333333333</ele><time>2026-03-28T11:31:17.648Z</time></trkpt><trkpt lat="39.2541949" lon="16.7402391"><ele>1004.6666666666666</ele><time>2026-03-28T11:31:19.644Z</time></trkpt><trkpt lat="39.2542098" lon="16.7403308"><ele>1005.0</ele><time>2026-03-28T11:31:20.645Z</time></trkpt><trkpt lat="39.2542279" lon="16.7404544"><ele>1005.0</ele><time>2026-03-28T11:31:21.642Z</time></trkpt><trkpt lat="39.2542463" lon="16.7405676"><ele>1005.0</ele><time>2026-03-28T11:31:22.638Z</time></trkpt><trkpt lat="39.2542459" lon="16.7407179"><ele>1005.0</ele><time>2026-03-28T11:31:24.648Z</time></trkpt><trkpt lat="39.2542156" lon="16.7408051"><ele>1005.0</ele><time>2026-03-28T11:31:25.646Z</time></trkpt><trkpt lat="39.2541676" lon="16.7408789"><ele>1005.0</ele><time>2026-03-28T11:31:26.634Z</time></trkpt><trkpt lat="39.2541021" lon="16.7409352"><ele>1005.0</ele><time>2026-03-28T11:31:27.648Z</time></trkpt><trkpt lat="39.2540212" lon="16.7409911"><ele>1006.8</ele><time>2026-03-28T11:31:28.641Z</time></trkpt><trkpt lat="39.2539258" lon="16.7410597"><ele>1008.6</ele><time>2026-03-28T11:31:29.642Z</time></trkpt><trkpt lat="39.2538281" lon="16.7411358"><ele>1010.4000000000001</ele><time>2026-03-28T11:31:30.652Z</time></trkpt><trkpt lat="39.2537318" lon="16.7411997"><ele>1012.2</ele><time>2026-03-28T11:31:31.649Z</time></trkpt><trkpt lat="39.2536606" lon="16.7412329"><ele>1014.0</ele><time>2026-03-28T11:31:32.646Z</time></trkpt><trkpt lat="39.2535413" lon="16.7412478"><ele>1014.0</ele><time>2026-03-28T11:31:34.644Z</time></trkpt><trkpt lat="39.2534103" lon="16.74127"><ele>1014.0000000000001</ele><time>2026-03-28T11:31:36.652Z</time></trkpt><trkpt lat="39.2533303" lon="16.7413145"><ele>1014.0000000000001</ele><time>2026-03-28T11:31:37.646Z</time></trkpt><trkpt lat="39.2532677" lon="16.7413469"><ele>1014.0</ele><time>2026-03-28T11:31:38.651Z</time></trkpt><trkpt lat="39.2532136" lon="16.7413997"><ele>1014.0</ele><time>2026-03-28T11:31:40.645Z</time></trkpt><trkpt lat="39.2532887" lon="16.741486"><ele>1014.0</ele><time>2026-03-28T11:31:43.64Z</time></trkpt><trkpt lat="39.2533804" lon="16.7415452"><ele>1014.0</ele><time>2026-03-28T11:31:45.65Z</time></trkpt><trkpt lat="39.2534228" lon="16.7416072"><ele>1014.0</ele><time>2026-03-28T11:31:46.638Z</time></trkpt><trkpt lat="39.2534799" lon="16.7416873"><ele>1014.0</ele><time>2026-03-28T11:31:47.65Z</time></trkpt><trkpt lat="39.2535403" lon="16.7417675"><ele>1014.0</ele><time>2026-03-28T11:31:48.643Z</time></trkpt><trkpt lat="39.2536321" lon="16.7418297"><ele>1014.0</ele><time>2026-03-28T11:31:49.645Z</time></trkpt><trkpt lat="39.253728" lon="16.7418855"><ele>1013.75</ele><time>2026-03-28T11:31:50.647Z</time></trkpt><trkpt lat="39.2538236" lon="16.7419501"><ele>1013.5</ele><time>2026-03-28T11:31:51.644Z</time></trkpt><trkpt lat="39.2539213" lon="16.7420419"><ele>1013.25</ele><time>2026-03-28T11:31:52.642Z</time></trkpt><trkpt lat="39.2540187" lon="16.74215"><ele>1013.0</ele><time>2026-03-28T11:31:53.641Z</time></trkpt><trkpt lat="39.2541049" lon="16.7422599"><ele>1009.3333333333334</ele><time>2026-03-28T11:31:54.643Z</time></trkpt><trkpt lat="39.2541693" lon="16.7423449"><ele>1005.6666666666667</ele><time>2026-03-28T11:31:55.648Z</time></trkpt><trkpt lat="39.254201" lon="16.7424304"><ele>1002.0</ele><time>2026-03-28T11:31:56.646Z</time></trkpt><trkpt lat="39.2542248" lon="16.7425233"><ele>998.3333333333333</ele><time>2026-03-28T11:31:57.645Z</time></trkpt><trkpt lat="39.2542485" lon="16.7426075"><ele>994.6666666666666</ele><time>2026-03-28T11:31:58.639Z</time></trkpt><trkpt lat="39.2542427" lon="16.7426994"><ele>991.0</ele><time>2026-03-28T11:31:59.642Z</time></trkpt><trkpt lat="39.2542087" lon="16.7428496"><ele>989.8</ele><time>2026-03-28T11:32:01.647Z</time></trkpt><trkpt lat="39.2541487" lon="16.7429607"><ele>988.5999999999999</ele><time>2026-03-28T11:32:03.643Z</time></trkpt><trkpt lat="39.2540889" lon="16.7430901"><ele>987.4</ele><time>2026-03-28T11:32:05.649Z</time></trkpt><trkpt lat="39.2540285" lon="16.7432043"><ele>986.2</ele><time>2026-03-28T11:32:07.654Z</time></trkpt><trkpt lat="39.2539947" lon="16.743273"><ele>985.0</ele><time>2026-03-28T11:32:08.65Z</time></trkpt><trkpt lat="39.2539541" lon="16.7434123"><ele>984.1428571428572</ele><time>2026-03-28T11:32:10.654Z</time></trkpt><trkpt lat="39.2539391" lon="16.7435164"><ele>983.2857142857144</ele><time>2026-03-28T11:32:12.648Z</time></trkpt><trkpt lat="39.2539873" lon="16.7436042"><ele>982.4285714285714</ele><time>2026-03-28T11:32:16.65Z</time></trkpt><trkpt lat="39.2540569" lon="16.7436534"><ele>981.5714285714287</ele><time>2026-03-28T11:32:19.648Z</time></trkpt><trkpt lat="39.2541212" lon="16.7436756"><ele>980.7142857142858</ele><time>2026-03-28T11:32:26.653Z</time></trkpt><trkpt lat="39.2541889" lon="16.7436657"><ele>979.8571428571429</ele><time>2026-03-28T11:32:31.66Z</time></trkpt><trkpt lat="39.254216" lon="16.7437461"><ele>979.0</ele><time>2026-03-28T11:32:41.652Z</time></trkpt><trkpt lat="39.2541861" lon="16.7438298"><ele>978.9999999999999</ele><time>2026-03-28T11:32:43.657Z</time></trkpt><trkpt lat="39.254187" lon="16.7439261"><ele>979.0</ele><time>2026-03-28T11:32:46.646Z</time></trkpt><trkpt lat="39.2541631" lon="16.7440316"><ele>979.0</ele><time>2026-03-28T11:32:50.645Z</time></trkpt><trkpt lat="39.2541831" lon="16.7441401"><ele>979.0</ele><time>2026-03-28T11:32:53.659Z</time></trkpt><trkpt lat="39.2542086" lon="16.7442345"><ele>978.9999999999999</ele><time>2026-03-28T11:32:55.65Z</time></trkpt><trkpt lat="39.2542305" lon="16.7443352"><ele>979.0</ele><time>2026-03-28T11:32:57.65Z</time></trkpt><trkpt lat="39.2542717" lon="16.744411"><ele>978.1428571428571</ele><time>2026-03-28T11:33:01.651Z</time></trkpt><trkpt lat="39.2543469" lon="16.7444513"><ele>977.2857142857143</ele><time>2026-03-28T11:33:05.652Z</time></trkpt><trkpt lat="39.2543775" lon="16.7445511"><ele>976.4285714285714</ele><time>2026-03-28T11:33:08.649Z</time></trkpt><trkpt lat="39.2544105" lon="16.7446356"><ele>975.5714285714286</ele><time>2026-03-28T11:33:11.652Z</time></trkpt><trkpt lat="39.2544644" lon="16.7446783"><ele>974.7142857142858</ele><time>2026-03-28T11:33:14.644Z</time></trkpt><trkpt lat="39.2544593" lon="16.7447675"><ele>973.8571428571429</ele><time>2026-03-28T11:33:17.651Z</time></trkpt><trkpt lat="39.2544734" lon="16.7448542"><ele>973.0</ele><time>2026-03-28T11:33:32.649Z</time></trkpt><trkpt lat="39.2545088" lon="16.7449787"><ele>972.9999999999999</ele><time>2026-03-28T11:33:36.646Z</time></trkpt><trkpt lat="39.2545511" lon="16.7451119"><ele>973.0</ele><time>2026-03-28T11:33:38.644Z</time></trkpt><trkpt lat="39.2546273" lon="16.7452206"><ele>973.0</ele><time>2026-03-28T11:33:40.645Z</time></trkpt><trkpt lat="39.2546797" lon="16.7452764"><ele>973.0</ele><time>2026-03-28T11:33:41.644Z</time></trkpt><trkpt lat="39.2547392" lon="16.7453327"><ele>972.9999999999999</ele><time>2026-03-28T11:33:42.644Z</time></trkpt><trkpt lat="39.2548042" lon="16.7453903"><ele>973.0</ele><time>2026-03-28T11:33:43.66Z</time></trkpt><trkpt lat="39.25487" lon="16.7454473"><ele>973.8333333333333</ele><time>2026-03-28T11:33:44.65Z</time></trkpt><trkpt lat="39.2549309" lon="16.7454985"><ele>974.6666666666666</ele><time>2026-03-28T11:33:45.649Z</time></trkpt><trkpt lat="39.254988" lon="16.7455469"><ele>975.5</ele><time>2026-03-28T11:33:46.649Z</time></trkpt><trkpt lat="39.2550423" lon="16.745594"><ele>976.3333333333333</ele><time>2026-03-28T11:33:47.648Z</time></trkpt><trkpt lat="39.2551344" lon="16.7456856"><ele>977.1666666666666</ele><time>2026-03-28T11:33:49.647Z</time></trkpt><trkpt lat="39.255154" lon="16.7458138"><ele>978.0</ele><time>2026-03-28T11:33:51.645Z</time></trkpt><trkpt lat="39.2551352" lon="16.7459609"><ele>977.8333333333334</ele><time>2026-03-28T11:33:53.655Z</time></trkpt><trkpt lat="39.255121" lon="16.7460508"><ele>977.6666666666667</ele><time>2026-03-28T11:33:54.65Z</time></trkpt><trkpt lat="39.255109" lon="16.7461429"><ele>977.5</ele><time>2026-03-28T11:33:55.646Z</time></trkpt><trkpt lat="39.255099" lon="16.7462356"><ele>977.3333333333334</ele><time>2026-03-28T11:33:56.637Z</time></trkpt><trkpt lat="39.2550956" lon="16.7463281"><ele>977.1666666666667</ele><time>2026-03-28T11:33:57.647Z</time></trkpt><trkpt lat="39.2550828" lon="16.7464768"><ele>977.0</ele><time>2026-03-28T11:33:59.652Z</time></trkpt><trkpt lat="39.2550645" lon="16.7466035"><ele>977.0000000000001</ele><time>2026-03-28T11:34:01.643Z</time></trkpt><trkpt lat="39.2550446" lon="16.746692"><ele>977.0</ele><time>2026-03-28T11:34:03.648Z</time></trkpt><trkpt lat="39.2550389" lon="16.7467825"><ele>977.0000000000001</ele><time>2026-03-28T11:34:06.652Z</time></trkpt><trkpt lat="39.2550347" lon="16.7468879"><ele>977.0000000000001</ele><time>2026-03-28T11:34:11.644Z</time></trkpt><trkpt lat="39.255032" lon="16.7469949"><ele>977.0</ele><time>2026-03-28T11:34:15.643Z</time></trkpt><trkpt lat="39.2550208" lon="16.7470781"><ele>977.0000000000001</ele><time>2026-03-28T11:34:19.658Z</time></trkpt><trkpt lat="39.2550006" lon="16.7471738"><ele>977.0000000000001</ele><time>2026-03-28T11:34:23.664Z</time></trkpt><trkpt lat="39.2549766" lon="16.7472554"><ele>977.0</ele><time>2026-03-28T11:34:24.646Z</time></trkpt><trkpt lat="39.2549514" lon="16.7473427"><ele>977.0</ele><time>2026-03-28T11:34:25.649Z</time></trkpt><trkpt lat="39.2549542" lon="16.7474492"><ele>977.0</ele><time>2026-03-28T11:34:26.651Z</time></trkpt><trkpt lat="39.254972" lon="16.7475892"><ele>977.0</ele><time>2026-03-28T11:34:27.644Z</time></trkpt><trkpt lat="39.2549828" lon="16.7477348"><ele>977.0</ele><time>2026-03-28T11:34:28.65Z</time></trkpt><trkpt lat="39.2549911" lon="16.7478684"><ele>977.1666666666667</ele><time>2026-03-28T11:34:29.648Z</time></trkpt><trkpt lat="39.255005" lon="16.7479922"><ele>977.3333333333334</ele><time>2026-03-28T11:34:30.648Z</time></trkpt><trkpt lat="39.2550162" lon="16.7480921"><ele>977.5</ele><time>2026-03-28T11:34:31.639Z</time></trkpt><trkpt lat="39.2550258" lon="16.7482059"><ele>977.6666666666667</ele><time>2026-03-28T11:34:33.644Z</time></trkpt><trkpt lat="39.2550319" lon="16.7482892"><ele>977.8333333333334</ele><time>2026-03-28T11:34:35.65Z</time></trkpt><trkpt lat="39.255039" lon="16.7483821"><ele>978.0</ele><time>2026-03-28T11:34:37.649Z</time></trkpt><trkpt lat="39.2550519" lon="16.7484941"><ele>978.0</ele><time>2026-03-28T11:34:39.645Z</time></trkpt><trkpt lat="39.2550667" lon="16.7486213"><ele>978.0</ele><time>2026-03-28T11:34:41.649Z</time></trkpt><trkpt lat="39.255084" lon="16.7487718"><ele>978.0</ele><time>2026-03-28T11:34:43.639Z</time></trkpt><trkpt lat="39.2551096" lon="16.7489006"><ele>978.0</ele><time>2026-03-28T11:34:45.645Z</time></trkpt><trkpt lat="39.2551215" lon="16.7490212"><ele>978.0</ele><time>2026-03-28T11:34:47.645Z</time></trkpt><trkpt lat="39.2551546" lon="16.7491455"><ele>978.0</ele><time>2026-03-28T11:34:49.644Z</time></trkpt><trkpt lat="39.2552068" lon="16.7492599"><ele>978.0</ele><time>2026-03-28T11:34:51.648Z</time></trkpt><trkpt lat="39.2552671" lon="16.7493638"><ele>978.0</ele><time>2026-03-28T11:34:53.644Z</time></trkpt><trkpt lat="39.255353" lon="16.7494585"><ele>978.0</ele><time>2026-03-28T11:34:55.647Z</time></trkpt><trkpt lat="39.2554284" lon="16.7495755"><ele>978.0</ele><time>2026-03-28T11:34:57.651Z</time></trkpt><trkpt lat="39.2554962" lon="16.7496802"><ele>978.4</ele><time>2026-03-28T11:34:59.644Z</time></trkpt><trkpt lat="39.2555595" lon="16.7497735"><ele>978.8</ele><time>2026-03-28T11:35:01.646Z</time></trkpt><trkpt lat="39.2556008" lon="16.7498735"><ele>979.2</ele><time>2026-03-28T11:35:03.651Z</time></trkpt><trkpt lat="39.2556011" lon="16.7499959"><ele>979.6</ele><time>2026-03-28T11:35:05.639Z</time></trkpt><trkpt lat="39.2555856" lon="16.7501337"><ele>980.0</ele><time>2026-03-28T11:35:07.645Z</time></trkpt><trkpt lat="39.2555813" lon="16.7502745"><ele>980.0</ele><time>2026-03-28T11:35:09.639Z</time></trkpt><trkpt lat="39.2555872" lon="16.7504153"><ele>980.0</ele><time>2026-03-28T11:35:11.64Z</time></trkpt><trkpt lat="39.2555776" lon="16.750547"><ele>980.0</ele><time>2026-03-28T11:35:13.65Z</time></trkpt><trkpt lat="39.2555712" lon="16.7506903"><ele>980.0</ele><time>2026-03-28T11:35:15.645Z</time></trkpt><trkpt lat="39.255593" lon="16.7508536"><ele>980.0000000000001</ele><time>2026-03-28T11:35:17.642Z</time></trkpt><trkpt lat="39.2556165" lon="16.7509338"><ele>980.0</ele><time>2026-03-28T11:35:18.645Z</time></trkpt><trkpt lat="39.2556361" lon="16.7510151"><ele>980.0</ele><time>2026-03-28T11:35:19.646Z</time></trkpt><trkpt lat="39.2556527" lon="16.7511527"><ele>980.0</ele><time>2026-03-28T11:35:21.643Z</time></trkpt><trkpt lat="39.2556558" lon="16.7512626"><ele>980.0000000000001</ele><time>2026-03-28T11:35:23.643Z</time></trkpt><trkpt lat="39.2556573" lon="16.7513444"><ele>980.0</ele><time>2026-03-28T11:35:25.647Z</time></trkpt><trkpt lat="39.2556343" lon="16.7514569"><ele>979.3333333333334</ele><time>2026-03-28T11:35:28.644Z</time></trkpt><trkpt lat="39.2555565" lon="16.751554"><ele>978.6666666666667</ele><time>2026-03-28T11:35:31.641Z</time></trkpt><trkpt lat="39.2554825" lon="16.751588"><ele>978.0</ele><time>2026-03-28T11:35:33.644Z</time></trkpt><trkpt lat="39.255418" lon="16.751624"><ele>977.3333333333333</ele><time>2026-03-28T11:35:35.667Z</time></trkpt><trkpt lat="39.255353" lon="16.7516713"><ele>976.6666666666666</ele><time>2026-03-28T11:35:38.712Z</time></trkpt><trkpt lat="39.2553213" lon="16.7517508"><ele>976.0</ele><time>2026-03-28T11:35:48.675Z</time></trkpt><trkpt lat="39.2552579" lon="16.7517863"><ele>975.9999999999999</ele><time>2026-03-28T11:35:52.649Z</time></trkpt><trkpt lat="39.2551971" lon="16.7518113"><ele>976.0</ele><time>2026-03-28T11:35:57.695Z</time></trkpt><trkpt lat="39.2551391" lon="16.7518591"><ele>975.9999999999999</ele><time>2026-03-28T11:36:00.72Z</time></trkpt><trkpt lat="39.2550631" lon="16.7519031"><ele>975.9999999999999</ele><time>2026-03-28T11:36:03.647Z</time></trkpt><trkpt lat="39.2549869" lon="16.7519256"><ele>976.0</ele><time>2026-03-28T11:36:06.655Z</time></trkpt><trkpt lat="39.2549198" lon="16.7519636"><ele>975.9999999999999</ele><time>2026-03-28T11:36:10.657Z</time></trkpt><trkpt lat="39.2548631" lon="16.7520161"><ele>975.9999999999999</ele><time>2026-03-28T11:36:16.697Z</time></trkpt><trkpt lat="39.2548398" lon="16.7520918"><ele>974.6666666666666</ele><time>2026-03-28T11:36:21.647Z</time></trkpt><trkpt lat="39.2548448" lon="16.7521985"><ele>973.3333333333333</ele><time>2026-03-28T11:36:25.649Z</time></trkpt><trkpt lat="39.2548226" lon="16.7522908"><ele>972.0</ele><time>2026-03-28T11:36:28.644Z</time></trkpt><trkpt lat="39.2547777" lon="16.7523708"><ele>970.6666666666667</ele><time>2026-03-28T11:36:31.649Z</time></trkpt><trkpt lat="39.2547372" lon="16.7524515"><ele>969.3333333333334</ele><time>2026-03-28T11:36:34.646Z</time></trkpt><trkpt lat="39.2546984" lon="16.7525598"><ele>968.0</ele><time>2026-03-28T11:36:37.65Z</time></trkpt><trkpt lat="39.2546459" lon="16.7526463"><ele>963.5000000000001</ele><time>2026-03-28T11:36:40.645Z</time></trkpt><trkpt lat="39.2545939" lon="16.7527206"><ele>959.0</ele><time>2026-03-28T11:36:43.645Z</time></trkpt><trkpt lat="39.2545178" lon="16.7527586"><ele>954.5</ele><time>2026-03-28T11:36:46.656Z</time></trkpt><trkpt lat="39.2544258" lon="16.7527556"><ele>950.0</ele><time>2026-03-28T11:36:49.642Z</time></trkpt><trkpt lat="39.2543505" lon="16.752786"><ele>945.5000000000001</ele><time>2026-03-28T11:36:53.653Z</time></trkpt><trkpt lat="39.2543778" lon="16.7528995"><ele>941.0</ele><time>2026-03-28T11:36:56.651Z</time></trkpt><trkpt lat="39.2544109" lon="16.7529721"><ele>941.0000000000001</ele><time>2026-03-28T11:36:58.659Z</time></trkpt><trkpt lat="39.2544417" lon="16.7530437"><ele>941.0</ele><time>2026-03-28T11:37:03.653Z</time></trkpt><trkpt lat="39.2544756" lon="16.7531238"><ele>941.0</ele><time>2026-03-28T11:37:06.661Z</time></trkpt><trkpt lat="39.2544607" lon="16.7532095"><ele>941.0</ele><time>2026-03-28T11:37:10.651Z</time></trkpt><trkpt lat="39.2543954" lon="16.7532238"><ele>941.0000000000001</ele><time>2026-03-28T11:37:13.646Z</time></trkpt><trkpt lat="39.2542987" lon="16.7531708"><ele>941.0</ele><time>2026-03-28T11:37:16.65Z</time></trkpt><trkpt lat="39.2542229" lon="16.7530891"><ele>941.0000000000001</ele><time>2026-03-28T11:37:18.646Z</time></trkpt><trkpt lat="39.2541437" lon="16.75301"><ele>941.0</ele><time>2026-03-28T11:37:20.673Z</time></trkpt><trkpt lat="39.2540725" lon="16.7529667"><ele>941.0</ele><time>2026-03-28T11:37:22.653Z</time></trkpt><trkpt lat="39.2540038" lon="16.7529131"><ele>941.0</ele><time>2026-03-28T11:37:24.642Z</time></trkpt><trkpt lat="39.2539144" lon="16.7528561"><ele>941.0000000000001</ele><time>2026-03-28T11:37:26.643Z</time></trkpt><trkpt lat="39.2538374" lon="16.7528069"><ele>941.0</ele><time>2026-03-28T11:37:28.647Z</time></trkpt><trkpt lat="39.2537645" lon="16.7528267"><ele>939.0000000000001</ele><time>2026-03-28T11:37:30.642Z</time></trkpt><trkpt lat="39.2536839" lon="16.7528728"><ele>937.0</ele><time>2026-03-28T11:37:32.647Z</time></trkpt><trkpt lat="39.2536167" lon="16.7529158"><ele>935.0</ele><time>2026-03-28T11:37:34.65Z</time></trkpt><trkpt lat="39.2535473" lon="16.7529598"><ele>933.0</ele><time>2026-03-28T11:37:37.641Z</time></trkpt><trkpt lat="39.2534995" lon="16.7530257"><ele>931.0000000000001</ele><time>2026-03-28T11:37:45.654Z</time></trkpt><trkpt lat="39.2534471" lon="16.7530994"><ele>929.0</ele><time>2026-03-28T11:37:48.645Z</time></trkpt><trkpt lat="39.2534442" lon="16.7531863"><ele>929.0000000000001</ele><time>2026-03-28T11:37:51.64Z</time></trkpt><trkpt lat="39.2535029" lon="16.753295"><ele>929.0</ele><time>2026-03-28T11:37:53.649Z</time></trkpt><trkpt lat="39.2535427" lon="16.7533626"><ele>929.0</ele><time>2026-03-28T11:37:54.642Z</time></trkpt><trkpt lat="39.2535834" lon="16.7534395"><ele>929.0</ele><time>2026-03-28T11:37:55.657Z</time></trkpt><trkpt lat="39.2536244" lon="16.7535242"><ele>929.0000000000001</ele><time>2026-03-28T11:37:56.641Z</time></trkpt><trkpt lat="39.2536605" lon="16.7536195"><ele>929.0</ele><time>2026-03-28T11:37:57.646Z</time></trkpt><trkpt lat="39.2536856" lon="16.7537209"><ele>927.6</ele><time>2026-03-28T11:37:58.654Z</time></trkpt><trkpt lat="39.2537031" lon="16.7538162"><ele>926.2</ele><time>2026-03-28T11:37:59.647Z</time></trkpt><trkpt lat="39.2537136" lon="16.7539016"><ele>924.8000000000001</ele><time>2026-03-28T11:38:00.647Z</time></trkpt><trkpt lat="39.2537255" lon="16.7540332"><ele>923.4000000000001</ele><time>2026-03-28T11:38:02.642Z</time></trkpt><trkpt lat="39.2537388" lon="16.7541583"><ele>922.0</ele><time>2026-03-28T11:38:04.642Z</time></trkpt><trkpt lat="39.2537387" lon="16.754303"><ele>920.8333333333333</ele><time>2026-03-28T11:38:06.651Z</time></trkpt><trkpt lat="39.2537232" lon="16.7544576"><ele>919.6666666666666</ele><time>2026-03-28T11:38:08.642Z</time></trkpt><trkpt lat="39.2537114" lon="16.7545481"><ele>918.5</ele><time>2026-03-28T11:38:09.642Z</time></trkpt><trkpt lat="39.2537008" lon="16.754644"><ele>917.3333333333333</ele><time>2026-03-28T11:38:10.64Z</time></trkpt><trkpt lat="39.2536934" lon="16.7547316"><ele>916.1666666666666</ele><time>2026-03-28T11:38:11.644Z</time></trkpt><trkpt lat="39.2536866" lon="16.7548389"><ele>915.0</ele><time>2026-03-28T11:38:13.648Z</time></trkpt><trkpt lat="39.2536864" lon="16.7549421"><ele>915.0</ele><time>2026-03-28T11:38:16.648Z</time></trkpt><trkpt lat="39.2536958" lon="16.7550532"><ele>915.0</ele><time>2026-03-28T11:38:24.646Z</time></trkpt><trkpt lat="39.253678" lon="16.7551412"><ele>915.0</ele><time>2026-03-28T11:38:27.646Z</time></trkpt><trkpt lat="39.2536329" lon="16.7552419"><ele>915.0</ele><time>2026-03-28T11:38:29.655Z</time></trkpt><trkpt lat="39.2535989" lon="16.7553386"><ele>915.0</ele><time>2026-03-28T11:38:31.641Z</time></trkpt><trkpt lat="39.2535722" lon="16.7554516"><ele>915.0</ele><time>2026-03-28T11:38:34.646Z</time></trkpt><trkpt lat="39.2535476" lon="16.7555436"><ele>913.4285714285714</ele><time>2026-03-28T11:38:38.645Z</time></trkpt><trkpt lat="39.2534965" lon="16.7555998"><ele>911.8571428571429</ele><time>2026-03-28T11:38:47.646Z</time></trkpt><trkpt lat="39.2534397" lon="16.7555523"><ele>910.2857142857143</ele><time>2026-03-28T11:38:54.644Z</time></trkpt><trkpt lat="39.2533672" lon="16.7555258"><ele>908.7142857142858</ele><time>2026-03-28T11:39:01.641Z</time></trkpt><trkpt lat="39.2532976" lon="16.7555105"><ele>907.1428571428571</ele><time>2026-03-28T11:39:04.654Z</time></trkpt><trkpt lat="39.2532329" lon="16.7555459"><ele>905.5714285714287</ele><time>2026-03-28T11:39:07.649Z</time></trkpt><trkpt lat="39.2531744" lon="16.7556445"><ele>904.0</ele><time>2026-03-28T11:39:14.647Z</time></trkpt><trkpt lat="39.2531293" lon="16.7557082"><ele>903.3333333333333</ele><time>2026-03-28T11:39:16.658Z</time></trkpt><trkpt lat="39.2530624" lon="16.7557738"><ele>902.6666666666666</ele><time>2026-03-28T11:39:25.653Z</time></trkpt><trkpt lat="39.2529832" lon="16.7558068"><ele>902.0</ele><time>2026-03-28T11:39:27.651Z</time></trkpt><trkpt lat="39.2528997" lon="16.7558163"><ele>901.3333333333333</ele><time>2026-03-28T11:39:29.643Z</time></trkpt><trkpt lat="39.2528346" lon="16.755792"><ele>900.6666666666666</ele><time>2026-03-28T11:39:32.65Z</time></trkpt><trkpt lat="39.2527579" lon="16.755797"><ele>900.0</ele><time>2026-03-28T11:39:39.648Z</time></trkpt><trkpt lat="39.2526971" lon="16.7558601"><ele>900.0</ele><time>2026-03-28T11:39:46.658Z</time></trkpt><trkpt lat="39.2526454" lon="16.7559286"><ele>900.0</ele><time>2026-03-28T11:39:49.651Z</time></trkpt><trkpt lat="39.252584" lon="16.7560246"><ele>900.0</ele><time>2026-03-28T11:39:52.651Z</time></trkpt><trkpt lat="39.2525441" lon="16.7561286"><ele>900.0</ele><time>2026-03-28T11:39:54.652Z</time></trkpt><trkpt lat="39.2525112" lon="16.7562379"><ele>900.0</ele><time>2026-03-28T11:39:56.648Z</time></trkpt><trkpt lat="39.2525054" lon="16.7563498"><ele>900.0</ele><time>2026-03-28T11:39:58.65Z</time></trkpt><trkpt lat="39.2525457" lon="16.756458"><ele>899.2</ele><time>2026-03-28T11:40:00.647Z</time></trkpt><trkpt lat="39.2525942" lon="16.7565902"><ele>898.4</ele><time>2026-03-28T11:40:02.648Z</time></trkpt><trkpt lat="39.252629" lon="16.756723"><ele>897.5999999999999</ele><time>2026-03-28T11:40:04.648Z</time></trkpt><trkpt lat="39.2526602" lon="16.756847"><ele>896.8</ele><time>2026-03-28T11:40:06.648Z</time></trkpt><trkpt lat="39.2526844" lon="16.7569627"><ele>896.0</ele><time>2026-03-28T11:40:08.645Z</time></trkpt><trkpt lat="39.2526896" lon="16.7570673"><ele>895.0</ele><time>2026-03-28T11:40:10.65Z</time></trkpt><trkpt lat="39.252677" lon="16.7571859"><ele>893.9999999999999</ele><time>2026-03-28T11:40:12.648Z</time></trkpt><trkpt lat="39.252619" lon="16.7573223"><ele>892.9999999999999</ele><time>2026-03-28T11:40:14.644Z</time></trkpt><trkpt lat="39.2525294" lon="16.7574278"><ele>892.0</ele><time>2026-03-28T11:40:16.651Z</time></trkpt><trkpt lat="39.2524422" lon="16.757494"><ele>891.0</ele><time>2026-03-28T11:40:18.643Z</time></trkpt><trkpt lat="39.2523799" lon="16.7575297"><ele>891.0</ele><time>2026-03-28T11:40:20.646Z</time></trkpt><trkpt lat="39.2522983" lon="16.7575733"><ele>891.0</ele><time>2026-03-28T11:40:23.648Z</time></trkpt><trkpt lat="39.2522438" lon="16.7576172"><ele>891.0</ele><time>2026-03-28T11:40:25.648Z</time></trkpt><trkpt lat="39.2521856" lon="16.7576677"><ele>891.0</ele><time>2026-03-28T11:40:27.643Z</time></trkpt><trkpt lat="39.2521169" lon="16.7577344"><ele>891.0</ele><time>2026-03-28T11:40:30.646Z</time></trkpt><trkpt lat="39.2520771" lon="16.7578101"><ele>891.0</ele><time>2026-03-28T11:40:32.646Z</time></trkpt><trkpt lat="39.2520253" lon="16.7579005"><ele>889.8333333333334</ele><time>2026-03-28T11:40:34.648Z</time></trkpt><trkpt lat="39.2519567" lon="16.75798"><ele>888.6666666666667</ele><time>2026-03-28T11:40:36.643Z</time></trkpt><trkpt lat="39.2518746" lon="16.758041"><ele>887.5</ele><time>2026-03-28T11:40:38.645Z</time></trkpt><trkpt lat="39.2518204" lon="16.7581143"><ele>886.3333333333334</ele><time>2026-03-28T11:40:40.655Z</time></trkpt><trkpt lat="39.2517868" lon="16.7581946"><ele>885.1666666666667</ele><time>2026-03-28T11:40:42.643Z</time></trkpt><trkpt lat="39.2517468" lon="16.7582726"><ele>884.0</ele><time>2026-03-28T11:40:44.653Z</time></trkpt><trkpt lat="39.251707" lon="16.7583539"><ele>884.0000000000001</ele><time>2026-03-28T11:40:46.658Z</time></trkpt><trkpt lat="39.2516656" lon="16.7584391"><ele>884.0</ele><time>2026-03-28T11:40:48.649Z</time></trkpt><trkpt lat="39.2516469" lon="16.7585204"><ele>884.0</ele><time>2026-03-28T11:40:50.572Z</time></trkpt><trkpt lat="39.2515986" lon="16.7586068"><ele>884.0</ele><time>2026-03-28T11:40:52.754Z</time></trkpt><trkpt lat="39.2515719" lon="16.7587324"><ele>884.0000000000001</ele><time>2026-03-28T11:40:55.431Z</time></trkpt><trkpt lat="39.2515728" lon="16.7588343"><ele>884.0</ele><time>2026-03-28T11:40:57.43Z</time></trkpt><trkpt lat="39.2515715" lon="16.7589207"><ele>882.8333333333334</ele><time>2026-03-28T11:40:59.694Z</time></trkpt><trkpt lat="39.2515206" lon="16.7589842"><ele>881.6666666666667</ele><time>2026-03-28T11:41:03.694Z</time></trkpt><trkpt lat="39.2514888" lon="16.7590769"><ele>880.5</ele><time>2026-03-28T11:41:06.694Z</time></trkpt><trkpt lat="39.251456" lon="16.7591497"><ele>879.3333333333333</ele><time>2026-03-28T11:41:08.67Z</time></trkpt><trkpt lat="39.2514038" lon="16.7592273"><ele>878.1666666666666</ele><time>2026-03-28T11:41:10.696Z</time></trkpt><trkpt lat="39.251348" lon="16.7593304"><ele>877.0</ele><time>2026-03-28T11:41:12.653Z</time></trkpt><trkpt lat="39.2512719" lon="16.7594345"><ele>875.4285714285714</ele><time>2026-03-28T11:41:15.742Z</time></trkpt><trkpt lat="39.2512138" lon="16.7594901"><ele>873.8571428571429</ele><time>2026-03-28T11:41:18.637Z</time></trkpt><trkpt lat="39.2511733" lon="16.7595615"><ele>872.2857142857142</ele><time>2026-03-28T11:41:21.644Z</time></trkpt><trkpt lat="39.2511206" lon="16.7596214"><ele>870.7142857142858</ele><time>2026-03-28T11:41:25.644Z</time></trkpt><trkpt lat="39.2510725" lon="16.7596799"><ele>869.1428571428571</ele><time>2026-03-28T11:41:28.639Z</time></trkpt><trkpt lat="39.2510339" lon="16.7597699"><ele>867.5714285714286</ele><time>2026-03-28T11:41:31.643Z</time></trkpt><trkpt lat="39.2510031" lon="16.7598501"><ele>866.0</ele><time>2026-03-28T11:41:35.645Z</time></trkpt><trkpt lat="39.2509701" lon="16.7599443"><ele>865.9999999999999</ele><time>2026-03-28T11:41:40.642Z</time></trkpt><trkpt lat="39.2509302" lon="16.7600347"><ele>866.0</ele><time>2026-03-28T11:41:43.641Z</time></trkpt><trkpt lat="39.2509046" lon="16.7601249"><ele>866.0</ele><time>2026-03-28T11:41:46.643Z</time></trkpt><trkpt lat="39.2508791" lon="16.7602054"><ele>866.0</ele><time>2026-03-28T11:41:52.644Z</time></trkpt><trkpt lat="39.2508495" lon="16.7602848"><ele>866.0</ele><time>2026-03-28T11:41:58.646Z</time></trkpt><trkpt lat="39.2508206" lon="16.7603774"><ele>865.9999999999999</ele><time>2026-03-28T11:42:02.645Z</time></trkpt><trkpt lat="39.2507757" lon="16.7604407"><ele>866.0</ele><time>2026-03-28T11:42:05.649Z</time></trkpt><trkpt lat="39.2507098" lon="16.760492"><ele>864.0000000000001</ele><time>2026-03-28T11:42:07.645Z</time></trkpt><trkpt lat="39.2506437" lon="16.7605254"><ele>862.0</ele><time>2026-03-28T11:42:09.652Z</time></trkpt><trkpt lat="39.2505743" lon="16.7605673"><ele>860.0</ele><time>2026-03-28T11:42:12.644Z</time></trkpt><trkpt lat="39.2505031" lon="16.7605479"><ele>858.0</ele><time>2026-03-28T11:42:14.642Z</time></trkpt><trkpt lat="39.2504182" lon="16.7605507"><ele>856.0000000000001</ele><time>2026-03-28T11:42:17.642Z</time></trkpt><trkpt lat="39.2503767" lon="16.7606291"><ele>854.0</ele><time>2026-03-28T11:42:34.652Z</time></trkpt><trkpt lat="39.250337" lon="16.7607088"><ele>852.6666666666667</ele><time>2026-03-28T11:42:38.64Z</time></trkpt><trkpt lat="39.2503218" lon="16.7608015"><ele>851.3333333333334</ele><time>2026-03-28T11:42:43.646Z</time></trkpt><trkpt lat="39.2503136" lon="16.7608949"><ele>850.0</ele><time>2026-03-28T11:42:47.647Z</time></trkpt><trkpt lat="39.2503299" lon="16.7609904"><ele>848.6666666666667</ele><time>2026-03-28T11:42:50.652Z</time></trkpt><trkpt lat="39.2503415" lon="16.761072"><ele>847.3333333333334</ele><time>2026-03-28T11:42:52.643Z</time></trkpt><trkpt lat="39.2503401" lon="16.7611722"><ele>846.0</ele><time>2026-03-28T11:42:54.656Z</time></trkpt><trkpt lat="39.2503292" lon="16.7612843"><ele>844.3333333333334</ele><time>2026-03-28T11:42:56.638Z</time></trkpt><trkpt lat="39.2503155" lon="16.7613962"><ele>842.6666666666667</ele><time>2026-03-28T11:42:58.651Z</time></trkpt><trkpt lat="39.2503001" lon="16.7614924"><ele>841.0</ele><time>2026-03-28T11:43:00.644Z</time></trkpt><trkpt lat="39.2503052" lon="16.761595"><ele>839.3333333333334</ele><time>2026-03-28T11:43:03.65Z</time></trkpt><trkpt lat="39.250321" lon="16.7616813"><ele>837.6666666666667</ele><time>2026-03-28T11:43:06.641Z</time></trkpt><trkpt lat="39.2503306" lon="16.7617873"><ele>836.0</ele><time>2026-03-28T11:43:09.648Z</time></trkpt><trkpt lat="39.2503296" lon="16.7618943"><ele>834.3333333333334</ele><time>2026-03-28T11:43:11.643Z</time></trkpt><trkpt lat="39.2503103" lon="16.7619854"><ele>832.6666666666667</ele><time>2026-03-28T11:43:13.642Z</time></trkpt><trkpt lat="39.2502777" lon="16.7620721"><ele>831.0</ele><time>2026-03-28T11:43:15.64Z</time></trkpt><trkpt lat="39.250234" lon="16.7621838"><ele>829.3333333333333</ele><time>2026-03-28T11:43:18.644Z</time></trkpt><trkpt lat="39.2502156" lon="16.7622702"><ele>827.6666666666666</ele><time>2026-03-28T11:43:20.644Z</time></trkpt><trkpt lat="39.2501923" lon="16.762374"><ele>826.0</ele><time>2026-03-28T11:43:23.642Z</time></trkpt><trkpt lat="39.2501447" lon="16.7624438"><ele>826.0</ele><time>2026-03-28T11:43:26.655Z</time></trkpt><trkpt lat="39.2500989" lon="16.7625214"><ele>826.0</ele><time>2026-03-28T11:43:30.644Z</time></trkpt><trkpt lat="39.2501075" lon="16.7626193"><ele>826.0</ele><time>2026-03-28T11:43:32.651Z</time></trkpt><trkpt lat="39.2501117" lon="16.7627082"><ele>826.0</ele><time>2026-03-28T11:43:34.649Z</time></trkpt><trkpt lat="39.2501234" lon="16.7627918"><ele>826.0</ele><time>2026-03-28T11:43:36.641Z</time></trkpt><trkpt lat="39.2501053" lon="16.7628838"><ele>826.0</ele><time>2026-03-28T11:43:39.652Z</time></trkpt><trkpt lat="39.2500513" lon="16.7629418"><ele>826.0</ele><time>2026-03-28T11:43:43.65Z</time></trkpt><trkpt lat="39.2499956" lon="16.762992"><ele>824.4999999999999</ele><time>2026-03-28T11:43:47.651Z</time></trkpt><trkpt lat="39.2499431" lon="16.7630438"><ele>823.0</ele><time>2026-03-28T11:43:50.646Z</time></trkpt><trkpt lat="39.2498734" lon="16.7631133"><ele>821.5</ele><time>2026-03-28T11:43:52.65Z</time></trkpt><trkpt lat="39.2498021" lon="16.7631778"><ele>820.0</ele><time>2026-03-28T11:43:54.646Z</time></trkpt><trkpt lat="39.2497232" lon="16.7632373"><ele>818.4999999999999</ele><time>2026-03-28T11:43:57.652Z</time></trkpt><trkpt lat="39.2496589" lon="16.7632835"><ele>817.0</ele><time>2026-03-28T11:43:59.645Z</time></trkpt><trkpt lat="39.249588" lon="16.7633202"><ele>817.0</ele><time>2026-03-28T11:44:02.64Z</time></trkpt><trkpt lat="39.2495206" lon="16.7633477"><ele>817.0</ele><time>2026-03-28T11:44:06.649Z</time></trkpt><trkpt lat="39.2494475" lon="16.7633769"><ele>817.0</ele><time>2026-03-28T11:44:10.647Z</time></trkpt><trkpt lat="39.2493689" lon="16.7634095"><ele>817.0</ele><time>2026-03-28T11:44:12.648Z</time></trkpt><trkpt lat="39.2492678" lon="16.7634527"><ele>817.0</ele><time>2026-03-28T11:44:14.642Z</time></trkpt><trkpt lat="39.2491568" lon="16.7635147"><ele>815.8333333333333</ele><time>2026-03-28T11:44:16.653Z</time></trkpt><trkpt lat="39.2491071" lon="16.7635685"><ele>814.6666666666666</ele><time>2026-03-28T11:44:17.647Z</time></trkpt><trkpt lat="39.2490565" lon="16.7636407"><ele>813.5</ele><time>2026-03-28T11:44:18.639Z</time></trkpt><trkpt lat="39.2490003" lon="16.7637384"><ele>812.3333333333333</ele><time>2026-03-28T11:44:19.642Z</time></trkpt><trkpt lat="39.2489549" lon="16.7638386"><ele>811.1666666666666</ele><time>2026-03-28T11:44:20.64Z</time></trkpt><trkpt lat="39.2489214" lon="16.763936"><ele>810.0</ele><time>2026-03-28T11:44:21.658Z</time></trkpt><trkpt lat="39.2489043" lon="16.764033"><ele>810.0</ele><time>2026-03-28T11:44:22.642Z</time></trkpt><trkpt lat="39.2489066" lon="16.7641345"><ele>810.0</ele><time>2026-03-28T11:44:23.643Z</time></trkpt><trkpt lat="39.2489269" lon="16.7642372"><ele>810.0</ele><time>2026-03-28T11:44:24.664Z</time></trkpt><trkpt lat="39.2489521" lon="16.7643404"><ele>810.0</ele><time>2026-03-28T11:44:25.642Z</time></trkpt><trkpt lat="39.2489654" lon="16.7644461"><ele>810.0</ele><time>2026-03-28T11:44:26.642Z</time></trkpt><trkpt lat="39.2489601" lon="16.764549"><ele>810.0</ele><time>2026-03-28T11:44:27.641Z</time></trkpt><trkpt lat="39.2489366" lon="16.764645"><ele>808.1666666666666</ele><time>2026-03-28T11:44:28.644Z</time></trkpt><trkpt lat="39.2488945" lon="16.7647352"><ele>806.3333333333333</ele><time>2026-03-28T11:44:29.644Z</time></trkpt><trkpt lat="39.2488366" lon="16.7648064"><ele>804.5</ele><time>2026-03-28T11:44:30.64Z</time></trkpt><trkpt lat="39.2487677" lon="16.7648492"><ele>802.6666666666666</ele><time>2026-03-28T11:44:31.645Z</time></trkpt><trkpt lat="39.2486935" lon="16.7648626"><ele>800.8333333333333</ele><time>2026-03-28T11:44:32.645Z</time></trkpt><trkpt lat="39.2486202" lon="16.7648479"><ele>799.0</ele><time>2026-03-28T11:44:33.642Z</time></trkpt><trkpt lat="39.2485551" lon="16.7648112"><ele>799.0</ele><time>2026-03-28T11:44:34.641Z</time></trkpt><trkpt lat="39.2485003" lon="16.7647688"><ele>799.0</ele><time>2026-03-28T11:44:35.651Z</time></trkpt><trkpt lat="39.248444" lon="16.7647257"><ele>799.0</ele><time>2026-03-28T11:44:36.645Z</time></trkpt><trkpt lat="39.2483865" lon="16.764686"><ele>799.0</ele><time>2026-03-28T11:44:37.648Z</time></trkpt><trkpt lat="39.2483289" lon="16.7646505"><ele>799.0</ele><time>2026-03-28T11:44:38.641Z</time></trkpt><trkpt lat="39.2482097" lon="16.7646097"><ele>799.0</ele><time>2026-03-28T11:44:40.646Z</time></trkpt><trkpt lat="39.2481456" lon="16.7646109"><ele>799.0</ele><time>2026-03-28T11:44:41.64Z</time></trkpt><trkpt lat="39.2480774" lon="16.7646262"><ele>798.6666666666666</ele><time>2026-03-28T11:44:42.643Z</time></trkpt><trkpt lat="39.2480026" lon="16.7646474"><ele>798.3333333333333</ele><time>2026-03-28T11:44:43.645Z</time></trkpt><trkpt lat="39.2479237" lon="16.7646725"><ele>798.0</ele><time>2026-03-28T11:44:44.652Z</time></trkpt><trkpt lat="39.2478412" lon="16.7646996"><ele>797.6666666666667</ele><time>2026-03-28T11:44:45.639Z</time></trkpt><trkpt lat="39.2477562" lon="16.7647281"><ele>797.3333333333334</ele><time>2026-03-28T11:44:46.643Z</time></trkpt><trkpt lat="39.24767" lon="16.7647564"><ele>797.0</ele><time>2026-03-28T11:44:47.653Z</time></trkpt><trkpt lat="39.247587" lon="16.764784"><ele>797.0</ele><time>2026-03-28T11:44:48.652Z</time></trkpt><trkpt lat="39.2475054" lon="16.7648114"><ele>797.0</ele><time>2026-03-28T11:44:49.644Z</time></trkpt><trkpt lat="39.2474224" lon="16.7648418"><ele>797.0</ele><time>2026-03-28T11:44:50.637Z</time></trkpt><trkpt lat="39.2473389" lon="16.7648885"><ele>797.0</ele><time>2026-03-28T11:44:51.648Z</time></trkpt><trkpt lat="39.2472601" lon="16.7649543"><ele>797.0</ele><time>2026-03-28T11:44:52.643Z</time></trkpt><trkpt lat="39.2471889" lon="16.7650358"><ele>797.4000000000001</ele><time>2026-03-28T11:44:53.65Z</time></trkpt><trkpt lat="39.2471263" lon="16.7651298"><ele>797.8000000000001</ele><time>2026-03-28T11:44:54.647Z</time></trkpt><trkpt lat="39.2470717" lon="16.7652317"><ele>798.2</ele><time>2026-03-28T11:44:55.647Z</time></trkpt><trkpt lat="39.247027" lon="16.7653417"><ele>798.6</ele><time>2026-03-28T11:44:56.642Z</time></trkpt><trkpt lat="39.2469936" lon="16.765458"><ele>799.0</ele><time>2026-03-28T11:44:57.644Z</time></trkpt><trkpt lat="39.2469716" lon="16.7655794"><ele>797.6</ele><time>2026-03-28T11:44:58.643Z</time></trkpt><trkpt lat="39.2469598" lon="16.7657047"><ele>796.2</ele><time>2026-03-28T11:44:59.655Z</time></trkpt><trkpt lat="39.2469511" lon="16.7658324"><ele>794.8000000000001</ele><time>2026-03-28T11:45:00.645Z</time></trkpt><trkpt lat="39.2469276" lon="16.7659563"><ele>793.4000000000001</ele><time>2026-03-28T11:45:01.648Z</time></trkpt><trkpt lat="39.2468863" lon="16.7660724"><ele>792.0</ele><time>2026-03-28T11:45:02.647Z</time></trkpt><trkpt lat="39.2468288" lon="16.7661788"><ele>790.6</ele><time>2026-03-28T11:45:03.651Z</time></trkpt><trkpt lat="39.2467528" lon="16.7662673"><ele>789.2</ele><time>2026-03-28T11:45:04.653Z</time></trkpt><trkpt lat="39.2466765" lon="16.7663558"><ele>787.8</ele><time>2026-03-28T11:45:05.644Z</time></trkpt><trkpt lat="39.2465768" lon="16.7664209"><ele>786.4</ele><time>2026-03-28T11:45:06.66Z</time></trkpt><trkpt lat="39.2464788" lon="16.766487"><ele>785.0</ele><time>2026-03-28T11:45:07.642Z</time></trkpt><trkpt lat="39.2463902" lon="16.7665693"><ele>783.8</ele><time>2026-03-28T11:45:08.646Z</time></trkpt><trkpt lat="39.2463166" lon="16.7666748"><ele>782.6</ele><time>2026-03-28T11:45:09.647Z</time></trkpt><trkpt lat="39.2462644" lon="16.7667982"><ele>781.4000000000001</ele><time>2026-03-28T11:45:10.643Z</time></trkpt><trkpt lat="39.2462323" lon="16.7669362"><ele>780.2</ele><time>2026-03-28T11:45:11.642Z</time></trkpt><trkpt lat="39.2462023" lon="16.7670834"><ele>779.0</ele><time>2026-03-28T11:45:12.645Z</time></trkpt><trkpt lat="39.2461724" lon="16.7672404"><ele>777.0</ele><time>2026-03-28T11:45:13.664Z</time></trkpt><trkpt lat="39.2461426" lon="16.7673979"><ele>775.0</ele><time>2026-03-28T11:45:14.65Z</time></trkpt><trkpt lat="39.2461182" lon="16.7675477"><ele>773.0</ele><time>2026-03-28T11:45:15.652Z</time></trkpt><trkpt lat="39.2461119" lon="16.7676797"><ele>771.0</ele><time>2026-03-28T11:45:16.641Z</time></trkpt><trkpt lat="39.2461283" lon="16.7677882"><ele>769.0</ele><time>2026-03-28T11:45:17.647Z</time></trkpt><trkpt lat="39.2461666" lon="16.7678734"><ele>768.8333333333333</ele><time>2026-03-28T11:45:18.643Z</time></trkpt><trkpt lat="39.2462255" lon="16.7679365"><ele>768.6666666666666</ele><time>2026-03-28T11:45:19.661Z</time></trkpt><trkpt lat="39.2462981" lon="16.7679674"><ele>768.5</ele><time>2026-03-28T11:45:20.639Z</time></trkpt><trkpt lat="39.2463743" lon="16.7679544"><ele>768.3333333333333</ele><time>2026-03-28T11:45:21.651Z</time></trkpt><trkpt lat="39.2464442" lon="16.7679073"><ele>768.1666666666666</ele><time>2026-03-28T11:45:22.641Z</time></trkpt><trkpt lat="39.2465039" lon="16.7678375"><ele>768.0</ele><time>2026-03-28T11:45:23.647Z</time></trkpt><trkpt lat="39.2465583" lon="16.7677597"><ele>769.8333333333334</ele><time>2026-03-28T11:45:24.644Z</time></trkpt><trkpt lat="39.2466123" lon="16.7676812"><ele>771.6666666666667</ele><time>2026-03-28T11:45:25.651Z</time></trkpt><trkpt lat="39.2466657" lon="16.767605"><ele>773.5</ele><time>2026-03-28T11:45:26.639Z</time></trkpt><trkpt lat="39.2467195" lon="16.7675308"><ele>775.3333333333334</ele><time>2026-03-28T11:45:27.645Z</time></trkpt><trkpt lat="39.2467726" lon="16.7674647"><ele>777.1666666666667</ele><time>2026-03-28T11:45:28.647Z</time></trkpt><trkpt lat="39.2468302" lon="16.7674168"><ele>779.0</ele><time>2026-03-28T11:45:29.642Z</time></trkpt><trkpt lat="39.2468987" lon="16.7673903"><ele>779.0000000000001</ele><time>2026-03-28T11:45:30.643Z</time></trkpt><trkpt lat="39.2469692" lon="16.7673996"><ele>779.0</ele><time>2026-03-28T11:45:31.647Z</time></trkpt><trkpt lat="39.2470244" lon="16.7674478"><ele>779.0</ele><time>2026-03-28T11:45:32.646Z</time></trkpt><trkpt lat="39.2470568" lon="16.7675177"><ele>779.0</ele><time>2026-03-28T11:45:33.64Z</time></trkpt><trkpt lat="39.2470713" lon="16.7676088"><ele>779.0000000000001</ele><time>2026-03-28T11:45:34.644Z</time></trkpt><trkpt lat="39.2470717" lon="16.7677368"><ele>779.0</ele><time>2026-03-28T11:45:35.651Z</time></trkpt><trkpt lat="39.2470605" lon="16.767893"><ele>776.25</ele><time>2026-03-28T11:45:36.652Z</time></trkpt><trkpt lat="39.2470472" lon="16.7680676"><ele>773.5</ele><time>2026-03-28T11:45:37.646Z</time></trkpt><trkpt lat="39.2470328" lon="16.7682556"><ele>770.75</ele><time>2026-03-28T11:45:38.643Z</time></trkpt><trkpt lat="39.2470148" lon="16.7684525"><ele>768.0</ele><time>2026-03-28T11:45:39.643Z</time></trkpt><trkpt lat="39.2469854" lon="16.7686406"><ele>765.25</ele><time>2026-03-28T11:45:40.638Z</time></trkpt><trkpt lat="39.2469409" lon="16.7688125"><ele>762.5</ele><time>2026-03-28T11:45:41.641Z</time></trkpt><trkpt lat="39.2468905" lon="16.7689636"><ele>759.75</ele><time>2026-03-28T11:45:42.642Z</time></trkpt><trkpt lat="39.246839" lon="16.7691024"><ele>757.0</ele><time>2026-03-28T11:45:43.642Z</time></trkpt><trkpt lat="39.2467883" lon="16.7692321"><ele>757.0</ele><time>2026-03-28T11:45:44.644Z</time></trkpt><trkpt lat="39.2467537" lon="16.7693524"><ele>757.0</ele><time>2026-03-28T11:45:45.648Z</time></trkpt><trkpt lat="39.2467489" lon="16.7694602"><ele>757.0</ele><time>2026-03-28T11:45:46.641Z</time></trkpt><trkpt lat="39.2467767" lon="16.7695466"><ele>757.0</ele><time>2026-03-28T11:45:47.663Z</time></trkpt><trkpt lat="39.2468244" lon="16.7696007"><ele>757.0</ele><time>2026-03-28T11:45:48.647Z</time></trkpt><trkpt lat="39.2468859" lon="16.7696239"><ele>757.0</ele><time>2026-03-28T11:45:49.651Z</time></trkpt><trkpt lat="39.2469556" lon="16.7696221"><ele>757.1666666666667</ele><time>2026-03-28T11:45:50.647Z</time></trkpt><trkpt lat="39.2470374" lon="16.7696237"><ele>757.3333333333334</ele><time>2026-03-28T11:45:51.642Z</time></trkpt><trkpt lat="39.2471238" lon="16.7696461"><ele>757.5</ele><time>2026-03-28T11:45:52.639Z</time></trkpt><trkpt lat="39.2472013" lon="16.7697025"><ele>757.6666666666666</ele><time>2026-03-28T11:45:53.642Z</time></trkpt><trkpt lat="39.2472709" lon="16.7697841"><ele>757.8333333333333</ele><time>2026-03-28T11:45:54.644Z</time></trkpt><trkpt lat="39.2473392" lon="16.7698626"><ele>758.0</ele><time>2026-03-28T11:45:55.643Z</time></trkpt><trkpt lat="39.247419" lon="16.7699121"><ele>758.0</ele><time>2026-03-28T11:45:56.646Z</time></trkpt><trkpt lat="39.2475058" lon="16.7699302"><ele>758.0</ele><time>2026-03-28T11:45:57.639Z</time></trkpt><trkpt lat="39.2475934" lon="16.7699215"><ele>758.0</ele><time>2026-03-28T11:45:58.655Z</time></trkpt><trkpt lat="39.2476789" lon="16.7698959"><ele>758.0</ele><time>2026-03-28T11:45:59.655Z</time></trkpt><trkpt lat="39.247763" lon="16.7698534"><ele>758.0</ele><time>2026-03-28T11:46:00.648Z</time></trkpt><trkpt lat="39.247848" lon="16.7697964"><ele>758.0</ele><time>2026-03-28T11:46:01.654Z</time></trkpt><trkpt lat="39.2479325" lon="16.7697264"><ele>758.0</ele><time>2026-03-28T11:46:02.66Z</time></trkpt><trkpt lat="39.248019" lon="16.7696376"><ele>758.0</ele><time>2026-03-28T11:46:03.651Z</time></trkpt><trkpt lat="39.248103" lon="16.7695319"><ele>758.0</ele><time>2026-03-28T11:46:04.647Z</time></trkpt><trkpt lat="39.2481773" lon="16.7694186"><ele>758.0</ele><time>2026-03-28T11:46:05.648Z</time></trkpt><trkpt lat="39.2482426" lon="16.769309"><ele>757.7142857142858</ele><time>2026-03-28T11:46:06.642Z</time></trkpt><trkpt lat="39.248307" lon="16.7692167"><ele>757.4285714285714</ele><time>2026-03-28T11:46:07.65Z</time></trkpt><trkpt lat="39.2483709" lon="16.7691582"><ele>757.1428571428571</ele><time>2026-03-28T11:46:08.642Z</time></trkpt><trkpt lat="39.2484368" lon="16.7691432"><ele>756.8571428571429</ele><time>2026-03-28T11:46:09.644Z</time></trkpt><trkpt lat="39.2485027" lon="16.7691698"><ele>756.5714285714286</ele><time>2026-03-28T11:46:10.644Z</time></trkpt><trkpt lat="39.248544" lon="16.7692383"><ele>756.2857142857143</ele><time>2026-03-28T11:46:11.651Z</time></trkpt><trkpt lat="39.2485631" lon="16.769326"><ele>756.0</ele><time>2026-03-28T11:46:12.642Z</time></trkpt><trkpt lat="39.2485794" lon="16.7694249"><ele>754.5999999999999</ele><time>2026-03-28T11:46:13.647Z</time></trkpt><trkpt lat="39.2485939" lon="16.7695294"><ele>753.2</ele><time>2026-03-28T11:46:14.647Z</time></trkpt><trkpt lat="39.2486115" lon="16.7696364"><ele>751.8</ele><time>2026-03-28T11:46:15.654Z</time></trkpt><trkpt lat="39.2486451" lon="16.7697505"><ele>750.4000000000001</ele><time>2026-03-28T11:46:16.65Z</time></trkpt><trkpt lat="39.2487031" lon="16.7698511"><ele>749.0</ele><time>2026-03-28T11:46:17.649Z</time></trkpt><trkpt lat="39.248787" lon="16.7699214"><ele>749.0</ele><time>2026-03-28T11:46:18.646Z</time></trkpt><trkpt lat="39.2488693" lon="16.7699892"><ele>749.0</ele><time>2026-03-28T11:46:19.645Z</time></trkpt><trkpt lat="39.2489636" lon="16.7700184"><ele>749.0</ele><time>2026-03-28T11:46:20.643Z</time></trkpt><trkpt lat="39.2490502" lon="16.7700561"><ele>749.0</ele><time>2026-03-28T11:46:21.654Z</time></trkpt><trkpt lat="39.2491293" lon="16.7701116"><ele>749.0</ele><time>2026-03-28T11:46:22.66Z</time></trkpt><trkpt lat="39.2492011" lon="16.7701832"><ele>746.6666666666666</ele><time>2026-03-28T11:46:23.648Z</time></trkpt><trkpt lat="39.2492645" lon="16.7702623"><ele>744.3333333333333</ele><time>2026-03-28T11:46:24.645Z</time></trkpt><trkpt lat="39.2493193" lon="16.7703328"><ele>742.0</ele><time>2026-03-28T11:46:25.646Z</time></trkpt><trkpt lat="39.2493884" lon="16.7704085"><ele>739.6666666666666</ele><time>2026-03-28T11:46:27.645Z</time></trkpt><trkpt lat="39.24942" lon="16.7704981"><ele>737.3333333333334</ele><time>2026-03-28T11:46:30.647Z</time></trkpt><trkpt lat="39.2494126" lon="16.7705795"><ele>735.0</ele><time>2026-03-28T11:46:33.645Z</time></trkpt><trkpt lat="39.2494039" lon="16.7706889"><ele>735.0</ele><time>2026-03-28T11:46:36.655Z</time></trkpt><trkpt lat="39.2493989" lon="16.7707739"><ele>735.0</ele><time>2026-03-28T11:46:38.65Z</time></trkpt><trkpt lat="39.249393" lon="16.7708723"><ele>735.0</ele><time>2026-03-28T11:46:40.651Z</time></trkpt><trkpt lat="39.2493897" lon="16.7709756"><ele>735.0</ele><time>2026-03-28T11:46:42.649Z</time></trkpt><trkpt lat="39.2494042" lon="16.7711056"><ele>735.0</ele><time>2026-03-28T11:46:44.644Z</time></trkpt><trkpt lat="39.2493914" lon="16.7712701"><ele>733.8333333333334</ele><time>2026-03-28T11:46:46.657Z</time></trkpt><trkpt lat="39.2493783" lon="16.7713656"><ele>732.6666666666666</ele><time>2026-03-28T11:46:47.647Z</time></trkpt><trkpt lat="39.2493637" lon="16.7714708"><ele>731.5</ele><time>2026-03-28T11:46:48.65Z</time></trkpt><trkpt lat="39.2493499" lon="16.7715738"><ele>730.3333333333333</ele><time>2026-03-28T11:46:49.657Z</time></trkpt><trkpt lat="39.2493399" lon="16.7716822"><ele>729.1666666666666</ele><time>2026-03-28T11:46:50.651Z</time></trkpt><trkpt lat="39.2493284" lon="16.7717907"><ele>728.0</ele><time>2026-03-28T11:46:51.652Z</time></trkpt><trkpt lat="39.2493168" lon="16.771897"><ele>727.5</ele><time>2026-03-28T11:46:52.66Z</time></trkpt><trkpt lat="39.2493015" lon="16.7720234"><ele>727.0</ele><time>2026-03-28T11:46:53.657Z</time></trkpt><trkpt lat="39.2492856" lon="16.7721402"><ele>726.5</ele><time>2026-03-28T11:46:54.646Z</time></trkpt><trkpt lat="39.2492706" lon="16.7722433"><ele>726.0</ele><time>2026-03-28T11:46:55.643Z</time></trkpt><trkpt lat="39.2492612" lon="16.7723402"><ele>725.5</ele><time>2026-03-28T11:46:56.645Z</time></trkpt><trkpt lat="39.2492557" lon="16.7724394"><ele>725.0</ele><time>2026-03-28T11:46:57.655Z</time></trkpt><trkpt lat="39.2492491" lon="16.7725342"><ele>725.0</ele><time>2026-03-28T11:46:58.644Z</time></trkpt><trkpt lat="39.2492393" lon="16.7726173"><ele>725.0</ele><time>2026-03-28T11:46:59.648Z</time></trkpt><trkpt lat="39.2492286" lon="16.772746"><ele>725.0</ele><time>2026-03-28T11:47:01.643Z</time></trkpt><trkpt lat="39.2492098" lon="16.7728513"><ele>725.0</ele><time>2026-03-28T11:47:03.651Z</time></trkpt><trkpt lat="39.2491907" lon="16.77293"><ele>725.0</ele><time>2026-03-28T11:47:05.647Z</time></trkpt><trkpt lat="39.2491594" lon="16.7730413"><ele>725.0</ele><time>2026-03-28T11:47:08.648Z</time></trkpt><trkpt lat="39.24913" lon="16.7731439"><ele>725.0</ele><time>2026-03-28T11:47:11.653Z</time></trkpt><trkpt lat="39.2490976" lon="16.7732718"><ele>725.0</ele><time>2026-03-28T11:47:14.645Z</time></trkpt><trkpt lat="39.2490512" lon="16.773422"><ele>725.0</ele><time>2026-03-28T11:47:16.651Z</time></trkpt><trkpt lat="39.2490172" lon="16.7735115"><ele>725.0</ele><time>2026-03-28T11:47:17.64Z</time></trkpt><trkpt lat="39.2489684" lon="16.7736036"><ele>725.0</ele><time>2026-03-28T11:47:18.642Z</time></trkpt><trkpt lat="39.2489028" lon="16.773714"><ele>724.75</ele><time>2026-03-28T11:47:19.643Z</time></trkpt><trkpt lat="39.2488188" lon="16.7738535"><ele>724.5</ele><time>2026-03-28T11:47:20.643Z</time></trkpt><trkpt lat="39.2487273" lon="16.774005"><ele>724.25</ele><time>2026-03-28T11:47:21.648Z</time></trkpt><trkpt lat="39.248627" lon="16.7741663"><ele>724.0</ele><time>2026-03-28T11:47:22.646Z</time></trkpt><trkpt lat="39.2485284" lon="16.7743245"><ele>721.75</ele><time>2026-03-28T11:47:23.651Z</time></trkpt><trkpt lat="39.2484307" lon="16.7744688"><ele>719.5</ele><time>2026-03-28T11:47:24.646Z</time></trkpt><trkpt lat="39.2483336" lon="16.7746076"><ele>717.25</ele><time>2026-03-28T11:47:25.639Z</time></trkpt><trkpt lat="39.248236" lon="16.7747477"><ele>715.0</ele><time>2026-03-28T11:47:26.645Z</time></trkpt><trkpt lat="39.2481377" lon="16.7748863"><ele>714.75</ele><time>2026-03-28T11:47:27.652Z</time></trkpt><trkpt lat="39.2480416" lon="16.7750216"><ele>714.5</ele><time>2026-03-28T11:47:28.649Z</time></trkpt><trkpt lat="39.2479485" lon="16.7751501"><ele>714.25</ele><time>2026-03-28T11:47:29.647Z</time></trkpt><trkpt lat="39.2478542" lon="16.775279"><ele>714.0</ele><time>2026-03-28T11:47:30.641Z</time></trkpt><trkpt lat="39.2477619" lon="16.7754139"><ele>711.5</ele><time>2026-03-28T11:47:31.647Z</time></trkpt><trkpt lat="39.2476757" lon="16.7755473"><ele>709.0</ele><time>2026-03-28T11:47:32.641Z</time></trkpt><trkpt lat="39.2475949" lon="16.7756823"><ele>706.5</ele><time>2026-03-28T11:47:33.645Z</time></trkpt><trkpt lat="39.2475188" lon="16.7758121"><ele>704.0</ele><time>2026-03-28T11:47:34.643Z</time></trkpt><trkpt lat="39.247452" lon="16.7759277"><ele>702.2</ele><time>2026-03-28T11:47:35.648Z</time></trkpt><trkpt lat="39.2473875" lon="16.7760439"><ele>700.4000000000001</ele><time>2026-03-28T11:47:36.643Z</time></trkpt><trkpt lat="39.2473237" lon="16.776167"><ele>698.6</ele><time>2026-03-28T11:47:37.649Z</time></trkpt><trkpt lat="39.2472663" lon="16.7762927"><ele>696.8</ele><time>2026-03-28T11:47:38.641Z</time></trkpt><trkpt lat="39.2472195" lon="16.7764154"><ele>695.0</ele><time>2026-03-28T11:47:39.636Z</time></trkpt><trkpt lat="39.2471819" lon="16.7765264"><ele>693.3333333333333</ele><time>2026-03-28T11:47:40.643Z</time></trkpt><trkpt lat="39.2471483" lon="16.7766207"><ele>691.6666666666666</ele><time>2026-03-28T11:47:41.653Z</time></trkpt><trkpt lat="39.24712" lon="16.7767012"><ele>690.0</ele><time>2026-03-28T11:47:42.646Z</time></trkpt><trkpt lat="39.2470719" lon="16.7768059"><ele>688.3333333333334</ele><time>2026-03-28T11:47:44.644Z</time></trkpt><trkpt lat="39.2469655" lon="16.7768817"><ele>686.6666666666667</ele><time>2026-03-28T11:47:46.642Z</time></trkpt><trkpt lat="39.2468924" lon="16.7769142"><ele>685.0</ele><time>2026-03-28T11:47:47.644Z</time></trkpt><trkpt lat="39.2468022" lon="16.7769547"><ele>685.0</ele><time>2026-03-28T11:47:48.654Z</time></trkpt><trkpt lat="39.2467045" lon="16.7770024"><ele>685.0</ele><time>2026-03-28T11:47:49.65Z</time></trkpt><trkpt lat="39.2465928" lon="16.7770552"><ele>685.0</ele><time>2026-03-28T11:47:50.654Z</time></trkpt><trkpt lat="39.2464858" lon="16.7771038"><ele>685.0</ele><time>2026-03-28T11:47:51.642Z</time></trkpt><trkpt lat="39.2463965" lon="16.7771618"><ele>685.0</ele><time>2026-03-28T11:47:52.64Z</time></trkpt><trkpt lat="39.2463149" lon="16.7772464"><ele>683.0</ele><time>2026-03-28T11:47:53.653Z</time></trkpt><trkpt lat="39.2462396" lon="16.7773638"><ele>681.0</ele><time>2026-03-28T11:47:54.642Z</time></trkpt><trkpt lat="39.2461779" lon="16.7775127"><ele>679.0</ele><time>2026-03-28T11:47:55.647Z</time></trkpt><trkpt lat="39.2461248" lon="16.7776917"><ele>677.0</ele><time>2026-03-28T11:47:56.643Z</time></trkpt><trkpt lat="39.2460748" lon="16.7778662"><ele>676.25</ele><time>2026-03-28T11:47:57.645Z</time></trkpt><trkpt lat="39.2460288" lon="16.7780328"><ele>675.5</ele><time>2026-03-28T11:47:58.642Z</time></trkpt><trkpt lat="39.2459846" lon="16.7781919"><ele>674.75</ele><time>2026-03-28T11:47:59.644Z</time></trkpt><trkpt lat="39.2459441" lon="16.7783443"><ele>674.0</ele><time>2026-03-28T11:48:00.648Z</time></trkpt><trkpt lat="39.2459062" lon="16.7784891"><ele>673.6</ele><time>2026-03-28T11:48:01.645Z</time></trkpt><trkpt lat="39.2458698" lon="16.7786258"><ele>673.2</ele><time>2026-03-28T11:48:02.641Z</time></trkpt><trkpt lat="39.2458341" lon="16.7787531"><ele>672.8000000000001</ele><time>2026-03-28T11:48:03.644Z</time></trkpt><trkpt lat="39.2457983" lon="16.7788777"><ele>672.4000000000001</ele><time>2026-03-28T11:48:04.652Z</time></trkpt><trkpt lat="39.2457619" lon="16.7789997"><ele>672.0</ele><time>2026-03-28T11:48:05.65Z</time></trkpt><trkpt lat="39.2457235" lon="16.7791216"><ele>672.0</ele><time>2026-03-28T11:48:06.652Z</time></trkpt><trkpt lat="39.2456817" lon="16.7792517"><ele>672.0</ele><time>2026-03-28T11:48:07.646Z</time></trkpt><trkpt lat="39.2456416" lon="16.7793825"><ele>672.0</ele><time>2026-03-28T11:48:08.639Z</time></trkpt><trkpt lat="39.2456022" lon="16.7795183"><ele>672.0</ele><time>2026-03-28T11:48:09.65Z</time></trkpt><trkpt lat="39.2455636" lon="16.7796553"><ele>672.0</ele><time>2026-03-28T11:48:10.643Z</time></trkpt><trkpt lat="39.2455242" lon="16.7797925"><ele>670.6</ele><time>2026-03-28T11:48:11.643Z</time></trkpt><trkpt lat="39.2454852" lon="16.7799287"><ele>669.2</ele><time>2026-03-28T11:48:12.645Z</time></trkpt><trkpt lat="39.2454496" lon="16.7800616"><ele>667.8</ele><time>2026-03-28T11:48:13.638Z</time></trkpt><trkpt lat="39.2454178" lon="16.7801911"><ele>666.4</ele><time>2026-03-28T11:48:14.651Z</time></trkpt><trkpt lat="39.2453863" lon="16.7803157"><ele>665.0</ele><time>2026-03-28T11:48:15.654Z</time></trkpt><trkpt lat="39.2453533" lon="16.7804381"><ele>665.0</ele><time>2026-03-28T11:48:16.666Z</time></trkpt><trkpt lat="39.2453176" lon="16.7805594"><ele>665.0</ele><time>2026-03-28T11:48:17.66Z</time></trkpt><trkpt lat="39.2452781" lon="16.7806763"><ele>665.0</ele><time>2026-03-28T11:48:18.644Z</time></trkpt><trkpt lat="39.2452383" lon="16.7807917"><ele>665.0</ele><time>2026-03-28T11:48:19.647Z</time></trkpt><trkpt lat="39.2451986" lon="16.7809062"><ele>665.0</ele><time>2026-03-28T11:48:20.646Z</time></trkpt><trkpt lat="39.2451601" lon="16.781021"><ele>664.2</ele><time>2026-03-28T11:48:21.65Z</time></trkpt><trkpt lat="39.2451226" lon="16.7811309"><ele>663.4</ele><time>2026-03-28T11:48:22.639Z</time></trkpt><trkpt lat="39.2450883" lon="16.78123"><ele>662.5999999999999</ele><time>2026-03-28T11:48:23.645Z</time></trkpt><trkpt lat="39.2450545" lon="16.7813321"><ele>661.8</ele><time>2026-03-28T11:48:24.649Z</time></trkpt><trkpt lat="39.2450176" lon="16.7814414"><ele>661.0</ele><time>2026-03-28T11:48:25.646Z</time></trkpt><trkpt lat="39.244971" lon="16.7815509"><ele>661.0</ele><time>2026-03-28T11:48:26.646Z</time></trkpt><trkpt lat="39.2449152" lon="16.7816554"><ele>661.0</ele><time>2026-03-28T11:48:27.65Z</time></trkpt><trkpt lat="39.2448522" lon="16.781753"><ele>661.0</ele><time>2026-03-28T11:48:28.647Z</time></trkpt><trkpt lat="39.2447911" lon="16.7818403"><ele>661.0</ele><time>2026-03-28T11:48:29.643Z</time></trkpt><trkpt lat="39.2447294" lon="16.7819283"><ele>661.0</ele><time>2026-03-28T11:48:30.649Z</time></trkpt><trkpt lat="39.2446613" lon="16.7820266"><ele>659.0</ele><time>2026-03-28T11:48:31.645Z</time></trkpt><trkpt lat="39.2445898" lon="16.7821302"><ele>657.0</ele><time>2026-03-28T11:48:32.644Z</time></trkpt><trkpt lat="39.2445192" lon="16.7822393"><ele>655.0</ele><time>2026-03-28T11:48:33.643Z</time></trkpt><trkpt lat="39.2444517" lon="16.7823545"><ele>653.0</ele><time>2026-03-28T11:48:34.649Z</time></trkpt><trkpt lat="39.2443867" lon="16.7824734"><ele>651.0</ele><time>2026-03-28T11:48:35.648Z</time></trkpt><trkpt lat="39.2443197" lon="16.7826018"><ele>650.4</ele><time>2026-03-28T11:48:36.655Z</time></trkpt><trkpt lat="39.2442547" lon="16.7827261"><ele>649.8</ele><time>2026-03-28T11:48:37.645Z</time></trkpt><trkpt lat="39.244194" lon="16.7828379"><ele>649.1999999999999</ele><time>2026-03-28T11:48:38.643Z</time></trkpt><trkpt lat="39.2441362" lon="16.7829408"><ele>648.5999999999999</ele><time>2026-03-28T11:48:39.64Z</time></trkpt><trkpt lat="39.2440834" lon="16.7830397"><ele>648.0</ele><time>2026-03-28T11:48:40.646Z</time></trkpt><trkpt lat="39.2440302" lon="16.7831418"><ele>648.0</ele><time>2026-03-28T11:48:41.639Z</time></trkpt><trkpt lat="39.2439818" lon="16.7832351"><ele>648.0</ele><time>2026-03-28T11:48:42.646Z</time></trkpt><trkpt lat="39.2439383" lon="16.7833177"><ele>648.0</ele><time>2026-03-28T11:48:43.64Z</time></trkpt><trkpt lat="39.2439001" lon="16.7833855"><ele>648.0</ele><time>2026-03-28T11:48:44.649Z</time></trkpt><trkpt lat="39.2438311" lon="16.783521"><ele>648.0</ele><time>2026-03-28T11:48:46.645Z</time></trkpt><trkpt lat="39.2437837" lon="16.7836266"><ele>648.0</ele><time>2026-03-28T11:48:47.651Z</time></trkpt><trkpt lat="39.2437375" lon="16.7837167"><ele>646.0</ele><time>2026-03-28T11:48:48.644Z</time></trkpt><trkpt lat="39.2436942" lon="16.7837871"><ele>644.0</ele><time>2026-03-28T11:48:49.645Z</time></trkpt><trkpt lat="39.2436522" lon="16.7838547"><ele>642.0</ele><time>2026-03-28T11:48:50.64Z</time></trkpt><trkpt lat="39.2435897" lon="16.7839083"><ele>640.0</ele><time>2026-03-28T11:48:51.651Z</time></trkpt><trkpt lat="39.2435033" lon="16.7839713"><ele>638.0</ele><time>2026-03-28T11:48:52.655Z</time></trkpt><trkpt lat="39.2434155" lon="16.7840459"><ele>636.0</ele><time>2026-03-28T11:48:53.655Z</time></trkpt><trkpt lat="39.2433388" lon="16.7841341"><ele>636.0</ele><time>2026-03-28T11:48:54.644Z</time></trkpt><trkpt lat="39.24327" lon="16.7842261"><ele>636.0</ele><time>2026-03-28T11:48:55.648Z</time></trkpt><trkpt lat="39.2432173" lon="16.7843271"><ele>636.0</ele><time>2026-03-28T11:48:56.647Z</time></trkpt><trkpt lat="39.2431816" lon="16.7844364"><ele>636.0</ele><time>2026-03-28T11:48:57.646Z</time></trkpt><trkpt lat="39.243158" lon="16.7845543"><ele>636.0</ele><time>2026-03-28T11:48:58.644Z</time></trkpt><trkpt lat="39.2431318" lon="16.7846708"><ele>635.0</ele><time>2026-03-28T11:48:59.649Z</time></trkpt><trkpt lat="39.243101" lon="16.7847877"><ele>634.0</ele><time>2026-03-28T11:49:00.636Z</time></trkpt><trkpt lat="39.2430671" lon="16.7849123"><ele>633.0</ele><time>2026-03-28T11:49:01.646Z</time></trkpt><trkpt lat="39.2430323" lon="16.7850542"><ele>632.0</ele><time>2026-03-28T11:49:02.642Z</time></trkpt><trkpt lat="39.2430006" lon="16.785202"><ele>631.0</ele><time>2026-03-28T11:49:03.644Z</time></trkpt><trkpt lat="39.242971" lon="16.7853465"><ele>630.6666666666667</ele><time>2026-03-28T11:49:04.65Z</time></trkpt><trkpt lat="39.2429514" lon="16.7854724"><ele>630.3333333333334</ele><time>2026-03-28T11:49:05.649Z</time></trkpt><trkpt lat="39.2429333" lon="16.7855827"><ele>630.0</ele><time>2026-03-28T11:49:06.644Z</time></trkpt><trkpt lat="39.2429136" lon="16.7856812"><ele>629.6666666666666</ele><time>2026-03-28T11:49:07.65Z</time></trkpt><trkpt lat="39.2428949" lon="16.7857607"><ele>629.3333333333333</ele><time>2026-03-28T11:49:08.645Z</time></trkpt><trkpt lat="39.2428734" lon="16.7858811"><ele>629.0</ele><time>2026-03-28T11:49:10.649Z</time></trkpt><trkpt lat="39.2428567" lon="16.7859817"><ele>628.25</ele><time>2026-03-28T11:49:11.642Z</time></trkpt><trkpt lat="39.2428238" lon="16.7861292"><ele>627.5</ele><time>2026-03-28T11:49:12.644Z</time></trkpt><trkpt lat="39.2427854" lon="16.7863057"><ele>626.75</ele><time>2026-03-28T11:49:13.642Z</time></trkpt><trkpt lat="39.2427495" lon="16.7864774"><ele>626.0</ele><time>2026-03-28T11:49:14.645Z</time></trkpt><trkpt lat="39.2427159" lon="16.7866428"><ele>626.0</ele><time>2026-03-28T11:49:15.644Z</time></trkpt><trkpt lat="39.2426814" lon="16.7868065"><ele>626.0</ele><time>2026-03-28T11:49:16.648Z</time></trkpt><trkpt lat="39.2426489" lon="16.786962"><ele>626.0</ele><time>2026-03-28T11:49:17.647Z</time></trkpt><trkpt lat="39.2426192" lon="16.7871118"><ele>626.0</ele><time>2026-03-28T11:49:18.646Z</time></trkpt><trkpt lat="39.242595" lon="16.7872522"><ele>624.25</ele><time>2026-03-28T11:49:19.65Z</time></trkpt><trkpt lat="39.2425816" lon="16.787385"><ele>622.5</ele><time>2026-03-28T11:49:20.642Z</time></trkpt><trkpt lat="39.2425658" lon="16.7875229"><ele>620.75</ele><time>2026-03-28T11:49:21.644Z</time></trkpt><trkpt lat="39.2425282" lon="16.7876923"><ele>619.0</ele><time>2026-03-28T11:49:22.645Z</time></trkpt><trkpt lat="39.2424621" lon="16.7878835"><ele>617.0</ele><time>2026-03-28T11:49:23.641Z</time></trkpt><trkpt lat="39.2423819" lon="16.7880827"><ele>615.0</ele><time>2026-03-28T11:49:24.641Z</time></trkpt><trkpt lat="39.242304" lon="16.7882739"><ele>613.0</ele><time>2026-03-28T11:49:25.649Z</time></trkpt><trkpt lat="39.2422302" lon="16.7884576"><ele>611.5</ele><time>2026-03-28T11:49:26.646Z</time></trkpt><trkpt lat="39.2421598" lon="16.7886326"><ele>610.0</ele><time>2026-03-28T11:49:27.644Z</time></trkpt><trkpt lat="39.2420898" lon="16.7888019"><ele>608.5</ele><time>2026-03-28T11:49:28.644Z</time></trkpt><trkpt lat="39.2420155" lon="16.7889625"><ele>607.0</ele><time>2026-03-28T11:49:29.651Z</time></trkpt><trkpt lat="39.2419278" lon="16.7891163"><ele>607.0</ele><time>2026-03-28T11:49:30.651Z</time></trkpt><trkpt lat="39.241827" lon="16.7892622"><ele>607.0</ele><time>2026-03-28T11:49:31.677Z</time></trkpt><trkpt lat="39.2417253" lon="16.7894002"><ele>607.0</ele><time>2026-03-28T11:49:32.644Z</time></trkpt><trkpt lat="39.241628" lon="16.7895287"><ele>607.0</ele><time>2026-03-28T11:49:33.663Z</time></trkpt><trkpt lat="39.2415444" lon="16.7896374"><ele>605.1666666666667</ele><time>2026-03-28T11:49:34.657Z</time></trkpt><trkpt lat="39.2414765" lon="16.7897252"><ele>603.3333333333334</ele><time>2026-03-28T11:49:35.664Z</time></trkpt><trkpt lat="39.241425" lon="16.7898048"><ele>601.5</ele><time>2026-03-28T11:49:36.647Z</time></trkpt><trkpt lat="39.2413815" lon="16.7898779"><ele>599.6666666666666</ele><time>2026-03-28T11:49:37.646Z</time></trkpt><trkpt lat="39.2413135" lon="16.7899651"><ele>597.8333333333333</ele><time>2026-03-28T11:49:39.651Z</time></trkpt><trkpt lat="39.241255" lon="16.7899962"><ele>596.0</ele><time>2026-03-28T11:49:49.647Z</time></trkpt><trkpt lat="39.2411877" lon="16.7900027"><ele>594.2</ele><time>2026-03-28T11:49:54.644Z</time></trkpt><trkpt lat="39.2410992" lon="16.7900512"><ele>592.4000000000001</ele><time>2026-03-28T11:49:57.644Z</time></trkpt><trkpt lat="39.2410298" lon="16.790122"><ele>590.6</ele><time>2026-03-28T11:49:59.648Z</time></trkpt><trkpt lat="39.2409678" lon="16.7902268"><ele>588.8000000000001</ele><time>2026-03-28T11:50:01.642Z</time></trkpt><trkpt lat="39.2409127" lon="16.7903536"><ele>587.0</ele><time>2026-03-28T11:50:03.642Z</time></trkpt><trkpt lat="39.2408855" lon="16.7904546"><ele>586.5</ele><time>2026-03-28T11:50:05.645Z</time></trkpt><trkpt lat="39.2408541" lon="16.7905622"><ele>586.0</ele><time>2026-03-28T11:50:07.642Z</time></trkpt><trkpt lat="39.2408172" lon="16.7906692"><ele>585.5</ele><time>2026-03-28T11:50:09.643Z</time></trkpt><trkpt lat="39.2407812" lon="16.790775"><ele>585.0</ele><time>2026-03-28T11:50:12.638Z</time></trkpt><trkpt lat="39.2407442" lon="16.7908524"><ele>584.5</ele><time>2026-03-28T11:50:15.645Z</time></trkpt><trkpt lat="39.2407195" lon="16.790966"><ele>584.0</ele><time>2026-03-28T11:50:18.643Z</time></trkpt><trkpt lat="39.2406963" lon="16.7910813"><ele>582.6666666666666</ele><time>2026-03-28T11:50:20.644Z</time></trkpt><trkpt lat="39.2406732" lon="16.7912018"><ele>581.3333333333333</ele><time>2026-03-28T11:50:22.659Z</time></trkpt><trkpt lat="39.2406577" lon="16.7913422"><ele>580.0</ele><time>2026-03-28T11:50:24.644Z</time></trkpt><trkpt lat="39.2406394" lon="16.7914264"><ele>578.6666666666666</ele><time>2026-03-28T11:50:25.646Z</time></trkpt><trkpt lat="39.2406156" lon="16.7915088"><ele>577.3333333333334</ele><time>2026-03-28T11:50:26.644Z</time></trkpt><trkpt lat="39.2405886" lon="16.7915862"><ele>576.0</ele><time>2026-03-28T11:50:27.643Z</time></trkpt><trkpt lat="39.2405159" lon="16.7917213"><ele>574.8</ele><time>2026-03-28T11:50:29.643Z</time></trkpt><trkpt lat="39.2404664" lon="16.7918111"><ele>573.6</ele><time>2026-03-28T11:50:30.65Z</time></trkpt><trkpt lat="39.2404226" lon="16.791939"><ele>572.4</ele><time>2026-03-28T11:50:32.656Z</time></trkpt><trkpt lat="39.240379" lon="16.7920217"><ele>571.2</ele><time>2026-03-28T11:50:34.645Z</time></trkpt><trkpt lat="39.2403134" lon="16.7921188"><ele>570.0</ele><time>2026-03-28T11:50:36.642Z</time></trkpt><trkpt lat="39.2402353" lon="16.7922129"><ele>570.0</ele><time>2026-03-28T11:50:38.643Z</time></trkpt><trkpt lat="39.2401416" lon="16.7923189"><ele>570.0</ele><time>2026-03-28T11:50:40.645Z</time></trkpt><trkpt lat="39.2400668" lon="16.7923651"><ele>570.0</ele><time>2026-03-28T11:50:42.645Z</time></trkpt><trkpt lat="39.2400075" lon="16.792416"><ele>570.0</ele><time>2026-03-28T11:50:44.65Z</time></trkpt><trkpt lat="39.239954" lon="16.792459"><ele>570.0</ele><time>2026-03-28T11:50:46.656Z</time></trkpt><trkpt lat="39.2398791" lon="16.7925352"><ele>570.0</ele><time>2026-03-28T11:50:49.653Z</time></trkpt><trkpt lat="39.2398295" lon="16.7926303"><ele>566.0</ele><time>2026-03-28T11:50:51.644Z</time></trkpt><trkpt lat="39.2397773" lon="16.7927395"><ele>562.0</ele><time>2026-03-28T11:50:53.649Z</time></trkpt><trkpt lat="39.2397127" lon="16.792805"><ele>558.0</ele><time>2026-03-28T11:50:55.652Z</time></trkpt><trkpt lat="39.2396425" lon="16.7928573"><ele>554.0</ele><time>2026-03-28T11:50:58.642Z</time></trkpt><trkpt lat="39.2395899" lon="16.7929106"><ele>550.0</ele><time>2026-03-28T11:51:01.64Z</time></trkpt><trkpt lat="39.2395767" lon="16.7929924"><ele>546.0</ele><time>2026-03-28T11:51:05.644Z</time></trkpt><trkpt lat="39.2395763" lon="16.7930947"><ele>546.0</ele><time>2026-03-28T11:51:07.647Z</time></trkpt><trkpt lat="39.2395386" lon="16.7931734"><ele>546.0</ele><time>2026-03-28T11:51:09.647Z</time></trkpt><trkpt lat="39.239509" lon="16.7932534"><ele>546.0</ele><time>2026-03-28T11:51:11.65Z</time></trkpt><trkpt lat="39.2394994" lon="16.7933978"><ele>546.0</ele><time>2026-03-28T11:51:13.649Z</time></trkpt><trkpt lat="39.2394992" lon="16.7934831"><ele>546.0</ele><time>2026-03-28T11:51:14.647Z</time></trkpt><trkpt lat="39.2394945" lon="16.7936446"><ele>546.0</ele><time>2026-03-28T11:51:16.65Z</time></trkpt><trkpt lat="39.2394928" lon="16.7937292"><ele>545.6666666666666</ele><time>2026-03-28T11:51:17.636Z</time></trkpt><trkpt lat="39.2394653" lon="16.7938784"><ele>545.3333333333334</ele><time>2026-03-28T11:51:19.641Z</time></trkpt><trkpt lat="39.2394511" lon="16.7939822"><ele>545.0</ele><time>2026-03-28T11:51:21.647Z</time></trkpt><trkpt lat="39.2394819" lon="16.7940632"><ele>544.6666666666667</ele><time>2026-03-28T11:51:24.644Z</time></trkpt><trkpt lat="39.2395393" lon="16.7941172"><ele>544.3333333333334</ele><time>2026-03-28T11:51:26.65Z</time></trkpt><trkpt lat="39.239613" lon="16.7941439"><ele>544.0</ele><time>2026-03-28T11:51:28.647Z</time></trkpt><trkpt lat="39.2396924" lon="16.7941315"><ele>544.0</ele><time>2026-03-28T11:51:30.642Z</time></trkpt><trkpt lat="39.2397556" lon="16.7941128"><ele>544.0</ele><time>2026-03-28T11:51:32.647Z</time></trkpt><trkpt lat="39.2398211" lon="16.7940676"><ele>544.0</ele><time>2026-03-28T11:51:34.649Z</time></trkpt><trkpt lat="39.2398957" lon="16.7940223"><ele>544.0</ele><time>2026-03-28T11:51:37.648Z</time></trkpt><trkpt lat="39.2399118" lon="16.7941101"><ele>544.0</ele><time>2026-03-28T11:51:40.651Z</time></trkpt><trkpt lat="39.2398954" lon="16.7941925"><ele>544.0</ele><time>2026-03-28T11:51:42.655Z</time></trkpt><trkpt lat="39.2398707" lon="16.7943161"><ele>543.0</ele><time>2026-03-28T11:51:44.649Z</time></trkpt><trkpt lat="39.2398454" lon="16.7944162"><ele>542.0</ele><time>2026-03-28T11:51:46.643Z</time></trkpt><trkpt lat="39.2398221" lon="16.7945143"><ele>541.0</ele><time>2026-03-28T11:51:48.64Z</time></trkpt><trkpt lat="39.2397866" lon="16.7946939"><ele>540.0</ele><time>2026-03-28T11:51:50.643Z</time></trkpt><trkpt lat="39.2397716" lon="16.7947771"><ele>539.0</ele><time>2026-03-28T11:51:51.64Z</time></trkpt><trkpt lat="39.2397694" lon="16.7949194"><ele>539.0</ele><time>2026-03-28T11:51:53.645Z</time></trkpt><trkpt lat="39.2397867" lon="16.7950019"><ele>539.0</ele><time>2026-03-28T11:51:55.645Z</time></trkpt><trkpt lat="39.2397976" lon="16.7951072"><ele>539.0</ele><time>2026-03-28T11:51:57.643Z</time></trkpt><trkpt lat="39.2397968" lon="16.795209"><ele>539.0</ele><time>2026-03-28T11:51:59.643Z</time></trkpt><trkpt lat="39.2397941" lon="16.7953039"><ele>539.0</ele><time>2026-03-28T11:52:01.639Z</time></trkpt><trkpt lat="39.2397656" lon="16.7954583"><ele>539.0</ele><time>2026-03-28T11:52:03.647Z</time></trkpt><trkpt lat="39.2397511" lon="16.7956059"><ele>537.3333333333333</ele><time>2026-03-28T11:52:05.645Z</time></trkpt><trkpt lat="39.2397429" lon="16.7957444"><ele>535.6666666666666</ele><time>2026-03-28T11:52:07.639Z</time></trkpt><trkpt lat="39.2397287" lon="16.795843"><ele>534.0</ele><time>2026-03-28T11:52:10.641Z</time></trkpt><trkpt lat="39.2397201" lon="16.7959648"><ele>532.3333333333334</ele><time>2026-03-28T11:52:13.642Z</time></trkpt><trkpt lat="39.2397144" lon="16.7960744"><ele>530.6666666666667</ele><time>2026-03-28T11:52:16.643Z</time></trkpt><trkpt lat="39.2397128" lon="16.7961727"><ele>529.0</ele><time>2026-03-28T11:52:18.639Z</time></trkpt><trkpt lat="39.239713" lon="16.7962774"><ele>526.5714285714286</ele><time>2026-03-28T11:52:22.642Z</time></trkpt><trkpt lat="39.2397321" lon="16.7963576"><ele>524.1428571428571</ele><time>2026-03-28T11:52:29.646Z</time></trkpt><trkpt lat="39.2397307" lon="16.7964422"><ele>521.7142857142857</ele><time>2026-03-28T11:52:34.646Z</time></trkpt><trkpt lat="39.2396939" lon="16.7965472"><ele>519.2857142857142</ele><time>2026-03-28T11:52:57.662Z</time></trkpt><trkpt lat="39.2397523" lon="16.7966461"><ele>516.8571428571428</ele><time>2026-03-28T11:53:40.644Z</time></trkpt><trkpt lat="39.2398071" lon="16.7966871"><ele>514.4285714285714</ele><time>2026-03-28T11:54:05.652Z</time></trkpt><trkpt lat="39.2398001" lon="16.7967764"><ele>512.0</ele><time>2026-03-28T11:54:28.668Z</time></trkpt><trkpt lat="39.2397882" lon="16.7968604"><ele>510.99999999999994</ele><time>2026-03-28T11:54:32.64Z</time></trkpt><trkpt lat="39.2397851" lon="16.7969596"><ele>510.0</ele><time>2026-03-28T11:54:57.649Z</time></trkpt><trkpt lat="39.2397695" lon="16.797078"><ele>509.0</ele><time>2026-03-28T11:55:17.65Z</time></trkpt><trkpt lat="39.2397587" lon="16.7971907"><ele>508.0</ele><time>2026-03-28T11:55:20.65Z</time></trkpt><trkpt lat="39.2397434" lon="16.7972932"><ele>506.99999999999994</ele><time>2026-03-28T11:55:22.647Z</time></trkpt><trkpt lat="39.2397092" lon="16.7974262"><ele>506.0</ele><time>2026-03-28T11:55:24.651Z</time></trkpt><trkpt lat="39.2396821" lon="16.7975587"><ele>506.00000000000006</ele><time>2026-03-28T11:55:26.642Z</time></trkpt><trkpt lat="39.2396567" lon="16.7976666"><ele>506.0</ele><time>2026-03-28T11:55:28.644Z</time></trkpt><trkpt lat="39.2396288" lon="16.797761"><ele>506.00000000000006</ele><time>2026-03-28T11:55:30.649Z</time></trkpt><trkpt lat="39.2395907" lon="16.7978279"><ele>506.00000000000006</ele><time>2026-03-28T11:55:32.652Z</time></trkpt><trkpt lat="39.23956" lon="16.7979012"><ele>506.0</ele><time>2026-03-28T11:55:35.648Z</time></trkpt><trkpt lat="39.2395185" lon="16.7979661"><ele>506.00000000000006</ele><time>2026-03-28T11:55:49.648Z</time></trkpt><trkpt lat="39.2394747" lon="16.7980411"><ele>506.00000000000006</ele><time>2026-03-28T11:55:58.648Z</time></trkpt><trkpt lat="39.2394273" lon="16.7981086"><ele>505.3333333333333</ele><time>2026-03-28T11:56:16.649Z</time></trkpt><trkpt lat="39.2393723" lon="16.7981549"><ele>504.66666666666663</ele><time>2026-03-28T11:56:22.644Z</time></trkpt><trkpt lat="39.2393099" lon="16.798202"><ele>504.0</ele><time>2026-03-28T11:56:27.643Z</time></trkpt><trkpt lat="39.2392684" lon="16.7982725"><ele>503.33333333333337</ele><time>2026-03-28T11:56:32.654Z</time></trkpt><trkpt lat="39.239242" lon="16.7983594"><ele>502.6666666666667</ele><time>2026-03-28T11:56:53.665Z</time></trkpt><trkpt lat="39.2392087" lon="16.7984768"><ele>502.0</ele><time>2026-03-28T11:56:57.645Z</time></trkpt><trkpt lat="39.2392001" lon="16.7986218"><ele>501.33333333333337</ele><time>2026-03-28T11:56:59.647Z</time></trkpt><trkpt lat="39.2391988" lon="16.7987268"><ele>500.6666666666667</ele><time>2026-03-28T11:57:01.64Z</time></trkpt><trkpt lat="39.2391964" lon="16.7988226"><ele>500.0</ele><time>2026-03-28T11:57:04.648Z</time></trkpt><trkpt lat="39.2392051" lon="16.79892"><ele>499.33333333333337</ele><time>2026-03-28T11:57:10.641Z</time></trkpt><trkpt lat="39.2391921" lon="16.7990161"><ele>498.6666666666667</ele><time>2026-03-28T11:57:13.647Z</time></trkpt><trkpt lat="39.2391545" lon="16.7991451"><ele>498.0</ele><time>2026-03-28T11:57:16.655Z</time></trkpt><trkpt lat="39.2391289" lon="16.7992611"><ele>496.8333333333333</ele><time>2026-03-28T11:57:18.643Z</time></trkpt><trkpt lat="39.2391195" lon="16.7993823"><ele>495.66666666666663</ele><time>2026-03-28T11:57:20.65Z</time></trkpt><trkpt lat="39.2391104" lon="16.7995082"><ele>494.5</ele><time>2026-03-28T11:57:22.646Z</time></trkpt><trkpt lat="39.2391309" lon="16.7996326"><ele>493.3333333333333</ele><time>2026-03-28T11:57:24.649Z</time></trkpt><trkpt lat="39.2391342" lon="16.7997479"><ele>492.16666666666663</ele><time>2026-03-28T11:57:26.651Z</time></trkpt><trkpt lat="39.2390961" lon="16.7998224"><ele>491.0</ele><time>2026-03-28T11:57:33.653Z</time></trkpt><trkpt lat="39.2390129" lon="16.7998238"><ele>488.8333333333333</ele><time>2026-03-28T11:58:14.656Z</time></trkpt><trkpt lat="39.2389292" lon="16.7998223"><ele>486.66666666666663</ele><time>2026-03-28T11:58:17.64Z</time></trkpt><trkpt lat="39.23887" lon="16.7998538"><ele>484.5</ele><time>2026-03-28T11:58:19.644Z</time></trkpt><trkpt lat="39.2387965" lon="16.7999063"><ele>482.33333333333337</ele><time>2026-03-28T11:58:21.649Z</time></trkpt><trkpt lat="39.2387226" lon="16.7999656"><ele>480.1666666666667</ele><time>2026-03-28T11:58:23.659Z</time></trkpt><trkpt lat="39.23865" lon="16.8000268"><ele>478.0</ele><time>2026-03-28T11:58:25.642Z</time></trkpt><trkpt lat="39.2385804" lon="16.8000864"><ele>478.0</ele><time>2026-03-28T11:58:27.645Z</time></trkpt><trkpt lat="39.2385044" lon="16.8001529"><ele>477.99999999999994</ele><time>2026-03-28T11:58:29.652Z</time></trkpt><trkpt lat="39.2384188" lon="16.8002587"><ele>477.99999999999994</ele><time>2026-03-28T11:58:31.64Z</time></trkpt><trkpt lat="39.2383809" lon="16.800327"><ele>478.0</ele><time>2026-03-28T11:58:32.65Z</time></trkpt><trkpt lat="39.2383143" lon="16.8004488"><ele>478.0</ele><time>2026-03-28T11:58:34.643Z</time></trkpt><trkpt lat="39.2382488" lon="16.8005678"><ele>479.0</ele><time>2026-03-28T11:58:36.64Z</time></trkpt><trkpt lat="39.2381803" lon="16.8006933"><ele>480.0</ele><time>2026-03-28T11:58:38.656Z</time></trkpt><trkpt lat="39.2381214" lon="16.800804"><ele>481.0</ele><time>2026-03-28T11:58:40.644Z</time></trkpt><trkpt lat="39.2380498" lon="16.8009251"><ele>482.0</ele><time>2026-03-28T11:58:42.642Z</time></trkpt><trkpt lat="39.2379762" lon="16.8010654"><ele>478.8333333333333</ele><time>2026-03-28T11:58:44.645Z</time></trkpt><trkpt lat="39.2379424" lon="16.8011507"><ele>475.66666666666663</ele><time>2026-03-28T11:58:45.647Z</time></trkpt><trkpt lat="39.2379128" lon="16.8012446"><ele>472.5</ele><time>2026-03-28T11:58:46.66Z</time></trkpt><trkpt lat="39.2378861" lon="16.801343"><ele>469.33333333333337</ele><time>2026-03-28T11:58:47.641Z</time></trkpt><trkpt lat="39.2378641" lon="16.8014391"><ele>466.1666666666667</ele><time>2026-03-28T11:58:48.643Z</time></trkpt><trkpt lat="39.2378444" lon="16.8015314"><ele>463.0</ele><time>2026-03-28T11:58:49.647Z</time></trkpt><trkpt lat="39.2378243" lon="16.8016186"><ele>463.0</ele><time>2026-03-28T11:58:50.638Z</time></trkpt><trkpt lat="39.2378054" lon="16.8017024"><ele>462.99999999999994</ele><time>2026-03-28T11:58:51.649Z</time></trkpt><trkpt lat="39.2377878" lon="16.8017816"><ele>463.0</ele><time>2026-03-28T11:58:52.647Z</time></trkpt><trkpt lat="39.2377697" lon="16.80186"><ele>463.0</ele><time>2026-03-28T11:58:53.643Z</time></trkpt><trkpt lat="39.2377481" lon="16.8019485"><ele>462.99999999999994</ele><time>2026-03-28T11:58:54.641Z</time></trkpt><trkpt lat="39.2377291" lon="16.802038"><ele>463.0</ele><time>2026-03-28T11:58:55.643Z</time></trkpt><trkpt lat="39.2377256" lon="16.8021257"><ele>463.0</ele><time>2026-03-28T11:58:56.64Z</time></trkpt><trkpt lat="39.2377387" lon="16.8022077"><ele>463.6666666666667</ele><time>2026-03-28T11:58:57.653Z</time></trkpt><trkpt lat="39.2377523" lon="16.8022901"><ele>464.33333333333337</ele><time>2026-03-28T11:58:58.644Z</time></trkpt><trkpt lat="39.2377978" lon="16.8023513"><ele>465.0</ele><time>2026-03-28T11:58:59.642Z</time></trkpt><trkpt lat="39.2378995" lon="16.8024212"><ele>465.66666666666663</ele><time>2026-03-28T11:59:01.652Z</time></trkpt><trkpt lat="39.2380257" lon="16.8024263"><ele>466.3333333333333</ele><time>2026-03-28T11:59:03.644Z</time></trkpt><trkpt lat="39.2380988" lon="16.8024027"><ele>467.0</ele><time>2026-03-28T11:59:04.645Z</time></trkpt><trkpt lat="39.238175" lon="16.8023847"><ele>466.99999999999994</ele><time>2026-03-28T11:59:05.64Z</time></trkpt><trkpt lat="39.2382552" lon="16.8023739"><ele>467.0</ele><time>2026-03-28T11:59:06.642Z</time></trkpt><trkpt lat="39.2383354" lon="16.8023707"><ele>467.0</ele><time>2026-03-28T11:59:07.651Z</time></trkpt><trkpt lat="39.238414" lon="16.8023686"><ele>467.0</ele><time>2026-03-28T11:59:08.653Z</time></trkpt><trkpt lat="39.2384903" lon="16.8023787"><ele>466.99999999999994</ele><time>2026-03-28T11:59:09.643Z</time></trkpt><trkpt lat="39.2385644" lon="16.8023903"><ele>467.0</ele><time>2026-03-28T11:59:10.646Z</time></trkpt><trkpt lat="39.2386389" lon="16.8024042"><ele>466.99999999999994</ele><time>2026-03-28T11:59:11.645Z</time></trkpt><trkpt lat="39.2387138" lon="16.8024196"><ele>467.0</ele><time>2026-03-28T11:59:12.646Z</time></trkpt><trkpt lat="39.2387865" lon="16.8024361"><ele>467.0</ele><time>2026-03-28T11:59:13.645Z</time></trkpt><trkpt lat="39.238851" lon="16.8024574"><ele>467.0</ele><time>2026-03-28T11:59:14.644Z</time></trkpt><trkpt lat="39.2389316" lon="16.8025001"><ele>466.99999999999994</ele><time>2026-03-28T11:59:16.641Z</time></trkpt><trkpt lat="39.2389808" lon="16.8025824"><ele>467.0</ele><time>2026-03-28T11:59:18.649Z</time></trkpt><trkpt lat="39.2389808" lon="16.8027248"><ele>467.16666666666663</ele><time>2026-03-28T11:59:20.657Z</time></trkpt><trkpt lat="39.2389719" lon="16.8028119"><ele>467.3333333333333</ele><time>2026-03-28T11:59:21.645Z</time></trkpt><trkpt lat="39.2389682" lon="16.8028985"><ele>467.5</ele><time>2026-03-28T11:59:22.645Z</time></trkpt><trkpt lat="39.2389692" lon="16.802986"><ele>467.66666666666663</ele><time>2026-03-28T11:59:23.645Z</time></trkpt><trkpt lat="39.2389706" lon="16.8031335"><ele>467.8333333333333</ele><time>2026-03-28T11:59:25.646Z</time></trkpt><trkpt lat="39.2389425" lon="16.803212"><ele>468.0</ele><time>2026-03-28T11:59:27.642Z</time></trkpt><trkpt lat="39.2388704" lon="16.8031913"><ele>465.3333333333333</ele><time>2026-03-28T11:59:30.646Z</time></trkpt><trkpt lat="39.2388088" lon="16.8031132"><ele>462.66666666666663</ele><time>2026-03-28T11:59:32.657Z</time></trkpt><trkpt lat="39.2387545" lon="16.8030083"><ele>460.0</ele><time>2026-03-28T11:59:34.643Z</time></trkpt><trkpt lat="39.2387094" lon="16.8029315"><ele>457.3333333333333</ele><time>2026-03-28T11:59:35.646Z</time></trkpt><trkpt lat="39.238649" lon="16.8028578"><ele>454.66666666666663</ele><time>2026-03-28T11:59:36.644Z</time></trkpt><trkpt lat="39.2385819" lon="16.8028066"><ele>452.0</ele><time>2026-03-28T11:59:37.638Z</time></trkpt><trkpt lat="39.2385057" lon="16.8027786"><ele>451.99999999999994</ele><time>2026-03-28T11:59:38.648Z</time></trkpt><trkpt lat="39.2384316" lon="16.8027763"><ele>452.0</ele><time>2026-03-28T11:59:39.639Z</time></trkpt><trkpt lat="39.2383513" lon="16.8027977"><ele>452.0</ele><time>2026-03-28T11:59:40.642Z</time></trkpt><trkpt lat="39.2382729" lon="16.8028501"><ele>452.0</ele><time>2026-03-28T11:59:41.639Z</time></trkpt><trkpt lat="39.2382004" lon="16.8029272"><ele>451.99999999999994</ele><time>2026-03-28T11:59:42.644Z</time></trkpt><trkpt lat="39.2381296" lon="16.8030105"><ele>452.0</ele><time>2026-03-28T11:59:43.644Z</time></trkpt><trkpt lat="39.2380547" lon="16.8030758"><ele>450.20000000000005</ele><time>2026-03-28T11:59:44.636Z</time></trkpt><trkpt lat="39.2379705" lon="16.8031056"><ele>448.40000000000003</ele><time>2026-03-28T11:59:45.642Z</time></trkpt><trkpt lat="39.2378796" lon="16.8031018"><ele>446.59999999999997</ele><time>2026-03-28T11:59:46.646Z</time></trkpt><trkpt lat="39.2377852" lon="16.803069"><ele>444.79999999999995</ele><time>2026-03-28T11:59:47.644Z</time></trkpt><trkpt lat="39.2376939" lon="16.8030165"><ele>443.0</ele><time>2026-03-28T11:59:48.642Z</time></trkpt><trkpt lat="39.2376057" lon="16.8029523"><ele>443.0</ele><time>2026-03-28T11:59:49.656Z</time></trkpt><trkpt lat="39.2375235" lon="16.8028758"><ele>442.99999999999994</ele><time>2026-03-28T11:59:50.646Z</time></trkpt><trkpt lat="39.2374483" lon="16.802788"><ele>442.99999999999994</ele><time>2026-03-28T11:59:51.642Z</time></trkpt><trkpt lat="39.2373821" lon="16.8026928"><ele>443.0</ele><time>2026-03-28T11:59:52.637Z</time></trkpt><trkpt lat="39.2373199" lon="16.802597"><ele>443.0</ele><time>2026-03-28T11:59:53.643Z</time></trkpt><trkpt lat="39.2372585" lon="16.8025109"><ele>443.4</ele><time>2026-03-28T11:59:54.639Z</time></trkpt><trkpt lat="39.2371862" lon="16.8024441"><ele>443.79999999999995</ele><time>2026-03-28T11:59:55.646Z</time></trkpt><trkpt lat="39.2371019" lon="16.802405"><ele>444.2</ele><time>2026-03-28T11:59:56.647Z</time></trkpt><trkpt lat="39.237004" lon="16.8023839"><ele>444.6</ele><time>2026-03-28T11:59:57.646Z</time></trkpt><trkpt lat="39.2369001" lon="16.8023686"><ele>445.0</ele><time>2026-03-28T11:59:58.646Z</time></trkpt><trkpt lat="39.2368039" lon="16.8023499"><ele>445.00000000000006</ele><time>2026-03-28T11:59:59.646Z</time></trkpt><trkpt lat="39.236718" lon="16.802318"><ele>445.0</ele><time>2026-03-28T12:00:00.641Z</time></trkpt><trkpt lat="39.2366438" lon="16.8022642"><ele>445.0</ele><time>2026-03-28T12:00:01.64Z</time></trkpt><trkpt lat="39.2365837" lon="16.8021926"><ele>445.0</ele><time>2026-03-28T12:00:02.641Z</time></trkpt><trkpt lat="39.2365378" lon="16.8021062"><ele>445.00000000000006</ele><time>2026-03-28T12:00:03.646Z</time></trkpt><trkpt lat="39.2365053" lon="16.8020055"><ele>445.0</ele><time>2026-03-28T12:00:04.643Z</time></trkpt><trkpt lat="39.2364797" lon="16.801891"><ele>444.0</ele><time>2026-03-28T12:00:05.64Z</time></trkpt><trkpt lat="39.2364559" lon="16.8017736"><ele>443.0</ele><time>2026-03-28T12:00:06.641Z</time></trkpt><trkpt lat="39.2364304" lon="16.8016596"><ele>442.0</ele><time>2026-03-28T12:00:07.645Z</time></trkpt><trkpt lat="39.2363943" lon="16.801551"><ele>441.0</ele><time>2026-03-28T12:00:08.642Z</time></trkpt><trkpt lat="39.2363428" lon="16.8014532"><ele>440.0</ele><time>2026-03-28T12:00:09.654Z</time></trkpt><trkpt lat="39.2362782" lon="16.8013728"><ele>440.0</ele><time>2026-03-28T12:00:10.645Z</time></trkpt><trkpt lat="39.2361939" lon="16.8013152"><ele>440.0</ele><time>2026-03-28T12:00:11.641Z</time></trkpt><trkpt lat="39.236101" lon="16.8012774"><ele>440.0</ele><time>2026-03-28T12:00:12.643Z</time></trkpt><trkpt lat="39.236006" lon="16.8012673"><ele>440.0</ele><time>2026-03-28T12:00:13.641Z</time></trkpt><trkpt lat="39.2359103" lon="16.8012579"><ele>440.0</ele><time>2026-03-28T12:00:14.641Z</time></trkpt><trkpt lat="39.2358185" lon="16.8013028"><ele>440.0</ele><time>2026-03-28T12:00:15.643Z</time></trkpt><trkpt lat="39.2357401" lon="16.8013785"><ele>440.0</ele><time>2026-03-28T12:00:16.645Z</time></trkpt><trkpt lat="39.2356719" lon="16.8014757"><ele>440.0</ele><time>2026-03-28T12:00:17.638Z</time></trkpt><trkpt lat="39.2356081" lon="16.8015807"><ele>440.0</ele><time>2026-03-28T12:00:18.641Z</time></trkpt><trkpt lat="39.2355406" lon="16.8016872"><ele>440.0</ele><time>2026-03-28T12:00:19.638Z</time></trkpt><trkpt lat="39.2354723" lon="16.8017966"><ele>438.2</ele><time>2026-03-28T12:00:20.646Z</time></trkpt><trkpt lat="39.2354032" lon="16.8019071"><ele>436.4</ele><time>2026-03-28T12:00:21.638Z</time></trkpt><trkpt lat="39.2353314" lon="16.8020179"><ele>434.6</ele><time>2026-03-28T12:00:22.641Z</time></trkpt><trkpt lat="39.235259" lon="16.8021303"><ele>432.8</ele><time>2026-03-28T12:00:23.646Z</time></trkpt><trkpt lat="39.2351876" lon="16.8022403"><ele>431.0</ele><time>2026-03-28T12:00:24.642Z</time></trkpt><trkpt lat="39.2351189" lon="16.8023452"><ele>431.0</ele><time>2026-03-28T12:00:25.647Z</time></trkpt><trkpt lat="39.2350551" lon="16.8024432"><ele>431.0</ele><time>2026-03-28T12:00:26.648Z</time></trkpt><trkpt lat="39.2349914" lon="16.8025405"><ele>431.0</ele><time>2026-03-28T12:00:27.644Z</time></trkpt><trkpt lat="39.2349295" lon="16.8026368"><ele>431.0</ele><time>2026-03-28T12:00:28.644Z</time></trkpt><trkpt lat="39.2348681" lon="16.8027344"><ele>431.0</ele><time>2026-03-28T12:00:29.64Z</time></trkpt><trkpt lat="39.2348056" lon="16.8028344"><ele>429.4</ele><time>2026-03-28T12:00:30.638Z</time></trkpt><trkpt lat="39.2347466" lon="16.8029339"><ele>427.8</ele><time>2026-03-28T12:00:31.639Z</time></trkpt><trkpt lat="39.2346913" lon="16.8030403"><ele>426.2</ele><time>2026-03-28T12:00:32.644Z</time></trkpt><trkpt lat="39.2346412" lon="16.8031509"><ele>424.59999999999997</ele><time>2026-03-28T12:00:33.647Z</time></trkpt><trkpt lat="39.2345968" lon="16.8032661"><ele>423.0</ele><time>2026-03-28T12:00:34.643Z</time></trkpt><trkpt lat="39.2345572" lon="16.8033844"><ele>423.59999999999997</ele><time>2026-03-28T12:00:35.642Z</time></trkpt><trkpt lat="39.2345209" lon="16.8035056"><ele>424.2</ele><time>2026-03-28T12:00:36.644Z</time></trkpt><trkpt lat="39.2344895" lon="16.803628"><ele>424.8</ele><time>2026-03-28T12:00:37.639Z</time></trkpt><trkpt lat="39.2344661" lon="16.8037447"><ele>425.4</ele><time>2026-03-28T12:00:38.649Z</time></trkpt><trkpt lat="39.2344569" lon="16.8038603"><ele>426.0</ele><time>2026-03-28T12:00:39.648Z</time></trkpt><trkpt lat="39.2344636" lon="16.8039727"><ele>426.0</ele><time>2026-03-28T12:00:40.647Z</time></trkpt><trkpt lat="39.2344931" lon="16.804075"><ele>426.0</ele><time>2026-03-28T12:00:41.64Z</time></trkpt><trkpt lat="39.2345426" lon="16.8041614"><ele>426.0</ele><time>2026-03-28T12:00:42.649Z</time></trkpt><trkpt lat="39.2346068" lon="16.8042251"><ele>426.0</ele><time>2026-03-28T12:00:43.651Z</time></trkpt><trkpt lat="39.2346818" lon="16.8042611"><ele>426.0</ele><time>2026-03-28T12:00:44.645Z</time></trkpt><trkpt lat="39.234761" lon="16.8042699"><ele>426.0</ele><time>2026-03-28T12:00:45.646Z</time></trkpt><trkpt lat="39.2348369" lon="16.8042681"><ele>425.99999999999994</ele><time>2026-03-28T12:00:46.653Z</time></trkpt><trkpt lat="39.2349086" lon="16.8042713"><ele>426.0</ele><time>2026-03-28T12:00:47.636Z</time></trkpt><trkpt lat="39.234979" lon="16.8042872"><ele>426.0</ele><time>2026-03-28T12:00:48.64Z</time></trkpt><trkpt lat="39.2350459" lon="16.8043208"><ele>426.0</ele><time>2026-03-28T12:00:49.639Z</time></trkpt><trkpt lat="39.235106" lon="16.8043756"><ele>426.0</ele><time>2026-03-28T12:00:50.649Z</time></trkpt><trkpt lat="39.2351529" lon="16.8044538"><ele>425.99999999999994</ele><time>2026-03-28T12:00:51.646Z</time></trkpt><trkpt lat="39.2351819" lon="16.8045545"><ele>426.0</ele><time>2026-03-28T12:00:52.643Z</time></trkpt><trkpt lat="39.2351947" lon="16.8046686"><ele>424.0</ele><time>2026-03-28T12:00:53.645Z</time></trkpt><trkpt lat="39.2351963" lon="16.8048002"><ele>422.0</ele><time>2026-03-28T12:00:54.645Z</time></trkpt><trkpt lat="39.2351873" lon="16.8049455"><ele>420.0</ele><time>2026-03-28T12:00:55.644Z</time></trkpt><trkpt lat="39.2351656" lon="16.80508"><ele>418.0</ele><time>2026-03-28T12:00:56.647Z</time></trkpt><trkpt lat="39.2351257" lon="16.8051951"><ele>416.0</ele><time>2026-03-28T12:00:57.643Z</time></trkpt><trkpt lat="39.2350705" lon="16.8052859"><ele>414.66666666666663</ele><time>2026-03-28T12:00:58.65Z</time></trkpt><trkpt lat="39.235006" lon="16.8053496"><ele>413.3333333333333</ele><time>2026-03-28T12:00:59.647Z</time></trkpt><trkpt lat="39.2349361" lon="16.8053866"><ele>412.0</ele><time>2026-03-28T12:01:00.643Z</time></trkpt><trkpt lat="39.2348534" lon="16.8054007"><ele>410.66666666666663</ele><time>2026-03-28T12:01:01.644Z</time></trkpt><trkpt lat="39.2347564" lon="16.8053944"><ele>409.3333333333333</ele><time>2026-03-28T12:01:02.64Z</time></trkpt><trkpt lat="39.2346567" lon="16.8053799"><ele>408.0</ele><time>2026-03-28T12:01:03.646Z</time></trkpt><trkpt lat="39.2345606" lon="16.8053711"><ele>408.0</ele><time>2026-03-28T12:01:04.645Z</time></trkpt><trkpt lat="39.2344678" lon="16.8053867"><ele>408.0</ele><time>2026-03-28T12:01:05.647Z</time></trkpt><trkpt lat="39.2343764" lon="16.8054032"><ele>408.0</ele><time>2026-03-28T12:01:06.654Z</time></trkpt><trkpt lat="39.2343082" lon="16.8054818"><ele>408.0</ele><time>2026-03-28T12:01:07.642Z</time></trkpt><trkpt lat="39.2342542" lon="16.8055865"><ele>408.0</ele><time>2026-03-28T12:01:08.643Z</time></trkpt><trkpt lat="39.2342088" lon="16.8057089"><ele>408.0</ele><time>2026-03-28T12:01:09.643Z</time></trkpt><trkpt lat="39.2341701" lon="16.8058309"><ele>408.0</ele><time>2026-03-28T12:01:10.65Z</time></trkpt><trkpt lat="39.234133" lon="16.8059472"><ele>408.0</ele><time>2026-03-28T12:01:11.647Z</time></trkpt><trkpt lat="39.2340988" lon="16.8060589"><ele>408.0</ele><time>2026-03-28T12:01:12.641Z</time></trkpt><trkpt lat="39.234068" lon="16.8061626"><ele>408.0</ele><time>2026-03-28T12:01:13.647Z</time></trkpt><trkpt lat="39.2340378" lon="16.8062568"><ele>406.57142857142856</ele><time>2026-03-28T12:01:14.646Z</time></trkpt><trkpt lat="39.2340059" lon="16.8063442"><ele>405.14285714285717</ele><time>2026-03-28T12:01:15.645Z</time></trkpt><trkpt lat="39.2339621" lon="16.8064226"><ele>403.71428571428567</ele><time>2026-03-28T12:01:16.644Z</time></trkpt><trkpt lat="39.2338968" lon="16.8064818"><ele>402.2857142857143</ele><time>2026-03-28T12:01:17.648Z</time></trkpt><trkpt lat="39.2338234" lon="16.8065"><ele>400.85714285714283</ele><time>2026-03-28T12:01:18.646Z</time></trkpt><trkpt lat="39.2337588" lon="16.8064719"><ele>399.4285714285714</ele><time>2026-03-28T12:01:19.647Z</time></trkpt><trkpt lat="39.2337075" lon="16.8064028"><ele>398.0</ele><time>2026-03-28T12:01:20.641Z</time></trkpt><trkpt lat="39.2336674" lon="16.806319"><ele>397.66666666666663</ele><time>2026-03-28T12:01:21.646Z</time></trkpt><trkpt lat="39.2336226" lon="16.8062399"><ele>397.3333333333333</ele><time>2026-03-28T12:01:22.64Z</time></trkpt><trkpt lat="39.2335645" lon="16.8061716"><ele>397.0</ele><time>2026-03-28T12:01:23.641Z</time></trkpt><trkpt lat="39.2334908" lon="16.8061256"><ele>396.66666666666663</ele><time>2026-03-28T12:01:24.639Z</time></trkpt><trkpt lat="39.2333969" lon="16.8061009"><ele>396.3333333333333</ele><time>2026-03-28T12:01:25.646Z</time></trkpt><trkpt lat="39.2332942" lon="16.8060909"><ele>396.0</ele><time>2026-03-28T12:01:26.637Z</time></trkpt><trkpt lat="39.2331893" lon="16.8060864"><ele>395.1666666666667</ele><time>2026-03-28T12:01:27.636Z</time></trkpt><trkpt lat="39.2330925" lon="16.8060832"><ele>394.33333333333337</ele><time>2026-03-28T12:01:28.642Z</time></trkpt><trkpt lat="39.233003" lon="16.8060818"><ele>393.5</ele><time>2026-03-28T12:01:29.638Z</time></trkpt><trkpt lat="39.2329196" lon="16.8060804"><ele>392.6666666666667</ele><time>2026-03-28T12:01:30.641Z</time></trkpt><trkpt lat="39.2328445" lon="16.8060779"><ele>391.83333333333337</ele><time>2026-03-28T12:01:31.645Z</time></trkpt><trkpt lat="39.2327741" lon="16.8060703"><ele>391.0</ele><time>2026-03-28T12:01:32.646Z</time></trkpt><trkpt lat="39.2326942" lon="16.8060483"><ele>391.0</ele><time>2026-03-28T12:01:33.643Z</time></trkpt><trkpt lat="39.2325952" lon="16.8059987"><ele>391.0</ele><time>2026-03-28T12:01:34.639Z</time></trkpt><trkpt lat="39.2325022" lon="16.8059196"><ele>391.0</ele><time>2026-03-28T12:01:35.648Z</time></trkpt><trkpt lat="39.2324187" lon="16.8058385"><ele>391.0</ele><time>2026-03-28T12:01:36.646Z</time></trkpt><trkpt lat="39.2323363" lon="16.8057719"><ele>391.0</ele><time>2026-03-28T12:01:37.641Z</time></trkpt><trkpt lat="39.2322506" lon="16.8057277"><ele>391.8</ele><time>2026-03-28T12:01:38.641Z</time></trkpt><trkpt lat="39.2321635" lon="16.8057004"><ele>392.6</ele><time>2026-03-28T12:01:39.646Z</time></trkpt><trkpt lat="39.2320726" lon="16.8056852"><ele>393.4</ele><time>2026-03-28T12:01:40.647Z</time></trkpt><trkpt lat="39.2319757" lon="16.8056864"><ele>394.2</ele><time>2026-03-28T12:01:41.644Z</time></trkpt><trkpt lat="39.2318733" lon="16.8057082"><ele>395.0</ele><time>2026-03-28T12:01:42.648Z</time></trkpt><trkpt lat="39.2317692" lon="16.8057543"><ele>395.0</ele><time>2026-03-28T12:01:43.652Z</time></trkpt><trkpt lat="39.2316662" lon="16.8058225"><ele>395.0</ele><time>2026-03-28T12:01:44.649Z</time></trkpt><trkpt lat="39.2315653" lon="16.8059062"><ele>395.0</ele><time>2026-03-28T12:01:45.643Z</time></trkpt><trkpt lat="39.2314658" lon="16.8060006"><ele>395.0</ele><time>2026-03-28T12:01:46.644Z</time></trkpt><trkpt lat="39.2313674" lon="16.8061006"><ele>393.0</ele><time>2026-03-28T12:01:47.642Z</time></trkpt><trkpt lat="39.2312715" lon="16.8062022"><ele>391.0</ele><time>2026-03-28T12:01:48.645Z</time></trkpt><trkpt lat="39.2311814" lon="16.8062984"><ele>389.0</ele><time>2026-03-28T12:01:49.64Z</time></trkpt><trkpt lat="39.2310962" lon="16.8063876"><ele>387.0</ele><time>2026-03-28T12:01:50.647Z</time></trkpt><trkpt lat="39.2310135" lon="16.8064732"><ele>387.0</ele><time>2026-03-28T12:01:51.651Z</time></trkpt><trkpt lat="39.230932" lon="16.8065561"><ele>387.0</ele><time>2026-03-28T12:01:52.642Z</time></trkpt><trkpt lat="39.2308512" lon="16.8066371"><ele>387.0</ele><time>2026-03-28T12:01:53.641Z</time></trkpt><trkpt lat="39.2307696" lon="16.8067175"><ele>387.0</ele><time>2026-03-28T12:01:54.647Z</time></trkpt><trkpt lat="39.2306878" lon="16.8068001"><ele>387.0</ele><time>2026-03-28T12:01:55.644Z</time></trkpt><trkpt lat="39.2306055" lon="16.8068848"><ele>386.0</ele><time>2026-03-28T12:01:56.643Z</time></trkpt><trkpt lat="39.2305269" lon="16.8069677"><ele>385.0</ele><time>2026-03-28T12:01:57.641Z</time></trkpt><trkpt lat="39.2304516" lon="16.8070463"><ele>384.0</ele><time>2026-03-28T12:01:58.644Z</time></trkpt><trkpt lat="39.230379" lon="16.8071259"><ele>383.0</ele><time>2026-03-28T12:01:59.64Z</time></trkpt><trkpt lat="39.230315" lon="16.8072158"><ele>382.0</ele><time>2026-03-28T12:02:00.658Z</time></trkpt><trkpt lat="39.2302629" lon="16.8073187"><ele>382.0</ele><time>2026-03-28T12:02:01.645Z</time></trkpt><trkpt lat="39.2302134" lon="16.8074248"><ele>382.0</ele><time>2026-03-28T12:02:02.645Z</time></trkpt><trkpt lat="39.2301525" lon="16.8075199"><ele>382.0</ele><time>2026-03-28T12:02:03.642Z</time></trkpt><trkpt lat="39.2300924" lon="16.8076133"><ele>382.0</ele><time>2026-03-28T12:02:04.646Z</time></trkpt><trkpt lat="39.2300054" lon="16.8076609"><ele>382.0</ele><time>2026-03-28T12:02:05.648Z</time></trkpt><trkpt lat="39.2299091" lon="16.8076926"><ele>379.8</ele><time>2026-03-28T12:02:06.642Z</time></trkpt><trkpt lat="39.229815" lon="16.8077281"><ele>377.6</ele><time>2026-03-28T12:02:07.642Z</time></trkpt><trkpt lat="39.229729" lon="16.8077843"><ele>375.40000000000003</ele><time>2026-03-28T12:02:08.646Z</time></trkpt><trkpt lat="39.2296574" lon="16.8078672"><ele>373.20000000000005</ele><time>2026-03-28T12:02:09.642Z</time></trkpt><trkpt lat="39.2295933" lon="16.8079602"><ele>371.0</ele><time>2026-03-28T12:02:10.658Z</time></trkpt><trkpt lat="39.2295238" lon="16.8080512"><ele>371.0</ele><time>2026-03-28T12:02:11.646Z</time></trkpt><trkpt lat="39.2294463" lon="16.8081379"><ele>371.0</ele><time>2026-03-28T12:02:12.642Z</time></trkpt><trkpt lat="39.2293557" lon="16.8082106"><ele>371.0</ele><time>2026-03-28T12:02:13.642Z</time></trkpt><trkpt lat="39.2292638" lon="16.8082834"><ele>371.0</ele><time>2026-03-28T12:02:14.643Z</time></trkpt><trkpt lat="39.2291525" lon="16.8083139"><ele>371.0</ele><time>2026-03-28T12:02:15.642Z</time></trkpt><trkpt lat="39.2290391" lon="16.8083211"><ele>370.4</ele><time>2026-03-28T12:02:16.647Z</time></trkpt><trkpt lat="39.2289235" lon="16.8083136"><ele>369.8</ele><time>2026-03-28T12:02:17.642Z</time></trkpt><trkpt lat="39.2288158" lon="16.8082975"><ele>369.2</ele><time>2026-03-28T12:02:18.646Z</time></trkpt><trkpt lat="39.2287139" lon="16.8082794"><ele>368.59999999999997</ele><time>2026-03-28T12:02:19.639Z</time></trkpt><trkpt lat="39.2286269" lon="16.8082589"><ele>368.0</ele><time>2026-03-28T12:02:20.642Z</time></trkpt><trkpt lat="39.2285597" lon="16.8082452"><ele>368.0</ele><time>2026-03-28T12:02:21.64Z</time></trkpt><trkpt lat="39.2284552" lon="16.8082608"><ele>368.0</ele><time>2026-03-28T12:02:23.643Z</time></trkpt><trkpt lat="39.2283639" lon="16.8083195"><ele>368.0</ele><time>2026-03-28T12:02:25.651Z</time></trkpt><trkpt lat="39.2282652" lon="16.8083954"><ele>368.0</ele><time>2026-03-28T12:02:27.654Z</time></trkpt><trkpt lat="39.2281777" lon="16.8085188"><ele>366.4</ele><time>2026-03-28T12:02:29.643Z</time></trkpt><trkpt lat="39.2281396" lon="16.8086092"><ele>364.79999999999995</ele><time>2026-03-28T12:02:30.647Z</time></trkpt><trkpt lat="39.2280921" lon="16.8087248"><ele>363.2</ele><time>2026-03-28T12:02:31.645Z</time></trkpt><trkpt lat="39.2280361" lon="16.8088592"><ele>361.6</ele><time>2026-03-28T12:02:32.648Z</time></trkpt><trkpt lat="39.2279805" lon="16.8089913"><ele>360.0</ele><time>2026-03-28T12:02:33.658Z</time></trkpt><trkpt lat="39.2279277" lon="16.8091144"><ele>360.0</ele><time>2026-03-28T12:02:34.641Z</time></trkpt><trkpt lat="39.2278793" lon="16.8092306"><ele>360.0</ele><time>2026-03-28T12:02:35.649Z</time></trkpt><trkpt lat="39.2278335" lon="16.8093419"><ele>360.0</ele><time>2026-03-28T12:02:36.638Z</time></trkpt><trkpt lat="39.2277913" lon="16.8094453"><ele>360.0</ele><time>2026-03-28T12:02:37.651Z</time></trkpt><trkpt lat="39.2277489" lon="16.8095406"><ele>360.0</ele><time>2026-03-28T12:02:38.639Z</time></trkpt><trkpt lat="39.2277019" lon="16.8096256"><ele>359.8</ele><time>2026-03-28T12:02:39.643Z</time></trkpt><trkpt lat="39.2276416" lon="16.8097053"><ele>359.6</ele><time>2026-03-28T12:02:40.64Z</time></trkpt><trkpt lat="39.227571" lon="16.8097764"><ele>359.4</ele><time>2026-03-28T12:02:41.643Z</time></trkpt><trkpt lat="39.2275009" lon="16.8098461"><ele>359.2</ele><time>2026-03-28T12:02:42.682Z</time></trkpt><trkpt lat="39.2274071" lon="16.8098854"><ele>359.0</ele><time>2026-03-28T12:02:43.651Z</time></trkpt><trkpt lat="39.2273023" lon="16.8099204"><ele>357.4</ele><time>2026-03-28T12:02:44.642Z</time></trkpt><trkpt lat="39.2272025" lon="16.8099517"><ele>355.79999999999995</ele><time>2026-03-28T12:02:45.649Z</time></trkpt><trkpt lat="39.2271105" lon="16.8099781"><ele>354.20000000000005</ele><time>2026-03-28T12:02:46.636Z</time></trkpt><trkpt lat="39.2270222" lon="16.8100049"><ele>352.6</ele><time>2026-03-28T12:02:47.651Z</time></trkpt><trkpt lat="39.2269309" lon="16.8100332"><ele>351.0</ele><time>2026-03-28T12:02:48.644Z</time></trkpt><trkpt lat="39.2268396" lon="16.8100633"><ele>351.0</ele><time>2026-03-28T12:02:49.645Z</time></trkpt><trkpt lat="39.2267488" lon="16.8100941"><ele>351.0</ele><time>2026-03-28T12:02:50.648Z</time></trkpt><trkpt lat="39.2266514" lon="16.8101255"><ele>351.0</ele><time>2026-03-28T12:02:51.651Z</time></trkpt><trkpt lat="39.2265497" lon="16.810159"><ele>351.0</ele><time>2026-03-28T12:02:52.644Z</time></trkpt><trkpt lat="39.2264435" lon="16.8101954"><ele>351.0</ele><time>2026-03-28T12:02:53.641Z</time></trkpt><trkpt lat="39.2263418" lon="16.8102286"><ele>349.0</ele><time>2026-03-28T12:02:54.649Z</time></trkpt><trkpt lat="39.2262472" lon="16.8102586"><ele>347.0</ele><time>2026-03-28T12:02:55.647Z</time></trkpt><trkpt lat="39.2261593" lon="16.8102871"><ele>345.0</ele><time>2026-03-28T12:02:56.644Z</time></trkpt><trkpt lat="39.2260777" lon="16.8103255"><ele>343.0</ele><time>2026-03-28T12:02:57.644Z</time></trkpt><trkpt lat="39.226" lon="16.8103816"><ele>341.0</ele><time>2026-03-28T12:02:58.644Z</time></trkpt><trkpt lat="39.2259304" lon="16.8104555"><ele>341.0</ele><time>2026-03-28T12:02:59.642Z</time></trkpt><trkpt lat="39.2258737" lon="16.810549"><ele>341.0</ele><time>2026-03-28T12:03:00.648Z</time></trkpt><trkpt lat="39.2258287" lon="16.8106547"><ele>341.0</ele><time>2026-03-28T12:03:01.648Z</time></trkpt><trkpt lat="39.2257903" lon="16.810759"><ele>341.0</ele><time>2026-03-28T12:03:02.649Z</time></trkpt><trkpt lat="39.2257633" lon="16.8108659"><ele>341.0</ele><time>2026-03-28T12:03:03.644Z</time></trkpt><trkpt lat="39.2257524" lon="16.8109752"><ele>341.0</ele><time>2026-03-28T12:03:04.654Z</time></trkpt><trkpt lat="39.225761" lon="16.8110925"><ele>339.6</ele><time>2026-03-28T12:03:05.656Z</time></trkpt><trkpt lat="39.2257912" lon="16.8112178"><ele>338.20000000000005</ele><time>2026-03-28T12:03:06.642Z</time></trkpt><trkpt lat="39.2258342" lon="16.8113463"><ele>336.79999999999995</ele><time>2026-03-28T12:03:07.663Z</time></trkpt><trkpt lat="39.2258802" lon="16.8114797"><ele>335.4</ele><time>2026-03-28T12:03:08.643Z</time></trkpt><trkpt lat="39.2259275" lon="16.8116178"><ele>334.0</ele><time>2026-03-28T12:03:09.642Z</time></trkpt><trkpt lat="39.2259747" lon="16.8117572"><ele>332.79999999999995</ele><time>2026-03-28T12:03:10.643Z</time></trkpt><trkpt lat="39.226022" lon="16.8118945"><ele>331.59999999999997</ele><time>2026-03-28T12:03:11.64Z</time></trkpt><trkpt lat="39.2260664" lon="16.8120228"><ele>330.4</ele><time>2026-03-28T12:03:12.643Z</time></trkpt><trkpt lat="39.2261006" lon="16.8121297"><ele>329.2</ele><time>2026-03-28T12:03:13.639Z</time></trkpt><trkpt lat="39.226115" lon="16.8122271"><ele>328.0</ele><time>2026-03-28T12:03:14.65Z</time></trkpt><trkpt lat="39.2261059" lon="16.8123152"><ele>328.0</ele><time>2026-03-28T12:03:15.647Z</time></trkpt><trkpt lat="39.2260463" lon="16.8124473"><ele>328.0</ele><time>2026-03-28T12:03:17.646Z</time></trkpt><trkpt lat="39.2259845" lon="16.81248"><ele>328.0</ele><time>2026-03-28T12:03:18.644Z</time></trkpt><trkpt lat="39.2259139" lon="16.8125049"><ele>328.0</ele><time>2026-03-28T12:03:19.65Z</time></trkpt><trkpt lat="39.2258372" lon="16.8125309"><ele>328.0</ele><time>2026-03-28T12:03:20.644Z</time></trkpt><trkpt lat="39.2257569" lon="16.8125587"><ele>328.0</ele><time>2026-03-28T12:03:21.658Z</time></trkpt><trkpt lat="39.2256831" lon="16.8125828"><ele>326.2</ele><time>2026-03-28T12:03:22.646Z</time></trkpt><trkpt lat="39.2256156" lon="16.8126065"><ele>324.4</ele><time>2026-03-28T12:03:23.642Z</time></trkpt><trkpt lat="39.2255093" lon="16.8126843"><ele>322.59999999999997</ele><time>2026-03-28T12:03:25.646Z</time></trkpt><trkpt lat="39.2254633" lon="16.8128316"><ele>320.79999999999995</ele><time>2026-03-28T12:03:27.65Z</time></trkpt><trkpt lat="39.2255648" lon="16.8129159"><ele>319.0</ele><time>2026-03-28T12:03:29.639Z</time></trkpt><trkpt lat="39.2256312" lon="16.8129178"><ele>319.0</ele><time>2026-03-28T12:03:30.645Z</time></trkpt><trkpt lat="39.2257008" lon="16.8129216"><ele>319.0</ele><time>2026-03-28T12:03:31.647Z</time></trkpt><trkpt lat="39.2257641" lon="16.8129382"><ele>319.0</ele><time>2026-03-28T12:03:32.648Z</time></trkpt><trkpt lat="39.2258514" lon="16.8130348"><ele>319.0</ele><time>2026-03-28T12:03:34.654Z</time></trkpt><trkpt lat="39.2258735" lon="16.8131211"><ele>319.0</ele><time>2026-03-28T12:03:35.65Z</time></trkpt><trkpt lat="39.2258772" lon="16.8132335"><ele>319.0</ele><time>2026-03-28T12:03:36.647Z</time></trkpt><trkpt lat="39.2258659" lon="16.8133569"><ele>319.0</ele><time>2026-03-28T12:03:37.647Z</time></trkpt><trkpt lat="39.2258487" lon="16.8134724"><ele>319.0</ele><time>2026-03-28T12:03:38.656Z</time></trkpt><trkpt lat="39.225833" lon="16.8135837"><ele>319.0</ele><time>2026-03-28T12:03:39.647Z</time></trkpt><trkpt lat="39.2258157" lon="16.8136997"><ele>319.0</ele><time>2026-03-28T12:03:40.644Z</time></trkpt><trkpt lat="39.2257956" lon="16.8138172"><ele>319.0</ele><time>2026-03-28T12:03:41.652Z</time></trkpt><trkpt lat="39.2257658" lon="16.813927"><ele>317.4</ele><time>2026-03-28T12:03:42.681Z</time></trkpt><trkpt lat="39.2257195" lon="16.8140223"><ele>315.79999999999995</ele><time>2026-03-28T12:03:43.641Z</time></trkpt><trkpt lat="39.2256582" lon="16.8140981"><ele>314.20000000000005</ele><time>2026-03-28T12:03:44.648Z</time></trkpt><trkpt lat="39.225582" lon="16.8141512"><ele>312.6</ele><time>2026-03-28T12:03:45.636Z</time></trkpt><trkpt lat="39.2254956" lon="16.8141885"><ele>311.0</ele><time>2026-03-28T12:03:46.643Z</time></trkpt><trkpt lat="39.2253983" lon="16.814219"><ele>309.2</ele><time>2026-03-28T12:03:47.651Z</time></trkpt><trkpt lat="39.2252965" lon="16.8142497"><ele>307.40000000000003</ele><time>2026-03-28T12:03:48.643Z</time></trkpt><trkpt lat="39.2251978" lon="16.8142803"><ele>305.6</ele><time>2026-03-28T12:03:49.653Z</time></trkpt><trkpt lat="39.2251044" lon="16.8143083"><ele>303.8</ele><time>2026-03-28T12:03:50.651Z</time></trkpt><trkpt lat="39.2250301" lon="16.8143347"><ele>302.0</ele><time>2026-03-28T12:03:51.65Z</time></trkpt><trkpt lat="39.224933" lon="16.8144096"><ele>301.2</ele><time>2026-03-28T12:03:53.648Z</time></trkpt><trkpt lat="39.2248764" lon="16.8145151"><ele>300.4</ele><time>2026-03-28T12:03:55.646Z</time></trkpt><trkpt lat="39.2248674" lon="16.814664"><ele>299.6</ele><time>2026-03-28T12:03:57.643Z</time></trkpt><trkpt lat="39.2248853" lon="16.8147457"><ele>298.8</ele><time>2026-03-28T12:03:58.647Z</time></trkpt><trkpt lat="39.2249269" lon="16.8148315"><ele>298.0</ele><time>2026-03-28T12:03:59.646Z</time></trkpt><trkpt lat="39.2249967" lon="16.8149253"><ele>298.0</ele><time>2026-03-28T12:04:00.65Z</time></trkpt><trkpt lat="39.225078" lon="16.8150222"><ele>298.0</ele><time>2026-03-28T12:04:01.645Z</time></trkpt><trkpt lat="39.2251552" lon="16.8151177"><ele>298.0</ele><time>2026-03-28T12:04:02.65Z</time></trkpt><trkpt lat="39.2252214" lon="16.8152075"><ele>298.0</ele><time>2026-03-28T12:04:03.649Z</time></trkpt><trkpt lat="39.2252615" lon="16.8153057"><ele>298.0</ele><time>2026-03-28T12:04:04.635Z</time></trkpt><trkpt lat="39.2252695" lon="16.8154077"><ele>296.2</ele><time>2026-03-28T12:04:05.647Z</time></trkpt><trkpt lat="39.2252757" lon="16.8155085"><ele>294.4</ele><time>2026-03-28T12:04:06.65Z</time></trkpt><trkpt lat="39.2252268" lon="16.8155992"><ele>292.59999999999997</ele><time>2026-03-28T12:04:07.641Z</time></trkpt><trkpt lat="39.2251428" lon="16.8156548"><ele>290.8</ele><time>2026-03-28T12:04:08.649Z</time></trkpt><trkpt lat="39.225044" lon="16.8156633"><ele>289.0</ele><time>2026-03-28T12:04:09.639Z</time></trkpt><trkpt lat="39.2249281" lon="16.8156328"><ele>289.0</ele><time>2026-03-28T12:04:10.638Z</time></trkpt><trkpt lat="39.2248167" lon="16.8155888"><ele>289.0</ele><time>2026-03-28T12:04:11.645Z</time></trkpt><trkpt lat="39.2247197" lon="16.8155439"><ele>289.0</ele><time>2026-03-28T12:04:12.645Z</time></trkpt><trkpt lat="39.2246338" lon="16.8155063"><ele>289.0</ele><time>2026-03-28T12:04:13.637Z</time></trkpt><trkpt lat="39.2245552" lon="16.8154727"><ele>289.0</ele><time>2026-03-28T12:04:14.639Z</time></trkpt><trkpt lat="39.2244881" lon="16.8154577"><ele>287.5</ele><time>2026-03-28T12:04:15.64Z</time></trkpt><trkpt lat="39.2243597" lon="16.8154735"><ele>286.0</ele><time>2026-03-28T12:04:17.638Z</time></trkpt><trkpt lat="39.2243173" lon="16.8155342"><ele>284.5</ele><time>2026-03-28T12:04:18.644Z</time></trkpt><trkpt lat="39.2242994" lon="16.8156153"><ele>283.0</ele><time>2026-03-28T12:04:19.656Z</time></trkpt><trkpt lat="39.2243033" lon="16.8157039"><ele>281.5</ele><time>2026-03-28T12:04:20.648Z</time></trkpt><trkpt lat="39.2243182" lon="16.8158073"><ele>280.0</ele><time>2026-03-28T12:04:21.645Z</time></trkpt><trkpt lat="39.2243343" lon="16.8159145"><ele>278.8333333333333</ele><time>2026-03-28T12:04:22.648Z</time></trkpt><trkpt lat="39.2243534" lon="16.8160306"><ele>277.66666666666663</ele><time>2026-03-28T12:04:23.644Z</time></trkpt><trkpt lat="39.2243737" lon="16.816148"><ele>276.5</ele><time>2026-03-28T12:04:24.651Z</time></trkpt><trkpt lat="39.2243913" lon="16.8162528"><ele>275.3333333333333</ele><time>2026-03-28T12:04:25.65Z</time></trkpt><trkpt lat="39.2244083" lon="16.8163588"><ele>274.1666666666667</ele><time>2026-03-28T12:04:26.647Z</time></trkpt><trkpt lat="39.2244302" lon="16.8164613"><ele>273.0</ele><time>2026-03-28T12:04:27.643Z</time></trkpt><trkpt lat="39.2244639" lon="16.8165588"><ele>273.0</ele><time>2026-03-28T12:04:28.648Z</time></trkpt><trkpt lat="39.2245095" lon="16.8166533"><ele>273.0</ele><time>2026-03-28T12:04:29.642Z</time></trkpt><trkpt lat="39.2245638" lon="16.8167361"><ele>273.0</ele><time>2026-03-28T12:04:30.645Z</time></trkpt><trkpt lat="39.2246258" lon="16.8168066"><ele>273.0</ele><time>2026-03-28T12:04:31.641Z</time></trkpt><trkpt lat="39.2246901" lon="16.8168723"><ele>273.0</ele><time>2026-03-28T12:04:32.64Z</time></trkpt><trkpt lat="39.224755" lon="16.8169313"><ele>273.0</ele><time>2026-03-28T12:04:33.637Z</time></trkpt><trkpt lat="39.2248192" lon="16.8169881"><ele>271.6</ele><time>2026-03-28T12:04:34.647Z</time></trkpt><trkpt lat="39.2248795" lon="16.8170399"><ele>270.20000000000005</ele><time>2026-03-28T12:04:35.642Z</time></trkpt><trkpt lat="39.2249382" lon="16.8170964"><ele>268.8</ele><time>2026-03-28T12:04:36.644Z</time></trkpt><trkpt lat="39.224986" lon="16.8171563"><ele>267.40000000000003</ele><time>2026-03-28T12:04:37.643Z</time></trkpt><trkpt lat="39.2250482" lon="16.8172934"><ele>266.0</ele><time>2026-03-28T12:04:39.645Z</time></trkpt><trkpt lat="39.2250375" lon="16.8174507"><ele>266.0</ele><time>2026-03-28T12:04:41.65Z</time></trkpt><trkpt lat="39.2249993" lon="16.8175238"><ele>266.0</ele><time>2026-03-28T12:04:42.64Z</time></trkpt><trkpt lat="39.2249449" lon="16.8175828"><ele>266.0</ele><time>2026-03-28T12:04:43.643Z</time></trkpt><trkpt lat="39.2248772" lon="16.8176279"><ele>266.0</ele><time>2026-03-28T12:04:44.652Z</time></trkpt><trkpt lat="39.2248051" lon="16.817662"><ele>266.0</ele><time>2026-03-28T12:04:45.642Z</time></trkpt><trkpt lat="39.2247315" lon="16.8176947"><ele>266.0</ele><time>2026-03-28T12:04:46.642Z</time></trkpt><trkpt lat="39.2246535" lon="16.8177304"><ele>264.33333333333337</ele><time>2026-03-28T12:04:47.637Z</time></trkpt><trkpt lat="39.2245731" lon="16.8177646"><ele>262.6666666666667</ele><time>2026-03-28T12:04:48.645Z</time></trkpt><trkpt lat="39.2244969" lon="16.8177959"><ele>261.0</ele><time>2026-03-28T12:04:49.647Z</time></trkpt><trkpt lat="39.2244171" lon="16.8178231"><ele>259.3333333333333</ele><time>2026-03-28T12:04:50.647Z</time></trkpt><trkpt lat="39.2243416" lon="16.8178497"><ele>257.66666666666663</ele><time>2026-03-28T12:04:51.647Z</time></trkpt><trkpt lat="39.224271" lon="16.8178758"><ele>256.0</ele><time>2026-03-28T12:04:52.646Z</time></trkpt><trkpt lat="39.2242065" lon="16.8178979"><ele>256.0</ele><time>2026-03-28T12:04:53.644Z</time></trkpt><trkpt lat="39.2240922" lon="16.8179212"><ele>256.0</ele><time>2026-03-28T12:04:55.683Z</time></trkpt><trkpt lat="39.223979" lon="16.8179154"><ele>256.0</ele><time>2026-03-28T12:04:57.643Z</time></trkpt><trkpt lat="39.2238694" lon="16.8178943"><ele>256.0</ele><time>2026-03-28T12:04:59.641Z</time></trkpt><trkpt lat="39.2237524" lon="16.8178675"><ele>254.83333333333331</ele><time>2026-03-28T12:05:01.639Z</time></trkpt><trkpt lat="39.2236264" lon="16.8178434"><ele>253.66666666666666</ele><time>2026-03-28T12:05:03.641Z</time></trkpt><trkpt lat="39.223557" lon="16.8178368"><ele>252.5</ele><time>2026-03-28T12:05:04.649Z</time></trkpt><trkpt lat="39.2234885" lon="16.8178308"><ele>251.33333333333331</ele><time>2026-03-28T12:05:05.642Z</time></trkpt><trkpt lat="39.2234227" lon="16.8178633"><ele>250.16666666666666</ele><time>2026-03-28T12:05:06.646Z</time></trkpt><trkpt lat="39.2233706" lon="16.8179243"><ele>249.0</ele><time>2026-03-28T12:05:07.641Z</time></trkpt><trkpt lat="39.2233426" lon="16.818009"><ele>249.0</ele><time>2026-03-28T12:05:08.645Z</time></trkpt><trkpt lat="39.2233426" lon="16.8181036"><ele>249.0</ele><time>2026-03-28T12:05:09.642Z</time></trkpt><trkpt lat="39.2233732" lon="16.8181892"><ele>249.0</ele><time>2026-03-28T12:05:10.643Z</time></trkpt><trkpt lat="39.223428" lon="16.8182651"><ele>249.0</ele><time>2026-03-28T12:05:11.642Z</time></trkpt><trkpt lat="39.2234913" lon="16.8183375"><ele>249.0</ele><time>2026-03-28T12:05:12.641Z</time></trkpt><trkpt lat="39.2235511" lon="16.818403"><ele>249.0</ele><time>2026-03-28T12:05:13.647Z</time></trkpt><trkpt lat="39.2236101" lon="16.8184675"><ele>248.28571428571428</ele><time>2026-03-28T12:05:14.644Z</time></trkpt><trkpt lat="39.223668" lon="16.8185319"><ele>247.57142857142856</ele><time>2026-03-28T12:05:15.638Z</time></trkpt><trkpt lat="39.2237261" lon="16.8185953"><ele>246.85714285714283</ele><time>2026-03-28T12:05:16.647Z</time></trkpt><trkpt lat="39.2237836" lon="16.8186485"><ele>246.1428571428571</ele><time>2026-03-28T12:05:17.649Z</time></trkpt><trkpt lat="39.2238516" lon="16.8186942"><ele>245.42857142857142</ele><time>2026-03-28T12:05:18.646Z</time></trkpt><trkpt lat="39.2239202" lon="16.8187337"><ele>244.71428571428567</ele><time>2026-03-28T12:05:19.641Z</time></trkpt><trkpt lat="39.2239819" lon="16.8187668"><ele>243.99999999999997</ele><time>2026-03-28T12:05:20.652Z</time></trkpt><trkpt lat="39.2240598" lon="16.8188064"><ele>243.99999999999997</ele><time>2026-03-28T12:05:22.644Z</time></trkpt><trkpt lat="39.2241192" lon="16.8188568"><ele>244.0</ele><time>2026-03-28T12:05:27.647Z</time></trkpt><trkpt lat="39.2241581" lon="16.8189375"><ele>243.99999999999997</ele><time>2026-03-28T12:05:31.643Z</time></trkpt><trkpt lat="39.2241742" lon="16.819021"><ele>243.99999999999997</ele><time>2026-03-28T12:05:52.645Z</time></trkpt><trkpt lat="39.2241564" lon="16.8191027"><ele>244.0</ele><time>2026-03-28T12:07:45.657Z</time></trkpt><trkpt lat="39.2241076" lon="16.8191601"><ele>243.99999999999997</ele><time>2026-03-28T12:07:47.639Z</time></trkpt><trkpt lat="39.224033" lon="16.819209"><ele>243.99999999999997</ele><time>2026-03-28T12:07:49.651Z</time></trkpt><trkpt lat="39.2239424" lon="16.8192573"><ele>243.49999999999997</ele><time>2026-03-28T12:07:51.655Z</time></trkpt><trkpt lat="39.2238393" lon="16.8192966"><ele>243.0</ele><time>2026-03-28T12:07:53.659Z</time></trkpt><trkpt lat="39.2237367" lon="16.8193171"><ele>242.5</ele><time>2026-03-28T12:07:55.647Z</time></trkpt><trkpt lat="39.2236597" lon="16.8193163"><ele>242.0</ele><time>2026-03-28T12:07:57.642Z</time></trkpt><trkpt lat="39.2235947" lon="16.8193056"><ele>241.49999999999997</ele><time>2026-03-28T12:07:59.649Z</time></trkpt><trkpt lat="39.2235198" lon="16.8192923"><ele>241.0</ele><time>2026-03-28T12:08:01.645Z</time></trkpt><trkpt lat="39.2234394" lon="16.8192913"><ele>239.20000000000002</ele><time>2026-03-28T12:08:03.654Z</time></trkpt><trkpt lat="39.2233663" lon="16.8193723"><ele>237.40000000000003</ele><time>2026-03-28T12:08:05.649Z</time></trkpt><trkpt lat="39.2233123" lon="16.819528"><ele>235.6</ele><time>2026-03-28T12:08:07.641Z</time></trkpt><trkpt lat="39.223282" lon="16.8196252"><ele>233.8</ele><time>2026-03-28T12:08:08.647Z</time></trkpt><trkpt lat="39.2232473" lon="16.8197288"><ele>232.0</ele><time>2026-03-28T12:08:09.646Z</time></trkpt><trkpt lat="39.2232112" lon="16.8198397"><ele>232.0</ele><time>2026-03-28T12:08:10.643Z</time></trkpt><trkpt lat="39.223172" lon="16.8199642"><ele>232.0</ele><time>2026-03-28T12:08:11.644Z</time></trkpt><trkpt lat="39.2231324" lon="16.8200922"><ele>232.0</ele><time>2026-03-28T12:08:12.655Z</time></trkpt><trkpt lat="39.2230953" lon="16.8202093"><ele>232.0</ele><time>2026-03-28T12:08:13.66Z</time></trkpt><trkpt lat="39.2230633" lon="16.8203149"><ele>232.0</ele><time>2026-03-28T12:08:14.646Z</time></trkpt><trkpt lat="39.2230321" lon="16.8204095"><ele>230.83333333333331</ele><time>2026-03-28T12:08:15.646Z</time></trkpt><trkpt lat="39.2229981" lon="16.8204927"><ele>229.66666666666666</ele><time>2026-03-28T12:08:16.64Z</time></trkpt><trkpt lat="39.2229618" lon="16.8205673"><ele>228.5</ele><time>2026-03-28T12:08:17.646Z</time></trkpt><trkpt lat="39.2229215" lon="16.8206451"><ele>227.33333333333331</ele><time>2026-03-28T12:08:18.653Z</time></trkpt><trkpt lat="39.2228701" lon="16.8207224"><ele>226.16666666666666</ele><time>2026-03-28T12:08:19.647Z</time></trkpt><trkpt lat="39.2228072" lon="16.8208109"><ele>225.0</ele><time>2026-03-28T12:08:20.644Z</time></trkpt><trkpt lat="39.222749" lon="16.8208995"><ele>225.0</ele><time>2026-03-28T12:08:21.658Z</time></trkpt><trkpt lat="39.2226921" lon="16.8209748"><ele>225.0</ele><time>2026-03-28T12:08:22.648Z</time></trkpt><trkpt lat="39.2226314" lon="16.8210366"><ele>225.0</ele><time>2026-03-28T12:08:23.653Z</time></trkpt><trkpt lat="39.2225601" lon="16.8210817"><ele>225.0</ele><time>2026-03-28T12:08:24.656Z</time></trkpt><trkpt lat="39.2224787" lon="16.8211124"><ele>225.0</ele><time>2026-03-28T12:08:25.655Z</time></trkpt><trkpt lat="39.2223906" lon="16.8211419"><ele>225.0</ele><time>2026-03-28T12:08:26.643Z</time></trkpt><trkpt lat="39.2223073" lon="16.8211737"><ele>224.0</ele><time>2026-03-28T12:08:27.646Z</time></trkpt><trkpt lat="39.2222344" lon="16.8212172"><ele>223.0</ele><time>2026-03-28T12:08:28.648Z</time></trkpt><trkpt lat="39.2221671" lon="16.8212779"><ele>222.0</ele><time>2026-03-28T12:08:29.651Z</time></trkpt><trkpt lat="39.2221087" lon="16.8213587"><ele>221.0</ele><time>2026-03-28T12:08:30.645Z</time></trkpt><trkpt lat="39.2220531" lon="16.8214597"><ele>220.0</ele><time>2026-03-28T12:08:31.642Z</time></trkpt><trkpt lat="39.2219855" lon="16.8215774"><ele>220.0</ele><time>2026-03-28T12:08:32.638Z</time></trkpt><trkpt lat="39.2219139" lon="16.8217045"><ele>220.0</ele><time>2026-03-28T12:08:33.645Z</time></trkpt><trkpt lat="39.221854" lon="16.8218209"><ele>220.0</ele><time>2026-03-28T12:08:34.638Z</time></trkpt><trkpt lat="39.2217982" lon="16.8219227"><ele>220.0</ele><time>2026-03-28T12:08:35.64Z</time></trkpt><trkpt lat="39.2217472" lon="16.8220155"><ele>220.0</ele><time>2026-03-28T12:08:36.652Z</time></trkpt><trkpt lat="39.2216988" lon="16.8221054"><ele>219.16666666666666</ele><time>2026-03-28T12:08:37.64Z</time></trkpt><trkpt lat="39.2216522" lon="16.8221945"><ele>218.33333333333331</ele><time>2026-03-28T12:08:38.643Z</time></trkpt><trkpt lat="39.221605" lon="16.8222827"><ele>217.5</ele><time>2026-03-28T12:08:39.646Z</time></trkpt><trkpt lat="39.2215548" lon="16.8223681"><ele>216.66666666666669</ele><time>2026-03-28T12:08:40.651Z</time></trkpt><trkpt lat="39.2214975" lon="16.8224487"><ele>215.83333333333334</ele><time>2026-03-28T12:08:41.653Z</time></trkpt><trkpt lat="39.2214295" lon="16.8225221"><ele>215.0</ele><time>2026-03-28T12:08:42.639Z</time></trkpt><trkpt lat="39.2213515" lon="16.8225849"><ele>215.0</ele><time>2026-03-28T12:08:43.654Z</time></trkpt><trkpt lat="39.2212644" lon="16.8226392"><ele>215.0</ele><time>2026-03-28T12:08:44.643Z</time></trkpt><trkpt lat="39.2211651" lon="16.8226906"><ele>215.0</ele><time>2026-03-28T12:08:45.646Z</time></trkpt><trkpt lat="39.2210621" lon="16.8227389"><ele>215.0</ele><time>2026-03-28T12:08:46.645Z</time></trkpt><trkpt lat="39.2209604" lon="16.8227881"><ele>215.0</ele><time>2026-03-28T12:08:47.651Z</time></trkpt><trkpt lat="39.2208608" lon="16.8228337"><ele>212.4</ele><time>2026-03-28T12:08:48.646Z</time></trkpt><trkpt lat="39.2207671" lon="16.8228767"><ele>209.8</ele><time>2026-03-28T12:08:49.651Z</time></trkpt><trkpt lat="39.2206755" lon="16.8229192"><ele>207.2</ele><time>2026-03-28T12:08:50.644Z</time></trkpt><trkpt lat="39.2205816" lon="16.8229619"><ele>204.6</ele><time>2026-03-28T12:08:51.647Z</time></trkpt><trkpt lat="39.220486" lon="16.8230042"><ele>202.0</ele><time>2026-03-28T12:08:52.667Z</time></trkpt><trkpt lat="39.220398" lon="16.8230442"><ele>201.49999999999997</ele><time>2026-03-28T12:08:53.647Z</time></trkpt><trkpt lat="39.2203249" lon="16.823079"><ele>201.0</ele><time>2026-03-28T12:08:54.653Z</time></trkpt><trkpt lat="39.2202566" lon="16.8231115"><ele>200.5</ele><time>2026-03-28T12:08:55.643Z</time></trkpt><trkpt lat="39.2201976" lon="16.8231475"><ele>200.0</ele><time>2026-03-28T12:08:56.646Z</time></trkpt><trkpt lat="39.2201123" lon="16.8232431"><ele>199.49999999999997</ele><time>2026-03-28T12:08:58.652Z</time></trkpt><trkpt lat="39.2201069" lon="16.8233717"><ele>199.0</ele><time>2026-03-28T12:09:00.649Z</time></trkpt><trkpt lat="39.2201944" lon="16.823476"><ele>197.85714285714283</ele><time>2026-03-28T12:09:02.647Z</time></trkpt><trkpt lat="39.2202641" lon="16.8234948"><ele>196.71428571428572</ele><time>2026-03-28T12:09:03.643Z</time></trkpt><trkpt lat="39.2203384" lon="16.8234949"><ele>195.57142857142856</ele><time>2026-03-28T12:09:04.647Z</time></trkpt><trkpt lat="39.2204075" lon="16.8235072"><ele>194.42857142857142</ele><time>2026-03-28T12:09:05.654Z</time></trkpt><trkpt lat="39.2204695" lon="16.8235497"><ele>193.28571428571428</ele><time>2026-03-28T12:09:06.661Z</time></trkpt><trkpt lat="39.2205274" lon="16.823621"><ele>192.14285714285714</ele><time>2026-03-28T12:09:07.658Z</time></trkpt><trkpt lat="39.2205807" lon="16.8236866"><ele>191.0</ele><time>2026-03-28T12:09:08.652Z</time></trkpt><trkpt lat="39.2206409" lon="16.8237224"><ele>191.20000000000002</ele><time>2026-03-28T12:09:09.646Z</time></trkpt><trkpt lat="39.2207095" lon="16.8237319"><ele>191.4</ele><time>2026-03-28T12:09:10.64Z</time></trkpt><trkpt lat="39.2207794" lon="16.8237297"><ele>191.6</ele><time>2026-03-28T12:09:11.647Z</time></trkpt><trkpt lat="39.2208827" lon="16.8237863"><ele>191.8</ele><time>2026-03-28T12:09:13.654Z</time></trkpt><trkpt lat="39.2208899" lon="16.8239481"><ele>192.0</ele><time>2026-03-28T12:09:15.653Z</time></trkpt><trkpt lat="39.2208689" lon="16.8240477"><ele>192.0</ele><time>2026-03-28T12:09:16.653Z</time></trkpt><trkpt lat="39.2208613" lon="16.824153"><ele>192.0</ele><time>2026-03-28T12:09:17.644Z</time></trkpt><trkpt lat="39.220875" lon="16.8242486"><ele>192.0</ele><time>2026-03-28T12:09:18.644Z</time></trkpt><trkpt lat="39.2209086" lon="16.8243289"><ele>192.0</ele><time>2026-03-28T12:09:19.653Z</time></trkpt><trkpt lat="39.2209594" lon="16.8243849"><ele>192.0</ele><time>2026-03-28T12:09:20.651Z</time></trkpt><trkpt lat="39.2210282" lon="16.8244198"><ele>192.0</ele><time>2026-03-28T12:09:21.642Z</time></trkpt><trkpt lat="39.2211189" lon="16.8244428"><ele>190.0</ele><time>2026-03-28T12:09:22.652Z</time></trkpt><trkpt lat="39.2212249" lon="16.8244589"><ele>188.0</ele><time>2026-03-28T12:09:23.654Z</time></trkpt><trkpt lat="39.2213246" lon="16.8244725"><ele>186.0</ele><time>2026-03-28T12:09:24.641Z</time></trkpt><trkpt lat="39.2214163" lon="16.8244757"><ele>184.0</ele><time>2026-03-28T12:09:25.648Z</time></trkpt><trkpt lat="39.2215015" lon="16.8244578"><ele>182.0</ele><time>2026-03-28T12:09:26.641Z</time></trkpt><trkpt lat="39.2215884" lon="16.8244159"><ele>182.0</ele><time>2026-03-28T12:09:27.642Z</time></trkpt><trkpt lat="39.2216736" lon="16.824359"><ele>182.0</ele><time>2026-03-28T12:09:28.66Z</time></trkpt><trkpt lat="39.2217561" lon="16.8243065"><ele>182.0</ele><time>2026-03-28T12:09:29.643Z</time></trkpt><trkpt lat="39.2218268" lon="16.824268"><ele>182.0</ele><time>2026-03-28T12:09:30.652Z</time></trkpt><trkpt lat="39.221891" lon="16.8242595"><ele>182.0</ele><time>2026-03-28T12:09:31.637Z</time></trkpt><trkpt lat="39.2219818" lon="16.8243442"><ele>182.0</ele><time>2026-03-28T12:09:33.646Z</time></trkpt><trkpt lat="39.2219801" lon="16.8244906"><ele>182.0</ele><time>2026-03-28T12:09:35.64Z</time></trkpt><trkpt lat="39.2219346" lon="16.8245633"><ele>182.0</ele><time>2026-03-28T12:09:36.644Z</time></trkpt><trkpt lat="39.2218614" lon="16.824654"><ele>182.0</ele><time>2026-03-28T12:09:37.646Z</time></trkpt><trkpt lat="39.2217742" lon="16.8247784"><ele>182.0</ele><time>2026-03-28T12:09:38.64Z</time></trkpt><trkpt lat="39.2216844" lon="16.8249242"><ele>182.0</ele><time>2026-03-28T12:09:39.651Z</time></trkpt><trkpt lat="39.2216034" lon="16.8250607"><ele>182.33333333333331</ele><time>2026-03-28T12:09:40.65Z</time></trkpt><trkpt lat="39.2215402" lon="16.8251696"><ele>182.66666666666666</ele><time>2026-03-28T12:09:41.647Z</time></trkpt><trkpt lat="39.2214881" lon="16.8252603"><ele>183.0</ele><time>2026-03-28T12:09:42.653Z</time></trkpt><trkpt lat="39.2214446" lon="16.825338"><ele>183.33333333333334</ele><time>2026-03-28T12:09:43.652Z</time></trkpt><trkpt lat="39.2214082" lon="16.8254057"><ele>183.66666666666669</ele><time>2026-03-28T12:09:44.651Z</time></trkpt><trkpt lat="39.2213306" lon="16.8255204"><ele>184.0</ele><time>2026-03-28T12:09:46.644Z</time></trkpt><trkpt lat="39.2212483" lon="16.8256034"><ele>183.33333333333334</ele><time>2026-03-28T12:09:48.646Z</time></trkpt><trkpt lat="39.2211544" lon="16.8256937"><ele>182.66666666666669</ele><time>2026-03-28T12:09:50.643Z</time></trkpt><trkpt lat="39.2210564" lon="16.8257989"><ele>182.0</ele><time>2026-03-28T12:09:52.643Z</time></trkpt><trkpt lat="39.2210071" lon="16.8258544"><ele>181.33333333333334</ele><time>2026-03-28T12:09:53.642Z</time></trkpt><trkpt lat="39.2209547" lon="16.8259051"><ele>180.66666666666666</ele><time>2026-03-28T12:09:54.646Z</time></trkpt><trkpt lat="39.2208986" lon="16.8259513"><ele>180.0</ele><time>2026-03-28T12:09:55.643Z</time></trkpt><trkpt lat="39.2208433" lon="16.8259965"><ele>180.0</ele><time>2026-03-28T12:09:56.649Z</time></trkpt><trkpt lat="39.2207843" lon="16.8260285"><ele>180.0</ele><time>2026-03-28T12:09:57.654Z</time></trkpt><trkpt lat="39.2207205" lon="16.8260522"><ele>180.0</ele><time>2026-03-28T12:09:58.641Z</time></trkpt><trkpt lat="39.2206498" lon="16.8260696"><ele>180.0</ele><time>2026-03-28T12:09:59.649Z</time></trkpt><trkpt lat="39.2205784" lon="16.8260808"><ele>180.0</ele><time>2026-03-28T12:10:00.643Z</time></trkpt><trkpt lat="39.2205105" lon="16.8260673"><ele>180.0</ele><time>2026-03-28T12:10:01.645Z</time></trkpt><trkpt lat="39.2204512" lon="16.8260212"><ele>180.0</ele><time>2026-03-28T12:10:02.651Z</time></trkpt><trkpt lat="39.2203917" lon="16.8259444"><ele>179.66666666666666</ele><time>2026-03-28T12:10:03.642Z</time></trkpt><trkpt lat="39.2203321" lon="16.8258757"><ele>179.33333333333334</ele><time>2026-03-28T12:10:04.647Z</time></trkpt><trkpt lat="39.2202666" lon="16.8258424"><ele>179.0</ele><time>2026-03-28T12:10:05.645Z</time></trkpt><trkpt lat="39.2201955" lon="16.8258517"><ele>178.66666666666669</ele><time>2026-03-28T12:10:06.645Z</time></trkpt><trkpt lat="39.2201205" lon="16.8258986"><ele>178.33333333333334</ele><time>2026-03-28T12:10:07.654Z</time></trkpt><trkpt lat="39.2200453" lon="16.8259697"><ele>178.0</ele><time>2026-03-28T12:10:08.648Z</time></trkpt><trkpt lat="39.2199751" lon="16.8260331"><ele>178.0</ele><time>2026-03-28T12:10:09.64Z</time></trkpt><trkpt lat="39.2199091" lon="16.8260827"><ele>178.0</ele><time>2026-03-28T12:10:10.644Z</time></trkpt><trkpt lat="39.2198403" lon="16.8261001"><ele>178.0</ele><time>2026-03-28T12:10:11.64Z</time></trkpt><trkpt lat="39.2197735" lon="16.8260815"><ele>178.0</ele><time>2026-03-28T12:10:12.64Z</time></trkpt><trkpt lat="39.2197034" lon="16.8260393"><ele>178.0</ele><time>2026-03-28T12:10:13.638Z</time></trkpt><trkpt lat="39.2196286" lon="16.8259804"><ele>178.0</ele><time>2026-03-28T12:10:14.641Z</time></trkpt><trkpt lat="39.2195447" lon="16.8259174"><ele>177.16666666666669</ele><time>2026-03-28T12:10:15.653Z</time></trkpt><trkpt lat="39.2194633" lon="16.8258599"><ele>176.33333333333334</ele><time>2026-03-28T12:10:16.644Z</time></trkpt><trkpt lat="39.2193848" lon="16.8258202"><ele>175.5</ele><time>2026-03-28T12:10:17.64Z</time></trkpt><trkpt lat="39.2193055" lon="16.8258073"><ele>174.66666666666666</ele><time>2026-03-28T12:10:18.638Z</time></trkpt><trkpt lat="39.219225" lon="16.8258219"><ele>173.83333333333331</ele><time>2026-03-28T12:10:19.65Z</time></trkpt><trkpt lat="39.2191439" lon="16.8258603"><ele>173.0</ele><time>2026-03-28T12:10:20.651Z</time></trkpt><trkpt lat="39.2190618" lon="16.8259219"><ele>172.2</ele><time>2026-03-28T12:10:21.647Z</time></trkpt><trkpt lat="39.2189816" lon="16.8259945"><ele>171.4</ele><time>2026-03-28T12:10:22.644Z</time></trkpt><trkpt lat="39.2189089" lon="16.8260682"><ele>170.6</ele><time>2026-03-28T12:10:23.651Z</time></trkpt><trkpt lat="39.218843" lon="16.8261444"><ele>169.79999999999998</ele><time>2026-03-28T12:10:24.658Z</time></trkpt><trkpt lat="39.2187797" lon="16.8262174"><ele>169.0</ele><time>2026-03-28T12:10:25.646Z</time></trkpt><trkpt lat="39.2187096" lon="16.8262919"><ele>169.0</ele><time>2026-03-28T12:10:26.655Z</time></trkpt><trkpt lat="39.2186365" lon="16.8263669"><ele>169.0</ele><time>2026-03-28T12:10:27.646Z</time></trkpt><trkpt lat="39.2185673" lon="16.8264422"><ele>169.0</ele><time>2026-03-28T12:10:28.64Z</time></trkpt><trkpt lat="39.2184999" lon="16.8265146"><ele>169.0</ele><time>2026-03-28T12:10:29.643Z</time></trkpt><trkpt lat="39.2184335" lon="16.826582"><ele>169.0</ele><time>2026-03-28T12:10:30.645Z</time></trkpt><trkpt lat="39.2183717" lon="16.826645"><ele>169.0</ele><time>2026-03-28T12:10:31.647Z</time></trkpt><trkpt lat="39.2183156" lon="16.8267058"><ele>169.0</ele><time>2026-03-28T12:10:32.648Z</time></trkpt><trkpt lat="39.2182609" lon="16.8267674"><ele>169.0</ele><time>2026-03-28T12:10:33.649Z</time></trkpt><trkpt lat="39.2182138" lon="16.8268271"><ele>169.0</ele><time>2026-03-28T12:10:34.644Z</time></trkpt><trkpt lat="39.2181578" lon="16.826949"><ele>169.0</ele><time>2026-03-28T12:10:36.645Z</time></trkpt><trkpt lat="39.2181624" lon="16.827089"><ele>169.0</ele><time>2026-03-28T12:10:38.646Z</time></trkpt><trkpt lat="39.2181895" lon="16.8271681"><ele>169.0</ele><time>2026-03-28T12:10:39.641Z</time></trkpt><trkpt lat="39.2182293" lon="16.8272528"><ele>168.0</ele><time>2026-03-28T12:10:40.647Z</time></trkpt><trkpt lat="39.2182807" lon="16.8273401"><ele>167.0</ele><time>2026-03-28T12:10:41.64Z</time></trkpt><trkpt lat="39.2183388" lon="16.8274324"><ele>166.0</ele><time>2026-03-28T12:10:42.642Z</time></trkpt><trkpt lat="39.2183977" lon="16.8275255"><ele>165.0</ele><time>2026-03-28T12:10:43.649Z</time></trkpt><trkpt lat="39.2184536" lon="16.8276138"><ele>164.0</ele><time>2026-03-28T12:10:44.643Z</time></trkpt><trkpt lat="39.2184972" lon="16.8277004"><ele>163.0</ele><time>2026-03-28T12:10:45.643Z</time></trkpt><trkpt lat="39.2185248" lon="16.8277884"><ele>161.83333333333334</ele><time>2026-03-28T12:10:46.644Z</time></trkpt><trkpt lat="39.2185377" lon="16.827885"><ele>160.66666666666669</ele><time>2026-03-28T12:10:47.647Z</time></trkpt><trkpt lat="39.2185399" lon="16.8279849"><ele>159.5</ele><time>2026-03-28T12:10:48.641Z</time></trkpt><trkpt lat="39.218544" lon="16.8280853"><ele>158.33333333333334</ele><time>2026-03-28T12:10:49.651Z</time></trkpt><trkpt lat="39.2185545" lon="16.8281835"><ele>157.16666666666666</ele><time>2026-03-28T12:10:50.643Z</time></trkpt><trkpt lat="39.2185773" lon="16.8282786"><ele>156.0</ele><time>2026-03-28T12:10:51.656Z</time></trkpt><trkpt lat="39.2186161" lon="16.82837"><ele>156.0</ele><time>2026-03-28T12:10:52.687Z</time></trkpt><trkpt lat="39.2186645" lon="16.8284566"><ele>156.0</ele><time>2026-03-28T12:10:53.646Z</time></trkpt><trkpt lat="39.2187149" lon="16.8285431"><ele>156.0</ele><time>2026-03-28T12:10:54.643Z</time></trkpt><trkpt lat="39.2187721" lon="16.8286294"><ele>156.0</ele><time>2026-03-28T12:10:55.647Z</time></trkpt><trkpt lat="39.2188423" lon="16.8287175"><ele>156.0</ele><time>2026-03-28T12:10:56.642Z</time></trkpt><trkpt lat="39.2189215" lon="16.8287996"><ele>155.4</ele><time>2026-03-28T12:10:57.642Z</time></trkpt><trkpt lat="39.2190028" lon="16.8288736"><ele>154.8</ele><time>2026-03-28T12:10:58.639Z</time></trkpt><trkpt lat="39.2190794" lon="16.8289457"><ele>154.20000000000002</ele><time>2026-03-28T12:10:59.644Z</time></trkpt><trkpt lat="39.219152" lon="16.8290177"><ele>153.6</ele><time>2026-03-28T12:11:00.648Z</time></trkpt><trkpt lat="39.2192198" lon="16.829092"><ele>153.0</ele><time>2026-03-28T12:11:01.646Z</time></trkpt><trkpt lat="39.2192759" lon="16.8291662"><ele>153.0</ele><time>2026-03-28T12:11:02.648Z</time></trkpt><trkpt lat="39.2193223" lon="16.8292499"><ele>153.0</ele><time>2026-03-28T12:11:03.646Z</time></trkpt><trkpt lat="39.2193616" lon="16.8293391"><ele>153.0</ele><time>2026-03-28T12:11:04.637Z</time></trkpt><trkpt lat="39.2193978" lon="16.8294297"><ele>153.0</ele><time>2026-03-28T12:11:05.65Z</time></trkpt><trkpt lat="39.2194407" lon="16.8295131"><ele>153.0</ele><time>2026-03-28T12:11:06.645Z</time></trkpt><trkpt lat="39.219494" lon="16.8295828"><ele>153.0</ele><time>2026-03-28T12:11:07.647Z</time></trkpt><trkpt lat="39.2195569" lon="16.8296375"><ele>151.8</ele><time>2026-03-28T12:11:08.647Z</time></trkpt><trkpt lat="39.2196142" lon="16.8296867"><ele>150.60000000000002</ele><time>2026-03-28T12:11:09.641Z</time></trkpt><trkpt lat="39.2196718" lon="16.8298043"><ele>149.39999999999998</ele><time>2026-03-28T12:11:11.647Z</time></trkpt><trkpt lat="39.2196721" lon="16.8299369"><ele>148.2</ele><time>2026-03-28T12:11:13.642Z</time></trkpt><trkpt lat="39.2195939" lon="16.8300685"><ele>147.0</ele><time>2026-03-28T12:11:15.648Z</time></trkpt><trkpt lat="39.2195291" lon="16.8301252"><ele>146.6</ele><time>2026-03-28T12:11:16.65Z</time></trkpt><trkpt lat="39.2194476" lon="16.8301779"><ele>146.2</ele><time>2026-03-28T12:11:17.648Z</time></trkpt><trkpt lat="39.2193551" lon="16.8302322"><ele>145.8</ele><time>2026-03-28T12:11:18.65Z</time></trkpt><trkpt lat="39.2192671" lon="16.8302917"><ele>145.4</ele><time>2026-03-28T12:11:19.653Z</time></trkpt><trkpt lat="39.2191958" lon="16.830351"><ele>145.0</ele><time>2026-03-28T12:11:20.653Z</time></trkpt><trkpt lat="39.219144" lon="16.8304191"><ele>145.0</ele><time>2026-03-28T12:11:21.652Z</time></trkpt><trkpt lat="39.2191009" lon="16.8305005"><ele>145.0</ele><time>2026-03-28T12:11:22.639Z</time></trkpt><trkpt lat="39.2190577" lon="16.8305863"><ele>145.0</ele><time>2026-03-28T12:11:23.651Z</time></trkpt><trkpt lat="39.2190195" lon="16.8306675"><ele>145.0</ele><time>2026-03-28T12:11:24.645Z</time></trkpt><trkpt lat="39.2189858" lon="16.8307375"><ele>145.0</ele><time>2026-03-28T12:11:25.643Z</time></trkpt><trkpt lat="39.218925" lon="16.8308514"><ele>145.0</ele><time>2026-03-28T12:11:27.641Z</time></trkpt><trkpt lat="39.2188922" lon="16.8309475"><ele>144.0</ele><time>2026-03-28T12:11:29.641Z</time></trkpt><trkpt lat="39.218861" lon="16.8310529"><ele>143.0</ele><time>2026-03-28T12:11:32.647Z</time></trkpt><trkpt lat="39.2188428" lon="16.8311562"><ele>142.0</ele><time>2026-03-28T12:11:36.642Z</time></trkpt><trkpt lat="39.2188334" lon="16.8312409"><ele>141.0</ele><time>2026-03-28T12:11:39.641Z</time></trkpt><trkpt lat="39.2188096" lon="16.8313331"><ele>140.0</ele><time>2026-03-28T12:11:41.649Z</time></trkpt><trkpt lat="39.2187836" lon="16.8314241"><ele>139.0</ele><time>2026-03-28T12:11:43.643Z</time></trkpt><trkpt lat="39.2187526" lon="16.8315097"><ele>139.0</ele><time>2026-03-28T12:11:45.652Z</time></trkpt><trkpt lat="39.218718" lon="16.8315994"><ele>139.0</ele><time>2026-03-28T12:11:48.646Z</time></trkpt><trkpt lat="39.2186917" lon="16.8316779"><ele>139.0</ele><time>2026-03-28T12:11:50.649Z</time></trkpt><trkpt lat="39.2186647" lon="16.8317652"><ele>139.0</ele><time>2026-03-28T12:11:52.644Z</time></trkpt><trkpt lat="39.218631" lon="16.831849"><ele>139.0</ele><time>2026-03-28T12:11:54.641Z</time></trkpt><trkpt lat="39.2185982" lon="16.8319201"><ele>139.0</ele><time>2026-03-28T12:11:56.647Z</time></trkpt><trkpt lat="39.2185524" lon="16.8320155"><ele>139.0</ele><time>2026-03-28T12:11:59.643Z</time></trkpt><trkpt lat="39.2185082" lon="16.8320824"><ele>139.14285714285714</ele><time>2026-03-28T12:12:03.642Z</time></trkpt><trkpt lat="39.2184544" lon="16.8321465"><ele>139.28571428571428</ele><time>2026-03-28T12:12:08.656Z</time></trkpt><trkpt lat="39.2184003" lon="16.8322018"><ele>139.42857142857144</ele><time>2026-03-28T12:12:16.641Z</time></trkpt><trkpt lat="39.2183442" lon="16.8322511"><ele>139.57142857142856</ele><time>2026-03-28T12:12:20.65Z</time></trkpt><trkpt lat="39.2182833" lon="16.8323065"><ele>139.71428571428572</ele><time>2026-03-28T12:12:24.639Z</time></trkpt><trkpt lat="39.2182258" lon="16.8323631"><ele>139.85714285714286</ele><time>2026-03-28T12:12:27.651Z</time></trkpt><trkpt lat="39.2181723" lon="16.8324118"><ele>140.0</ele><time>2026-03-28T12:12:31.643Z</time></trkpt><trkpt lat="39.2181281" lon="16.8324721"><ele>140.0</ele><time>2026-03-28T12:12:35.649Z</time></trkpt><trkpt lat="39.2181135" lon="16.8325522"><ele>140.0</ele><time>2026-03-28T12:12:39.642Z</time></trkpt><trkpt lat="39.2181067" lon="16.8326492"><ele>140.0</ele><time>2026-03-28T12:12:45.646Z</time></trkpt><trkpt lat="39.2181243" lon="16.8327445"><ele>140.0</ele><time>2026-03-28T12:12:51.643Z</time></trkpt><trkpt lat="39.2181448" lon="16.8328251"><ele>140.0</ele><time>2026-03-28T12:13:02.68Z</time></trkpt><trkpt lat="39.2181417" lon="16.8329258"><ele>140.0</ele><time>2026-03-28T12:13:13.646Z</time></trkpt><trkpt lat="39.2181048" lon="16.8330023"><ele>140.0</ele><time>2026-03-28T12:13:31.653Z</time></trkpt><trkpt lat="39.2180879" lon="16.8330854"><ele>140.0</ele><time>2026-03-28T12:13:36.639Z</time></trkpt><trkpt lat="39.2180599" lon="16.8331829"><ele>140.0</ele><time>2026-03-28T12:13:40.646Z</time></trkpt><trkpt lat="39.2180349" lon="16.8332591"><ele>140.0</ele><time>2026-03-28T12:14:05.655Z</time></trkpt><trkpt lat="39.2179916" lon="16.8333582"><ele>140.0</ele><time>2026-03-28T12:14:09.641Z</time></trkpt><trkpt lat="39.2179698" lon="16.8334433"><ele>140.0</ele><time>2026-03-28T12:14:12.639Z</time></trkpt><trkpt lat="39.217973" lon="16.8335448"><ele>140.0</ele><time>2026-03-28T12:14:16.647Z</time></trkpt><trkpt lat="39.2179888" lon="16.8336422"><ele>139.5</ele><time>2026-03-28T12:14:20.646Z</time></trkpt><trkpt lat="39.2179913" lon="16.8337546"><ele>139.0</ele><time>2026-03-28T12:14:23.646Z</time></trkpt><trkpt lat="39.2179705" lon="16.8338632"><ele>138.5</ele><time>2026-03-28T12:14:26.65Z</time></trkpt><trkpt lat="39.2179126" lon="16.8339429"><ele>138.0</ele><time>2026-03-28T12:14:29.662Z</time></trkpt><trkpt lat="39.2178466" lon="16.8340042"><ele>137.5</ele><time>2026-03-28T12:14:31.646Z</time></trkpt><trkpt lat="39.2177956" lon="16.8340641"><ele>137.0</ele><time>2026-03-28T12:14:33.649Z</time></trkpt><trkpt lat="39.2177712" lon="16.8341482"><ele>137.0</ele><time>2026-03-28T12:14:36.644Z</time></trkpt><trkpt lat="39.2177727" lon="16.8342295"><ele>137.0</ele><time>2026-03-28T12:14:45.648Z</time></trkpt><trkpt lat="39.2177857" lon="16.8343332"><ele>137.0</ele><time>2026-03-28T12:15:27.645Z</time></trkpt><trkpt lat="39.2178009" lon="16.8344345"><ele>137.0</ele><time>2026-03-28T12:15:29.649Z</time></trkpt><trkpt lat="39.2178316" lon="16.8345674"><ele>137.0</ele><time>2026-03-28T12:15:31.654Z</time></trkpt><trkpt lat="39.2178624" lon="16.8347185"><ele>136.83333333333331</ele><time>2026-03-28T12:15:33.653Z</time></trkpt><trkpt lat="39.2178774" lon="16.834802"><ele>136.66666666666666</ele><time>2026-03-28T12:15:34.653Z</time></trkpt><trkpt lat="39.2178973" lon="16.8349381"><ele>136.5</ele><time>2026-03-28T12:15:36.644Z</time></trkpt><trkpt lat="39.2179096" lon="16.835035"><ele>136.33333333333334</ele><time>2026-03-28T12:15:38.654Z</time></trkpt><trkpt lat="39.217891" lon="16.8351538"><ele>136.16666666666669</ele><time>2026-03-28T12:15:41.646Z</time></trkpt><trkpt lat="39.2178679" lon="16.83524"><ele>136.0</ele><time>2026-03-28T12:15:43.642Z</time></trkpt><trkpt lat="39.217841" lon="16.8353278"><ele>135.83333333333334</ele><time>2026-03-28T12:15:45.647Z</time></trkpt><trkpt lat="39.2178336" lon="16.83543"><ele>135.66666666666669</ele><time>2026-03-28T12:15:47.646Z</time></trkpt><trkpt lat="39.2178341" lon="16.8355415"><ele>135.5</ele><time>2026-03-28T12:15:49.643Z</time></trkpt><trkpt lat="39.2178396" lon="16.835666"><ele>135.33333333333334</ele><time>2026-03-28T12:15:51.644Z</time></trkpt><trkpt lat="39.2178441" lon="16.8357831"><ele>135.16666666666666</ele><time>2026-03-28T12:15:53.652Z</time></trkpt><trkpt lat="39.2177842" lon="16.8358595"><ele>135.0</ele><time>2026-03-28T12:15:55.649Z</time></trkpt><trkpt lat="39.2176844" lon="16.8359142"><ele>135.0</ele><time>2026-03-28T12:15:57.653Z</time></trkpt><trkpt lat="39.2176301" lon="16.8359646"><ele>135.0</ele><time>2026-03-28T12:15:58.659Z</time></trkpt><trkpt lat="39.217578" lon="16.836021"><ele>135.0</ele><time>2026-03-28T12:15:59.648Z</time></trkpt><trkpt lat="39.2175109" lon="16.8361071"><ele>135.0</ele><time>2026-03-28T12:16:01.658Z</time></trkpt><trkpt lat="39.2175057" lon="16.8362138"><ele>135.0</ele><time>2026-03-28T12:16:03.648Z</time></trkpt><trkpt lat="39.2175256" lon="16.8363363"><ele>135.0</ele><time>2026-03-28T12:16:05.648Z</time></trkpt><trkpt lat="39.217513" lon="16.836458"><ele>135.16666666666666</ele><time>2026-03-28T12:16:07.649Z</time></trkpt><trkpt lat="39.2174891" lon="16.8365712"><ele>135.33333333333334</ele><time>2026-03-28T12:16:09.643Z</time></trkpt><trkpt lat="39.2174128" lon="16.8367021"><ele>135.5</ele><time>2026-03-28T12:16:11.651Z</time></trkpt><trkpt lat="39.2173642" lon="16.8367742"><ele>135.66666666666669</ele><time>2026-03-28T12:16:12.647Z</time></trkpt><trkpt lat="39.2173199" lon="16.8368535"><ele>135.83333333333334</ele><time>2026-03-28T12:16:13.651Z</time></trkpt><trkpt lat="39.2172794" lon="16.836936"><ele>136.0</ele><time>2026-03-28T12:16:14.654Z</time></trkpt><trkpt lat="39.2172453" lon="16.8370123"><ele>138.16666666666669</ele><time>2026-03-28T12:16:15.646Z</time></trkpt><trkpt lat="39.2172181" lon="16.837095"><ele>140.33333333333334</ele><time>2026-03-28T12:16:17.648Z</time></trkpt><trkpt lat="39.2172091" lon="16.8371898"><ele>142.5</ele><time>2026-03-28T12:16:23.648Z</time></trkpt><trkpt lat="39.2172085" lon="16.8373067"><ele>144.66666666666666</ele><time>2026-03-28T12:16:26.645Z</time></trkpt><trkpt lat="39.217212" lon="16.8373896"><ele>146.83333333333331</ele><time>2026-03-28T12:16:28.654Z</time></trkpt><trkpt lat="39.2172201" lon="16.8374995"><ele>149.0</ele><time>2026-03-28T12:16:31.644Z</time></trkpt><trkpt lat="39.217244" lon="16.8375992"><ele>150.16666666666666</ele><time>2026-03-28T12:16:35.657Z</time></trkpt><trkpt lat="39.2172451" lon="16.8376846"><ele>151.33333333333331</ele><time>2026-03-28T12:16:43.651Z</time></trkpt><trkpt lat="39.2172594" lon="16.837789"><ele>152.5</ele><time>2026-03-28T12:16:47.651Z</time></trkpt><trkpt lat="39.2172938" lon="16.8378928"><ele>153.66666666666666</ele><time>2026-03-28T12:16:51.644Z</time></trkpt><trkpt lat="39.2173336" lon="16.8379659"><ele>154.83333333333334</ele><time>2026-03-28T12:16:53.642Z</time></trkpt><trkpt lat="39.2173632" lon="16.838048"><ele>156.0</ele><time>2026-03-28T12:16:55.653Z</time></trkpt><trkpt lat="39.2174025" lon="16.8381317"><ele>152.5</ele><time>2026-03-28T12:16:58.653Z</time></trkpt><trkpt lat="39.2174626" lon="16.8382134"><ele>149.0</ele><time>2026-03-28T12:17:01.643Z</time></trkpt><trkpt lat="39.2175154" lon="16.8382999"><ele>145.5</ele><time>2026-03-28T12:17:04.643Z</time></trkpt><trkpt lat="39.2175305" lon="16.8383803"><ele>142.0</ele><time>2026-03-28T12:17:06.64Z</time></trkpt><trkpt lat="39.2175937" lon="16.8384546"><ele>138.5</ele><time>2026-03-28T12:17:09.643Z</time></trkpt><trkpt lat="39.2176645" lon="16.8385015"><ele>135.0</ele><time>2026-03-28T12:17:12.653Z</time></trkpt><trkpt lat="39.2177215" lon="16.838547"><ele>135.0</ele><time>2026-03-28T12:17:15.642Z</time></trkpt><trkpt lat="39.217792" lon="16.8385894"><ele>135.0</ele><time>2026-03-28T12:17:19.642Z</time></trkpt><trkpt lat="39.2178562" lon="16.8386223"><ele>135.0</ele><time>2026-03-28T12:17:24.648Z</time></trkpt><trkpt lat="39.2179396" lon="16.8386108"><ele>135.0</ele><time>2026-03-28T12:17:29.648Z</time></trkpt><trkpt lat="39.2180024" lon="16.8386263"><ele>135.0</ele><time>2026-03-28T12:17:32.641Z</time></trkpt><trkpt lat="39.2180658" lon="16.838632"><ele>135.0</ele><time>2026-03-28T12:17:35.641Z</time></trkpt><trkpt lat="39.2181366" lon="16.8386488"><ele>135.0</ele><time>2026-03-28T12:17:43.642Z</time></trkpt><trkpt lat="39.2181865" lon="16.8387091"><ele>135.0</ele><time>2026-03-28T12:17:52.651Z</time></trkpt><trkpt lat="39.2181965" lon="16.8387962"><ele>135.0</ele><time>2026-03-28T12:17:57.649Z</time></trkpt><trkpt lat="39.2182282" lon="16.8388721"><ele>135.0</ele><time>2026-03-28T12:18:01.643Z</time></trkpt><trkpt lat="39.2182477" lon="16.8389651"><ele>135.0</ele><time>2026-03-28T12:18:06.642Z</time></trkpt><trkpt lat="39.2182419" lon="16.8390481"><ele>135.0</ele><time>2026-03-28T12:18:12.644Z</time></trkpt><trkpt lat="39.2182288" lon="16.839154"><ele>135.0</ele><time>2026-03-28T12:18:17.648Z</time></trkpt><trkpt lat="39.2182399" lon="16.8392345"><ele>135.0</ele><time>2026-03-28T12:18:20.647Z</time></trkpt><trkpt lat="39.2182274" lon="16.8393323"><ele>135.0</ele><time>2026-03-28T12:18:27.644Z</time></trkpt><trkpt lat="39.2182208" lon="16.8394158"><ele>135.0</ele><time>2026-03-28T12:18:30.648Z</time></trkpt><trkpt lat="39.21825" lon="16.8394944"><ele>135.0</ele><time>2026-03-28T12:18:34.65Z</time></trkpt><trkpt lat="39.2183104" lon="16.8395251"><ele>135.0</ele><time>2026-03-28T12:18:39.643Z</time></trkpt><trkpt lat="39.2183628" lon="16.8395756"><ele>135.0</ele><time>2026-03-28T12:18:59.659Z</time></trkpt><trkpt lat="39.2184322" lon="16.8396168"><ele>135.0</ele><time>2026-03-28T12:19:03.648Z</time></trkpt><trkpt lat="39.2184985" lon="16.8396068"><ele>135.0</ele><time>2026-03-28T12:19:09.64Z</time></trkpt><trkpt lat="39.2185527" lon="16.8396699"><ele>135.0</ele><time>2026-03-28T12:19:15.642Z</time></trkpt><trkpt lat="39.2185957" lon="16.8397357"><ele>135.0</ele><time>2026-03-28T12:19:20.64Z</time></trkpt><trkpt lat="39.2186428" lon="16.8398148"><ele>135.0</ele><time>2026-03-28T12:19:25.655Z</time></trkpt><trkpt lat="39.2186288" lon="16.839906"><ele>135.0</ele><time>2026-03-28T12:19:31.646Z</time></trkpt><trkpt lat="39.218591" lon="16.8399727"><ele>135.0</ele><time>2026-03-28T12:19:34.648Z</time></trkpt><trkpt lat="39.2185747" lon="16.8400635"><ele>135.0</ele><time>2026-03-28T12:19:36.646Z</time></trkpt><trkpt lat="39.2185826" lon="16.8401756"><ele>135.0</ele><time>2026-03-28T12:19:38.648Z</time></trkpt><trkpt lat="39.2186234" lon="16.8403065"><ele>139.0</ele><time>2026-03-28T12:19:40.64Z</time></trkpt><trkpt lat="39.2186701" lon="16.8404292"><ele>143.0</ele><time>2026-03-28T12:19:42.638Z</time></trkpt><trkpt lat="39.2187392" lon="16.8405277"><ele>147.0</ele><time>2026-03-28T12:19:44.656Z</time></trkpt><trkpt lat="39.218802" lon="16.8406058"><ele>151.0</ele><time>2026-03-28T12:19:46.643Z</time></trkpt><trkpt lat="39.2188861" lon="16.8406899"><ele>155.0</ele><time>2026-03-28T12:19:48.657Z</time></trkpt><trkpt lat="39.2189411" lon="16.8407549"><ele>154.28571428571428</ele><time>2026-03-28T12:19:50.644Z</time></trkpt><trkpt lat="39.2190101" lon="16.8408133"><ele>153.57142857142856</ele><time>2026-03-28T12:19:53.643Z</time></trkpt><trkpt lat="39.2190711" lon="16.8408409"><ele>152.85714285714283</ele><time>2026-03-28T12:19:55.646Z</time></trkpt><trkpt lat="39.2191356" lon="16.8408522"><ele>152.14285714285714</ele><time>2026-03-28T12:19:58.647Z</time></trkpt><trkpt lat="39.2192108" lon="16.8408715"><ele>151.42857142857142</ele><time>2026-03-28T12:20:02.649Z</time></trkpt><trkpt lat="39.2192556" lon="16.8409337"><ele>150.7142857142857</ele><time>2026-03-28T12:20:05.649Z</time></trkpt><trkpt lat="39.2193025" lon="16.8409955"><ele>150.0</ele><time>2026-03-28T12:20:08.647Z</time></trkpt><trkpt lat="39.2193742" lon="16.8410521"><ele>149.99999999999997</ele><time>2026-03-28T12:20:12.652Z</time></trkpt><trkpt lat="39.2194303" lon="16.8411267"><ele>150.0</ele><time>2026-03-28T12:20:16.654Z</time></trkpt><trkpt lat="39.2194792" lon="16.8411824"><ele>150.0</ele><time>2026-03-28T12:20:19.644Z</time></trkpt><trkpt lat="39.2195258" lon="16.8412591"><ele>150.0</ele><time>2026-03-28T12:20:23.652Z</time></trkpt><trkpt lat="39.2195444" lon="16.8413547"><ele>150.0</ele><time>2026-03-28T12:20:26.653Z</time></trkpt><trkpt lat="39.2195676" lon="16.8414354"><ele>149.99999999999997</ele><time>2026-03-28T12:20:28.648Z</time></trkpt><trkpt lat="39.2196096" lon="16.8415289"><ele>150.0</ele><time>2026-03-28T12:20:31.65Z</time></trkpt><trkpt lat="39.2196444" lon="16.8415996"><ele>149.99999999999997</ele><time>2026-03-28T12:20:34.657Z</time></trkpt><trkpt lat="39.2196715" lon="16.8416848"><ele>150.0</ele><time>2026-03-28T12:20:38.654Z</time></trkpt><trkpt lat="39.2197071" lon="16.8417722"><ele>150.0</ele><time>2026-03-28T12:20:42.651Z</time></trkpt><trkpt lat="39.2197493" lon="16.8418603"><ele>150.0</ele><time>2026-03-28T12:20:47.657Z</time></trkpt><trkpt lat="39.2197777" lon="16.8419379"><ele>150.0</ele><time>2026-03-28T12:20:50.641Z</time></trkpt><trkpt lat="39.2198264" lon="16.8419957"><ele>149.99999999999997</ele><time>2026-03-28T12:20:53.648Z</time></trkpt><trkpt lat="39.2198798" lon="16.8420644"><ele>150.0</ele><time>2026-03-28T12:20:56.66Z</time></trkpt><trkpt lat="39.2199338" lon="16.8421319"><ele>148.16666666666666</ele><time>2026-03-28T12:20:59.645Z</time></trkpt><trkpt lat="39.2199984" lon="16.8421932"><ele>146.33333333333334</ele><time>2026-03-28T12:21:03.647Z</time></trkpt><trkpt lat="39.220051" lon="16.8422475"><ele>144.5</ele><time>2026-03-28T12:21:07.652Z</time></trkpt><trkpt lat="39.2201316" lon="16.8422528"><ele>142.66666666666669</ele><time>2026-03-28T12:21:11.654Z</time></trkpt><trkpt lat="39.2201978" lon="16.8422617"><ele>140.83333333333334</ele><time>2026-03-28T12:21:14.654Z</time></trkpt><trkpt lat="39.2202602" lon="16.8422921"><ele>139.0</ele><time>2026-03-28T12:21:16.651Z</time></trkpt><trkpt lat="39.2203381" lon="16.8423452"><ele>139.0</ele><time>2026-03-28T12:21:19.648Z</time></trkpt><trkpt lat="39.2203996" lon="16.8423825"><ele>139.0</ele><time>2026-03-28T12:21:21.652Z</time></trkpt><trkpt lat="39.220452" lon="16.8424467"><ele>139.0</ele><time>2026-03-28T12:21:24.656Z</time></trkpt><trkpt lat="39.220497" lon="16.8425077"><ele>139.0</ele><time>2026-03-28T12:21:38.66Z</time></trkpt><trkpt lat="39.2205446" lon="16.8425768"><ele>139.0</ele><time>2026-03-28T12:21:48.645Z</time></trkpt><trkpt lat="39.2205752" lon="16.8426505"><ele>139.0</ele><time>2026-03-28T12:21:53.643Z</time></trkpt><trkpt lat="39.2206133" lon="16.8427359"><ele>139.0</ele><time>2026-03-28T12:22:01.647Z</time></trkpt><trkpt lat="39.22065" lon="16.8428098"><ele>139.14285714285714</ele><time>2026-03-28T12:22:04.645Z</time></trkpt><trkpt lat="39.2206845" lon="16.8428818"><ele>139.28571428571428</ele><time>2026-03-28T12:22:07.65Z</time></trkpt><trkpt lat="39.2207358" lon="16.8429613"><ele>139.42857142857144</ele><time>2026-03-28T12:22:11.649Z</time></trkpt><trkpt lat="39.2207387" lon="16.8430428"><ele>139.57142857142856</ele><time>2026-03-28T12:22:17.646Z</time></trkpt><trkpt lat="39.2207087" lon="16.8431297"><ele>139.71428571428572</ele><time>2026-03-28T12:22:31.646Z</time></trkpt><trkpt lat="39.2207063" lon="16.8432133"><ele>139.85714285714286</ele><time>2026-03-28T12:23:26.653Z</time></trkpt><trkpt lat="39.22068" lon="16.8433223"><ele>140.0</ele><time>2026-03-28T12:24:33.647Z</time></trkpt><trkpt lat="39.2206922" lon="16.8434062"><ele>138.42857142857142</ele><time>2026-03-28T12:26:51.632Z</time></trkpt><trkpt lat="39.2206914" lon="16.8434958"><ele>136.85714285714286</ele><time>2026-03-28T12:26:56.653Z</time></trkpt><trkpt lat="39.2206838" lon="16.8435834"><ele>135.28571428571428</ele><time>2026-03-28T12:26:59.645Z</time></trkpt><trkpt lat="39.220671" lon="16.8436704"><ele>133.71428571428572</ele><time>2026-03-28T12:27:03.656Z</time></trkpt><trkpt lat="39.2206545" lon="16.8437523"><ele>132.14285714285714</ele><time>2026-03-28T12:27:09.646Z</time></trkpt><trkpt lat="39.2207166" lon="16.8437898"><ele>130.57142857142856</ele><time>2026-03-28T12:27:17.648Z</time></trkpt><trkpt lat="39.2207686" lon="16.843859"><ele>129.0</ele><time>2026-03-28T12:27:21.646Z</time></trkpt><trkpt lat="39.220808" lon="16.8439227"><ele>129.0</ele><time>2026-03-28T12:27:24.647Z</time></trkpt><trkpt lat="39.2208239" lon="16.844007"><ele>129.0</ele><time>2026-03-28T12:27:29.647Z</time></trkpt><trkpt lat="39.2208341" lon="16.844092"><ele>129.0</ele><time>2026-03-28T12:27:33.643Z</time></trkpt><trkpt lat="39.2208398" lon="16.8441861"><ele>129.0</ele><time>2026-03-28T12:27:36.649Z</time></trkpt><trkpt lat="39.2208635" lon="16.8442801"><ele>129.0</ele><time>2026-03-28T12:27:39.644Z</time></trkpt><trkpt lat="39.22091" lon="16.8443805"><ele>129.0</ele><time>2026-03-28T12:27:43.643Z</time></trkpt><trkpt lat="39.2209196" lon="16.8444824"><ele>129.66666666666666</ele><time>2026-03-28T12:27:46.721Z</time></trkpt><trkpt lat="39.220926" lon="16.8445641"><ele>130.33333333333334</ele><time>2026-03-28T12:27:49.681Z</time></trkpt><trkpt lat="39.2209268" lon="16.8446731"><ele>131.0</ele><time>2026-03-28T12:27:53.635Z</time></trkpt><trkpt lat="39.220935" lon="16.8447636"><ele>131.66666666666669</ele><time>2026-03-28T12:27:56.696Z</time></trkpt><trkpt lat="39.2210089" lon="16.8448187"><ele>132.33333333333334</ele><time>2026-03-28T12:28:00.683Z</time></trkpt><trkpt lat="39.2210753" lon="16.8448472"><ele>133.0</ele><time>2026-03-28T12:28:03.656Z</time></trkpt><trkpt lat="39.2211578" lon="16.8448734"><ele>133.0</ele><time>2026-03-28T12:28:07.645Z</time></trkpt><trkpt lat="39.2212264" lon="16.8448676"><ele>133.0</ele><time>2026-03-28T12:28:10.651Z</time></trkpt><trkpt lat="39.2212917" lon="16.8448735"><ele>133.0</ele><time>2026-03-28T12:28:13.647Z</time></trkpt><trkpt lat="39.2213683" lon="16.8449153"><ele>133.0</ele><time>2026-03-28T12:28:16.645Z</time></trkpt><trkpt lat="39.2214259" lon="16.8449901"><ele>133.0</ele><time>2026-03-28T12:28:19.648Z</time></trkpt><trkpt lat="39.2214699" lon="16.8450656"><ele>133.0</ele><time>2026-03-28T12:28:22.651Z</time></trkpt><trkpt lat="39.2215472" lon="16.8450785"><ele>132.33333333333334</ele><time>2026-03-28T12:28:26.654Z</time></trkpt><trkpt lat="39.2216172" lon="16.8450167"><ele>131.66666666666669</ele><time>2026-03-28T12:28:29.643Z</time></trkpt><trkpt lat="39.2217093" lon="16.8449951"><ele>131.0</ele><time>2026-03-28T12:28:32.652Z</time></trkpt><trkpt lat="39.2217839" lon="16.8450149"><ele>130.33333333333334</ele><time>2026-03-28T12:28:34.649Z</time></trkpt><trkpt lat="39.2218542" lon="16.8450611"><ele>129.66666666666666</ele><time>2026-03-28T12:28:36.649Z</time></trkpt><trkpt lat="39.2219027" lon="16.8451244"><ele>129.0</ele><time>2026-03-28T12:28:38.652Z</time></trkpt><trkpt lat="39.2219555" lon="16.8451806"><ele>129.0</ele><time>2026-03-28T12:28:40.65Z</time></trkpt><trkpt lat="39.2220264" lon="16.8452463"><ele>129.0</ele><time>2026-03-28T12:28:42.651Z</time></trkpt><trkpt lat="39.2220936" lon="16.8453087"><ele>129.0</ele><time>2026-03-28T12:28:44.651Z</time></trkpt><trkpt lat="39.222169" lon="16.8453648"><ele>129.0</ele><time>2026-03-28T12:28:46.649Z</time></trkpt><trkpt lat="39.2222361" lon="16.8454122"><ele>129.0</ele><time>2026-03-28T12:28:48.646Z</time></trkpt><trkpt lat="39.2222937" lon="16.8454674"><ele>129.0</ele><time>2026-03-28T12:28:50.651Z</time></trkpt><trkpt lat="39.2223492" lon="16.8455097"><ele>128.99999999999997</ele><time>2026-03-28T12:28:52.649Z</time></trkpt><trkpt lat="39.2224373" lon="16.8455262"><ele>129.0</ele><time>2026-03-28T12:28:55.645Z</time></trkpt><trkpt lat="39.2224972" lon="16.8455708"><ele>129.0</ele><time>2026-03-28T12:28:59.649Z</time></trkpt><trkpt lat="39.2225217" lon="16.8456523"><ele>129.0</ele><time>2026-03-28T12:29:06.655Z</time></trkpt><trkpt lat="39.2225203" lon="16.8457381"><ele>129.0</ele><time>2026-03-28T12:29:11.646Z</time></trkpt><trkpt lat="39.2225473" lon="16.8458176"><ele>128.99999999999997</ele><time>2026-03-28T12:29:14.644Z</time></trkpt><trkpt lat="39.2226046" lon="16.8458667"><ele>129.0</ele><time>2026-03-28T12:29:26.643Z</time></trkpt><trkpt lat="39.2226749" lon="16.8458403"><ele>129.0</ele><time>2026-03-28T12:29:29.646Z</time></trkpt><trkpt lat="39.2227447" lon="16.845863"><ele>129.0</ele><time>2026-03-28T12:29:32.652Z</time></trkpt><trkpt lat="39.2227748" lon="16.8459359"><ele>129.0</ele><time>2026-03-28T12:29:34.652Z</time></trkpt><trkpt lat="39.2228055" lon="16.846029"><ele>129.0</ele><time>2026-03-28T12:29:36.641Z</time></trkpt><trkpt lat="39.2228809" lon="16.8461149"><ele>129.0</ele><time>2026-03-28T12:29:38.649Z</time></trkpt><trkpt lat="39.2229783" lon="16.8462094"><ele>129.0</ele><time>2026-03-28T12:29:40.647Z</time></trkpt><trkpt lat="39.2230492" lon="16.8463269"><ele>128.83333333333334</ele><time>2026-03-28T12:29:42.65Z</time></trkpt><trkpt lat="39.2230842" lon="16.8464385"><ele>128.66666666666666</ele><time>2026-03-28T12:29:44.653Z</time></trkpt><trkpt lat="39.2231109" lon="16.8465258"><ele>128.5</ele><time>2026-03-28T12:29:46.649Z</time></trkpt><trkpt lat="39.2231184" lon="16.8466288"><ele>128.33333333333331</ele><time>2026-03-28T12:29:49.648Z</time></trkpt><trkpt lat="39.2231171" lon="16.8467132"><ele>128.16666666666666</ele><time>2026-03-28T12:29:51.644Z</time></trkpt><trkpt lat="39.2230694" lon="16.8467998"><ele>128.0</ele><time>2026-03-28T12:29:54.652Z</time></trkpt><trkpt lat="39.2230378" lon="16.8468814"><ele>128.0</ele><time>2026-03-28T12:29:57.659Z</time></trkpt><trkpt lat="39.2229914" lon="16.846985"><ele>127.99999999999999</ele><time>2026-03-28T12:30:00.65Z</time></trkpt><trkpt lat="39.2229784" lon="16.8470856"><ele>128.0</ele><time>2026-03-28T12:30:03.647Z</time></trkpt><trkpt lat="39.2229646" lon="16.8471738"><ele>128.0</ele><time>2026-03-28T12:30:06.653Z</time></trkpt><trkpt lat="39.2229185" lon="16.8472339"><ele>127.99999999999999</ele><time>2026-03-28T12:30:10.657Z</time></trkpt><trkpt lat="39.2228835" lon="16.8473042"><ele>128.0</ele><time>2026-03-28T12:30:17.642Z</time></trkpt><trkpt lat="39.2228435" lon="16.8473802"><ele>128.0</ele><time>2026-03-28T12:30:22.647Z</time></trkpt><trkpt lat="39.2227822" lon="16.8474116"><ele>127.99999999999999</ele><time>2026-03-28T12:30:26.652Z</time></trkpt><trkpt lat="39.222697" lon="16.8473977"><ele>128.0</ele><time>2026-03-28T12:30:30.644Z</time></trkpt><trkpt lat="39.2226201" lon="16.8473967"><ele>128.0</ele><time>2026-03-28T12:30:33.643Z</time></trkpt><trkpt lat="39.2225457" lon="16.8474179"><ele>128.0</ele><time>2026-03-28T12:30:36.642Z</time></trkpt><trkpt lat="39.2224829" lon="16.8474682"><ele>127.99999999999999</ele><time>2026-03-28T12:30:39.652Z</time></trkpt><trkpt lat="39.2224792" lon="16.8475611"><ele>128.0</ele><time>2026-03-28T12:30:43.712Z</time></trkpt><trkpt lat="39.222547" lon="16.8476364"><ele>127.83333333333333</ele><time>2026-03-28T12:30:47.672Z</time></trkpt><trkpt lat="39.2225813" lon="16.8477248"><ele>127.66666666666666</ele><time>2026-03-28T12:30:49.665Z</time></trkpt><trkpt lat="39.2225999" lon="16.8478174"><ele>127.5</ele><time>2026-03-28T12:30:51.673Z</time></trkpt><trkpt lat="39.2226023" lon="16.8478996"><ele>127.33333333333334</ele><time>2026-03-28T12:30:53.645Z</time></trkpt><trkpt lat="39.2225797" lon="16.8479814"><ele>127.16666666666667</ele><time>2026-03-28T12:30:55.65Z</time></trkpt><trkpt lat="39.2225822" lon="16.8480936"><ele>127.0</ele><time>2026-03-28T12:30:58.644Z</time></trkpt><trkpt lat="39.2226132" lon="16.8481929"><ele>127.00000000000001</ele><time>2026-03-28T12:31:00.646Z</time></trkpt><trkpt lat="39.222648" lon="16.8482944"><ele>127.0</ele><time>2026-03-28T12:31:02.65Z</time></trkpt><trkpt lat="39.2226778" lon="16.848393"><ele>127.0</ele><time>2026-03-28T12:31:04.649Z</time></trkpt><trkpt lat="39.2226808" lon="16.8484842"><ele>127.0</ele><time>2026-03-28T12:31:06.649Z</time></trkpt><trkpt lat="39.2226983" lon="16.8485748"><ele>127.00000000000001</ele><time>2026-03-28T12:31:09.646Z</time></trkpt><trkpt lat="39.222711" lon="16.8486618"><ele>127.0</ele><time>2026-03-28T12:31:15.646Z</time></trkpt><trkpt lat="39.2227137" lon="16.8487549"><ele>128.57142857142858</ele><time>2026-03-28T12:31:20.654Z</time></trkpt><trkpt lat="39.2227626" lon="16.8488233"><ele>130.14285714285714</ele><time>2026-03-28T12:31:24.651Z</time></trkpt><trkpt lat="39.2228314" lon="16.8488763"><ele>131.71428571428572</ele><time>2026-03-28T12:31:28.643Z</time></trkpt><trkpt lat="39.2228744" lon="16.8489374"><ele>133.28571428571428</ele><time>2026-03-28T12:31:32.651Z</time></trkpt><trkpt lat="39.2229163" lon="16.8490175"><ele>134.85714285714286</ele><time>2026-03-28T12:31:39.649Z</time></trkpt><trkpt lat="39.222956" lon="16.8490947"><ele>136.42857142857144</ele><time>2026-03-28T12:31:43.644Z</time></trkpt><trkpt lat="39.2229837" lon="16.8491832"><ele>138.0</ele><time>2026-03-28T12:31:49.648Z</time></trkpt><trkpt lat="39.2230216" lon="16.8492681"><ele>141.16666666666666</ele><time>2026-03-28T12:31:52.646Z</time></trkpt><trkpt lat="39.2230414" lon="16.8493507"><ele>144.33333333333334</ele><time>2026-03-28T12:31:54.644Z</time></trkpt><trkpt lat="39.2230269" lon="16.8494431"><ele>147.5</ele><time>2026-03-28T12:31:57.655Z</time></trkpt><trkpt lat="39.2229749" lon="16.8494987"><ele>150.66666666666669</ele><time>2026-03-28T12:31:59.651Z</time></trkpt><trkpt lat="39.2229959" lon="16.8496199"><ele>153.83333333333334</ele><time>2026-03-28T12:32:01.651Z</time></trkpt><trkpt lat="39.2230475" lon="16.8497226"><ele>157.0</ele><time>2026-03-28T12:32:03.641Z</time></trkpt><trkpt lat="39.2231232" lon="16.8497792"><ele>149.5</ele><time>2026-03-28T12:32:05.644Z</time></trkpt><trkpt lat="39.2232206" lon="16.8498234"><ele>142.0</ele><time>2026-03-28T12:32:07.639Z</time></trkpt><trkpt lat="39.2232983" lon="16.8499376"><ele>134.5</ele><time>2026-03-28T12:32:09.643Z</time></trkpt><trkpt lat="39.2233625" lon="16.8500569"><ele>127.0</ele><time>2026-03-28T12:32:11.648Z</time></trkpt><trkpt lat="39.223422" lon="16.8501901"><ele>127.00000000000001</ele><time>2026-03-28T12:32:13.651Z</time></trkpt><trkpt lat="39.2234493" lon="16.8503533"><ele>127.0</ele><time>2026-03-28T12:32:15.65Z</time></trkpt><trkpt lat="39.2234826" lon="16.8504607"><ele>127.0</ele><time>2026-03-28T12:32:17.651Z</time></trkpt><trkpt lat="39.2235312" lon="16.8505402"><ele>127.0</ele><time>2026-03-28T12:32:32.675Z</time></trkpt><trkpt lat="39.2235532" lon="16.8506232"><ele>127.00000000000001</ele><time>2026-03-28T12:32:36.654Z</time></trkpt><trkpt lat="39.2235484" lon="16.8507159"><ele>127.0</ele><time>2026-03-28T12:32:41.647Z</time></trkpt><trkpt lat="39.2235345" lon="16.8508031"><ele>127.00000000000001</ele><time>2026-03-28T12:32:44.655Z</time></trkpt><trkpt lat="39.223524" lon="16.8509061"><ele>127.0</ele><time>2026-03-28T12:32:47.647Z</time></trkpt><trkpt lat="39.22352" lon="16.8509968"><ele>127.0</ele><time>2026-03-28T12:32:49.644Z</time></trkpt><trkpt lat="39.2235238" lon="16.8510944"><ele>127.0</ele><time>2026-03-28T12:32:51.657Z</time></trkpt><trkpt lat="39.2235353" lon="16.8511901"><ele>127.00000000000001</ele><time>2026-03-28T12:32:53.652Z</time></trkpt><trkpt lat="39.2235307" lon="16.8512746"><ele>127.0</ele><time>2026-03-28T12:32:55.651Z</time></trkpt><trkpt lat="39.2235207" lon="16.8513954"><ele>126.14285714285714</ele><time>2026-03-28T12:32:58.646Z</time></trkpt><trkpt lat="39.2235154" lon="16.851499"><ele>125.28571428571428</ele><time>2026-03-28T12:33:01.647Z</time></trkpt><trkpt lat="39.2235215" lon="16.8515813"><ele>124.42857142857142</ele><time>2026-03-28T12:33:04.647Z</time></trkpt><trkpt lat="39.2235243" lon="16.8516841"><ele>123.57142857142857</ele><time>2026-03-28T12:33:07.646Z</time></trkpt><trkpt lat="39.2235208" lon="16.851771"><ele>122.7142857142857</ele><time>2026-03-28T12:33:09.65Z</time></trkpt><trkpt lat="39.2235104" lon="16.8518584"><ele>121.85714285714285</ele><time>2026-03-28T12:33:11.644Z</time></trkpt><trkpt lat="39.2235044" lon="16.8519723"><ele>121.0</ele><time>2026-03-28T12:33:14.648Z</time></trkpt><trkpt lat="39.2235028" lon="16.8520806"><ele>120.14285714285714</ele><time>2026-03-28T12:33:17.648Z</time></trkpt><trkpt lat="39.2234869" lon="16.8521999"><ele>119.28571428571428</ele><time>2026-03-28T12:33:20.643Z</time></trkpt><trkpt lat="39.2234729" lon="16.8522834"><ele>118.42857142857142</ele><time>2026-03-28T12:33:22.65Z</time></trkpt><trkpt lat="39.2234545" lon="16.8523655"><ele>117.57142857142856</ele><time>2026-03-28T12:33:24.654Z</time></trkpt><trkpt lat="39.2234282" lon="16.8524493"><ele>116.71428571428571</ele><time>2026-03-28T12:33:26.646Z</time></trkpt><trkpt lat="39.2233923" lon="16.8525248"><ele>115.85714285714283</ele><time>2026-03-28T12:33:28.651Z</time></trkpt><trkpt lat="39.2233626" lon="16.8526091"><ele>114.99999999999999</ele><time>2026-03-28T12:33:30.651Z</time></trkpt><trkpt lat="39.2233184" lon="16.8527097"><ele>114.7142857142857</ele><time>2026-03-28T12:33:33.646Z</time></trkpt><trkpt lat="39.2232908" lon="16.8527852"><ele>114.42857142857142</ele><time>2026-03-28T12:33:35.65Z</time></trkpt><trkpt lat="39.2232627" lon="16.8528717"><ele>114.14285714285714</ele><time>2026-03-28T12:33:37.65Z</time></trkpt><trkpt lat="39.2232278" lon="16.8529532"><ele>113.85714285714285</ele><time>2026-03-28T12:33:39.656Z</time></trkpt><trkpt lat="39.2231981" lon="16.8530253"><ele>113.57142857142856</ele><time>2026-03-28T12:33:41.646Z</time></trkpt><trkpt lat="39.2231712" lon="16.8531104"><ele>113.28571428571429</ele><time>2026-03-28T12:33:43.653Z</time></trkpt><trkpt lat="39.2231304" lon="16.8532088"><ele>113.0</ele><time>2026-03-28T12:33:45.647Z</time></trkpt><trkpt lat="39.2230911" lon="16.8533127"><ele>113.33333333333333</ele><time>2026-03-28T12:33:47.651Z</time></trkpt><trkpt lat="39.2230488" lon="16.8534058"><ele>113.66666666666666</ele><time>2026-03-28T12:33:49.643Z</time></trkpt><trkpt lat="39.2230164" lon="16.8535099"><ele>114.0</ele><time>2026-03-28T12:33:51.653Z</time></trkpt><trkpt lat="39.2229812" lon="16.8536072"><ele>114.33333333333334</ele><time>2026-03-28T12:33:53.651Z</time></trkpt><trkpt lat="39.2229399" lon="16.8537056"><ele>114.66666666666667</ele><time>2026-03-28T12:33:55.642Z</time></trkpt><trkpt lat="39.2228943" lon="16.8537961"><ele>115.0</ele><time>2026-03-28T12:33:57.66Z</time></trkpt><trkpt lat="39.2228408" lon="16.85388"><ele>114.99999999999999</ele><time>2026-03-28T12:33:59.647Z</time></trkpt><trkpt lat="39.2227843" lon="16.8539689"><ele>115.0</ele><time>2026-03-28T12:34:01.649Z</time></trkpt><trkpt lat="39.2227391" lon="16.8540473"><ele>114.99999999999999</ele><time>2026-03-28T12:34:03.649Z</time></trkpt><trkpt lat="39.2227025" lon="16.8541166"><ele>114.99999999999999</ele><time>2026-03-28T12:34:05.647Z</time></trkpt><trkpt lat="39.2226544" lon="16.8541953"><ele>115.0</ele><time>2026-03-28T12:34:08.647Z</time></trkpt><trkpt lat="39.2226084" lon="16.8542581"><ele>114.99999999999999</ele><time>2026-03-28T12:34:29.652Z</time></trkpt><trkpt lat="39.222552" lon="16.8542985"><ele>114.99999999999999</ele><time>2026-03-28T12:35:18.677Z</time></trkpt><trkpt lat="39.2224877" lon="16.8543665"><ele>114.33333333333334</ele><time>2026-03-28T12:35:21.648Z</time></trkpt><trkpt lat="39.2224181" lon="16.8544269"><ele>113.66666666666667</ele><time>2026-03-28T12:35:24.654Z</time></trkpt><trkpt lat="39.2223699" lon="16.8545184"><ele>113.0</ele><time>2026-03-28T12:35:27.65Z</time></trkpt><trkpt lat="39.2223227" lon="16.8546023"><ele>112.33333333333334</ele><time>2026-03-28T12:35:30.654Z</time></trkpt><trkpt lat="39.222269" lon="16.854678"><ele>111.66666666666667</ele><time>2026-03-28T12:35:33.649Z</time></trkpt><trkpt lat="39.222211" lon="16.8547471"><ele>111.0</ele><time>2026-03-28T12:35:37.647Z</time></trkpt><trkpt lat="39.2221735" lon="16.8548221"><ele>110.66666666666667</ele><time>2026-03-28T12:35:41.647Z</time></trkpt><trkpt lat="39.222135" lon="16.8548998"><ele>110.33333333333334</ele><time>2026-03-28T12:35:45.646Z</time></trkpt><trkpt lat="39.2221002" lon="16.854972"><ele>110.0</ele><time>2026-03-28T12:35:48.651Z</time></trkpt><trkpt lat="39.2220588" lon="16.8550772"><ele>109.66666666666667</ele><time>2026-03-28T12:35:51.649Z</time></trkpt><trkpt lat="39.2220367" lon="16.8551547"><ele>109.33333333333334</ele><time>2026-03-28T12:35:53.654Z</time></trkpt><trkpt lat="39.2220123" lon="16.8552735"><ele>109.0</ele><time>2026-03-28T12:35:56.652Z</time></trkpt><trkpt lat="39.2219945" lon="16.8553561"><ele>109.0</ele><time>2026-03-28T12:35:59.645Z</time></trkpt><trkpt lat="39.2219796" lon="16.8554392"><ele>109.0</ele><time>2026-03-28T12:36:04.65Z</time></trkpt><trkpt lat="39.2219669" lon="16.8555369"><ele>109.0</ele><time>2026-03-28T12:36:10.654Z</time></trkpt><trkpt lat="39.2219638" lon="16.8556516"><ele>109.0</ele><time>2026-03-28T12:36:13.651Z</time></trkpt><trkpt lat="39.2219646" lon="16.8557344"><ele>109.0</ele><time>2026-03-28T12:36:17.646Z</time></trkpt><trkpt lat="39.22196" lon="16.8558229"><ele>109.0</ele><time>2026-03-28T12:36:21.649Z</time></trkpt><trkpt lat="39.2219423" lon="16.8559124"><ele>109.0</ele><time>2026-03-28T12:36:23.647Z</time></trkpt><trkpt lat="39.2219039" lon="16.8560388"><ele>108.80000000000001</ele><time>2026-03-28T12:36:25.648Z</time></trkpt><trkpt lat="39.2218475" lon="16.8561543"><ele>108.60000000000001</ele><time>2026-03-28T12:36:27.645Z</time></trkpt><trkpt lat="39.2217721" lon="16.8562809"><ele>108.4</ele><time>2026-03-28T12:36:29.646Z</time></trkpt><trkpt lat="39.2217325" lon="16.8563452"><ele>108.2</ele><time>2026-03-28T12:36:30.655Z</time></trkpt><trkpt lat="39.2216614" lon="16.8564686"><ele>108.0</ele><time>2026-03-28T12:36:32.656Z</time></trkpt><trkpt lat="39.2215973" lon="16.8565868"><ele>108.0</ele><time>2026-03-28T12:36:34.645Z</time></trkpt><trkpt lat="39.2215313" lon="16.8566931"><ele>108.00000000000001</ele><time>2026-03-28T12:36:36.649Z</time></trkpt><trkpt lat="39.2214524" lon="16.856771"><ele>108.00000000000001</ele><time>2026-03-28T12:36:38.648Z</time></trkpt><trkpt lat="39.2213596" lon="16.8568602"><ele>108.0</ele><time>2026-03-28T12:36:40.658Z</time></trkpt><trkpt lat="39.2213018" lon="16.8569303"><ele>108.0</ele><time>2026-03-28T12:36:42.651Z</time></trkpt><trkpt lat="39.2212567" lon="16.8570122"><ele>107.83333333333333</ele><time>2026-03-28T12:36:44.647Z</time></trkpt><trkpt lat="39.2212274" lon="16.8571097"><ele>107.66666666666666</ele><time>2026-03-28T12:36:46.653Z</time></trkpt><trkpt lat="39.2211976" lon="16.8572219"><ele>107.5</ele><time>2026-03-28T12:36:48.649Z</time></trkpt><trkpt lat="39.2211603" lon="16.8573197"><ele>107.33333333333333</ele><time>2026-03-28T12:36:50.661Z</time></trkpt><trkpt lat="39.2211086" lon="16.857393"><ele>107.16666666666666</ele><time>2026-03-28T12:36:52.653Z</time></trkpt><trkpt lat="39.221037" lon="16.8574685"><ele>107.0</ele><time>2026-03-28T12:36:54.654Z</time></trkpt><trkpt lat="39.2210003" lon="16.8575545"><ele>107.28571428571429</ele><time>2026-03-28T12:36:56.654Z</time></trkpt><trkpt lat="39.2209804" lon="16.8576558"><ele>107.57142857142857</ele><time>2026-03-28T12:36:59.65Z</time></trkpt><trkpt lat="39.22097" lon="16.8577381"><ele>107.85714285714286</ele><time>2026-03-28T12:37:04.649Z</time></trkpt><trkpt lat="39.2209506" lon="16.8578159"><ele>108.14285714285714</ele><time>2026-03-28T12:37:24.647Z</time></trkpt><trkpt lat="39.2209177" lon="16.857894"><ele>108.42857142857143</ele><time>2026-03-28T12:37:29.648Z</time></trkpt><trkpt lat="39.2208884" lon="16.8579876"><ele>108.71428571428572</ele><time>2026-03-28T12:37:32.649Z</time></trkpt><trkpt lat="39.2208667" lon="16.8580986"><ele>109.0</ele><time>2026-03-28T12:37:35.653Z</time></trkpt><trkpt lat="39.2208465" lon="16.8581858"><ele>109.0</ele><time>2026-03-28T12:37:37.644Z</time></trkpt><trkpt lat="39.220825" lon="16.8582777"><ele>109.0</ele><time>2026-03-28T12:37:39.644Z</time></trkpt><trkpt lat="39.2208009" lon="16.8583694"><ele>109.0</ele><time>2026-03-28T12:37:41.651Z</time></trkpt><trkpt lat="39.2207771" lon="16.8584585"><ele>109.0</ele><time>2026-03-28T12:37:43.652Z</time></trkpt><trkpt lat="39.2207574" lon="16.8585436"><ele>109.0</ele><time>2026-03-28T12:37:45.652Z</time></trkpt><trkpt lat="39.2207297" lon="16.8586274"><ele>109.0</ele><time>2026-03-28T12:37:47.648Z</time></trkpt><trkpt lat="39.2206889" lon="16.8587101"><ele>109.0</ele><time>2026-03-28T12:37:49.648Z</time></trkpt><trkpt lat="39.2206459" lon="16.8587798"><ele>108.66666666666667</ele><time>2026-03-28T12:37:51.648Z</time></trkpt><trkpt lat="39.220603" lon="16.8588753"><ele>108.33333333333334</ele><time>2026-03-28T12:37:54.65Z</time></trkpt><trkpt lat="39.2205804" lon="16.8589843"><ele>108.0</ele><time>2026-03-28T12:37:58.657Z</time></trkpt><trkpt lat="39.2205803" lon="16.8590661"><ele>107.66666666666666</ele><time>2026-03-28T12:38:00.657Z</time></trkpt><trkpt lat="39.2205773" lon="16.8591637"><ele>107.33333333333333</ele><time>2026-03-28T12:38:03.653Z</time></trkpt><trkpt lat="39.2205327" lon="16.8592476"><ele>107.0</ele><time>2026-03-28T12:38:07.646Z</time></trkpt><trkpt lat="39.2204509" lon="16.8592654"><ele>106.99999999999999</ele><time>2026-03-28T12:38:10.644Z</time></trkpt><trkpt lat="39.2203863" lon="16.8592617"><ele>107.0</ele><time>2026-03-28T12:38:12.65Z</time></trkpt><trkpt lat="39.2203163" lon="16.8592644"><ele>107.0</ele><time>2026-03-28T12:38:14.642Z</time></trkpt><trkpt lat="39.2202479" lon="16.8592902"><ele>107.0</ele><time>2026-03-28T12:38:16.642Z</time></trkpt><trkpt lat="39.2201667" lon="16.8593546"><ele>106.99999999999999</ele><time>2026-03-28T12:38:18.648Z</time></trkpt><trkpt lat="39.2200783" lon="16.8594355"><ele>107.0</ele><time>2026-03-28T12:38:20.643Z</time></trkpt><trkpt lat="39.2199883" lon="16.8595343"><ele>106.8</ele><time>2026-03-28T12:38:22.65Z</time></trkpt><trkpt lat="39.2198956" lon="16.8596416"><ele>106.6</ele><time>2026-03-28T12:38:24.668Z</time></trkpt><trkpt lat="39.2198068" lon="16.8597254"><ele>106.39999999999999</ele><time>2026-03-28T12:38:26.666Z</time></trkpt><trkpt lat="39.2197415" lon="16.8598018"><ele>106.19999999999999</ele><time>2026-03-28T12:38:28.65Z</time></trkpt><trkpt lat="39.2196851" lon="16.8598856"><ele>106.0</ele><time>2026-03-28T12:38:30.649Z</time></trkpt><trkpt lat="39.219606" lon="16.8599601"><ele>106.0</ele><time>2026-03-28T12:38:32.645Z</time></trkpt><trkpt lat="39.2194987" lon="16.8599791"><ele>106.0</ele><time>2026-03-28T12:38:34.646Z</time></trkpt><trkpt lat="39.2193889" lon="16.8599854"><ele>106.0</ele><time>2026-03-28T12:38:36.643Z</time></trkpt><trkpt lat="39.2192829" lon="16.8600182"><ele>106.0</ele><time>2026-03-28T12:38:38.645Z</time></trkpt><trkpt lat="39.2191872" lon="16.8600754"><ele>106.0</ele><time>2026-03-28T12:38:40.649Z</time></trkpt><trkpt lat="39.2190917" lon="16.8601199"><ele>106.0</ele><time>2026-03-28T12:38:42.654Z</time></trkpt><trkpt lat="39.2189934" lon="16.8601337"><ele>106.0</ele><time>2026-03-28T12:38:44.649Z</time></trkpt><trkpt lat="39.2188915" lon="16.8601612"><ele>106.0</ele><time>2026-03-28T12:38:46.652Z</time></trkpt><trkpt lat="39.2187571" lon="16.8602135"><ele>106.0</ele><time>2026-03-28T12:38:48.649Z</time></trkpt><trkpt lat="39.2186661" lon="16.8602468"><ele>106.0</ele><time>2026-03-28T12:38:49.647Z</time></trkpt><trkpt lat="39.2185681" lon="16.860266"><ele>106.0</ele><time>2026-03-28T12:38:50.656Z</time></trkpt><trkpt lat="39.2184778" lon="16.8602778"><ele>106.0</ele><time>2026-03-28T12:38:51.647Z</time></trkpt><trkpt lat="39.2184057" lon="16.8602909"><ele>106.0</ele><time>2026-03-28T12:38:52.647Z</time></trkpt><trkpt lat="39.2182962" lon="16.8603372"><ele>106.0</ele><time>2026-03-28T12:38:54.652Z</time></trkpt><trkpt lat="39.2181843" lon="16.8603992"><ele>106.0</ele><time>2026-03-28T12:38:56.651Z</time></trkpt><trkpt lat="39.2180634" lon="16.8604131"><ele>105.66666666666667</ele><time>2026-03-28T12:38:58.647Z</time></trkpt><trkpt lat="39.217967" lon="16.8604285"><ele>105.33333333333334</ele><time>2026-03-28T12:39:00.648Z</time></trkpt><trkpt lat="39.2178908" lon="16.8604571"><ele>105.0</ele><time>2026-03-28T12:39:02.648Z</time></trkpt><trkpt lat="39.2178308" lon="16.8604911"><ele>104.66666666666666</ele><time>2026-03-28T12:39:04.648Z</time></trkpt><trkpt lat="39.2177651" lon="16.8605308"><ele>104.33333333333333</ele><time>2026-03-28T12:39:06.644Z</time></trkpt><trkpt lat="39.2176831" lon="16.8605734"><ele>104.0</ele><time>2026-03-28T12:39:08.647Z</time></trkpt><trkpt lat="39.2175936" lon="16.8606279"><ele>103.99999999999999</ele><time>2026-03-28T12:39:10.653Z</time></trkpt><trkpt lat="39.217491" lon="16.8607018"><ele>104.0</ele><time>2026-03-28T12:39:12.648Z</time></trkpt><trkpt lat="39.2174253" lon="16.8607447"><ele>104.0</ele><time>2026-03-28T12:39:13.654Z</time></trkpt><trkpt lat="39.2173466" lon="16.860798"><ele>104.0</ele><time>2026-03-28T12:39:14.651Z</time></trkpt><trkpt lat="39.217272" lon="16.8608428"><ele>103.99999999999999</ele><time>2026-03-28T12:39:15.65Z</time></trkpt><trkpt lat="39.217204" lon="16.8608921"><ele>104.0</ele><time>2026-03-28T12:39:16.653Z</time></trkpt><trkpt lat="39.2171228" lon="16.8609437"><ele>103.83333333333333</ele><time>2026-03-28T12:39:17.652Z</time></trkpt><trkpt lat="39.2170485" lon="16.8609821"><ele>103.66666666666666</ele><time>2026-03-28T12:39:18.662Z</time></trkpt><trkpt lat="39.2169831" lon="16.8610306"><ele>103.5</ele><time>2026-03-28T12:39:19.646Z</time></trkpt><trkpt lat="39.2169121" lon="16.8610836"><ele>103.33333333333334</ele><time>2026-03-28T12:39:20.645Z</time></trkpt><trkpt lat="39.2168278" lon="16.861131"><ele>103.16666666666667</ele><time>2026-03-28T12:39:21.646Z</time></trkpt><trkpt lat="39.2167279" lon="16.8611646"><ele>103.0</ele><time>2026-03-28T12:39:22.643Z</time></trkpt><trkpt lat="39.2166258" lon="16.8611989"><ele>103.0</ele><time>2026-03-28T12:39:23.645Z</time></trkpt><trkpt lat="39.2165212" lon="16.861223"><ele>103.0</ele><time>2026-03-28T12:39:24.65Z</time></trkpt><trkpt lat="39.2164199" lon="16.8612438"><ele>103.0</ele><time>2026-03-28T12:39:25.646Z</time></trkpt><trkpt lat="39.2163284" lon="16.8612618"><ele>103.0</ele><time>2026-03-28T12:39:26.652Z</time></trkpt><trkpt lat="39.216242" lon="16.8612832"><ele>103.0</ele><time>2026-03-28T12:39:27.65Z</time></trkpt><trkpt lat="39.2161566" lon="16.8613007"><ele>102.4</ele><time>2026-03-28T12:39:28.651Z</time></trkpt><trkpt lat="39.2160711" lon="16.8613174"><ele>101.80000000000001</ele><time>2026-03-28T12:39:29.649Z</time></trkpt><trkpt lat="39.2159724" lon="16.8613411"><ele>101.2</ele><time>2026-03-28T12:39:30.646Z</time></trkpt><trkpt lat="39.215866" lon="16.861362"><ele>100.6</ele><time>2026-03-28T12:39:31.645Z</time></trkpt><trkpt lat="39.2157797" lon="16.8613737"><ele>100.0</ele><time>2026-03-28T12:39:32.653Z</time></trkpt><trkpt lat="39.2157111" lon="16.8613806"><ele>100.2</ele><time>2026-03-28T12:39:33.646Z</time></trkpt><trkpt lat="39.2156099" lon="16.8613949"><ele>100.4</ele><time>2026-03-28T12:39:35.65Z</time></trkpt><trkpt lat="39.2155181" lon="16.8614161"><ele>100.6</ele><time>2026-03-28T12:39:37.651Z</time></trkpt><trkpt lat="39.2154048" lon="16.8614543"><ele>100.8</ele><time>2026-03-28T12:39:39.65Z</time></trkpt><trkpt lat="39.2153277" lon="16.861446"><ele>101.0</ele><time>2026-03-28T12:39:41.649Z</time></trkpt><trkpt lat="39.2152502" lon="16.8614296"><ele>101.0</ele><time>2026-03-28T12:39:43.646Z</time></trkpt><trkpt lat="39.2151544" lon="16.8614758"><ele>101.0</ele><time>2026-03-28T12:39:45.65Z</time></trkpt><trkpt lat="39.2150664" lon="16.8615657"><ele>101.0</ele><time>2026-03-28T12:39:47.647Z</time></trkpt><trkpt lat="39.2149948" lon="16.8616543"><ele>101.0</ele><time>2026-03-28T12:39:49.649Z</time></trkpt><trkpt lat="39.2149397" lon="16.861721"><ele>101.0</ele><time>2026-03-28T12:39:51.648Z</time></trkpt><trkpt lat="39.2148801" lon="16.8618053"><ele>100.99999999999999</ele><time>2026-03-28T12:39:58.652Z</time></trkpt><trkpt lat="39.2148322" lon="16.8618876"><ele>101.0</ele><time>2026-03-28T12:40:01.652Z</time></trkpt><trkpt lat="39.2147749" lon="16.8619594"><ele>101.0</ele><time>2026-03-28T12:40:04.653Z</time></trkpt><trkpt lat="39.214761" lon="16.8620807"><ele>101.0</ele><time>2026-03-28T12:40:07.649Z</time></trkpt><trkpt lat="39.2147271" lon="16.862203"><ele>100.99999999999999</ele><time>2026-03-28T12:40:09.65Z</time></trkpt><trkpt lat="39.214688" lon="16.8623"><ele>101.0</ele><time>2026-03-28T12:40:11.647Z</time></trkpt><trkpt lat="39.2146433" lon="16.8623765"><ele>100.99999999999999</ele><time>2026-03-28T12:40:14.647Z</time></trkpt><trkpt lat="39.2145907" lon="16.8624278"><ele>101.0</ele><time>2026-03-28T12:40:17.647Z</time></trkpt><trkpt lat="39.2145209" lon="16.8624797"><ele>101.0</ele><time>2026-03-28T12:40:21.655Z</time></trkpt><trkpt lat="39.2144648" lon="16.8625282"><ele>101.0</ele><time>2026-03-28T12:40:40.652Z</time></trkpt><trkpt lat="39.2144176" lon="16.8625827"><ele>100.99999999999999</ele><time>2026-03-28T12:40:46.646Z</time></trkpt><trkpt lat="39.2143775" lon="16.8626598"><ele>101.0</ele><time>2026-03-28T12:40:55.669Z</time></trkpt><trkpt lat="39.2143181" lon="16.8627683"><ele>100.4</ele><time>2026-03-28T12:40:58.642Z</time></trkpt><trkpt lat="39.2142595" lon="16.8628742"><ele>99.8</ele><time>2026-03-28T12:41:00.651Z</time></trkpt><trkpt lat="39.2142032" lon="16.862987"><ele>99.2</ele><time>2026-03-28T12:41:02.646Z</time></trkpt><trkpt lat="39.2141463" lon="16.8630883"><ele>98.60000000000001</ele><time>2026-03-28T12:41:04.656Z</time></trkpt><trkpt lat="39.2140862" lon="16.8631914"><ele>98.0</ele><time>2026-03-28T12:41:06.649Z</time></trkpt><trkpt lat="39.2140061" lon="16.8631979"><ele>98.33333333333333</ele><time>2026-03-28T12:41:09.65Z</time></trkpt><trkpt lat="39.2139465" lon="16.8631433"><ele>98.66666666666666</ele><time>2026-03-28T12:41:17.647Z</time></trkpt><trkpt lat="39.2138718" lon="16.8630925"><ele>99.0</ele><time>2026-03-28T12:41:22.651Z</time></trkpt><trkpt lat="39.213801" lon="16.8631071"><ele>99.33333333333334</ele><time>2026-03-28T12:41:25.648Z</time></trkpt><trkpt lat="39.2137204" lon="16.8631603"><ele>99.66666666666667</ele><time>2026-03-28T12:41:28.652Z</time></trkpt><trkpt lat="39.2136567" lon="16.8632046"><ele>100.0</ele><time>2026-03-28T12:41:30.653Z</time></trkpt><trkpt lat="39.2135903" lon="16.8631907"><ele>100.00000000000001</ele><time>2026-03-28T12:41:32.652Z</time></trkpt><trkpt lat="39.2135225" lon="16.8632217"><ele>100.0</ele><time>2026-03-28T12:41:34.645Z</time></trkpt><trkpt lat="39.2134486" lon="16.8633142"><ele>100.0</ele><time>2026-03-28T12:41:36.645Z</time></trkpt><trkpt lat="39.2133838" lon="16.8633972"><ele>100.0</ele><time>2026-03-28T12:41:38.646Z</time></trkpt><trkpt lat="39.2133178" lon="16.8634599"><ele>100.00000000000001</ele><time>2026-03-28T12:41:40.65Z</time></trkpt><trkpt lat="39.2132577" lon="16.8635301"><ele>100.0</ele><time>2026-03-28T12:41:42.658Z</time></trkpt><trkpt lat="39.2132176" lon="16.8636102"><ele>99.83333333333334</ele><time>2026-03-28T12:41:44.65Z</time></trkpt><trkpt lat="39.2132051" lon="16.8637089"><ele>99.66666666666667</ele><time>2026-03-28T12:41:46.657Z</time></trkpt><trkpt lat="39.2131968" lon="16.8638031"><ele>99.5</ele><time>2026-03-28T12:41:48.651Z</time></trkpt><trkpt lat="39.2131846" lon="16.8638949"><ele>99.33333333333334</ele><time>2026-03-28T12:41:50.649Z</time></trkpt><trkpt lat="39.2131406" lon="16.8640143"><ele>99.16666666666667</ele><time>2026-03-28T12:41:52.645Z</time></trkpt><trkpt lat="39.2130851" lon="16.8641451"><ele>99.0</ele><time>2026-03-28T12:41:54.646Z</time></trkpt><trkpt lat="39.2130321" lon="16.8642861"><ele>98.83333333333333</ele><time>2026-03-28T12:41:56.647Z</time></trkpt><trkpt lat="39.2130024" lon="16.8643582"><ele>98.66666666666666</ele><time>2026-03-28T12:41:57.645Z</time></trkpt><trkpt lat="39.2129686" lon="16.8644315"><ele>98.5</ele><time>2026-03-28T12:41:58.649Z</time></trkpt><trkpt lat="39.2129321" lon="16.864502"><ele>98.33333333333333</ele><time>2026-03-28T12:41:59.647Z</time></trkpt><trkpt lat="39.21289" lon="16.8645685"><ele>98.16666666666666</ele><time>2026-03-28T12:42:00.663Z</time></trkpt><trkpt lat="39.2128444" lon="16.8646248"><ele>98.0</ele><time>2026-03-28T12:42:01.645Z</time></trkpt><trkpt lat="39.2127388" lon="16.8647108"><ele>98.0</ele><time>2026-03-28T12:42:03.643Z</time></trkpt><trkpt lat="39.2126437" lon="16.8647863"><ele>98.0</ele><time>2026-03-28T12:42:05.648Z</time></trkpt><trkpt lat="39.2125545" lon="16.8648562"><ele>98.0</ele><time>2026-03-28T12:42:07.65Z</time></trkpt><trkpt lat="39.2124649" lon="16.8649016"><ele>98.0</ele><time>2026-03-28T12:42:09.647Z</time></trkpt><trkpt lat="39.2123665" lon="16.8649467"><ele>98.0</ele><time>2026-03-28T12:42:11.647Z</time></trkpt><trkpt lat="39.2122972" lon="16.8650259"><ele>98.0</ele><time>2026-03-28T12:42:13.645Z</time></trkpt><trkpt lat="39.2122454" lon="16.8651057"><ele>98.0</ele><time>2026-03-28T12:42:15.648Z</time></trkpt><trkpt lat="39.2121816" lon="16.8651504"><ele>98.0</ele><time>2026-03-28T12:42:17.644Z</time></trkpt><trkpt lat="39.2121405" lon="16.8652253"><ele>98.0</ele><time>2026-03-28T12:42:19.648Z</time></trkpt><trkpt lat="39.2121425" lon="16.8653218"><ele>98.0</ele><time>2026-03-28T12:42:21.656Z</time></trkpt><trkpt lat="39.2121599" lon="16.8654025"><ele>98.0</ele><time>2026-03-28T12:42:23.649Z</time></trkpt><trkpt lat="39.2121718" lon="16.8654844"><ele>98.0</ele><time>2026-03-28T12:42:25.658Z</time></trkpt><trkpt lat="39.2121748" lon="16.8655808"><ele>98.0</ele><time>2026-03-28T12:42:27.644Z</time></trkpt><trkpt lat="39.2121394" lon="16.8657061"><ele>98.0</ele><time>2026-03-28T12:42:29.65Z</time></trkpt><trkpt lat="39.2120622" lon="16.8658119"><ele>98.0</ele><time>2026-03-28T12:42:31.65Z</time></trkpt><trkpt lat="39.2119469" lon="16.8658833"><ele>98.0</ele><time>2026-03-28T12:42:33.646Z</time></trkpt><trkpt lat="39.2118827" lon="16.8659259"><ele>98.0</ele><time>2026-03-28T12:42:34.643Z</time></trkpt><trkpt lat="39.2118352" lon="16.8659795"><ele>97.80000000000001</ele><time>2026-03-28T12:42:35.65Z</time></trkpt><trkpt lat="39.2117971" lon="16.8661124"><ele>97.6</ele><time>2026-03-28T12:42:37.645Z</time></trkpt><trkpt lat="39.2118255" lon="16.8662422"><ele>97.4</ele><time>2026-03-28T12:42:39.642Z</time></trkpt><trkpt lat="39.2118734" lon="16.8663561"><ele>97.19999999999999</ele><time>2026-03-28T12:42:41.647Z</time></trkpt><trkpt lat="39.2118991" lon="16.866472"><ele>97.0</ele><time>2026-03-28T12:42:43.644Z</time></trkpt><trkpt lat="39.2119102" lon="16.8665788"><ele>97.0</ele><time>2026-03-28T12:42:45.649Z</time></trkpt><trkpt lat="39.2119093" lon="16.8666834"><ele>97.0</ele><time>2026-03-28T12:42:48.648Z</time></trkpt><trkpt lat="39.2119198" lon="16.8667653"><ele>97.0</ele><time>2026-03-28T12:42:51.65Z</time></trkpt><trkpt lat="39.2119351" lon="16.8668585"><ele>97.0</ele><time>2026-03-28T12:42:56.647Z</time></trkpt><trkpt lat="39.2119517" lon="16.8669492"><ele>97.0</ele><time>2026-03-28T12:43:04.649Z</time></trkpt><trkpt lat="39.2119384" lon="16.8670416"><ele>97.0</ele><time>2026-03-28T12:43:08.648Z</time></trkpt><trkpt lat="39.2118911" lon="16.8671133"><ele>97.0</ele><time>2026-03-28T12:43:11.644Z</time></trkpt><trkpt lat="39.2118443" lon="16.8671876"><ele>97.0</ele><time>2026-03-28T12:43:14.65Z</time></trkpt><trkpt lat="39.2117938" lon="16.8672654"><ele>97.0</ele><time>2026-03-28T12:43:17.646Z</time></trkpt><trkpt lat="39.2117559" lon="16.8673323"><ele>97.0</ele><time>2026-03-28T12:43:20.651Z</time></trkpt><trkpt lat="39.2117084" lon="16.8673973"><ele>97.0</ele><time>2026-03-28T12:43:23.647Z</time></trkpt><trkpt lat="39.2116704" lon="16.867476"><ele>97.0</ele><time>2026-03-28T12:43:26.648Z</time></trkpt><trkpt lat="39.211638" lon="16.8675872"><ele>97.0</ele><time>2026-03-28T12:43:29.65Z</time></trkpt><trkpt lat="39.211601" lon="16.867666"><ele>97.0</ele><time>2026-03-28T12:43:31.646Z</time></trkpt><trkpt lat="39.2115746" lon="16.8677472"><ele>97.28571428571428</ele><time>2026-03-28T12:43:43.651Z</time></trkpt><trkpt lat="39.2115667" lon="16.8678339"><ele>97.57142857142858</ele><time>2026-03-28T12:43:47.649Z</time></trkpt><trkpt lat="39.2115911" lon="16.8679162"><ele>97.85714285714286</ele><time>2026-03-28T12:43:54.64Z</time></trkpt><trkpt lat="39.2116247" lon="16.8679903"><ele>98.14285714285714</ele><time>2026-03-28T12:43:58.644Z</time></trkpt><trkpt lat="39.211667" lon="16.8680775"><ele>98.42857142857142</ele><time>2026-03-28T12:44:01.651Z</time></trkpt><trkpt lat="39.2117006" lon="16.8681472"><ele>98.71428571428572</ele><time>2026-03-28T12:44:03.652Z</time></trkpt><trkpt lat="39.2117296" lon="16.8682234"><ele>99.0</ele><time>2026-03-28T12:44:05.652Z</time></trkpt><trkpt lat="39.2117632" lon="16.8683083"><ele>99.0</ele><time>2026-03-28T12:44:07.643Z</time></trkpt><trkpt lat="39.2118066" lon="16.8683841"><ele>99.0</ele><time>2026-03-28T12:44:09.653Z</time></trkpt><trkpt lat="39.2118489" lon="16.8684545"><ele>99.0</ele><time>2026-03-28T12:44:11.649Z</time></trkpt><trkpt lat="39.2118869" lon="16.8685294"><ele>99.0</ele><time>2026-03-28T12:44:13.657Z</time></trkpt><trkpt lat="39.211915" lon="16.8686202"><ele>99.0</ele><time>2026-03-28T12:44:15.646Z</time></trkpt><trkpt lat="39.2119437" lon="16.8686983"><ele>99.0</ele><time>2026-03-28T12:44:17.644Z</time></trkpt><trkpt lat="39.211973" lon="16.8687772"><ele>99.0</ele><time>2026-03-28T12:44:19.644Z</time></trkpt><trkpt lat="39.2120069" lon="16.8688833"><ele>100.66666666666667</ele><time>2026-03-28T12:44:22.646Z</time></trkpt><trkpt lat="39.2120312" lon="16.8689672"><ele>102.33333333333334</ele><time>2026-03-28T12:44:24.628Z</time></trkpt><trkpt lat="39.2120582" lon="16.869047"><ele>104.0</ele><time>2026-03-28T12:44:26.716Z</time></trkpt><trkpt lat="39.2120873" lon="16.8691465"><ele>105.66666666666667</ele><time>2026-03-28T12:44:30.754Z</time></trkpt><trkpt lat="39.2120966" lon="16.8692729"><ele>107.33333333333334</ele><time>2026-03-28T12:44:33.688Z</time></trkpt><trkpt lat="39.212106" lon="16.8693812"><ele>109.0</ele><time>2026-03-28T12:44:35.707Z</time></trkpt><trkpt lat="39.2121216" lon="16.8694995"><ele>111.16666666666667</ele><time>2026-03-28T12:44:37.668Z</time></trkpt><trkpt lat="39.2121419" lon="16.8696055"><ele>113.33333333333334</ele><time>2026-03-28T12:44:39.646Z</time></trkpt><trkpt lat="39.2121677" lon="16.8697091"><ele>115.5</ele><time>2026-03-28T12:44:41.694Z</time></trkpt><trkpt lat="39.2121792" lon="16.8698104"><ele>117.66666666666666</ele><time>2026-03-28T12:44:43.65Z</time></trkpt><trkpt lat="39.2122043" lon="16.8699076"><ele>119.83333333333333</ele><time>2026-03-28T12:44:45.653Z</time></trkpt><trkpt lat="39.21224" lon="16.8700048"><ele>122.0</ele><time>2026-03-28T12:44:47.658Z</time></trkpt><trkpt lat="39.2122748" lon="16.8701136"><ele>123.16666666666666</ele><time>2026-03-28T12:44:49.655Z</time></trkpt><trkpt lat="39.2123045" lon="16.8702188"><ele>124.33333333333333</ele><time>2026-03-28T12:44:51.65Z</time></trkpt><trkpt lat="39.2123379" lon="16.870338"><ele>125.5</ele><time>2026-03-28T12:44:53.65Z</time></trkpt><trkpt lat="39.2123675" lon="16.8704369"><ele>126.66666666666666</ele><time>2026-03-28T12:44:55.651Z</time></trkpt><trkpt lat="39.2123694" lon="16.8705225"><ele>127.83333333333333</ele><time>2026-03-28T12:44:58.65Z</time></trkpt><trkpt lat="39.212357" lon="16.8706099"><ele>129.0</ele><time>2026-03-28T12:45:56.648Z</time></trkpt><trkpt lat="39.212322" lon="16.8707284"><ele>129.0</ele><time>2026-03-28T12:45:58.653Z</time></trkpt><trkpt lat="39.2122945" lon="16.8708374"><ele>129.0</ele><time>2026-03-28T12:46:00.65Z</time></trkpt><trkpt lat="39.2122991" lon="16.8709323"><ele>129.0</ele><time>2026-03-28T12:46:02.652Z</time></trkpt><trkpt lat="39.2123227" lon="16.8710283"><ele>129.0</ele><time>2026-03-28T12:46:04.652Z</time></trkpt><trkpt lat="39.2123595" lon="16.8711262"><ele>129.0</ele><time>2026-03-28T12:46:06.651Z</time></trkpt><trkpt lat="39.2124128" lon="16.8712049"><ele>129.0</ele><time>2026-03-28T12:46:08.649Z</time></trkpt><trkpt lat="39.2124974" lon="16.8712802"><ele>127.2</ele><time>2026-03-28T12:46:10.645Z</time></trkpt><trkpt lat="39.2125881" lon="16.8713347"><ele>125.4</ele><time>2026-03-28T12:46:12.652Z</time></trkpt><trkpt lat="39.2126838" lon="16.8714026"><ele>123.6</ele><time>2026-03-28T12:46:14.648Z</time></trkpt><trkpt lat="39.2127386" lon="16.871444"><ele>121.8</ele><time>2026-03-28T12:46:15.643Z</time></trkpt><trkpt lat="39.2128465" lon="16.8715277"><ele>120.0</ele><time>2026-03-28T12:46:17.65Z</time></trkpt><trkpt lat="39.2129007" lon="16.871575"><ele>120.0</ele><time>2026-03-28T12:46:18.649Z</time></trkpt><trkpt lat="39.2129861" lon="16.8716594"><ele>120.0</ele><time>2026-03-28T12:46:20.644Z</time></trkpt><trkpt lat="39.2130658" lon="16.8717895"><ele>120.0</ele><time>2026-03-28T12:46:22.646Z</time></trkpt><trkpt lat="39.2130929" lon="16.8718753"><ele>120.0</ele><time>2026-03-28T12:46:23.654Z</time></trkpt><trkpt lat="39.2131092" lon="16.871955"><ele>120.0</ele><time>2026-03-28T12:46:24.656Z</time></trkpt><trkpt lat="39.2131459" lon="16.8720864"><ele>118.83333333333333</ele><time>2026-03-28T12:46:26.648Z</time></trkpt><trkpt lat="39.2131747" lon="16.8721792"><ele>117.66666666666666</ele><time>2026-03-28T12:46:27.651Z</time></trkpt><trkpt lat="39.2131965" lon="16.872264"><ele>116.5</ele><time>2026-03-28T12:46:28.645Z</time></trkpt><trkpt lat="39.2132163" lon="16.8723712"><ele>115.33333333333333</ele><time>2026-03-28T12:46:29.65Z</time></trkpt><trkpt lat="39.2132331" lon="16.8724647"><ele>114.16666666666666</ele><time>2026-03-28T12:46:30.653Z</time></trkpt><trkpt lat="39.2132533" lon="16.8725713"><ele>113.0</ele><time>2026-03-28T12:46:31.649Z</time></trkpt><trkpt lat="39.213279" lon="16.8727162"><ele>113.0</ele><time>2026-03-28T12:46:32.652Z</time></trkpt><trkpt lat="39.2133045" lon="16.8728607"><ele>113.00000000000001</ele><time>2026-03-28T12:46:33.643Z</time></trkpt><trkpt lat="39.2133212" lon="16.8730051"><ele>113.00000000000001</ele><time>2026-03-28T12:46:34.645Z</time></trkpt><trkpt lat="39.2133229" lon="16.8731364"><ele>113.0</ele><time>2026-03-28T12:46:35.65Z</time></trkpt><trkpt lat="39.2133202" lon="16.873254"><ele>113.0</ele><time>2026-03-28T12:46:36.65Z</time></trkpt><trkpt lat="39.2133195" lon="16.8733385"><ele>113.0</ele><time>2026-03-28T12:46:37.651Z</time></trkpt><trkpt lat="39.213334" lon="16.8734252"><ele>113.00000000000001</ele><time>2026-03-28T12:46:39.65Z</time></trkpt><trkpt lat="39.2133789" lon="16.873509"><ele>113.00000000000001</ele><time>2026-03-28T12:46:41.642Z</time></trkpt><trkpt lat="39.2134291" lon="16.8735769"><ele>113.0</ele><time>2026-03-28T12:46:42.644Z</time></trkpt><trkpt lat="39.213507" lon="16.873677"><ele>113.0</ele><time>2026-03-28T12:46:43.65Z</time></trkpt><trkpt lat="39.2135906" lon="16.8737872"><ele>113.4</ele><time>2026-03-28T12:46:44.648Z</time></trkpt><trkpt lat="39.2136713" lon="16.8738956"><ele>113.80000000000001</ele><time>2026-03-28T12:46:45.647Z</time></trkpt><trkpt lat="39.2137389" lon="16.8739932"><ele>114.2</ele><time>2026-03-28T12:46:46.648Z</time></trkpt><trkpt lat="39.2138064" lon="16.8740888"><ele>114.6</ele><time>2026-03-28T12:46:47.645Z</time></trkpt><trkpt lat="39.2138811" lon="16.8742102"><ele>115.0</ele><time>2026-03-28T12:46:48.651Z</time></trkpt><trkpt lat="39.2139568" lon="16.8743496"><ele>115.75</ele><time>2026-03-28T12:46:49.647Z</time></trkpt><trkpt lat="39.214026" lon="16.8744989"><ele>116.5</ele><time>2026-03-28T12:46:50.643Z</time></trkpt><trkpt lat="39.2140945" lon="16.8746526"><ele>117.25</ele><time>2026-03-28T12:46:51.647Z</time></trkpt><trkpt lat="39.2141618" lon="16.8747987"><ele>118.0</ele><time>2026-03-28T12:46:52.654Z</time></trkpt><trkpt lat="39.2142223" lon="16.8749362"><ele>118.0</ele><time>2026-03-28T12:46:53.645Z</time></trkpt><trkpt lat="39.2142731" lon="16.8750619"><ele>118.00000000000001</ele><time>2026-03-28T12:46:54.648Z</time></trkpt><trkpt lat="39.2143173" lon="16.8751722"><ele>118.00000000000001</ele><time>2026-03-28T12:46:55.658Z</time></trkpt><trkpt lat="39.2143607" lon="16.8752874"><ele>118.0</ele><time>2026-03-28T12:46:56.649Z</time></trkpt><trkpt lat="39.214407" lon="16.8754139"><ele>118.0</ele><time>2026-03-28T12:46:57.642Z</time></trkpt><trkpt lat="39.2144636" lon="16.8755434"><ele>119.25</ele><time>2026-03-28T12:46:58.647Z</time></trkpt><trkpt lat="39.2145211" lon="16.8756698"><ele>120.5</ele><time>2026-03-28T12:46:59.645Z</time></trkpt><trkpt lat="39.2145702" lon="16.8757853"><ele>121.75</ele><time>2026-03-28T12:47:00.648Z</time></trkpt><trkpt lat="39.2146108" lon="16.8759231"><ele>123.0</ele><time>2026-03-28T12:47:01.653Z</time></trkpt><trkpt lat="39.2146371" lon="16.8760837"><ele>124.75</ele><time>2026-03-28T12:47:02.645Z</time></trkpt><trkpt lat="39.2146522" lon="16.8762498"><ele>126.5</ele><time>2026-03-28T12:47:03.651Z</time></trkpt><trkpt lat="39.2146665" lon="16.8763929"><ele>128.25</ele><time>2026-03-28T12:47:04.653Z</time></trkpt><trkpt lat="39.2146861" lon="16.8765352"><ele>130.0</ele><time>2026-03-28T12:47:05.641Z</time></trkpt><trkpt lat="39.2147068" lon="16.8766655"><ele>131.2</ele><time>2026-03-28T12:47:06.65Z</time></trkpt><trkpt lat="39.2147241" lon="16.8767878"><ele>132.4</ele><time>2026-03-28T12:47:07.645Z</time></trkpt><trkpt lat="39.2147403" lon="16.8769042"><ele>133.6</ele><time>2026-03-28T12:47:08.646Z</time></trkpt><trkpt lat="39.2147198" lon="16.8770303"><ele>134.8</ele><time>2026-03-28T12:47:09.653Z</time></trkpt><trkpt lat="39.214706" lon="16.8771496"><ele>136.0</ele><time>2026-03-28T12:47:10.646Z</time></trkpt><trkpt lat="39.2147072" lon="16.8772654"><ele>136.0</ele><time>2026-03-28T12:47:11.649Z</time></trkpt><trkpt lat="39.2147256" lon="16.8773827"><ele>136.0</ele><time>2026-03-28T12:47:12.654Z</time></trkpt><trkpt lat="39.2147676" lon="16.8775078"><ele>136.0</ele><time>2026-03-28T12:47:13.646Z</time></trkpt><trkpt lat="39.2148331" lon="16.8776149"><ele>136.0</ele><time>2026-03-28T12:47:14.653Z</time></trkpt><trkpt lat="39.2149295" lon="16.877704"><ele>136.0</ele><time>2026-03-28T12:47:15.662Z</time></trkpt><trkpt lat="39.2150227" lon="16.8777811"><ele>137.66666666666669</ele><time>2026-03-28T12:47:16.646Z</time></trkpt><trkpt lat="39.2150908" lon="16.8778721"><ele>139.33333333333334</ele><time>2026-03-28T12:47:17.651Z</time></trkpt><trkpt lat="39.2151191" lon="16.8779638"><ele>141.0</ele><time>2026-03-28T12:47:18.653Z</time></trkpt><trkpt lat="39.2151195" lon="16.8780727"><ele>142.66666666666666</ele><time>2026-03-28T12:47:19.645Z</time></trkpt><trkpt lat="39.2150984" lon="16.8781817"><ele>144.33333333333331</ele><time>2026-03-28T12:47:20.646Z</time></trkpt><trkpt lat="39.2150695" lon="16.8782738"><ele>146.0</ele><time>2026-03-28T12:47:21.656Z</time></trkpt><trkpt lat="39.2150284" lon="16.8783651"><ele>147.8</ele><time>2026-03-28T12:47:22.655Z</time></trkpt><trkpt lat="39.2149791" lon="16.8784554"><ele>149.6</ele><time>2026-03-28T12:47:23.643Z</time></trkpt><trkpt lat="39.2149176" lon="16.8785505"><ele>151.4</ele><time>2026-03-28T12:47:24.644Z</time></trkpt><trkpt lat="39.2148559" lon="16.8786569"><ele>153.2</ele><time>2026-03-28T12:47:25.658Z</time></trkpt><trkpt lat="39.2147947" lon="16.8787707"><ele>155.0</ele><time>2026-03-28T12:47:26.646Z</time></trkpt><trkpt lat="39.2147328" lon="16.8788905"><ele>155.8</ele><time>2026-03-28T12:47:27.649Z</time></trkpt><trkpt lat="39.2146719" lon="16.8790141"><ele>156.6</ele><time>2026-03-28T12:47:28.651Z</time></trkpt><trkpt lat="39.2146149" lon="16.8791281"><ele>157.4</ele><time>2026-03-28T12:47:29.652Z</time></trkpt><trkpt lat="39.2145635" lon="16.8792312"><ele>158.2</ele><time>2026-03-28T12:47:30.649Z</time></trkpt><trkpt lat="39.2145282" lon="16.8793331"><ele>159.0</ele><time>2026-03-28T12:47:31.651Z</time></trkpt><trkpt lat="39.2145131" lon="16.879444"><ele>161.83333333333334</ele><time>2026-03-28T12:47:32.652Z</time></trkpt><trkpt lat="39.2144992" lon="16.8795509"><ele>164.66666666666666</ele><time>2026-03-28T12:47:33.648Z</time></trkpt><trkpt lat="39.2144893" lon="16.8796349"><ele>167.5</ele><time>2026-03-28T12:47:34.648Z</time></trkpt><trkpt lat="39.2144137" lon="16.8796852"><ele>170.33333333333331</ele><time>2026-03-28T12:47:36.649Z</time></trkpt><trkpt lat="39.214339" lon="16.8795635"><ele>173.16666666666666</ele><time>2026-03-28T12:47:38.645Z</time></trkpt><trkpt lat="39.2142771" lon="16.8794777"><ele>176.0</ele><time>2026-03-28T12:47:39.65Z</time></trkpt><trkpt lat="39.2141993" lon="16.8794342"><ele>176.0</ele><time>2026-03-28T12:47:40.647Z</time></trkpt><trkpt lat="39.2141138" lon="16.8794455"><ele>176.0</ele><time>2026-03-28T12:47:41.642Z</time></trkpt><trkpt lat="39.214039" lon="16.879509"><ele>176.0</ele><time>2026-03-28T12:47:42.65Z</time></trkpt><trkpt lat="39.213962" lon="16.8795785"><ele>176.0</ele><time>2026-03-28T12:47:43.642Z</time></trkpt><trkpt lat="39.2139086" lon="16.8797083"><ele>176.0</ele><time>2026-03-28T12:47:44.643Z</time></trkpt><trkpt lat="39.213853" lon="16.8798655"><ele>177.0</ele><time>2026-03-28T12:47:45.653Z</time></trkpt><trkpt lat="39.2137879" lon="16.8800255"><ele>178.0</ele><time>2026-03-28T12:47:46.644Z</time></trkpt><trkpt lat="39.2137244" lon="16.8801588"><ele>179.0</ele><time>2026-03-28T12:47:47.65Z</time></trkpt><trkpt lat="39.2136929" lon="16.8802731"><ele>180.0</ele><time>2026-03-28T12:47:48.647Z</time></trkpt><trkpt lat="39.2137084" lon="16.8803955"><ele>182.4</ele><time>2026-03-28T12:47:49.645Z</time></trkpt><trkpt lat="39.2137329" lon="16.8805113"><ele>184.8</ele><time>2026-03-28T12:47:50.639Z</time></trkpt><trkpt lat="39.2137126" lon="16.8806216"><ele>187.2</ele><time>2026-03-28T12:47:51.645Z</time></trkpt><trkpt lat="39.2136665" lon="16.8807467"><ele>189.6</ele><time>2026-03-28T12:47:52.652Z</time></trkpt><trkpt lat="39.2136123" lon="16.8808995"><ele>192.0</ele><time>2026-03-28T12:47:53.639Z</time></trkpt><trkpt lat="39.2135556" lon="16.8810681"><ele>194.0</ele><time>2026-03-28T12:47:54.653Z</time></trkpt><trkpt lat="39.2135025" lon="16.8812248"><ele>196.0</ele><time>2026-03-28T12:47:55.644Z</time></trkpt><trkpt lat="39.2134578" lon="16.8813802"><ele>198.0</ele><time>2026-03-28T12:47:56.645Z</time></trkpt><trkpt lat="39.2134124" lon="16.8815447"><ele>200.0</ele><time>2026-03-28T12:47:57.653Z</time></trkpt><trkpt lat="39.2133713" lon="16.8816931"><ele>202.6</ele><time>2026-03-28T12:47:58.646Z</time></trkpt><trkpt lat="39.2133408" lon="16.8818261"><ele>205.2</ele><time>2026-03-28T12:47:59.639Z</time></trkpt><trkpt lat="39.213334" lon="16.8819371"><ele>207.8</ele><time>2026-03-28T12:48:00.645Z</time></trkpt><trkpt lat="39.2133588" lon="16.8820344"><ele>210.4</ele><time>2026-03-28T12:48:01.65Z</time></trkpt><trkpt lat="39.2133952" lon="16.8821399"><ele>213.0</ele><time>2026-03-28T12:48:02.649Z</time></trkpt><trkpt lat="39.2134943" lon="16.8822462"><ele>213.0</ele><time>2026-03-28T12:48:03.646Z</time></trkpt><trkpt lat="39.213607" lon="16.8823656"><ele>213.0</ele><time>2026-03-28T12:48:04.652Z</time></trkpt><trkpt lat="39.2137137" lon="16.8824746"><ele>213.0</ele><time>2026-03-28T12:48:05.649Z</time></trkpt><trkpt lat="39.2138104" lon="16.8825713"><ele>213.0</ele><time>2026-03-28T12:48:06.66Z</time></trkpt><trkpt lat="39.213888" lon="16.8826497"><ele>217.0</ele><time>2026-03-28T12:48:07.65Z</time></trkpt><trkpt lat="39.213924" lon="16.8827241"><ele>221.0</ele><time>2026-03-28T12:48:08.665Z</time></trkpt><trkpt lat="39.2138421" lon="16.8828216"><ele>225.0</ele><time>2026-03-28T12:48:10.651Z</time></trkpt><trkpt lat="39.2137447" lon="16.8828251"><ele>229.0</ele><time>2026-03-28T12:48:11.652Z</time></trkpt><trkpt lat="39.2136247" lon="16.8828083"><ele>233.0</ele><time>2026-03-28T12:48:12.644Z</time></trkpt><trkpt lat="39.2134862" lon="16.8827771"><ele>233.0</ele><time>2026-03-28T12:48:13.642Z</time></trkpt><trkpt lat="39.213337" lon="16.8827486"><ele>233.0</ele><time>2026-03-28T12:48:14.653Z</time></trkpt><trkpt lat="39.2131989" lon="16.8827269"><ele>233.0</ele><time>2026-03-28T12:48:15.649Z</time></trkpt><trkpt lat="39.2130769" lon="16.8827106"><ele>233.0</ele><time>2026-03-28T12:48:16.65Z</time></trkpt><trkpt lat="39.2129758" lon="16.8826996"><ele>233.0</ele><time>2026-03-28T12:48:17.648Z</time></trkpt><trkpt lat="39.2129162" lon="16.8827879"><ele>233.0</ele><time>2026-03-28T12:48:19.646Z</time></trkpt><trkpt lat="39.2130221" lon="16.882896"><ele>233.0</ele><time>2026-03-28T12:48:21.642Z</time></trkpt><trkpt lat="39.2131167" lon="16.8829766"><ele>233.0</ele><time>2026-03-28T12:48:22.651Z</time></trkpt><trkpt lat="39.2132314" lon="16.8830739"><ele>233.0</ele><time>2026-03-28T12:48:23.659Z</time></trkpt><trkpt lat="39.2133608" lon="16.8831745"><ele>233.0</ele><time>2026-03-28T12:48:24.646Z</time></trkpt><trkpt lat="39.2134724" lon="16.8832614"><ele>233.0</ele><time>2026-03-28T12:48:25.642Z</time></trkpt><trkpt lat="39.2135644" lon="16.8833272"><ele>233.0</ele><time>2026-03-28T12:48:26.647Z</time></trkpt><trkpt lat="39.2136285" lon="16.8833825"><ele>233.0</ele><time>2026-03-28T12:48:27.647Z</time></trkpt><trkpt lat="39.2135975" lon="16.8834671"><ele>233.0</ele><time>2026-03-28T12:48:29.647Z</time></trkpt><trkpt lat="39.213441" lon="16.883423"><ele>233.0</ele><time>2026-03-28T12:48:31.657Z</time></trkpt><trkpt lat="39.213317" lon="16.8833785"><ele>233.0</ele><time>2026-03-28T12:48:32.646Z</time></trkpt><trkpt lat="39.213179" lon="16.8833324"><ele>234.75</ele><time>2026-03-28T12:48:33.646Z</time></trkpt><trkpt lat="39.2130289" lon="16.8832858"><ele>236.5</ele><time>2026-03-28T12:48:34.647Z</time></trkpt><trkpt lat="39.2128849" lon="16.8832346"><ele>238.25</ele><time>2026-03-28T12:48:35.648Z</time></trkpt><trkpt lat="39.2127528" lon="16.8831878"><ele>240.0</ele><time>2026-03-28T12:48:36.639Z</time></trkpt><trkpt lat="39.2126456" lon="16.8831497"><ele>240.0</ele><time>2026-03-28T12:48:37.646Z</time></trkpt><trkpt lat="39.2125697" lon="16.8831441"><ele>240.0</ele><time>2026-03-28T12:48:38.644Z</time></trkpt><trkpt lat="39.2125174" lon="16.8832226"><ele>240.0</ele><time>2026-03-28T12:48:40.653Z</time></trkpt><trkpt lat="39.2126056" lon="16.8833957"><ele>240.0</ele><time>2026-03-28T12:48:42.648Z</time></trkpt><trkpt lat="39.2126799" lon="16.883526"><ele>240.0</ele><time>2026-03-28T12:48:43.659Z</time></trkpt><trkpt lat="39.2127545" lon="16.8836723"><ele>241.5</ele><time>2026-03-28T12:48:44.646Z</time></trkpt><trkpt lat="39.2128261" lon="16.8838211"><ele>243.0</ele><time>2026-03-28T12:48:45.645Z</time></trkpt><trkpt lat="39.2128874" lon="16.8839576"><ele>244.5</ele><time>2026-03-28T12:48:46.65Z</time></trkpt><trkpt lat="39.2129343" lon="16.8840829"><ele>246.0</ele><time>2026-03-28T12:48:47.653Z</time></trkpt><trkpt lat="39.2129737" lon="16.8842085"><ele>246.0</ele><time>2026-03-28T12:48:48.654Z</time></trkpt><trkpt lat="39.2130062" lon="16.8843309"><ele>246.0</ele><time>2026-03-28T12:48:49.647Z</time></trkpt><trkpt lat="39.2130371" lon="16.8844458"><ele>246.0</ele><time>2026-03-28T12:48:50.644Z</time></trkpt><trkpt lat="39.2130604" lon="16.8845417"><ele>246.0</ele><time>2026-03-28T12:48:51.644Z</time></trkpt><trkpt lat="39.2130747" lon="16.8846364"><ele>246.0</ele><time>2026-03-28T12:48:52.651Z</time></trkpt><trkpt lat="39.213086" lon="16.8847178"><ele>246.0</ele><time>2026-03-28T12:48:53.642Z</time></trkpt><trkpt lat="39.2130972" lon="16.8848382"><ele>246.0</ele><time>2026-03-28T12:48:55.645Z</time></trkpt><trkpt lat="39.2131004" lon="16.884924"><ele>246.00000000000003</ele><time>2026-03-28T12:48:57.646Z</time></trkpt><trkpt lat="39.2130877" lon="16.8850684"><ele>246.00000000000003</ele><time>2026-03-28T12:49:39.654Z</time></trkpt><trkpt lat="39.213035" lon="16.8851873"><ele>246.0</ele><time>2026-03-28T12:49:41.686Z</time></trkpt><trkpt lat="39.2129715" lon="16.8852794"><ele>246.0</ele><time>2026-03-28T12:49:43.645Z</time></trkpt><trkpt lat="39.2128964" lon="16.8853825"><ele>247.4</ele><time>2026-03-28T12:49:45.657Z</time></trkpt><trkpt lat="39.2128221" lon="16.8854869"><ele>248.8</ele><time>2026-03-28T12:49:47.66Z</time></trkpt><trkpt lat="39.2127667" lon="16.8855739"><ele>250.20000000000002</ele><time>2026-03-28T12:49:49.649Z</time></trkpt><trkpt lat="39.2127163" lon="16.8856533"><ele>251.60000000000002</ele><time>2026-03-28T12:49:51.646Z</time></trkpt><trkpt lat="39.2126529" lon="16.8857426"><ele>253.0</ele><time>2026-03-28T12:49:53.646Z</time></trkpt><trkpt lat="39.212578" lon="16.8858386"><ele>253.16666666666666</ele><time>2026-03-28T12:49:55.657Z</time></trkpt><trkpt lat="39.2124808" lon="16.8859513"><ele>253.33333333333331</ele><time>2026-03-28T12:49:57.659Z</time></trkpt><trkpt lat="39.2124296" lon="16.8860097"><ele>253.5</ele><time>2026-03-28T12:49:58.647Z</time></trkpt><trkpt lat="39.2123758" lon="16.8860757"><ele>253.66666666666669</ele><time>2026-03-28T12:49:59.642Z</time></trkpt><trkpt lat="39.2123273" lon="16.886147"><ele>253.83333333333334</ele><time>2026-03-28T12:50:00.652Z</time></trkpt><trkpt lat="39.2122835" lon="16.8862104"><ele>254.0</ele><time>2026-03-28T12:50:01.653Z</time></trkpt><trkpt lat="39.2122031" lon="16.8863321"><ele>254.00000000000003</ele><time>2026-03-28T12:50:03.659Z</time></trkpt><trkpt lat="39.2121587" lon="16.8864047"><ele>254.0</ele><time>2026-03-28T12:50:04.642Z</time></trkpt><trkpt lat="39.2121183" lon="16.8864816"><ele>254.0</ele><time>2026-03-28T12:50:05.653Z</time></trkpt><trkpt lat="39.2120812" lon="16.8865534"><ele>254.0</ele><time>2026-03-28T12:50:06.65Z</time></trkpt><trkpt lat="39.212021" lon="16.8866921"><ele>254.00000000000003</ele><time>2026-03-28T12:50:08.647Z</time></trkpt><trkpt lat="39.2119856" lon="16.88679"><ele>254.0</ele><time>2026-03-28T12:50:09.643Z</time></trkpt><trkpt lat="39.2119497" lon="16.8868917"><ele>255.79999999999998</ele><time>2026-03-28T12:50:10.65Z</time></trkpt><trkpt lat="39.2119107" lon="16.8870063"><ele>257.59999999999997</ele><time>2026-03-28T12:50:11.655Z</time></trkpt><trkpt lat="39.2118703" lon="16.8871191"><ele>259.4</ele><time>2026-03-28T12:50:12.642Z</time></trkpt><trkpt lat="39.211837" lon="16.8872221"><ele>261.2</ele><time>2026-03-28T12:50:13.646Z</time></trkpt><trkpt lat="39.2118024" lon="16.8873314"><ele>263.0</ele><time>2026-03-28T12:50:14.65Z</time></trkpt><trkpt lat="39.211761" lon="16.8874595"><ele>263.0</ele><time>2026-03-28T12:50:15.651Z</time></trkpt><trkpt lat="39.2117194" lon="16.8875931"><ele>263.0</ele><time>2026-03-28T12:50:16.656Z</time></trkpt><trkpt lat="39.2116836" lon="16.8877064"><ele>263.0</ele><time>2026-03-28T12:50:17.648Z</time></trkpt><trkpt lat="39.2116561" lon="16.8877964"><ele>263.0</ele><time>2026-03-28T12:50:18.645Z</time></trkpt><trkpt lat="39.2116195" lon="16.887907"><ele>263.0</ele><time>2026-03-28T12:50:20.645Z</time></trkpt><trkpt lat="39.2115936" lon="16.8880082"><ele>263.2</ele><time>2026-03-28T12:50:22.645Z</time></trkpt><trkpt lat="39.2116312" lon="16.8880739"><ele>263.4</ele><time>2026-03-28T12:50:24.648Z</time></trkpt><trkpt lat="39.2117726" lon="16.8880427"><ele>263.59999999999997</ele><time>2026-03-28T12:50:26.643Z</time></trkpt><trkpt lat="39.2118712" lon="16.888024"><ele>263.8</ele><time>2026-03-28T12:50:27.648Z</time></trkpt><trkpt lat="39.2119711" lon="16.888002"><ele>264.0</ele><time>2026-03-28T12:50:28.649Z</time></trkpt><trkpt lat="39.2120767" lon="16.8879702"><ele>264.0</ele><time>2026-03-28T12:50:29.642Z</time></trkpt><trkpt lat="39.2121712" lon="16.887932"><ele>264.0</ele><time>2026-03-28T12:50:30.644Z</time></trkpt><trkpt lat="39.2122616" lon="16.8878902"><ele>264.0</ele><time>2026-03-28T12:50:31.648Z</time></trkpt><trkpt lat="39.2123475" lon="16.8878487"><ele>264.0</ele><time>2026-03-28T12:50:32.645Z</time></trkpt><trkpt lat="39.212416" lon="16.8878117"><ele>264.0</ele><time>2026-03-28T12:50:33.654Z</time></trkpt><trkpt lat="39.2124919" lon="16.8877637"><ele>264.0</ele><time>2026-03-28T12:50:34.653Z</time></trkpt><trkpt lat="39.212563" lon="16.8877198"><ele>265.6666666666667</ele><time>2026-03-28T12:50:35.647Z</time></trkpt><trkpt lat="39.2126363" lon="16.8876709"><ele>267.3333333333333</ele><time>2026-03-28T12:50:36.647Z</time></trkpt><trkpt lat="39.2127155" lon="16.8876189"><ele>269.0</ele><time>2026-03-28T12:50:37.642Z</time></trkpt><trkpt lat="39.2127868" lon="16.8875698"><ele>270.66666666666663</ele><time>2026-03-28T12:50:38.651Z</time></trkpt><trkpt lat="39.2128582" lon="16.8875243"><ele>272.3333333333333</ele><time>2026-03-28T12:50:39.642Z</time></trkpt><trkpt lat="39.2129371" lon="16.8874732"><ele>274.0</ele><time>2026-03-28T12:50:40.647Z</time></trkpt><trkpt lat="39.2130151" lon="16.8874305"><ele>274.0</ele><time>2026-03-28T12:50:41.649Z</time></trkpt><trkpt lat="39.213092" lon="16.8873939"><ele>274.0</ele><time>2026-03-28T12:50:42.648Z</time></trkpt><trkpt lat="39.2131712" lon="16.8873709"><ele>274.0</ele><time>2026-03-28T12:50:43.645Z</time></trkpt><trkpt lat="39.2132585" lon="16.887368"><ele>274.0</ele><time>2026-03-28T12:50:44.648Z</time></trkpt><trkpt lat="39.2133525" lon="16.8873821"><ele>274.0</ele><time>2026-03-28T12:50:45.647Z</time></trkpt><trkpt lat="39.2134376" lon="16.8874015"><ele>274.0</ele><time>2026-03-28T12:50:46.648Z</time></trkpt><trkpt lat="39.2135379" lon="16.8874274"><ele>275.59999999999997</ele><time>2026-03-28T12:50:47.647Z</time></trkpt><trkpt lat="39.2136341" lon="16.8874541"><ele>277.2</ele><time>2026-03-28T12:50:48.681Z</time></trkpt><trkpt lat="39.2137287" lon="16.8874824"><ele>278.79999999999995</ele><time>2026-03-28T12:50:49.644Z</time></trkpt><trkpt lat="39.2138349" lon="16.8875156"><ele>280.4</ele><time>2026-03-28T12:50:50.644Z</time></trkpt><trkpt lat="39.2139517" lon="16.8875488"><ele>282.0</ele><time>2026-03-28T12:50:51.64Z</time></trkpt><trkpt lat="39.2140544" lon="16.8875816"><ele>284.2</ele><time>2026-03-28T12:50:52.657Z</time></trkpt><trkpt lat="39.2141458" lon="16.8876218"><ele>286.4</ele><time>2026-03-28T12:50:53.65Z</time></trkpt><trkpt lat="39.214235" lon="16.8876616"><ele>288.6</ele><time>2026-03-28T12:50:54.659Z</time></trkpt><trkpt lat="39.2143123" lon="16.8877425"><ele>290.8</ele><time>2026-03-28T12:50:55.66Z</time></trkpt><trkpt lat="39.2143894" lon="16.8878525"><ele>293.0</ele><time>2026-03-28T12:50:56.645Z</time></trkpt><trkpt lat="39.214454" lon="16.887965"><ele>293.0</ele><time>2026-03-28T12:50:57.646Z</time></trkpt><trkpt lat="39.2145143" lon="16.8880856"><ele>293.0</ele><time>2026-03-28T12:50:58.647Z</time></trkpt><trkpt lat="39.2145639" lon="16.8881928"><ele>293.0</ele><time>2026-03-28T12:50:59.648Z</time></trkpt><trkpt lat="39.2146124" lon="16.8882911"><ele>293.0</ele><time>2026-03-28T12:51:00.654Z</time></trkpt><trkpt lat="39.2146752" lon="16.8883963"><ele>293.0</ele><time>2026-03-28T12:51:01.646Z</time></trkpt><trkpt lat="39.2147431" lon="16.8884892"><ele>293.2</ele><time>2026-03-28T12:51:02.649Z</time></trkpt><trkpt lat="39.21482" lon="16.8885778"><ele>293.4</ele><time>2026-03-28T12:51:03.645Z</time></trkpt><trkpt lat="39.2148981" lon="16.888668"><ele>293.59999999999997</ele><time>2026-03-28T12:51:04.642Z</time></trkpt><trkpt lat="39.2149832" lon="16.8887439"><ele>293.8</ele><time>2026-03-28T12:51:05.649Z</time></trkpt><trkpt lat="39.2150542" lon="16.8888061"><ele>294.0</ele><time>2026-03-28T12:51:06.651Z</time></trkpt><trkpt lat="39.2151142" lon="16.8888555"><ele>293.59999999999997</ele><time>2026-03-28T12:51:07.645Z</time></trkpt><trkpt lat="39.2151798" lon="16.8889105"><ele>293.2</ele><time>2026-03-28T12:51:08.639Z</time></trkpt><trkpt lat="39.2152561" lon="16.8889762"><ele>292.79999999999995</ele><time>2026-03-28T12:51:09.65Z</time></trkpt><trkpt lat="39.2153311" lon="16.8890403"><ele>292.4</ele><time>2026-03-28T12:51:10.649Z</time></trkpt><trkpt lat="39.2154167" lon="16.8890929"><ele>292.0</ele><time>2026-03-28T12:51:11.646Z</time></trkpt><trkpt lat="39.2154987" lon="16.8891584"><ele>292.0</ele><time>2026-03-28T12:51:12.641Z</time></trkpt><trkpt lat="39.2155793" lon="16.8892239"><ele>292.0</ele><time>2026-03-28T12:51:13.646Z</time></trkpt><trkpt lat="39.2156402" lon="16.8893077"><ele>292.0</ele><time>2026-03-28T12:51:14.647Z</time></trkpt><trkpt lat="39.2157008" lon="16.8894087"><ele>292.0</ele><time>2026-03-28T12:51:15.643Z</time></trkpt><trkpt lat="39.2157535" lon="16.8895196"><ele>292.0</ele><time>2026-03-28T12:51:16.648Z</time></trkpt><trkpt lat="39.2158016" lon="16.8896328"><ele>290.66666666666663</ele><time>2026-03-28T12:51:17.652Z</time></trkpt><trkpt lat="39.2158465" lon="16.8897371"><ele>289.3333333333333</ele><time>2026-03-28T12:51:18.65Z</time></trkpt><trkpt lat="39.2158903" lon="16.8898264"><ele>288.0</ele><time>2026-03-28T12:51:19.65Z</time></trkpt><trkpt lat="39.215941" lon="16.8899049"><ele>286.6666666666667</ele><time>2026-03-28T12:51:20.648Z</time></trkpt><trkpt lat="39.2159883" lon="16.8899704"><ele>285.33333333333337</ele><time>2026-03-28T12:51:21.645Z</time></trkpt><trkpt lat="39.2160344" lon="16.8900327"><ele>284.0</ele><time>2026-03-28T12:51:22.647Z</time></trkpt><trkpt lat="39.2160849" lon="16.8901444"><ele>279.2</ele><time>2026-03-28T12:51:24.646Z</time></trkpt><trkpt lat="39.2161143" lon="16.8902499"><ele>274.4</ele><time>2026-03-28T12:51:26.645Z</time></trkpt><trkpt lat="39.2161559" lon="16.8903578"><ele>269.6</ele><time>2026-03-28T12:51:28.645Z</time></trkpt><trkpt lat="39.2162321" lon="16.8904438"><ele>264.8</ele><time>2026-03-28T12:51:30.646Z</time></trkpt><trkpt lat="39.2162919" lon="16.8904939"><ele>260.0</ele><time>2026-03-28T12:51:32.648Z</time></trkpt><trkpt lat="39.2163834" lon="16.89057"><ele>260.0</ele><time>2026-03-28T12:51:35.647Z</time></trkpt><trkpt lat="39.2164648" lon="16.8906428"><ele>260.0</ele><time>2026-03-28T12:51:37.649Z</time></trkpt><trkpt lat="39.2165675" lon="16.8907192"><ele>260.0</ele><time>2026-03-28T12:51:39.643Z</time></trkpt><trkpt lat="39.2166285" lon="16.8907618"><ele>260.0</ele><time>2026-03-28T12:51:40.646Z</time></trkpt><trkpt lat="39.2166877" lon="16.890807"><ele>260.0</ele><time>2026-03-28T12:51:41.647Z</time></trkpt><trkpt lat="39.2167441" lon="16.8908524"><ele>260.0</ele><time>2026-03-28T12:51:42.647Z</time></trkpt><trkpt lat="39.2167992" lon="16.8909004"><ele>258.1666666666667</ele><time>2026-03-28T12:51:43.647Z</time></trkpt><trkpt lat="39.2168588" lon="16.8909592"><ele>256.33333333333337</ele><time>2026-03-28T12:51:44.643Z</time></trkpt><trkpt lat="39.2169211" lon="16.8910373"><ele>254.5</ele><time>2026-03-28T12:51:45.643Z</time></trkpt><trkpt lat="39.2169765" lon="16.8911246"><ele>252.66666666666669</ele><time>2026-03-28T12:51:46.643Z</time></trkpt><trkpt lat="39.2170316" lon="16.8912134"><ele>250.83333333333334</ele><time>2026-03-28T12:51:47.683Z</time></trkpt><trkpt lat="39.2170921" lon="16.8913049"><ele>249.0</ele><time>2026-03-28T12:51:48.644Z</time></trkpt><trkpt lat="39.217151" lon="16.8913935"><ele>249.0</ele><time>2026-03-28T12:51:49.644Z</time></trkpt><trkpt lat="39.2172078" lon="16.8914738"><ele>249.0</ele><time>2026-03-28T12:51:50.643Z</time></trkpt><trkpt lat="39.2172628" lon="16.8915487"><ele>249.0</ele><time>2026-03-28T12:51:51.646Z</time></trkpt><trkpt lat="39.217319" lon="16.8916232"><ele>249.0</ele><time>2026-03-28T12:51:52.646Z</time></trkpt><trkpt lat="39.217375" lon="16.8917017"><ele>249.0</ele><time>2026-03-28T12:51:53.64Z</time></trkpt><trkpt lat="39.2174357" lon="16.8917912"><ele>249.0</ele><time>2026-03-28T12:51:54.65Z</time></trkpt><trkpt lat="39.2174986" lon="16.8918839"><ele>250.79999999999998</ele><time>2026-03-28T12:51:55.644Z</time></trkpt><trkpt lat="39.2175611" lon="16.8919755"><ele>252.59999999999997</ele><time>2026-03-28T12:51:56.646Z</time></trkpt><trkpt lat="39.2176262" lon="16.8920717"><ele>254.4</ele><time>2026-03-28T12:51:57.645Z</time></trkpt><trkpt lat="39.217693" lon="16.8921702"><ele>256.2</ele><time>2026-03-28T12:51:58.659Z</time></trkpt><trkpt lat="39.2177588" lon="16.8922661"><ele>258.0</ele><time>2026-03-28T12:51:59.645Z</time></trkpt><trkpt lat="39.2178246" lon="16.8923584"><ele>258.0</ele><time>2026-03-28T12:52:00.645Z</time></trkpt><trkpt lat="39.2178888" lon="16.8924461"><ele>258.0</ele><time>2026-03-28T12:52:01.639Z</time></trkpt><trkpt lat="39.2179503" lon="16.8925342"><ele>258.0</ele><time>2026-03-28T12:52:02.651Z</time></trkpt><trkpt lat="39.2180102" lon="16.8926235"><ele>258.0</ele><time>2026-03-28T12:52:03.643Z</time></trkpt><trkpt lat="39.2180714" lon="16.8927131"><ele>258.0</ele><time>2026-03-28T12:52:04.65Z</time></trkpt><trkpt lat="39.2181394" lon="16.8928011"><ele>259.0</ele><time>2026-03-28T12:52:05.651Z</time></trkpt><trkpt lat="39.2182094" lon="16.8928786"><ele>260.0</ele><time>2026-03-28T12:52:06.662Z</time></trkpt><trkpt lat="39.2182716" lon="16.8929371"><ele>261.0</ele><time>2026-03-28T12:52:07.647Z</time></trkpt><trkpt lat="39.2183268" lon="16.89299"><ele>262.0</ele><time>2026-03-28T12:52:08.651Z</time></trkpt><trkpt lat="39.2183823" lon="16.8930409"><ele>263.0</ele><time>2026-03-28T12:52:09.65Z</time></trkpt><trkpt lat="39.2184483" lon="16.8931017"><ele>264.0</ele><time>2026-03-28T12:52:10.657Z</time></trkpt><trkpt lat="39.2185087" lon="16.8931549"><ele>264.0</ele><time>2026-03-28T12:52:11.642Z</time></trkpt><trkpt lat="39.218572" lon="16.8932118"><ele>264.0</ele><time>2026-03-28T12:52:12.648Z</time></trkpt><trkpt lat="39.218637" lon="16.8932715"><ele>264.0</ele><time>2026-03-28T12:52:13.641Z</time></trkpt><trkpt lat="39.2187052" lon="16.8933284"><ele>264.0</ele><time>2026-03-28T12:52:14.64Z</time></trkpt><trkpt lat="39.2187771" lon="16.8933754"><ele>264.0</ele><time>2026-03-28T12:52:15.65Z</time></trkpt><trkpt lat="39.218847" lon="16.8934244"><ele>264.0</ele><time>2026-03-28T12:52:16.645Z</time></trkpt><trkpt lat="39.218933" lon="16.8934976"><ele>264.59999999999997</ele><time>2026-03-28T12:52:17.644Z</time></trkpt><trkpt lat="39.2190364" lon="16.8935909"><ele>265.2</ele><time>2026-03-28T12:52:18.644Z</time></trkpt><trkpt lat="39.2191285" lon="16.8936796"><ele>265.79999999999995</ele><time>2026-03-28T12:52:19.645Z</time></trkpt><trkpt lat="39.2192103" lon="16.8937522"><ele>266.4</ele><time>2026-03-28T12:52:20.647Z</time></trkpt><trkpt lat="39.2192964" lon="16.8938202"><ele>267.0</ele><time>2026-03-28T12:52:21.647Z</time></trkpt><trkpt lat="39.219376" lon="16.8938937"><ele>267.0</ele><time>2026-03-28T12:52:22.646Z</time></trkpt><trkpt lat="39.2194469" lon="16.8939567"><ele>267.0</ele><time>2026-03-28T12:52:23.641Z</time></trkpt><trkpt lat="39.2195152" lon="16.8940279"><ele>267.0</ele><time>2026-03-28T12:52:24.647Z</time></trkpt><trkpt lat="39.2195851" lon="16.8941054"><ele>267.0</ele><time>2026-03-28T12:52:25.646Z</time></trkpt><trkpt lat="39.2196614" lon="16.8941909"><ele>267.0</ele><time>2026-03-28T12:52:26.65Z</time></trkpt><trkpt lat="39.2197384" lon="16.8942785"><ele>269.6</ele><time>2026-03-28T12:52:27.648Z</time></trkpt><trkpt lat="39.2198129" lon="16.8943583"><ele>272.2</ele><time>2026-03-28T12:52:28.645Z</time></trkpt><trkpt lat="39.2198861" lon="16.8944339"><ele>274.8</ele><time>2026-03-28T12:52:29.644Z</time></trkpt><trkpt lat="39.2199654" lon="16.8945135"><ele>277.4</ele><time>2026-03-28T12:52:30.645Z</time></trkpt><trkpt lat="39.2200517" lon="16.8946025"><ele>280.0</ele><time>2026-03-28T12:52:31.646Z</time></trkpt><trkpt lat="39.2201381" lon="16.8946914"><ele>280.0</ele><time>2026-03-28T12:52:32.645Z</time></trkpt><trkpt lat="39.2202166" lon="16.8947727"><ele>280.0</ele><time>2026-03-28T12:52:33.645Z</time></trkpt><trkpt lat="39.2202922" lon="16.8948519"><ele>280.0</ele><time>2026-03-28T12:52:34.664Z</time></trkpt><trkpt lat="39.2203647" lon="16.8949378"><ele>280.0</ele><time>2026-03-28T12:52:35.654Z</time></trkpt><trkpt lat="39.2204437" lon="16.8950335"><ele>280.0</ele><time>2026-03-28T12:52:36.655Z</time></trkpt><trkpt lat="39.2205238" lon="16.8951433"><ele>281.75</ele><time>2026-03-28T12:52:37.654Z</time></trkpt><trkpt lat="39.2206061" lon="16.8952729"><ele>283.5</ele><time>2026-03-28T12:52:38.647Z</time></trkpt><trkpt lat="39.2206878" lon="16.895389"><ele>285.25</ele><time>2026-03-28T12:52:39.642Z</time></trkpt><trkpt lat="39.2207804" lon="16.8955005"><ele>287.0</ele><time>2026-03-28T12:52:40.641Z</time></trkpt><trkpt lat="39.2208946" lon="16.8956189"><ele>287.0</ele><time>2026-03-28T12:52:41.648Z</time></trkpt><trkpt lat="39.2210268" lon="16.8957451"><ele>287.0</ele><time>2026-03-28T12:52:42.651Z</time></trkpt><trkpt lat="39.2211714" lon="16.8958832"><ele>287.0</ele><time>2026-03-28T12:52:43.662Z</time></trkpt><trkpt lat="39.2213205" lon="16.8960258"><ele>289.0</ele><time>2026-03-28T12:52:44.649Z</time></trkpt><trkpt lat="39.2214778" lon="16.8961667"><ele>291.0</ele><time>2026-03-28T12:52:45.645Z</time></trkpt><trkpt lat="39.221622" lon="16.8962943"><ele>293.0</ele><time>2026-03-28T12:52:46.651Z</time></trkpt><trkpt lat="39.2217522" lon="16.8964108"><ele>293.0</ele><time>2026-03-28T12:52:47.646Z</time></trkpt><trkpt lat="39.2218711" lon="16.8965121"><ele>293.0</ele><time>2026-03-28T12:52:48.643Z</time></trkpt><trkpt lat="39.2219899" lon="16.8966016"><ele>293.0</ele><time>2026-03-28T12:52:49.646Z</time></trkpt><trkpt lat="39.2221203" lon="16.8966978"><ele>293.0</ele><time>2026-03-28T12:52:50.657Z</time></trkpt><trkpt lat="39.2222399" lon="16.8968221"><ele>294.6666666666667</ele><time>2026-03-28T12:52:51.645Z</time></trkpt><trkpt lat="39.2223713" lon="16.8969317"><ele>296.3333333333333</ele><time>2026-03-28T12:52:52.651Z</time></trkpt><trkpt lat="39.2225223" lon="16.8970444"><ele>298.0</ele><time>2026-03-28T12:52:53.663Z</time></trkpt><trkpt lat="39.2226864" lon="16.8971658"><ele>298.0</ele><time>2026-03-28T12:52:54.642Z</time></trkpt><trkpt lat="39.2228602" lon="16.8972925"><ele>298.0</ele><time>2026-03-28T12:52:55.644Z</time></trkpt><trkpt lat="39.2230408" lon="16.8974209"><ele>298.0</ele><time>2026-03-28T12:52:56.647Z</time></trkpt><trkpt lat="39.2232257" lon="16.8975631"><ele>298.0</ele><time>2026-03-28T12:52:57.646Z</time></trkpt><trkpt lat="39.2234069" lon="16.8977108"><ele>298.0</ele><time>2026-03-28T12:52:58.65Z</time></trkpt><trkpt lat="39.2235683" lon="16.8978522"><ele>298.0</ele><time>2026-03-28T12:52:59.649Z</time></trkpt><trkpt lat="39.2237131" lon="16.8979737"><ele>298.0</ele><time>2026-03-28T12:53:00.651Z</time></trkpt><trkpt lat="39.2238518" lon="16.8980958"><ele>298.0</ele><time>2026-03-28T12:53:01.657Z</time></trkpt><trkpt lat="39.2239987" lon="16.8982249"><ele>298.0</ele><time>2026-03-28T12:53:02.651Z</time></trkpt><trkpt lat="39.2241366" lon="16.898344"><ele>294.3333333333333</ele><time>2026-03-28T12:53:03.651Z</time></trkpt><trkpt lat="39.2242828" lon="16.8984641"><ele>290.6666666666667</ele><time>2026-03-28T12:53:04.654Z</time></trkpt><trkpt lat="39.2244373" lon="16.8985913"><ele>287.0</ele><time>2026-03-28T12:53:05.65Z</time></trkpt><trkpt lat="39.2245867" lon="16.8987272"><ele>287.0</ele><time>2026-03-28T12:53:06.655Z</time></trkpt><trkpt lat="39.224718" lon="16.8988653"><ele>287.0</ele><time>2026-03-28T12:53:07.654Z</time></trkpt><trkpt lat="39.2248407" lon="16.8990138"><ele>287.0</ele><time>2026-03-28T12:53:08.649Z</time></trkpt><trkpt lat="39.2249771" lon="16.8991759"><ele>286.33333333333337</ele><time>2026-03-28T12:53:09.649Z</time></trkpt><trkpt lat="39.2251264" lon="16.8993465"><ele>285.6666666666667</ele><time>2026-03-28T12:53:10.65Z</time></trkpt><trkpt lat="39.2252763" lon="16.899508"><ele>285.0</ele><time>2026-03-28T12:53:11.647Z</time></trkpt><trkpt lat="39.2254229" lon="16.8996594"><ele>285.0</ele><time>2026-03-28T12:53:12.653Z</time></trkpt><trkpt lat="39.2255722" lon="16.899813"><ele>285.0</ele><time>2026-03-28T12:53:13.656Z</time></trkpt><trkpt lat="39.2257176" lon="16.8999702"><ele>285.0</ele><time>2026-03-28T12:53:14.651Z</time></trkpt><trkpt lat="39.2258712" lon="16.9001264"><ele>287.0</ele><time>2026-03-28T12:53:15.653Z</time></trkpt><trkpt lat="39.2260097" lon="16.9002844"><ele>289.0</ele><time>2026-03-28T12:53:16.645Z</time></trkpt><trkpt lat="39.2261442" lon="16.900425"><ele>291.0</ele><time>2026-03-28T12:53:17.651Z</time></trkpt><trkpt lat="39.2262756" lon="16.9005617"><ele>291.0</ele><time>2026-03-28T12:53:18.656Z</time></trkpt><trkpt lat="39.2263971" lon="16.9006983"><ele>291.0</ele><time>2026-03-28T12:53:19.647Z</time></trkpt><trkpt lat="39.2265077" lon="16.9008318"><ele>291.0</ele><time>2026-03-28T12:53:20.654Z</time></trkpt><trkpt lat="39.2266065" lon="16.9009686"><ele>298.25</ele><time>2026-03-28T12:53:21.647Z</time></trkpt><trkpt lat="39.2266924" lon="16.9011113"><ele>305.5</ele><time>2026-03-28T12:53:22.646Z</time></trkpt><trkpt lat="39.2267528" lon="16.9012631"><ele>312.75</ele><time>2026-03-28T12:53:23.644Z</time></trkpt><trkpt lat="39.226792" lon="16.9014347"><ele>320.0</ele><time>2026-03-28T12:53:24.647Z</time></trkpt><trkpt lat="39.2268104" lon="16.9016272"><ele>320.25</ele><time>2026-03-28T12:53:25.642Z</time></trkpt><trkpt lat="39.2268319" lon="16.9018158"><ele>320.5</ele><time>2026-03-28T12:53:26.645Z</time></trkpt><trkpt lat="39.2268722" lon="16.9019998"><ele>320.75</ele><time>2026-03-28T12:53:27.646Z</time></trkpt><trkpt lat="39.2269316" lon="16.9021665"><ele>321.0</ele><time>2026-03-28T12:53:28.65Z</time></trkpt><trkpt lat="39.2270125" lon="16.902323"><ele>321.0</ele><time>2026-03-28T12:53:29.646Z</time></trkpt><trkpt lat="39.2271155" lon="16.9024842"><ele>321.0</ele><time>2026-03-28T12:53:30.648Z</time></trkpt><trkpt lat="39.2272358" lon="16.9026562"><ele>321.0</ele><time>2026-03-28T12:53:31.651Z</time></trkpt><trkpt lat="39.2273666" lon="16.9028225"><ele>325.3333333333333</ele><time>2026-03-28T12:53:32.646Z</time></trkpt><trkpt lat="39.2274986" lon="16.9029886"><ele>329.66666666666663</ele><time>2026-03-28T12:53:33.647Z</time></trkpt><trkpt lat="39.2276325" lon="16.9031229"><ele>334.0</ele><time>2026-03-28T12:53:34.645Z</time></trkpt><trkpt lat="39.227756" lon="16.9032408"><ele>334.0</ele><time>2026-03-28T12:53:35.643Z</time></trkpt><trkpt lat="39.2278699" lon="16.9033481"><ele>334.0</ele><time>2026-03-28T12:53:36.64Z</time></trkpt><trkpt lat="39.2279602" lon="16.9034375"><ele>334.0</ele><time>2026-03-28T12:53:37.641Z</time></trkpt><trkpt lat="39.2280378" lon="16.903507"><ele>334.0</ele><time>2026-03-28T12:53:38.649Z</time></trkpt><trkpt lat="39.2281193" lon="16.9035452"><ele>334.0</ele><time>2026-03-28T12:53:39.65Z</time></trkpt><trkpt lat="39.2282267" lon="16.9035614"><ele>335.0</ele><time>2026-03-28T12:53:40.643Z</time></trkpt><trkpt lat="39.2283592" lon="16.903575"><ele>336.0</ele><time>2026-03-28T12:53:41.649Z</time></trkpt><trkpt lat="39.2285069" lon="16.9035906"><ele>337.0</ele><time>2026-03-28T12:53:42.656Z</time></trkpt><trkpt lat="39.2286825" lon="16.9036213"><ele>337.0</ele><time>2026-03-28T12:53:43.646Z</time></trkpt><trkpt lat="39.2288495" lon="16.9036517"><ele>337.0</ele><time>2026-03-28T12:53:44.646Z</time></trkpt><trkpt lat="39.2289993" lon="16.9036898"><ele>337.0</ele><time>2026-03-28T12:53:45.647Z</time></trkpt><trkpt lat="39.2291312" lon="16.9037426"><ele>338.0</ele><time>2026-03-28T12:53:46.648Z</time></trkpt><trkpt lat="39.229232" lon="16.9037655"><ele>339.0</ele><time>2026-03-28T12:53:47.649Z</time></trkpt><trkpt lat="39.2293323" lon="16.9037582"><ele>340.0</ele><time>2026-03-28T12:53:48.648Z</time></trkpt><trkpt lat="39.2294488" lon="16.9037264"><ele>341.0</ele><time>2026-03-28T12:53:49.648Z</time></trkpt><trkpt lat="39.2295565" lon="16.9036999"><ele>342.0</ele><time>2026-03-28T12:53:50.657Z</time></trkpt><trkpt lat="39.2296539" lon="16.9036845"><ele>342.0</ele><time>2026-03-28T12:53:51.645Z</time></trkpt><trkpt lat="39.2297207" lon="16.9036861"><ele>342.0</ele><time>2026-03-28T12:53:52.655Z</time></trkpt><trkpt lat="39.2297845" lon="16.9036841"><ele>342.0</ele><time>2026-03-28T12:53:54.652Z</time></trkpt><trkpt lat="39.2298638" lon="16.9036881"><ele>355.0</ele><time>2026-03-28T12:53:57.651Z</time></trkpt><trkpt lat="39.2298928" lon="16.9037605"><ele>355.0</ele><time>2026-03-28T12:53:59.645Z</time></trkpt></trkseg><trkseg><trkpt lat="39.2298556" lon="16.9037075"><ele>352.4</ele><time>2026-03-28T13:54:47.63Z</time></trkpt><trkpt lat="39.2297638" lon="16.9037"><ele>349.8</ele><time>2026-03-28T13:54:49.671Z</time></trkpt><trkpt lat="39.2296568" lon="16.9036985"><ele>347.20000000000005</ele><time>2026-03-28T13:54:51.655Z</time></trkpt><trkpt lat="39.2295538" lon="16.9037164"><ele>344.6</ele><time>2026-03-28T13:54:53.654Z</time></trkpt><trkpt lat="39.2294446" lon="16.9037413"><ele>342.0</ele><time>2026-03-28T13:54:55.648Z</time></trkpt><trkpt lat="39.2293227" lon="16.9037665"><ele>342.0</ele><time>2026-03-28T13:54:57.655Z</time></trkpt><trkpt lat="39.2291971" lon="16.9037693"><ele>342.0</ele><time>2026-03-28T13:54:59.649Z</time></trkpt><trkpt lat="39.2291296" lon="16.9037477"><ele>342.0</ele><time>2026-03-28T13:55:00.646Z</time></trkpt><trkpt lat="39.2290554" lon="16.9037201"><ele>342.0</ele><time>2026-03-28T13:55:01.655Z</time></trkpt><trkpt lat="39.2289712" lon="16.9036903"><ele>342.0</ele><time>2026-03-28T13:55:02.653Z</time></trkpt><trkpt lat="39.2288693" lon="16.9036606"><ele>341.0</ele><time>2026-03-28T13:55:03.66Z</time></trkpt><trkpt lat="39.2287604" lon="16.903636"><ele>340.0</ele><time>2026-03-28T13:55:04.65Z</time></trkpt><trkpt lat="39.2286526" lon="16.9036167"><ele>339.0</ele><time>2026-03-28T13:55:05.65Z</time></trkpt><trkpt lat="39.2285534" lon="16.9036005"><ele>338.0</ele><time>2026-03-28T13:55:06.648Z</time></trkpt><trkpt lat="39.2284671" lon="16.903585"><ele>337.0</ele><time>2026-03-28T13:55:07.663Z</time></trkpt><trkpt lat="39.2283907" lon="16.9035718"><ele>337.0</ele><time>2026-03-28T13:55:08.659Z</time></trkpt><trkpt lat="39.2283193" lon="16.9035653"><ele>337.0</ele><time>2026-03-28T13:55:09.658Z</time></trkpt><trkpt lat="39.2281948" lon="16.9035454"><ele>337.0</ele><time>2026-03-28T13:55:11.655Z</time></trkpt><trkpt lat="39.2281303" lon="16.9035248"><ele>337.0</ele><time>2026-03-28T13:55:12.671Z</time></trkpt><trkpt lat="39.2280624" lon="16.9034933"><ele>337.0</ele><time>2026-03-28T13:55:13.66Z</time></trkpt><trkpt lat="39.2279916" lon="16.9034448"><ele>337.0</ele><time>2026-03-28T13:55:14.654Z</time></trkpt><trkpt lat="39.2279182" lon="16.9033801"><ele>336.40000000000003</ele><time>2026-03-28T13:55:15.644Z</time></trkpt><trkpt lat="39.2278413" lon="16.9033073"><ele>335.8</ele><time>2026-03-28T13:55:16.651Z</time></trkpt><trkpt lat="39.2277588" lon="16.9032311"><ele>335.2</ele><time>2026-03-28T13:55:17.655Z</time></trkpt><trkpt lat="39.2276744" lon="16.903151"><ele>334.6</ele><time>2026-03-28T13:55:18.647Z</time></trkpt><trkpt lat="39.2275905" lon="16.9030672"><ele>334.0</ele><time>2026-03-28T13:55:19.65Z</time></trkpt><trkpt lat="39.2275059" lon="16.9029804"><ele>334.0</ele><time>2026-03-28T13:55:20.656Z</time></trkpt><trkpt lat="39.2274229" lon="16.9028886"><ele>334.0</ele><time>2026-03-28T13:55:21.647Z</time></trkpt><trkpt lat="39.2273408" lon="16.9027923"><ele>334.0</ele><time>2026-03-28T13:55:22.65Z</time></trkpt><trkpt lat="39.2272596" lon="16.9026936"><ele>334.0</ele><time>2026-03-28T13:55:23.651Z</time></trkpt><trkpt lat="39.2271814" lon="16.902591"><ele>334.0</ele><time>2026-03-28T13:55:24.646Z</time></trkpt><trkpt lat="39.2271101" lon="16.9024882"><ele>331.4</ele><time>2026-03-28T13:55:25.646Z</time></trkpt><trkpt lat="39.2270489" lon="16.9023908"><ele>328.79999999999995</ele><time>2026-03-28T13:55:26.644Z</time></trkpt><trkpt lat="39.2269943" lon="16.9022949"><ele>326.20000000000005</ele><time>2026-03-28T13:55:27.648Z</time></trkpt><trkpt lat="39.2269429" lon="16.9021932"><ele>323.6</ele><time>2026-03-28T13:55:28.648Z</time></trkpt><trkpt lat="39.2269012" lon="16.9020912"><ele>321.0</ele><time>2026-03-28T13:55:29.649Z</time></trkpt><trkpt lat="39.2268674" lon="16.9019903"><ele>321.0</ele><time>2026-03-28T13:55:30.643Z</time></trkpt><trkpt lat="39.2268424" lon="16.9018935"><ele>321.0</ele><time>2026-03-28T13:55:31.644Z</time></trkpt><trkpt lat="39.2268247" lon="16.9017581"><ele>321.0</ele><time>2026-03-28T13:55:33.646Z</time></trkpt><trkpt lat="39.2268191" lon="16.9016593"><ele>321.0</ele><time>2026-03-28T13:55:36.658Z</time></trkpt><trkpt lat="39.2267659" lon="16.9015725"><ele>321.0</ele><time>2026-03-28T13:58:15.664Z</time></trkpt><trkpt lat="39.2267071" lon="16.901603"><ele>321.0</ele><time>2026-03-28T13:58:27.656Z</time></trkpt><trkpt lat="39.226663" lon="16.9017035"><ele>321.0</ele><time>2026-03-28T13:58:29.652Z</time></trkpt><trkpt lat="39.2266264" lon="16.9017717"><ele>321.0</ele><time>2026-03-28T13:58:30.646Z</time></trkpt><trkpt lat="39.2265776" lon="16.9018527"><ele>321.0</ele><time>2026-03-28T13:58:31.643Z</time></trkpt><trkpt lat="39.2265182" lon="16.9019475"><ele>321.0</ele><time>2026-03-28T13:58:32.647Z</time></trkpt><trkpt lat="39.2264548" lon="16.9020504"><ele>321.0</ele><time>2026-03-28T13:58:33.654Z</time></trkpt><trkpt lat="39.2263953" lon="16.9021476"><ele>321.0</ele><time>2026-03-28T13:58:34.646Z</time></trkpt><trkpt lat="39.2263507" lon="16.9022312"><ele>318.2857142857143</ele><time>2026-03-28T13:58:35.648Z</time></trkpt><trkpt lat="39.2263187" lon="16.9023072"><ele>315.57142857142856</ele><time>2026-03-28T13:58:36.647Z</time></trkpt><trkpt lat="39.2262981" lon="16.9023889"><ele>312.8571428571429</ele><time>2026-03-28T13:58:37.648Z</time></trkpt><trkpt lat="39.2262874" lon="16.9024743"><ele>310.1428571428571</ele><time>2026-03-28T13:58:38.657Z</time></trkpt><trkpt lat="39.2262883" lon="16.9025619"><ele>307.42857142857144</ele><time>2026-03-28T13:58:39.641Z</time></trkpt><trkpt lat="39.2262979" lon="16.9026584"><ele>304.7142857142857</ele><time>2026-03-28T13:58:40.646Z</time></trkpt><trkpt lat="39.2263143" lon="16.9027614"><ele>302.0</ele><time>2026-03-28T13:58:41.642Z</time></trkpt><trkpt lat="39.2263338" lon="16.9028564"><ele>302.0</ele><time>2026-03-28T13:58:42.647Z</time></trkpt><trkpt lat="39.2263535" lon="16.9029508"><ele>302.0</ele><time>2026-03-28T13:58:43.653Z</time></trkpt><trkpt lat="39.2263718" lon="16.9030672"><ele>302.0</ele><time>2026-03-28T13:58:44.645Z</time></trkpt><trkpt lat="39.2263907" lon="16.9032276"><ele>302.0</ele><time>2026-03-28T13:58:45.661Z</time></trkpt><trkpt lat="39.2264113" lon="16.9034219"><ele>302.0</ele><time>2026-03-28T13:58:46.651Z</time></trkpt><trkpt lat="39.226422" lon="16.9036228"><ele>302.5</ele><time>2026-03-28T13:58:47.645Z</time></trkpt><trkpt lat="39.2264361" lon="16.9038078"><ele>303.0</ele><time>2026-03-28T13:58:48.649Z</time></trkpt><trkpt lat="39.226466" lon="16.9039841"><ele>303.5</ele><time>2026-03-28T13:58:49.65Z</time></trkpt><trkpt lat="39.2265125" lon="16.9041666"><ele>304.0</ele><time>2026-03-28T13:58:50.642Z</time></trkpt><trkpt lat="39.2265649" lon="16.9043298"><ele>305.4</ele><time>2026-03-28T13:58:51.649Z</time></trkpt><trkpt lat="39.2266132" lon="16.9044791"><ele>306.79999999999995</ele><time>2026-03-28T13:58:52.65Z</time></trkpt><trkpt lat="39.2266596" lon="16.9046139"><ele>308.20000000000005</ele><time>2026-03-28T13:58:53.645Z</time></trkpt><trkpt lat="39.2267107" lon="16.9047315"><ele>309.6</ele><time>2026-03-28T13:58:54.645Z</time></trkpt><trkpt lat="39.2267607" lon="16.9048408"><ele>311.0</ele><time>2026-03-28T13:58:55.649Z</time></trkpt><trkpt lat="39.2268023" lon="16.904945"><ele>311.0</ele><time>2026-03-28T13:58:56.651Z</time></trkpt><trkpt lat="39.2268356" lon="16.9050448"><ele>311.0</ele><time>2026-03-28T13:58:57.642Z</time></trkpt><trkpt lat="39.2268656" lon="16.9051455"><ele>311.0</ele><time>2026-03-28T13:58:58.648Z</time></trkpt><trkpt lat="39.2268941" lon="16.9052341"><ele>311.0</ele><time>2026-03-28T13:58:59.649Z</time></trkpt><trkpt lat="39.2269414" lon="16.9053434"><ele>311.0</ele><time>2026-03-28T13:59:01.645Z</time></trkpt><trkpt lat="39.2270127" lon="16.9054462"><ele>311.0</ele><time>2026-03-28T13:59:03.645Z</time></trkpt><trkpt lat="39.2270572" lon="16.9055096"><ele>309.83333333333337</ele><time>2026-03-28T13:59:04.662Z</time></trkpt><trkpt lat="39.2270985" lon="16.9055711"><ele>308.6666666666667</ele><time>2026-03-28T13:59:05.648Z</time></trkpt><trkpt lat="39.2271432" lon="16.9056358"><ele>307.5</ele><time>2026-03-28T13:59:06.657Z</time></trkpt><trkpt lat="39.2271839" lon="16.9057015"><ele>306.3333333333333</ele><time>2026-03-28T13:59:07.652Z</time></trkpt><trkpt lat="39.2272228" lon="16.9057756"><ele>305.16666666666663</ele><time>2026-03-28T13:59:08.652Z</time></trkpt><trkpt lat="39.2272627" lon="16.9058511"><ele>304.0</ele><time>2026-03-28T13:59:09.652Z</time></trkpt><trkpt lat="39.2273331" lon="16.9059753"><ele>302.4</ele><time>2026-03-28T13:59:11.651Z</time></trkpt><trkpt lat="39.2274002" lon="16.9060896"><ele>300.79999999999995</ele><time>2026-03-28T13:59:13.652Z</time></trkpt><trkpt lat="39.2274705" lon="16.9062032"><ele>299.20000000000005</ele><time>2026-03-28T13:59:15.653Z</time></trkpt><trkpt lat="39.22755" lon="16.9063117"><ele>297.6</ele><time>2026-03-28T13:59:17.648Z</time></trkpt><trkpt lat="39.2276007" lon="16.9063667"><ele>296.0</ele><time>2026-03-28T13:59:18.654Z</time></trkpt><trkpt lat="39.227646" lon="16.9064241"><ele>296.0</ele><time>2026-03-28T13:59:19.654Z</time></trkpt><trkpt lat="39.2277385" lon="16.9065293"><ele>296.0</ele><time>2026-03-28T13:59:21.661Z</time></trkpt><trkpt lat="39.2278191" lon="16.9066236"><ele>296.0</ele><time>2026-03-28T13:59:23.65Z</time></trkpt><trkpt lat="39.227894" lon="16.9067191"><ele>296.0</ele><time>2026-03-28T13:59:25.663Z</time></trkpt><trkpt lat="39.2279572" lon="16.9067971"><ele>296.0</ele><time>2026-03-28T13:59:27.661Z</time></trkpt><trkpt lat="39.2280091" lon="16.9068546"><ele>292.33333333333337</ele><time>2026-03-28T13:59:29.652Z</time></trkpt><trkpt lat="39.2280642" lon="16.9069361"><ele>288.6666666666667</ele><time>2026-03-28T13:59:32.688Z</time></trkpt><trkpt lat="39.2280959" lon="16.9070302"><ele>285.0</ele><time>2026-03-28T13:59:35.651Z</time></trkpt><trkpt lat="39.2281064" lon="16.9071174"><ele>281.3333333333333</ele><time>2026-03-28T13:59:37.661Z</time></trkpt><trkpt lat="39.2281028" lon="16.9072373"><ele>277.66666666666663</ele><time>2026-03-28T13:59:39.653Z</time></trkpt><trkpt lat="39.2281015" lon="16.9073492"><ele>274.0</ele><time>2026-03-28T13:59:41.649Z</time></trkpt><trkpt lat="39.2281085" lon="16.9074371"><ele>274.0</ele><time>2026-03-28T13:59:43.649Z</time></trkpt><trkpt lat="39.2281346" lon="16.907528"><ele>274.0</ele><time>2026-03-28T13:59:46.649Z</time></trkpt><trkpt lat="39.228191" lon="16.9075786"><ele>274.0</ele><time>2026-03-28T13:59:48.665Z</time></trkpt><trkpt lat="39.2282674" lon="16.907633"><ele>274.0</ele><time>2026-03-28T13:59:50.65Z</time></trkpt><trkpt lat="39.2283517" lon="16.9077212"><ele>274.0</ele><time>2026-03-28T13:59:52.651Z</time></trkpt><trkpt lat="39.2284059" lon="16.9077794"><ele>274.0</ele><time>2026-03-28T13:59:53.656Z</time></trkpt><trkpt lat="39.2284621" lon="16.9078398"><ele>274.0</ele><time>2026-03-28T13:59:54.648Z</time></trkpt><trkpt lat="39.2285203" lon="16.9079042"><ele>274.0</ele><time>2026-03-28T13:59:55.646Z</time></trkpt><trkpt lat="39.2285915" lon="16.9079647"><ele>274.0</ele><time>2026-03-28T13:59:56.651Z</time></trkpt><trkpt lat="39.2286449" lon="16.9080085"><ele>274.0</ele><time>2026-03-28T13:59:57.661Z</time></trkpt><trkpt lat="39.2287116" lon="16.9080732"><ele>274.0</ele><time>2026-03-28T13:59:59.655Z</time></trkpt><trkpt lat="39.228771" lon="16.9081338"><ele>274.0</ele><time>2026-03-28T14:00:01.654Z</time></trkpt><trkpt lat="39.2288338" lon="16.9081942"><ele>274.00000000000006</ele><time>2026-03-28T14:00:04.647Z</time></trkpt><trkpt lat="39.2288835" lon="16.9082447"><ele>274.0</ele><time>2026-03-28T14:00:09.652Z</time></trkpt><trkpt lat="39.2289418" lon="16.9082891"><ele>274.0</ele><time>2026-03-28T14:00:13.66Z</time></trkpt><trkpt lat="39.228999" lon="16.9083401"><ele>274.0</ele><time>2026-03-28T14:00:15.656Z</time></trkpt><trkpt lat="39.229072" lon="16.9083962"><ele>274.0</ele><time>2026-03-28T14:00:17.649Z</time></trkpt><trkpt lat="39.2291198" lon="16.908476"><ele>274.00000000000006</ele><time>2026-03-28T14:00:19.654Z</time></trkpt><trkpt lat="39.2291554" lon="16.9085554"><ele>274.0</ele><time>2026-03-28T14:00:21.654Z</time></trkpt><trkpt lat="39.2291973" lon="16.9086483"><ele>272.5714285714286</ele><time>2026-03-28T14:00:23.648Z</time></trkpt><trkpt lat="39.2292351" lon="16.9087275"><ele>271.14285714285717</ele><time>2026-03-28T14:00:25.648Z</time></trkpt><trkpt lat="39.2292727" lon="16.9088009"><ele>269.7142857142857</ele><time>2026-03-28T14:00:27.643Z</time></trkpt><trkpt lat="39.2293135" lon="16.9088906"><ele>268.28571428571433</ele><time>2026-03-28T14:00:29.651Z</time></trkpt><trkpt lat="39.2293553" lon="16.9089758"><ele>266.8571428571429</ele><time>2026-03-28T14:00:31.649Z</time></trkpt><trkpt lat="39.2294021" lon="16.9090363"><ele>265.42857142857144</ele><time>2026-03-28T14:00:38.648Z</time></trkpt><trkpt lat="39.2294608" lon="16.9090714"><ele>264.0</ele><time>2026-03-28T14:00:41.652Z</time></trkpt><trkpt lat="39.22952" lon="16.9091118"><ele>264.0</ele><time>2026-03-28T14:00:44.654Z</time></trkpt><trkpt lat="39.229596" lon="16.9091511"><ele>264.0</ele><time>2026-03-28T14:00:47.65Z</time></trkpt><trkpt lat="39.2296685" lon="16.9091968"><ele>264.0</ele><time>2026-03-28T14:00:49.647Z</time></trkpt><trkpt lat="39.2297375" lon="16.9092309"><ele>264.0</ele><time>2026-03-28T14:00:51.651Z</time></trkpt><trkpt lat="39.2298422" lon="16.9092548"><ele>264.0</ele><time>2026-03-28T14:00:53.648Z</time></trkpt><trkpt lat="39.2299107" lon="16.9092643"><ele>264.0</ele><time>2026-03-28T14:00:54.647Z</time></trkpt><trkpt lat="39.2299901" lon="16.9092767"><ele>264.6666666666667</ele><time>2026-03-28T14:00:55.658Z</time></trkpt><trkpt lat="39.2300743" lon="16.9092896"><ele>265.3333333333333</ele><time>2026-03-28T14:00:56.643Z</time></trkpt><trkpt lat="39.2301501" lon="16.9093058"><ele>266.0</ele><time>2026-03-28T14:00:57.655Z</time></trkpt><trkpt lat="39.2302184" lon="16.9093173"><ele>266.66666666666663</ele><time>2026-03-28T14:00:58.647Z</time></trkpt><trkpt lat="39.2303316" lon="16.9092874"><ele>267.3333333333333</ele><time>2026-03-28T14:01:00.655Z</time></trkpt><trkpt lat="39.230419" lon="16.9092415"><ele>268.0</ele><time>2026-03-28T14:01:02.653Z</time></trkpt><trkpt lat="39.2304858" lon="16.9092062"><ele>268.0</ele><time>2026-03-28T14:01:04.647Z</time></trkpt><trkpt lat="39.2305663" lon="16.9091656"><ele>268.0</ele><time>2026-03-28T14:01:06.648Z</time></trkpt><trkpt lat="39.2306358" lon="16.9091323"><ele>268.0</ele><time>2026-03-28T14:01:08.643Z</time></trkpt><trkpt lat="39.2307022" lon="16.9091388"><ele>268.0</ele><time>2026-03-28T14:01:10.65Z</time></trkpt><trkpt lat="39.2307842" lon="16.9091768"><ele>268.0</ele><time>2026-03-28T14:01:13.65Z</time></trkpt><trkpt lat="39.2308613" lon="16.9092574"><ele>268.0</ele><time>2026-03-28T14:01:16.646Z</time></trkpt><trkpt lat="39.2309183" lon="16.9093444"><ele>265.16666666666663</ele><time>2026-03-28T14:01:18.653Z</time></trkpt><trkpt lat="39.230974" lon="16.9094463"><ele>262.3333333333333</ele><time>2026-03-28T14:01:20.65Z</time></trkpt><trkpt lat="39.2310174" lon="16.9095309"><ele>259.5</ele><time>2026-03-28T14:01:22.65Z</time></trkpt><trkpt lat="39.2310587" lon="16.9096185"><ele>256.6666666666667</ele><time>2026-03-28T14:01:25.65Z</time></trkpt><trkpt lat="39.2310956" lon="16.9096883"><ele>253.83333333333334</ele><time>2026-03-28T14:01:27.648Z</time></trkpt><trkpt lat="39.231158" lon="16.9097762"><ele>251.0</ele><time>2026-03-28T14:01:30.651Z</time></trkpt><trkpt lat="39.2312304" lon="16.9098418"><ele>251.00000000000003</ele><time>2026-03-28T14:01:33.647Z</time></trkpt><trkpt lat="39.2312936" lon="16.9098922"><ele>251.0</ele><time>2026-03-28T14:01:37.647Z</time></trkpt><trkpt lat="39.231339" lon="16.9099555"><ele>251.0</ele><time>2026-03-28T14:01:42.667Z</time></trkpt><trkpt lat="39.2313836" lon="16.9100135"><ele>251.0</ele><time>2026-03-28T14:01:48.649Z</time></trkpt><trkpt lat="39.2314293" lon="16.9100837"><ele>251.00000000000003</ele><time>2026-03-28T14:01:50.649Z</time></trkpt><trkpt lat="39.2314898" lon="16.9101681"><ele>251.0</ele><time>2026-03-28T14:01:53.652Z</time></trkpt><trkpt lat="39.2315652" lon="16.9102427"><ele>248.66666666666669</ele><time>2026-03-28T14:01:56.646Z</time></trkpt><trkpt lat="39.2316096" lon="16.9103448"><ele>246.33333333333334</ele><time>2026-03-28T14:01:59.655Z</time></trkpt><trkpt lat="39.2315516" lon="16.9104171"><ele>244.0</ele><time>2026-03-28T14:02:02.65Z</time></trkpt><trkpt lat="39.2314675" lon="16.9104328"><ele>241.66666666666669</ele><time>2026-03-28T14:02:05.656Z</time></trkpt><trkpt lat="39.2313876" lon="16.9104654"><ele>239.33333333333334</ele><time>2026-03-28T14:02:08.659Z</time></trkpt><trkpt lat="39.2313219" lon="16.9105419"><ele>237.0</ele><time>2026-03-28T14:02:11.649Z</time></trkpt><trkpt lat="39.231333" lon="16.9106382"><ele>237.0</ele><time>2026-03-28T14:02:14.644Z</time></trkpt><trkpt lat="39.2314251" lon="16.9106938"><ele>237.0</ele><time>2026-03-28T14:02:17.648Z</time></trkpt><trkpt lat="39.2314931" lon="16.910718"><ele>237.0</ele><time>2026-03-28T14:02:19.65Z</time></trkpt><trkpt lat="39.2315557" lon="16.9107432"><ele>237.0</ele><time>2026-03-28T14:02:21.656Z</time></trkpt><trkpt lat="39.2316428" lon="16.9107679"><ele>237.0</ele><time>2026-03-28T14:02:24.651Z</time></trkpt><trkpt lat="39.2317116" lon="16.9108136"><ele>237.0</ele><time>2026-03-28T14:02:27.657Z</time></trkpt><trkpt lat="39.2317783" lon="16.9108348"><ele>237.0</ele><time>2026-03-28T14:02:29.651Z</time></trkpt><trkpt lat="39.2318552" lon="16.9108604"><ele>237.0</ele><time>2026-03-28T14:02:31.65Z</time></trkpt><trkpt lat="39.2319312" lon="16.9109146"><ele>237.0</ele><time>2026-03-28T14:02:33.647Z</time></trkpt><trkpt lat="39.2319976" lon="16.9109756"><ele>237.0</ele><time>2026-03-28T14:02:35.647Z</time></trkpt><trkpt lat="39.2320738" lon="16.9110502"><ele>237.0</ele><time>2026-03-28T14:02:37.65Z</time></trkpt><trkpt lat="39.2321402" lon="16.9111299"><ele>237.0</ele><time>2026-03-28T14:02:39.646Z</time></trkpt><trkpt lat="39.2322102" lon="16.9112333"><ele>236.0</ele><time>2026-03-28T14:02:41.646Z</time></trkpt><trkpt lat="39.2322478" lon="16.9113035"><ele>235.0</ele><time>2026-03-28T14:02:42.643Z</time></trkpt><trkpt lat="39.2322845" lon="16.9113763"><ele>234.0</ele><time>2026-03-28T14:02:43.646Z</time></trkpt><trkpt lat="39.2323204" lon="16.9114453"><ele>233.0</ele><time>2026-03-28T14:02:44.645Z</time></trkpt><trkpt lat="39.232374" lon="16.9115717"><ele>232.0</ele><time>2026-03-28T14:02:46.648Z</time></trkpt><trkpt lat="39.2324121" lon="16.9116884"><ele>231.0</ele><time>2026-03-28T14:02:48.645Z</time></trkpt><trkpt lat="39.2324608" lon="16.9117782"><ele>229.66666666666666</ele><time>2026-03-28T14:02:50.656Z</time></trkpt><trkpt lat="39.2325146" lon="16.9118775"><ele>228.33333333333331</ele><time>2026-03-28T14:02:52.648Z</time></trkpt><trkpt lat="39.2325661" lon="16.9120001"><ele>227.0</ele><time>2026-03-28T14:02:54.645Z</time></trkpt><trkpt lat="39.2326059" lon="16.9121124"><ele>225.66666666666666</ele><time>2026-03-28T14:02:56.644Z</time></trkpt><trkpt lat="39.2326434" lon="16.9122026"><ele>224.33333333333331</ele><time>2026-03-28T14:02:59.646Z</time></trkpt><trkpt lat="39.2326727" lon="16.9122805"><ele>223.0</ele><time>2026-03-28T14:03:01.662Z</time></trkpt><trkpt lat="39.2327215" lon="16.9123603"><ele>223.0</ele><time>2026-03-28T14:03:03.65Z</time></trkpt><trkpt lat="39.2327289" lon="16.9124787"><ele>223.0</ele><time>2026-03-28T14:03:06.651Z</time></trkpt><trkpt lat="39.2327528" lon="16.9125679"><ele>223.0</ele><time>2026-03-28T14:03:08.65Z</time></trkpt><trkpt lat="39.2327692" lon="16.9126904"><ele>223.0</ele><time>2026-03-28T14:03:10.649Z</time></trkpt><trkpt lat="39.2327868" lon="16.9128567"><ele>223.0</ele><time>2026-03-28T14:03:12.655Z</time></trkpt><trkpt lat="39.2327969" lon="16.9129525"><ele>222.99999999999997</ele><time>2026-03-28T14:03:13.657Z</time></trkpt><trkpt lat="39.2328106" lon="16.9130461"><ele>223.0</ele><time>2026-03-28T14:03:14.65Z</time></trkpt><trkpt lat="39.2328203" lon="16.9131446"><ele>223.0</ele><time>2026-03-28T14:03:15.652Z</time></trkpt><trkpt lat="39.2328256" lon="16.913234"><ele>223.0</ele><time>2026-03-28T14:03:16.65Z</time></trkpt><trkpt lat="39.2328424" lon="16.9133886"><ele>222.99999999999997</ele><time>2026-03-28T14:03:18.651Z</time></trkpt><trkpt lat="39.2328638" lon="16.9134696"><ele>223.0</ele><time>2026-03-28T14:03:19.651Z</time></trkpt><trkpt lat="39.2328953" lon="16.9135515"><ele>221.60000000000002</ele><time>2026-03-28T14:03:20.646Z</time></trkpt><trkpt lat="39.2329286" lon="16.9136323"><ele>220.20000000000002</ele><time>2026-03-28T14:03:21.651Z</time></trkpt><trkpt lat="39.2329595" lon="16.9137109"><ele>218.8</ele><time>2026-03-28T14:03:22.652Z</time></trkpt><trkpt lat="39.2329929" lon="16.9138529"><ele>217.4</ele><time>2026-03-28T14:03:24.654Z</time></trkpt><trkpt lat="39.2329535" lon="16.913979"><ele>216.0</ele><time>2026-03-28T14:03:26.654Z</time></trkpt><trkpt lat="39.2329439" lon="16.9140956"><ele>216.0</ele><time>2026-03-28T14:03:28.648Z</time></trkpt><trkpt lat="39.2329525" lon="16.9141933"><ele>216.0</ele><time>2026-03-28T14:03:31.649Z</time></trkpt><trkpt lat="39.2329894" lon="16.9142802"><ele>216.0</ele><time>2026-03-28T14:03:35.652Z</time></trkpt><trkpt lat="39.2330393" lon="16.9143833"><ele>216.0</ele><time>2026-03-28T14:03:38.648Z</time></trkpt><trkpt lat="39.2330844" lon="16.9144654"><ele>216.0</ele><time>2026-03-28T14:03:40.645Z</time></trkpt><trkpt lat="39.2331659" lon="16.9145171"><ele>216.0</ele><time>2026-03-28T14:03:42.651Z</time></trkpt><trkpt lat="39.2332432" lon="16.9145836"><ele>216.16666666666666</ele><time>2026-03-28T14:03:44.651Z</time></trkpt><trkpt lat="39.2333042" lon="16.9146807"><ele>216.33333333333331</ele><time>2026-03-28T14:03:46.656Z</time></trkpt><trkpt lat="39.2333519" lon="16.9147363"><ele>216.5</ele><time>2026-03-28T14:03:48.643Z</time></trkpt><trkpt lat="39.2333982" lon="16.9148198"><ele>216.66666666666666</ele><time>2026-03-28T14:04:09.654Z</time></trkpt><trkpt lat="39.2334355" lon="16.9148875"><ele>216.83333333333331</ele><time>2026-03-28T14:04:15.657Z</time></trkpt><trkpt lat="39.233466" lon="16.9149606"><ele>217.0</ele><time>2026-03-28T14:04:17.653Z</time></trkpt><trkpt lat="39.2335149" lon="16.9150588"><ele>215.0</ele><time>2026-03-28T14:04:20.66Z</time></trkpt><trkpt lat="39.2335636" lon="16.9151327"><ele>213.0</ele><time>2026-03-28T14:04:24.655Z</time></trkpt><trkpt lat="39.2335788" lon="16.9152146"><ele>211.0</ele><time>2026-03-28T14:04:35.649Z</time></trkpt><trkpt lat="39.2335985" lon="16.9152932"><ele>209.0</ele><time>2026-03-28T14:04:39.651Z</time></trkpt><trkpt lat="39.2336011" lon="16.915387"><ele>207.0</ele><time>2026-03-28T14:04:43.646Z</time></trkpt><trkpt lat="39.2335884" lon="16.9155014"><ele>205.0</ele><time>2026-03-28T14:04:46.65Z</time></trkpt><trkpt lat="39.2335906" lon="16.9155857"><ele>203.0</ele><time>2026-03-28T14:04:48.65Z</time></trkpt><trkpt lat="39.2335559" lon="16.9156782"><ele>203.00000000000003</ele><time>2026-03-28T14:04:51.65Z</time></trkpt><trkpt lat="39.2334983" lon="16.9157479"><ele>203.0</ele><time>2026-03-28T14:04:55.647Z</time></trkpt><trkpt lat="39.233462" lon="16.9158254"><ele>203.0</ele><time>2026-03-28T14:04:57.644Z</time></trkpt><trkpt lat="39.2334569" lon="16.9159329"><ele>203.0</ele><time>2026-03-28T14:04:59.647Z</time></trkpt><trkpt lat="39.2335048" lon="16.9160557"><ele>203.00000000000003</ele><time>2026-03-28T14:05:01.652Z</time></trkpt><trkpt lat="39.2335734" lon="16.9161497"><ele>203.0</ele><time>2026-03-28T14:05:03.643Z</time></trkpt><trkpt lat="39.2336198" lon="16.9162207"><ele>201.57142857142858</ele><time>2026-03-28T14:05:05.647Z</time></trkpt><trkpt lat="39.2336613" lon="16.9162891"><ele>200.14285714285714</ele><time>2026-03-28T14:05:07.651Z</time></trkpt><trkpt lat="39.2337075" lon="16.9163608"><ele>198.71428571428572</ele><time>2026-03-28T14:05:09.647Z</time></trkpt><trkpt lat="39.2337643" lon="16.9164137"><ele>197.28571428571428</ele><time>2026-03-28T14:05:11.652Z</time></trkpt><trkpt lat="39.2338173" lon="16.9164721"><ele>195.85714285714286</ele><time>2026-03-28T14:05:13.645Z</time></trkpt><trkpt lat="39.2338532" lon="16.9165484"><ele>194.42857142857144</ele><time>2026-03-28T14:05:15.646Z</time></trkpt><trkpt lat="39.2338965" lon="16.9166464"><ele>193.0</ele><time>2026-03-28T14:05:18.645Z</time></trkpt><trkpt lat="39.23394" lon="16.9167293"><ele>191.0</ele><time>2026-03-28T14:05:21.644Z</time></trkpt><trkpt lat="39.2339972" lon="16.9167985"><ele>189.0</ele><time>2026-03-28T14:05:24.655Z</time></trkpt><trkpt lat="39.2340672" lon="16.9169228"><ele>187.0</ele><time>2026-03-28T14:05:26.651Z</time></trkpt><trkpt lat="39.2341256" lon="16.9170027"><ele>185.0</ele><time>2026-03-28T14:05:27.647Z</time></trkpt><trkpt lat="39.2341991" lon="16.917079"><ele>183.0</ele><time>2026-03-28T14:05:28.652Z</time></trkpt><trkpt lat="39.2342571" lon="16.9171606"><ele>183.0</ele><time>2026-03-28T14:05:29.646Z</time></trkpt><trkpt lat="39.2343087" lon="16.9172556"><ele>183.0</ele><time>2026-03-28T14:05:30.652Z</time></trkpt><trkpt lat="39.2343641" lon="16.9173803"><ele>183.0</ele><time>2026-03-28T14:05:31.655Z</time></trkpt><trkpt lat="39.234422" lon="16.9175001"><ele>183.0</ele><time>2026-03-28T14:05:32.651Z</time></trkpt><trkpt lat="39.2344779" lon="16.9176142"><ele>183.0</ele><time>2026-03-28T14:05:33.654Z</time></trkpt><trkpt lat="39.2345265" lon="16.9177399"><ele>181.4</ele><time>2026-03-28T14:05:34.647Z</time></trkpt><trkpt lat="39.2345594" lon="16.9178694"><ele>179.8</ele><time>2026-03-28T14:05:35.652Z</time></trkpt><trkpt lat="39.2345901" lon="16.9179947"><ele>178.2</ele><time>2026-03-28T14:05:36.651Z</time></trkpt><trkpt lat="39.2346312" lon="16.9181031"><ele>176.6</ele><time>2026-03-28T14:05:37.647Z</time></trkpt><trkpt lat="39.2346986" lon="16.9182171"><ele>175.0</ele><time>2026-03-28T14:05:38.64Z</time></trkpt><trkpt lat="39.2347843" lon="16.9183513"><ele>175.25</ele><time>2026-03-28T14:05:39.659Z</time></trkpt><trkpt lat="39.234878" lon="16.918492"><ele>175.5</ele><time>2026-03-28T14:05:40.653Z</time></trkpt><trkpt lat="39.2349597" lon="16.918619"><ele>175.75</ele><time>2026-03-28T14:05:41.649Z</time></trkpt><trkpt lat="39.2350317" lon="16.9187315"><ele>176.0</ele><time>2026-03-28T14:05:42.653Z</time></trkpt><trkpt lat="39.2350857" lon="16.9188197"><ele>176.0</ele><time>2026-03-28T14:05:43.647Z</time></trkpt><trkpt lat="39.2351431" lon="16.9189086"><ele>176.0</ele><time>2026-03-28T14:05:45.654Z</time></trkpt><trkpt lat="39.2351863" lon="16.9189747"><ele>176.0</ele><time>2026-03-28T14:06:00.661Z</time></trkpt><trkpt lat="39.2352325" lon="16.9190598"><ele>176.0</ele><time>2026-03-28T14:06:02.649Z</time></trkpt><trkpt lat="39.2352824" lon="16.9191595"><ele>176.0</ele><time>2026-03-28T14:06:04.648Z</time></trkpt><trkpt lat="39.2353235" lon="16.9192397"><ele>176.0</ele><time>2026-03-28T14:06:06.651Z</time></trkpt><trkpt lat="39.2353813" lon="16.9193359"><ele>174.83333333333331</ele><time>2026-03-28T14:06:08.644Z</time></trkpt><trkpt lat="39.2354193" lon="16.9194192"><ele>173.66666666666666</ele><time>2026-03-28T14:06:10.651Z</time></trkpt><trkpt lat="39.2353869" lon="16.9194942"><ele>172.5</ele><time>2026-03-28T14:06:16.656Z</time></trkpt><trkpt lat="39.2353052" lon="16.9195914"><ele>171.33333333333334</ele><time>2026-03-28T14:06:19.65Z</time></trkpt><trkpt lat="39.2352481" lon="16.919666"><ele>170.16666666666669</ele><time>2026-03-28T14:06:21.647Z</time></trkpt><trkpt lat="39.2351976" lon="16.9197655"><ele>169.0</ele><time>2026-03-28T14:06:24.647Z</time></trkpt><trkpt lat="39.2351678" lon="16.9198385"><ele>169.0</ele><time>2026-03-28T14:06:26.647Z</time></trkpt><trkpt lat="39.2351237" lon="16.9199171"><ele>169.0</ele><time>2026-03-28T14:06:28.646Z</time></trkpt><trkpt lat="39.2350606" lon="16.919987"><ele>169.0</ele><time>2026-03-28T14:06:30.657Z</time></trkpt><trkpt lat="39.2350011" lon="16.9200771"><ele>169.0</ele><time>2026-03-28T14:06:32.65Z</time></trkpt><trkpt lat="39.2349491" lon="16.920174"><ele>169.0</ele><time>2026-03-28T14:06:34.653Z</time></trkpt><trkpt lat="39.234889" lon="16.9202983"><ele>167.5</ele><time>2026-03-28T14:06:36.65Z</time></trkpt><trkpt lat="39.2348528" lon="16.9203765"><ele>166.0</ele><time>2026-03-28T14:06:37.651Z</time></trkpt><trkpt lat="39.2348134" lon="16.9204589"><ele>164.5</ele><time>2026-03-28T14:06:38.643Z</time></trkpt><trkpt lat="39.2347759" lon="16.9205361"><ele>163.0</ele><time>2026-03-28T14:06:39.645Z</time></trkpt><trkpt lat="39.234742" lon="16.9206085"><ele>161.5</ele><time>2026-03-28T14:06:40.657Z</time></trkpt><trkpt lat="39.2346874" lon="16.9207111"><ele>160.0</ele><time>2026-03-28T14:06:42.649Z</time></trkpt><trkpt lat="39.2346349" lon="16.9207869"><ele>159.33333333333334</ele><time>2026-03-28T14:06:45.645Z</time></trkpt><trkpt lat="39.2345719" lon="16.9208511"><ele>158.66666666666669</ele><time>2026-03-28T14:06:49.651Z</time></trkpt><trkpt lat="39.2345169" lon="16.9208945"><ele>158.0</ele><time>2026-03-28T14:06:51.648Z</time></trkpt><trkpt lat="39.2344714" lon="16.9209654"><ele>157.33333333333334</ele><time>2026-03-28T14:06:53.65Z</time></trkpt><trkpt lat="39.2344324" lon="16.9210395"><ele>156.66666666666666</ele><time>2026-03-28T14:06:56.651Z</time></trkpt><trkpt lat="39.2344013" lon="16.921127"><ele>156.0</ele><time>2026-03-28T14:07:05.663Z</time></trkpt><trkpt lat="39.2343645" lon="16.9212387"><ele>155.6</ele><time>2026-03-28T14:07:07.656Z</time></trkpt><trkpt lat="39.2343407" lon="16.9213515"><ele>155.2</ele><time>2026-03-28T14:07:09.656Z</time></trkpt><trkpt lat="39.2343363" lon="16.9215146"><ele>154.8</ele><time>2026-03-28T14:07:11.647Z</time></trkpt><trkpt lat="39.2343203" lon="16.9216674"><ele>154.4</ele><time>2026-03-28T14:07:13.655Z</time></trkpt><trkpt lat="39.2342844" lon="16.9217415"><ele>154.0</ele><time>2026-03-28T14:07:14.651Z</time></trkpt><trkpt lat="39.2342438" lon="16.9218212"><ele>155.2</ele><time>2026-03-28T14:07:15.644Z</time></trkpt><trkpt lat="39.23421" lon="16.9219032"><ele>156.4</ele><time>2026-03-28T14:07:16.653Z</time></trkpt><trkpt lat="39.2341538" lon="16.9220313"><ele>157.6</ele><time>2026-03-28T14:07:18.65Z</time></trkpt><trkpt lat="39.2340747" lon="16.9221379"><ele>158.8</ele><time>2026-03-28T14:07:20.652Z</time></trkpt><trkpt lat="39.2340145" lon="16.9222002"><ele>160.0</ele><time>2026-03-28T14:07:21.662Z</time></trkpt><trkpt lat="39.233941" lon="16.9223093"><ele>160.16666666666669</ele><time>2026-03-28T14:07:23.654Z</time></trkpt><trkpt lat="39.2338949" lon="16.9223834"><ele>160.33333333333334</ele><time>2026-03-28T14:07:25.651Z</time></trkpt><trkpt lat="39.2338171" lon="16.9224676"><ele>160.5</ele><time>2026-03-28T14:07:27.649Z</time></trkpt><trkpt lat="39.2337711" lon="16.9225356"><ele>160.66666666666666</ele><time>2026-03-28T14:07:28.646Z</time></trkpt><trkpt lat="39.2337083" lon="16.9226472"><ele>160.83333333333331</ele><time>2026-03-28T14:07:30.646Z</time></trkpt><trkpt lat="39.2336248" lon="16.9227009"><ele>161.0</ele><time>2026-03-28T14:07:33.652Z</time></trkpt><trkpt lat="39.233559" lon="16.9227248"><ele>160.57142857142858</ele><time>2026-03-28T14:07:35.665Z</time></trkpt><trkpt lat="39.2334876" lon="16.9227614"><ele>160.14285714285714</ele><time>2026-03-28T14:07:37.651Z</time></trkpt><trkpt lat="39.2334135" lon="16.9228214"><ele>159.71428571428572</ele><time>2026-03-28T14:07:39.655Z</time></trkpt><trkpt lat="39.233358" lon="16.9228781"><ele>159.28571428571428</ele><time>2026-03-28T14:07:41.649Z</time></trkpt><trkpt lat="39.2333093" lon="16.9229331"><ele>158.85714285714286</ele><time>2026-03-28T14:07:43.651Z</time></trkpt><trkpt lat="39.2332588" lon="16.9229941"><ele>158.42857142857144</ele><time>2026-03-28T14:07:45.653Z</time></trkpt><trkpt lat="39.2332119" lon="16.9230559"><ele>158.0</ele><time>2026-03-28T14:07:47.653Z</time></trkpt><trkpt lat="39.233153" lon="16.9231255"><ele>155.5</ele><time>2026-03-28T14:07:49.653Z</time></trkpt><trkpt lat="39.2330825" lon="16.9232003"><ele>153.0</ele><time>2026-03-28T14:07:51.655Z</time></trkpt><trkpt lat="39.2330137" lon="16.9232679"><ele>150.5</ele><time>2026-03-28T14:07:53.648Z</time></trkpt><trkpt lat="39.2329578" lon="16.923333"><ele>148.0</ele><time>2026-03-28T14:07:55.654Z</time></trkpt><trkpt lat="39.2329237" lon="16.9234068"><ele>145.5</ele><time>2026-03-28T14:07:57.654Z</time></trkpt><trkpt lat="39.2328944" lon="16.9235162"><ele>143.0</ele><time>2026-03-28T14:08:00.662Z</time></trkpt><trkpt lat="39.2328723" lon="16.9236109"><ele>141.33333333333331</ele><time>2026-03-28T14:08:05.652Z</time></trkpt><trkpt lat="39.2328551" lon="16.9236935"><ele>139.66666666666666</ele><time>2026-03-28T14:08:08.651Z</time></trkpt><trkpt lat="39.2328454" lon="16.9238075"><ele>138.0</ele><time>2026-03-28T14:08:11.654Z</time></trkpt><trkpt lat="39.2328411" lon="16.9238952"><ele>136.33333333333334</ele><time>2026-03-28T14:08:14.65Z</time></trkpt><trkpt lat="39.2328286" lon="16.9239868"><ele>134.66666666666669</ele><time>2026-03-28T14:08:17.653Z</time></trkpt><trkpt lat="39.2328164" lon="16.9240866"><ele>133.0</ele><time>2026-03-28T14:08:20.654Z</time></trkpt><trkpt lat="39.2327865" lon="16.9241799"><ele>131.42857142857142</ele><time>2026-03-28T14:08:27.652Z</time></trkpt><trkpt lat="39.2327462" lon="16.9242597"><ele>129.85714285714286</ele><time>2026-03-28T14:08:45.655Z</time></trkpt><trkpt lat="39.2327056" lon="16.9243289"><ele>128.28571428571428</ele><time>2026-03-28T14:08:49.649Z</time></trkpt><trkpt lat="39.2326678" lon="16.9244033"><ele>126.71428571428571</ele><time>2026-03-28T14:08:55.651Z</time></trkpt><trkpt lat="39.2326519" lon="16.9244981"><ele>125.14285714285714</ele><time>2026-03-28T14:09:02.65Z</time></trkpt><trkpt lat="39.2326618" lon="16.9245923"><ele>123.57142857142856</ele><time>2026-03-28T14:09:08.649Z</time></trkpt><trkpt lat="39.2326687" lon="16.9246821"><ele>121.99999999999999</ele><time>2026-03-28T14:09:11.661Z</time></trkpt><trkpt lat="39.2326812" lon="16.9247818"><ele>121.99999999999999</ele><time>2026-03-28T14:09:14.654Z</time></trkpt><trkpt lat="39.2326908" lon="16.9248714"><ele>122.0</ele><time>2026-03-28T14:09:16.662Z</time></trkpt><trkpt lat="39.2327075" lon="16.9249826"><ele>122.0</ele><time>2026-03-28T14:09:18.664Z</time></trkpt><trkpt lat="39.2327091" lon="16.9250832"><ele>122.0</ele><time>2026-03-28T14:09:20.645Z</time></trkpt><trkpt lat="39.2327121" lon="16.9251737"><ele>121.99999999999999</ele><time>2026-03-28T14:09:22.672Z</time></trkpt><trkpt lat="39.2327093" lon="16.9252747"><ele>122.0</ele><time>2026-03-28T14:09:24.655Z</time></trkpt><trkpt lat="39.232713" lon="16.9253974"><ele>121.49999999999999</ele><time>2026-03-28T14:09:26.653Z</time></trkpt><trkpt lat="39.2326944" lon="16.9254963"><ele>121.0</ele><time>2026-03-28T14:09:28.643Z</time></trkpt><trkpt lat="39.2326517" lon="16.9255662"><ele>120.5</ele><time>2026-03-28T14:09:30.647Z</time></trkpt><trkpt lat="39.2325963" lon="16.9256415"><ele>120.0</ele><time>2026-03-28T14:09:32.648Z</time></trkpt><trkpt lat="39.2325316" lon="16.9257405"><ele>119.49999999999999</ele><time>2026-03-28T14:09:34.654Z</time></trkpt><trkpt lat="39.2324936" lon="16.9258335"><ele>119.0</ele><time>2026-03-28T14:09:36.653Z</time></trkpt><trkpt lat="39.2324854" lon="16.925949"><ele>117.83333333333333</ele><time>2026-03-28T14:09:38.651Z</time></trkpt><trkpt lat="39.2324907" lon="16.9260473"><ele>116.66666666666666</ele><time>2026-03-28T14:09:40.653Z</time></trkpt><trkpt lat="39.2324933" lon="16.9261472"><ele>115.5</ele><time>2026-03-28T14:09:42.654Z</time></trkpt><trkpt lat="39.2324895" lon="16.9262362"><ele>114.33333333333334</ele><time>2026-03-28T14:09:44.656Z</time></trkpt><trkpt lat="39.2324883" lon="16.926332"><ele>113.16666666666667</ele><time>2026-03-28T14:09:46.651Z</time></trkpt><trkpt lat="39.2324768" lon="16.926449"><ele>112.0</ele><time>2026-03-28T14:09:49.649Z</time></trkpt><trkpt lat="39.2324636" lon="16.9265438"><ele>112.00000000000001</ele><time>2026-03-28T14:09:51.648Z</time></trkpt><trkpt lat="39.2324485" lon="16.9266253"><ele>112.0</ele><time>2026-03-28T14:09:53.655Z</time></trkpt><trkpt lat="39.2324301" lon="16.9267198"><ele>112.0</ele><time>2026-03-28T14:09:56.652Z</time></trkpt><trkpt lat="39.2324114" lon="16.9268231"><ele>112.0</ele><time>2026-03-28T14:09:59.653Z</time></trkpt><trkpt lat="39.2323884" lon="16.9269284"><ele>112.00000000000001</ele><time>2026-03-28T14:10:02.645Z</time></trkpt><trkpt lat="39.232368" lon="16.9270324"><ele>112.0</ele><time>2026-03-28T14:10:05.653Z</time></trkpt><trkpt lat="39.232348" lon="16.9271531"><ele>111.33333333333334</ele><time>2026-03-28T14:10:09.654Z</time></trkpt><trkpt lat="39.2323281" lon="16.9272651"><ele>110.66666666666667</ele><time>2026-03-28T14:10:11.653Z</time></trkpt><trkpt lat="39.2323149" lon="16.927384"><ele>110.0</ele><time>2026-03-28T14:10:13.652Z</time></trkpt><trkpt lat="39.2323319" lon="16.9275083"><ele>109.33333333333334</ele><time>2026-03-28T14:10:15.643Z</time></trkpt><trkpt lat="39.2323887" lon="16.9276139"><ele>108.66666666666667</ele><time>2026-03-28T14:10:17.653Z</time></trkpt><trkpt lat="39.2324106" lon="16.9276968"><ele>108.0</ele><time>2026-03-28T14:10:19.65Z</time></trkpt><trkpt lat="39.2323273" lon="16.9277008"><ele>108.28571428571428</ele><time>2026-03-28T14:10:22.65Z</time></trkpt><trkpt lat="39.2322552" lon="16.9276921"><ele>108.57142857142857</ele><time>2026-03-28T14:10:26.646Z</time></trkpt><trkpt lat="39.2321882" lon="16.9276773"><ele>108.85714285714286</ele><time>2026-03-28T14:10:31.653Z</time></trkpt><trkpt lat="39.2321213" lon="16.9276835"><ele>109.14285714285714</ele><time>2026-03-28T14:10:39.66Z</time></trkpt><trkpt lat="39.2320662" lon="16.9277359"><ele>109.42857142857143</ele><time>2026-03-28T14:10:46.653Z</time></trkpt><trkpt lat="39.2320162" lon="16.9278045"><ele>109.71428571428571</ele><time>2026-03-28T14:10:50.646Z</time></trkpt><trkpt lat="39.2319422" lon="16.9278048"><ele>110.0</ele><time>2026-03-28T14:10:53.645Z</time></trkpt><trkpt lat="39.2318808" lon="16.9277815"><ele>109.99999999999999</ele><time>2026-03-28T14:10:55.648Z</time></trkpt><trkpt lat="39.231795" lon="16.9277575"><ele>110.0</ele><time>2026-03-28T14:10:58.645Z</time></trkpt><trkpt lat="39.2317213" lon="16.9277283"><ele>110.0</ele><time>2026-03-28T14:11:01.66Z</time></trkpt><trkpt lat="39.2316509" lon="16.9277074"><ele>110.0</ele><time>2026-03-28T14:11:05.652Z</time></trkpt><trkpt lat="39.231585" lon="16.9276773"><ele>109.99999999999999</ele><time>2026-03-28T14:11:09.649Z</time></trkpt><trkpt lat="39.2315123" lon="16.9276436"><ele>110.0</ele><time>2026-03-28T14:11:13.649Z</time></trkpt><trkpt lat="39.2314373" lon="16.9276172"><ele>108.66666666666666</ele><time>2026-03-28T14:11:16.65Z</time></trkpt><trkpt lat="39.2313692" lon="16.9275891"><ele>107.33333333333333</ele><time>2026-03-28T14:11:18.648Z</time></trkpt><trkpt lat="39.2312703" lon="16.927562"><ele>106.0</ele><time>2026-03-28T14:11:20.654Z</time></trkpt><trkpt lat="39.2311845" lon="16.9275738"><ele>104.66666666666666</ele><time>2026-03-28T14:11:22.647Z</time></trkpt><trkpt lat="39.2311428" lon="16.9276526"><ele>103.33333333333333</ele><time>2026-03-28T14:11:47.652Z</time></trkpt><trkpt lat="39.2311052" lon="16.92773"><ele>102.0</ele><time>2026-03-28T14:11:48.664Z</time></trkpt><trkpt lat="39.2310549" lon="16.9278063"><ele>102.0</ele><time>2026-03-28T14:11:49.644Z</time></trkpt><trkpt lat="39.2310053" lon="16.9278804"><ele>102.0</ele><time>2026-03-28T14:11:50.646Z</time></trkpt><trkpt lat="39.2309582" lon="16.9279521"><ele>102.0</ele><time>2026-03-28T14:11:51.653Z</time></trkpt><trkpt lat="39.2309199" lon="16.9280279"><ele>102.0</ele><time>2026-03-28T14:11:52.65Z</time></trkpt><trkpt lat="39.2308859" lon="16.9281072"><ele>102.0</ele><time>2026-03-28T14:11:53.648Z</time></trkpt><trkpt lat="39.2308631" lon="16.928191"><ele>102.0</ele><time>2026-03-28T14:11:54.649Z</time></trkpt><trkpt lat="39.2308541" lon="16.9282823"><ele>102.0</ele><time>2026-03-28T14:11:55.657Z</time></trkpt><trkpt lat="39.2308572" lon="16.9283796"><ele>102.83333333333333</ele><time>2026-03-28T14:11:56.655Z</time></trkpt><trkpt lat="39.2308692" lon="16.9284787"><ele>103.66666666666666</ele><time>2026-03-28T14:11:57.652Z</time></trkpt><trkpt lat="39.2308947" lon="16.9285875"><ele>104.5</ele><time>2026-03-28T14:11:58.648Z</time></trkpt><trkpt lat="39.2309289" lon="16.9286904"><ele>105.33333333333333</ele><time>2026-03-28T14:11:59.651Z</time></trkpt><trkpt lat="39.2309449" lon="16.9287949"><ele>106.16666666666666</ele><time>2026-03-28T14:12:00.649Z</time></trkpt><trkpt lat="39.2309447" lon="16.9289059"><ele>107.0</ele><time>2026-03-28T14:12:01.652Z</time></trkpt><trkpt lat="39.2309411" lon="16.9290202"><ele>107.0</ele><time>2026-03-28T14:12:02.65Z</time></trkpt><trkpt lat="39.2309423" lon="16.9291436"><ele>106.99999999999999</ele><time>2026-03-28T14:12:03.661Z</time></trkpt><trkpt lat="39.2309465" lon="16.9292681"><ele>106.99999999999999</ele><time>2026-03-28T14:12:04.653Z</time></trkpt><trkpt lat="39.230957" lon="16.9294013"><ele>107.0</ele><time>2026-03-28T14:12:05.663Z</time></trkpt><trkpt lat="39.2309821" lon="16.9295536"><ele>107.0</ele><time>2026-03-28T14:12:06.649Z</time></trkpt><trkpt lat="39.2310234" lon="16.9297046"><ele>105.5</ele><time>2026-03-28T14:12:07.646Z</time></trkpt><trkpt lat="39.2310779" lon="16.9298438"><ele>104.0</ele><time>2026-03-28T14:12:08.652Z</time></trkpt><trkpt lat="39.2311467" lon="16.9299822"><ele>102.5</ele><time>2026-03-28T14:12:09.65Z</time></trkpt><trkpt lat="39.2312244" lon="16.9301213"><ele>101.0</ele><time>2026-03-28T14:12:10.655Z</time></trkpt><trkpt lat="39.2313013" lon="16.9302569"><ele>100.19999999999999</ele><time>2026-03-28T14:12:11.651Z</time></trkpt><trkpt lat="39.2313716" lon="16.930385"><ele>99.39999999999999</ele><time>2026-03-28T14:12:12.655Z</time></trkpt><trkpt lat="39.2314355" lon="16.9304947"><ele>98.6</ele><time>2026-03-28T14:12:13.658Z</time></trkpt><trkpt lat="39.2314965" lon="16.9305934"><ele>97.8</ele><time>2026-03-28T14:12:14.649Z</time></trkpt><trkpt lat="39.2315501" lon="16.9306952"><ele>97.0</ele><time>2026-03-28T14:12:15.658Z</time></trkpt><trkpt lat="39.2315933" lon="16.9308022"><ele>98.19999999999999</ele><time>2026-03-28T14:12:16.654Z</time></trkpt><trkpt lat="39.2316307" lon="16.9309126"><ele>99.4</ele><time>2026-03-28T14:12:17.654Z</time></trkpt><trkpt lat="39.2316782" lon="16.9310275"><ele>100.6</ele><time>2026-03-28T14:12:18.653Z</time></trkpt><trkpt lat="39.2317418" lon="16.9311458"><ele>101.80000000000001</ele><time>2026-03-28T14:12:19.65Z</time></trkpt><trkpt lat="39.2318171" lon="16.93127"><ele>103.0</ele><time>2026-03-28T14:12:20.653Z</time></trkpt><trkpt lat="39.2318848" lon="16.9313884"><ele>103.0</ele><time>2026-03-28T14:12:21.651Z</time></trkpt><trkpt lat="39.2319313" lon="16.931502"><ele>103.0</ele><time>2026-03-28T14:12:22.652Z</time></trkpt><trkpt lat="39.2319512" lon="16.9316173"><ele>103.0</ele><time>2026-03-28T14:12:23.655Z</time></trkpt><trkpt lat="39.2319507" lon="16.931741"><ele>103.0</ele><time>2026-03-28T14:12:24.649Z</time></trkpt><trkpt lat="39.2319379" lon="16.9318811"><ele>103.0</ele><time>2026-03-28T14:12:25.663Z</time></trkpt><trkpt lat="39.2319237" lon="16.9320221"><ele>102.5</ele><time>2026-03-28T14:12:26.65Z</time></trkpt><trkpt lat="39.2319093" lon="16.9321618"><ele>102.0</ele><time>2026-03-28T14:12:27.655Z</time></trkpt><trkpt lat="39.2318992" lon="16.9323051"><ele>101.5</ele><time>2026-03-28T14:12:28.65Z</time></trkpt><trkpt lat="39.2319016" lon="16.9324601"><ele>101.0</ele><time>2026-03-28T14:12:29.664Z</time></trkpt><trkpt lat="39.2319121" lon="16.9326052"><ele>101.0</ele><time>2026-03-28T14:12:30.651Z</time></trkpt><trkpt lat="39.2319367" lon="16.9327422"><ele>101.0</ele><time>2026-03-28T14:12:31.658Z</time></trkpt><trkpt lat="39.2319733" lon="16.9328686"><ele>101.0</ele><time>2026-03-28T14:12:32.65Z</time></trkpt><trkpt lat="39.2320044" lon="16.932976"><ele>101.0</ele><time>2026-03-28T14:12:33.648Z</time></trkpt><trkpt lat="39.2320137" lon="16.9330826"><ele>101.0</ele><time>2026-03-28T14:12:34.649Z</time></trkpt><trkpt lat="39.2319983" lon="16.9332068"><ele>101.0</ele><time>2026-03-28T14:12:35.657Z</time></trkpt><trkpt lat="39.2319653" lon="16.9333429"><ele>101.0</ele><time>2026-03-28T14:12:36.655Z</time></trkpt><trkpt lat="39.231931" lon="16.933477"><ele>101.0</ele><time>2026-03-28T14:12:37.646Z</time></trkpt><trkpt lat="39.2318811" lon="16.9335995"><ele>101.0</ele><time>2026-03-28T14:12:38.654Z</time></trkpt><trkpt lat="39.2318137" lon="16.9337156"><ele>101.0</ele><time>2026-03-28T14:12:39.652Z</time></trkpt><trkpt lat="39.2317275" lon="16.9338227"><ele>100.5</ele><time>2026-03-28T14:12:40.649Z</time></trkpt><trkpt lat="39.2316394" lon="16.9339344"><ele>100.0</ele><time>2026-03-28T14:12:41.653Z</time></trkpt><trkpt lat="39.2315515" lon="16.9340592"><ele>99.5</ele><time>2026-03-28T14:12:42.652Z</time></trkpt><trkpt lat="39.2314662" lon="16.9341933"><ele>99.0</ele><time>2026-03-28T14:12:43.654Z</time></trkpt><trkpt lat="39.2313893" lon="16.9343326"><ele>97.5</ele><time>2026-03-28T14:12:44.652Z</time></trkpt><trkpt lat="39.2313209" lon="16.9344794"><ele>96.0</ele><time>2026-03-28T14:12:45.655Z</time></trkpt><trkpt lat="39.231265" lon="16.9346305"><ele>94.5</ele><time>2026-03-28T14:12:46.653Z</time></trkpt><trkpt lat="39.2312207" lon="16.9347758"><ele>93.0</ele><time>2026-03-28T14:12:47.647Z</time></trkpt><trkpt lat="39.2311875" lon="16.93492"><ele>93.2</ele><time>2026-03-28T14:12:48.648Z</time></trkpt><trkpt lat="39.2311635" lon="16.9350636"><ele>93.4</ele><time>2026-03-28T14:12:49.649Z</time></trkpt><trkpt lat="39.2311418" lon="16.9351919"><ele>93.60000000000001</ele><time>2026-03-28T14:12:50.655Z</time></trkpt><trkpt lat="39.2311117" lon="16.9352971"><ele>93.80000000000001</ele><time>2026-03-28T14:12:51.651Z</time></trkpt><trkpt lat="39.2310613" lon="16.9353842"><ele>94.0</ele><time>2026-03-28T14:12:52.648Z</time></trkpt><trkpt lat="39.2309812" lon="16.9354623"><ele>94.0</ele><time>2026-03-28T14:12:53.652Z</time></trkpt><trkpt lat="39.2308998" lon="16.9355598"><ele>94.0</ele><time>2026-03-28T14:12:54.652Z</time></trkpt><trkpt lat="39.2308277" lon="16.9356784"><ele>94.0</ele><time>2026-03-28T14:12:55.652Z</time></trkpt><trkpt lat="39.2307681" lon="16.9357988"><ele>94.0</ele><time>2026-03-28T14:12:56.655Z</time></trkpt><trkpt lat="39.2307087" lon="16.9359184"><ele>94.0</ele><time>2026-03-28T14:12:57.656Z</time></trkpt><trkpt lat="39.2306453" lon="16.9360398"><ele>93.2</ele><time>2026-03-28T14:12:58.649Z</time></trkpt><trkpt lat="39.2305859" lon="16.9361513"><ele>92.4</ele><time>2026-03-28T14:12:59.653Z</time></trkpt><trkpt lat="39.2305337" lon="16.9362499"><ele>91.6</ele><time>2026-03-28T14:13:00.65Z</time></trkpt><trkpt lat="39.2304903" lon="16.9363335"><ele>90.8</ele><time>2026-03-28T14:13:01.647Z</time></trkpt><trkpt lat="39.2304317" lon="16.9364569"><ele>90.0</ele><time>2026-03-28T14:13:03.655Z</time></trkpt><trkpt lat="39.2303891" lon="16.936545"><ele>90.0</ele><time>2026-03-28T14:13:05.65Z</time></trkpt><trkpt lat="39.2303298" lon="16.9366508"><ele>90.0</ele><time>2026-03-28T14:13:07.65Z</time></trkpt><trkpt lat="39.230295" lon="16.9367208"><ele>90.0</ele><time>2026-03-28T14:13:08.651Z</time></trkpt><trkpt lat="39.2302561" lon="16.9368033"><ele>90.0</ele><time>2026-03-28T14:13:09.656Z</time></trkpt><trkpt lat="39.2302148" lon="16.9368895"><ele>90.0</ele><time>2026-03-28T14:13:10.651Z</time></trkpt><trkpt lat="39.2301701" lon="16.9369784"><ele>90.0</ele><time>2026-03-28T14:13:11.654Z</time></trkpt><trkpt lat="39.2301252" lon="16.9370711"><ele>90.4</ele><time>2026-03-28T14:13:12.651Z</time></trkpt><trkpt lat="39.2300738" lon="16.9371797"><ele>90.8</ele><time>2026-03-28T14:13:13.65Z</time></trkpt><trkpt lat="39.2300219" lon="16.9372889"><ele>91.19999999999999</ele><time>2026-03-28T14:13:14.662Z</time></trkpt><trkpt lat="39.2299708" lon="16.9373948"><ele>91.6</ele><time>2026-03-28T14:13:15.648Z</time></trkpt><trkpt lat="39.2299189" lon="16.9375001"><ele>92.0</ele><time>2026-03-28T14:13:16.648Z</time></trkpt><trkpt lat="39.2298674" lon="16.9376038"><ele>92.0</ele><time>2026-03-28T14:13:17.652Z</time></trkpt><trkpt lat="39.2298196" lon="16.9377019"><ele>92.0</ele><time>2026-03-28T14:13:18.655Z</time></trkpt><trkpt lat="39.2297751" lon="16.9377976"><ele>92.0</ele><time>2026-03-28T14:13:19.648Z</time></trkpt><trkpt lat="39.229729" lon="16.9378938"><ele>92.0</ele><time>2026-03-28T14:13:20.655Z</time></trkpt><trkpt lat="39.2296745" lon="16.9379934"><ele>92.0</ele><time>2026-03-28T14:13:21.652Z</time></trkpt><trkpt lat="39.2296094" lon="16.9380866"><ele>92.0</ele><time>2026-03-28T14:13:22.648Z</time></trkpt><trkpt lat="39.2295369" lon="16.9381623"><ele>92.0</ele><time>2026-03-28T14:13:23.653Z</time></trkpt><trkpt lat="39.2294567" lon="16.9382291"><ele>92.0</ele><time>2026-03-28T14:13:24.661Z</time></trkpt><trkpt lat="39.229357" lon="16.9383006"><ele>92.0</ele><time>2026-03-28T14:13:25.649Z</time></trkpt><trkpt lat="39.2292532" lon="16.9383746"><ele>92.0</ele><time>2026-03-28T14:13:26.652Z</time></trkpt><trkpt lat="39.2291396" lon="16.9384589"><ele>90.39999999999999</ele><time>2026-03-28T14:13:27.656Z</time></trkpt><trkpt lat="39.2290391" lon="16.9385454"><ele>88.8</ele><time>2026-03-28T14:13:28.646Z</time></trkpt><trkpt lat="39.228962" lon="16.9386398"><ele>87.2</ele><time>2026-03-28T14:13:29.646Z</time></trkpt><trkpt lat="39.2289135" lon="16.9387477"><ele>85.6</ele><time>2026-03-28T14:13:30.647Z</time></trkpt><trkpt lat="39.2288844" lon="16.9388672"><ele>84.0</ele><time>2026-03-28T14:13:31.653Z</time></trkpt><trkpt lat="39.2288637" lon="16.939003"><ele>84.0</ele><time>2026-03-28T14:13:32.655Z</time></trkpt><trkpt lat="39.2288463" lon="16.9391608"><ele>84.0</ele><time>2026-03-28T14:13:33.654Z</time></trkpt><trkpt lat="39.2288291" lon="16.9393423"><ele>84.0</ele><time>2026-03-28T14:13:34.649Z</time></trkpt><trkpt lat="39.2288116" lon="16.9395226"><ele>84.0</ele><time>2026-03-28T14:13:35.652Z</time></trkpt><trkpt lat="39.2287926" lon="16.9396926"><ele>84.0</ele><time>2026-03-28T14:13:36.65Z</time></trkpt><trkpt lat="39.2287755" lon="16.9398555"><ele>84.0</ele><time>2026-03-28T14:13:37.66Z</time></trkpt><trkpt lat="39.2287618" lon="16.9400115"><ele>84.0</ele><time>2026-03-28T14:13:38.66Z</time></trkpt><trkpt lat="39.2287484" lon="16.9401614"><ele>84.0</ele><time>2026-03-28T14:13:39.645Z</time></trkpt><trkpt lat="39.2287384" lon="16.9403079"><ele>83.6</ele><time>2026-03-28T14:13:40.662Z</time></trkpt><trkpt lat="39.2287308" lon="16.94045"><ele>83.2</ele><time>2026-03-28T14:13:41.654Z</time></trkpt><trkpt lat="39.2287263" lon="16.9405888"><ele>82.8</ele><time>2026-03-28T14:13:42.651Z</time></trkpt><trkpt lat="39.228722" lon="16.9407267"><ele>82.39999999999999</ele><time>2026-03-28T14:13:43.649Z</time></trkpt><trkpt lat="39.2287198" lon="16.9408657"><ele>82.0</ele><time>2026-03-28T14:13:44.654Z</time></trkpt><trkpt lat="39.2287165" lon="16.9409888"><ele>81.5</ele><time>2026-03-28T14:13:45.65Z</time></trkpt><trkpt lat="39.2287127" lon="16.9410934"><ele>81.0</ele><time>2026-03-28T14:13:46.66Z</time></trkpt><trkpt lat="39.2287067" lon="16.9411835"><ele>80.5</ele><time>2026-03-28T14:13:47.65Z</time></trkpt><trkpt lat="39.2286996" lon="16.9412957"><ele>80.0</ele><time>2026-03-28T14:13:49.65Z</time></trkpt><trkpt lat="39.2287411" lon="16.9413598"><ele>79.5</ele><time>2026-03-28T14:13:58.65Z</time></trkpt><trkpt lat="39.2288284" lon="16.9414133"><ele>79.0</ele><time>2026-03-28T14:14:01.649Z</time></trkpt><trkpt lat="39.2289042" lon="16.9414688"><ele>79.80000000000001</ele><time>2026-03-28T14:14:02.649Z</time></trkpt><trkpt lat="39.2289952" lon="16.9415276"><ele>80.60000000000001</ele><time>2026-03-28T14:14:03.652Z</time></trkpt><trkpt lat="39.2290879" lon="16.9415712"><ele>81.4</ele><time>2026-03-28T14:14:04.647Z</time></trkpt><trkpt lat="39.229172" lon="16.9416089"><ele>82.2</ele><time>2026-03-28T14:14:05.659Z</time></trkpt><trkpt lat="39.2292398" lon="16.9416465"><ele>83.0</ele><time>2026-03-28T14:14:06.65Z</time></trkpt><trkpt lat="39.2293361" lon="16.9417123"><ele>83.66666666666667</ele><time>2026-03-28T14:14:08.657Z</time></trkpt><trkpt lat="39.2293917" lon="16.9417607"><ele>84.33333333333334</ele><time>2026-03-28T14:14:10.654Z</time></trkpt><trkpt lat="39.2294439" lon="16.9418125"><ele>85.0</ele><time>2026-03-28T14:14:12.65Z</time></trkpt><trkpt lat="39.229498" lon="16.9418832"><ele>85.66666666666667</ele><time>2026-03-28T14:14:14.647Z</time></trkpt><trkpt lat="39.2295376" lon="16.9419473"><ele>86.33333333333333</ele><time>2026-03-28T14:14:16.652Z</time></trkpt><trkpt lat="39.2295931" lon="16.9420508"><ele>87.0</ele><time>2026-03-28T14:14:19.662Z</time></trkpt><trkpt lat="39.229653" lon="16.9421552"><ele>87.0</ele><time>2026-03-28T14:14:21.653Z</time></trkpt><trkpt lat="39.2296983" lon="16.9422367"><ele>87.0</ele><time>2026-03-28T14:14:23.653Z</time></trkpt><trkpt lat="39.2297358" lon="16.9423096"><ele>87.0</ele><time>2026-03-28T14:14:26.657Z</time></trkpt><trkpt lat="39.2297864" lon="16.9424126"><ele>87.0</ele><time>2026-03-28T14:14:29.646Z</time></trkpt><trkpt lat="39.2298233" lon="16.9425043"><ele>87.0</ele><time>2026-03-28T14:14:31.647Z</time></trkpt><trkpt lat="39.2298687" lon="16.9426169"><ele>87.0</ele><time>2026-03-28T14:14:33.657Z</time></trkpt><trkpt lat="39.2299441" lon="16.9427271"><ele>88.0</ele><time>2026-03-28T14:14:35.645Z</time></trkpt><trkpt lat="39.2299994" lon="16.9427806"><ele>89.0</ele><time>2026-03-28T14:14:36.653Z</time></trkpt><trkpt lat="39.2300574" lon="16.9428435"><ele>90.0</ele><time>2026-03-28T14:14:37.644Z</time></trkpt><trkpt lat="39.2301107" lon="16.9429072"><ele>91.0</ele><time>2026-03-28T14:14:38.649Z</time></trkpt><trkpt lat="39.230212" lon="16.9429999"><ele>92.0</ele><time>2026-03-28T14:14:40.648Z</time></trkpt><trkpt lat="39.2303184" lon="16.9430707"><ele>92.0</ele><time>2026-03-28T14:14:42.648Z</time></trkpt><trkpt lat="39.2304037" lon="16.9431172"><ele>92.0</ele><time>2026-03-28T14:14:44.648Z</time></trkpt><trkpt lat="39.2304749" lon="16.9431734"><ele>92.0</ele><time>2026-03-28T14:14:48.65Z</time></trkpt><trkpt lat="39.2305207" lon="16.943251"><ele>92.0</ele><time>2026-03-28T14:14:50.655Z</time></trkpt><trkpt lat="39.2305756" lon="16.9433846"><ele>92.0</ele><time>2026-03-28T14:14:52.656Z</time></trkpt><trkpt lat="39.2306084" lon="16.9434643"><ele>92.0</ele><time>2026-03-28T14:14:53.652Z</time></trkpt><trkpt lat="39.2306316" lon="16.9435403"><ele>93.0</ele><time>2026-03-28T14:14:54.654Z</time></trkpt><trkpt lat="39.2306607" lon="16.9436233"><ele>94.0</ele><time>2026-03-28T14:14:55.647Z</time></trkpt><trkpt lat="39.2306888" lon="16.9437051"><ele>95.0</ele><time>2026-03-28T14:14:56.653Z</time></trkpt><trkpt lat="39.2307202" lon="16.9437779"><ele>96.0</ele><time>2026-03-28T14:14:57.652Z</time></trkpt><trkpt lat="39.2307763" lon="16.9438712"><ele>96.99999999999999</ele><time>2026-03-28T14:14:59.647Z</time></trkpt><trkpt lat="39.2308389" lon="16.9439388"><ele>98.0</ele><time>2026-03-28T14:15:02.654Z</time></trkpt><trkpt lat="39.2309074" lon="16.943995"><ele>98.0</ele><time>2026-03-28T14:15:05.644Z</time></trkpt><trkpt lat="39.2309982" lon="16.9440546"><ele>98.0</ele><time>2026-03-28T14:15:07.651Z</time></trkpt><trkpt lat="39.2310583" lon="16.9441015"><ele>98.0</ele><time>2026-03-28T14:15:08.647Z</time></trkpt><trkpt lat="39.231131" lon="16.9441737"><ele>98.0</ele><time>2026-03-28T14:15:09.657Z</time></trkpt><trkpt lat="39.2312039" lon="16.9442684"><ele>98.0</ele><time>2026-03-28T14:15:10.655Z</time></trkpt><trkpt lat="39.2312672" lon="16.9443863"><ele>98.60000000000001</ele><time>2026-03-28T14:15:11.655Z</time></trkpt><trkpt lat="39.2313234" lon="16.9445284"><ele>99.2</ele><time>2026-03-28T14:15:12.654Z</time></trkpt><trkpt lat="39.2313688" lon="16.9446649"><ele>99.8</ele><time>2026-03-28T14:15:13.651Z</time></trkpt><trkpt lat="39.2314094" lon="16.9447852"><ele>100.4</ele><time>2026-03-28T14:15:14.644Z</time></trkpt><trkpt lat="39.2314457" lon="16.9448782"><ele>101.0</ele><time>2026-03-28T14:15:15.661Z</time></trkpt><trkpt lat="39.2314824" lon="16.9449554"><ele>102.16666666666666</ele><time>2026-03-28T14:15:17.645Z</time></trkpt><trkpt lat="39.2315333" lon="16.9450465"><ele>103.33333333333333</ele><time>2026-03-28T14:15:20.653Z</time></trkpt><trkpt lat="39.2315742" lon="16.9451154"><ele>104.5</ele><time>2026-03-28T14:15:22.651Z</time></trkpt><trkpt lat="39.2316246" lon="16.9451782"><ele>105.66666666666666</ele><time>2026-03-28T14:15:24.648Z</time></trkpt><trkpt lat="39.2316985" lon="16.9452599"><ele>106.83333333333333</ele><time>2026-03-28T14:15:26.649Z</time></trkpt><trkpt lat="39.2317739" lon="16.9453515"><ele>108.0</ele><time>2026-03-28T14:15:28.65Z</time></trkpt><trkpt lat="39.2318518" lon="16.9454322"><ele>108.0</ele><time>2026-03-28T14:15:30.647Z</time></trkpt><trkpt lat="39.2319569" lon="16.9454842"><ele>108.0</ele><time>2026-03-28T14:15:32.653Z</time></trkpt><trkpt lat="39.232021" lon="16.9455097"><ele>108.0</ele><time>2026-03-28T14:15:33.648Z</time></trkpt><trkpt lat="39.2320845" lon="16.9455306"><ele>108.0</ele><time>2026-03-28T14:15:34.646Z</time></trkpt><trkpt lat="39.2321461" lon="16.9455534"><ele>108.0</ele><time>2026-03-28T14:15:35.657Z</time></trkpt><trkpt lat="39.2322502" lon="16.9455983"><ele>108.0</ele><time>2026-03-28T14:15:37.654Z</time></trkpt><trkpt lat="39.2323199" lon="16.9456307"><ele>107.4</ele><time>2026-03-28T14:15:39.658Z</time></trkpt><trkpt lat="39.232419" lon="16.9456649"><ele>106.80000000000001</ele><time>2026-03-28T14:15:41.649Z</time></trkpt><trkpt lat="39.2325229" lon="16.9456929"><ele>106.2</ele><time>2026-03-28T14:15:43.655Z</time></trkpt><trkpt lat="39.2326349" lon="16.9457238"><ele>105.6</ele><time>2026-03-28T14:15:45.647Z</time></trkpt><trkpt lat="39.2327287" lon="16.9457441"><ele>105.0</ele><time>2026-03-28T14:15:47.647Z</time></trkpt><trkpt lat="39.2328133" lon="16.9457627"><ele>105.0</ele><time>2026-03-28T14:15:49.652Z</time></trkpt><trkpt lat="39.2329132" lon="16.9457882"><ele>105.0</ele><time>2026-03-28T14:15:51.654Z</time></trkpt><trkpt lat="39.2330233" lon="16.9458262"><ele>105.0</ele><time>2026-03-28T14:15:53.647Z</time></trkpt><trkpt lat="39.2330847" lon="16.9458472"><ele>105.0</ele><time>2026-03-28T14:15:55.656Z</time></trkpt><trkpt lat="39.2331751" lon="16.9458762"><ele>105.0</ele><time>2026-03-28T14:16:07.65Z</time></trkpt><trkpt lat="39.2332429" lon="16.945892"><ele>105.0</ele><time>2026-03-28T14:16:09.652Z</time></trkpt><trkpt lat="39.2333171" lon="16.9459077"><ele>108.16666666666667</ele><time>2026-03-28T14:16:11.652Z</time></trkpt><trkpt lat="39.2334096" lon="16.9459453"><ele>111.33333333333334</ele><time>2026-03-28T14:16:13.649Z</time></trkpt><trkpt lat="39.2335112" lon="16.9459877"><ele>114.5</ele><time>2026-03-28T14:16:15.647Z</time></trkpt><trkpt lat="39.2335779" lon="16.9460133"><ele>117.66666666666667</ele><time>2026-03-28T14:16:17.65Z</time></trkpt><trkpt lat="39.2336632" lon="16.9460536"><ele>120.83333333333334</ele><time>2026-03-28T14:16:19.662Z</time></trkpt><trkpt lat="39.2337335" lon="16.9460886"><ele>124.0</ele><time>2026-03-28T14:16:20.647Z</time></trkpt><trkpt lat="39.2338012" lon="16.9461223"><ele>124.00000000000001</ele><time>2026-03-28T14:16:21.654Z</time></trkpt><trkpt lat="39.2338675" lon="16.9461529"><ele>124.0</ele><time>2026-03-28T14:16:22.648Z</time></trkpt><trkpt lat="39.2339291" lon="16.9461795"><ele>124.0</ele><time>2026-03-28T14:16:23.652Z</time></trkpt><trkpt lat="39.2340276" lon="16.9462207"><ele>124.0</ele><time>2026-03-28T14:16:25.65Z</time></trkpt><trkpt lat="39.2341311" lon="16.9462528"><ele>124.00000000000001</ele><time>2026-03-28T14:16:27.65Z</time></trkpt><trkpt lat="39.2342247" lon="16.9462644"><ele>124.0</ele><time>2026-03-28T14:16:29.645Z</time></trkpt><trkpt lat="39.2343287" lon="16.9462347"><ele>123.16666666666667</ele><time>2026-03-28T14:16:32.647Z</time></trkpt><trkpt lat="39.2344004" lon="16.9462025"><ele>122.33333333333334</ele><time>2026-03-28T14:16:33.647Z</time></trkpt><trkpt lat="39.2344879" lon="16.9461655"><ele>121.5</ele><time>2026-03-28T14:16:34.654Z</time></trkpt><trkpt lat="39.2345786" lon="16.9461273"><ele>120.66666666666666</ele><time>2026-03-28T14:16:35.675Z</time></trkpt><trkpt lat="39.234659" lon="16.9460735"><ele>119.83333333333333</ele><time>2026-03-28T14:16:36.65Z</time></trkpt><trkpt lat="39.2347364" lon="16.946026"><ele>119.0</ele><time>2026-03-28T14:16:37.647Z</time></trkpt><trkpt lat="39.2348042" lon="16.9459835"><ele>119.6</ele><time>2026-03-28T14:16:38.643Z</time></trkpt><trkpt lat="39.2349015" lon="16.9459269"><ele>120.2</ele><time>2026-03-28T14:16:40.644Z</time></trkpt><trkpt lat="39.23497" lon="16.9458514"><ele>120.79999999999998</ele><time>2026-03-28T14:16:42.644Z</time></trkpt><trkpt lat="39.2350541" lon="16.945775"><ele>121.39999999999999</ele><time>2026-03-28T14:16:44.646Z</time></trkpt><trkpt lat="39.2351099" lon="16.9457328"><ele>122.0</ele><time>2026-03-28T14:16:45.652Z</time></trkpt><trkpt lat="39.2351998" lon="16.9457229"><ele>121.99999999999999</ele><time>2026-03-28T14:16:46.652Z</time></trkpt><trkpt lat="39.2352854" lon="16.9457289"><ele>122.0</ele><time>2026-03-28T14:16:47.647Z</time></trkpt><trkpt lat="39.235367" lon="16.9457421"><ele>122.0</ele><time>2026-03-28T14:16:48.652Z</time></trkpt><trkpt lat="39.2354493" lon="16.9457484"><ele>122.0</ele><time>2026-03-28T14:16:49.652Z</time></trkpt><trkpt lat="39.2355214" lon="16.9457501"><ele>121.99999999999999</ele><time>2026-03-28T14:16:50.659Z</time></trkpt><trkpt lat="39.2355887" lon="16.9457625"><ele>122.0</ele><time>2026-03-28T14:16:51.65Z</time></trkpt><trkpt lat="39.2356638" lon="16.9457867"><ele>123.49999999999999</ele><time>2026-03-28T14:16:52.653Z</time></trkpt><trkpt lat="39.2357401" lon="16.9458189"><ele>125.0</ele><time>2026-03-28T14:16:53.648Z</time></trkpt><trkpt lat="39.2358047" lon="16.9458511"><ele>126.5</ele><time>2026-03-28T14:16:54.653Z</time></trkpt><trkpt lat="39.2358904" lon="16.9458761"><ele>128.0</ele><time>2026-03-28T14:16:56.652Z</time></trkpt><trkpt lat="39.2359558" lon="16.9459031"><ele>129.5</ele><time>2026-03-28T14:16:58.666Z</time></trkpt><trkpt lat="39.2360107" lon="16.9459873"><ele>131.0</ele><time>2026-03-28T14:17:00.649Z</time></trkpt><trkpt lat="39.236036" lon="16.9461048"><ele>132.0</ele><time>2026-03-28T14:17:02.651Z</time></trkpt><trkpt lat="39.2360726" lon="16.946232"><ele>133.0</ele><time>2026-03-28T14:17:04.656Z</time></trkpt><trkpt lat="39.2361" lon="16.9463085"><ele>134.0</ele><time>2026-03-28T14:17:05.647Z</time></trkpt><trkpt lat="39.2361344" lon="16.9463937"><ele>135.0</ele><time>2026-03-28T14:17:06.653Z</time></trkpt><trkpt lat="39.236171" lon="16.9464775"><ele>136.0</ele><time>2026-03-28T14:17:07.647Z</time></trkpt><trkpt lat="39.2362076" lon="16.9465595"><ele>137.0</ele><time>2026-03-28T14:17:08.648Z</time></trkpt><trkpt lat="39.2362662" lon="16.9466814"><ele>137.25</ele><time>2026-03-28T14:17:10.648Z</time></trkpt><trkpt lat="39.2363624" lon="16.9467776"><ele>137.5</ele><time>2026-03-28T14:17:12.648Z</time></trkpt><trkpt lat="39.2364631" lon="16.9468439"><ele>137.75</ele><time>2026-03-28T14:17:14.647Z</time></trkpt><trkpt lat="39.2365579" lon="16.9469211"><ele>138.0</ele><time>2026-03-28T14:17:16.65Z</time></trkpt><trkpt lat="39.2366585" lon="16.9470098"><ele>140.83333333333334</ele><time>2026-03-28T14:17:18.655Z</time></trkpt><trkpt lat="39.2367573" lon="16.9470903"><ele>143.66666666666666</ele><time>2026-03-28T14:17:20.648Z</time></trkpt><trkpt lat="39.2368543" lon="16.9471775"><ele>146.5</ele><time>2026-03-28T14:17:22.649Z</time></trkpt><trkpt lat="39.2369049" lon="16.9472311"><ele>149.33333333333331</ele><time>2026-03-28T14:17:23.648Z</time></trkpt><trkpt lat="39.2369491" lon="16.9472934"><ele>152.16666666666666</ele><time>2026-03-28T14:17:24.657Z</time></trkpt><trkpt lat="39.2369914" lon="16.9473596"><ele>155.0</ele><time>2026-03-28T14:17:25.648Z</time></trkpt><trkpt lat="39.2370348" lon="16.9474355"><ele>155.0</ele><time>2026-03-28T14:17:26.654Z</time></trkpt><trkpt lat="39.2370667" lon="16.9475116"><ele>155.0</ele><time>2026-03-28T14:17:27.649Z</time></trkpt><trkpt lat="39.2370916" lon="16.9475877"><ele>155.0</ele><time>2026-03-28T14:17:28.652Z</time></trkpt><trkpt lat="39.2370911" lon="16.9477154"><ele>155.0</ele><time>2026-03-28T14:17:30.651Z</time></trkpt><trkpt lat="39.2370597" lon="16.9478057"><ele>155.0</ele><time>2026-03-28T14:17:32.651Z</time></trkpt><trkpt lat="39.2370208" lon="16.947919"><ele>155.0</ele><time>2026-03-28T14:17:35.649Z</time></trkpt><trkpt lat="39.2370098" lon="16.9480106"><ele>156.33333333333331</ele><time>2026-03-28T14:17:38.649Z</time></trkpt><trkpt lat="39.236999" lon="16.9481017"><ele>157.66666666666666</ele><time>2026-03-28T14:18:47.646Z</time></trkpt><trkpt lat="39.236979" lon="16.9482155"><ele>159.0</ele><time>2026-03-28T14:18:49.649Z</time></trkpt><trkpt lat="39.2369605" lon="16.9483154"><ele>160.33333333333334</ele><time>2026-03-28T14:18:52.657Z</time></trkpt><trkpt lat="39.2369713" lon="16.9484197"><ele>161.66666666666669</ele><time>2026-03-28T14:18:56.65Z</time></trkpt><trkpt lat="39.2370057" lon="16.9484893"><ele>163.0</ele><time>2026-03-28T14:18:59.647Z</time></trkpt><trkpt lat="39.2370414" lon="16.9485734"><ele>163.33333333333334</ele><time>2026-03-28T14:19:02.658Z</time></trkpt><trkpt lat="39.2370816" lon="16.9486685"><ele>163.66666666666669</ele><time>2026-03-28T14:19:05.647Z</time></trkpt><trkpt lat="39.2371228" lon="16.9487507"><ele>164.0</ele><time>2026-03-28T14:19:07.652Z</time></trkpt><trkpt lat="39.2371587" lon="16.9488203"><ele>164.33333333333334</ele><time>2026-03-28T14:19:09.649Z</time></trkpt><trkpt lat="39.2371942" lon="16.9489109"><ele>164.66666666666666</ele><time>2026-03-28T14:19:12.658Z</time></trkpt><trkpt lat="39.2372369" lon="16.949023"><ele>165.0</ele><time>2026-03-28T14:19:15.65Z</time></trkpt><trkpt lat="39.2372718" lon="16.9491098"><ele>164.33333333333334</ele><time>2026-03-28T14:19:18.649Z</time></trkpt><trkpt lat="39.2373126" lon="16.9491996"><ele>163.66666666666666</ele><time>2026-03-28T14:19:32.652Z</time></trkpt><trkpt lat="39.237348" lon="16.9492802"><ele>163.0</ele><time>2026-03-28T14:19:36.649Z</time></trkpt><trkpt lat="39.2373835" lon="16.9493666"><ele>162.33333333333331</ele><time>2026-03-28T14:19:39.654Z</time></trkpt><trkpt lat="39.2374228" lon="16.9494656"><ele>161.66666666666666</ele><time>2026-03-28T14:19:42.646Z</time></trkpt><trkpt lat="39.2374426" lon="16.9495688"><ele>161.0</ele><time>2026-03-28T14:19:45.65Z</time></trkpt><trkpt lat="39.2374355" lon="16.9496861"><ele>159.16666666666666</ele><time>2026-03-28T14:19:48.65Z</time></trkpt><trkpt lat="39.2374356" lon="16.9497981"><ele>157.33333333333331</ele><time>2026-03-28T14:19:51.647Z</time></trkpt><trkpt lat="39.2374567" lon="16.9499078"><ele>155.5</ele><time>2026-03-28T14:19:54.654Z</time></trkpt><trkpt lat="39.2375127" lon="16.9500083"><ele>153.66666666666666</ele><time>2026-03-28T14:19:57.648Z</time></trkpt><trkpt lat="39.237574" lon="16.9500704"><ele>151.83333333333334</ele><time>2026-03-28T14:19:59.649Z</time></trkpt><trkpt lat="39.2376291" lon="16.9501219"><ele>150.0</ele><time>2026-03-28T14:20:01.655Z</time></trkpt><trkpt lat="39.2376971" lon="16.9502055"><ele>149.0</ele><time>2026-03-28T14:20:04.652Z</time></trkpt><trkpt lat="39.237714" lon="16.9503098"><ele>148.0</ele><time>2026-03-28T14:20:14.647Z</time></trkpt><trkpt lat="39.2377071" lon="16.9503911"><ele>147.0</ele><time>2026-03-28T14:20:17.652Z</time></trkpt><trkpt lat="39.2377195" lon="16.9504899"><ele>146.0</ele><time>2026-03-28T14:20:20.648Z</time></trkpt><trkpt lat="39.2377454" lon="16.9505967"><ele>145.0</ele><time>2026-03-28T14:20:24.648Z</time></trkpt><trkpt lat="39.2377487" lon="16.9507038"><ele>144.0</ele><time>2026-03-28T14:20:27.653Z</time></trkpt><trkpt lat="39.2377591" lon="16.9508179"><ele>142.85714285714286</ele><time>2026-03-28T14:20:30.667Z</time></trkpt><trkpt lat="39.2377768" lon="16.9509067"><ele>141.71428571428572</ele><time>2026-03-28T14:20:33.651Z</time></trkpt><trkpt lat="39.2378017" lon="16.9509907"><ele>140.57142857142856</ele><time>2026-03-28T14:20:36.656Z</time></trkpt><trkpt lat="39.2378264" lon="16.9510706"><ele>139.42857142857144</ele><time>2026-03-28T14:20:40.642Z</time></trkpt><trkpt lat="39.2378578" lon="16.9511625"><ele>138.28571428571428</ele><time>2026-03-28T14:20:43.65Z</time></trkpt><trkpt lat="39.2378899" lon="16.9512604"><ele>137.14285714285714</ele><time>2026-03-28T14:20:46.657Z</time></trkpt><trkpt lat="39.2379114" lon="16.9513423"><ele>136.0</ele><time>2026-03-28T14:20:51.65Z</time></trkpt><trkpt lat="39.2379427" lon="16.9514312"><ele>135.99999999999997</ele><time>2026-03-28T14:20:55.651Z</time></trkpt><trkpt lat="39.2379789" lon="16.9515231"><ele>136.0</ele><time>2026-03-28T14:21:00.656Z</time></trkpt><trkpt lat="39.2380026" lon="16.9516113"><ele>136.0</ele><time>2026-03-28T14:21:03.65Z</time></trkpt><trkpt lat="39.2380282" lon="16.9516882"><ele>136.0</ele><time>2026-03-28T14:21:05.651Z</time></trkpt><trkpt lat="39.2380596" lon="16.9517588"><ele>136.0</ele><time>2026-03-28T14:21:07.659Z</time></trkpt><trkpt lat="39.2380966" lon="16.9518377"><ele>135.99999999999997</ele><time>2026-03-28T14:21:10.653Z</time></trkpt><trkpt lat="39.2381364" lon="16.9519192"><ele>136.0</ele><time>2026-03-28T14:21:14.652Z</time></trkpt><trkpt lat="39.2381808" lon="16.9520071"><ele>137.57142857142856</ele><time>2026-03-28T14:21:18.65Z</time></trkpt><trkpt lat="39.2382162" lon="16.9520817"><ele>139.14285714285714</ele><time>2026-03-28T14:21:20.657Z</time></trkpt><trkpt lat="39.2382533" lon="16.9521676"><ele>140.71428571428572</ele><time>2026-03-28T14:21:22.65Z</time></trkpt><trkpt lat="39.2382833" lon="16.9522554"><ele>142.28571428571428</ele><time>2026-03-28T14:21:24.654Z</time></trkpt><trkpt lat="39.2383166" lon="16.9523509"><ele>143.85714285714286</ele><time>2026-03-28T14:21:26.659Z</time></trkpt><trkpt lat="39.2383514" lon="16.9524354"><ele>145.42857142857142</ele><time>2026-03-28T14:21:28.65Z</time></trkpt><trkpt lat="39.2383872" lon="16.9525141"><ele>147.0</ele><time>2026-03-28T14:21:31.658Z</time></trkpt><trkpt lat="39.2384225" lon="16.952582"><ele>147.5</ele><time>2026-03-28T14:21:56.648Z</time></trkpt><trkpt lat="39.2384568" lon="16.9526511"><ele>148.0</ele><time>2026-03-28T14:21:58.649Z</time></trkpt><trkpt lat="39.238487" lon="16.9527276"><ele>148.5</ele><time>2026-03-28T14:22:00.65Z</time></trkpt><trkpt lat="39.2385295" lon="16.9528243"><ele>149.0</ele><time>2026-03-28T14:22:03.651Z</time></trkpt><trkpt lat="39.2385701" lon="16.9529218"><ele>149.5</ele><time>2026-03-28T14:22:49.663Z</time></trkpt><trkpt lat="39.2386104" lon="16.9530112"><ele>150.0</ele><time>2026-03-28T14:22:51.656Z</time></trkpt><trkpt lat="39.2386482" lon="16.9531058"><ele>150.0</ele><time>2026-03-28T14:22:53.656Z</time></trkpt><trkpt lat="39.2386846" lon="16.9531832"><ele>150.0</ele><time>2026-03-28T14:22:55.656Z</time></trkpt><trkpt lat="39.2387299" lon="16.9532813"><ele>150.0</ele><time>2026-03-28T14:22:58.653Z</time></trkpt><trkpt lat="39.2387505" lon="16.9533814"><ele>150.0</ele><time>2026-03-28T14:23:01.648Z</time></trkpt><trkpt lat="39.2387672" lon="16.9534934"><ele>150.0</ele><time>2026-03-28T14:23:04.648Z</time></trkpt><trkpt lat="39.2387718" lon="16.9535847"><ele>150.0</ele><time>2026-03-28T14:23:06.653Z</time></trkpt><trkpt lat="39.2387708" lon="16.9537047"><ele>149.6</ele><time>2026-03-28T14:23:08.647Z</time></trkpt><trkpt lat="39.2387789" lon="16.9538475"><ele>149.2</ele><time>2026-03-28T14:23:10.654Z</time></trkpt><trkpt lat="39.2388301" lon="16.9539598"><ele>148.8</ele><time>2026-03-28T14:23:12.646Z</time></trkpt><trkpt lat="39.2388973" lon="16.9540312"><ele>148.4</ele><time>2026-03-28T14:23:14.654Z</time></trkpt><trkpt lat="39.238945" lon="16.9540884"><ele>148.0</ele><time>2026-03-28T14:23:16.65Z</time></trkpt><trkpt lat="39.2390104" lon="16.9541599"><ele>151.60000000000002</ele><time>2026-03-28T14:23:18.664Z</time></trkpt><trkpt lat="39.23907" lon="16.9542469"><ele>155.20000000000002</ele><time>2026-03-28T14:23:20.651Z</time></trkpt><trkpt lat="39.2391254" lon="16.9543545"><ele>158.8</ele><time>2026-03-28T14:23:22.656Z</time></trkpt><trkpt lat="39.23918" lon="16.9544818"><ele>162.4</ele><time>2026-03-28T14:23:24.659Z</time></trkpt><trkpt lat="39.2392458" lon="16.9546138"><ele>166.0</ele><time>2026-03-28T14:23:26.657Z</time></trkpt><trkpt lat="39.2393174" lon="16.9547395"><ele>166.0</ele><time>2026-03-28T14:23:28.66Z</time></trkpt><trkpt lat="39.2393523" lon="16.9548082"><ele>166.0</ele><time>2026-03-28T14:23:29.65Z</time></trkpt><trkpt lat="39.2393956" lon="16.9548716"><ele>166.0</ele><time>2026-03-28T14:23:30.654Z</time></trkpt><trkpt lat="39.2394562" lon="16.9549394"><ele>166.0</ele><time>2026-03-28T14:23:31.651Z</time></trkpt><trkpt lat="39.2395286" lon="16.9550068"><ele>166.0</ele><time>2026-03-28T14:23:32.654Z</time></trkpt><trkpt lat="39.2395983" lon="16.9550529"><ele>166.0</ele><time>2026-03-28T14:23:33.657Z</time></trkpt><trkpt lat="39.2396725" lon="16.9550903"><ele>166.5</ele><time>2026-03-28T14:23:34.657Z</time></trkpt><trkpt lat="39.2397414" lon="16.9551103"><ele>167.0</ele><time>2026-03-28T14:23:35.654Z</time></trkpt><trkpt lat="39.2398065" lon="16.9551401"><ele>167.5</ele><time>2026-03-28T14:23:36.654Z</time></trkpt><trkpt lat="39.2399066" lon="16.9551799"><ele>168.0</ele><time>2026-03-28T14:23:38.656Z</time></trkpt><trkpt lat="39.2399999" lon="16.9552263"><ele>168.5</ele><time>2026-03-28T14:23:40.649Z</time></trkpt><trkpt lat="39.240097" lon="16.955275"><ele>169.0</ele><time>2026-03-28T14:23:42.646Z</time></trkpt><trkpt lat="39.2402151" lon="16.9553056"><ele>169.0</ele><time>2026-03-28T14:23:44.662Z</time></trkpt><trkpt lat="39.2403144" lon="16.9553023"><ele>169.0</ele><time>2026-03-28T14:23:46.653Z</time></trkpt><trkpt lat="39.2403877" lon="16.9552668"><ele>169.0</ele><time>2026-03-28T14:23:48.647Z</time></trkpt><trkpt lat="39.2404832" lon="16.9552531"><ele>169.0</ele><time>2026-03-28T14:23:50.646Z</time></trkpt><trkpt lat="39.2405823" lon="16.9552797"><ele>169.0</ele><time>2026-03-28T14:23:52.649Z</time></trkpt><trkpt lat="39.2406687" lon="16.9552847"><ele>169.0</ele><time>2026-03-28T14:23:54.648Z</time></trkpt><trkpt lat="39.2407584" lon="16.955251"><ele>169.0</ele><time>2026-03-28T14:23:56.644Z</time></trkpt><trkpt lat="39.2408851" lon="16.9552288"><ele>169.0</ele><time>2026-03-28T14:23:58.646Z</time></trkpt><trkpt lat="39.2409477" lon="16.9552432"><ele>169.0</ele><time>2026-03-28T14:23:59.644Z</time></trkpt><trkpt lat="39.2410375" lon="16.9553213"><ele>169.0</ele><time>2026-03-28T14:24:01.655Z</time></trkpt><trkpt lat="39.2411117" lon="16.9553894"><ele>169.0</ele><time>2026-03-28T14:24:03.66Z</time></trkpt><trkpt lat="39.2411736" lon="16.9554308"><ele>169.0</ele><time>2026-03-28T14:24:05.649Z</time></trkpt><trkpt lat="39.2412435" lon="16.9554593"><ele>169.0</ele><time>2026-03-28T14:24:09.653Z</time></trkpt><trkpt lat="39.2413202" lon="16.9554862"><ele>169.0</ele><time>2026-03-28T14:24:14.645Z</time></trkpt><trkpt lat="39.2413685" lon="16.955545"><ele>169.0</ele><time>2026-03-28T14:24:17.652Z</time></trkpt><trkpt lat="39.2414198" lon="16.955613"><ele>169.0</ele><time>2026-03-28T14:24:20.654Z</time></trkpt><trkpt lat="39.2414766" lon="16.9556591"><ele>169.0</ele><time>2026-03-28T14:24:22.645Z</time></trkpt><trkpt lat="39.2415407" lon="16.955697"><ele>168.33333333333334</ele><time>2026-03-28T14:24:24.649Z</time></trkpt><trkpt lat="39.241608" lon="16.9557194"><ele>167.66666666666669</ele><time>2026-03-28T14:24:26.647Z</time></trkpt><trkpt lat="39.2416825" lon="16.9557555"><ele>167.0</ele><time>2026-03-28T14:24:28.651Z</time></trkpt><trkpt lat="39.241757" lon="16.9558134"><ele>166.33333333333334</ele><time>2026-03-28T14:24:30.658Z</time></trkpt><trkpt lat="39.2418309" lon="16.9558712"><ele>165.66666666666666</ele><time>2026-03-28T14:24:32.652Z</time></trkpt><trkpt lat="39.2419102" lon="16.9559266"><ele>165.0</ele><time>2026-03-28T14:24:34.647Z</time></trkpt><trkpt lat="39.2420068" lon="16.9559603"><ele>165.0</ele><time>2026-03-28T14:24:36.659Z</time></trkpt><trkpt lat="39.2421144" lon="16.9559828"><ele>165.0</ele><time>2026-03-28T14:24:38.647Z</time></trkpt><trkpt lat="39.2422011" lon="16.9560866"><ele>165.0</ele><time>2026-03-28T14:24:40.657Z</time></trkpt><trkpt lat="39.2422608" lon="16.9561956"><ele>165.0</ele><time>2026-03-28T14:24:42.647Z</time></trkpt><trkpt lat="39.2423122" lon="16.9562931"><ele>165.0</ele><time>2026-03-28T14:24:44.646Z</time></trkpt><trkpt lat="39.2423332" lon="16.9564001"><ele>165.83333333333334</ele><time>2026-03-28T14:24:46.647Z</time></trkpt><trkpt lat="39.2423162" lon="16.9565006"><ele>166.66666666666666</ele><time>2026-03-28T14:24:48.646Z</time></trkpt><trkpt lat="39.2423083" lon="16.9565998"><ele>167.5</ele><time>2026-03-28T14:24:50.646Z</time></trkpt><trkpt lat="39.2423618" lon="16.9567141"><ele>168.33333333333331</ele><time>2026-03-28T14:24:52.657Z</time></trkpt><trkpt lat="39.2423989" lon="16.9567819"><ele>169.16666666666666</ele><time>2026-03-28T14:24:53.643Z</time></trkpt><trkpt lat="39.2424609" lon="16.9569188"><ele>170.0</ele><time>2026-03-28T14:24:55.655Z</time></trkpt><trkpt lat="39.2425286" lon="16.9570607"><ele>170.0</ele><time>2026-03-28T14:24:57.658Z</time></trkpt><trkpt lat="39.2425668" lon="16.9571378"><ele>170.0</ele><time>2026-03-28T14:24:58.647Z</time></trkpt><trkpt lat="39.2426024" lon="16.9572185"><ele>170.0</ele><time>2026-03-28T14:24:59.649Z</time></trkpt><trkpt lat="39.2426363" lon="16.9573004"><ele>170.0</ele><time>2026-03-28T14:25:00.646Z</time></trkpt><trkpt lat="39.2426692" lon="16.9573833"><ele>170.0</ele><time>2026-03-28T14:25:01.651Z</time></trkpt><trkpt lat="39.2426922" lon="16.9574725"><ele>170.0</ele><time>2026-03-28T14:25:02.645Z</time></trkpt><trkpt lat="39.2426947" lon="16.9575632"><ele>170.0</ele><time>2026-03-28T14:25:03.647Z</time></trkpt><trkpt lat="39.2426827" lon="16.9576471"><ele>168.5</ele><time>2026-03-28T14:25:04.653Z</time></trkpt><trkpt lat="39.2426694" lon="16.9577288"><ele>167.0</ele><time>2026-03-28T14:25:05.655Z</time></trkpt><trkpt lat="39.2426556" lon="16.9578148"><ele>165.5</ele><time>2026-03-28T14:25:06.651Z</time></trkpt><trkpt lat="39.242648" lon="16.9579031"><ele>164.0</ele><time>2026-03-28T14:25:07.661Z</time></trkpt><trkpt lat="39.2426491" lon="16.9580281"><ele>162.5</ele><time>2026-03-28T14:25:09.652Z</time></trkpt><trkpt lat="39.2426838" lon="16.9581285"><ele>161.0</ele><time>2026-03-28T14:25:11.65Z</time></trkpt><trkpt lat="39.2427282" lon="16.958262"><ele>159.4</ele><time>2026-03-28T14:25:13.649Z</time></trkpt><trkpt lat="39.2427609" lon="16.9583999"><ele>157.8</ele><time>2026-03-28T14:25:15.653Z</time></trkpt><trkpt lat="39.2427896" lon="16.9585127"><ele>156.20000000000002</ele><time>2026-03-28T14:25:17.652Z</time></trkpt><trkpt lat="39.2428155" lon="16.9586332"><ele>154.60000000000002</ele><time>2026-03-28T14:25:19.653Z</time></trkpt><trkpt lat="39.2428225" lon="16.9587585"><ele>153.0</ele><time>2026-03-28T14:25:21.65Z</time></trkpt><trkpt lat="39.2428304" lon="16.9588959"><ele>153.0</ele><time>2026-03-28T14:25:23.649Z</time></trkpt><trkpt lat="39.2428446" lon="16.9590368"><ele>153.0</ele><time>2026-03-28T14:25:25.652Z</time></trkpt><trkpt lat="39.2428776" lon="16.9591782"><ele>153.0</ele><time>2026-03-28T14:25:27.661Z</time></trkpt><trkpt lat="39.2429618" lon="16.9593033"><ele>153.0</ele><time>2026-03-28T14:25:29.651Z</time></trkpt><trkpt lat="39.2430239" lon="16.9593595"><ele>153.0</ele><time>2026-03-28T14:25:30.653Z</time></trkpt><trkpt lat="39.2430901" lon="16.9594256"><ele>149.8</ele><time>2026-03-28T14:25:31.648Z</time></trkpt><trkpt lat="39.2431584" lon="16.9594952"><ele>146.60000000000002</ele><time>2026-03-28T14:25:32.647Z</time></trkpt><trkpt lat="39.2432245" lon="16.9595689"><ele>143.39999999999998</ele><time>2026-03-28T14:25:33.646Z</time></trkpt><trkpt lat="39.2432901" lon="16.959662"><ele>140.2</ele><time>2026-03-28T14:25:34.65Z</time></trkpt><trkpt lat="39.2433397" lon="16.9597731"><ele>137.0</ele><time>2026-03-28T14:25:35.644Z</time></trkpt><trkpt lat="39.243365" lon="16.9598761"><ele>137.0</ele><time>2026-03-28T14:25:36.653Z</time></trkpt><trkpt lat="39.2433897" lon="16.9599522"><ele>137.0</ele><time>2026-03-28T14:25:37.647Z</time></trkpt><trkpt lat="39.2434402" lon="16.960104"><ele>137.0</ele><time>2026-03-28T14:25:39.647Z</time></trkpt><trkpt lat="39.24347" lon="16.9601997"><ele>137.0</ele><time>2026-03-28T14:25:40.657Z</time></trkpt><trkpt lat="39.2434973" lon="16.9602969"><ele>137.0</ele><time>2026-03-28T14:25:41.647Z</time></trkpt><trkpt lat="39.2435218" lon="16.9603927"><ele>137.0</ele><time>2026-03-28T14:25:42.653Z</time></trkpt><trkpt lat="39.2435522" lon="16.9604811"><ele>137.00000000000003</ele><time>2026-03-28T14:25:43.655Z</time></trkpt><trkpt lat="39.2435883" lon="16.9605533"><ele>137.0</ele><time>2026-03-28T14:25:44.651Z</time></trkpt><trkpt lat="39.2436249" lon="16.9606252"><ele>137.0</ele><time>2026-03-28T14:25:45.651Z</time></trkpt><trkpt lat="39.2436799" lon="16.9606765"><ele>137.0</ele><time>2026-03-28T14:25:46.651Z</time></trkpt><trkpt lat="39.2437393" lon="16.9607105"><ele>137.0</ele><time>2026-03-28T14:25:47.653Z</time></trkpt><trkpt lat="39.2438045" lon="16.9607517"><ele>137.00000000000003</ele><time>2026-03-28T14:25:48.652Z</time></trkpt><trkpt lat="39.2438726" lon="16.9608279"><ele>137.0</ele><time>2026-03-28T14:25:49.657Z</time></trkpt><trkpt lat="39.2439334" lon="16.9609046"><ele>137.0</ele><time>2026-03-28T14:25:50.649Z</time></trkpt><trkpt lat="39.2439986" lon="16.9609922"><ele>137.0</ele><time>2026-03-28T14:25:52.653Z</time></trkpt><trkpt lat="39.2440589" lon="16.9610677"><ele>137.0</ele><time>2026-03-28T14:25:54.65Z</time></trkpt><trkpt lat="39.244147" lon="16.9610928"><ele>137.0</ele><time>2026-03-28T14:25:56.656Z</time></trkpt><trkpt lat="39.2442685" lon="16.9610642"><ele>137.0</ele><time>2026-03-28T14:25:58.645Z</time></trkpt><trkpt lat="39.2443407" lon="16.9610428"><ele>137.0</ele><time>2026-03-28T14:25:59.652Z</time></trkpt><trkpt lat="39.2444172" lon="16.9610012"><ele>137.0</ele><time>2026-03-28T14:26:00.651Z</time></trkpt><trkpt lat="39.2444939" lon="16.960956"><ele>137.0</ele><time>2026-03-28T14:26:01.652Z</time></trkpt><trkpt lat="39.2445724" lon="16.9609152"><ele>137.0</ele><time>2026-03-28T14:26:02.647Z</time></trkpt><trkpt lat="39.2446525" lon="16.960883"><ele>137.0</ele><time>2026-03-28T14:26:03.645Z</time></trkpt><trkpt lat="39.244731" lon="16.9608596"><ele>137.0</ele><time>2026-03-28T14:26:04.657Z</time></trkpt><trkpt lat="39.2447985" lon="16.9608443"><ele>138.33333333333331</ele><time>2026-03-28T14:26:05.663Z</time></trkpt><trkpt lat="39.2449044" lon="16.9608319"><ele>139.66666666666666</ele><time>2026-03-28T14:26:07.653Z</time></trkpt><trkpt lat="39.2449892" lon="16.9608318"><ele>141.0</ele><time>2026-03-28T14:26:10.661Z</time></trkpt><trkpt lat="39.2450586" lon="16.9608523"><ele>142.33333333333334</ele><time>2026-03-28T14:26:15.656Z</time></trkpt><trkpt lat="39.2451245" lon="16.9608305"><ele>143.66666666666669</ele><time>2026-03-28T14:26:20.65Z</time></trkpt><trkpt lat="39.2452162" lon="16.9607729"><ele>145.0</ele><time>2026-03-28T14:26:23.652Z</time></trkpt><trkpt lat="39.2452938" lon="16.960735"><ele>145.0</ele><time>2026-03-28T14:26:24.648Z</time></trkpt><trkpt lat="39.2453904" lon="16.9606838"><ele>145.0</ele><time>2026-03-28T14:26:25.649Z</time></trkpt><trkpt lat="39.245496" lon="16.9606243"><ele>145.0</ele><time>2026-03-28T14:26:26.654Z</time></trkpt><trkpt lat="39.2455998" lon="16.960568"><ele>145.0</ele><time>2026-03-28T14:26:27.645Z</time></trkpt><trkpt lat="39.2456942" lon="16.9605173"><ele>145.0</ele><time>2026-03-28T14:26:28.651Z</time></trkpt><trkpt lat="39.2457886" lon="16.9604665"><ele>147.0</ele><time>2026-03-28T14:26:29.655Z</time></trkpt><trkpt lat="39.2458788" lon="16.9604214"><ele>149.0</ele><time>2026-03-28T14:26:30.647Z</time></trkpt><trkpt lat="39.2459667" lon="16.9603736"><ele>151.0</ele><time>2026-03-28T14:26:31.65Z</time></trkpt><trkpt lat="39.246051" lon="16.9603155"><ele>153.0</ele><time>2026-03-28T14:26:32.644Z</time></trkpt><trkpt lat="39.2461274" lon="16.9602638"><ele>155.0</ele><time>2026-03-28T14:26:33.651Z</time></trkpt><trkpt lat="39.2462041" lon="16.9602155"><ele>155.0</ele><time>2026-03-28T14:26:34.646Z</time></trkpt><trkpt lat="39.2462816" lon="16.9601663"><ele>155.0</ele><time>2026-03-28T14:26:35.65Z</time></trkpt><trkpt lat="39.2463528" lon="16.960124"><ele>155.0</ele><time>2026-03-28T14:26:36.651Z</time></trkpt><trkpt lat="39.2464242" lon="16.9601009"><ele>155.0</ele><time>2026-03-28T14:26:37.649Z</time></trkpt><trkpt lat="39.2464875" lon="16.9601043"><ele>155.0</ele><time>2026-03-28T14:26:38.643Z</time></trkpt><trkpt lat="39.2466099" lon="16.9601273"><ele>155.0</ele><time>2026-03-28T14:26:40.653Z</time></trkpt><trkpt lat="39.2467288" lon="16.9601738"><ele>157.16666666666666</ele><time>2026-03-28T14:26:42.645Z</time></trkpt><trkpt lat="39.2468228" lon="16.9602131"><ele>159.33333333333331</ele><time>2026-03-28T14:26:44.649Z</time></trkpt><trkpt lat="39.2468775" lon="16.9601208"><ele>161.5</ele><time>2026-03-28T14:26:47.643Z</time></trkpt><trkpt lat="39.2468565" lon="16.9600308"><ele>163.66666666666666</ele><time>2026-03-28T14:26:48.65Z</time></trkpt><trkpt lat="39.2468298" lon="16.9599359"><ele>165.83333333333334</ele><time>2026-03-28T14:26:49.654Z</time></trkpt><trkpt lat="39.2468153" lon="16.9598488"><ele>168.0</ele><time>2026-03-28T14:26:50.653Z</time></trkpt><trkpt lat="39.246843" lon="16.9597415"><ele>169.5</ele><time>2026-03-28T14:26:52.648Z</time></trkpt><trkpt lat="39.2469052" lon="16.9597272"><ele>171.0</ele><time>2026-03-28T14:26:56.646Z</time></trkpt><trkpt lat="39.2469738" lon="16.9597536"><ele>172.5</ele><time>2026-03-28T14:27:05.652Z</time></trkpt><trkpt lat="39.2470401" lon="16.959817"><ele>174.0</ele><time>2026-03-28T14:27:07.652Z</time></trkpt><trkpt lat="39.2471287" lon="16.9599048"><ele>175.5</ele><time>2026-03-28T14:27:09.658Z</time></trkpt><trkpt lat="39.2471858" lon="16.9599517"><ele>177.0</ele><time>2026-03-28T14:27:10.653Z</time></trkpt><trkpt lat="39.2472498" lon="16.9599895"><ele>178.14285714285714</ele><time>2026-03-28T14:27:11.65Z</time></trkpt><trkpt lat="39.2473235" lon="16.960015"><ele>179.28571428571428</ele><time>2026-03-28T14:27:12.649Z</time></trkpt><trkpt lat="39.2473988" lon="16.9600344"><ele>180.42857142857142</ele><time>2026-03-28T14:27:13.656Z</time></trkpt><trkpt lat="39.247469" lon="16.9600549"><ele>181.57142857142856</ele><time>2026-03-28T14:27:14.646Z</time></trkpt><trkpt lat="39.24753" lon="16.9600876"><ele>182.71428571428572</ele><time>2026-03-28T14:27:15.644Z</time></trkpt><trkpt lat="39.2475796" lon="16.9601423"><ele>183.85714285714283</ele><time>2026-03-28T14:27:16.649Z</time></trkpt><trkpt lat="39.2476381" lon="16.9602111"><ele>185.0</ele><time>2026-03-28T14:27:17.646Z</time></trkpt><trkpt lat="39.24771" lon="16.9602857"><ele>185.0</ele><time>2026-03-28T14:27:18.652Z</time></trkpt><trkpt lat="39.2477813" lon="16.9603579"><ele>185.0</ele><time>2026-03-28T14:27:19.644Z</time></trkpt><trkpt lat="39.2478349" lon="16.9604264"><ele>185.0</ele><time>2026-03-28T14:27:20.648Z</time></trkpt><trkpt lat="39.24787" lon="16.9604966"><ele>185.0</ele><time>2026-03-28T14:27:21.644Z</time></trkpt><trkpt lat="39.2479087" lon="16.9606498"><ele>185.0</ele><time>2026-03-28T14:27:23.643Z</time></trkpt><trkpt lat="39.247964" lon="16.960791"><ele>182.4</ele><time>2026-03-28T14:27:25.657Z</time></trkpt><trkpt lat="39.2480082" lon="16.9608754"><ele>179.8</ele><time>2026-03-28T14:27:26.648Z</time></trkpt><trkpt lat="39.2480546" lon="16.9609619"><ele>177.2</ele><time>2026-03-28T14:27:27.651Z</time></trkpt><trkpt lat="39.2481059" lon="16.9610529"><ele>174.6</ele><time>2026-03-28T14:27:28.646Z</time></trkpt><trkpt lat="39.2481663" lon="16.9611588"><ele>172.0</ele><time>2026-03-28T14:27:29.659Z</time></trkpt><trkpt lat="39.2482292" lon="16.9612652"><ele>174.8</ele><time>2026-03-28T14:27:30.648Z</time></trkpt><trkpt lat="39.2482958" lon="16.9613699"><ele>177.6</ele><time>2026-03-28T14:27:31.644Z</time></trkpt><trkpt lat="39.2483677" lon="16.9614788"><ele>180.4</ele><time>2026-03-28T14:27:32.649Z</time></trkpt><trkpt lat="39.2484382" lon="16.9615786"><ele>183.20000000000002</ele><time>2026-03-28T14:27:33.644Z</time></trkpt><trkpt lat="39.2485065" lon="16.9616753"><ele>186.0</ele><time>2026-03-28T14:27:34.646Z</time></trkpt><trkpt lat="39.2485885" lon="16.961765"><ele>186.0</ele><time>2026-03-28T14:27:35.652Z</time></trkpt><trkpt lat="39.248685" lon="16.9618533"><ele>186.0</ele><time>2026-03-28T14:27:36.652Z</time></trkpt><trkpt lat="39.2487761" lon="16.9619352"><ele>186.0</ele><time>2026-03-28T14:27:37.647Z</time></trkpt><trkpt lat="39.2488524" lon="16.9619626"><ele>186.0</ele><time>2026-03-28T14:27:38.648Z</time></trkpt><trkpt lat="39.2489501" lon="16.9619037"><ele>186.0</ele><time>2026-03-28T14:27:40.65Z</time></trkpt><trkpt lat="39.2489842" lon="16.9618064"><ele>188.14285714285717</ele><time>2026-03-28T14:27:42.649Z</time></trkpt><trkpt lat="39.2489723" lon="16.9617241"><ele>190.28571428571428</ele><time>2026-03-28T14:27:44.65Z</time></trkpt><trkpt lat="39.248949" lon="16.961622"><ele>192.42857142857144</ele><time>2026-03-28T14:29:08.655Z</time></trkpt><trkpt lat="39.2489424" lon="16.9615196"><ele>194.57142857142858</ele><time>2026-03-28T14:29:10.651Z</time></trkpt><trkpt lat="39.2489701" lon="16.9614423"><ele>196.71428571428572</ele><time>2026-03-28T14:29:14.665Z</time></trkpt><trkpt lat="39.2489522" lon="16.9613572"><ele>198.85714285714286</ele><time>2026-03-28T14:29:16.649Z</time></trkpt><trkpt lat="39.2489084" lon="16.9612959"><ele>201.0</ele><time>2026-03-28T14:29:17.648Z</time></trkpt><trkpt lat="39.2488575" lon="16.9612284"><ele>201.0</ele><time>2026-03-28T14:29:18.653Z</time></trkpt><trkpt lat="39.2487679" lon="16.9611537"><ele>201.0</ele><time>2026-03-28T14:29:19.652Z</time></trkpt><trkpt lat="39.2486559" lon="16.9610701"><ele>201.0</ele><time>2026-03-28T14:29:20.648Z</time></trkpt><trkpt lat="39.2485529" lon="16.9609842"><ele>201.0</ele><time>2026-03-28T14:29:21.649Z</time></trkpt><trkpt lat="39.2484832" lon="16.96091"><ele>201.0</ele><time>2026-03-28T14:29:22.649Z</time></trkpt><trkpt lat="39.2484467" lon="16.9608297"><ele>205.20000000000002</ele><time>2026-03-28T14:29:23.656Z</time></trkpt><trkpt lat="39.2484594" lon="16.9606856"><ele>209.4</ele><time>2026-03-28T14:29:25.649Z</time></trkpt><trkpt lat="39.2485265" lon="16.9605832"><ele>213.6</ele><time>2026-03-28T14:29:27.646Z</time></trkpt><trkpt lat="39.2486109" lon="16.960532"><ele>217.8</ele><time>2026-03-28T14:29:28.647Z</time></trkpt><trkpt lat="39.2486971" lon="16.9604856"><ele>222.0</ele><time>2026-03-28T14:29:29.65Z</time></trkpt><trkpt lat="39.2487847" lon="16.9604589"><ele>222.0</ele><time>2026-03-28T14:29:30.658Z</time></trkpt><trkpt lat="39.2488921" lon="16.9604566"><ele>222.0</ele><time>2026-03-28T14:29:31.651Z</time></trkpt><trkpt lat="39.2490225" lon="16.9604831"><ele>222.0</ele><time>2026-03-28T14:29:32.656Z</time></trkpt><trkpt lat="39.2491422" lon="16.9605254"><ele>222.0</ele><time>2026-03-28T14:29:33.645Z</time></trkpt><trkpt lat="39.2492496" lon="16.9605658"><ele>225.39999999999998</ele><time>2026-03-28T14:29:34.652Z</time></trkpt><trkpt lat="39.2493384" lon="16.9605897"><ele>228.79999999999998</ele><time>2026-03-28T14:29:35.65Z</time></trkpt><trkpt lat="39.2494207" lon="16.9606114"><ele>232.2</ele><time>2026-03-28T14:29:36.652Z</time></trkpt><trkpt lat="39.2494795" lon="16.9605746"><ele>235.6</ele><time>2026-03-28T14:29:37.654Z</time></trkpt><trkpt lat="39.2495639" lon="16.9604556"><ele>239.0</ele><time>2026-03-28T14:29:39.648Z</time></trkpt><trkpt lat="39.2495845" lon="16.9602968"><ele>239.0</ele><time>2026-03-28T14:29:41.65Z</time></trkpt><trkpt lat="39.2496081" lon="16.9601765"><ele>238.99999999999997</ele><time>2026-03-28T14:29:42.646Z</time></trkpt><trkpt lat="39.2496419" lon="16.9600384"><ele>238.99999999999997</ele><time>2026-03-28T14:29:43.645Z</time></trkpt><trkpt lat="39.2496832" lon="16.9599234"><ele>239.0</ele><time>2026-03-28T14:29:44.648Z</time></trkpt><trkpt lat="39.249739" lon="16.9598302"><ele>239.0</ele><time>2026-03-28T14:29:45.644Z</time></trkpt><trkpt lat="39.2498186" lon="16.959745"><ele>238.0</ele><time>2026-03-28T14:29:46.642Z</time></trkpt><trkpt lat="39.2499173" lon="16.959681"><ele>236.99999999999997</ele><time>2026-03-28T14:29:47.648Z</time></trkpt><trkpt lat="39.2500124" lon="16.9596387"><ele>235.99999999999997</ele><time>2026-03-28T14:29:48.654Z</time></trkpt><trkpt lat="39.2500987" lon="16.9596092"><ele>235.0</ele><time>2026-03-28T14:29:49.656Z</time></trkpt><trkpt lat="39.2501766" lon="16.9595834"><ele>234.0</ele><time>2026-03-28T14:29:50.65Z</time></trkpt><trkpt lat="39.2502492" lon="16.9595536"><ele>234.0</ele><time>2026-03-28T14:29:51.659Z</time></trkpt><trkpt lat="39.2503172" lon="16.9595078"><ele>234.0</ele><time>2026-03-28T14:29:52.655Z</time></trkpt><trkpt lat="39.2503775" lon="16.9594418"><ele>234.0</ele><time>2026-03-28T14:29:53.648Z</time></trkpt><trkpt lat="39.2504245" lon="16.9593625"><ele>234.0</ele><time>2026-03-28T14:29:54.656Z</time></trkpt><trkpt lat="39.2504581" lon="16.959276"><ele>234.0</ele><time>2026-03-28T14:29:55.658Z</time></trkpt><trkpt lat="39.2504847" lon="16.9591756"><ele>234.0</ele><time>2026-03-28T14:29:56.654Z</time></trkpt><trkpt lat="39.2505052" lon="16.95906"><ele>237.6</ele><time>2026-03-28T14:29:57.655Z</time></trkpt><trkpt lat="39.2505214" lon="16.9589402"><ele>241.2</ele><time>2026-03-28T14:29:58.651Z</time></trkpt><trkpt lat="39.2505347" lon="16.9588096"><ele>244.79999999999998</ele><time>2026-03-28T14:29:59.655Z</time></trkpt><trkpt lat="39.2505491" lon="16.9586664"><ele>248.39999999999998</ele><time>2026-03-28T14:30:00.651Z</time></trkpt><trkpt lat="39.2505671" lon="16.9585076"><ele>252.0</ele><time>2026-03-28T14:30:01.647Z</time></trkpt><trkpt lat="39.2505944" lon="16.9583417"><ele>252.0</ele><time>2026-03-28T14:30:02.646Z</time></trkpt><trkpt lat="39.2506346" lon="16.9581557"><ele>252.0</ele><time>2026-03-28T14:30:03.662Z</time></trkpt><trkpt lat="39.2506794" lon="16.9579532"><ele>252.0</ele><time>2026-03-28T14:30:04.647Z</time></trkpt><trkpt lat="39.2507242" lon="16.9577676"><ele>252.0</ele><time>2026-03-28T14:30:05.656Z</time></trkpt><trkpt lat="39.2507768" lon="16.9575979"><ele>252.0</ele><time>2026-03-28T14:30:06.649Z</time></trkpt><trkpt lat="39.2508422" lon="16.9574476"><ele>252.0</ele><time>2026-03-28T14:30:07.65Z</time></trkpt><trkpt lat="39.2509242" lon="16.9573116"><ele>252.0</ele><time>2026-03-28T14:30:08.652Z</time></trkpt><trkpt lat="39.2510266" lon="16.9571882"><ele>255.0</ele><time>2026-03-28T14:30:09.652Z</time></trkpt><trkpt lat="39.2511465" lon="16.9570631"><ele>258.0</ele><time>2026-03-28T14:30:10.646Z</time></trkpt><trkpt lat="39.2512845" lon="16.9569301"><ele>261.0</ele><time>2026-03-28T14:30:11.643Z</time></trkpt><trkpt lat="39.2514305" lon="16.9567879"><ele>262.75</ele><time>2026-03-28T14:30:12.647Z</time></trkpt><trkpt lat="39.2515663" lon="16.9566568"><ele>264.5</ele><time>2026-03-28T14:30:13.647Z</time></trkpt><trkpt lat="39.2516851" lon="16.9565409"><ele>266.25</ele><time>2026-03-28T14:30:14.646Z</time></trkpt><trkpt lat="39.2517862" lon="16.9564458"><ele>268.0</ele><time>2026-03-28T14:30:15.651Z</time></trkpt><trkpt lat="39.25187" lon="16.9563677"><ele>268.0</ele><time>2026-03-28T14:30:16.651Z</time></trkpt><trkpt lat="39.2519442" lon="16.9562981"><ele>268.0</ele><time>2026-03-28T14:30:17.651Z</time></trkpt><trkpt lat="39.2520154" lon="16.9562305"><ele>268.0</ele><time>2026-03-28T14:30:18.646Z</time></trkpt><trkpt lat="39.2520735" lon="16.9561733"><ele>268.0</ele><time>2026-03-28T14:30:19.653Z</time></trkpt><trkpt lat="39.2521671" lon="16.9560722"><ele>268.0</ele><time>2026-03-28T14:30:21.652Z</time></trkpt><trkpt lat="39.2522467" lon="16.9559457"><ele>268.0</ele><time>2026-03-28T14:30:23.665Z</time></trkpt><trkpt lat="39.2522747" lon="16.9558716"><ele>268.0</ele><time>2026-03-28T14:30:24.655Z</time></trkpt><trkpt lat="39.2522926" lon="16.9557914"><ele>268.0</ele><time>2026-03-28T14:30:25.659Z</time></trkpt><trkpt lat="39.2523009" lon="16.9557073"><ele>268.0</ele><time>2026-03-28T14:30:26.648Z</time></trkpt><trkpt lat="39.2522991" lon="16.9556179"><ele>268.0</ele><time>2026-03-28T14:30:27.647Z</time></trkpt><trkpt lat="39.2522895" lon="16.9555237"><ele>268.0</ele><time>2026-03-28T14:30:28.655Z</time></trkpt><trkpt lat="39.2522687" lon="16.9554212"><ele>268.0</ele><time>2026-03-28T14:30:29.655Z</time></trkpt><trkpt lat="39.2522433" lon="16.9553247"><ele>269.7142857142857</ele><time>2026-03-28T14:30:30.661Z</time></trkpt><trkpt lat="39.2522031" lon="16.9552409"><ele>271.42857142857144</ele><time>2026-03-28T14:30:31.647Z</time></trkpt><trkpt lat="39.2521543" lon="16.9551578"><ele>273.1428571428571</ele><time>2026-03-28T14:30:32.646Z</time></trkpt><trkpt lat="39.2521019" lon="16.9550906"><ele>274.8571428571429</ele><time>2026-03-28T14:30:33.66Z</time></trkpt><trkpt lat="39.2520433" lon="16.9550333"><ele>276.57142857142856</ele><time>2026-03-28T14:30:34.653Z</time></trkpt><trkpt lat="39.2519867" lon="16.9549796"><ele>278.2857142857143</ele><time>2026-03-28T14:30:35.646Z</time></trkpt><trkpt lat="39.2519319" lon="16.9549305"><ele>280.0</ele><time>2026-03-28T14:30:36.646Z</time></trkpt><trkpt lat="39.2518319" lon="16.9548379"><ele>280.16666666666663</ele><time>2026-03-28T14:30:38.655Z</time></trkpt><trkpt lat="39.2517796" lon="16.954788"><ele>280.3333333333333</ele><time>2026-03-28T14:30:39.651Z</time></trkpt><trkpt lat="39.2517265" lon="16.9547324"><ele>280.5</ele><time>2026-03-28T14:30:40.65Z</time></trkpt><trkpt lat="39.2516805" lon="16.9546726"><ele>280.6666666666667</ele><time>2026-03-28T14:30:41.646Z</time></trkpt><trkpt lat="39.2516219" lon="16.9545497"><ele>280.83333333333337</ele><time>2026-03-28T14:30:43.657Z</time></trkpt><trkpt lat="39.2515854" lon="16.9544296"><ele>281.0</ele><time>2026-03-28T14:30:45.651Z</time></trkpt><trkpt lat="39.2515245" lon="16.9543663"><ele>282.8</ele><time>2026-03-28T14:30:47.655Z</time></trkpt><trkpt lat="39.2514456" lon="16.9543996"><ele>284.6</ele><time>2026-03-28T14:30:49.652Z</time></trkpt><trkpt lat="39.25139" lon="16.9545074"><ele>286.4</ele><time>2026-03-28T14:30:51.648Z</time></trkpt><trkpt lat="39.2513634" lon="16.9546751"><ele>288.2</ele><time>2026-03-28T14:30:53.645Z</time></trkpt><trkpt lat="39.2513558" lon="16.9547691"><ele>290.0</ele><time>2026-03-28T14:30:54.648Z</time></trkpt><trkpt lat="39.2513459" lon="16.954864"><ele>290.0</ele><time>2026-03-28T14:30:55.654Z</time></trkpt><trkpt lat="39.2513365" lon="16.9549615"><ele>290.0</ele><time>2026-03-28T14:30:56.646Z</time></trkpt><trkpt lat="39.2513297" lon="16.955064"><ele>290.0</ele><time>2026-03-28T14:30:57.65Z</time></trkpt><trkpt lat="39.2513214" lon="16.9551698"><ele>290.0</ele><time>2026-03-28T14:30:58.653Z</time></trkpt><trkpt lat="39.2513146" lon="16.9552739"><ele>290.0</ele><time>2026-03-28T14:30:59.653Z</time></trkpt><trkpt lat="39.2513074" lon="16.9553728"><ele>290.0</ele><time>2026-03-28T14:31:00.649Z</time></trkpt><trkpt lat="39.251299" lon="16.9554601"><ele>289.83333333333337</ele><time>2026-03-28T14:31:01.648Z</time></trkpt><trkpt lat="39.2512774" lon="16.9555403"><ele>289.6666666666667</ele><time>2026-03-28T14:31:02.644Z</time></trkpt><trkpt lat="39.2512524" lon="16.9556278"><ele>289.5</ele><time>2026-03-28T14:31:03.645Z</time></trkpt><trkpt lat="39.2512062" lon="16.9557211"><ele>289.3333333333333</ele><time>2026-03-28T14:31:04.673Z</time></trkpt><trkpt lat="39.251119" lon="16.9557876"><ele>289.16666666666663</ele><time>2026-03-28T14:31:05.664Z</time></trkpt><trkpt lat="39.2510267" lon="16.9558458"><ele>289.0</ele><time>2026-03-28T14:31:06.649Z</time></trkpt><trkpt lat="39.2509351" lon="16.9558813"><ele>289.0</ele><time>2026-03-28T14:31:07.647Z</time></trkpt><trkpt lat="39.2508278" lon="16.9558852"><ele>289.0</ele><time>2026-03-28T14:31:08.647Z</time></trkpt><trkpt lat="39.2507212" lon="16.9558548"><ele>289.0</ele><time>2026-03-28T14:31:09.65Z</time></trkpt><trkpt lat="39.250635" lon="16.9558095"><ele>289.0</ele><time>2026-03-28T14:31:10.651Z</time></trkpt><trkpt lat="39.2505684" lon="16.9557467"><ele>289.0</ele><time>2026-03-28T14:31:11.647Z</time></trkpt><trkpt lat="39.2504831" lon="16.9556712"><ele>290.4</ele><time>2026-03-28T14:31:12.654Z</time></trkpt><trkpt lat="39.250398" lon="16.9555821"><ele>291.79999999999995</ele><time>2026-03-28T14:31:13.651Z</time></trkpt><trkpt lat="39.2503158" lon="16.9555118"><ele>293.20000000000005</ele><time>2026-03-28T14:31:14.653Z</time></trkpt><trkpt lat="39.2502173" lon="16.955444"><ele>294.6</ele><time>2026-03-28T14:31:15.651Z</time></trkpt><trkpt lat="39.2501315" lon="16.9553779"><ele>296.0</ele><time>2026-03-28T14:31:16.648Z</time></trkpt><trkpt lat="39.2500257" lon="16.955303"><ele>296.0</ele><time>2026-03-28T14:31:17.644Z</time></trkpt><trkpt lat="39.2498942" lon="16.9552346"><ele>296.0</ele><time>2026-03-28T14:31:18.651Z</time></trkpt><trkpt lat="39.2497505" lon="16.9552006"><ele>296.0</ele><time>2026-03-28T14:31:19.65Z</time></trkpt><trkpt lat="39.2496045" lon="16.9551795"><ele>296.0</ele><time>2026-03-28T14:31:20.653Z</time></trkpt><trkpt lat="39.2494992" lon="16.9551685"><ele>297.6</ele><time>2026-03-28T14:31:21.645Z</time></trkpt><trkpt lat="39.2494165" lon="16.9551476"><ele>299.20000000000005</ele><time>2026-03-28T14:31:22.651Z</time></trkpt><trkpt lat="39.2493355" lon="16.955141"><ele>300.79999999999995</ele><time>2026-03-28T14:31:23.649Z</time></trkpt><trkpt lat="39.2492699" lon="16.955124"><ele>302.4</ele><time>2026-03-28T14:31:24.644Z</time></trkpt><trkpt lat="39.2491511" lon="16.9551648"><ele>304.0</ele><time>2026-03-28T14:31:26.65Z</time></trkpt><trkpt lat="39.2490797" lon="16.9552733"><ele>304.0</ele><time>2026-03-28T14:31:28.648Z</time></trkpt><trkpt lat="39.2490517" lon="16.9553506"><ele>304.0</ele><time>2026-03-28T14:31:29.648Z</time></trkpt><trkpt lat="39.249017" lon="16.955431"><ele>304.0</ele><time>2026-03-28T14:31:30.646Z</time></trkpt><trkpt lat="39.2490011" lon="16.9555335"><ele>304.0</ele><time>2026-03-28T14:31:31.652Z</time></trkpt><trkpt lat="39.2489733" lon="16.9556149"><ele>304.0</ele><time>2026-03-28T14:31:32.65Z</time></trkpt><trkpt lat="39.2489359" lon="16.9557018"><ele>304.0</ele><time>2026-03-28T14:31:33.652Z</time></trkpt><trkpt lat="39.2488952" lon="16.9557866"><ele>304.0</ele><time>2026-03-28T14:31:34.664Z</time></trkpt><trkpt lat="39.2488655" lon="16.9558802"><ele>302.3333333333333</ele><time>2026-03-28T14:31:35.656Z</time></trkpt><trkpt lat="39.2488138" lon="16.9559613"><ele>300.66666666666663</ele><time>2026-03-28T14:31:36.646Z</time></trkpt><trkpt lat="39.2487571" lon="16.9560396"><ele>299.0</ele><time>2026-03-28T14:31:37.659Z</time></trkpt><trkpt lat="39.2486902" lon="16.956101"><ele>297.3333333333333</ele><time>2026-03-28T14:31:38.643Z</time></trkpt><trkpt lat="39.2486242" lon="16.956164"><ele>295.6666666666667</ele><time>2026-03-28T14:31:39.651Z</time></trkpt><trkpt lat="39.2485652" lon="16.9562388"><ele>294.0</ele><time>2026-03-28T14:31:40.644Z</time></trkpt><trkpt lat="39.2485133" lon="16.9562972"><ele>294.0</ele><time>2026-03-28T14:31:41.641Z</time></trkpt><trkpt lat="39.2484855" lon="16.9564317"><ele>294.0</ele><time>2026-03-28T14:31:43.652Z</time></trkpt><trkpt lat="39.2485033" lon="16.9566085"><ele>294.0</ele><time>2026-03-28T14:31:45.649Z</time></trkpt><trkpt lat="39.2485203" lon="16.956717"><ele>294.0</ele><time>2026-03-28T14:31:46.636Z</time></trkpt><trkpt lat="39.2485445" lon="16.9568357"><ele>294.0</ele><time>2026-03-28T14:31:47.655Z</time></trkpt><trkpt lat="39.2485643" lon="16.9569395"><ele>293.3333333333333</ele><time>2026-03-28T14:31:48.644Z</time></trkpt><trkpt lat="39.2485877" lon="16.9570344"><ele>292.6666666666667</ele><time>2026-03-28T14:31:49.646Z</time></trkpt><trkpt lat="39.2486139" lon="16.9571715"><ele>292.0</ele><time>2026-03-28T14:31:51.648Z</time></trkpt><trkpt lat="39.2486284" lon="16.9572652"><ele>291.33333333333337</ele><time>2026-03-28T14:31:54.654Z</time></trkpt><trkpt lat="39.2486328" lon="16.9573634"><ele>290.6666666666667</ele><time>2026-03-28T14:31:57.646Z</time></trkpt><trkpt lat="39.2486623" lon="16.9574484"><ele>290.0</ele><time>2026-03-28T14:31:59.645Z</time></trkpt><trkpt lat="39.2487469" lon="16.9574206"><ele>290.0</ele><time>2026-03-28T14:32:02.65Z</time></trkpt><trkpt lat="39.2487375" lon="16.9573006"><ele>290.0</ele><time>2026-03-28T14:32:04.647Z</time></trkpt><trkpt lat="39.2487231" lon="16.9571643"><ele>290.0</ele><time>2026-03-28T14:32:06.65Z</time></trkpt><trkpt lat="39.2487051" lon="16.9570688"><ele>290.0</ele><time>2026-03-28T14:32:09.654Z</time></trkpt><trkpt lat="39.2487058" lon="16.9569781"><ele>290.0</ele><time>2026-03-28T14:32:13.651Z</time></trkpt><trkpt lat="39.248694" lon="16.956897"><ele>290.0</ele><time>2026-03-28T14:32:17.641Z</time></trkpt><trkpt lat="39.2486896" lon="16.9568154"><ele>290.0</ele><time>2026-03-28T14:48:50.632Z</time></trkpt><trkpt lat="39.2487517" lon="16.9567748"><ele>290.0</ele><time>2026-03-28T14:53:56.654Z</time></trkpt><trkpt lat="39.2488232" lon="16.9567396"><ele>290.0</ele><time>2026-03-28T14:53:59.658Z</time></trkpt><trkpt lat="39.2488885" lon="16.9567134"><ele>290.0</ele><time>2026-03-28T14:54:01.653Z</time></trkpt><trkpt lat="39.248973" lon="16.9566613"><ele>290.0</ele><time>2026-03-28T14:54:04.652Z</time></trkpt><trkpt lat="39.2490749" lon="16.9565937"><ele>290.0</ele><time>2026-03-28T14:54:06.656Z</time></trkpt><trkpt lat="39.2491357" lon="16.9565606"><ele>289.6</ele><time>2026-03-28T14:54:07.649Z</time></trkpt><trkpt lat="39.2491987" lon="16.9565467"><ele>289.2</ele><time>2026-03-28T14:54:08.654Z</time></trkpt><trkpt lat="39.2492665" lon="16.9565621"><ele>288.8</ele><time>2026-03-28T14:54:09.654Z</time></trkpt><trkpt lat="39.2493527" lon="16.9566184"><ele>288.4</ele><time>2026-03-28T14:54:10.652Z</time></trkpt><trkpt lat="39.24945" lon="16.9566989"><ele>288.0</ele><time>2026-03-28T14:54:11.648Z</time></trkpt><trkpt lat="39.2495517" lon="16.9567601"><ele>286.5</ele><time>2026-03-28T14:54:12.649Z</time></trkpt><trkpt lat="39.2496516" lon="16.9568039"><ele>285.0</ele><time>2026-03-28T14:54:13.65Z</time></trkpt><trkpt lat="39.2497409" lon="16.9568424"><ele>283.5</ele><time>2026-03-28T14:54:14.651Z</time></trkpt><trkpt lat="39.2498199" lon="16.9568688"><ele>282.0</ele><time>2026-03-28T14:54:15.654Z</time></trkpt><trkpt lat="39.2498925" lon="16.9568934"><ele>280.5</ele><time>2026-03-28T14:54:16.652Z</time></trkpt><trkpt lat="39.249963" lon="16.9569199"><ele>279.0</ele><time>2026-03-28T14:54:17.651Z</time></trkpt><trkpt lat="39.25003" lon="16.9569459"><ele>277.8</ele><time>2026-03-28T14:54:18.656Z</time></trkpt><trkpt lat="39.2501029" lon="16.9570243"><ele>276.59999999999997</ele><time>2026-03-28T14:54:20.65Z</time></trkpt><trkpt lat="39.2500906" lon="16.9571351"><ele>275.4</ele><time>2026-03-28T14:54:22.653Z</time></trkpt><trkpt lat="39.2500232" lon="16.9572281"><ele>274.2</ele><time>2026-03-28T14:54:23.65Z</time></trkpt><trkpt lat="39.2499603" lon="16.9573117"><ele>273.0</ele><time>2026-03-28T14:54:24.652Z</time></trkpt><trkpt lat="39.2498983" lon="16.9573826"><ele>273.0</ele><time>2026-03-28T14:54:25.642Z</time></trkpt><trkpt lat="39.2498383" lon="16.9574389"><ele>273.0</ele><time>2026-03-28T14:54:26.651Z</time></trkpt><trkpt lat="39.2497714" lon="16.9574833"><ele>273.0</ele><time>2026-03-28T14:54:27.647Z</time></trkpt><trkpt lat="39.2496991" lon="16.9574901"><ele>273.0</ele><time>2026-03-28T14:54:28.649Z</time></trkpt><trkpt lat="39.2496242" lon="16.9574946"><ele>273.0</ele><time>2026-03-28T14:54:29.655Z</time></trkpt><trkpt lat="39.2495553" lon="16.9574609"><ele>273.0</ele><time>2026-03-28T14:54:30.654Z</time></trkpt><trkpt lat="39.2494911" lon="16.9574373"><ele>273.0</ele><time>2026-03-28T14:54:31.653Z</time></trkpt><trkpt lat="39.2493874" lon="16.9574506"><ele>273.6</ele><time>2026-03-28T14:54:33.651Z</time></trkpt><trkpt lat="39.2493253" lon="16.9575449"><ele>274.20000000000005</ele><time>2026-03-28T14:54:35.641Z</time></trkpt><trkpt lat="39.249323" lon="16.9576795"><ele>274.8</ele><time>2026-03-28T14:54:37.652Z</time></trkpt><trkpt lat="39.2493296" lon="16.9577606"><ele>275.40000000000003</ele><time>2026-03-28T14:54:38.654Z</time></trkpt><trkpt lat="39.2493412" lon="16.9579255"><ele>276.0</ele><time>2026-03-28T14:54:40.651Z</time></trkpt><trkpt lat="39.2493383" lon="16.9580119"><ele>276.0</ele><time>2026-03-28T14:54:41.643Z</time></trkpt><trkpt lat="39.2493358" lon="16.9581253"><ele>276.0</ele><time>2026-03-28T14:54:43.648Z</time></trkpt><trkpt lat="39.2493456" lon="16.9582306"><ele>276.0</ele><time>2026-03-28T14:54:45.657Z</time></trkpt><trkpt lat="39.2493587" lon="16.9583466"><ele>276.0</ele><time>2026-03-28T14:54:47.642Z</time></trkpt><trkpt lat="39.2493823" lon="16.9584282"><ele>276.0</ele><time>2026-03-28T14:54:49.646Z</time></trkpt><trkpt lat="39.2494603" lon="16.9584461"><ele>276.0</ele><time>2026-03-28T14:54:53.656Z</time></trkpt><trkpt lat="39.2495415" lon="16.958439"><ele>273.8</ele><time>2026-03-28T14:54:55.654Z</time></trkpt><trkpt lat="39.2496361" lon="16.9584655"><ele>271.6</ele><time>2026-03-28T14:54:57.643Z</time></trkpt><trkpt lat="39.2497186" lon="16.9585392"><ele>269.4</ele><time>2026-03-28T14:54:59.645Z</time></trkpt><trkpt lat="39.2498221" lon="16.9585861"><ele>267.2</ele><time>2026-03-28T14:55:01.65Z</time></trkpt><trkpt lat="39.2499191" lon="16.9585676"><ele>265.0</ele><time>2026-03-28T14:55:03.649Z</time></trkpt><trkpt lat="39.2500191" lon="16.9584492"><ele>264.5</ele><time>2026-03-28T14:55:05.653Z</time></trkpt><trkpt lat="39.2500833" lon="16.9583731"><ele>264.0</ele><time>2026-03-28T14:55:06.653Z</time></trkpt><trkpt lat="39.2501435" lon="16.9583003"><ele>263.5</ele><time>2026-03-28T14:55:07.646Z</time></trkpt><trkpt lat="39.250193" lon="16.958229"><ele>263.0</ele><time>2026-03-28T14:55:08.654Z</time></trkpt><trkpt lat="39.2502411" lon="16.9581516"><ele>262.5</ele><time>2026-03-28T14:55:09.653Z</time></trkpt><trkpt lat="39.2502868" lon="16.9580667"><ele>262.0</ele><time>2026-03-28T14:55:10.653Z</time></trkpt><trkpt lat="39.2503279" lon="16.957981"><ele>262.0</ele><time>2026-03-28T14:55:11.649Z</time></trkpt><trkpt lat="39.2503701" lon="16.957886"><ele>262.0</ele><time>2026-03-28T14:55:12.647Z</time></trkpt><trkpt lat="39.2504125" lon="16.9577913"><ele>262.0</ele><time>2026-03-28T14:55:13.648Z</time></trkpt><trkpt lat="39.2504472" lon="16.9577017"><ele>262.0</ele><time>2026-03-28T14:55:14.652Z</time></trkpt><trkpt lat="39.2504794" lon="16.9576133"><ele>262.0</ele><time>2026-03-28T14:55:15.645Z</time></trkpt><trkpt lat="39.2505117" lon="16.9575265"><ele>262.0</ele><time>2026-03-28T14:55:16.644Z</time></trkpt><trkpt lat="39.250536" lon="16.9574312"><ele>261.8333333333333</ele><time>2026-03-28T14:55:17.648Z</time></trkpt><trkpt lat="39.250553" lon="16.957327"><ele>261.66666666666663</ele><time>2026-03-28T14:55:18.641Z</time></trkpt><trkpt lat="39.2505721" lon="16.9572396"><ele>261.5</ele><time>2026-03-28T14:55:19.641Z</time></trkpt><trkpt lat="39.2505898" lon="16.9571603"><ele>261.3333333333333</ele><time>2026-03-28T14:55:20.653Z</time></trkpt><trkpt lat="39.2506817" lon="16.9570547"><ele>261.1666666666667</ele><time>2026-03-28T14:55:22.66Z</time></trkpt><trkpt lat="39.2507725" lon="16.9570338"><ele>261.0</ele><time>2026-03-28T14:55:23.64Z</time></trkpt><trkpt lat="39.2508991" lon="16.9569872"><ele>261.0</ele><time>2026-03-28T14:55:24.649Z</time></trkpt><trkpt lat="39.2510105" lon="16.9569329"><ele>261.0</ele><time>2026-03-28T14:55:25.654Z</time></trkpt><trkpt lat="39.2511157" lon="16.9568739"><ele>261.0</ele><time>2026-03-28T14:55:26.649Z</time></trkpt><trkpt lat="39.2512124" lon="16.9568241"><ele>261.0</ele><time>2026-03-28T14:55:27.643Z</time></trkpt><trkpt lat="39.2513011" lon="16.9567836"><ele>261.0</ele><time>2026-03-28T14:55:28.646Z</time></trkpt><trkpt lat="39.2513943" lon="16.9567277"><ele>262.75</ele><time>2026-03-28T14:55:29.65Z</time></trkpt><trkpt lat="39.2515003" lon="16.9566445"><ele>264.5</ele><time>2026-03-28T14:55:30.642Z</time></trkpt><trkpt lat="39.2516061" lon="16.956552"><ele>266.25</ele><time>2026-03-28T14:55:31.646Z</time></trkpt><trkpt lat="39.2517124" lon="16.9564564"><ele>268.0</ele><time>2026-03-28T14:55:32.65Z</time></trkpt><trkpt lat="39.2518122" lon="16.9563661"><ele>268.0</ele><time>2026-03-28T14:55:33.644Z</time></trkpt><trkpt lat="39.2519023" lon="16.9562826"><ele>268.0</ele><time>2026-03-28T14:55:34.647Z</time></trkpt><trkpt lat="39.2519815" lon="16.9562109"><ele>268.0</ele><time>2026-03-28T14:55:35.649Z</time></trkpt><trkpt lat="39.2520465" lon="16.9561483"><ele>268.0</ele><time>2026-03-28T14:55:36.654Z</time></trkpt><trkpt lat="39.2521012" lon="16.9560923"><ele>268.0</ele><time>2026-03-28T14:55:37.645Z</time></trkpt><trkpt lat="39.2521503" lon="16.9560359"><ele>268.0</ele><time>2026-03-28T14:55:38.648Z</time></trkpt><trkpt lat="39.2522224" lon="16.9559375"><ele>267.3333333333333</ele><time>2026-03-28T14:55:40.66Z</time></trkpt><trkpt lat="39.2522789" lon="16.9558631"><ele>266.66666666666663</ele><time>2026-03-28T14:55:42.658Z</time></trkpt><trkpt lat="39.2523341" lon="16.9557949"><ele>266.0</ele><time>2026-03-28T14:55:44.654Z</time></trkpt><trkpt lat="39.2523563" lon="16.9557149"><ele>265.3333333333333</ele><time>2026-03-28T14:55:46.655Z</time></trkpt><trkpt lat="39.2523713" lon="16.9555844"><ele>264.6666666666667</ele><time>2026-03-28T14:55:48.652Z</time></trkpt><trkpt lat="39.252379" lon="16.9554467"><ele>264.0</ele><time>2026-03-28T14:55:50.64Z</time></trkpt><trkpt lat="39.2523822" lon="16.9553159"><ele>264.0</ele><time>2026-03-28T14:55:52.642Z</time></trkpt><trkpt lat="39.2523799" lon="16.9551771"><ele>264.0</ele><time>2026-03-28T14:55:54.644Z</time></trkpt><trkpt lat="39.2523759" lon="16.955025"><ele>264.0</ele><time>2026-03-28T14:55:56.653Z</time></trkpt><trkpt lat="39.2523687" lon="16.9549438"><ele>264.0</ele><time>2026-03-28T14:55:57.65Z</time></trkpt><trkpt lat="39.2523591" lon="16.9548606"><ele>264.0</ele><time>2026-03-28T14:55:58.644Z</time></trkpt><trkpt lat="39.2523357" lon="16.9547145"><ele>263.8</ele><time>2026-03-28T14:56:00.644Z</time></trkpt><trkpt lat="39.2523303" lon="16.9545623"><ele>263.59999999999997</ele><time>2026-03-28T14:56:02.653Z</time></trkpt><trkpt lat="39.2523884" lon="16.9544327"><ele>263.4</ele><time>2026-03-28T14:56:04.651Z</time></trkpt><trkpt lat="39.2524383" lon="16.9543777"><ele>263.2</ele><time>2026-03-28T14:56:05.651Z</time></trkpt><trkpt lat="39.2524949" lon="16.9543157"><ele>263.0</ele><time>2026-03-28T14:56:06.648Z</time></trkpt><trkpt lat="39.2525506" lon="16.9542402"><ele>262.0</ele><time>2026-03-28T14:56:07.649Z</time></trkpt><trkpt lat="39.252596" lon="16.9541559"><ele>261.0</ele><time>2026-03-28T14:56:08.648Z</time></trkpt><trkpt lat="39.2526261" lon="16.9540638"><ele>260.0</ele><time>2026-03-28T14:56:09.654Z</time></trkpt><trkpt lat="39.2526405" lon="16.9539674"><ele>259.0</ele><time>2026-03-28T14:56:10.646Z</time></trkpt><trkpt lat="39.2526434" lon="16.9538687"><ele>258.0</ele><time>2026-03-28T14:56:11.655Z</time></trkpt><trkpt lat="39.2526396" lon="16.9537587"><ele>257.0</ele><time>2026-03-28T14:56:12.644Z</time></trkpt><trkpt lat="39.2526279" lon="16.9536409"><ele>257.0</ele><time>2026-03-28T14:56:13.653Z</time></trkpt><trkpt lat="39.2526129" lon="16.9535275"><ele>257.0</ele><time>2026-03-28T14:56:14.648Z</time></trkpt><trkpt lat="39.2526006" lon="16.9534205"><ele>257.0</ele><time>2026-03-28T14:56:15.654Z</time></trkpt><trkpt lat="39.2526033" lon="16.9533215"><ele>257.0</ele><time>2026-03-28T14:56:16.647Z</time></trkpt><trkpt lat="39.2526255" lon="16.9532288"><ele>257.0</ele><time>2026-03-28T14:56:17.651Z</time></trkpt><trkpt lat="39.2526569" lon="16.9531395"><ele>257.0</ele><time>2026-03-28T14:56:18.647Z</time></trkpt><trkpt lat="39.2526807" lon="16.9530507"><ele>256.0</ele><time>2026-03-28T14:56:19.651Z</time></trkpt><trkpt lat="39.2526947" lon="16.9529604"><ele>255.0</ele><time>2026-03-28T14:56:20.648Z</time></trkpt><trkpt lat="39.2527018" lon="16.9528578"><ele>254.0</ele><time>2026-03-28T14:56:21.65Z</time></trkpt><trkpt lat="39.2527094" lon="16.9527475"><ele>253.0</ele><time>2026-03-28T14:56:22.643Z</time></trkpt><trkpt lat="39.2527199" lon="16.9526383"><ele>252.00000000000003</ele><time>2026-03-28T14:56:23.656Z</time></trkpt><trkpt lat="39.2527327" lon="16.9525273"><ele>251.0</ele><time>2026-03-28T14:56:24.648Z</time></trkpt><trkpt lat="39.2527425" lon="16.9524163"><ele>249.50000000000003</ele><time>2026-03-28T14:56:25.646Z</time></trkpt><trkpt lat="39.2527458" lon="16.9523071"><ele>248.0</ele><time>2026-03-28T14:56:26.647Z</time></trkpt><trkpt lat="39.2527402" lon="16.9522056"><ele>246.5</ele><time>2026-03-28T14:56:27.647Z</time></trkpt><trkpt lat="39.2527652" lon="16.9520712"><ele>245.0</ele><time>2026-03-28T14:56:29.644Z</time></trkpt><trkpt lat="39.2528455" lon="16.9520145"><ele>243.50000000000003</ele><time>2026-03-28T14:56:31.646Z</time></trkpt><trkpt lat="39.2529308" lon="16.9520159"><ele>242.0</ele><time>2026-03-28T14:56:32.647Z</time></trkpt><trkpt lat="39.2530262" lon="16.9520145"><ele>242.0</ele><time>2026-03-28T14:56:33.647Z</time></trkpt><trkpt lat="39.2531163" lon="16.9520101"><ele>241.99999999999997</ele><time>2026-03-28T14:56:34.645Z</time></trkpt><trkpt lat="39.2531984" lon="16.9520006"><ele>242.0</ele><time>2026-03-28T14:56:35.645Z</time></trkpt><trkpt lat="39.2532715" lon="16.9519838"><ele>242.0</ele><time>2026-03-28T14:56:36.644Z</time></trkpt><trkpt lat="39.2533348" lon="16.9519532"><ele>241.99999999999997</ele><time>2026-03-28T14:56:37.649Z</time></trkpt><trkpt lat="39.2533856" lon="16.9519048"><ele>242.0</ele><time>2026-03-28T14:56:38.657Z</time></trkpt><trkpt lat="39.2534412" lon="16.9518499"><ele>242.0</ele><time>2026-03-28T14:56:39.648Z</time></trkpt><trkpt lat="39.2534701" lon="16.95176"><ele>239.66666666666669</ele><time>2026-03-28T14:56:40.645Z</time></trkpt><trkpt lat="39.2535046" lon="16.9516614"><ele>237.33333333333334</ele><time>2026-03-28T14:56:41.649Z</time></trkpt><trkpt lat="39.2535506" lon="16.9515554"><ele>235.0</ele><time>2026-03-28T14:56:42.652Z</time></trkpt><trkpt lat="39.2536066" lon="16.9514596"><ele>232.66666666666669</ele><time>2026-03-28T14:56:43.647Z</time></trkpt><trkpt lat="39.253674" lon="16.9513897"><ele>230.33333333333334</ele><time>2026-03-28T14:56:44.643Z</time></trkpt><trkpt lat="39.2537489" lon="16.9513561"><ele>228.0</ele><time>2026-03-28T14:56:45.651Z</time></trkpt><trkpt lat="39.2538297" lon="16.9513515"><ele>228.0</ele><time>2026-03-28T14:56:46.644Z</time></trkpt><trkpt lat="39.2539072" lon="16.9513523"><ele>228.0</ele><time>2026-03-28T14:56:47.653Z</time></trkpt><trkpt lat="39.2539829" lon="16.9513466"><ele>228.0</ele><time>2026-03-28T14:56:48.649Z</time></trkpt><trkpt lat="39.2540608" lon="16.9513382"><ele>228.0</ele><time>2026-03-28T14:56:49.646Z</time></trkpt><trkpt lat="39.2541394" lon="16.9513437"><ele>228.0</ele><time>2026-03-28T14:56:50.645Z</time></trkpt><trkpt lat="39.2542118" lon="16.9513781"><ele>228.0</ele><time>2026-03-28T14:56:51.646Z</time></trkpt><trkpt lat="39.2542915" lon="16.9514452"><ele>226.16666666666666</ele><time>2026-03-28T14:56:52.648Z</time></trkpt><trkpt lat="39.2543582" lon="16.9515135"><ele>224.33333333333331</ele><time>2026-03-28T14:56:53.648Z</time></trkpt><trkpt lat="39.2544175" lon="16.9515743"><ele>222.5</ele><time>2026-03-28T14:56:54.644Z</time></trkpt><trkpt lat="39.2545184" lon="16.9515882"><ele>220.66666666666666</ele><time>2026-03-28T14:56:56.641Z</time></trkpt><trkpt lat="39.2546293" lon="16.951564"><ele>218.83333333333331</ele><time>2026-03-28T14:56:58.65Z</time></trkpt><trkpt lat="39.2546956" lon="16.9515769"><ele>217.0</ele><time>2026-03-28T14:56:59.644Z</time></trkpt><trkpt lat="39.2547738" lon="16.9516474"><ele>215.99999999999997</ele><time>2026-03-28T14:57:01.644Z</time></trkpt><trkpt lat="39.254794" lon="16.9517435"><ele>215.0</ele><time>2026-03-28T14:57:03.648Z</time></trkpt><trkpt lat="39.2547681" lon="16.9518703"><ele>214.0</ele><time>2026-03-28T14:57:05.644Z</time></trkpt><trkpt lat="39.2547446" lon="16.9519461"><ele>213.0</ele><time>2026-03-28T14:57:06.642Z</time></trkpt><trkpt lat="39.2547401" lon="16.9520398"><ele>211.99999999999997</ele><time>2026-03-28T14:57:07.644Z</time></trkpt><trkpt lat="39.2547599" lon="16.9521177"><ele>211.0</ele><time>2026-03-28T14:57:08.655Z</time></trkpt><trkpt lat="39.2548485" lon="16.9522361"><ele>210.99999999999997</ele><time>2026-03-28T14:57:10.65Z</time></trkpt><trkpt lat="39.2549087" lon="16.9522944"><ele>211.0</ele><time>2026-03-28T14:57:11.642Z</time></trkpt><trkpt lat="39.2549617" lon="16.9523515"><ele>211.0</ele><time>2026-03-28T14:57:12.65Z</time></trkpt><trkpt lat="39.2550148" lon="16.9524111"><ele>211.0</ele><time>2026-03-28T14:57:13.646Z</time></trkpt><trkpt lat="39.2550653" lon="16.9524624"><ele>210.99999999999997</ele><time>2026-03-28T14:57:14.648Z</time></trkpt><trkpt lat="39.2551673" lon="16.9525505"><ele>211.0</ele><time>2026-03-28T14:57:16.645Z</time></trkpt><trkpt lat="39.2552636" lon="16.9526116"><ele>209.8</ele><time>2026-03-28T14:57:18.65Z</time></trkpt><trkpt lat="39.2553445" lon="16.9526502"><ele>208.60000000000002</ele><time>2026-03-28T14:57:20.643Z</time></trkpt><trkpt lat="39.2554257" lon="16.9526761"><ele>207.4</ele><time>2026-03-28T14:57:22.647Z</time></trkpt><trkpt lat="39.2555096" lon="16.9526937"><ele>206.2</ele><time>2026-03-28T14:57:24.648Z</time></trkpt><trkpt lat="39.255625" lon="16.952702"><ele>205.0</ele><time>2026-03-28T14:57:26.648Z</time></trkpt><trkpt lat="39.2557061" lon="16.9527111"><ele>204.99999999999997</ele><time>2026-03-28T14:57:27.641Z</time></trkpt><trkpt lat="39.2557923" lon="16.9527164"><ele>205.0</ele><time>2026-03-28T14:57:28.642Z</time></trkpt><trkpt lat="39.25587" lon="16.9527179"><ele>205.0</ele><time>2026-03-28T14:57:29.644Z</time></trkpt><trkpt lat="39.2559388" lon="16.9527143"><ele>205.0</ele><time>2026-03-28T14:57:30.646Z</time></trkpt><trkpt lat="39.2560581" lon="16.9526752"><ele>204.99999999999997</ele><time>2026-03-28T14:57:32.647Z</time></trkpt><trkpt lat="39.2561223" lon="16.9526553"><ele>205.0</ele><time>2026-03-28T14:57:33.645Z</time></trkpt><trkpt lat="39.256187" lon="16.9526205"><ele>204.99999999999997</ele><time>2026-03-28T14:57:34.648Z</time></trkpt><trkpt lat="39.2562542" lon="16.9525823"><ele>205.0</ele><time>2026-03-28T14:57:35.655Z</time></trkpt><trkpt lat="39.2563322" lon="16.9525395"><ele>205.0</ele><time>2026-03-28T14:57:36.644Z</time></trkpt><trkpt lat="39.25641" lon="16.9524876"><ele>205.0</ele><time>2026-03-28T14:57:37.654Z</time></trkpt><trkpt lat="39.2564876" lon="16.9524304"><ele>204.99999999999997</ele><time>2026-03-28T14:57:38.65Z</time></trkpt><trkpt lat="39.2565583" lon="16.9523729"><ele>205.0</ele><time>2026-03-28T14:57:39.65Z</time></trkpt><trkpt lat="39.2566286" lon="16.9523179"><ele>203.99999999999997</ele><time>2026-03-28T14:57:40.655Z</time></trkpt><trkpt lat="39.2566919" lon="16.9522702"><ele>203.0</ele><time>2026-03-28T14:57:41.649Z</time></trkpt><trkpt lat="39.2567509" lon="16.9522312"><ele>202.0</ele><time>2026-03-28T14:57:42.646Z</time></trkpt><trkpt lat="39.2568455" lon="16.9521851"><ele>201.0</ele><time>2026-03-28T14:57:44.651Z</time></trkpt><trkpt lat="39.256922" lon="16.9521991"><ele>199.99999999999997</ele><time>2026-03-28T14:57:47.646Z</time></trkpt><trkpt lat="39.2569645" lon="16.9522654"><ele>199.0</ele><time>2026-03-28T14:57:49.649Z</time></trkpt><trkpt lat="39.2570124" lon="16.9523869"><ele>198.99999999999997</ele><time>2026-03-28T14:57:51.653Z</time></trkpt><trkpt lat="39.2570352" lon="16.9524721"><ele>199.0</ele><time>2026-03-28T14:57:52.651Z</time></trkpt><trkpt lat="39.2570567" lon="16.9525629"><ele>199.0</ele><time>2026-03-28T14:57:53.65Z</time></trkpt><trkpt lat="39.2570768" lon="16.9526612"><ele>199.0</ele><time>2026-03-28T14:57:54.647Z</time></trkpt><trkpt lat="39.2570927" lon="16.9527629"><ele>198.99999999999997</ele><time>2026-03-28T14:57:55.646Z</time></trkpt><trkpt lat="39.2570956" lon="16.952863"><ele>199.0</ele><time>2026-03-28T14:57:56.643Z</time></trkpt><trkpt lat="39.2570913" lon="16.9529549"><ele>199.0</ele><time>2026-03-28T14:57:57.649Z</time></trkpt><trkpt lat="39.2570828" lon="16.9530397"><ele>199.0</ele><time>2026-03-28T14:57:58.645Z</time></trkpt><trkpt lat="39.2570642" lon="16.9531915"><ele>199.0</ele><time>2026-03-28T14:58:00.642Z</time></trkpt><trkpt lat="39.2570405" lon="16.9533466"><ele>199.0</ele><time>2026-03-28T14:58:02.645Z</time></trkpt><trkpt lat="39.2570193" lon="16.9535059"><ele>199.0</ele><time>2026-03-28T14:58:04.643Z</time></trkpt><trkpt lat="39.2570155" lon="16.9535927"><ele>197.99999999999997</ele><time>2026-03-28T14:58:05.649Z</time></trkpt><trkpt lat="39.2570252" lon="16.9536813"><ele>197.0</ele><time>2026-03-28T14:58:06.644Z</time></trkpt><trkpt lat="39.2570567" lon="16.9537634"><ele>196.0</ele><time>2026-03-28T14:58:07.644Z</time></trkpt><trkpt lat="39.2571053" lon="16.9538239"><ele>195.0</ele><time>2026-03-28T14:58:08.645Z</time></trkpt><trkpt lat="39.2571636" lon="16.9538711"><ele>194.0</ele><time>2026-03-28T14:58:09.646Z</time></trkpt><trkpt lat="39.2572284" lon="16.9539198"><ele>192.99999999999997</ele><time>2026-03-28T14:58:10.649Z</time></trkpt><trkpt lat="39.2572968" lon="16.9539727"><ele>192.0</ele><time>2026-03-28T14:58:11.658Z</time></trkpt><trkpt lat="39.2573629" lon="16.9540314"><ele>190.83333333333334</ele><time>2026-03-28T14:58:12.651Z</time></trkpt><trkpt lat="39.2574264" lon="16.9540906"><ele>189.66666666666666</ele><time>2026-03-28T14:58:13.648Z</time></trkpt><trkpt lat="39.2574888" lon="16.9541426"><ele>188.5</ele><time>2026-03-28T14:58:14.645Z</time></trkpt><trkpt lat="39.2575504" lon="16.9541815"><ele>187.33333333333331</ele><time>2026-03-28T14:58:15.651Z</time></trkpt><trkpt lat="39.2576708" lon="16.9542281"><ele>186.16666666666666</ele><time>2026-03-28T14:58:17.648Z</time></trkpt><trkpt lat="39.2577381" lon="16.954243"><ele>185.0</ele><time>2026-03-28T14:58:18.652Z</time></trkpt><trkpt lat="39.2578062" lon="16.954258"><ele>183.99999999999997</ele><time>2026-03-28T14:58:19.65Z</time></trkpt><trkpt lat="39.2578708" lon="16.9542766"><ele>183.0</ele><time>2026-03-28T14:58:20.649Z</time></trkpt><trkpt lat="39.2579334" lon="16.9542994"><ele>182.0</ele><time>2026-03-28T14:58:21.642Z</time></trkpt><trkpt lat="39.2580004" lon="16.9543262"><ele>181.0</ele><time>2026-03-28T14:58:22.654Z</time></trkpt><trkpt lat="39.2580702" lon="16.9543551"><ele>180.0</ele><time>2026-03-28T14:58:23.651Z</time></trkpt><trkpt lat="39.2581447" lon="16.9543938"><ele>178.99999999999997</ele><time>2026-03-28T14:58:24.649Z</time></trkpt><trkpt lat="39.2582153" lon="16.9544444"><ele>178.0</ele><time>2026-03-28T14:58:25.649Z</time></trkpt><trkpt lat="39.258282" lon="16.9544927"><ele>176.4</ele><time>2026-03-28T14:58:26.647Z</time></trkpt><trkpt lat="39.2583599" lon="16.9545669"><ele>174.8</ele><time>2026-03-28T14:58:27.642Z</time></trkpt><trkpt lat="39.2584431" lon="16.9546326"><ele>173.2</ele><time>2026-03-28T14:58:28.644Z</time></trkpt><trkpt lat="39.2585493" lon="16.9547056"><ele>171.6</ele><time>2026-03-28T14:58:29.645Z</time></trkpt><trkpt lat="39.2586607" lon="16.9547823"><ele>170.0</ele><time>2026-03-28T14:58:30.645Z</time></trkpt><trkpt lat="39.2587706" lon="16.9548565"><ele>170.0</ele><time>2026-03-28T14:58:31.657Z</time></trkpt><trkpt lat="39.258877" lon="16.9549283"><ele>170.0</ele><time>2026-03-28T14:58:32.651Z</time></trkpt><trkpt lat="39.2589844" lon="16.9549898"><ele>170.0</ele><time>2026-03-28T14:58:33.647Z</time></trkpt><trkpt lat="39.259086" lon="16.9550403"><ele>170.0</ele><time>2026-03-28T14:58:34.646Z</time></trkpt><trkpt lat="39.2591783" lon="16.9550786"><ele>170.0</ele><time>2026-03-28T14:58:35.645Z</time></trkpt><trkpt lat="39.2592683" lon="16.9551145"><ele>168.5</ele><time>2026-03-28T14:58:36.645Z</time></trkpt><trkpt lat="39.2593527" lon="16.9551506"><ele>167.0</ele><time>2026-03-28T14:58:37.648Z</time></trkpt><trkpt lat="39.2594317" lon="16.9551854"><ele>165.5</ele><time>2026-03-28T14:58:38.645Z</time></trkpt><trkpt lat="39.2595101" lon="16.9552043"><ele>164.0</ele><time>2026-03-28T14:58:39.656Z</time></trkpt><trkpt lat="39.2595872" lon="16.9551996"><ele>162.5</ele><time>2026-03-28T14:58:40.647Z</time></trkpt><trkpt lat="39.2596644" lon="16.9551699"><ele>161.0</ele><time>2026-03-28T14:58:41.648Z</time></trkpt><trkpt lat="39.2597411" lon="16.9551174"><ele>159.83333333333331</ele><time>2026-03-28T14:58:42.646Z</time></trkpt><trkpt lat="39.2598295" lon="16.9550596"><ele>158.66666666666666</ele><time>2026-03-28T14:58:43.654Z</time></trkpt><trkpt lat="39.259918" lon="16.9550144"><ele>157.5</ele><time>2026-03-28T14:58:44.65Z</time></trkpt><trkpt lat="39.2600042" lon="16.9550008"><ele>156.33333333333334</ele><time>2026-03-28T14:58:45.646Z</time></trkpt><trkpt lat="39.2600775" lon="16.9549896"><ele>155.16666666666669</ele><time>2026-03-28T14:58:46.649Z</time></trkpt><trkpt lat="39.2601487" lon="16.9550514"><ele>154.0</ele><time>2026-03-28T14:58:47.646Z</time></trkpt><trkpt lat="39.260226" lon="16.9551156"><ele>153.6</ele><time>2026-03-28T14:58:48.65Z</time></trkpt><trkpt lat="39.2603043" lon="16.9551739"><ele>153.2</ele><time>2026-03-28T14:58:49.65Z</time></trkpt><trkpt lat="39.2603844" lon="16.9552344"><ele>152.79999999999998</ele><time>2026-03-28T14:58:50.642Z</time></trkpt><trkpt lat="39.2604624" lon="16.9552955"><ele>152.4</ele><time>2026-03-28T14:58:51.646Z</time></trkpt><trkpt lat="39.2605424" lon="16.9553567"><ele>152.0</ele><time>2026-03-28T14:58:52.645Z</time></trkpt><trkpt lat="39.2606236" lon="16.9554176"><ele>150.5</ele><time>2026-03-28T14:58:53.647Z</time></trkpt><trkpt lat="39.2607" lon="16.9554758"><ele>149.0</ele><time>2026-03-28T14:58:54.647Z</time></trkpt><trkpt lat="39.2607794" lon="16.9555336"><ele>147.5</ele><time>2026-03-28T14:58:55.65Z</time></trkpt><trkpt lat="39.2608573" lon="16.9555934"><ele>146.0</ele><time>2026-03-28T14:58:56.651Z</time></trkpt><trkpt lat="39.2609301" lon="16.9556507"><ele>144.5</ele><time>2026-03-28T14:58:57.645Z</time></trkpt><trkpt lat="39.2609927" lon="16.9557116"><ele>143.0</ele><time>2026-03-28T14:58:58.659Z</time></trkpt><trkpt lat="39.2610536" lon="16.955779"><ele>143.0</ele><time>2026-03-28T14:58:59.648Z</time></trkpt><trkpt lat="39.2611182" lon="16.9558549"><ele>143.0</ele><time>2026-03-28T14:59:00.65Z</time></trkpt><trkpt lat="39.261184" lon="16.9559365"><ele>143.0</ele><time>2026-03-28T14:59:01.654Z</time></trkpt><trkpt lat="39.2612503" lon="16.9560174"><ele>143.0</ele><time>2026-03-28T14:59:02.648Z</time></trkpt><trkpt lat="39.2613016" lon="16.9560834"><ele>143.0</ele><time>2026-03-28T14:59:03.647Z</time></trkpt><trkpt lat="39.2613722" lon="16.9561951"><ele>142.83333333333331</ele><time>2026-03-28T14:59:05.654Z</time></trkpt><trkpt lat="39.261428" lon="16.9563287"><ele>142.66666666666666</ele><time>2026-03-28T14:59:07.654Z</time></trkpt><trkpt lat="39.2614496" lon="16.9564112"><ele>142.5</ele><time>2026-03-28T14:59:08.649Z</time></trkpt><trkpt lat="39.2614646" lon="16.956501"><ele>142.33333333333334</ele><time>2026-03-28T14:59:09.649Z</time></trkpt><trkpt lat="39.261478" lon="16.956588"><ele>142.16666666666669</ele><time>2026-03-28T14:59:10.646Z</time></trkpt><trkpt lat="39.2615382" lon="16.9566938"><ele>142.0</ele><time>2026-03-28T14:59:12.652Z</time></trkpt><trkpt lat="39.2616307" lon="16.9567328"><ele>139.83333333333334</ele><time>2026-03-28T14:59:14.652Z</time></trkpt><trkpt lat="39.2617003" lon="16.9567292"><ele>137.66666666666669</ele><time>2026-03-28T14:59:15.65Z</time></trkpt><trkpt lat="39.2617738" lon="16.9567241"><ele>135.5</ele><time>2026-03-28T14:59:16.654Z</time></trkpt><trkpt lat="39.2618563" lon="16.9567168"><ele>133.33333333333334</ele><time>2026-03-28T14:59:17.646Z</time></trkpt><trkpt lat="39.2619408" lon="16.9567175"><ele>131.16666666666666</ele><time>2026-03-28T14:59:18.652Z</time></trkpt><trkpt lat="39.2620313" lon="16.9567266"><ele>129.0</ele><time>2026-03-28T14:59:19.644Z</time></trkpt><trkpt lat="39.2621249" lon="16.956749"><ele>129.0</ele><time>2026-03-28T14:59:20.646Z</time></trkpt><trkpt lat="39.2622153" lon="16.956771"><ele>129.0</ele><time>2026-03-28T14:59:21.644Z</time></trkpt><trkpt lat="39.2622829" lon="16.9568247"><ele>129.0</ele><time>2026-03-28T14:59:22.647Z</time></trkpt><trkpt lat="39.2623455" lon="16.9568785"><ele>129.0</ele><time>2026-03-28T14:59:23.646Z</time></trkpt><trkpt lat="39.2623728" lon="16.956964"><ele>129.0</ele><time>2026-03-28T14:59:24.659Z</time></trkpt><trkpt lat="39.2624026" lon="16.9571104"><ele>129.0</ele><time>2026-03-28T14:59:26.651Z</time></trkpt><trkpt lat="39.2624718" lon="16.9572445"><ele>128.0</ele><time>2026-03-28T14:59:28.646Z</time></trkpt><trkpt lat="39.262514" lon="16.9573095"><ele>127.0</ele><time>2026-03-28T14:59:29.646Z</time></trkpt><trkpt lat="39.2625784" lon="16.9573569"><ele>126.0</ele><time>2026-03-28T14:59:30.647Z</time></trkpt><trkpt lat="39.2626436" lon="16.9574057"><ele>125.0</ele><time>2026-03-28T14:59:31.644Z</time></trkpt><trkpt lat="39.2627132" lon="16.9574512"><ele>124.0</ele><time>2026-03-28T14:59:32.65Z</time></trkpt><trkpt lat="39.2627834" lon="16.9574958"><ele>123.0</ele><time>2026-03-28T14:59:33.647Z</time></trkpt><trkpt lat="39.2628578" lon="16.9575429"><ele>122.5</ele><time>2026-03-28T14:59:34.648Z</time></trkpt><trkpt lat="39.2629324" lon="16.957604"><ele>122.0</ele><time>2026-03-28T14:59:35.647Z</time></trkpt><trkpt lat="39.2630015" lon="16.9576736"><ele>121.5</ele><time>2026-03-28T14:59:36.653Z</time></trkpt><trkpt lat="39.2630688" lon="16.95774"><ele>121.0</ele><time>2026-03-28T14:59:37.646Z</time></trkpt><trkpt lat="39.2631329" lon="16.957789"><ele>120.5</ele><time>2026-03-28T14:59:38.645Z</time></trkpt><trkpt lat="39.2632018" lon="16.9578408"><ele>120.0</ele><time>2026-03-28T14:59:39.654Z</time></trkpt><trkpt lat="39.2632742" lon="16.9578647"><ele>119.5</ele><time>2026-03-28T14:59:40.648Z</time></trkpt><trkpt lat="39.2633539" lon="16.9578838"><ele>119.0</ele><time>2026-03-28T14:59:41.647Z</time></trkpt><trkpt lat="39.2634341" lon="16.9578983"><ele>118.5</ele><time>2026-03-28T14:59:42.654Z</time></trkpt><trkpt lat="39.2635066" lon="16.9579301"><ele>118.0</ele><time>2026-03-28T14:59:43.649Z</time></trkpt><trkpt lat="39.2635729" lon="16.95798"><ele>117.5</ele><time>2026-03-28T14:59:44.651Z</time></trkpt><trkpt lat="39.2636357" lon="16.9580235"><ele>117.0</ele><time>2026-03-28T14:59:45.647Z</time></trkpt><trkpt lat="39.2636977" lon="16.9580656"><ele>117.0</ele><time>2026-03-28T14:59:46.646Z</time></trkpt><trkpt lat="39.2637627" lon="16.9581054"><ele>117.0</ele><time>2026-03-28T14:59:47.643Z</time></trkpt><trkpt lat="39.2638362" lon="16.9581505"><ele>117.0</ele><time>2026-03-28T14:59:48.654Z</time></trkpt><trkpt lat="39.2639103" lon="16.9582048"><ele>117.0</ele><time>2026-03-28T14:59:49.647Z</time></trkpt><trkpt lat="39.263983" lon="16.9582617"><ele>117.0</ele><time>2026-03-28T14:59:50.648Z</time></trkpt><trkpt lat="39.2640567" lon="16.9583154"><ele>117.0</ele><time>2026-03-28T14:59:51.651Z</time></trkpt><trkpt lat="39.2641232" lon="16.9583576"><ele>116.57142857142858</ele><time>2026-03-28T14:59:52.641Z</time></trkpt><trkpt lat="39.2641883" lon="16.9583975"><ele>116.14285714285715</ele><time>2026-03-28T14:59:53.646Z</time></trkpt><trkpt lat="39.2642509" lon="16.9584362"><ele>115.71428571428572</ele><time>2026-03-28T14:59:54.647Z</time></trkpt><trkpt lat="39.2643134" lon="16.9584731"><ele>115.28571428571428</ele><time>2026-03-28T14:59:55.643Z</time></trkpt><trkpt lat="39.2643807" lon="16.9585082"><ele>114.85714285714285</ele><time>2026-03-28T14:59:56.653Z</time></trkpt><trkpt lat="39.2644504" lon="16.9585388"><ele>114.42857142857142</ele><time>2026-03-28T14:59:57.655Z</time></trkpt><trkpt lat="39.2645269" lon="16.9585706"><ele>114.0</ele><time>2026-03-28T14:59:58.641Z</time></trkpt><trkpt lat="39.2645984" lon="16.9586008"><ele>114.0</ele><time>2026-03-28T14:59:59.649Z</time></trkpt><trkpt lat="39.2646688" lon="16.958636"><ele>114.0</ele><time>2026-03-28T15:00:00.648Z</time></trkpt><trkpt lat="39.2647321" lon="16.9586641"><ele>114.0</ele><time>2026-03-28T15:00:01.649Z</time></trkpt><trkpt lat="39.2648172" lon="16.9587039"><ele>114.0</ele><time>2026-03-28T15:00:03.646Z</time></trkpt><trkpt lat="39.264906" lon="16.9587428"><ele>114.0</ele><time>2026-03-28T15:00:06.641Z</time></trkpt><trkpt lat="39.2649804" lon="16.9587861"><ele>114.0</ele><time>2026-03-28T15:00:08.646Z</time></trkpt><trkpt lat="39.2650753" lon="16.958839"><ele>113.16666666666667</ele><time>2026-03-28T15:00:10.644Z</time></trkpt><trkpt lat="39.2651663" lon="16.9588686"><ele>112.33333333333334</ele><time>2026-03-28T15:00:12.649Z</time></trkpt><trkpt lat="39.2652422" lon="16.9588797"><ele>111.5</ele><time>2026-03-28T15:00:14.653Z</time></trkpt><trkpt lat="39.2653084" lon="16.9589074"><ele>110.66666666666667</ele><time>2026-03-28T15:00:17.665Z</time></trkpt><trkpt lat="39.2653782" lon="16.9589535"><ele>109.83333333333334</ele><time>2026-03-28T15:00:22.647Z</time></trkpt><trkpt lat="39.2654403" lon="16.9590132"><ele>109.0</ele><time>2026-03-28T15:00:25.654Z</time></trkpt><trkpt lat="39.2654878" lon="16.9590818"><ele>109.0</ele><time>2026-03-28T15:00:28.656Z</time></trkpt><trkpt lat="39.2655508" lon="16.9591489"><ele>109.0</ele><time>2026-03-28T15:00:30.648Z</time></trkpt><trkpt lat="39.2656428" lon="16.9591819"><ele>109.0</ele><time>2026-03-28T15:00:32.655Z</time></trkpt><trkpt lat="39.2657494" lon="16.9592327"><ele>109.0</ele><time>2026-03-28T15:00:34.648Z</time></trkpt><trkpt lat="39.2658295" lon="16.959296"><ele>109.0</ele><time>2026-03-28T15:00:36.654Z</time></trkpt><trkpt lat="39.2658877" lon="16.9593499"><ele>109.50000000000001</ele><time>2026-03-28T15:00:38.65Z</time></trkpt><trkpt lat="39.265946" lon="16.959406"><ele>110.0</ele><time>2026-03-28T15:00:40.646Z</time></trkpt><trkpt lat="39.2660134" lon="16.9594626"><ele>110.5</ele><time>2026-03-28T15:00:42.647Z</time></trkpt><trkpt lat="39.2660891" lon="16.9595215"><ele>111.0</ele><time>2026-03-28T15:00:44.652Z</time></trkpt><trkpt lat="39.2661764" lon="16.9595818"><ele>111.50000000000001</ele><time>2026-03-28T15:00:46.647Z</time></trkpt><trkpt lat="39.2662622" lon="16.959645"><ele>112.0</ele><time>2026-03-28T15:00:48.642Z</time></trkpt><trkpt lat="39.2663342" lon="16.9597084"><ele>112.0</ele><time>2026-03-28T15:00:50.654Z</time></trkpt><trkpt lat="39.266416" lon="16.9597754"><ele>111.99999999999999</ele><time>2026-03-28T15:00:52.648Z</time></trkpt><trkpt lat="39.2664675" lon="16.9598228"><ele>111.99999999999999</ele><time>2026-03-28T15:00:53.64Z</time></trkpt><trkpt lat="39.2665593" lon="16.9599307"><ele>112.0</ele><time>2026-03-28T15:00:55.646Z</time></trkpt><trkpt lat="39.2666096" lon="16.9599809"><ele>112.0</ele><time>2026-03-28T15:00:56.655Z</time></trkpt><trkpt lat="39.2667034" lon="16.9600568"><ele>113.8</ele><time>2026-03-28T15:00:58.649Z</time></trkpt><trkpt lat="39.2668289" lon="16.9601153"><ele>115.6</ele><time>2026-03-28T15:01:00.649Z</time></trkpt><trkpt lat="39.2668983" lon="16.9601528"><ele>117.39999999999999</ele><time>2026-03-28T15:01:01.643Z</time></trkpt><trkpt lat="39.2669595" lon="16.9601966"><ele>119.19999999999999</ele><time>2026-03-28T15:01:02.649Z</time></trkpt><trkpt lat="39.2670716" lon="16.9602854"><ele>121.0</ele><time>2026-03-28T15:01:04.653Z</time></trkpt><trkpt lat="39.2671256" lon="16.9603382"><ele>121.00000000000001</ele><time>2026-03-28T15:01:05.65Z</time></trkpt><trkpt lat="39.2671796" lon="16.9603847"><ele>121.0</ele><time>2026-03-28T15:01:06.647Z</time></trkpt><trkpt lat="39.2672368" lon="16.9604275"><ele>121.0</ele><time>2026-03-28T15:01:07.65Z</time></trkpt><trkpt lat="39.2672929" lon="16.9604679"><ele>121.0</ele><time>2026-03-28T15:01:08.647Z</time></trkpt><trkpt lat="39.2674055" lon="16.9605316"><ele>121.00000000000001</ele><time>2026-03-28T15:01:10.645Z</time></trkpt><trkpt lat="39.2675134" lon="16.9606008"><ele>121.0</ele><time>2026-03-28T15:01:12.652Z</time></trkpt><trkpt lat="39.2675891" lon="16.9606661"><ele>121.4</ele><time>2026-03-28T15:01:14.654Z</time></trkpt><trkpt lat="39.2676913" lon="16.9607728"><ele>121.8</ele><time>2026-03-28T15:01:16.653Z</time></trkpt><trkpt lat="39.2677667" lon="16.9608301"><ele>122.20000000000002</ele><time>2026-03-28T15:01:17.653Z</time></trkpt><trkpt lat="39.267842" lon="16.9608854"><ele>122.60000000000001</ele><time>2026-03-28T15:01:18.644Z</time></trkpt><trkpt lat="39.2679149" lon="16.960926"><ele>123.0</ele><time>2026-03-28T15:01:19.652Z</time></trkpt><trkpt lat="39.2679797" lon="16.9609876"><ele>125.0</ele><time>2026-03-28T15:01:20.649Z</time></trkpt><trkpt lat="39.2680386" lon="16.9610646"><ele>127.00000000000001</ele><time>2026-03-28T15:01:21.646Z</time></trkpt><trkpt lat="39.2680913" lon="16.9611633"><ele>129.0</ele><time>2026-03-28T15:01:22.654Z</time></trkpt><trkpt lat="39.2681385" lon="16.9612725"><ele>131.0</ele><time>2026-03-28T15:01:23.644Z</time></trkpt><trkpt lat="39.2681723" lon="16.961365"><ele>133.0</ele><time>2026-03-28T15:01:24.653Z</time></trkpt><trkpt lat="39.2682272" lon="16.9614785"><ele>135.0</ele><time>2026-03-28T15:01:26.649Z</time></trkpt><trkpt lat="39.2682913" lon="16.9616038"><ele>137.0</ele><time>2026-03-28T15:01:28.649Z</time></trkpt><trkpt lat="39.2683286" lon="16.9616709"><ele>139.0</ele><time>2026-03-28T15:01:29.643Z</time></trkpt><trkpt lat="39.2684066" lon="16.9617806"><ele>141.0</ele><time>2026-03-28T15:01:31.644Z</time></trkpt><trkpt lat="39.2685224" lon="16.9618693"><ele>143.0</ele><time>2026-03-28T15:01:33.647Z</time></trkpt><trkpt lat="39.2685817" lon="16.961927"><ele>143.28571428571428</ele><time>2026-03-28T15:01:34.647Z</time></trkpt><trkpt lat="39.2686397" lon="16.961983"><ele>143.57142857142856</ele><time>2026-03-28T15:01:35.657Z</time></trkpt><trkpt lat="39.2687035" lon="16.9620189"><ele>143.85714285714286</ele><time>2026-03-28T15:01:36.651Z</time></trkpt><trkpt lat="39.2687714" lon="16.9620649"><ele>144.14285714285714</ele><time>2026-03-28T15:01:37.649Z</time></trkpt><trkpt lat="39.268835" lon="16.9621117"><ele>144.42857142857144</ele><time>2026-03-28T15:01:38.65Z</time></trkpt><trkpt lat="39.268899" lon="16.9621495"><ele>144.71428571428572</ele><time>2026-03-28T15:01:39.642Z</time></trkpt><trkpt lat="39.2689666" lon="16.9621801"><ele>145.0</ele><time>2026-03-28T15:01:40.661Z</time></trkpt><trkpt lat="39.2690303" lon="16.9622157"><ele>147.0</ele><time>2026-03-28T15:01:41.649Z</time></trkpt><trkpt lat="39.2691352" lon="16.962271"><ele>149.0</ele><time>2026-03-28T15:01:43.655Z</time></trkpt><trkpt lat="39.2692436" lon="16.9623375"><ele>151.0</ele><time>2026-03-28T15:01:45.65Z</time></trkpt><trkpt lat="39.2693315" lon="16.962388"><ele>153.0</ele><time>2026-03-28T15:01:47.649Z</time></trkpt><trkpt lat="39.2694101" lon="16.9623867"><ele>155.0</ele><time>2026-03-28T15:01:49.651Z</time></trkpt><trkpt lat="39.2694608" lon="16.9622812"><ele>155.0</ele><time>2026-03-28T15:01:51.641Z</time></trkpt><trkpt lat="39.2695211" lon="16.9621635"><ele>155.0</ele><time>2026-03-28T15:01:53.644Z</time></trkpt><trkpt lat="39.2695859" lon="16.9620541"><ele>155.0</ele><time>2026-03-28T15:01:55.644Z</time></trkpt><trkpt lat="39.2696668" lon="16.9619826"><ele>155.0</ele><time>2026-03-28T15:01:57.647Z</time></trkpt><trkpt lat="39.269753" lon="16.9619658"><ele>155.0</ele><time>2026-03-28T15:01:59.65Z</time></trkpt><trkpt lat="39.269818" lon="16.9619697"><ele>158.0</ele><time>2026-03-28T15:02:01.653Z</time></trkpt><trkpt lat="39.269903" lon="16.9620283"><ele>161.0</ele><time>2026-03-28T15:02:04.642Z</time></trkpt><trkpt lat="39.2699321" lon="16.9621533"><ele>164.0</ele><time>2026-03-28T15:02:06.657Z</time></trkpt><trkpt lat="39.2699775" lon="16.9622497"><ele>167.0</ele><time>2026-03-28T15:02:08.641Z</time></trkpt><trkpt lat="39.2700594" lon="16.9623235"><ele>170.0</ele><time>2026-03-28T15:02:10.662Z</time></trkpt><trkpt lat="39.2701674" lon="16.962374"><ele>170.0</ele><time>2026-03-28T15:02:12.654Z</time></trkpt><trkpt lat="39.2702655" lon="16.9624362"><ele>170.0</ele><time>2026-03-28T15:02:14.648Z</time></trkpt><trkpt lat="39.2703324" lon="16.9625259"><ele>170.0</ele><time>2026-03-28T15:02:16.651Z</time></trkpt><trkpt lat="39.2703861" lon="16.9626472"><ele>170.0</ele><time>2026-03-28T15:02:18.648Z</time></trkpt><trkpt lat="39.2704337" lon="16.9627622"><ele>170.0</ele><time>2026-03-28T15:02:20.646Z</time></trkpt><trkpt lat="39.2704101" lon="16.9628695"><ele>170.16666666666666</ele><time>2026-03-28T15:02:22.65Z</time></trkpt><trkpt lat="39.27039" lon="16.9629627"><ele>170.33333333333331</ele><time>2026-03-28T15:02:24.652Z</time></trkpt><trkpt lat="39.2704348" lon="16.9630588"><ele>170.5</ele><time>2026-03-28T15:02:26.654Z</time></trkpt><trkpt lat="39.2704915" lon="16.9631586"><ele>170.66666666666666</ele><time>2026-03-28T15:02:28.651Z</time></trkpt><trkpt lat="39.2705405" lon="16.9632516"><ele>170.83333333333334</ele><time>2026-03-28T15:02:30.642Z</time></trkpt><trkpt lat="39.2705838" lon="16.9633332"><ele>171.0</ele><time>2026-03-28T15:02:32.647Z</time></trkpt><trkpt lat="39.2706343" lon="16.9634186"><ele>175.5</ele><time>2026-03-28T15:02:35.657Z</time></trkpt><trkpt lat="39.2706779" lon="16.9634967"><ele>180.0</ele><time>2026-03-28T15:03:25.656Z</time></trkpt><trkpt lat="39.270713" lon="16.9635645"><ele>184.5</ele><time>2026-03-28T15:03:28.653Z</time></trkpt><trkpt lat="39.2707508" lon="16.9636373"><ele>189.0</ele><time>2026-03-28T15:03:31.647Z</time></trkpt><trkpt lat="39.2707799" lon="16.963711"><ele>193.5</ele><time>2026-03-28T15:03:33.654Z</time></trkpt><trkpt lat="39.2707805" lon="16.9638179"><ele>198.0</ele><time>2026-03-28T15:03:35.654Z</time></trkpt><trkpt lat="39.2707567" lon="16.9639432"><ele>198.0</ele><time>2026-03-28T15:03:37.654Z</time></trkpt><trkpt lat="39.2707658" lon="16.964059"><ele>198.0</ele><time>2026-03-28T15:03:39.655Z</time></trkpt><trkpt lat="39.2707624" lon="16.9641812"><ele>198.0</ele><time>2026-03-28T15:03:41.652Z</time></trkpt><trkpt lat="39.2707729" lon="16.9642925"><ele>198.0</ele><time>2026-03-28T15:03:43.65Z</time></trkpt><trkpt lat="39.2707999" lon="16.9643992"><ele>198.0</ele><time>2026-03-28T15:03:45.649Z</time></trkpt><trkpt lat="39.2708613" lon="16.964506"><ele>197.8</ele><time>2026-03-28T15:03:47.651Z</time></trkpt><trkpt lat="39.2709228" lon="16.9645963"><ele>197.60000000000002</ele><time>2026-03-28T15:03:49.648Z</time></trkpt><trkpt lat="39.2709781" lon="16.9646834"><ele>197.39999999999998</ele><time>2026-03-28T15:03:51.651Z</time></trkpt><trkpt lat="39.2710269" lon="16.9647636"><ele>197.2</ele><time>2026-03-28T15:03:53.656Z</time></trkpt><trkpt lat="39.2710761" lon="16.9648683"><ele>197.0</ele><time>2026-03-28T15:03:55.654Z</time></trkpt><trkpt lat="39.271116" lon="16.9650032"><ele>197.33333333333334</ele><time>2026-03-28T15:03:57.65Z</time></trkpt><trkpt lat="39.2711348" lon="16.9651192"><ele>197.66666666666669</ele><time>2026-03-28T15:03:59.651Z</time></trkpt><trkpt lat="39.2711555" lon="16.9651978"><ele>198.0</ele><time>2026-03-28T15:04:01.657Z</time></trkpt><trkpt lat="39.2712025" lon="16.9652627"><ele>198.33333333333331</ele><time>2026-03-28T15:04:15.659Z</time></trkpt><trkpt lat="39.2712721" lon="16.9653435"><ele>198.66666666666666</ele><time>2026-03-28T15:04:18.654Z</time></trkpt><trkpt lat="39.2713421" lon="16.9654015"><ele>199.0</ele><time>2026-03-28T15:04:21.649Z</time></trkpt><trkpt lat="39.2713892" lon="16.9654698"><ele>198.99999999999997</ele><time>2026-03-28T15:04:24.649Z</time></trkpt><trkpt lat="39.2714161" lon="16.965568"><ele>199.0</ele><time>2026-03-28T15:04:28.699Z</time></trkpt><trkpt lat="39.2714401" lon="16.965676"><ele>199.0</ele><time>2026-03-28T15:04:30.65Z</time></trkpt><trkpt lat="39.2714497" lon="16.9657628"><ele>199.0</ele><time>2026-03-28T15:04:36.664Z</time></trkpt><trkpt lat="39.2714524" lon="16.9658835"><ele>198.99999999999997</ele><time>2026-03-28T15:04:39.649Z</time></trkpt><trkpt lat="39.2714882" lon="16.9659578"><ele>199.0</ele><time>2026-03-28T15:04:41.653Z</time></trkpt><trkpt lat="39.2715789" lon="16.965931"><ele>203.33333333333331</ele><time>2026-03-28T15:04:44.656Z</time></trkpt><trkpt lat="39.271617" lon="16.9658245"><ele>207.66666666666666</ele><time>2026-03-28T15:04:46.653Z</time></trkpt><trkpt lat="39.2716537" lon="16.9657328"><ele>212.0</ele><time>2026-03-28T15:04:48.65Z</time></trkpt><trkpt lat="39.2717342" lon="16.9656618"><ele>216.33333333333331</ele><time>2026-03-28T15:04:51.647Z</time></trkpt><trkpt lat="39.2717932" lon="16.9656071"><ele>220.66666666666666</ele><time>2026-03-28T15:04:53.648Z</time></trkpt><trkpt lat="39.2718468" lon="16.965542"><ele>225.0</ele><time>2026-03-28T15:04:55.651Z</time></trkpt><trkpt lat="39.2719085" lon="16.9654773"><ele>225.0</ele><time>2026-03-28T15:04:57.65Z</time></trkpt><trkpt lat="39.271992" lon="16.9654197"><ele>225.0</ele><time>2026-03-28T15:04:59.653Z</time></trkpt><trkpt lat="39.2720805" lon="16.9653775"><ele>225.0</ele><time>2026-03-28T15:05:01.654Z</time></trkpt><trkpt lat="39.272147" lon="16.9653138"><ele>225.0</ele><time>2026-03-28T15:05:03.658Z</time></trkpt><trkpt lat="39.2722012" lon="16.9652423"><ele>225.0</ele><time>2026-03-28T15:05:05.647Z</time></trkpt><trkpt lat="39.2722647" lon="16.9651725"><ele>225.0</ele><time>2026-03-28T15:05:07.651Z</time></trkpt><trkpt lat="39.2723353" lon="16.9650917"><ele>228.28571428571433</ele><time>2026-03-28T15:05:09.651Z</time></trkpt><trkpt lat="39.2723883" lon="16.9650158"><ele>231.57142857142858</ele><time>2026-03-28T15:05:11.65Z</time></trkpt><trkpt lat="39.2724282" lon="16.9649511"><ele>234.8571428571429</ele><time>2026-03-28T15:05:13.648Z</time></trkpt><trkpt lat="39.272462" lon="16.9648661"><ele>238.14285714285717</ele><time>2026-03-28T15:05:15.649Z</time></trkpt><trkpt lat="39.2724835" lon="16.9647753"><ele>241.42857142857144</ele><time>2026-03-28T15:05:17.648Z</time></trkpt><trkpt lat="39.2725123" lon="16.9646604"><ele>244.71428571428572</ele><time>2026-03-28T15:05:20.652Z</time></trkpt><trkpt lat="39.272556" lon="16.9645992"><ele>248.0</ele><time>2026-03-28T15:05:22.651Z</time></trkpt><trkpt lat="39.2726066" lon="16.964543"><ele>248.00000000000003</ele><time>2026-03-28T15:05:24.654Z</time></trkpt><trkpt lat="39.2726765" lon="16.9644584"><ele>248.0</ele><time>2026-03-28T15:05:27.65Z</time></trkpt><trkpt lat="39.2727491" lon="16.964382"><ele>248.0</ele><time>2026-03-28T15:05:30.652Z</time></trkpt><trkpt lat="39.2728236" lon="16.9643634"><ele>248.0</ele><time>2026-03-28T15:05:33.654Z</time></trkpt><trkpt lat="39.2728873" lon="16.9643632"><ele>248.00000000000003</ele><time>2026-03-28T15:05:35.651Z</time></trkpt><trkpt lat="39.272952" lon="16.9643719"><ele>248.0</ele><time>2026-03-28T15:05:37.647Z</time></trkpt><trkpt lat="39.2730289" lon="16.9643718"><ele>248.00000000000003</ele><time>2026-03-28T15:05:39.649Z</time></trkpt><trkpt lat="39.2730986" lon="16.9643567"><ele>248.0</ele><time>2026-03-28T15:05:41.651Z</time></trkpt><trkpt lat="39.2731862" lon="16.9643268"><ele>248.0</ele><time>2026-03-28T15:05:43.645Z</time></trkpt><trkpt lat="39.2732768" lon="16.9642841"><ele>248.0</ele><time>2026-03-28T15:05:45.647Z</time></trkpt><trkpt lat="39.2733532" lon="16.9642598"><ele>248.00000000000003</ele><time>2026-03-28T15:05:47.648Z</time></trkpt><trkpt lat="39.2734129" lon="16.9642299"><ele>248.0</ele><time>2026-03-28T15:05:49.65Z</time></trkpt><trkpt lat="39.2734917" lon="16.964185"><ele>250.57142857142858</ele><time>2026-03-28T15:05:52.652Z</time></trkpt><trkpt lat="39.2735518" lon="16.9641492"><ele>253.14285714285717</ele><time>2026-03-28T15:05:54.651Z</time></trkpt><trkpt lat="39.2736217" lon="16.9641099"><ele>255.71428571428572</ele><time>2026-03-28T15:05:56.65Z</time></trkpt><trkpt lat="39.2736991" lon="16.9640634"><ele>258.2857142857143</ele><time>2026-03-28T15:05:58.65Z</time></trkpt><trkpt lat="39.2737591" lon="16.9640336"><ele>260.8571428571429</ele><time>2026-03-28T15:06:00.65Z</time></trkpt><trkpt lat="39.273828" lon="16.9639559"><ele>263.42857142857144</ele><time>2026-03-28T15:06:03.643Z</time></trkpt><trkpt lat="39.273878" lon="16.9639025"><ele>266.0</ele><time>2026-03-28T15:06:05.649Z</time></trkpt><trkpt lat="39.2739391" lon="16.9638575"><ele>268.6666666666667</ele><time>2026-03-28T15:06:07.647Z</time></trkpt><trkpt lat="39.274005" lon="16.9638193"><ele>271.33333333333337</ele><time>2026-03-28T15:06:09.649Z</time></trkpt><trkpt lat="39.2740888" lon="16.9637917"><ele>274.0</ele><time>2026-03-28T15:06:12.656Z</time></trkpt><trkpt lat="39.2741571" lon="16.9637842"><ele>276.6666666666667</ele><time>2026-03-28T15:06:16.647Z</time></trkpt><trkpt lat="39.2742265" lon="16.963802"><ele>279.3333333333333</ele><time>2026-03-28T15:06:45.65Z</time></trkpt><trkpt lat="39.274314" lon="16.9638462"><ele>282.0</ele><time>2026-03-28T15:06:47.652Z</time></trkpt><trkpt lat="39.2744169" lon="16.9639186"><ele>282.0</ele><time>2026-03-28T15:06:49.653Z</time></trkpt><trkpt lat="39.274471" lon="16.9639606"><ele>282.0</ele><time>2026-03-28T15:06:50.649Z</time></trkpt><trkpt lat="39.2745302" lon="16.9640483"><ele>282.0</ele><time>2026-03-28T15:06:52.654Z</time></trkpt><trkpt lat="39.2745491" lon="16.964147"><ele>282.0</ele><time>2026-03-28T15:06:54.646Z</time></trkpt><trkpt lat="39.2745606" lon="16.9642437"><ele>282.0</ele><time>2026-03-28T15:06:56.649Z</time></trkpt><trkpt lat="39.2745752" lon="16.9643483"><ele>282.0</ele><time>2026-03-28T15:06:58.653Z</time></trkpt><trkpt lat="39.2745981" lon="16.9644682"><ele>281.8333333333333</ele><time>2026-03-28T15:07:00.655Z</time></trkpt><trkpt lat="39.2746305" lon="16.9645529"><ele>281.6666666666667</ele><time>2026-03-28T15:07:02.656Z</time></trkpt><trkpt lat="39.2747096" lon="16.9645758"><ele>281.5</ele><time>2026-03-28T15:07:09.653Z</time></trkpt><trkpt lat="39.2747855" lon="16.9645626"><ele>281.33333333333337</ele><time>2026-03-28T15:07:12.653Z</time></trkpt><trkpt lat="39.2748578" lon="16.9645578"><ele>281.1666666666667</ele><time>2026-03-28T15:07:14.649Z</time></trkpt><trkpt lat="39.2749465" lon="16.9645671"><ele>281.0</ele><time>2026-03-28T15:07:16.649Z</time></trkpt><trkpt lat="39.2750333" lon="16.9646291"><ele>282.0</ele><time>2026-03-28T15:07:18.648Z</time></trkpt><trkpt lat="39.2751229" lon="16.9646639"><ele>283.0</ele><time>2026-03-28T15:07:20.648Z</time></trkpt><trkpt lat="39.2752413" lon="16.9646442"><ele>284.0</ele><time>2026-03-28T15:07:22.646Z</time></trkpt><trkpt lat="39.275308" lon="16.9646458"><ele>285.0</ele><time>2026-03-28T15:07:23.652Z</time></trkpt><trkpt lat="39.2753753" lon="16.9646596"><ele>286.0</ele><time>2026-03-28T15:07:24.662Z</time></trkpt><trkpt lat="39.2754439" lon="16.9646798"><ele>287.0</ele><time>2026-03-28T15:07:25.645Z</time></trkpt><trkpt lat="39.2755155" lon="16.9646963"><ele>287.0</ele><time>2026-03-28T15:07:26.653Z</time></trkpt><trkpt lat="39.2755914" lon="16.9647083"><ele>287.0</ele><time>2026-03-28T15:07:27.647Z</time></trkpt><trkpt lat="39.2756601" lon="16.9647101"><ele>287.0</ele><time>2026-03-28T15:07:28.646Z</time></trkpt><trkpt lat="39.2757787" lon="16.9646864"><ele>287.0</ele><time>2026-03-28T15:07:30.65Z</time></trkpt><trkpt lat="39.275896" lon="16.964636"><ele>287.0</ele><time>2026-03-28T15:07:32.65Z</time></trkpt><trkpt lat="39.2760014" lon="16.9645726"><ele>288.6</ele><time>2026-03-28T15:07:34.649Z</time></trkpt><trkpt lat="39.2761047" lon="16.9645005"><ele>290.2</ele><time>2026-03-28T15:07:36.649Z</time></trkpt><trkpt lat="39.2762102" lon="16.9644104"><ele>291.8</ele><time>2026-03-28T15:07:38.647Z</time></trkpt><trkpt lat="39.2762601" lon="16.9643518"><ele>293.4</ele><time>2026-03-28T15:07:39.649Z</time></trkpt><trkpt lat="39.2763041" lon="16.9642901"><ele>295.0</ele><time>2026-03-28T15:07:40.647Z</time></trkpt><trkpt lat="39.2763596" lon="16.9641862"><ele>295.0</ele><time>2026-03-28T15:07:42.655Z</time></trkpt><trkpt lat="39.276393" lon="16.9641016"><ele>295.0</ele><time>2026-03-28T15:07:44.645Z</time></trkpt><trkpt lat="39.2764133" lon="16.9640054"><ele>295.0</ele><time>2026-03-28T15:07:46.655Z</time></trkpt><trkpt lat="39.2764282" lon="16.9638943"><ele>295.0</ele><time>2026-03-28T15:07:48.654Z</time></trkpt><trkpt lat="39.2764524" lon="16.9637808"><ele>295.0</ele><time>2026-03-28T15:07:50.647Z</time></trkpt><trkpt lat="39.2764907" lon="16.9636964"><ele>295.0</ele><time>2026-03-28T15:07:52.657Z</time></trkpt><trkpt lat="39.2765333" lon="16.9636232"><ele>299.0</ele><time>2026-03-28T15:07:54.656Z</time></trkpt><trkpt lat="39.2765788" lon="16.9635481"><ele>303.0</ele><time>2026-03-28T15:07:58.648Z</time></trkpt><trkpt lat="39.2766231" lon="16.96346"><ele>307.0</ele><time>2026-03-28T15:08:01.654Z</time></trkpt><trkpt lat="39.2766584" lon="16.9633847"><ele>311.0</ele><time>2026-03-28T15:08:03.648Z</time></trkpt><trkpt lat="39.2766877" lon="16.9633038"><ele>315.0</ele><time>2026-03-28T15:08:05.645Z</time></trkpt><trkpt lat="39.2767237" lon="16.9632222"><ele>319.0</ele><time>2026-03-28T15:08:07.648Z</time></trkpt><trkpt lat="39.2767787" lon="16.9631355"><ele>319.0</ele><time>2026-03-28T15:08:09.648Z</time></trkpt><trkpt lat="39.2768487" lon="16.9630217"><ele>319.0</ele><time>2026-03-28T15:08:11.655Z</time></trkpt><trkpt lat="39.2768875" lon="16.9629541"><ele>319.0</ele><time>2026-03-28T15:08:12.654Z</time></trkpt><trkpt lat="39.2769527" lon="16.9628567"><ele>319.0</ele><time>2026-03-28T15:08:14.65Z</time></trkpt><trkpt lat="39.2770109" lon="16.9627984"><ele>319.0</ele><time>2026-03-28T15:08:16.649Z</time></trkpt><trkpt lat="39.277074" lon="16.9627148"><ele>319.0</ele><time>2026-03-28T15:08:28.656Z</time></trkpt><trkpt lat="39.277124" lon="16.9626566"><ele>319.0</ele><time>2026-03-28T15:08:30.654Z</time></trkpt><trkpt lat="39.2771899" lon="16.9625897"><ele>319.0</ele><time>2026-03-28T15:08:32.662Z</time></trkpt><trkpt lat="39.2772426" lon="16.9625389"><ele>319.0</ele><time>2026-03-28T15:08:35.65Z</time></trkpt><trkpt lat="39.2773087" lon="16.9624816"><ele>319.0</ele><time>2026-03-28T15:08:47.663Z</time></trkpt><trkpt lat="39.2773727" lon="16.9624207"><ele>319.0</ele><time>2026-03-28T15:08:49.647Z</time></trkpt><trkpt lat="39.2774319" lon="16.9623597"><ele>319.0</ele><time>2026-03-28T15:08:51.654Z</time></trkpt><trkpt lat="39.2775181" lon="16.962297"><ele>322.3333333333333</ele><time>2026-03-28T15:08:53.651Z</time></trkpt><trkpt lat="39.2776098" lon="16.9622075"><ele>325.66666666666663</ele><time>2026-03-28T15:08:55.645Z</time></trkpt><trkpt lat="39.2777099" lon="16.9621068"><ele>329.0</ele><time>2026-03-28T15:08:57.649Z</time></trkpt><trkpt lat="39.2777675" lon="16.9620501"><ele>332.3333333333333</ele><time>2026-03-28T15:08:58.659Z</time></trkpt><trkpt lat="39.277827" lon="16.9620061"><ele>335.6666666666667</ele><time>2026-03-28T15:08:59.656Z</time></trkpt><trkpt lat="39.2778839" lon="16.9619641"><ele>339.0</ele><time>2026-03-28T15:09:00.651Z</time></trkpt><trkpt lat="39.2779852" lon="16.9618959"><ele>339.0</ele><time>2026-03-28T15:09:02.645Z</time></trkpt><trkpt lat="39.2780966" lon="16.9618633"><ele>339.0</ele><time>2026-03-28T15:09:04.646Z</time></trkpt><trkpt lat="39.2781606" lon="16.9618532"><ele>339.0</ele><time>2026-03-28T15:09:05.653Z</time></trkpt><trkpt lat="39.2782295" lon="16.9618445"><ele>339.0</ele><time>2026-03-28T15:09:06.656Z</time></trkpt><trkpt lat="39.278313" lon="16.9618369"><ele>339.0</ele><time>2026-03-28T15:09:07.65Z</time></trkpt><trkpt lat="39.2784134" lon="16.9618202"><ele>339.0</ele><time>2026-03-28T15:09:08.651Z</time></trkpt><trkpt lat="39.2785124" lon="16.9618033"><ele>340.6666666666667</ele><time>2026-03-28T15:09:09.653Z</time></trkpt><trkpt lat="39.2786005" lon="16.9617792"><ele>342.3333333333333</ele><time>2026-03-28T15:09:10.654Z</time></trkpt><trkpt lat="39.2786803" lon="16.9617455"><ele>344.0</ele><time>2026-03-28T15:09:11.651Z</time></trkpt><trkpt lat="39.2787521" lon="16.9617052"><ele>345.66666666666663</ele><time>2026-03-28T15:09:12.654Z</time></trkpt><trkpt lat="39.2788074" lon="16.9616594"><ele>347.3333333333333</ele><time>2026-03-28T15:09:13.65Z</time></trkpt><trkpt lat="39.2788843" lon="16.9616133"><ele>349.0</ele><time>2026-03-28T15:09:15.655Z</time></trkpt><trkpt lat="39.278949" lon="16.9615641"><ele>351.4</ele><time>2026-03-28T15:09:17.648Z</time></trkpt><trkpt lat="39.2789955" lon="16.9615003"><ele>353.79999999999995</ele><time>2026-03-28T15:09:19.65Z</time></trkpt><trkpt lat="39.2790597" lon="16.9614109"><ele>356.20000000000005</ele><time>2026-03-28T15:09:21.651Z</time></trkpt><trkpt lat="39.2791405" lon="16.9613221"><ele>358.6</ele><time>2026-03-28T15:09:23.65Z</time></trkpt><trkpt lat="39.2792228" lon="16.9612292"><ele>361.0</ele><time>2026-03-28T15:09:25.652Z</time></trkpt><trkpt lat="39.2793077" lon="16.9611482"><ele>361.0</ele><time>2026-03-28T15:09:27.65Z</time></trkpt><trkpt lat="39.279404" lon="16.9610496"><ele>361.0</ele><time>2026-03-28T15:09:29.655Z</time></trkpt><trkpt lat="39.2794375" lon="16.9609806"><ele>361.0</ele><time>2026-03-28T15:09:30.655Z</time></trkpt><trkpt lat="39.279446" lon="16.9608957"><ele>361.0</ele><time>2026-03-28T15:09:31.654Z</time></trkpt><trkpt lat="39.2794417" lon="16.9608016"><ele>361.0</ele><time>2026-03-28T15:09:32.651Z</time></trkpt><trkpt lat="39.2794189" lon="16.9607047"><ele>361.0</ele><time>2026-03-28T15:09:33.649Z</time></trkpt><trkpt lat="39.2793718" lon="16.960614"><ele>360.8333333333333</ele><time>2026-03-28T15:09:34.642Z</time></trkpt><trkpt lat="39.2793169" lon="16.9605297"><ele>360.66666666666663</ele><time>2026-03-28T15:09:35.654Z</time></trkpt><trkpt lat="39.2792638" lon="16.9604477"><ele>360.5</ele><time>2026-03-28T15:09:36.655Z</time></trkpt><trkpt lat="39.2792206" lon="16.9603703"><ele>360.3333333333333</ele><time>2026-03-28T15:09:37.655Z</time></trkpt><trkpt lat="39.2791875" lon="16.9602961"><ele>360.1666666666667</ele><time>2026-03-28T15:09:38.657Z</time></trkpt><trkpt lat="39.2791463" lon="16.9601867"><ele>360.0</ele><time>2026-03-28T15:09:40.65Z</time></trkpt><trkpt lat="39.2791212" lon="16.9601043"><ele>360.3333333333333</ele><time>2026-03-28T15:09:43.652Z</time></trkpt><trkpt lat="39.2791046" lon="16.960015"><ele>360.6666666666667</ele><time>2026-03-28T15:10:09.658Z</time></trkpt><trkpt lat="39.2790839" lon="16.95991"><ele>361.0</ele><time>2026-03-28T15:10:34.657Z</time></trkpt><trkpt lat="39.2790714" lon="16.9598036"><ele>361.33333333333337</ele><time>2026-03-28T15:10:37.664Z</time></trkpt><trkpt lat="39.2790661" lon="16.9597077"><ele>361.6666666666667</ele><time>2026-03-28T15:10:39.648Z</time></trkpt><trkpt lat="39.2790727" lon="16.9596125"><ele>362.0</ele><time>2026-03-28T15:10:41.645Z</time></trkpt><trkpt lat="39.279118" lon="16.95954"><ele>362.0</ele><time>2026-03-28T15:10:43.647Z</time></trkpt><trkpt lat="39.2791936" lon="16.9595027"><ele>362.0</ele><time>2026-03-28T15:10:45.646Z</time></trkpt><trkpt lat="39.2792582" lon="16.9594781"><ele>362.0</ele><time>2026-03-28T15:10:47.643Z</time></trkpt><trkpt lat="39.2793367" lon="16.9594574"><ele>362.0</ele><time>2026-03-28T15:10:50.658Z</time></trkpt><trkpt lat="39.2794229" lon="16.9594435"><ele>362.0</ele><time>2026-03-28T15:10:52.658Z</time></trkpt><trkpt lat="39.2794894" lon="16.9594292"><ele>362.0</ele><time>2026-03-28T15:10:53.657Z</time></trkpt><trkpt lat="39.2796029" lon="16.9593778"><ele>362.0</ele><time>2026-03-28T15:10:55.653Z</time></trkpt><trkpt lat="39.2796796" lon="16.9593059"><ele>362.0</ele><time>2026-03-28T15:10:56.654Z</time></trkpt><trkpt lat="39.2797511" lon="16.9592277"><ele>362.0</ele><time>2026-03-28T15:10:57.649Z</time></trkpt><trkpt lat="39.2798216" lon="16.959162"><ele>362.0</ele><time>2026-03-28T15:10:58.649Z</time></trkpt><trkpt lat="39.2798942" lon="16.9590843"><ele>362.0</ele><time>2026-03-28T15:11:00.651Z</time></trkpt><trkpt lat="39.2799515" lon="16.9590171"><ele>362.0</ele><time>2026-03-28T15:11:02.66Z</time></trkpt><trkpt lat="39.28002" lon="16.9589371"><ele>363.33333333333337</ele><time>2026-03-28T15:11:05.657Z</time></trkpt><trkpt lat="39.2800729" lon="16.9588821"><ele>364.6666666666667</ele><time>2026-03-28T15:11:07.65Z</time></trkpt><trkpt lat="39.280141" lon="16.9588057"><ele>366.0</ele><time>2026-03-28T15:11:09.65Z</time></trkpt><trkpt lat="39.2802166" lon="16.9587058"><ele>367.3333333333333</ele><time>2026-03-28T15:11:11.649Z</time></trkpt><trkpt lat="39.2802818" lon="16.9586213"><ele>368.66666666666663</ele><time>2026-03-28T15:11:13.655Z</time></trkpt><trkpt lat="39.2803391" lon="16.9585637"><ele>370.0</ele><time>2026-03-28T15:11:15.646Z</time></trkpt><trkpt lat="39.2804128" lon="16.9585469"><ele>369.99999999999994</ele><time>2026-03-28T15:11:17.654Z</time></trkpt><trkpt lat="39.2804974" lon="16.9585594"><ele>370.0</ele><time>2026-03-28T15:11:19.656Z</time></trkpt><trkpt lat="39.2805677" lon="16.9585845"><ele>370.0</ele><time>2026-03-28T15:11:21.651Z</time></trkpt><trkpt lat="39.2806512" lon="16.9586283"><ele>370.0</ele><time>2026-03-28T15:11:24.651Z</time></trkpt><trkpt lat="39.2807088" lon="16.9586627"><ele>370.0</ele><time>2026-03-28T15:11:26.651Z</time></trkpt><trkpt lat="39.2807698" lon="16.9586918"><ele>369.99999999999994</ele><time>2026-03-28T15:11:28.649Z</time></trkpt><trkpt lat="39.2808354" lon="16.9587095"><ele>370.0</ele><time>2026-03-28T15:11:31.659Z</time></trkpt><trkpt lat="39.2809033" lon="16.9587035"><ele>370.66666666666663</ele><time>2026-03-28T15:11:34.658Z</time></trkpt><trkpt lat="39.2809712" lon="16.9586783"><ele>371.3333333333333</ele><time>2026-03-28T15:11:37.654Z</time></trkpt><trkpt lat="39.2810408" lon="16.9586501"><ele>372.0</ele><time>2026-03-28T15:12:04.657Z</time></trkpt><trkpt lat="39.2811308" lon="16.9586331"><ele>372.6666666666667</ele><time>2026-03-28T15:12:07.654Z</time></trkpt><trkpt lat="39.2812097" lon="16.9586127"><ele>373.33333333333337</ele><time>2026-03-28T15:12:09.653Z</time></trkpt><trkpt lat="39.2812795" lon="16.9585947"><ele>374.0</ele><time>2026-03-28T15:12:11.654Z</time></trkpt><trkpt lat="39.2813696" lon="16.9585695"><ele>373.5</ele><time>2026-03-28T15:12:15.654Z</time></trkpt><trkpt lat="39.281436" lon="16.9585426"><ele>373.0</ele><time>2026-03-28T15:12:17.65Z</time></trkpt><trkpt lat="39.2815041" lon="16.9585083"><ele>372.5</ele><time>2026-03-28T15:12:19.653Z</time></trkpt><trkpt lat="39.2815873" lon="16.9584693"><ele>372.0</ele><time>2026-03-28T15:12:21.648Z</time></trkpt><trkpt lat="39.2816815" lon="16.9584175"><ele>371.5</ele><time>2026-03-28T15:12:23.646Z</time></trkpt><trkpt lat="39.2817842" lon="16.9583601"><ele>371.0</ele><time>2026-03-28T15:12:25.653Z</time></trkpt><trkpt lat="39.2818692" lon="16.9583345"><ele>370.33333333333337</ele><time>2026-03-28T15:12:27.651Z</time></trkpt><trkpt lat="39.2819597" lon="16.9583082"><ele>369.6666666666667</ele><time>2026-03-28T15:12:30.652Z</time></trkpt><trkpt lat="39.282046" lon="16.9582764"><ele>369.0</ele><time>2026-03-28T15:12:33.65Z</time></trkpt><trkpt lat="39.2821132" lon="16.9582568"><ele>368.3333333333333</ele><time>2026-03-28T15:12:35.664Z</time></trkpt><trkpt lat="39.282184" lon="16.9582427"><ele>367.66666666666663</ele><time>2026-03-28T15:12:37.652Z</time></trkpt><trkpt lat="39.282254" lon="16.9582409"><ele>367.0</ele><time>2026-03-28T15:12:39.645Z</time></trkpt><trkpt lat="39.28232" lon="16.9582601"><ele>364.66666666666663</ele><time>2026-03-28T15:12:41.65Z</time></trkpt><trkpt lat="39.2823964" lon="16.9582751"><ele>362.3333333333333</ele><time>2026-03-28T15:12:43.651Z</time></trkpt><trkpt lat="39.2824822" lon="16.9582917"><ele>360.0</ele><time>2026-03-28T15:12:45.651Z</time></trkpt><trkpt lat="39.2825752" lon="16.9583099"><ele>357.6666666666667</ele><time>2026-03-28T15:12:47.655Z</time></trkpt><trkpt lat="39.2826615" lon="16.9583204"><ele>355.33333333333337</ele><time>2026-03-28T15:12:49.655Z</time></trkpt><trkpt lat="39.2827397" lon="16.9583295"><ele>353.0</ele><time>2026-03-28T15:12:51.647Z</time></trkpt><trkpt lat="39.2828111" lon="16.9583398"><ele>353.0</ele><time>2026-03-28T15:12:53.647Z</time></trkpt><trkpt lat="39.2828801" lon="16.9583552"><ele>353.0</ele><time>2026-03-28T15:12:55.645Z</time></trkpt><trkpt lat="39.2829425" lon="16.9583755"><ele>353.0</ele><time>2026-03-28T15:12:57.656Z</time></trkpt><trkpt lat="39.2830123" lon="16.9583948"><ele>353.0</ele><time>2026-03-28T15:13:00.655Z</time></trkpt><trkpt lat="39.2830827" lon="16.9583899"><ele>353.0</ele><time>2026-03-28T15:13:03.647Z</time></trkpt><trkpt lat="39.2831428" lon="16.9583636"><ele>353.0</ele><time>2026-03-28T15:13:06.654Z</time></trkpt><trkpt lat="39.2832118" lon="16.9583311"><ele>353.0</ele><time>2026-03-28T15:13:09.641Z</time></trkpt><trkpt lat="39.2832832" lon="16.9583143"><ele>349.6666666666667</ele><time>2026-03-28T15:13:18.661Z</time></trkpt><trkpt lat="39.2833472" lon="16.9583361"><ele>346.33333333333337</ele><time>2026-03-28T15:13:23.643Z</time></trkpt><trkpt lat="39.283413" lon="16.9583788"><ele>343.0</ele><time>2026-03-28T15:13:27.643Z</time></trkpt><trkpt lat="39.2834893" lon="16.9584183"><ele>339.6666666666667</ele><time>2026-03-28T15:13:30.647Z</time></trkpt><trkpt lat="39.2835587" lon="16.9584283"><ele>336.3333333333333</ele><time>2026-03-28T15:13:33.649Z</time></trkpt><trkpt lat="39.283642" lon="16.9583985"><ele>333.0</ele><time>2026-03-28T15:13:35.653Z</time></trkpt><trkpt lat="39.2837402" lon="16.9583525"><ele>333.0</ele><time>2026-03-28T15:13:37.649Z</time></trkpt><trkpt lat="39.2838185" lon="16.9583183"><ele>333.0</ele><time>2026-03-28T15:13:39.647Z</time></trkpt><trkpt lat="39.2839044" lon="16.9582884"><ele>333.0</ele><time>2026-03-28T15:13:42.656Z</time></trkpt><trkpt lat="39.2839855" lon="16.9582719"><ele>333.0</ele><time>2026-03-28T15:13:57.655Z</time></trkpt><trkpt lat="39.2840521" lon="16.9582725"><ele>333.0</ele><time>2026-03-28T15:14:02.657Z</time></trkpt><trkpt lat="39.2841249" lon="16.9582812"><ele>333.0</ele><time>2026-03-28T15:14:08.654Z</time></trkpt><trkpt lat="39.2842113" lon="16.9582861"><ele>332.5</ele><time>2026-03-28T15:14:12.659Z</time></trkpt><trkpt lat="39.2842861" lon="16.9582802"><ele>332.0</ele><time>2026-03-28T15:14:15.66Z</time></trkpt><trkpt lat="39.2843486" lon="16.9582591"><ele>331.5</ele><time>2026-03-28T15:14:18.644Z</time></trkpt><trkpt lat="39.2844387" lon="16.9582074"><ele>331.0</ele><time>2026-03-28T15:14:21.653Z</time></trkpt><trkpt lat="39.2845069" lon="16.9581564"><ele>330.5</ele><time>2026-03-28T15:14:23.652Z</time></trkpt><trkpt lat="39.2845767" lon="16.9581034"><ele>330.0</ele><time>2026-03-28T15:14:25.645Z</time></trkpt><trkpt lat="39.2846501" lon="16.9580577"><ele>330.0</ele><time>2026-03-28T15:14:27.646Z</time></trkpt><trkpt lat="39.2847487" lon="16.958026"><ele>330.0</ele><time>2026-03-28T15:14:29.652Z</time></trkpt><trkpt lat="39.2848396" lon="16.9580022"><ele>330.0</ele><time>2026-03-28T15:14:31.661Z</time></trkpt><trkpt lat="39.2849178" lon="16.95798"><ele>330.0</ele><time>2026-03-28T15:14:33.646Z</time></trkpt><trkpt lat="39.2849819" lon="16.9579709"><ele>330.0</ele><time>2026-03-28T15:14:35.653Z</time></trkpt><trkpt lat="39.2850563" lon="16.9579561"><ele>330.0</ele><time>2026-03-28T15:14:38.648Z</time></trkpt><trkpt lat="39.2851184" lon="16.9579179"><ele>329.1666666666667</ele><time>2026-03-28T15:14:47.657Z</time></trkpt><trkpt lat="39.2852003" lon="16.957847"><ele>328.3333333333333</ele><time>2026-03-28T15:14:50.655Z</time></trkpt><trkpt lat="39.2852504" lon="16.9577917"><ele>327.5</ele><time>2026-03-28T15:14:52.647Z</time></trkpt><trkpt lat="39.285306" lon="16.9577285"><ele>326.66666666666663</ele><time>2026-03-28T15:14:55.651Z</time></trkpt><trkpt lat="39.285366" lon="16.9576632"><ele>325.8333333333333</ele><time>2026-03-28T15:14:58.648Z</time></trkpt><trkpt lat="39.2854198" lon="16.9575964"><ele>325.0</ele><time>2026-03-28T15:15:01.651Z</time></trkpt><trkpt lat="39.2854751" lon="16.9575315"><ele>325.0</ele><time>2026-03-28T15:15:04.652Z</time></trkpt><trkpt lat="39.285536" lon="16.9574643"><ele>325.0</ele><time>2026-03-28T15:15:07.65Z</time></trkpt><trkpt lat="39.2856086" lon="16.9573948"><ele>325.0</ele><time>2026-03-28T15:15:10.654Z</time></trkpt><trkpt lat="39.285689" lon="16.9573313"><ele>325.0</ele><time>2026-03-28T15:15:13.65Z</time></trkpt><trkpt lat="39.2857506" lon="16.9572952"><ele>325.0</ele><time>2026-03-28T15:15:15.647Z</time></trkpt><trkpt lat="39.2858218" lon="16.957256"><ele>325.0</ele><time>2026-03-28T15:15:17.646Z</time></trkpt><trkpt lat="39.2859116" lon="16.9572115"><ele>325.16666666666663</ele><time>2026-03-28T15:15:19.656Z</time></trkpt><trkpt lat="39.28597" lon="16.9571776"><ele>325.3333333333333</ele><time>2026-03-28T15:15:20.644Z</time></trkpt><trkpt lat="39.2860325" lon="16.9571209"><ele>325.5</ele><time>2026-03-28T15:15:21.649Z</time></trkpt><trkpt lat="39.2860733" lon="16.9570524"><ele>325.6666666666667</ele><time>2026-03-28T15:15:22.655Z</time></trkpt><trkpt lat="39.2861057" lon="16.9569405"><ele>325.83333333333337</ele><time>2026-03-28T15:15:24.658Z</time></trkpt><trkpt lat="39.2861316" lon="16.9568263"><ele>326.0</ele><time>2026-03-28T15:15:26.658Z</time></trkpt><trkpt lat="39.2861666" lon="16.9566692"><ele>327.6</ele><time>2026-03-28T15:15:28.642Z</time></trkpt><trkpt lat="39.2861925" lon="16.9565862"><ele>329.20000000000005</ele><time>2026-03-28T15:15:29.647Z</time></trkpt><trkpt lat="39.2862219" lon="16.9565071"><ele>330.79999999999995</ele><time>2026-03-28T15:15:30.648Z</time></trkpt><trkpt lat="39.286258" lon="16.9564355"><ele>332.4</ele><time>2026-03-28T15:15:31.645Z</time></trkpt><trkpt lat="39.2863477" lon="16.9563381"><ele>334.0</ele><time>2026-03-28T15:15:33.646Z</time></trkpt><trkpt lat="39.286475" lon="16.9562714"><ele>334.3333333333333</ele><time>2026-03-28T15:15:35.651Z</time></trkpt><trkpt lat="39.286545" lon="16.9562527"><ele>334.66666666666663</ele><time>2026-03-28T15:15:36.646Z</time></trkpt><trkpt lat="39.286623" lon="16.9562352"><ele>335.0</ele><time>2026-03-28T15:15:37.651Z</time></trkpt><trkpt lat="39.2867031" lon="16.956211"><ele>335.3333333333333</ele><time>2026-03-28T15:15:38.647Z</time></trkpt><trkpt lat="39.2867883" lon="16.95618"><ele>335.6666666666667</ele><time>2026-03-28T15:15:39.662Z</time></trkpt><trkpt lat="39.2868725" lon="16.9561461"><ele>336.0</ele><time>2026-03-28T15:15:40.652Z</time></trkpt><trkpt lat="39.2869512" lon="16.9561114"><ele>336.0</ele><time>2026-03-28T15:15:41.652Z</time></trkpt><trkpt lat="39.2870184" lon="16.9560799"><ele>336.0</ele><time>2026-03-28T15:15:42.644Z</time></trkpt><trkpt lat="39.2871149" lon="16.9560344"><ele>336.0</ele><time>2026-03-28T15:15:44.654Z</time></trkpt><trkpt lat="39.2872087" lon="16.9560009"><ele>336.0</ele><time>2026-03-28T15:15:46.658Z</time></trkpt><trkpt lat="39.2873089" lon="16.9559563"><ele>336.0</ele><time>2026-03-28T15:15:48.645Z</time></trkpt><trkpt lat="39.2873756" lon="16.9559221"><ele>336.0</ele><time>2026-03-28T15:15:49.652Z</time></trkpt><trkpt lat="39.2874472" lon="16.9558759"><ele>338.4</ele><time>2026-03-28T15:15:50.651Z</time></trkpt><trkpt lat="39.2875183" lon="16.9558296"><ele>340.8</ele><time>2026-03-28T15:15:51.657Z</time></trkpt><trkpt lat="39.2875941" lon="16.955782"><ele>343.2</ele><time>2026-03-28T15:15:52.644Z</time></trkpt><trkpt lat="39.2876776" lon="16.9557371"><ele>345.59999999999997</ele><time>2026-03-28T15:15:53.654Z</time></trkpt><trkpt lat="39.28777" lon="16.955701"><ele>348.0</ele><time>2026-03-28T15:15:54.656Z</time></trkpt><trkpt lat="39.2878699" lon="16.9556526"><ele>348.0</ele><time>2026-03-28T15:15:55.649Z</time></trkpt><trkpt lat="39.2879726" lon="16.9556016"><ele>348.0</ele><time>2026-03-28T15:15:56.646Z</time></trkpt><trkpt lat="39.2880742" lon="16.9555514"><ele>348.0</ele><time>2026-03-28T15:15:57.647Z</time></trkpt><trkpt lat="39.2881706" lon="16.9554912"><ele>348.0</ele><time>2026-03-28T15:15:58.653Z</time></trkpt><trkpt lat="39.2882731" lon="16.9554137"><ele>348.0</ele><time>2026-03-28T15:15:59.654Z</time></trkpt><trkpt lat="39.2883776" lon="16.955335"><ele>347.59999999999997</ele><time>2026-03-28T15:16:00.65Z</time></trkpt><trkpt lat="39.2884863" lon="16.9552692"><ele>347.2</ele><time>2026-03-28T15:16:01.656Z</time></trkpt><trkpt lat="39.2885854" lon="16.9552091"><ele>346.8</ele><time>2026-03-28T15:16:02.65Z</time></trkpt><trkpt lat="39.2886675" lon="16.9551723"><ele>346.4</ele><time>2026-03-28T15:16:03.647Z</time></trkpt><trkpt lat="39.2887302" lon="16.9551613"><ele>346.0</ele><time>2026-03-28T15:16:04.652Z</time></trkpt><trkpt lat="39.2888021" lon="16.9551614"><ele>346.0</ele><time>2026-03-28T15:16:05.65Z</time></trkpt><trkpt lat="39.2888862" lon="16.9551533"><ele>346.0</ele><time>2026-03-28T15:16:06.65Z</time></trkpt><trkpt lat="39.288973" lon="16.9551248"><ele>346.0</ele><time>2026-03-28T15:16:07.649Z</time></trkpt><trkpt lat="39.2890663" lon="16.9550853"><ele>346.0</ele><time>2026-03-28T15:16:08.662Z</time></trkpt><trkpt lat="39.2891692" lon="16.9550466"><ele>346.0</ele><time>2026-03-28T15:16:09.65Z</time></trkpt><trkpt lat="39.2892763" lon="16.9550193"><ele>349.0</ele><time>2026-03-28T15:16:10.661Z</time></trkpt><trkpt lat="39.2893785" lon="16.9549975"><ele>352.0</ele><time>2026-03-28T15:16:11.645Z</time></trkpt><trkpt lat="39.289491" lon="16.9549777"><ele>355.0</ele><time>2026-03-28T15:16:12.654Z</time></trkpt><trkpt lat="39.2896021" lon="16.9549532"><ele>358.0</ele><time>2026-03-28T15:16:13.643Z</time></trkpt><trkpt lat="39.2897118" lon="16.9549248"><ele>361.0</ele><time>2026-03-28T15:16:14.645Z</time></trkpt><trkpt lat="39.2898179" lon="16.9548858"><ele>362.25</ele><time>2026-03-28T15:16:15.65Z</time></trkpt><trkpt lat="39.2899187" lon="16.9548182"><ele>363.5</ele><time>2026-03-28T15:16:16.656Z</time></trkpt><trkpt lat="39.290027" lon="16.9547332"><ele>364.75</ele><time>2026-03-28T15:16:17.655Z</time></trkpt><trkpt lat="39.2901395" lon="16.954645"><ele>366.0</ele><time>2026-03-28T15:16:18.647Z</time></trkpt><trkpt lat="39.2902444" lon="16.9545751"><ele>366.0</ele><time>2026-03-28T15:16:19.646Z</time></trkpt><trkpt lat="39.2903458" lon="16.9545119"><ele>366.0</ele><time>2026-03-28T15:16:20.647Z</time></trkpt><trkpt lat="39.2904383" lon="16.9544453"><ele>366.0</ele><time>2026-03-28T15:16:21.65Z</time></trkpt><trkpt lat="39.2905147" lon="16.9543758"><ele>366.0</ele><time>2026-03-28T15:16:22.659Z</time></trkpt><trkpt lat="39.2905794" lon="16.954338"><ele>366.0</ele><time>2026-03-28T15:16:23.655Z</time></trkpt><trkpt lat="39.2906887" lon="16.9543761"><ele>366.1666666666667</ele><time>2026-03-28T15:16:25.646Z</time></trkpt><trkpt lat="39.2907523" lon="16.9544233"><ele>366.3333333333333</ele><time>2026-03-28T15:16:26.648Z</time></trkpt><trkpt lat="39.2908256" lon="16.9544717"><ele>366.5</ele><time>2026-03-28T15:16:27.647Z</time></trkpt><trkpt lat="39.2909001" lon="16.954513"><ele>366.66666666666663</ele><time>2026-03-28T15:16:28.653Z</time></trkpt><trkpt lat="39.2909748" lon="16.9545446"><ele>366.8333333333333</ele><time>2026-03-28T15:16:29.657Z</time></trkpt><trkpt lat="39.2910525" lon="16.9545733"><ele>367.0</ele><time>2026-03-28T15:16:30.648Z</time></trkpt><trkpt lat="39.2911312" lon="16.954597"><ele>367.0</ele><time>2026-03-28T15:16:31.647Z</time></trkpt><trkpt lat="39.2912073" lon="16.9546113"><ele>367.0</ele><time>2026-03-28T15:16:32.65Z</time></trkpt><trkpt lat="39.2912849" lon="16.9546228"><ele>367.0</ele><time>2026-03-28T15:16:33.645Z</time></trkpt><trkpt lat="39.2913557" lon="16.9546279"><ele>367.0</ele><time>2026-03-28T15:16:34.644Z</time></trkpt><trkpt lat="39.2914692" lon="16.9546323"><ele>367.0</ele><time>2026-03-28T15:16:36.644Z</time></trkpt><trkpt lat="39.291564" lon="16.9546275"><ele>367.0</ele><time>2026-03-28T15:16:38.644Z</time></trkpt><trkpt lat="39.291665" lon="16.9546171"><ele>365.5</ele><time>2026-03-28T15:16:40.645Z</time></trkpt><trkpt lat="39.291778" lon="16.9546097"><ele>364.0</ele><time>2026-03-28T15:16:42.643Z</time></trkpt><trkpt lat="39.2918928" lon="16.9545804"><ele>362.5</ele><time>2026-03-28T15:16:44.642Z</time></trkpt><trkpt lat="39.2920293" lon="16.9545459"><ele>361.0</ele><time>2026-03-28T15:16:46.643Z</time></trkpt><trkpt lat="39.2921199" lon="16.9545212"><ele>361.0</ele><time>2026-03-28T15:16:47.642Z</time></trkpt><trkpt lat="39.2922054" lon="16.9544872"><ele>361.0</ele><time>2026-03-28T15:16:48.657Z</time></trkpt><trkpt lat="39.2922828" lon="16.9544548"><ele>361.0</ele><time>2026-03-28T15:16:49.647Z</time></trkpt><trkpt lat="39.2923688" lon="16.9544225"><ele>361.0</ele><time>2026-03-28T15:16:51.647Z</time></trkpt><trkpt lat="39.2924379" lon="16.9543949"><ele>361.0</ele><time>2026-03-28T15:17:03.662Z</time></trkpt><trkpt lat="39.292505" lon="16.9543725"><ele>361.0</ele><time>2026-03-28T15:17:06.656Z</time></trkpt><trkpt lat="39.2925708" lon="16.9543684"><ele>359.6</ele><time>2026-03-28T15:17:08.652Z</time></trkpt><trkpt lat="39.2926516" lon="16.9543733"><ele>358.20000000000005</ele><time>2026-03-28T15:17:10.656Z</time></trkpt><trkpt lat="39.292767" lon="16.954371"><ele>356.79999999999995</ele><time>2026-03-28T15:17:12.654Z</time></trkpt><trkpt lat="39.2928449" lon="16.9543499"><ele>355.4</ele><time>2026-03-28T15:17:13.653Z</time></trkpt><trkpt lat="39.2929295" lon="16.9543267"><ele>354.0</ele><time>2026-03-28T15:17:14.652Z</time></trkpt><trkpt lat="39.2930341" lon="16.9542942"><ele>353.2</ele><time>2026-03-28T15:17:15.652Z</time></trkpt><trkpt lat="39.2931353" lon="16.9542666"><ele>352.4</ele><time>2026-03-28T15:17:16.648Z</time></trkpt><trkpt lat="39.2932226" lon="16.954222"><ele>351.6</ele><time>2026-03-28T15:17:17.654Z</time></trkpt><trkpt lat="39.2932998" lon="16.9541706"><ele>350.8</ele><time>2026-03-28T15:17:18.654Z</time></trkpt><trkpt lat="39.2933615" lon="16.9540952"><ele>350.0</ele><time>2026-03-28T15:17:19.65Z</time></trkpt><trkpt lat="39.2934217" lon="16.9540066"><ele>352.2857142857143</ele><time>2026-03-28T15:17:20.66Z</time></trkpt><trkpt lat="39.2934905" lon="16.9539492"><ele>354.57142857142856</ele><time>2026-03-28T15:17:21.653Z</time></trkpt><trkpt lat="39.2935629" lon="16.9539379"><ele>356.8571428571429</ele><time>2026-03-28T15:17:22.647Z</time></trkpt><trkpt lat="39.2936243" lon="16.9539684"><ele>359.1428571428571</ele><time>2026-03-28T15:17:23.646Z</time></trkpt><trkpt lat="39.2936887" lon="16.9540063"><ele>361.42857142857144</ele><time>2026-03-28T15:17:24.648Z</time></trkpt><trkpt lat="39.2937602" lon="16.954034"><ele>363.7142857142857</ele><time>2026-03-28T15:17:25.646Z</time></trkpt><trkpt lat="39.2938329" lon="16.9540493"><ele>366.0</ele><time>2026-03-28T15:17:26.652Z</time></trkpt><trkpt lat="39.2939001" lon="16.9540501"><ele>367.0</ele><time>2026-03-28T15:17:27.658Z</time></trkpt><trkpt lat="39.2939685" lon="16.9540499"><ele>368.0</ele><time>2026-03-28T15:17:28.655Z</time></trkpt><trkpt lat="39.2940379" lon="16.9540501"><ele>369.0</ele><time>2026-03-28T15:17:29.652Z</time></trkpt><trkpt lat="39.2941175" lon="16.9540663"><ele>370.0</ele><time>2026-03-28T15:17:30.647Z</time></trkpt><trkpt lat="39.2942001" lon="16.9540833"><ele>371.0</ele><time>2026-03-28T15:17:31.65Z</time></trkpt><trkpt lat="39.2942762" lon="16.9540947"><ele>372.0</ele><time>2026-03-28T15:17:32.645Z</time></trkpt><trkpt lat="39.2943454" lon="16.9541004"><ele>373.0</ele><time>2026-03-28T15:17:33.644Z</time></trkpt><trkpt lat="39.2944144" lon="16.954107"><ele>373.0</ele><time>2026-03-28T15:17:34.649Z</time></trkpt><trkpt lat="39.2944796" lon="16.9541198"><ele>373.0</ele><time>2026-03-28T15:17:35.648Z</time></trkpt><trkpt lat="39.29454" lon="16.9541457"><ele>373.0</ele><time>2026-03-28T15:17:36.648Z</time></trkpt><trkpt lat="39.2946023" lon="16.9541752"><ele>373.0</ele><time>2026-03-28T15:17:37.642Z</time></trkpt><trkpt lat="39.2946656" lon="16.9541942"><ele>373.0</ele><time>2026-03-28T15:17:38.65Z</time></trkpt><trkpt lat="39.2947871" lon="16.9541814"><ele>373.0</ele><time>2026-03-28T15:17:40.652Z</time></trkpt><trkpt lat="39.2948506" lon="16.9541662"><ele>373.0</ele><time>2026-03-28T15:17:41.646Z</time></trkpt><trkpt lat="39.2949398" lon="16.9540568"><ele>372.66666666666663</ele><time>2026-03-28T15:17:43.651Z</time></trkpt><trkpt lat="39.2950065" lon="16.9539591"><ele>372.3333333333333</ele><time>2026-03-28T15:17:45.658Z</time></trkpt><trkpt lat="39.2950793" lon="16.9539522"><ele>372.0</ele><time>2026-03-28T15:17:47.654Z</time></trkpt><trkpt lat="39.2951453" lon="16.9540065"><ele>371.6666666666667</ele><time>2026-03-28T15:17:49.656Z</time></trkpt><trkpt lat="39.2951816" lon="16.9541177"><ele>371.33333333333337</ele><time>2026-03-28T15:17:51.656Z</time></trkpt><trkpt lat="39.295183" lon="16.9542162"><ele>371.0</ele><time>2026-03-28T15:17:52.651Z</time></trkpt><trkpt lat="39.2951926" lon="16.9543081"><ele>371.0</ele><time>2026-03-28T15:17:53.653Z</time></trkpt><trkpt lat="39.2952252" lon="16.9543798"><ele>371.0</ele><time>2026-03-28T15:17:54.648Z</time></trkpt><trkpt lat="39.2953236" lon="16.9544701"><ele>371.0</ele><time>2026-03-28T15:17:56.664Z</time></trkpt><trkpt lat="39.2953916" lon="16.9545088"><ele>371.0</ele><time>2026-03-28T15:17:57.65Z</time></trkpt><trkpt lat="39.2954686" lon="16.9545435"><ele>371.0</ele><time>2026-03-28T15:17:58.655Z</time></trkpt><trkpt lat="39.2955424" lon="16.9545629"><ele>371.0</ele><time>2026-03-28T15:17:59.66Z</time></trkpt><trkpt lat="39.2956104" lon="16.9545721"><ele>375.0</ele><time>2026-03-28T15:18:00.658Z</time></trkpt><trkpt lat="39.2956767" lon="16.9545811"><ele>379.0</ele><time>2026-03-28T15:18:01.649Z</time></trkpt><trkpt lat="39.2957429" lon="16.9545622"><ele>383.0</ele><time>2026-03-28T15:18:02.65Z</time></trkpt><trkpt lat="39.2958156" lon="16.9545459"><ele>387.0</ele><time>2026-03-28T15:18:03.658Z</time></trkpt><trkpt lat="39.2958892" lon="16.9545311"><ele>390.99999999999994</ele><time>2026-03-28T15:18:04.646Z</time></trkpt><trkpt lat="39.2959686" lon="16.9545055"><ele>395.0</ele><time>2026-03-28T15:18:05.649Z</time></trkpt><trkpt lat="39.2960519" lon="16.954477"><ele>395.0</ele><time>2026-03-28T15:18:06.643Z</time></trkpt><trkpt lat="39.296132" lon="16.9544501"><ele>395.0</ele><time>2026-03-28T15:18:07.649Z</time></trkpt><trkpt lat="39.2962173" lon="16.9544243"><ele>395.0</ele><time>2026-03-28T15:18:08.645Z</time></trkpt><trkpt lat="39.2963143" lon="16.9543922"><ele>395.0</ele><time>2026-03-28T15:18:09.644Z</time></trkpt><trkpt lat="39.2964075" lon="16.954359"><ele>395.0</ele><time>2026-03-28T15:18:10.646Z</time></trkpt><trkpt lat="39.2964956" lon="16.9543261"><ele>397.66666666666663</ele><time>2026-03-28T15:18:11.657Z</time></trkpt><trkpt lat="39.2965786" lon="16.9542989"><ele>400.3333333333333</ele><time>2026-03-28T15:18:12.652Z</time></trkpt><trkpt lat="39.296657" lon="16.9542749"><ele>403.0</ele><time>2026-03-28T15:18:13.652Z</time></trkpt><trkpt lat="39.2967274" lon="16.9543112"><ele>405.66666666666663</ele><time>2026-03-28T15:18:14.646Z</time></trkpt><trkpt lat="39.2967991" lon="16.9543814"><ele>408.3333333333333</ele><time>2026-03-28T15:18:15.651Z</time></trkpt><trkpt lat="39.2968586" lon="16.9544736"><ele>411.0</ele><time>2026-03-28T15:18:16.646Z</time></trkpt><trkpt lat="39.2969032" lon="16.9545665"><ele>411.0</ele><time>2026-03-28T15:18:17.645Z</time></trkpt><trkpt lat="39.2969404" lon="16.9546629"><ele>411.0</ele><time>2026-03-28T15:18:18.652Z</time></trkpt><trkpt lat="39.2969626" lon="16.9547436"><ele>411.0</ele><time>2026-03-28T15:18:19.65Z</time></trkpt><trkpt lat="39.2969658" lon="16.95489"><ele>411.0</ele><time>2026-03-28T15:18:21.657Z</time></trkpt><trkpt lat="39.2969455" lon="16.9550212"><ele>411.0</ele><time>2026-03-28T15:18:23.647Z</time></trkpt><trkpt lat="39.296963" lon="16.955123"><ele>411.0</ele><time>2026-03-28T15:18:25.658Z</time></trkpt><trkpt lat="39.2970181" lon="16.955179"><ele>410.1666666666667</ele><time>2026-03-28T15:18:27.648Z</time></trkpt><trkpt lat="39.2971101" lon="16.9552045"><ele>409.33333333333337</ele><time>2026-03-28T15:18:29.646Z</time></trkpt><trkpt lat="39.297242" lon="16.9552146"><ele>408.5</ele><time>2026-03-28T15:18:31.65Z</time></trkpt><trkpt lat="39.2973126" lon="16.9552358"><ele>407.6666666666667</ele><time>2026-03-28T15:18:32.644Z</time></trkpt><trkpt lat="39.2973788" lon="16.9552798"><ele>406.83333333333337</ele><time>2026-03-28T15:18:33.646Z</time></trkpt><trkpt lat="39.2974342" lon="16.9553413"><ele>406.0</ele><time>2026-03-28T15:18:34.652Z</time></trkpt><trkpt lat="39.2974889" lon="16.9554025"><ele>409.6666666666667</ele><time>2026-03-28T15:18:35.653Z</time></trkpt><trkpt lat="39.2975415" lon="16.9554633"><ele>413.33333333333337</ele><time>2026-03-28T15:18:36.648Z</time></trkpt><trkpt lat="39.2975908" lon="16.9555226"><ele>417.0</ele><time>2026-03-28T15:18:37.649Z</time></trkpt><trkpt lat="39.2976401" lon="16.9555875"><ele>420.66666666666663</ele><time>2026-03-28T15:18:38.653Z</time></trkpt><trkpt lat="39.2976819" lon="16.9556524"><ele>424.3333333333333</ele><time>2026-03-28T15:18:39.644Z</time></trkpt><trkpt lat="39.2977416" lon="16.9557582"><ele>428.0</ele><time>2026-03-28T15:18:41.644Z</time></trkpt><trkpt lat="39.297805" lon="16.9558657"><ele>428.4</ele><time>2026-03-28T15:18:43.648Z</time></trkpt><trkpt lat="39.2978886" lon="16.9559743"><ele>428.79999999999995</ele><time>2026-03-28T15:18:45.653Z</time></trkpt><trkpt lat="39.2979771" lon="16.9560806"><ele>429.2</ele><time>2026-03-28T15:18:47.647Z</time></trkpt><trkpt lat="39.2980516" lon="16.9562062"><ele>429.6</ele><time>2026-03-28T15:18:49.654Z</time></trkpt><trkpt lat="39.2980823" lon="16.9562988"><ele>430.0</ele><time>2026-03-28T15:18:51.651Z</time></trkpt><trkpt lat="39.2981146" lon="16.9564206"><ele>433.57142857142856</ele><time>2026-03-28T15:18:54.647Z</time></trkpt><trkpt lat="39.2981466" lon="16.9565067"><ele>437.14285714285717</ele><time>2026-03-28T15:18:56.659Z</time></trkpt><trkpt lat="39.2981971" lon="16.9565674"><ele>440.7142857142857</ele><time>2026-03-28T15:19:06.652Z</time></trkpt><trkpt lat="39.2982697" lon="16.9565949"><ele>444.2857142857143</ele><time>2026-03-28T15:19:09.645Z</time></trkpt><trkpt lat="39.2983353" lon="16.9565779"><ele>447.8571428571429</ele><time>2026-03-28T15:19:17.643Z</time></trkpt><trkpt lat="39.2984066" lon="16.9565868"><ele>451.42857142857144</ele><time>2026-03-28T15:19:21.649Z</time></trkpt><trkpt lat="39.2983618" lon="16.9566795"><ele>455.0</ele><time>2026-03-28T15:19:24.647Z</time></trkpt><trkpt lat="39.2982647" lon="16.956707"><ele>457.3333333333333</ele><time>2026-03-28T15:19:26.646Z</time></trkpt><trkpt lat="39.2981841" lon="16.9567147"><ele>459.66666666666663</ele><time>2026-03-28T15:19:28.646Z</time></trkpt><trkpt lat="39.2981201" lon="16.9567223"><ele>462.0</ele><time>2026-03-28T15:19:30.646Z</time></trkpt><trkpt lat="39.2980671" lon="16.9567822"><ele>464.33333333333337</ele><time>2026-03-28T15:19:32.65Z</time></trkpt><trkpt lat="39.2980387" lon="16.9569054"><ele>466.6666666666667</ele><time>2026-03-28T15:19:34.651Z</time></trkpt><trkpt lat="39.2980453" lon="16.9570422"><ele>469.0</ele><time>2026-03-28T15:19:36.648Z</time></trkpt><trkpt lat="39.2980612" lon="16.9571872"><ele>469.00000000000006</ele><time>2026-03-28T15:19:38.651Z</time></trkpt><trkpt lat="39.2980827" lon="16.9573333"><ele>469.0</ele><time>2026-03-28T15:19:40.654Z</time></trkpt><trkpt lat="39.2981025" lon="16.9574133"><ele>469.0</ele><time>2026-03-28T15:19:41.645Z</time></trkpt><trkpt lat="39.2981208" lon="16.9575116"><ele>469.0</ele><time>2026-03-28T15:19:42.642Z</time></trkpt><trkpt lat="39.2981327" lon="16.9576031"><ele>469.00000000000006</ele><time>2026-03-28T15:19:43.644Z</time></trkpt><trkpt lat="39.2981262" lon="16.9577557"><ele>469.0</ele><time>2026-03-28T15:19:45.648Z</time></trkpt><trkpt lat="39.2981331" lon="16.9579195"><ele>468.1666666666667</ele><time>2026-03-28T15:19:47.647Z</time></trkpt><trkpt lat="39.2981395" lon="16.958016"><ele>467.33333333333337</ele><time>2026-03-28T15:19:48.642Z</time></trkpt><trkpt lat="39.2981301" lon="16.9581219"><ele>466.5</ele><time>2026-03-28T15:19:49.652Z</time></trkpt><trkpt lat="39.2981067" lon="16.9582195"><ele>465.66666666666663</ele><time>2026-03-28T15:19:50.657Z</time></trkpt><trkpt lat="39.2980748" lon="16.9583102"><ele>464.8333333333333</ele><time>2026-03-28T15:19:51.657Z</time></trkpt><trkpt lat="39.298031" lon="16.9584027"><ele>464.0</ele><time>2026-03-28T15:19:52.647Z</time></trkpt><trkpt lat="39.2980015" lon="16.9584914"><ele>463.99999999999994</ele><time>2026-03-28T15:19:53.652Z</time></trkpt><trkpt lat="39.2979797" lon="16.9585901"><ele>464.0</ele><time>2026-03-28T15:19:54.648Z</time></trkpt><trkpt lat="39.2979566" lon="16.9586807"><ele>464.0</ele><time>2026-03-28T15:19:55.652Z</time></trkpt><trkpt lat="39.2979333" lon="16.9587583"><ele>464.0</ele><time>2026-03-28T15:19:56.647Z</time></trkpt><trkpt lat="39.2978967" lon="16.9588537"><ele>463.99999999999994</ele><time>2026-03-28T15:19:58.653Z</time></trkpt><trkpt lat="39.297853" lon="16.9589668"><ele>464.0</ele><time>2026-03-28T15:20:00.644Z</time></trkpt><trkpt lat="39.2978096" lon="16.9590467"><ele>463.99999999999994</ele><time>2026-03-28T15:20:02.653Z</time></trkpt><trkpt lat="39.2977629" lon="16.9591362"><ele>464.0</ele><time>2026-03-28T15:20:04.647Z</time></trkpt><trkpt lat="39.2977212" lon="16.9592441"><ele>464.0</ele><time>2026-03-28T15:20:06.651Z</time></trkpt><trkpt lat="39.2976861" lon="16.9593356"><ele>464.0</ele><time>2026-03-28T15:20:08.645Z</time></trkpt><trkpt lat="39.2976313" lon="16.9594361"><ele>463.99999999999994</ele><time>2026-03-28T15:20:10.645Z</time></trkpt><trkpt lat="39.2975881" lon="16.9595015"><ele>464.0</ele><time>2026-03-28T15:20:12.646Z</time></trkpt><trkpt lat="39.2975426" lon="16.9595783"><ele>468.16666666666663</ele><time>2026-03-28T15:20:14.652Z</time></trkpt><trkpt lat="39.2975023" lon="16.959643"><ele>472.3333333333333</ele><time>2026-03-28T15:20:15.653Z</time></trkpt><trkpt lat="39.2974578" lon="16.9597064"><ele>476.5</ele><time>2026-03-28T15:20:16.659Z</time></trkpt><trkpt lat="39.2973997" lon="16.9598217"><ele>480.66666666666663</ele><time>2026-03-28T15:20:18.653Z</time></trkpt><trkpt lat="39.2973628" lon="16.9599211"><ele>484.8333333333333</ele><time>2026-03-28T15:20:20.656Z</time></trkpt><trkpt lat="39.2972981" lon="16.9600313"><ele>489.0</ele><time>2026-03-28T15:20:22.651Z</time></trkpt><trkpt lat="39.2972168" lon="16.9601448"><ele>490.4</ele><time>2026-03-28T15:20:24.648Z</time></trkpt><trkpt lat="39.2971541" lon="16.9602135"><ele>491.79999999999995</ele><time>2026-03-28T15:20:26.646Z</time></trkpt><trkpt lat="39.297088" lon="16.9602811"><ele>493.20000000000005</ele><time>2026-03-28T15:20:28.647Z</time></trkpt><trkpt lat="39.2969689" lon="16.9603814"><ele>494.6</ele><time>2026-03-28T15:20:30.646Z</time></trkpt><trkpt lat="39.2968741" lon="16.9604269"><ele>496.0</ele><time>2026-03-28T15:20:31.65Z</time></trkpt><trkpt lat="39.2967721" lon="16.9604917"><ele>496.0</ele><time>2026-03-28T15:20:32.651Z</time></trkpt><trkpt lat="39.2966779" lon="16.9605631"><ele>496.0</ele><time>2026-03-28T15:20:33.649Z</time></trkpt><trkpt lat="39.2965935" lon="16.9606231"><ele>496.0</ele><time>2026-03-28T15:20:34.648Z</time></trkpt><trkpt lat="39.2965148" lon="16.9606601"><ele>496.0</ele><time>2026-03-28T15:20:35.648Z</time></trkpt><trkpt lat="39.2964449" lon="16.9606836"><ele>496.0</ele><time>2026-03-28T15:20:36.656Z</time></trkpt><trkpt lat="39.2963476" lon="16.9607688"><ele>496.6</ele><time>2026-03-28T15:20:38.662Z</time></trkpt><trkpt lat="39.2963081" lon="16.9608432"><ele>497.20000000000005</ele><time>2026-03-28T15:20:39.661Z</time></trkpt><trkpt lat="39.2962625" lon="16.9609337"><ele>497.79999999999995</ele><time>2026-03-28T15:20:40.665Z</time></trkpt><trkpt lat="39.2962092" lon="16.9610389"><ele>498.4</ele><time>2026-03-28T15:20:41.65Z</time></trkpt><trkpt lat="39.2961489" lon="16.9611462"><ele>499.0</ele><time>2026-03-28T15:20:42.645Z</time></trkpt><trkpt lat="39.2960963" lon="16.961262"><ele>499.0</ele><time>2026-03-28T15:20:43.643Z</time></trkpt><trkpt lat="39.2960512" lon="16.9613739"><ele>499.0</ele><time>2026-03-28T15:20:44.646Z</time></trkpt><trkpt lat="39.2959971" lon="16.9614611"><ele>499.0</ele><time>2026-03-28T15:20:45.645Z</time></trkpt><trkpt lat="39.2959253" lon="16.9615382"><ele>499.0</ele><time>2026-03-28T15:20:46.645Z</time></trkpt><trkpt lat="39.2958403" lon="16.9616114"><ele>499.0</ele><time>2026-03-28T15:20:47.651Z</time></trkpt><trkpt lat="39.2957516" lon="16.9616983"><ele>498.2</ele><time>2026-03-28T15:20:48.649Z</time></trkpt><trkpt lat="39.2956512" lon="16.9617713"><ele>497.4</ele><time>2026-03-28T15:20:49.648Z</time></trkpt><trkpt lat="39.2955619" lon="16.9618346"><ele>496.6</ele><time>2026-03-28T15:20:50.642Z</time></trkpt><trkpt lat="39.2954951" lon="16.961918"><ele>495.8</ele><time>2026-03-28T15:20:51.646Z</time></trkpt><trkpt lat="39.2954268" lon="16.962026"><ele>495.0</ele><time>2026-03-28T15:20:52.644Z</time></trkpt><trkpt lat="39.295365" lon="16.962124"><ele>495.0</ele><time>2026-03-28T15:20:53.65Z</time></trkpt><trkpt lat="39.2952992" lon="16.9622013"><ele>495.0</ele><time>2026-03-28T15:20:54.646Z</time></trkpt><trkpt lat="39.2952261" lon="16.9622258"><ele>495.0</ele><time>2026-03-28T15:20:55.642Z</time></trkpt><trkpt lat="39.2951624" lon="16.9622592"><ele>495.0</ele><time>2026-03-28T15:20:56.653Z</time></trkpt><trkpt lat="39.2951151" lon="16.9623309"><ele>495.0</ele><time>2026-03-28T15:20:57.652Z</time></trkpt><trkpt lat="39.2950722" lon="16.9624243"><ele>495.0</ele><time>2026-03-28T15:20:58.641Z</time></trkpt><trkpt lat="39.2950266" lon="16.9625203"><ele>497.0</ele><time>2026-03-28T15:20:59.658Z</time></trkpt><trkpt lat="39.2949814" lon="16.962611"><ele>499.0</ele><time>2026-03-28T15:21:00.656Z</time></trkpt><trkpt lat="39.2949392" lon="16.9626994"><ele>501.0</ele><time>2026-03-28T15:21:01.648Z</time></trkpt><trkpt lat="39.2949037" lon="16.9627769"><ele>503.0</ele><time>2026-03-28T15:21:02.649Z</time></trkpt><trkpt lat="39.294866" lon="16.9628925"><ele>505.0</ele><time>2026-03-28T15:21:04.643Z</time></trkpt><trkpt lat="39.2948685" lon="16.9629868"><ele>507.0</ele><time>2026-03-28T15:21:06.659Z</time></trkpt><trkpt lat="39.294882" lon="16.9630673"><ele>507.0</ele><time>2026-03-28T15:21:08.65Z</time></trkpt><trkpt lat="39.2948993" lon="16.9631494"><ele>507.0</ele><time>2026-03-28T15:21:12.647Z</time></trkpt><trkpt lat="39.2949231" lon="16.9632622"><ele>507.0</ele><time>2026-03-28T15:21:17.646Z</time></trkpt><trkpt lat="39.2949399" lon="16.9633429"><ele>507.0</ele><time>2026-03-28T15:21:19.65Z</time></trkpt><trkpt lat="39.2949462" lon="16.9634348"><ele>507.0</ele><time>2026-03-28T15:21:21.651Z</time></trkpt><trkpt lat="39.2949289" lon="16.9635774"><ele>507.0</ele><time>2026-03-28T15:21:23.647Z</time></trkpt><trkpt lat="39.2948927" lon="16.9636803"><ele>506.5</ele><time>2026-03-28T15:21:25.642Z</time></trkpt><trkpt lat="39.2948506" lon="16.9637835"><ele>506.0</ele><time>2026-03-28T15:21:27.657Z</time></trkpt><trkpt lat="39.2947697" lon="16.9638843"><ele>505.5</ele><time>2026-03-28T15:21:29.657Z</time></trkpt><trkpt lat="39.2947133" lon="16.9639508"><ele>505.0</ele><time>2026-03-28T15:21:30.644Z</time></trkpt><trkpt lat="39.2946682" lon="16.9640359"><ele>504.5</ele><time>2026-03-28T15:21:31.647Z</time></trkpt><trkpt lat="39.2946232" lon="16.9641244"><ele>504.0</ele><time>2026-03-28T15:21:32.651Z</time></trkpt><trkpt lat="39.2945689" lon="16.9642116"><ele>504.0</ele><time>2026-03-28T15:21:33.647Z</time></trkpt><trkpt lat="39.2945095" lon="16.964304"><ele>504.0</ele><time>2026-03-28T15:21:34.656Z</time></trkpt><trkpt lat="39.294457" lon="16.9643948"><ele>504.0</ele><time>2026-03-28T15:21:35.653Z</time></trkpt><trkpt lat="39.294415" lon="16.9645112"><ele>504.0</ele><time>2026-03-28T15:21:36.645Z</time></trkpt><trkpt lat="39.2943617" lon="16.9646373"><ele>504.0</ele><time>2026-03-28T15:21:37.652Z</time></trkpt><trkpt lat="39.2943131" lon="16.9647755"><ele>504.0</ele><time>2026-03-28T15:21:38.65Z</time></trkpt><trkpt lat="39.2942827" lon="16.9649128"><ele>504.0</ele><time>2026-03-28T15:21:39.645Z</time></trkpt><trkpt lat="39.2942779" lon="16.9650452"><ele>504.0</ele><time>2026-03-28T15:21:40.644Z</time></trkpt><trkpt lat="39.2942598" lon="16.965155"><ele>504.0</ele><time>2026-03-28T15:21:41.643Z</time></trkpt><trkpt lat="39.2942114" lon="16.9652433"><ele>504.0</ele><time>2026-03-28T15:21:42.65Z</time></trkpt><trkpt lat="39.2941405" lon="16.9653312"><ele>508.0</ele><time>2026-03-28T15:21:43.643Z</time></trkpt><trkpt lat="39.2940899" lon="16.9654351"><ele>512.0</ele><time>2026-03-28T15:21:44.644Z</time></trkpt><trkpt lat="39.2940557" lon="16.9655724"><ele>516.0</ele><time>2026-03-28T15:21:45.645Z</time></trkpt><trkpt lat="39.2940216" lon="16.965726"><ele>520.0</ele><time>2026-03-28T15:21:46.653Z</time></trkpt><trkpt lat="39.2939837" lon="16.9658485"><ele>524.0</ele><time>2026-03-28T15:21:47.643Z</time></trkpt><trkpt lat="39.293954" lon="16.9659405"><ele>524.0</ele><time>2026-03-28T15:21:48.642Z</time></trkpt><trkpt lat="39.2939809" lon="16.9660326"><ele>524.0</ele><time>2026-03-28T15:21:50.645Z</time></trkpt><trkpt lat="39.2940775" lon="16.9659512"><ele>524.0</ele><time>2026-03-28T15:21:52.642Z</time></trkpt><trkpt lat="39.2941484" lon="16.9658539"><ele>524.0</ele><time>2026-03-28T15:21:53.642Z</time></trkpt><trkpt lat="39.2942245" lon="16.9657556"><ele>524.0</ele><time>2026-03-28T15:21:54.646Z</time></trkpt><trkpt lat="39.2942882" lon="16.9656733"><ele>524.0</ele><time>2026-03-28T15:21:55.65Z</time></trkpt><trkpt lat="39.2943427" lon="16.9656119"><ele>524.0</ele><time>2026-03-28T15:21:56.646Z</time></trkpt><trkpt lat="39.2944341" lon="16.965519"><ele>524.0</ele><time>2026-03-28T15:21:58.645Z</time></trkpt><trkpt lat="39.2944071" lon="16.9656584"><ele>524.0</ele><time>2026-03-28T15:22:02.645Z</time></trkpt><trkpt lat="39.2943497" lon="16.9657635"><ele>524.0</ele><time>2026-03-28T15:22:03.653Z</time></trkpt><trkpt lat="39.2943017" lon="16.965882"><ele>528.6</ele><time>2026-03-28T15:22:04.642Z</time></trkpt><trkpt lat="39.2942705" lon="16.9660328"><ele>533.2</ele><time>2026-03-28T15:22:05.641Z</time></trkpt><trkpt lat="39.2942368" lon="16.9661893"><ele>537.8000000000001</ele><time>2026-03-28T15:22:06.648Z</time></trkpt><trkpt lat="39.2942201" lon="16.9663305"><ele>542.4</ele><time>2026-03-28T15:22:07.641Z</time></trkpt><trkpt lat="39.294206" lon="16.9664301"><ele>547.0</ele><time>2026-03-28T15:22:08.643Z</time></trkpt><trkpt lat="39.2941873" lon="16.9665654"><ele>547.0</ele><time>2026-03-28T15:22:10.644Z</time></trkpt><trkpt lat="39.294166" lon="16.9666597"><ele>547.0</ele><time>2026-03-28T15:22:12.65Z</time></trkpt><trkpt lat="39.2941056" lon="16.9667875"><ele>547.0</ele><time>2026-03-28T15:22:14.644Z</time></trkpt><trkpt lat="39.2940629" lon="16.9668629"><ele>547.0</ele><time>2026-03-28T15:22:15.653Z</time></trkpt><trkpt lat="39.2940152" lon="16.9669276"><ele>547.0</ele><time>2026-03-28T15:22:16.65Z</time></trkpt><trkpt lat="39.2939095" lon="16.9670113"><ele>545.5714285714286</ele><time>2026-03-28T15:22:18.645Z</time></trkpt><trkpt lat="39.2938555" lon="16.9670651"><ele>544.1428571428571</ele><time>2026-03-28T15:22:19.651Z</time></trkpt><trkpt lat="39.2938137" lon="16.967137"><ele>542.7142857142857</ele><time>2026-03-28T15:22:20.643Z</time></trkpt><trkpt lat="39.2937805" lon="16.9672206"><ele>541.2857142857142</ele><time>2026-03-28T15:22:21.646Z</time></trkpt><trkpt lat="39.293761" lon="16.9673127"><ele>539.8571428571429</ele><time>2026-03-28T15:22:22.645Z</time></trkpt><trkpt lat="39.2937574" lon="16.9674118"><ele>538.4285714285713</ele><time>2026-03-28T15:22:23.65Z</time></trkpt><trkpt lat="39.2937609" lon="16.9674989"><ele>537.0</ele><time>2026-03-28T15:22:24.645Z</time></trkpt><trkpt lat="39.2937326" lon="16.9676484"><ele>543.3333333333334</ele><time>2026-03-28T15:22:26.648Z</time></trkpt><trkpt lat="39.2936427" lon="16.9677458"><ele>549.6666666666666</ele><time>2026-03-28T15:22:28.645Z</time></trkpt><trkpt lat="39.2935806" lon="16.9677863"><ele>556.0</ele><time>2026-03-28T15:22:29.655Z</time></trkpt><trkpt lat="39.2935112" lon="16.9678414"><ele>562.3333333333333</ele><time>2026-03-28T15:22:30.657Z</time></trkpt><trkpt lat="39.293451" lon="16.9679107"><ele>568.6666666666666</ele><time>2026-03-28T15:22:31.65Z</time></trkpt><trkpt lat="39.2933974" lon="16.9679807"><ele>575.0</ele><time>2026-03-28T15:22:32.647Z</time></trkpt><trkpt lat="39.2933386" lon="16.9680489"><ele>575.0</ele><time>2026-03-28T15:22:33.648Z</time></trkpt><trkpt lat="39.2932734" lon="16.9681102"><ele>575.0</ele><time>2026-03-28T15:22:34.642Z</time></trkpt><trkpt lat="39.2932006" lon="16.9681533"><ele>575.0</ele><time>2026-03-28T15:22:35.657Z</time></trkpt><trkpt lat="39.2931337" lon="16.9681921"><ele>575.0</ele><time>2026-03-28T15:22:36.648Z</time></trkpt><trkpt lat="39.2930262" lon="16.9681948"><ele>575.0</ele><time>2026-03-28T15:22:38.649Z</time></trkpt><trkpt lat="39.2929635" lon="16.9681843"><ele>575.0</ele><time>2026-03-28T15:22:40.642Z</time></trkpt><trkpt lat="39.292934" lon="16.968277"><ele>573.0</ele><time>2026-03-28T15:22:43.651Z</time></trkpt><trkpt lat="39.2929977" lon="16.968396"><ele>571.0</ele><time>2026-03-28T15:22:46.649Z</time></trkpt><trkpt lat="39.2930655" lon="16.96846"><ele>569.0</ele><time>2026-03-28T15:22:47.647Z</time></trkpt><trkpt lat="39.29314" lon="16.9685195"><ele>567.0</ele><time>2026-03-28T15:22:48.647Z</time></trkpt><trkpt lat="39.2932166" lon="16.9685732"><ele>565.0</ele><time>2026-03-28T15:22:49.644Z</time></trkpt><trkpt lat="39.2932899" lon="16.9686242"><ele>569.4</ele><time>2026-03-28T15:22:50.649Z</time></trkpt><trkpt lat="39.2933498" lon="16.9686791"><ele>573.8</ele><time>2026-03-28T15:22:51.646Z</time></trkpt><trkpt lat="39.2933868" lon="16.9687925"><ele>578.2</ele><time>2026-03-28T15:22:53.644Z</time></trkpt><trkpt lat="39.2933362" lon="16.9689085"><ele>582.6</ele><time>2026-03-28T15:22:55.646Z</time></trkpt><trkpt lat="39.2932942" lon="16.9690175"><ele>587.0</ele><time>2026-03-28T15:22:57.647Z</time></trkpt><trkpt lat="39.2932486" lon="16.9691439"><ele>588.0</ele><time>2026-03-28T15:22:59.642Z</time></trkpt><trkpt lat="39.2932132" lon="16.9692917"><ele>589.0</ele><time>2026-03-28T15:23:01.645Z</time></trkpt><trkpt lat="39.2932004" lon="16.9694259"><ele>590.0</ele><time>2026-03-28T15:23:03.645Z</time></trkpt><trkpt lat="39.2931971" lon="16.9695331"><ele>591.0</ele><time>2026-03-28T15:23:05.647Z</time></trkpt><trkpt lat="39.2932004" lon="16.9696243"><ele>592.0</ele><time>2026-03-28T15:23:08.644Z</time></trkpt><trkpt lat="39.2932591" lon="16.9696686"><ele>593.0</ele><time>2026-03-28T15:23:12.645Z</time></trkpt><trkpt lat="39.2933156" lon="16.9695793"><ele>593.0</ele><time>2026-03-28T15:23:15.647Z</time></trkpt><trkpt lat="39.2934017" lon="16.9694471"><ele>593.0</ele><time>2026-03-28T15:23:17.646Z</time></trkpt><trkpt lat="39.2934849" lon="16.9693405"><ele>593.0</ele><time>2026-03-28T15:23:18.647Z</time></trkpt><trkpt lat="39.2935876" lon="16.9692152"><ele>593.0</ele><time>2026-03-28T15:23:19.66Z</time></trkpt><trkpt lat="39.2937059" lon="16.9690769"><ele>591.3333333333333</ele><time>2026-03-28T15:23:20.644Z</time></trkpt><trkpt lat="39.2938396" lon="16.9689303"><ele>589.6666666666666</ele><time>2026-03-28T15:23:21.641Z</time></trkpt><trkpt lat="39.2939847" lon="16.9687779"><ele>588.0</ele><time>2026-03-28T15:23:22.647Z</time></trkpt><trkpt lat="39.2941412" lon="16.9686226"><ele>588.0</ele><time>2026-03-28T15:23:23.649Z</time></trkpt><trkpt lat="39.2943086" lon="16.9684632"><ele>588.0</ele><time>2026-03-28T15:23:24.653Z</time></trkpt><trkpt lat="39.2944736" lon="16.9683045"><ele>588.0</ele><time>2026-03-28T15:23:25.652Z</time></trkpt><trkpt lat="39.294624" lon="16.9681619"><ele>589.25</ele><time>2026-03-28T15:23:26.647Z</time></trkpt><trkpt lat="39.2947577" lon="16.968039"><ele>590.5</ele><time>2026-03-28T15:23:27.659Z</time></trkpt><trkpt lat="39.2948788" lon="16.967931"><ele>591.75</ele><time>2026-03-28T15:23:28.646Z</time></trkpt><trkpt lat="39.2949834" lon="16.9678322"><ele>593.0</ele><time>2026-03-28T15:23:29.644Z</time></trkpt><trkpt lat="39.2950676" lon="16.9677319"><ele>593.0</ele><time>2026-03-28T15:23:30.645Z</time></trkpt><trkpt lat="39.2951358" lon="16.9676409"><ele>593.0</ele><time>2026-03-28T15:23:31.65Z</time></trkpt><trkpt lat="39.2951955" lon="16.9675662"><ele>593.0</ele><time>2026-03-28T15:23:32.648Z</time></trkpt><trkpt lat="39.2952545" lon="16.9674961"><ele>593.0</ele><time>2026-03-28T15:23:33.644Z</time></trkpt><trkpt lat="39.2953306" lon="16.9674203"><ele>593.0</ele><time>2026-03-28T15:23:34.643Z</time></trkpt><trkpt lat="39.2954277" lon="16.9673312"><ele>595.5</ele><time>2026-03-28T15:23:35.643Z</time></trkpt><trkpt lat="39.2955638" lon="16.9672569"><ele>598.0</ele><time>2026-03-28T15:23:36.647Z</time></trkpt><trkpt lat="39.295693" lon="16.9671978"><ele>600.5</ele><time>2026-03-28T15:23:37.647Z</time></trkpt><trkpt lat="39.2957919" lon="16.9671193"><ele>603.0</ele><time>2026-03-28T15:23:38.644Z</time></trkpt><trkpt lat="39.2958893" lon="16.9670423"><ele>603.0</ele><time>2026-03-28T15:23:39.644Z</time></trkpt><trkpt lat="39.2959503" lon="16.9668981"><ele>603.0</ele><time>2026-03-28T15:23:40.643Z</time></trkpt><trkpt lat="39.2960202" lon="16.9667295"><ele>603.0</ele><time>2026-03-28T15:23:41.644Z</time></trkpt><trkpt lat="39.2960782" lon="16.9665501"><ele>603.0</ele><time>2026-03-28T15:23:42.647Z</time></trkpt><trkpt lat="39.2961243" lon="16.9663825"><ele>604.5</ele><time>2026-03-28T15:23:43.647Z</time></trkpt><trkpt lat="39.2961705" lon="16.9662266"><ele>606.0</ele><time>2026-03-28T15:23:44.644Z</time></trkpt><trkpt lat="39.2962176" lon="16.9660849"><ele>607.5</ele><time>2026-03-28T15:23:45.651Z</time></trkpt><trkpt lat="39.2962636" lon="16.9659534"><ele>609.0</ele><time>2026-03-28T15:23:46.643Z</time></trkpt><trkpt lat="39.2962965" lon="16.9658413"><ele>609.0</ele><time>2026-03-28T15:23:47.649Z</time></trkpt><trkpt lat="39.2963234" lon="16.9657561"><ele>609.0</ele><time>2026-03-28T15:23:48.648Z</time></trkpt><trkpt lat="39.2963549" lon="16.9656646"><ele>609.0</ele><time>2026-03-28T15:23:50.645Z</time></trkpt><trkpt lat="39.2964024" lon="16.9655546"><ele>609.0</ele><time>2026-03-28T15:23:54.65Z</time></trkpt><trkpt lat="39.2964467" lon="16.9654885"><ele>609.0</ele><time>2026-03-28T15:23:56.643Z</time></trkpt><trkpt lat="39.2965263" lon="16.9653784"><ele>609.0</ele><time>2026-03-28T15:24:06.652Z</time></trkpt><trkpt lat="39.2965834" lon="16.9652817"><ele>611.6666666666666</ele><time>2026-03-28T15:24:09.647Z</time></trkpt><trkpt lat="39.2966496" lon="16.9652139"><ele>614.3333333333334</ele><time>2026-03-28T15:24:11.646Z</time></trkpt><trkpt lat="39.296741" lon="16.9651688"><ele>617.0</ele><time>2026-03-28T15:24:13.647Z</time></trkpt><trkpt lat="39.2968131" lon="16.965125"><ele>619.6666666666667</ele><time>2026-03-28T15:24:14.648Z</time></trkpt><trkpt lat="39.2968951" lon="16.9650718"><ele>622.3333333333334</ele><time>2026-03-28T15:24:15.651Z</time></trkpt><trkpt lat="39.2969753" lon="16.9650311"><ele>625.0</ele><time>2026-03-28T15:24:16.65Z</time></trkpt><trkpt lat="39.2970632" lon="16.964918"><ele>627.0</ele><time>2026-03-28T15:24:18.648Z</time></trkpt><trkpt lat="39.2970768" lon="16.9647813"><ele>629.0</ele><time>2026-03-28T15:24:20.656Z</time></trkpt><trkpt lat="39.2970427" lon="16.9647116"><ele>631.0</ele><time>2026-03-28T15:24:21.655Z</time></trkpt><trkpt lat="39.2969715" lon="16.9646401"><ele>633.0</ele><time>2026-03-28T15:24:22.649Z</time></trkpt><trkpt lat="39.2968914" lon="16.9645653"><ele>635.0</ele><time>2026-03-28T15:24:23.658Z</time></trkpt><trkpt lat="39.2968139" lon="16.9645195"><ele>637.0</ele><time>2026-03-28T15:24:24.65Z</time></trkpt><trkpt lat="39.296741" lon="16.9644948"><ele>637.0</ele><time>2026-03-28T15:24:25.654Z</time></trkpt><trkpt lat="39.2966735" lon="16.9644853"><ele>637.0</ele><time>2026-03-28T15:24:26.648Z</time></trkpt><trkpt lat="39.296591" lon="16.9645001"><ele>637.0</ele><time>2026-03-28T15:24:28.649Z</time></trkpt><trkpt lat="39.296555" lon="16.9646365"><ele>637.0</ele><time>2026-03-28T15:24:51.653Z</time></trkpt></trkseg><trkseg><trkpt lat="39.2962673" lon="16.9658898"><ele>612.0</ele><time>2026-03-28T15:37:14.658Z</time></trkpt><trkpt lat="39.2962316" lon="16.9660158"><ele>612.0</ele><time>2026-03-28T15:37:17.652Z</time></trkpt><trkpt lat="39.2961949" lon="16.9661237"><ele>612.0</ele><time>2026-03-28T15:37:19.646Z</time></trkpt><trkpt lat="39.2961529" lon="16.9662533"><ele>612.0</ele><time>2026-03-28T15:37:21.647Z</time></trkpt><trkpt lat="39.2961128" lon="16.9663864"><ele>612.0</ele><time>2026-03-28T15:37:23.647Z</time></trkpt><trkpt lat="39.296076" lon="16.9665113"><ele>612.0</ele><time>2026-03-28T15:37:25.644Z</time></trkpt><trkpt lat="39.2960495" lon="16.9666369"><ele>612.0</ele><time>2026-03-28T15:37:27.645Z</time></trkpt><trkpt lat="39.2960373" lon="16.9667382"><ele>612.0</ele><time>2026-03-28T15:37:29.652Z</time></trkpt><trkpt lat="39.2960354" lon="16.9668436"><ele>612.0</ele><time>2026-03-28T15:37:31.647Z</time></trkpt><trkpt lat="39.2960094" lon="16.9669772"><ele>612.0</ele><time>2026-03-28T15:37:33.658Z</time></trkpt><trkpt lat="39.2959779" lon="16.9671086"><ele>610.2</ele><time>2026-03-28T15:37:35.661Z</time></trkpt><trkpt lat="39.2959679" lon="16.9672395"><ele>608.4000000000001</ele><time>2026-03-28T15:37:37.646Z</time></trkpt><trkpt lat="39.2959709" lon="16.9673694"><ele>606.5999999999999</ele><time>2026-03-28T15:37:39.654Z</time></trkpt><trkpt lat="39.2959859" lon="16.967516"><ele>604.8</ele><time>2026-03-28T15:37:41.655Z</time></trkpt><trkpt lat="39.2960077" lon="16.9676591"><ele>603.0</ele><time>2026-03-28T15:37:43.647Z</time></trkpt><trkpt lat="39.2960329" lon="16.9677925"><ele>600.6</ele><time>2026-03-28T15:37:45.639Z</time></trkpt><trkpt lat="39.2960513" lon="16.9679467"><ele>598.1999999999999</ele><time>2026-03-28T15:37:47.644Z</time></trkpt><trkpt lat="39.2960637" lon="16.9680909"><ele>595.8</ele><time>2026-03-28T15:37:49.648Z</time></trkpt><trkpt lat="39.296062" lon="16.9682167"><ele>593.4</ele><time>2026-03-28T15:37:51.648Z</time></trkpt><trkpt lat="39.2960448" lon="16.9683364"><ele>591.0</ele><time>2026-03-28T15:37:53.644Z</time></trkpt><trkpt lat="39.2960506" lon="16.9684565"><ele>588.4</ele><time>2026-03-28T15:37:55.647Z</time></trkpt><trkpt lat="39.2960736" lon="16.9685523"><ele>585.8</ele><time>2026-03-28T15:37:57.646Z</time></trkpt><trkpt lat="39.296125" lon="16.9686852"><ele>583.1999999999999</ele><time>2026-03-28T15:37:59.644Z</time></trkpt><trkpt lat="39.2961523" lon="16.9687609"><ele>580.6</ele><time>2026-03-28T15:38:00.654Z</time></trkpt><trkpt lat="39.2962004" lon="16.9689065"><ele>578.0</ele><time>2026-03-28T15:38:02.646Z</time></trkpt><trkpt lat="39.2962622" lon="16.9690584"><ele>578.0</ele><time>2026-03-28T15:38:04.65Z</time></trkpt><trkpt lat="39.2963734" lon="16.9691406"><ele>578.0</ele><time>2026-03-28T15:38:06.656Z</time></trkpt><trkpt lat="39.2964431" lon="16.9691779"><ele>578.0</ele><time>2026-03-28T15:38:07.65Z</time></trkpt><trkpt lat="39.296545" lon="16.9692232"><ele>578.0</ele><time>2026-03-28T15:38:09.648Z</time></trkpt><trkpt lat="39.2966489" lon="16.9692765"><ele>578.0</ele><time>2026-03-28T15:38:11.648Z</time></trkpt><trkpt lat="39.2967281" lon="16.9693487"><ele>577.3333333333333</ele><time>2026-03-28T15:38:13.652Z</time></trkpt><trkpt lat="39.296821" lon="16.969451"><ele>576.6666666666666</ele><time>2026-03-28T15:38:15.645Z</time></trkpt><trkpt lat="39.2968723" lon="16.9695106"><ele>576.0</ele><time>2026-03-28T15:38:16.646Z</time></trkpt><trkpt lat="39.2969254" lon="16.9695724"><ele>575.3333333333334</ele><time>2026-03-28T15:38:17.642Z</time></trkpt><trkpt lat="39.2969816" lon="16.9696373"><ele>574.6666666666667</ele><time>2026-03-28T15:38:18.641Z</time></trkpt><trkpt lat="39.2970414" lon="16.9697016"><ele>574.0</ele><time>2026-03-28T15:38:19.639Z</time></trkpt><trkpt lat="39.297101" lon="16.9697625"><ele>574.0</ele><time>2026-03-28T15:38:20.645Z</time></trkpt><trkpt lat="39.2971724" lon="16.9698308"><ele>574.0</ele><time>2026-03-28T15:38:21.642Z</time></trkpt><trkpt lat="39.2972416" lon="16.9698988"><ele>574.0</ele><time>2026-03-28T15:38:22.654Z</time></trkpt><trkpt lat="39.2972937" lon="16.9699699"><ele>574.0</ele><time>2026-03-28T15:38:23.653Z</time></trkpt><trkpt lat="39.2973353" lon="16.9700521"><ele>574.0</ele><time>2026-03-28T15:38:24.654Z</time></trkpt><trkpt lat="39.2973647" lon="16.970134"><ele>574.0</ele><time>2026-03-28T15:38:25.645Z</time></trkpt><trkpt lat="39.2973955" lon="16.970221"><ele>573.4285714285714</ele><time>2026-03-28T15:38:26.652Z</time></trkpt><trkpt lat="39.2974314" lon="16.9703074"><ele>572.8571428571429</ele><time>2026-03-28T15:38:27.643Z</time></trkpt><trkpt lat="39.2974637" lon="16.9703921"><ele>572.2857142857142</ele><time>2026-03-28T15:38:28.642Z</time></trkpt><trkpt lat="39.2975033" lon="16.9704767"><ele>571.7142857142858</ele><time>2026-03-28T15:38:29.647Z</time></trkpt><trkpt lat="39.2975424" lon="16.9705642"><ele>571.1428571428571</ele><time>2026-03-28T15:38:30.647Z</time></trkpt><trkpt lat="39.2975772" lon="16.9706444"><ele>570.5714285714286</ele><time>2026-03-28T15:38:31.652Z</time></trkpt><trkpt lat="39.2976155" lon="16.9707199"><ele>570.0</ele><time>2026-03-28T15:38:32.643Z</time></trkpt><trkpt lat="39.2976518" lon="16.9708034"><ele>568.0</ele><time>2026-03-28T15:38:33.667Z</time></trkpt><trkpt lat="39.297681" lon="16.9708858"><ele>566.0</ele><time>2026-03-28T15:38:34.649Z</time></trkpt><trkpt lat="39.2977056" lon="16.9709757"><ele>564.0</ele><time>2026-03-28T15:38:35.645Z</time></trkpt><trkpt lat="39.2977273" lon="16.971078"><ele>562.0</ele><time>2026-03-28T15:38:36.64Z</time></trkpt><trkpt lat="39.2977497" lon="16.971172"><ele>560.0</ele><time>2026-03-28T15:38:37.645Z</time></trkpt><trkpt lat="39.2977717" lon="16.9712701"><ele>558.0</ele><time>2026-03-28T15:38:38.644Z</time></trkpt><trkpt lat="39.2977849" lon="16.9713741"><ele>558.0</ele><time>2026-03-28T15:38:39.647Z</time></trkpt><trkpt lat="39.2978005" lon="16.9714769"><ele>558.0</ele><time>2026-03-28T15:38:40.652Z</time></trkpt><trkpt lat="39.2978162" lon="16.971578"><ele>558.0</ele><time>2026-03-28T15:38:41.643Z</time></trkpt><trkpt lat="39.2978274" lon="16.9716738"><ele>558.0</ele><time>2026-03-28T15:38:42.647Z</time></trkpt><trkpt lat="39.2978362" lon="16.9717709"><ele>558.0</ele><time>2026-03-28T15:38:43.648Z</time></trkpt><trkpt lat="39.2978157" lon="16.9718719"><ele>558.0</ele><time>2026-03-28T15:38:44.645Z</time></trkpt><trkpt lat="39.2977706" lon="16.9719984"><ele>555.1999999999999</ele><time>2026-03-28T15:38:45.64Z</time></trkpt><trkpt lat="39.297726" lon="16.9721041"><ele>552.4</ele><time>2026-03-28T15:38:46.64Z</time></trkpt><trkpt lat="39.2976697" lon="16.9722141"><ele>549.5999999999999</ele><time>2026-03-28T15:38:47.645Z</time></trkpt><trkpt lat="39.2976182" lon="16.9723147"><ele>546.8</ele><time>2026-03-28T15:38:48.643Z</time></trkpt><trkpt lat="39.2975846" lon="16.9724235"><ele>544.0</ele><time>2026-03-28T15:38:49.644Z</time></trkpt><trkpt lat="39.297553" lon="16.9725245"><ele>541.6666666666667</ele><time>2026-03-28T15:38:50.644Z</time></trkpt><trkpt lat="39.2975441" lon="16.9726217"><ele>539.3333333333334</ele><time>2026-03-28T15:38:51.641Z</time></trkpt><trkpt lat="39.2975214" lon="16.9727181"><ele>537.0</ele><time>2026-03-28T15:38:52.645Z</time></trkpt><trkpt lat="39.2974889" lon="16.9728117"><ele>534.6666666666666</ele><time>2026-03-28T15:38:53.638Z</time></trkpt><trkpt lat="39.2974603" lon="16.972893"><ele>532.3333333333333</ele><time>2026-03-28T15:38:54.642Z</time></trkpt><trkpt lat="39.2973742" lon="16.9730066"><ele>530.0</ele><time>2026-03-28T15:38:56.652Z</time></trkpt><trkpt lat="39.2973368" lon="16.9730789"><ele>530.0</ele><time>2026-03-28T15:38:57.651Z</time></trkpt><trkpt lat="39.2973197" lon="16.9731612"><ele>530.0</ele><time>2026-03-28T15:38:58.641Z</time></trkpt><trkpt lat="39.2973182" lon="16.9732436"><ele>530.0</ele><time>2026-03-28T15:38:59.65Z</time></trkpt><trkpt lat="39.2973312" lon="16.9733302"><ele>530.0</ele><time>2026-03-28T15:39:00.649Z</time></trkpt><trkpt lat="39.2973565" lon="16.9734308"><ele>530.0</ele><time>2026-03-28T15:39:01.647Z</time></trkpt><trkpt lat="39.2973898" lon="16.9735227"><ele>530.0</ele><time>2026-03-28T15:39:02.652Z</time></trkpt><trkpt lat="39.2974247" lon="16.9736695"><ele>526.2</ele><time>2026-03-28T15:39:03.642Z</time></trkpt><trkpt lat="39.297461" lon="16.9737975"><ele>522.4</ele><time>2026-03-28T15:39:04.654Z</time></trkpt><trkpt lat="39.2974857" lon="16.9739328"><ele>518.6</ele><time>2026-03-28T15:39:05.651Z</time></trkpt><trkpt lat="39.2975107" lon="16.9740699"><ele>514.8</ele><time>2026-03-28T15:39:06.653Z</time></trkpt><trkpt lat="39.2975332" lon="16.9742165"><ele>511.0</ele><time>2026-03-28T15:39:07.652Z</time></trkpt><trkpt lat="39.297542" lon="16.9743523"><ele>508.6666666666667</ele><time>2026-03-28T15:39:08.644Z</time></trkpt><trkpt lat="39.2975607" lon="16.9744675"><ele>506.33333333333337</ele><time>2026-03-28T15:39:09.642Z</time></trkpt><trkpt lat="39.297602" lon="16.9745681"><ele>504.0</ele><time>2026-03-28T15:39:10.643Z</time></trkpt><trkpt lat="39.2976546" lon="16.9746411"><ele>501.66666666666663</ele><time>2026-03-28T15:39:11.647Z</time></trkpt><trkpt lat="39.2977116" lon="16.9747289"><ele>499.3333333333333</ele><time>2026-03-28T15:39:12.646Z</time></trkpt><trkpt lat="39.2977679" lon="16.9748095"><ele>497.0</ele><time>2026-03-28T15:39:13.652Z</time></trkpt><trkpt lat="39.2978115" lon="16.9748984"><ele>496.99999999999994</ele><time>2026-03-28T15:39:14.643Z</time></trkpt><trkpt lat="39.2978543" lon="16.9749789"><ele>497.0</ele><time>2026-03-28T15:39:15.639Z</time></trkpt><trkpt lat="39.2978882" lon="16.9750694"><ele>497.0</ele><time>2026-03-28T15:39:16.642Z</time></trkpt><trkpt lat="39.2978982" lon="16.9751622"><ele>497.0</ele><time>2026-03-28T15:39:17.647Z</time></trkpt><trkpt lat="39.297903" lon="16.9752765"><ele>496.99999999999994</ele><time>2026-03-28T15:39:18.646Z</time></trkpt><trkpt lat="39.297915" lon="16.9753699"><ele>497.0</ele><time>2026-03-28T15:39:19.641Z</time></trkpt><trkpt lat="39.2979368" lon="16.9754646"><ele>493.6</ele><time>2026-03-28T15:39:20.647Z</time></trkpt><trkpt lat="39.2979949" lon="16.9756242"><ele>490.20000000000005</ele><time>2026-03-28T15:39:22.655Z</time></trkpt><trkpt lat="39.298103" lon="16.9757031"><ele>486.8</ele><time>2026-03-28T15:39:24.646Z</time></trkpt><trkpt lat="39.2981679" lon="16.9757595"><ele>483.4</ele><time>2026-03-28T15:39:25.645Z</time></trkpt><trkpt lat="39.2982398" lon="16.9758275"><ele>480.0</ele><time>2026-03-28T15:39:26.643Z</time></trkpt><trkpt lat="39.2982978" lon="16.9758956"><ele>478.1666666666667</ele><time>2026-03-28T15:39:27.641Z</time></trkpt><trkpt lat="39.2983567" lon="16.9759561"><ele>476.33333333333337</ele><time>2026-03-28T15:39:28.645Z</time></trkpt><trkpt lat="39.2984071" lon="16.976024"><ele>474.5</ele><time>2026-03-28T15:39:29.645Z</time></trkpt><trkpt lat="39.2984503" lon="16.9760886"><ele>472.6666666666667</ele><time>2026-03-28T15:39:30.642Z</time></trkpt><trkpt lat="39.298507" lon="16.9762025"><ele>470.83333333333337</ele><time>2026-03-28T15:39:32.643Z</time></trkpt><trkpt lat="39.298541" lon="16.9763095"><ele>469.0</ele><time>2026-03-28T15:39:34.66Z</time></trkpt><trkpt lat="39.2985535" lon="16.9763905"><ele>469.00000000000006</ele><time>2026-03-28T15:39:36.644Z</time></trkpt><trkpt lat="39.298591" lon="16.9763067"><ele>469.0</ele><time>2026-03-28T15:39:41.653Z</time></trkpt><trkpt lat="39.2985499" lon="16.976214"><ele>469.0</ele><time>2026-03-28T15:39:43.647Z</time></trkpt><trkpt lat="39.298515" lon="16.9761427"><ele>469.0</ele><time>2026-03-28T15:39:46.642Z</time></trkpt><trkpt lat="39.2984581" lon="16.9760242"><ele>469.00000000000006</ele><time>2026-03-28T15:39:49.643Z</time></trkpt><trkpt lat="39.2984228" lon="16.9759511"><ele>469.0</ele><time>2026-03-28T15:39:50.644Z</time></trkpt><trkpt lat="39.2983845" lon="16.9758569"><ele>471.2</ele><time>2026-03-28T15:39:51.645Z</time></trkpt><trkpt lat="39.2983568" lon="16.975748"><ele>473.4</ele><time>2026-03-28T15:39:52.651Z</time></trkpt><trkpt lat="39.2983506" lon="16.9756329"><ele>475.6</ele><time>2026-03-28T15:39:53.641Z</time></trkpt><trkpt lat="39.298369" lon="16.9755066"><ele>477.8</ele><time>2026-03-28T15:39:54.643Z</time></trkpt><trkpt lat="39.2984202" lon="16.9754001"><ele>480.0</ele><time>2026-03-28T15:39:55.641Z</time></trkpt><trkpt lat="39.2984962" lon="16.975302"><ele>480.0</ele><time>2026-03-28T15:39:56.645Z</time></trkpt><trkpt lat="39.2985608" lon="16.9752194"><ele>480.0</ele><time>2026-03-28T15:39:57.645Z</time></trkpt><trkpt lat="39.2986068" lon="16.975142"><ele>480.0</ele><time>2026-03-28T15:39:58.645Z</time></trkpt><trkpt lat="39.2986463" lon="16.9750676"><ele>480.0</ele><time>2026-03-28T15:39:59.647Z</time></trkpt><trkpt lat="39.2986187" lon="16.9749793"><ele>480.0</ele><time>2026-03-28T15:40:00.643Z</time></trkpt><trkpt lat="39.298591" lon="16.974893"><ele>480.0</ele><time>2026-03-28T15:40:01.647Z</time></trkpt><trkpt lat="39.2985449" lon="16.9748288"><ele>481.14285714285717</ele><time>2026-03-28T15:40:02.648Z</time></trkpt><trkpt lat="39.2984837" lon="16.9747697"><ele>482.2857142857142</ele><time>2026-03-28T15:40:03.643Z</time></trkpt><trkpt lat="39.2984228" lon="16.9747078"><ele>483.4285714285714</ele><time>2026-03-28T15:40:04.641Z</time></trkpt><trkpt lat="39.2983696" lon="16.9746436"><ele>484.57142857142856</ele><time>2026-03-28T15:40:05.642Z</time></trkpt><trkpt lat="39.2983168" lon="16.9745829"><ele>485.71428571428567</ele><time>2026-03-28T15:40:06.644Z</time></trkpt><trkpt lat="39.2982748" lon="16.9745193"><ele>486.8571428571428</ele><time>2026-03-28T15:40:07.647Z</time></trkpt><trkpt lat="39.2982271" lon="16.9744569"><ele>487.99999999999994</ele><time>2026-03-28T15:40:08.645Z</time></trkpt><trkpt lat="39.2981656" lon="16.9743903"><ele>487.99999999999994</ele><time>2026-03-28T15:40:09.639Z</time></trkpt><trkpt lat="39.2981025" lon="16.9743172"><ele>488.0</ele><time>2026-03-28T15:40:10.646Z</time></trkpt><trkpt lat="39.298041" lon="16.9742465"><ele>488.0</ele><time>2026-03-28T15:40:11.644Z</time></trkpt><trkpt lat="39.2980207" lon="16.9741455"><ele>488.0</ele><time>2026-03-28T15:40:12.648Z</time></trkpt><trkpt lat="39.2980503" lon="16.9740675"><ele>487.99999999999994</ele><time>2026-03-28T15:40:13.642Z</time></trkpt><trkpt lat="39.2980823" lon="16.9739954"><ele>488.0</ele><time>2026-03-28T15:40:14.644Z</time></trkpt><trkpt lat="39.2981819" lon="16.9739479"><ele>487.79999999999995</ele><time>2026-03-28T15:40:16.647Z</time></trkpt><trkpt lat="39.2982923" lon="16.9738906"><ele>487.59999999999997</ele><time>2026-03-28T15:40:18.643Z</time></trkpt><trkpt lat="39.2984118" lon="16.973816"><ele>487.40000000000003</ele><time>2026-03-28T15:40:20.648Z</time></trkpt><trkpt lat="39.2984826" lon="16.973779"><ele>487.20000000000005</ele><time>2026-03-28T15:40:21.646Z</time></trkpt><trkpt lat="39.2985607" lon="16.973736"><ele>487.0</ele><time>2026-03-28T15:40:22.642Z</time></trkpt><trkpt lat="39.2986431" lon="16.9736953"><ele>487.00000000000006</ele><time>2026-03-28T15:40:23.647Z</time></trkpt><trkpt lat="39.2987276" lon="16.9736587"><ele>487.0</ele><time>2026-03-28T15:40:24.637Z</time></trkpt><trkpt lat="39.2988058" lon="16.9736239"><ele>487.0</ele><time>2026-03-28T15:40:25.64Z</time></trkpt><trkpt lat="39.2988831" lon="16.9736042"><ele>487.0</ele><time>2026-03-28T15:40:26.648Z</time></trkpt><trkpt lat="39.2989569" lon="16.9735788"><ele>487.00000000000006</ele><time>2026-03-28T15:40:27.642Z</time></trkpt><trkpt lat="39.2990366" lon="16.973581"><ele>487.0</ele><time>2026-03-28T15:40:28.643Z</time></trkpt><trkpt lat="39.2991124" lon="16.9736091"><ele>484.50000000000006</ele><time>2026-03-28T15:40:29.643Z</time></trkpt><trkpt lat="39.2991794" lon="16.9736337"><ele>482.0</ele><time>2026-03-28T15:40:30.653Z</time></trkpt><trkpt lat="39.2993046" lon="16.9736366"><ele>479.5</ele><time>2026-03-28T15:40:32.651Z</time></trkpt><trkpt lat="39.2993675" lon="16.973601"><ele>477.0</ele><time>2026-03-28T15:40:33.643Z</time></trkpt><trkpt lat="39.2994308" lon="16.973545"><ele>474.50000000000006</ele><time>2026-03-28T15:40:34.646Z</time></trkpt><trkpt lat="39.2994923" lon="16.9734887"><ele>472.0</ele><time>2026-03-28T15:40:35.641Z</time></trkpt><trkpt lat="39.299554" lon="16.9734323"><ele>472.00000000000006</ele><time>2026-03-28T15:40:36.646Z</time></trkpt><trkpt lat="39.2996169" lon="16.9733771"><ele>472.0</ele><time>2026-03-28T15:40:37.643Z</time></trkpt><trkpt lat="39.2996762" lon="16.9733219"><ele>472.0</ele><time>2026-03-28T15:40:38.645Z</time></trkpt><trkpt lat="39.2997276" lon="16.9732677"><ele>472.0</ele><time>2026-03-28T15:40:39.647Z</time></trkpt><trkpt lat="39.2998013" lon="16.9732126"><ele>472.00000000000006</ele><time>2026-03-28T15:40:41.64Z</time></trkpt><trkpt lat="39.2998831" lon="16.9732105"><ele>472.0</ele><time>2026-03-28T15:40:44.647Z</time></trkpt><trkpt lat="39.2999599" lon="16.9732546"><ele>474.40000000000003</ele><time>2026-03-28T15:40:46.643Z</time></trkpt><trkpt lat="39.3000332" lon="16.9732966"><ele>476.80000000000007</ele><time>2026-03-28T15:40:48.643Z</time></trkpt><trkpt lat="39.3001228" lon="16.9733205"><ele>479.2</ele><time>2026-03-28T15:40:50.651Z</time></trkpt><trkpt lat="39.3002389" lon="16.9733181"><ele>481.6</ele><time>2026-03-28T15:40:52.643Z</time></trkpt><trkpt lat="39.3003441" lon="16.9732584"><ele>484.0</ele><time>2026-03-28T15:40:54.65Z</time></trkpt><trkpt lat="39.3004018" lon="16.973146"><ele>484.0</ele><time>2026-03-28T15:40:56.643Z</time></trkpt><trkpt lat="39.3004357" lon="16.9730202"><ele>484.0</ele><time>2026-03-28T15:40:58.647Z</time></trkpt><trkpt lat="39.3005001" lon="16.9728974"><ele>484.0</ele><time>2026-03-28T15:41:00.648Z</time></trkpt><trkpt lat="39.3005751" lon="16.9727616"><ele>484.0</ele><time>2026-03-28T15:41:02.647Z</time></trkpt><trkpt lat="39.3005994" lon="16.9726109"><ele>484.0</ele><time>2026-03-28T15:41:04.645Z</time></trkpt><trkpt lat="39.300558" lon="16.9725417"><ele>484.0</ele><time>2026-03-28T15:41:05.645Z</time></trkpt><trkpt lat="39.3004944" lon="16.9724758"><ele>484.0</ele><time>2026-03-28T15:41:06.647Z</time></trkpt><trkpt lat="39.3004176" lon="16.9723954"><ele>484.0</ele><time>2026-03-28T15:41:07.649Z</time></trkpt><trkpt lat="39.300329" lon="16.9723003"><ele>484.0</ele><time>2026-03-28T15:41:08.641Z</time></trkpt><trkpt lat="39.3002255" lon="16.972199"><ele>483.4</ele><time>2026-03-28T15:41:09.641Z</time></trkpt><trkpt lat="39.3001318" lon="16.9721176"><ele>482.79999999999995</ele><time>2026-03-28T15:41:10.65Z</time></trkpt><trkpt lat="39.300052" lon="16.9720246"><ele>482.20000000000005</ele><time>2026-03-28T15:41:11.647Z</time></trkpt><trkpt lat="39.2999875" lon="16.9719207"><ele>481.6</ele><time>2026-03-28T15:41:12.65Z</time></trkpt><trkpt lat="39.2999645" lon="16.9717868"><ele>481.0</ele><time>2026-03-28T15:41:13.641Z</time></trkpt><trkpt lat="39.299946" lon="16.9716304"><ele>481.00000000000006</ele><time>2026-03-28T15:41:14.645Z</time></trkpt><trkpt lat="39.2999276" lon="16.9714876"><ele>481.0</ele><time>2026-03-28T15:41:15.643Z</time></trkpt><trkpt lat="39.2999145" lon="16.9713789"><ele>481.0</ele><time>2026-03-28T15:41:16.641Z</time></trkpt><trkpt lat="39.2998997" lon="16.9712713"><ele>481.0</ele><time>2026-03-28T15:41:17.641Z</time></trkpt><trkpt lat="39.2999413" lon="16.9711862"><ele>481.00000000000006</ele><time>2026-03-28T15:41:18.647Z</time></trkpt><trkpt lat="39.3000142" lon="16.971164"><ele>481.0</ele><time>2026-03-28T15:41:19.651Z</time></trkpt><trkpt lat="39.3000892" lon="16.9711734"><ele>481.0</ele><time>2026-03-28T15:41:20.643Z</time></trkpt><trkpt lat="39.3001804" lon="16.9711734"><ele>481.0</ele><time>2026-03-28T15:41:21.649Z</time></trkpt><trkpt lat="39.3002712" lon="16.9712051"><ele>481.0</ele><time>2026-03-28T15:41:22.642Z</time></trkpt><trkpt lat="39.3003662" lon="16.9712421"><ele>481.0</ele><time>2026-03-28T15:41:23.648Z</time></trkpt><trkpt lat="39.3004646" lon="16.9713237"><ele>481.0</ele><time>2026-03-28T15:41:24.647Z</time></trkpt><trkpt lat="39.3005783" lon="16.9713901"><ele>479.5</ele><time>2026-03-28T15:41:25.656Z</time></trkpt><trkpt lat="39.3007076" lon="16.9714561"><ele>478.0</ele><time>2026-03-28T15:41:26.639Z</time></trkpt><trkpt lat="39.3008335" lon="16.9715231"><ele>476.5</ele><time>2026-03-28T15:41:27.643Z</time></trkpt><trkpt lat="39.3009453" lon="16.9716088"><ele>475.0</ele><time>2026-03-28T15:41:28.64Z</time></trkpt><trkpt lat="39.3010536" lon="16.9716926"><ele>472.5</ele><time>2026-03-28T15:41:29.64Z</time></trkpt><trkpt lat="39.3011393" lon="16.9718309"><ele>470.0</ele><time>2026-03-28T15:41:30.646Z</time></trkpt><trkpt lat="39.3012096" lon="16.9719854"><ele>467.5</ele><time>2026-03-28T15:41:31.643Z</time></trkpt><trkpt lat="39.3012821" lon="16.9721229"><ele>465.0</ele><time>2026-03-28T15:41:32.643Z</time></trkpt><trkpt lat="39.3013523" lon="16.9722139"><ele>462.1666666666667</ele><time>2026-03-28T15:41:33.649Z</time></trkpt><trkpt lat="39.3014279" lon="16.9722627"><ele>459.33333333333337</ele><time>2026-03-28T15:41:34.641Z</time></trkpt><trkpt lat="39.3014952" lon="16.9722599"><ele>456.5</ele><time>2026-03-28T15:41:35.646Z</time></trkpt><trkpt lat="39.3015857" lon="16.9721589"><ele>453.6666666666667</ele><time>2026-03-28T15:41:37.649Z</time></trkpt><trkpt lat="39.3016146" lon="16.9720558"><ele>450.83333333333337</ele><time>2026-03-28T15:41:38.642Z</time></trkpt><trkpt lat="39.3016508" lon="16.9719485"><ele>448.0</ele><time>2026-03-28T15:41:39.643Z</time></trkpt><trkpt lat="39.3016833" lon="16.9718279"><ele>448.0</ele><time>2026-03-28T15:41:40.648Z</time></trkpt><trkpt lat="39.3017162" lon="16.9717046"><ele>447.99999999999994</ele><time>2026-03-28T15:41:41.642Z</time></trkpt><trkpt lat="39.3017489" lon="16.971581"><ele>447.99999999999994</ele><time>2026-03-28T15:41:42.642Z</time></trkpt><trkpt lat="39.3017744" lon="16.9714586"><ele>448.0</ele><time>2026-03-28T15:41:43.65Z</time></trkpt><trkpt lat="39.3017921" lon="16.9713399"><ele>448.0</ele><time>2026-03-28T15:41:44.647Z</time></trkpt><trkpt lat="39.3018034" lon="16.9712195"><ele>452.59999999999997</ele><time>2026-03-28T15:41:45.642Z</time></trkpt><trkpt lat="39.3018018" lon="16.9710988"><ele>457.19999999999993</ele><time>2026-03-28T15:41:46.644Z</time></trkpt><trkpt lat="39.3017999" lon="16.9709723"><ele>461.8</ele><time>2026-03-28T15:41:47.643Z</time></trkpt><trkpt lat="39.3017713" lon="16.9708251"><ele>466.4</ele><time>2026-03-28T15:41:48.647Z</time></trkpt><trkpt lat="39.3017379" lon="16.9706698"><ele>471.0</ele><time>2026-03-28T15:41:49.644Z</time></trkpt><trkpt lat="39.3017364" lon="16.9705246"><ele>472.20000000000005</ele><time>2026-03-28T15:41:50.648Z</time></trkpt><trkpt lat="39.3017429" lon="16.9704199"><ele>473.40000000000003</ele><time>2026-03-28T15:41:51.644Z</time></trkpt><trkpt lat="39.3017212" lon="16.9703308"><ele>474.6</ele><time>2026-03-28T15:41:52.643Z</time></trkpt><trkpt lat="39.3016501" lon="16.9702506"><ele>475.8</ele><time>2026-03-28T15:41:53.642Z</time></trkpt><trkpt lat="39.3015687" lon="16.9701502"><ele>477.0</ele><time>2026-03-28T15:41:54.638Z</time></trkpt><trkpt lat="39.3015204" lon="16.9700104"><ele>477.0</ele><time>2026-03-28T15:41:55.651Z</time></trkpt><trkpt lat="39.3014866" lon="16.9698744"><ele>477.00000000000006</ele><time>2026-03-28T15:41:56.644Z</time></trkpt><trkpt lat="39.3014897" lon="16.9697529"><ele>477.00000000000006</ele><time>2026-03-28T15:41:57.642Z</time></trkpt><trkpt lat="39.3015067" lon="16.9696182"><ele>477.0</ele><time>2026-03-28T15:41:58.647Z</time></trkpt><trkpt lat="39.3015452" lon="16.9694676"><ele>477.0</ele><time>2026-03-28T15:41:59.646Z</time></trkpt><trkpt lat="39.3015701" lon="16.9693206"><ele>477.20000000000005</ele><time>2026-03-28T15:42:00.644Z</time></trkpt><trkpt lat="39.3015905" lon="16.9691746"><ele>477.40000000000003</ele><time>2026-03-28T15:42:01.642Z</time></trkpt><trkpt lat="39.3015942" lon="16.9690206"><ele>477.59999999999997</ele><time>2026-03-28T15:42:02.647Z</time></trkpt><trkpt lat="39.3015796" lon="16.9688816"><ele>477.79999999999995</ele><time>2026-03-28T15:42:03.646Z</time></trkpt><trkpt lat="39.3015431" lon="16.9687755"><ele>478.0</ele><time>2026-03-28T15:42:04.647Z</time></trkpt><trkpt lat="39.3014821" lon="16.9686798"><ele>478.0</ele><time>2026-03-28T15:42:05.644Z</time></trkpt><trkpt lat="39.3014205" lon="16.9685831"><ele>477.99999999999994</ele><time>2026-03-28T15:42:06.641Z</time></trkpt><trkpt lat="39.3013966" lon="16.9684662"><ele>477.99999999999994</ele><time>2026-03-28T15:42:07.644Z</time></trkpt><trkpt lat="39.3013741" lon="16.9683432"><ele>478.0</ele><time>2026-03-28T15:42:08.646Z</time></trkpt><trkpt lat="39.3013991" lon="16.968206"><ele>478.0</ele><time>2026-03-28T15:42:09.647Z</time></trkpt><trkpt lat="39.3014483" lon="16.9680778"><ele>477.4</ele><time>2026-03-28T15:42:10.65Z</time></trkpt><trkpt lat="39.3015206" lon="16.9679735"><ele>476.79999999999995</ele><time>2026-03-28T15:42:11.651Z</time></trkpt><trkpt lat="39.3016101" lon="16.967901"><ele>476.2</ele><time>2026-03-28T15:42:12.653Z</time></trkpt><trkpt lat="39.301684" lon="16.967826"><ele>475.6</ele><time>2026-03-28T15:42:13.648Z</time></trkpt><trkpt lat="39.30173" lon="16.9677261"><ele>475.0</ele><time>2026-03-28T15:42:14.646Z</time></trkpt><trkpt lat="39.3017375" lon="16.9676135"><ele>475.00000000000006</ele><time>2026-03-28T15:42:15.645Z</time></trkpt><trkpt lat="39.3017927" lon="16.967539"><ele>475.0</ele><time>2026-03-28T15:42:16.643Z</time></trkpt><trkpt lat="39.3018547" lon="16.9675168"><ele>475.0</ele><time>2026-03-28T15:42:17.642Z</time></trkpt><trkpt lat="39.301926" lon="16.9675329"><ele>475.0</ele><time>2026-03-28T15:42:18.642Z</time></trkpt><trkpt lat="39.3020101" lon="16.9675543"><ele>475.00000000000006</ele><time>2026-03-28T15:42:19.642Z</time></trkpt><trkpt lat="39.3020993" lon="16.9675981"><ele>475.0</ele><time>2026-03-28T15:42:20.653Z</time></trkpt><trkpt lat="39.3021955" lon="16.9676134"><ele>474.4</ele><time>2026-03-28T15:42:21.646Z</time></trkpt><trkpt lat="39.3022958" lon="16.9676285"><ele>473.8</ele><time>2026-03-28T15:42:22.642Z</time></trkpt><trkpt lat="39.3023971" lon="16.9675852"><ele>473.20000000000005</ele><time>2026-03-28T15:42:23.643Z</time></trkpt><trkpt lat="39.3024935" lon="16.9675364"><ele>472.6</ele><time>2026-03-28T15:42:24.645Z</time></trkpt><trkpt lat="39.3025859" lon="16.9674868"><ele>472.0</ele><time>2026-03-28T15:42:25.656Z</time></trkpt><trkpt lat="39.3026775" lon="16.9674321"><ele>472.0</ele><time>2026-03-28T15:42:26.65Z</time></trkpt><trkpt lat="39.3027588" lon="16.9673446"><ele>472.00000000000006</ele><time>2026-03-28T15:42:27.64Z</time></trkpt><trkpt lat="39.3028405" lon="16.9672483"><ele>472.00000000000006</ele><time>2026-03-28T15:42:28.651Z</time></trkpt><trkpt lat="39.3029314" lon="16.9671647"><ele>472.0</ele><time>2026-03-28T15:42:29.647Z</time></trkpt><trkpt lat="39.3030159" lon="16.9670863"><ele>472.0</ele><time>2026-03-28T15:42:30.65Z</time></trkpt><trkpt lat="39.3030815" lon="16.9670004"><ele>470.6666666666667</ele><time>2026-03-28T15:42:31.651Z</time></trkpt><trkpt lat="39.3031161" lon="16.9669041"><ele>469.33333333333337</ele><time>2026-03-28T15:42:32.651Z</time></trkpt><trkpt lat="39.3031475" lon="16.966808"><ele>468.0</ele><time>2026-03-28T15:42:33.649Z</time></trkpt><trkpt lat="39.303133" lon="16.9666876"><ele>466.66666666666663</ele><time>2026-03-28T15:42:34.644Z</time></trkpt><trkpt lat="39.3031343" lon="16.9665679"><ele>465.3333333333333</ele><time>2026-03-28T15:42:35.644Z</time></trkpt><trkpt lat="39.3031658" lon="16.9664814"><ele>464.0</ele><time>2026-03-28T15:42:36.65Z</time></trkpt><trkpt lat="39.3032371" lon="16.9664056"><ele>464.0</ele><time>2026-03-28T15:42:38.647Z</time></trkpt><trkpt lat="39.3033121" lon="16.9665475"><ele>464.0</ele><time>2026-03-28T15:42:40.642Z</time></trkpt><trkpt lat="39.3033153" lon="16.9666932"><ele>464.0</ele><time>2026-03-28T15:42:41.642Z</time></trkpt><trkpt lat="39.3033383" lon="16.966853"><ele>464.0</ele><time>2026-03-28T15:42:42.64Z</time></trkpt><trkpt lat="39.3033548" lon="16.967006"><ele>462.4</ele><time>2026-03-28T15:42:43.646Z</time></trkpt><trkpt lat="39.3033713" lon="16.9671452"><ele>460.79999999999995</ele><time>2026-03-28T15:42:44.648Z</time></trkpt><trkpt lat="39.3033956" lon="16.9672549"><ele>459.20000000000005</ele><time>2026-03-28T15:42:45.641Z</time></trkpt><trkpt lat="39.3034378" lon="16.9673311"><ele>457.6</ele><time>2026-03-28T15:42:46.655Z</time></trkpt><trkpt lat="39.3035144" lon="16.9673636"><ele>456.0</ele><time>2026-03-28T15:42:47.646Z</time></trkpt><trkpt lat="39.3036088" lon="16.9674085"><ele>456.0</ele><time>2026-03-28T15:42:48.647Z</time></trkpt><trkpt lat="39.3036858" lon="16.9674566"><ele>456.0</ele><time>2026-03-28T15:42:49.651Z</time></trkpt><trkpt lat="39.3037252" lon="16.9675723"><ele>456.0</ele><time>2026-03-28T15:42:50.646Z</time></trkpt><trkpt lat="39.3037649" lon="16.9677075"><ele>456.0</ele><time>2026-03-28T15:42:51.644Z</time></trkpt><trkpt lat="39.303805" lon="16.9678448"><ele>456.0</ele><time>2026-03-28T15:42:52.645Z</time></trkpt><trkpt lat="39.3038708" lon="16.9679312"><ele>458.8</ele><time>2026-03-28T15:42:53.645Z</time></trkpt><trkpt lat="39.3039435" lon="16.968027"><ele>461.6</ele><time>2026-03-28T15:42:54.639Z</time></trkpt><trkpt lat="39.3040388" lon="16.9680926"><ele>464.4</ele><time>2026-03-28T15:42:55.649Z</time></trkpt><trkpt lat="39.3040984" lon="16.968175"><ele>467.2</ele><time>2026-03-28T15:42:56.648Z</time></trkpt><trkpt lat="39.3040934" lon="16.9682727"><ele>470.0</ele><time>2026-03-28T15:42:57.645Z</time></trkpt><trkpt lat="39.3040885" lon="16.9683849"><ele>470.0</ele><time>2026-03-28T15:42:58.65Z</time></trkpt><trkpt lat="39.3041256" lon="16.9684949"><ele>470.0</ele><time>2026-03-28T15:42:59.643Z</time></trkpt><trkpt lat="39.3042024" lon="16.9685996"><ele>470.0</ele><time>2026-03-28T15:43:00.647Z</time></trkpt><trkpt lat="39.3042946" lon="16.968697"><ele>470.0</ele><time>2026-03-28T15:43:01.642Z</time></trkpt><trkpt lat="39.3043774" lon="16.9687844"><ele>470.0</ele><time>2026-03-28T15:43:02.646Z</time></trkpt><trkpt lat="39.3044254" lon="16.9688691"><ele>469.99999999999994</ele><time>2026-03-28T15:43:03.642Z</time></trkpt><trkpt lat="39.3044356" lon="16.9689573"><ele>470.0</ele><time>2026-03-28T15:43:04.646Z</time></trkpt><trkpt lat="39.3043597" lon="16.969095"><ele>470.0</ele><time>2026-03-28T15:43:06.643Z</time></trkpt><trkpt lat="39.3042852" lon="16.9691378"><ele>470.0</ele><time>2026-03-28T15:43:07.646Z</time></trkpt><trkpt lat="39.3042417" lon="16.9692191"><ele>469.99999999999994</ele><time>2026-03-28T15:43:08.649Z</time></trkpt><trkpt lat="39.3042309" lon="16.9693335"><ele>470.0</ele><time>2026-03-28T15:43:09.645Z</time></trkpt><trkpt lat="39.3042566" lon="16.9694459"><ele>469.8</ele><time>2026-03-28T15:43:10.65Z</time></trkpt><trkpt lat="39.3043212" lon="16.9695312"><ele>469.6</ele><time>2026-03-28T15:43:11.653Z</time></trkpt><trkpt lat="39.304411" lon="16.9695699"><ele>469.4</ele><time>2026-03-28T15:43:12.648Z</time></trkpt><trkpt lat="39.3045091" lon="16.9695702"><ele>469.2</ele><time>2026-03-28T15:43:13.648Z</time></trkpt><trkpt lat="39.3045994" lon="16.9695967"><ele>469.0</ele><time>2026-03-28T15:43:14.644Z</time></trkpt><trkpt lat="39.304658" lon="16.9696673"><ele>469.0</ele><time>2026-03-28T15:43:15.642Z</time></trkpt><trkpt lat="39.304706" lon="16.9697556"><ele>469.0</ele><time>2026-03-28T15:43:16.646Z</time></trkpt><trkpt lat="39.3047772" lon="16.9698151"><ele>469.0</ele><time>2026-03-28T15:43:17.644Z</time></trkpt><trkpt lat="39.3048672" lon="16.9698463"><ele>469.0</ele><time>2026-03-28T15:43:18.648Z</time></trkpt><trkpt lat="39.3049656" lon="16.9698681"><ele>469.0</ele><time>2026-03-28T15:43:19.643Z</time></trkpt><trkpt lat="39.3050582" lon="16.969904"><ele>471.2857142857143</ele><time>2026-03-28T15:43:20.641Z</time></trkpt><trkpt lat="39.3051244" lon="16.9699659"><ele>473.57142857142856</ele><time>2026-03-28T15:43:21.643Z</time></trkpt><trkpt lat="39.305173" lon="16.9700253"><ele>475.8571428571429</ele><time>2026-03-28T15:43:22.644Z</time></trkpt><trkpt lat="39.3052258" lon="16.9700897"><ele>478.14285714285717</ele><time>2026-03-28T15:43:24.644Z</time></trkpt><trkpt lat="39.3052574" lon="16.9701742"><ele>480.42857142857144</ele><time>2026-03-28T15:44:09.646Z</time></trkpt><trkpt lat="39.305226" lon="16.9702784"><ele>482.7142857142858</ele><time>2026-03-28T15:44:11.657Z</time></trkpt><trkpt lat="39.3051896" lon="16.9703511"><ele>485.00000000000006</ele><time>2026-03-28T15:44:12.652Z</time></trkpt><trkpt lat="39.3051263" lon="16.9704771"><ele>485.1428571428572</ele><time>2026-03-28T15:44:14.652Z</time></trkpt><trkpt lat="39.305094" lon="16.9705507"><ele>485.28571428571433</ele><time>2026-03-28T15:44:15.646Z</time></trkpt><trkpt lat="39.3050618" lon="16.9706359"><ele>485.42857142857144</ele><time>2026-03-28T15:44:16.645Z</time></trkpt><trkpt lat="39.3050355" lon="16.9707238"><ele>485.5714285714286</ele><time>2026-03-28T15:44:17.646Z</time></trkpt><trkpt lat="39.3050203" lon="16.9708183"><ele>485.7142857142858</ele><time>2026-03-28T15:44:18.657Z</time></trkpt><trkpt lat="39.3050207" lon="16.9709203"><ele>485.85714285714283</ele><time>2026-03-28T15:44:19.646Z</time></trkpt><trkpt lat="39.3050217" lon="16.9710275"><ele>486.0</ele><time>2026-03-28T15:44:20.65Z</time></trkpt><trkpt lat="39.3050714" lon="16.9711396"><ele>486.0</ele><time>2026-03-28T15:44:21.641Z</time></trkpt><trkpt lat="39.3051555" lon="16.9712521"><ele>486.0</ele><time>2026-03-28T15:44:22.647Z</time></trkpt><trkpt lat="39.3052576" lon="16.9713489"><ele>486.0</ele><time>2026-03-28T15:44:23.646Z</time></trkpt><trkpt lat="39.30536" lon="16.9714202"><ele>486.0</ele><time>2026-03-28T15:44:24.646Z</time></trkpt><trkpt lat="39.305458" lon="16.9714674"><ele>486.0</ele><time>2026-03-28T15:44:25.643Z</time></trkpt><trkpt lat="39.3055454" lon="16.9714959"><ele>486.0</ele><time>2026-03-28T15:44:26.643Z</time></trkpt><trkpt lat="39.3056235" lon="16.9715305"><ele>486.0</ele><time>2026-03-28T15:44:27.645Z</time></trkpt><trkpt lat="39.3057098" lon="16.9715808"><ele>486.0</ele><time>2026-03-28T15:44:28.64Z</time></trkpt><trkpt lat="39.3058035" lon="16.9716634"><ele>486.0</ele><time>2026-03-28T15:44:29.643Z</time></trkpt><trkpt lat="39.305897" lon="16.9717693"><ele>486.8</ele><time>2026-03-28T15:44:30.648Z</time></trkpt><trkpt lat="39.3059785" lon="16.9718701"><ele>487.6</ele><time>2026-03-28T15:44:31.66Z</time></trkpt><trkpt lat="39.3060477" lon="16.9719646"><ele>488.4</ele><time>2026-03-28T15:44:32.651Z</time></trkpt><trkpt lat="39.3061119" lon="16.9720523"><ele>489.2</ele><time>2026-03-28T15:44:33.644Z</time></trkpt><trkpt lat="39.3061813" lon="16.9721374"><ele>490.0</ele><time>2026-03-28T15:44:34.648Z</time></trkpt><trkpt lat="39.3062575" lon="16.9722181"><ele>490.0</ele><time>2026-03-28T15:44:35.65Z</time></trkpt><trkpt lat="39.3063384" lon="16.9722912"><ele>490.0</ele><time>2026-03-28T15:44:36.64Z</time></trkpt><trkpt lat="39.3064242" lon="16.9723592"><ele>490.0</ele><time>2026-03-28T15:44:37.654Z</time></trkpt><trkpt lat="39.3065075" lon="16.9724151"><ele>490.0</ele><time>2026-03-28T15:44:38.647Z</time></trkpt><trkpt lat="39.3065924" lon="16.9724675"><ele>490.0</ele><time>2026-03-28T15:44:39.642Z</time></trkpt><trkpt lat="39.3066795" lon="16.9725199"><ele>487.6</ele><time>2026-03-28T15:44:40.643Z</time></trkpt><trkpt lat="39.3067702" lon="16.972572"><ele>485.2</ele><time>2026-03-28T15:44:41.651Z</time></trkpt><trkpt lat="39.3068483" lon="16.9726174"><ele>482.79999999999995</ele><time>2026-03-28T15:44:42.645Z</time></trkpt><trkpt lat="39.3069187" lon="16.9726607"><ele>480.4</ele><time>2026-03-28T15:44:43.652Z</time></trkpt><trkpt lat="39.3069851" lon="16.9727"><ele>478.0</ele><time>2026-03-28T15:44:44.652Z</time></trkpt><trkpt lat="39.3070947" lon="16.9727651"><ele>478.00000000000006</ele><time>2026-03-28T15:44:46.657Z</time></trkpt><trkpt lat="39.3071951" lon="16.9727931"><ele>478.0</ele><time>2026-03-28T15:44:48.648Z</time></trkpt><trkpt lat="39.3072776" lon="16.9727543"><ele>478.0</ele><time>2026-03-28T15:44:50.642Z</time></trkpt><trkpt lat="39.3073405" lon="16.9726799"><ele>478.0</ele><time>2026-03-28T15:44:53.653Z</time></trkpt><trkpt lat="39.3073927" lon="16.9726168"><ele>478.00000000000006</ele><time>2026-03-28T15:44:55.647Z</time></trkpt><trkpt lat="39.307483" lon="16.9725577"><ele>478.0</ele><time>2026-03-28T15:44:57.653Z</time></trkpt><trkpt lat="39.307565" lon="16.9725383"><ele>482.59999999999997</ele><time>2026-03-28T15:44:59.654Z</time></trkpt><trkpt lat="39.3076438" lon="16.9725455"><ele>487.19999999999993</ele><time>2026-03-28T15:45:01.645Z</time></trkpt><trkpt lat="39.3077371" lon="16.9725792"><ele>491.8</ele><time>2026-03-28T15:45:03.646Z</time></trkpt><trkpt lat="39.3078263" lon="16.9726121"><ele>496.4</ele><time>2026-03-28T15:45:05.647Z</time></trkpt><trkpt lat="39.3079223" lon="16.9726245"><ele>501.0</ele><time>2026-03-28T15:45:07.647Z</time></trkpt><trkpt lat="39.3080132" lon="16.9725908"><ele>501.20000000000005</ele><time>2026-03-28T15:45:09.644Z</time></trkpt><trkpt lat="39.3080813" lon="16.9725188"><ele>501.40000000000003</ele><time>2026-03-28T15:45:11.644Z</time></trkpt><trkpt lat="39.3081353" lon="16.9724238"><ele>501.6</ele><time>2026-03-28T15:45:13.651Z</time></trkpt><trkpt lat="39.3082069" lon="16.9723054"><ele>501.8</ele><time>2026-03-28T15:45:15.65Z</time></trkpt><trkpt lat="39.3083149" lon="16.9722187"><ele>502.0</ele><time>2026-03-28T15:45:17.646Z</time></trkpt><trkpt lat="39.3083874" lon="16.9722032"><ele>502.00000000000006</ele><time>2026-03-28T15:45:18.646Z</time></trkpt><trkpt lat="39.3084665" lon="16.972215"><ele>502.0</ele><time>2026-03-28T15:45:19.648Z</time></trkpt><trkpt lat="39.3085452" lon="16.9722572"><ele>502.0</ele><time>2026-03-28T15:45:20.641Z</time></trkpt><trkpt lat="39.3086203" lon="16.9723108"><ele>502.0</ele><time>2026-03-28T15:45:21.644Z</time></trkpt><trkpt lat="39.3086993" lon="16.9723445"><ele>502.00000000000006</ele><time>2026-03-28T15:45:22.642Z</time></trkpt><trkpt lat="39.3087783" lon="16.9723443"><ele>502.0</ele><time>2026-03-28T15:45:23.644Z</time></trkpt><trkpt lat="39.3088515" lon="16.9723055"><ele>502.33333333333337</ele><time>2026-03-28T15:45:24.645Z</time></trkpt><trkpt lat="39.3089134" lon="16.9722302"><ele>502.6666666666667</ele><time>2026-03-28T15:45:25.648Z</time></trkpt><trkpt lat="39.3089718" lon="16.972141"><ele>503.0</ele><time>2026-03-28T15:45:26.643Z</time></trkpt><trkpt lat="39.30903" lon="16.9720646"><ele>503.33333333333337</ele><time>2026-03-28T15:45:27.651Z</time></trkpt><trkpt lat="39.3090886" lon="16.9720087"><ele>503.6666666666667</ele><time>2026-03-28T15:45:28.648Z</time></trkpt><trkpt lat="39.3091506" lon="16.9719744"><ele>504.0</ele><time>2026-03-28T15:45:29.65Z</time></trkpt><trkpt lat="39.3092137" lon="16.9719401"><ele>504.0</ele><time>2026-03-28T15:45:30.644Z</time></trkpt><trkpt lat="39.3092924" lon="16.9719501"><ele>504.0</ele><time>2026-03-28T15:45:31.644Z</time></trkpt><trkpt lat="39.3093731" lon="16.9719908"><ele>504.0</ele><time>2026-03-28T15:45:32.648Z</time></trkpt><trkpt lat="39.3094504" lon="16.9720609"><ele>504.0</ele><time>2026-03-28T15:45:33.652Z</time></trkpt><trkpt lat="39.3095263" lon="16.9721519"><ele>504.0</ele><time>2026-03-28T15:45:34.642Z</time></trkpt><trkpt lat="39.3095998" lon="16.9722415"><ele>504.0</ele><time>2026-03-28T15:45:35.649Z</time></trkpt><trkpt lat="39.3096725" lon="16.9723212"><ele>504.0</ele><time>2026-03-28T15:45:36.65Z</time></trkpt><trkpt lat="39.3097538" lon="16.9723855"><ele>504.0</ele><time>2026-03-28T15:45:37.648Z</time></trkpt><trkpt lat="39.3098462" lon="16.9724335"><ele>504.0</ele><time>2026-03-28T15:45:38.647Z</time></trkpt><trkpt lat="39.309952" lon="16.9724643"><ele>504.0</ele><time>2026-03-28T15:45:39.648Z</time></trkpt><trkpt lat="39.310078" lon="16.9724806"><ele>499.66666666666663</ele><time>2026-03-28T15:45:40.648Z</time></trkpt><trkpt lat="39.3102338" lon="16.9724943"><ele>495.3333333333333</ele><time>2026-03-28T15:45:41.651Z</time></trkpt><trkpt lat="39.310395" lon="16.9725101"><ele>491.0</ele><time>2026-03-28T15:45:42.642Z</time></trkpt><trkpt lat="39.3105467" lon="16.9725298"><ele>484.66666666666663</ele><time>2026-03-28T15:45:43.642Z</time></trkpt><trkpt lat="39.310713" lon="16.9725474"><ele>478.33333333333337</ele><time>2026-03-28T15:45:44.643Z</time></trkpt><trkpt lat="39.3108794" lon="16.9725588"><ele>472.0</ele><time>2026-03-28T15:45:45.642Z</time></trkpt><trkpt lat="39.3110473" lon="16.9725649"><ele>472.0</ele><time>2026-03-28T15:45:46.642Z</time></trkpt><trkpt lat="39.3111995" lon="16.9725633"><ele>472.0</ele><time>2026-03-28T15:45:47.645Z</time></trkpt><trkpt lat="39.3113511" lon="16.9725574"><ele>472.0</ele><time>2026-03-28T15:45:48.643Z</time></trkpt><trkpt lat="39.3115011" lon="16.9725563"><ele>472.25</ele><time>2026-03-28T15:45:49.647Z</time></trkpt><trkpt lat="39.311631" lon="16.9725591"><ele>472.5</ele><time>2026-03-28T15:45:50.642Z</time></trkpt><trkpt lat="39.311742" lon="16.9725678"><ele>472.75</ele><time>2026-03-28T15:45:51.645Z</time></trkpt><trkpt lat="39.3118526" lon="16.9725882"><ele>473.0</ele><time>2026-03-28T15:45:52.647Z</time></trkpt><trkpt lat="39.3119806" lon="16.9726314"><ele>473.0</ele><time>2026-03-28T15:45:53.648Z</time></trkpt><trkpt lat="39.312127" lon="16.9727058"><ele>473.0</ele><time>2026-03-28T15:45:54.643Z</time></trkpt><trkpt lat="39.31228" lon="16.9728063"><ele>473.0</ele><time>2026-03-28T15:45:55.648Z</time></trkpt><trkpt lat="39.3124183" lon="16.9729204"><ele>472.3333333333333</ele><time>2026-03-28T15:45:56.644Z</time></trkpt><trkpt lat="39.3125473" lon="16.973063"><ele>471.66666666666663</ele><time>2026-03-28T15:45:57.646Z</time></trkpt><trkpt lat="39.3126676" lon="16.9732312"><ele>471.0</ele><time>2026-03-28T15:45:58.645Z</time></trkpt><trkpt lat="39.3127764" lon="16.9734046"><ele>467.25</ele><time>2026-03-28T15:45:59.644Z</time></trkpt><trkpt lat="39.3128722" lon="16.973571"><ele>463.5</ele><time>2026-03-28T15:46:00.647Z</time></trkpt><trkpt lat="39.3129557" lon="16.9737271"><ele>459.75</ele><time>2026-03-28T15:46:01.644Z</time></trkpt><trkpt lat="39.3130212" lon="16.9738787"><ele>456.0</ele><time>2026-03-28T15:46:02.646Z</time></trkpt><trkpt lat="39.3130574" lon="16.9740349"><ele>454.0</ele><time>2026-03-28T15:46:03.651Z</time></trkpt><trkpt lat="39.3130682" lon="16.9742103"><ele>452.0</ele><time>2026-03-28T15:46:04.644Z</time></trkpt><trkpt lat="39.3130517" lon="16.9743996"><ele>450.0</ele><time>2026-03-28T15:46:05.644Z</time></trkpt><trkpt lat="39.3130131" lon="16.9745874"><ele>448.0</ele><time>2026-03-28T15:46:06.654Z</time></trkpt><trkpt lat="39.3129682" lon="16.9747641"><ele>448.0</ele><time>2026-03-28T15:46:07.647Z</time></trkpt><trkpt lat="39.3129318" lon="16.9749285"><ele>448.0</ele><time>2026-03-28T15:46:08.649Z</time></trkpt><trkpt lat="39.3129149" lon="16.9750724"><ele>448.0</ele><time>2026-03-28T15:46:09.652Z</time></trkpt><trkpt lat="39.3129237" lon="16.9752038"><ele>448.0</ele><time>2026-03-28T15:46:10.647Z</time></trkpt><trkpt lat="39.3129629" lon="16.9753264"><ele>449.0</ele><time>2026-03-28T15:46:11.645Z</time></trkpt><trkpt lat="39.3130301" lon="16.9754462"><ele>450.0</ele><time>2026-03-28T15:46:12.641Z</time></trkpt><trkpt lat="39.3130986" lon="16.975575"><ele>451.0</ele><time>2026-03-28T15:46:13.646Z</time></trkpt><trkpt lat="39.3131463" lon="16.975723"><ele>452.0</ele><time>2026-03-28T15:46:14.645Z</time></trkpt><trkpt lat="39.3131591" lon="16.9758839"><ele>452.0</ele><time>2026-03-28T15:46:15.643Z</time></trkpt><trkpt lat="39.3131642" lon="16.9760421"><ele>452.00000000000006</ele><time>2026-03-28T15:46:16.647Z</time></trkpt><trkpt lat="39.3131494" lon="16.9762026"><ele>452.00000000000006</ele><time>2026-03-28T15:46:17.647Z</time></trkpt><trkpt lat="39.3131544" lon="16.9763415"><ele>452.0</ele><time>2026-03-28T15:46:18.648Z</time></trkpt><trkpt lat="39.3131828" lon="16.9764556"><ele>452.0</ele><time>2026-03-28T15:46:19.651Z</time></trkpt><trkpt lat="39.3132345" lon="16.9765537"><ele>452.0</ele><time>2026-03-28T15:46:20.645Z</time></trkpt><trkpt lat="39.3133111" lon="16.9766168"><ele>452.00000000000006</ele><time>2026-03-28T15:46:21.647Z</time></trkpt><trkpt lat="39.313404" lon="16.9766355"><ele>452.00000000000006</ele><time>2026-03-28T15:46:22.643Z</time></trkpt><trkpt lat="39.3135094" lon="16.9766175"><ele>452.0</ele><time>2026-03-28T15:46:23.648Z</time></trkpt><trkpt lat="39.3136251" lon="16.976564"><ele>452.0</ele><time>2026-03-28T15:46:24.646Z</time></trkpt><trkpt lat="39.3137457" lon="16.9764889"><ele>452.0</ele><time>2026-03-28T15:46:25.645Z</time></trkpt><trkpt lat="39.3138551" lon="16.9763987"><ele>452.0</ele><time>2026-03-28T15:46:26.643Z</time></trkpt><trkpt lat="39.3139525" lon="16.976286"><ele>452.0</ele><time>2026-03-28T15:46:27.645Z</time></trkpt><trkpt lat="39.3140313" lon="16.9761486"><ele>452.0</ele><time>2026-03-28T15:46:28.645Z</time></trkpt><trkpt lat="39.314095" lon="16.9759875"><ele>451.75</ele><time>2026-03-28T15:46:29.648Z</time></trkpt><trkpt lat="39.3141419" lon="16.9758276"><ele>451.5</ele><time>2026-03-28T15:46:30.644Z</time></trkpt><trkpt lat="39.314166" lon="16.975685"><ele>451.25</ele><time>2026-03-28T15:46:31.645Z</time></trkpt><trkpt lat="39.3141562" lon="16.9755469"><ele>451.0</ele><time>2026-03-28T15:46:32.642Z</time></trkpt><trkpt lat="39.3141362" lon="16.9754208"><ele>451.0</ele><time>2026-03-28T15:46:33.644Z</time></trkpt><trkpt lat="39.3141291" lon="16.975287"><ele>451.0</ele><time>2026-03-28T15:46:34.646Z</time></trkpt><trkpt lat="39.3141618" lon="16.9751605"><ele>451.0</ele><time>2026-03-28T15:46:35.647Z</time></trkpt><trkpt lat="39.3142191" lon="16.9750507"><ele>451.0</ele><time>2026-03-28T15:46:36.646Z</time></trkpt><trkpt lat="39.3143002" lon="16.974978"><ele>451.0</ele><time>2026-03-28T15:46:37.648Z</time></trkpt><trkpt lat="39.3143945" lon="16.9749475"><ele>453.20000000000005</ele><time>2026-03-28T15:46:38.649Z</time></trkpt><trkpt lat="39.3144805" lon="16.9749227"><ele>455.40000000000003</ele><time>2026-03-28T15:46:39.647Z</time></trkpt><trkpt lat="39.3145621" lon="16.9748952"><ele>457.6</ele><time>2026-03-28T15:46:40.643Z</time></trkpt><trkpt lat="39.3146082" lon="16.9747907"><ele>459.8</ele><time>2026-03-28T15:46:41.643Z</time></trkpt><trkpt lat="39.3146247" lon="16.9746619"><ele>462.0</ele><time>2026-03-28T15:46:42.644Z</time></trkpt><trkpt lat="39.3146041" lon="16.9745243"><ele>462.0</ele><time>2026-03-28T15:46:43.644Z</time></trkpt><trkpt lat="39.3145922" lon="16.9743785"><ele>462.00000000000006</ele><time>2026-03-28T15:46:44.654Z</time></trkpt><trkpt lat="39.3145987" lon="16.9742432"><ele>462.00000000000006</ele><time>2026-03-28T15:46:45.647Z</time></trkpt><trkpt lat="39.3146226" lon="16.9741292"><ele>462.0</ele><time>2026-03-28T15:46:46.652Z</time></trkpt><trkpt lat="39.3146663" lon="16.9740424"><ele>462.0</ele><time>2026-03-28T15:46:47.646Z</time></trkpt><trkpt lat="39.3147309" lon="16.9739881"><ele>459.6</ele><time>2026-03-28T15:46:48.64Z</time></trkpt><trkpt lat="39.3148094" lon="16.973978"><ele>457.20000000000005</ele><time>2026-03-28T15:46:49.648Z</time></trkpt><trkpt lat="39.314885" lon="16.9740125"><ele>454.8</ele><time>2026-03-28T15:46:50.652Z</time></trkpt><trkpt lat="39.3149568" lon="16.9740919"><ele>452.4</ele><time>2026-03-28T15:46:51.651Z</time></trkpt><trkpt lat="39.3150248" lon="16.9742046"><ele>450.0</ele><time>2026-03-28T15:46:52.648Z</time></trkpt><trkpt lat="39.3150983" lon="16.9743363"><ele>446.25</ele><time>2026-03-28T15:46:53.646Z</time></trkpt><trkpt lat="39.3151892" lon="16.9744596"><ele>442.5</ele><time>2026-03-28T15:46:54.643Z</time></trkpt><trkpt lat="39.3153037" lon="16.9745649"><ele>438.75</ele><time>2026-03-28T15:46:55.644Z</time></trkpt><trkpt lat="39.3154307" lon="16.9746495"><ele>435.0</ele><time>2026-03-28T15:46:56.644Z</time></trkpt><trkpt lat="39.3155539" lon="16.9747281"><ele>435.25</ele><time>2026-03-28T15:46:57.645Z</time></trkpt><trkpt lat="39.315669" lon="16.9748122"><ele>435.5</ele><time>2026-03-28T15:46:58.642Z</time></trkpt><trkpt lat="39.3157722" lon="16.974911"><ele>435.75</ele><time>2026-03-28T15:46:59.654Z</time></trkpt><trkpt lat="39.3158768" lon="16.9750335"><ele>436.0</ele><time>2026-03-28T15:47:00.651Z</time></trkpt><trkpt lat="39.315984" lon="16.9751838"><ele>434.75</ele><time>2026-03-28T15:47:01.644Z</time></trkpt><trkpt lat="39.3160844" lon="16.9753401"><ele>433.5</ele><time>2026-03-28T15:47:02.658Z</time></trkpt><trkpt lat="39.3161634" lon="16.9754793"><ele>432.25</ele><time>2026-03-28T15:47:03.644Z</time></trkpt><trkpt lat="39.316231" lon="16.9755849"><ele>431.0</ele><time>2026-03-28T15:47:04.644Z</time></trkpt><trkpt lat="39.3162965" lon="16.9756616"><ele>431.0</ele><time>2026-03-28T15:47:05.643Z</time></trkpt><trkpt lat="39.3163777" lon="16.9757174"><ele>431.0</ele><time>2026-03-28T15:47:06.647Z</time></trkpt><trkpt lat="39.3164779" lon="16.9757543"><ele>431.0</ele><time>2026-03-28T15:47:07.648Z</time></trkpt><trkpt lat="39.3165949" lon="16.9757624"><ele>431.0</ele><time>2026-03-28T15:47:08.642Z</time></trkpt><trkpt lat="39.3167297" lon="16.9757476"><ele>431.0</ele><time>2026-03-28T15:47:09.641Z</time></trkpt><trkpt lat="39.3168633" lon="16.9757301"><ele>428.75</ele><time>2026-03-28T15:47:10.645Z</time></trkpt><trkpt lat="39.3169941" lon="16.9757211"><ele>426.5</ele><time>2026-03-28T15:47:11.647Z</time></trkpt><trkpt lat="39.3171198" lon="16.975723"><ele>424.25</ele><time>2026-03-28T15:47:12.649Z</time></trkpt><trkpt lat="39.3172562" lon="16.9757375"><ele>422.0</ele><time>2026-03-28T15:47:13.654Z</time></trkpt><trkpt lat="39.3173908" lon="16.9757636"><ele>417.8</ele><time>2026-03-28T15:47:14.652Z</time></trkpt><trkpt lat="39.3175177" lon="16.9758007"><ele>413.6</ele><time>2026-03-28T15:47:15.647Z</time></trkpt><trkpt lat="39.3176306" lon="16.9758486"><ele>409.40000000000003</ele><time>2026-03-28T15:47:16.647Z</time></trkpt><trkpt lat="39.3177087" lon="16.9759112"><ele>405.20000000000005</ele><time>2026-03-28T15:47:17.643Z</time></trkpt><trkpt lat="39.3177552" lon="16.9759954"><ele>401.0</ele><time>2026-03-28T15:47:18.646Z</time></trkpt><trkpt lat="39.3177664" lon="16.9761035"><ele>400.8</ele><time>2026-03-28T15:47:19.647Z</time></trkpt><trkpt lat="39.3177409" lon="16.9762067"><ele>400.6</ele><time>2026-03-28T15:47:20.649Z</time></trkpt><trkpt lat="39.3176765" lon="16.976314"><ele>400.4</ele><time>2026-03-28T15:47:21.643Z</time></trkpt><trkpt lat="39.3175793" lon="16.9764193"><ele>400.2</ele><time>2026-03-28T15:47:22.652Z</time></trkpt><trkpt lat="39.3174805" lon="16.9765231"><ele>400.0</ele><time>2026-03-28T15:47:23.647Z</time></trkpt><trkpt lat="39.3173902" lon="16.9766509"><ele>395.6666666666667</ele><time>2026-03-28T15:47:24.644Z</time></trkpt><trkpt lat="39.3173008" lon="16.9768134"><ele>391.33333333333337</ele><time>2026-03-28T15:47:25.652Z</time></trkpt><trkpt lat="39.3172087" lon="16.9770129"><ele>387.0</ele><time>2026-03-28T15:47:26.646Z</time></trkpt><trkpt lat="39.3171139" lon="16.9772431"><ele>390.66666666666663</ele><time>2026-03-28T15:47:27.643Z</time></trkpt><trkpt lat="39.3170174" lon="16.9774811"><ele>394.3333333333333</ele><time>2026-03-28T15:47:28.647Z</time></trkpt><trkpt lat="39.3169216" lon="16.9777125"><ele>398.0</ele><time>2026-03-28T15:47:29.648Z</time></trkpt><trkpt lat="39.3168243" lon="16.9779308"><ele>398.0</ele><time>2026-03-28T15:47:30.647Z</time></trkpt><trkpt lat="39.3167356" lon="16.9781338"><ele>398.0</ele><time>2026-03-28T15:47:31.649Z</time></trkpt><trkpt lat="39.3166587" lon="16.9783182"><ele>398.0</ele><time>2026-03-28T15:47:32.659Z</time></trkpt><trkpt lat="39.3165894" lon="16.9784972"><ele>395.25</ele><time>2026-03-28T15:47:33.644Z</time></trkpt><trkpt lat="39.3165344" lon="16.9786655"><ele>392.5</ele><time>2026-03-28T15:47:34.647Z</time></trkpt><trkpt lat="39.3164919" lon="16.9788148"><ele>389.75</ele><time>2026-03-28T15:47:35.643Z</time></trkpt><trkpt lat="39.3164612" lon="16.9789445"><ele>387.0</ele><time>2026-03-28T15:47:36.643Z</time></trkpt><trkpt lat="39.3164458" lon="16.9790551"><ele>387.0</ele><time>2026-03-28T15:47:37.642Z</time></trkpt><trkpt lat="39.3164356" lon="16.9791542"><ele>387.0</ele><time>2026-03-28T15:47:38.647Z</time></trkpt><trkpt lat="39.3164615" lon="16.9792372"><ele>387.0</ele><time>2026-03-28T15:47:39.654Z</time></trkpt><trkpt lat="39.3165319" lon="16.9793313"><ele>387.0</ele><time>2026-03-28T15:47:41.647Z</time></trkpt><trkpt lat="39.3165643" lon="16.9794152"><ele>387.0</ele><time>2026-03-28T15:47:44.65Z</time></trkpt><trkpt lat="39.3165303" lon="16.9794915"><ele>387.0</ele><time>2026-03-28T15:47:49.642Z</time></trkpt><trkpt lat="39.3164882" lon="16.9796115"><ele>384.0</ele><time>2026-03-28T15:47:52.646Z</time></trkpt><trkpt lat="39.3164322" lon="16.9797525"><ele>381.0</ele><time>2026-03-28T15:47:54.643Z</time></trkpt><trkpt lat="39.3163806" lon="16.9798704"><ele>378.0</ele><time>2026-03-28T15:47:56.646Z</time></trkpt><trkpt lat="39.3163412" lon="16.9799597"><ele>375.0</ele><time>2026-03-28T15:47:58.645Z</time></trkpt><trkpt lat="39.3163021" lon="16.9800473"><ele>372.0</ele><time>2026-03-28T15:48:00.643Z</time></trkpt><trkpt lat="39.3162555" lon="16.9801423"><ele>368.8333333333333</ele><time>2026-03-28T15:48:02.656Z</time></trkpt><trkpt lat="39.3161866" lon="16.9802823"><ele>365.6666666666667</ele><time>2026-03-28T15:48:04.648Z</time></trkpt><trkpt lat="39.3161439" lon="16.9803608"><ele>362.5</ele><time>2026-03-28T15:48:05.654Z</time></trkpt><trkpt lat="39.3160999" lon="16.9804397"><ele>359.33333333333337</ele><time>2026-03-28T15:48:06.654Z</time></trkpt><trkpt lat="39.3160593" lon="16.9805262"><ele>356.1666666666667</ele><time>2026-03-28T15:48:07.652Z</time></trkpt><trkpt lat="39.3160333" lon="16.9806252"><ele>353.0</ele><time>2026-03-28T15:48:08.654Z</time></trkpt><trkpt lat="39.3160296" lon="16.9807566"><ele>351.25</ele><time>2026-03-28T15:48:09.65Z</time></trkpt><trkpt lat="39.3160462" lon="16.9809205"><ele>349.5</ele><time>2026-03-28T15:48:10.645Z</time></trkpt><trkpt lat="39.3160565" lon="16.981098"><ele>347.75</ele><time>2026-03-28T15:48:11.642Z</time></trkpt><trkpt lat="39.3160517" lon="16.9812828"><ele>346.0</ele><time>2026-03-28T15:48:12.651Z</time></trkpt><trkpt lat="39.3160447" lon="16.9814691"><ele>346.0</ele><time>2026-03-28T15:48:13.65Z</time></trkpt><trkpt lat="39.3160428" lon="16.9816489"><ele>346.0</ele><time>2026-03-28T15:48:14.653Z</time></trkpt><trkpt lat="39.3160462" lon="16.9818202"><ele>346.0</ele><time>2026-03-28T15:48:15.663Z</time></trkpt><trkpt lat="39.3160546" lon="16.981973"><ele>346.0</ele><time>2026-03-28T15:48:16.647Z</time></trkpt><trkpt lat="39.3160835" lon="16.982118"><ele>344.25</ele><time>2026-03-28T15:48:17.655Z</time></trkpt><trkpt lat="39.3161415" lon="16.9822648"><ele>342.5</ele><time>2026-03-28T15:48:18.645Z</time></trkpt><trkpt lat="39.3162095" lon="16.9824307"><ele>340.75</ele><time>2026-03-28T15:48:19.65Z</time></trkpt><trkpt lat="39.3162867" lon="16.9826016"><ele>339.0</ele><time>2026-03-28T15:48:20.649Z</time></trkpt><trkpt lat="39.3163715" lon="16.982766"><ele>339.5</ele><time>2026-03-28T15:48:21.65Z</time></trkpt><trkpt lat="39.3164601" lon="16.9829204"><ele>340.0</ele><time>2026-03-28T15:48:22.649Z</time></trkpt><trkpt lat="39.3165471" lon="16.983069"><ele>340.5</ele><time>2026-03-28T15:48:23.648Z</time></trkpt><trkpt lat="39.3166252" lon="16.9832202"><ele>341.0</ele><time>2026-03-28T15:48:24.645Z</time></trkpt><trkpt lat="39.3166924" lon="16.9833826"><ele>338.0</ele><time>2026-03-28T15:48:25.646Z</time></trkpt><trkpt lat="39.3167506" lon="16.9835703"><ele>335.0</ele><time>2026-03-28T15:48:26.652Z</time></trkpt><trkpt lat="39.3167949" lon="16.9837769"><ele>332.0</ele><time>2026-03-28T15:48:27.651Z</time></trkpt><trkpt lat="39.3168401" lon="16.9839792"><ele>328.6666666666667</ele><time>2026-03-28T15:48:28.64Z</time></trkpt><trkpt lat="39.3168986" lon="16.9841828"><ele>325.3333333333333</ele><time>2026-03-28T15:48:29.642Z</time></trkpt><trkpt lat="39.316967" lon="16.9843904"><ele>322.0</ele><time>2026-03-28T15:48:30.641Z</time></trkpt><trkpt lat="39.3170266" lon="16.9845897"><ele>322.0</ele><time>2026-03-28T15:48:31.648Z</time></trkpt><trkpt lat="39.3170802" lon="16.98476"><ele>322.0</ele><time>2026-03-28T15:48:32.645Z</time></trkpt><trkpt lat="39.3171489" lon="16.9848896"><ele>322.0</ele><time>2026-03-28T15:48:33.647Z</time></trkpt><trkpt lat="39.3172337" lon="16.9849806"><ele>322.0</ele><time>2026-03-28T15:48:34.642Z</time></trkpt><trkpt lat="39.3173339" lon="16.9850366"><ele>322.5</ele><time>2026-03-28T15:48:35.646Z</time></trkpt><trkpt lat="39.3174498" lon="16.9850586"><ele>323.0</ele><time>2026-03-28T15:48:36.65Z</time></trkpt><trkpt lat="39.3175671" lon="16.985066"><ele>323.5</ele><time>2026-03-28T15:48:37.645Z</time></trkpt><trkpt lat="39.3176803" lon="16.9850948"><ele>324.0</ele><time>2026-03-28T15:48:38.646Z</time></trkpt><trkpt lat="39.3177992" lon="16.9851543"><ele>324.0</ele><time>2026-03-28T15:48:39.655Z</time></trkpt><trkpt lat="39.3179315" lon="16.9852293"><ele>324.0</ele><time>2026-03-28T15:48:40.646Z</time></trkpt><trkpt lat="39.31807" lon="16.9852969"><ele>324.0</ele><time>2026-03-28T15:48:41.645Z</time></trkpt><trkpt lat="39.318206" lon="16.9853563"><ele>324.0</ele><time>2026-03-28T15:48:42.647Z</time></trkpt><trkpt lat="39.3183303" lon="16.9854081"><ele>324.4</ele><time>2026-03-28T15:48:43.644Z</time></trkpt><trkpt lat="39.3184432" lon="16.985458"><ele>324.79999999999995</ele><time>2026-03-28T15:48:44.647Z</time></trkpt><trkpt lat="39.3185456" lon="16.9855119"><ele>325.20000000000005</ele><time>2026-03-28T15:48:45.646Z</time></trkpt><trkpt lat="39.3186405" lon="16.9855698"><ele>325.6</ele><time>2026-03-28T15:48:46.651Z</time></trkpt><trkpt lat="39.3187286" lon="16.9856244"><ele>326.0</ele><time>2026-03-28T15:48:47.647Z</time></trkpt><trkpt lat="39.3187996" lon="16.9857101"><ele>326.0</ele><time>2026-03-28T15:48:48.646Z</time></trkpt><trkpt lat="39.3188514" lon="16.9858026"><ele>326.0</ele><time>2026-03-28T15:48:49.644Z</time></trkpt><trkpt lat="39.3188992" lon="16.9859173"><ele>326.0</ele><time>2026-03-28T15:48:50.646Z</time></trkpt><trkpt lat="39.3189423" lon="16.9860411"><ele>326.0</ele><time>2026-03-28T15:48:51.645Z</time></trkpt><trkpt lat="39.3189948" lon="16.9861652"><ele>326.0</ele><time>2026-03-28T15:48:52.648Z</time></trkpt><trkpt lat="39.3190631" lon="16.9862887"><ele>322.5</ele><time>2026-03-28T15:48:53.643Z</time></trkpt><trkpt lat="39.3191356" lon="16.986412"><ele>319.0</ele><time>2026-03-28T15:48:54.647Z</time></trkpt><trkpt lat="39.3192059" lon="16.9865412"><ele>315.5</ele><time>2026-03-28T15:48:55.653Z</time></trkpt><trkpt lat="39.3192783" lon="16.9866764"><ele>312.0</ele><time>2026-03-28T15:48:56.647Z</time></trkpt><trkpt lat="39.3193518" lon="16.9868177"><ele>309.5</ele><time>2026-03-28T15:48:57.643Z</time></trkpt><trkpt lat="39.3194235" lon="16.9869677"><ele>307.0</ele><time>2026-03-28T15:48:58.644Z</time></trkpt><trkpt lat="39.3194897" lon="16.9871208"><ele>304.5</ele><time>2026-03-28T15:48:59.65Z</time></trkpt><trkpt lat="39.3195482" lon="16.9872712"><ele>302.0</ele><time>2026-03-28T15:49:00.642Z</time></trkpt><trkpt lat="39.3195984" lon="16.98742"><ele>300.25</ele><time>2026-03-28T15:49:01.641Z</time></trkpt><trkpt lat="39.3196449" lon="16.9875784"><ele>298.5</ele><time>2026-03-28T15:49:02.641Z</time></trkpt><trkpt lat="39.3196854" lon="16.9877389"><ele>296.75</ele><time>2026-03-28T15:49:03.636Z</time></trkpt><trkpt lat="39.3197241" lon="16.9878944"><ele>295.0</ele><time>2026-03-28T15:49:04.636Z</time></trkpt><trkpt lat="39.319771" lon="16.988043"><ele>295.0</ele><time>2026-03-28T15:49:05.64Z</time></trkpt><trkpt lat="39.3198291" lon="16.988188"><ele>295.0</ele><time>2026-03-28T15:49:06.636Z</time></trkpt><trkpt lat="39.3198971" lon="16.9883278"><ele>295.0</ele><time>2026-03-28T15:49:07.639Z</time></trkpt><trkpt lat="39.3199653" lon="16.9884671"><ele>295.0</ele><time>2026-03-28T15:49:08.645Z</time></trkpt><trkpt lat="39.3200309" lon="16.9886093"><ele>292.0</ele><time>2026-03-28T15:49:09.638Z</time></trkpt><trkpt lat="39.3200939" lon="16.9887518"><ele>289.0</ele><time>2026-03-28T15:49:10.648Z</time></trkpt><trkpt lat="39.3201545" lon="16.988894"><ele>286.0</ele><time>2026-03-28T15:49:11.641Z</time></trkpt><trkpt lat="39.3202135" lon="16.9890363"><ele>283.0</ele><time>2026-03-28T15:49:12.639Z</time></trkpt><trkpt lat="39.3202694" lon="16.9891788"><ele>280.0</ele><time>2026-03-28T15:49:13.637Z</time></trkpt><trkpt lat="39.3203191" lon="16.9893248"><ele>277.0</ele><time>2026-03-28T15:49:14.637Z</time></trkpt><trkpt lat="39.3203606" lon="16.9894719"><ele>274.0</ele><time>2026-03-28T15:49:15.639Z</time></trkpt><trkpt lat="39.3203887" lon="16.989625"><ele>271.0</ele><time>2026-03-28T15:49:16.649Z</time></trkpt><trkpt lat="39.3203973" lon="16.9897761"><ele>271.0</ele><time>2026-03-28T15:49:17.638Z</time></trkpt><trkpt lat="39.3203946" lon="16.9899037"><ele>271.0</ele><time>2026-03-28T15:49:18.636Z</time></trkpt><trkpt lat="39.3204012" lon="16.9900044"><ele>271.0</ele><time>2026-03-28T15:49:19.637Z</time></trkpt><trkpt lat="39.3204187" lon="16.9900883"><ele>271.0</ele><time>2026-03-28T15:49:20.64Z</time></trkpt><trkpt lat="39.3204565" lon="16.9901625"><ele>271.0</ele><time>2026-03-28T15:49:21.64Z</time></trkpt><trkpt lat="39.3205086" lon="16.9902322"><ele>271.0</ele><time>2026-03-28T15:49:22.637Z</time></trkpt><trkpt lat="39.3205718" lon="16.9903027"><ele>269.8</ele><time>2026-03-28T15:49:23.647Z</time></trkpt><trkpt lat="39.3206408" lon="16.9903806"><ele>268.6</ele><time>2026-03-28T15:49:24.639Z</time></trkpt><trkpt lat="39.3207145" lon="16.9904651"><ele>267.4</ele><time>2026-03-28T15:49:25.645Z</time></trkpt><trkpt lat="39.320786" lon="16.9905523"><ele>266.2</ele><time>2026-03-28T15:49:26.641Z</time></trkpt><trkpt lat="39.3208486" lon="16.9906494"><ele>265.0</ele><time>2026-03-28T15:49:27.637Z</time></trkpt><trkpt lat="39.3208969" lon="16.9907569"><ele>261.8</ele><time>2026-03-28T15:49:28.638Z</time></trkpt><trkpt lat="39.3209261" lon="16.990874"><ele>258.6</ele><time>2026-03-28T15:49:29.638Z</time></trkpt><trkpt lat="39.3209388" lon="16.9909997"><ele>255.39999999999998</ele><time>2026-03-28T15:49:30.636Z</time></trkpt><trkpt lat="39.3209582" lon="16.9911235"><ele>252.2</ele><time>2026-03-28T15:49:31.64Z</time></trkpt><trkpt lat="39.3209833" lon="16.9912395"><ele>249.0</ele><time>2026-03-28T15:49:32.633Z</time></trkpt><trkpt lat="39.3210557" lon="16.9913271"><ele>249.0</ele><time>2026-03-28T15:49:33.645Z</time></trkpt><trkpt lat="39.3211321" lon="16.9913915"><ele>249.0</ele><time>2026-03-28T15:49:34.635Z</time></trkpt><trkpt lat="39.321212" lon="16.9914437"><ele>249.0</ele><time>2026-03-28T15:49:35.634Z</time></trkpt><trkpt lat="39.3212778" lon="16.9915107"><ele>249.0</ele><time>2026-03-28T15:49:36.637Z</time></trkpt><trkpt lat="39.3213232" lon="16.9916012"><ele>249.0</ele><time>2026-03-28T15:49:37.64Z</time></trkpt><trkpt lat="39.3213612" lon="16.991712"><ele>249.0</ele><time>2026-03-28T15:49:38.633Z</time></trkpt><trkpt lat="39.3213844" lon="16.991841"><ele>249.33333333333334</ele><time>2026-03-28T15:49:39.643Z</time></trkpt><trkpt lat="39.3213934" lon="16.9919743"><ele>249.66666666666669</ele><time>2026-03-28T15:49:40.635Z</time></trkpt><trkpt lat="39.3213901" lon="16.9920992"><ele>250.0</ele><time>2026-03-28T15:49:41.637Z</time></trkpt><trkpt lat="39.3213917" lon="16.9922011"><ele>250.33333333333334</ele><time>2026-03-28T15:49:42.639Z</time></trkpt><trkpt lat="39.3213988" lon="16.992286"><ele>250.66666666666669</ele><time>2026-03-28T15:49:43.634Z</time></trkpt><trkpt lat="39.3214522" lon="16.9923443"><ele>251.0</ele><time>2026-03-28T15:49:44.632Z</time></trkpt><trkpt lat="39.3215223" lon="16.9924201"><ele>251.00000000000003</ele><time>2026-03-28T15:49:45.641Z</time></trkpt><trkpt lat="39.321591" lon="16.992496"><ele>251.0</ele><time>2026-03-28T15:49:46.638Z</time></trkpt><trkpt lat="39.3216419" lon="16.9925935"><ele>251.0</ele><time>2026-03-28T15:49:47.636Z</time></trkpt><trkpt lat="39.3216665" lon="16.9926802"><ele>251.0</ele><time>2026-03-28T15:49:48.634Z</time></trkpt><trkpt lat="39.3216896" lon="16.9927633"><ele>251.00000000000003</ele><time>2026-03-28T15:49:49.641Z</time></trkpt><trkpt lat="39.3217154" lon="16.9928507"><ele>251.0</ele><time>2026-03-28T15:49:50.636Z</time></trkpt><trkpt lat="39.3217474" lon="16.9929326"><ele>249.33333333333334</ele><time>2026-03-28T15:49:51.636Z</time></trkpt><trkpt lat="39.3217952" lon="16.9929997"><ele>247.66666666666669</ele><time>2026-03-28T15:49:52.638Z</time></trkpt><trkpt lat="39.321839" lon="16.9930585"><ele>246.0</ele><time>2026-03-28T15:49:53.642Z</time></trkpt><trkpt lat="39.3219025" lon="16.9931593"><ele>244.33333333333331</ele><time>2026-03-28T15:49:55.647Z</time></trkpt><trkpt lat="39.321962" lon="16.993284"><ele>242.66666666666666</ele><time>2026-03-28T15:49:57.635Z</time></trkpt><trkpt lat="39.3219912" lon="16.9933613"><ele>241.0</ele><time>2026-03-28T15:49:58.636Z</time></trkpt><trkpt lat="39.3220255" lon="16.993431"><ele>237.0</ele><time>2026-03-28T15:49:59.637Z</time></trkpt><trkpt lat="39.3220913" lon="16.9935593"><ele>233.00000000000003</ele><time>2026-03-28T15:50:01.637Z</time></trkpt><trkpt lat="39.3222012" lon="16.9936528"><ele>229.00000000000003</ele><time>2026-03-28T15:50:03.635Z</time></trkpt><trkpt lat="39.3222696" lon="16.9936792"><ele>225.0</ele><time>2026-03-28T15:50:04.638Z</time></trkpt><trkpt lat="39.3223483" lon="16.9936597"><ele>221.0</ele><time>2026-03-28T15:50:05.643Z</time></trkpt><trkpt lat="39.3224276" lon="16.993624"><ele>221.00000000000003</ele><time>2026-03-28T15:50:06.639Z</time></trkpt><trkpt lat="39.3224987" lon="16.993579"><ele>221.0</ele><time>2026-03-28T15:50:07.647Z</time></trkpt><trkpt lat="39.3225541" lon="16.9935171"><ele>221.0</ele><time>2026-03-28T15:50:08.638Z</time></trkpt><trkpt lat="39.3226328" lon="16.9934653"><ele>221.0</ele><time>2026-03-28T15:50:09.637Z</time></trkpt><trkpt lat="39.3227079" lon="16.9934154"><ele>221.00000000000003</ele><time>2026-03-28T15:50:10.641Z</time></trkpt><trkpt lat="39.3227817" lon="16.9933662"><ele>221.0</ele><time>2026-03-28T15:50:11.641Z</time></trkpt><trkpt lat="39.3228548" lon="16.9933264"><ele>221.00000000000003</ele><time>2026-03-28T15:50:12.647Z</time></trkpt><trkpt lat="39.3229276" lon="16.9933047"><ele>221.0</ele><time>2026-03-28T15:50:13.641Z</time></trkpt><trkpt lat="39.3229932" lon="16.9933147"><ele>221.0</ele><time>2026-03-28T15:50:14.634Z</time></trkpt><trkpt lat="39.3230514" lon="16.9933531"><ele>221.0</ele><time>2026-03-28T15:50:15.65Z</time></trkpt><trkpt lat="39.3230906" lon="16.9934221"><ele>221.00000000000003</ele><time>2026-03-28T15:50:16.636Z</time></trkpt><trkpt lat="39.32312" lon="16.9935242"><ele>221.0</ele><time>2026-03-28T15:50:17.646Z</time></trkpt><trkpt lat="39.323143" lon="16.9936611"><ele>217.25</ele><time>2026-03-28T15:50:18.64Z</time></trkpt><trkpt lat="39.3231651" lon="16.9938165"><ele>213.5</ele><time>2026-03-28T15:50:19.638Z</time></trkpt><trkpt lat="39.3231906" lon="16.9939687"><ele>209.75</ele><time>2026-03-28T15:50:20.637Z</time></trkpt><trkpt lat="39.3232142" lon="16.9941215"><ele>206.0</ele><time>2026-03-28T15:50:21.639Z</time></trkpt><trkpt lat="39.323227" lon="16.9942665"><ele>204.4</ele><time>2026-03-28T15:50:22.635Z</time></trkpt><trkpt lat="39.3232329" lon="16.9944057"><ele>202.8</ele><time>2026-03-28T15:50:23.638Z</time></trkpt><trkpt lat="39.3232452" lon="16.9945338"><ele>201.20000000000002</ele><time>2026-03-28T15:50:24.637Z</time></trkpt><trkpt lat="39.3232515" lon="16.9946471"><ele>199.60000000000002</ele><time>2026-03-28T15:50:25.641Z</time></trkpt><trkpt lat="39.3232588" lon="16.9947531"><ele>198.0</ele><time>2026-03-28T15:50:26.645Z</time></trkpt><trkpt lat="39.3232728" lon="16.9948441"><ele>198.0</ele><time>2026-03-28T15:50:27.636Z</time></trkpt><trkpt lat="39.3233037" lon="16.994933"><ele>198.0</ele><time>2026-03-28T15:50:28.637Z</time></trkpt><trkpt lat="39.3233549" lon="16.9950131"><ele>198.0</ele><time>2026-03-28T15:50:29.64Z</time></trkpt><trkpt lat="39.3234181" lon="16.995072"><ele>198.0</ele><time>2026-03-28T15:50:30.64Z</time></trkpt><trkpt lat="39.3234965" lon="16.9951084"><ele>198.0</ele><time>2026-03-28T15:50:31.638Z</time></trkpt><trkpt lat="39.3235813" lon="16.9951174"><ele>198.0</ele><time>2026-03-28T15:50:32.64Z</time></trkpt><trkpt lat="39.3236744" lon="16.9951143"><ele>195.0</ele><time>2026-03-28T15:50:33.637Z</time></trkpt><trkpt lat="39.3237788" lon="16.9951086"><ele>192.0</ele><time>2026-03-28T15:50:34.635Z</time></trkpt><trkpt lat="39.3238845" lon="16.9951033"><ele>189.0</ele><time>2026-03-28T15:50:35.655Z</time></trkpt><trkpt lat="39.3239902" lon="16.9950967"><ele>186.0</ele><time>2026-03-28T15:50:36.638Z</time></trkpt><trkpt lat="39.3240918" lon="16.9950887"><ele>183.0</ele><time>2026-03-28T15:50:37.644Z</time></trkpt><trkpt lat="39.3241877" lon="16.9950713"><ele>183.0</ele><time>2026-03-28T15:50:38.637Z</time></trkpt><trkpt lat="39.3242734" lon="16.9950376"><ele>183.0</ele><time>2026-03-28T15:50:39.638Z</time></trkpt><trkpt lat="39.3243463" lon="16.9949914"><ele>183.0</ele><time>2026-03-28T15:50:40.638Z</time></trkpt><trkpt lat="39.3244092" lon="16.9949284"><ele>183.0</ele><time>2026-03-28T15:50:41.639Z</time></trkpt><trkpt lat="39.3244686" lon="16.9948529"><ele>183.0</ele><time>2026-03-28T15:50:42.641Z</time></trkpt><trkpt lat="39.3245293" lon="16.9947752"><ele>183.0</ele><time>2026-03-28T15:50:43.635Z</time></trkpt><trkpt lat="39.3245821" lon="16.9947024"><ele>183.5</ele><time>2026-03-28T15:50:44.637Z</time></trkpt><trkpt lat="39.3246185" lon="16.9946322"><ele>184.0</ele><time>2026-03-28T15:50:45.636Z</time></trkpt><trkpt lat="39.3246539" lon="16.9945628"><ele>184.5</ele><time>2026-03-28T15:50:46.637Z</time></trkpt><trkpt lat="39.3246499" lon="16.9944695"><ele>185.0</ele><time>2026-03-28T15:50:47.638Z</time></trkpt><trkpt lat="39.324645" lon="16.9943669"><ele>185.5</ele><time>2026-03-28T15:50:48.637Z</time></trkpt><trkpt lat="39.3246285" lon="16.9942398"><ele>186.0</ele><time>2026-03-28T15:50:49.637Z</time></trkpt><trkpt lat="39.3246" lon="16.9941025"><ele>186.16666666666666</ele><time>2026-03-28T15:50:50.661Z</time></trkpt><trkpt lat="39.3245702" lon="16.9939915"><ele>186.33333333333334</ele><time>2026-03-28T15:50:51.638Z</time></trkpt><trkpt lat="39.3245516" lon="16.9939125"><ele>186.5</ele><time>2026-03-28T15:50:52.638Z</time></trkpt><trkpt lat="39.3245626" lon="16.9938059"><ele>186.66666666666669</ele><time>2026-03-28T15:50:54.638Z</time></trkpt><trkpt lat="39.3246354" lon="16.9938212"><ele>186.83333333333334</ele><time>2026-03-28T15:50:56.65Z</time></trkpt><trkpt lat="39.3247344" lon="16.9939274"><ele>187.0</ele><time>2026-03-28T15:50:58.636Z</time></trkpt><trkpt lat="39.3247961" lon="16.9939964"><ele>184.6</ele><time>2026-03-28T15:50:59.641Z</time></trkpt><trkpt lat="39.3248772" lon="16.9940573"><ele>182.2</ele><time>2026-03-28T15:51:00.636Z</time></trkpt><trkpt lat="39.3249729" lon="16.994136"><ele>179.8</ele><time>2026-03-28T15:51:01.641Z</time></trkpt><trkpt lat="39.3250707" lon="16.9942181"><ele>177.4</ele><time>2026-03-28T15:51:02.635Z</time></trkpt><trkpt lat="39.3251512" lon="16.9942847"><ele>175.0</ele><time>2026-03-28T15:51:03.639Z</time></trkpt><trkpt lat="39.3252363" lon="16.9943242"><ele>174.75</ele><time>2026-03-28T15:51:04.638Z</time></trkpt><trkpt lat="39.3253355" lon="16.9943684"><ele>174.5</ele><time>2026-03-28T15:51:05.638Z</time></trkpt><trkpt lat="39.3254639" lon="16.9943765"><ele>174.25</ele><time>2026-03-28T15:51:06.637Z</time></trkpt><trkpt lat="39.3255899" lon="16.9943818"><ele>174.0</ele><time>2026-03-28T15:51:07.657Z</time></trkpt><trkpt lat="39.3257228" lon="16.9943766"><ele>174.0</ele><time>2026-03-28T15:51:08.64Z</time></trkpt><trkpt lat="39.3258451" lon="16.9943524"><ele>174.0</ele><time>2026-03-28T15:51:09.639Z</time></trkpt><trkpt lat="39.3259553" lon="16.9943035"><ele>174.0</ele><time>2026-03-28T15:51:10.634Z</time></trkpt><trkpt lat="39.3260617" lon="16.9942326"><ele>174.0</ele><time>2026-03-28T15:51:11.641Z</time></trkpt><trkpt lat="39.3261699" lon="16.9941564"><ele>175.6</ele><time>2026-03-28T15:51:12.637Z</time></trkpt><trkpt lat="39.3262608" lon="16.9940858"><ele>177.2</ele><time>2026-03-28T15:51:13.637Z</time></trkpt><trkpt lat="39.3263296" lon="16.9940041"><ele>178.79999999999998</ele><time>2026-03-28T15:51:14.651Z</time></trkpt><trkpt lat="39.3263845" lon="16.9938986"><ele>180.39999999999998</ele><time>2026-03-28T15:51:15.639Z</time></trkpt><trkpt lat="39.3264435" lon="16.9937899"><ele>182.0</ele><time>2026-03-28T15:51:16.638Z</time></trkpt><trkpt lat="39.3265284" lon="16.9937021"><ele>182.6</ele><time>2026-03-28T15:51:17.635Z</time></trkpt><trkpt lat="39.3266144" lon="16.9936355"><ele>183.2</ele><time>2026-03-28T15:51:18.636Z</time></trkpt><trkpt lat="39.3266977" lon="16.9935756"><ele>183.8</ele><time>2026-03-28T15:51:19.636Z</time></trkpt><trkpt lat="39.3267774" lon="16.993517"><ele>184.4</ele><time>2026-03-28T15:51:20.634Z</time></trkpt><trkpt lat="39.3268522" lon="16.9934489"><ele>185.0</ele><time>2026-03-28T15:51:21.648Z</time></trkpt><trkpt lat="39.3269115" lon="16.9933701"><ele>184.99999999999997</ele><time>2026-03-28T15:51:22.636Z</time></trkpt><trkpt lat="39.3269528" lon="16.9932931"><ele>185.0</ele><time>2026-03-28T15:51:23.635Z</time></trkpt><trkpt lat="39.326999" lon="16.9932147"><ele>185.0</ele><time>2026-03-28T15:51:25.646Z</time></trkpt><trkpt lat="39.3270662" lon="16.9932372"><ele>185.0</ele><time>2026-03-28T15:51:29.642Z</time></trkpt><trkpt lat="39.3271281" lon="16.9933143"><ele>185.0</ele><time>2026-03-28T15:51:38.637Z</time></trkpt><trkpt lat="39.3271877" lon="16.9933632"><ele>184.99999999999997</ele><time>2026-03-28T15:51:44.636Z</time></trkpt><trkpt lat="39.3272558" lon="16.9933958"><ele>185.0</ele><time>2026-03-28T15:52:05.637Z</time></trkpt><trkpt lat="39.3273293" lon="16.9934142"><ele>186.2</ele><time>2026-03-28T15:52:13.636Z</time></trkpt><trkpt lat="39.3274036" lon="16.9934253"><ele>187.4</ele><time>2026-03-28T15:52:17.632Z</time></trkpt><trkpt lat="39.3274649" lon="16.9935244"><ele>188.60000000000002</ele><time>2026-03-28T15:52:20.641Z</time></trkpt><trkpt lat="39.3274942" lon="16.993717"><ele>189.8</ele><time>2026-03-28T15:52:22.643Z</time></trkpt><trkpt lat="39.3275124" lon="16.9938532"><ele>191.0</ele><time>2026-03-28T15:52:23.655Z</time></trkpt><trkpt lat="39.3275337" lon="16.993972"><ele>191.0</ele><time>2026-03-28T15:52:24.641Z</time></trkpt><trkpt lat="39.327561" lon="16.9940865"><ele>191.0</ele><time>2026-03-28T15:52:25.644Z</time></trkpt><trkpt lat="39.3275947" lon="16.9941937"><ele>191.0</ele><time>2026-03-28T15:52:26.636Z</time></trkpt><trkpt lat="39.3276379" lon="16.9943215"><ele>191.0</ele><time>2026-03-28T15:52:27.64Z</time></trkpt><trkpt lat="39.3276864" lon="16.9944574"><ele>191.0</ele><time>2026-03-28T15:52:28.639Z</time></trkpt><trkpt lat="39.3277342" lon="16.9945865"><ele>191.0</ele><time>2026-03-28T15:52:29.638Z</time></trkpt><trkpt lat="39.3277754" lon="16.9947153"><ele>191.0</ele><time>2026-03-28T15:52:30.642Z</time></trkpt><trkpt lat="39.3278082" lon="16.9948605"><ele>191.0</ele><time>2026-03-28T15:52:31.634Z</time></trkpt><trkpt lat="39.3278263" lon="16.9950131"><ele>191.0</ele><time>2026-03-28T15:52:32.638Z</time></trkpt><trkpt lat="39.3278217" lon="16.9951612"><ele>189.75</ele><time>2026-03-28T15:52:33.646Z</time></trkpt><trkpt lat="39.3278034" lon="16.9953182"><ele>188.5</ele><time>2026-03-28T15:52:34.634Z</time></trkpt><trkpt lat="39.3277839" lon="16.9954682"><ele>187.25</ele><time>2026-03-28T15:52:35.639Z</time></trkpt><trkpt lat="39.3277647" lon="16.995609"><ele>186.0</ele><time>2026-03-28T15:52:36.633Z</time></trkpt><trkpt lat="39.3277455" lon="16.9957441"><ele>184.66666666666666</ele><time>2026-03-28T15:52:37.635Z</time></trkpt><trkpt lat="39.3277273" lon="16.9958716"><ele>183.33333333333334</ele><time>2026-03-28T15:52:38.634Z</time></trkpt><trkpt lat="39.3277006" lon="16.995986"><ele>182.0</ele><time>2026-03-28T15:52:39.636Z</time></trkpt><trkpt lat="39.3276691" lon="16.9960959"><ele>180.66666666666669</ele><time>2026-03-28T15:52:40.636Z</time></trkpt><trkpt lat="39.3276249" lon="16.9961812"><ele>179.33333333333334</ele><time>2026-03-28T15:52:41.635Z</time></trkpt><trkpt lat="39.3275636" lon="16.9962442"><ele>178.0</ele><time>2026-03-28T15:52:42.636Z</time></trkpt><trkpt lat="39.3274834" lon="16.9962891"><ele>178.0</ele><time>2026-03-28T15:52:43.636Z</time></trkpt><trkpt lat="39.3273946" lon="16.9963241"><ele>178.0</ele><time>2026-03-28T15:52:44.647Z</time></trkpt><trkpt lat="39.3272997" lon="16.9963558"><ele>178.0</ele><time>2026-03-28T15:52:45.644Z</time></trkpt><trkpt lat="39.3271942" lon="16.9963889"><ele>178.0</ele><time>2026-03-28T15:52:46.649Z</time></trkpt><trkpt lat="39.3270791" lon="16.9964268"><ele>178.0</ele><time>2026-03-28T15:52:47.644Z</time></trkpt><trkpt lat="39.3269602" lon="16.9964644"><ele>176.5</ele><time>2026-03-28T15:52:48.645Z</time></trkpt><trkpt lat="39.3268406" lon="16.9965024"><ele>175.0</ele><time>2026-03-28T15:52:49.641Z</time></trkpt><trkpt lat="39.3267206" lon="16.9965473"><ele>173.5</ele><time>2026-03-28T15:52:50.647Z</time></trkpt><trkpt lat="39.3266057" lon="16.9966042"><ele>172.0</ele><time>2026-03-28T15:52:51.643Z</time></trkpt><trkpt lat="39.3264976" lon="16.9966645"><ele>169.2</ele><time>2026-03-28T15:52:52.65Z</time></trkpt><trkpt lat="39.3264062" lon="16.9967195"><ele>166.39999999999998</ele><time>2026-03-28T15:52:53.636Z</time></trkpt><trkpt lat="39.326334" lon="16.9967828"><ele>163.60000000000002</ele><time>2026-03-28T15:52:54.632Z</time></trkpt><trkpt lat="39.3262842" lon="16.9968695"><ele>160.8</ele><time>2026-03-28T15:52:55.631Z</time></trkpt><trkpt lat="39.3262426" lon="16.9969855"><ele>158.0</ele><time>2026-03-28T15:52:56.639Z</time></trkpt><trkpt lat="39.3261942" lon="16.9971197"><ele>158.0</ele><time>2026-03-28T15:52:57.639Z</time></trkpt><trkpt lat="39.3261437" lon="16.9972451"><ele>158.0</ele><time>2026-03-28T15:52:58.633Z</time></trkpt><trkpt lat="39.3260965" lon="16.9973634"><ele>158.0</ele><time>2026-03-28T15:52:59.644Z</time></trkpt><trkpt lat="39.3260479" lon="16.9974765"><ele>158.0</ele><time>2026-03-28T15:53:00.643Z</time></trkpt><trkpt lat="39.3260029" lon="16.9975791"><ele>158.0</ele><time>2026-03-28T15:53:01.643Z</time></trkpt><trkpt lat="39.3259635" lon="16.9976674"><ele>157.0</ele><time>2026-03-28T15:53:02.643Z</time></trkpt><trkpt lat="39.3259018" lon="16.9977836"><ele>156.0</ele><time>2026-03-28T15:53:04.637Z</time></trkpt><trkpt lat="39.3258551" lon="16.9978662"><ele>155.0</ele><time>2026-03-28T15:53:07.636Z</time></trkpt><trkpt lat="39.3258275" lon="16.99794"><ele>154.0</ele><time>2026-03-28T15:53:18.639Z</time></trkpt><trkpt lat="39.3258" lon="16.9980183"><ele>153.0</ele><time>2026-03-28T15:58:13.636Z</time></trkpt><trkpt lat="39.3257591" lon="16.9981559"><ele>152.0</ele><time>2026-03-28T15:58:15.644Z</time></trkpt><trkpt lat="39.3257303" lon="16.9982458"><ele>148.83333333333331</ele><time>2026-03-28T15:58:16.644Z</time></trkpt><trkpt lat="39.3256975" lon="16.9983446"><ele>145.66666666666666</ele><time>2026-03-28T15:58:17.643Z</time></trkpt><trkpt lat="39.3256678" lon="16.9984375"><ele>142.5</ele><time>2026-03-28T15:58:18.634Z</time></trkpt><trkpt lat="39.3256481" lon="16.9985258"><ele>139.33333333333334</ele><time>2026-03-28T15:58:19.637Z</time></trkpt><trkpt lat="39.3256411" lon="16.9986089"><ele>136.16666666666669</ele><time>2026-03-28T15:58:20.636Z</time></trkpt><trkpt lat="39.3256606" lon="16.9987429"><ele>133.0</ele><time>2026-03-28T15:58:22.638Z</time></trkpt><trkpt lat="39.3257394" lon="16.9988516"><ele>133.0</ele><time>2026-03-28T15:58:24.661Z</time></trkpt><trkpt lat="39.3258162" lon="16.998852"><ele>133.0</ele><time>2026-03-28T15:58:25.631Z</time></trkpt><trkpt lat="39.3259045" lon="16.9988293"><ele>133.0</ele><time>2026-03-28T15:58:26.637Z</time></trkpt><trkpt lat="39.3259949" lon="16.9987979"><ele>133.0</ele><time>2026-03-28T15:58:27.638Z</time></trkpt><trkpt lat="39.3260911" lon="16.9987646"><ele>133.0</ele><time>2026-03-28T15:58:28.634Z</time></trkpt><trkpt lat="39.3261591" lon="16.998679"><ele>133.0</ele><time>2026-03-28T15:58:29.65Z</time></trkpt><trkpt lat="39.326215" lon="16.9985884"><ele>133.0</ele><time>2026-03-28T15:58:30.635Z</time></trkpt><trkpt lat="39.3262593" lon="16.9985005"><ele>133.0</ele><time>2026-03-28T15:58:31.635Z</time></trkpt><trkpt lat="39.3262979" lon="16.9984208"><ele>133.0</ele><time>2026-03-28T15:58:32.637Z</time></trkpt><trkpt lat="39.3263713" lon="16.9983698"><ele>133.0</ele><time>2026-03-28T15:58:34.633Z</time></trkpt><trkpt lat="39.3264259" lon="16.9984351"><ele>133.0</ele><time>2026-03-28T15:58:36.641Z</time></trkpt><trkpt lat="39.3264026" lon="16.9985915"><ele>133.0</ele><time>2026-03-28T15:58:38.635Z</time></trkpt><trkpt lat="39.3263696" lon="16.9987098"><ele>133.0</ele><time>2026-03-28T15:58:39.635Z</time></trkpt><trkpt lat="39.3263328" lon="16.9988291"><ele>133.0</ele><time>2026-03-28T15:58:40.637Z</time></trkpt><trkpt lat="39.3262861" lon="16.9989451"><ele>133.0</ele><time>2026-03-28T15:58:41.637Z</time></trkpt><trkpt lat="39.3262286" lon="16.9990599"><ele>133.0</ele><time>2026-03-28T15:58:42.636Z</time></trkpt><trkpt lat="39.3261604" lon="16.9991663"><ele>128.6</ele><time>2026-03-28T15:58:43.634Z</time></trkpt><trkpt lat="39.3260821" lon="16.9992617"><ele>124.20000000000002</ele><time>2026-03-28T15:58:44.641Z</time></trkpt><trkpt lat="39.3260024" lon="16.99935"><ele>119.8</ele><time>2026-03-28T15:58:45.637Z</time></trkpt><trkpt lat="39.3259194" lon="16.99943"><ele>115.4</ele><time>2026-03-28T15:58:46.634Z</time></trkpt><trkpt lat="39.3258356" lon="16.9994958"><ele>111.0</ele><time>2026-03-28T15:58:47.638Z</time></trkpt><trkpt lat="39.325756" lon="16.9995488"><ele>111.0</ele><time>2026-03-28T15:58:48.634Z</time></trkpt><trkpt lat="39.3256931" lon="16.9995914"><ele>111.0</ele><time>2026-03-28T15:58:49.633Z</time></trkpt><trkpt lat="39.3256377" lon="16.9996828"><ele>111.0</ele><time>2026-03-28T15:58:51.633Z</time></trkpt><trkpt lat="39.325699" lon="16.9998007"><ele>111.0</ele><time>2026-03-28T15:58:53.64Z</time></trkpt><trkpt lat="39.3257677" lon="16.9998858"><ele>111.0</ele><time>2026-03-28T15:58:54.639Z</time></trkpt><trkpt lat="39.3258257" lon="16.9999861"><ele>111.0</ele><time>2026-03-28T15:58:55.636Z</time></trkpt><trkpt lat="39.3258708" lon="17.0000991"><ele>111.0</ele><time>2026-03-28T15:58:56.636Z</time></trkpt><trkpt lat="39.3258976" lon="17.0002201"><ele>111.0</ele><time>2026-03-28T15:58:57.634Z</time></trkpt><trkpt lat="39.3259075" lon="17.0003548"><ele>111.0</ele><time>2026-03-28T15:58:58.637Z</time></trkpt><trkpt lat="39.3258956" lon="17.0005021"><ele>111.0</ele><time>2026-03-28T15:58:59.635Z</time></trkpt><trkpt lat="39.3258658" lon="17.0006466"><ele>111.0</ele><time>2026-03-28T15:59:00.637Z</time></trkpt><trkpt lat="39.3258247" lon="17.0007547"><ele>111.0</ele><time>2026-03-28T15:59:01.639Z</time></trkpt><trkpt lat="39.325763" lon="17.0008427"><ele>111.0</ele><time>2026-03-28T15:59:02.635Z</time></trkpt><trkpt lat="39.3256805" lon="17.0009319"><ele>111.0</ele><time>2026-03-28T15:59:03.638Z</time></trkpt><trkpt lat="39.3256064" lon="17.0010321"><ele>111.0</ele><time>2026-03-28T15:59:04.645Z</time></trkpt><trkpt lat="39.3255566" lon="17.0011468"><ele>111.0</ele><time>2026-03-28T15:59:05.635Z</time></trkpt><trkpt lat="39.3255279" lon="17.0012741"><ele>111.0</ele><time>2026-03-28T15:59:06.656Z</time></trkpt><trkpt lat="39.3255069" lon="17.0014187"><ele>111.0</ele><time>2026-03-28T15:59:07.635Z</time></trkpt><trkpt lat="39.3254903" lon="17.0015706"><ele>111.0</ele><time>2026-03-28T15:59:08.642Z</time></trkpt><trkpt lat="39.3254908" lon="17.0017258"><ele>111.0</ele><time>2026-03-28T15:59:09.636Z</time></trkpt><trkpt lat="39.3255065" lon="17.0018791"><ele>111.0</ele><time>2026-03-28T15:59:10.634Z</time></trkpt><trkpt lat="39.3255294" lon="17.0020292"><ele>111.0</ele><time>2026-03-28T15:59:11.64Z</time></trkpt><trkpt lat="39.3255523" lon="17.0021779"><ele>111.0</ele><time>2026-03-28T15:59:12.638Z</time></trkpt><trkpt lat="39.3255672" lon="17.0023156"><ele>111.5</ele><time>2026-03-28T15:59:13.645Z</time></trkpt><trkpt lat="39.3255781" lon="17.0024366"><ele>112.0</ele><time>2026-03-28T15:59:14.635Z</time></trkpt><trkpt lat="39.3255811" lon="17.0025472"><ele>112.5</ele><time>2026-03-28T15:59:15.643Z</time></trkpt><trkpt lat="39.3255793" lon="17.0026456"><ele>113.0</ele><time>2026-03-28T15:59:16.632Z</time></trkpt><trkpt lat="39.3255757" lon="17.0027488"><ele>113.5</ele><time>2026-03-28T15:59:17.634Z</time></trkpt><trkpt lat="39.3255669" lon="17.0028534"><ele>114.0</ele><time>2026-03-28T15:59:18.635Z</time></trkpt><trkpt lat="39.3255411" lon="17.0029519"><ele>114.0</ele><time>2026-03-28T15:59:19.637Z</time></trkpt><trkpt lat="39.3255066" lon="17.0030344"><ele>114.0</ele><time>2026-03-28T15:59:20.64Z</time></trkpt><trkpt lat="39.3254572" lon="17.0031625"><ele>114.0</ele><time>2026-03-28T15:59:22.645Z</time></trkpt><trkpt lat="39.325423" lon="17.0032491"><ele>114.0</ele><time>2026-03-28T15:59:25.648Z</time></trkpt><trkpt lat="39.3253859" lon="17.0033278"><ele>114.0</ele><time>2026-03-28T15:59:40.64Z</time></trkpt><trkpt lat="39.3253598" lon="17.003416"><ele>114.0</ele><time>2026-03-28T15:59:51.636Z</time></trkpt><trkpt lat="39.3253497" lon="17.0035219"><ele>113.66666666666667</ele><time>2026-03-28T16:00:02.641Z</time></trkpt><trkpt lat="39.3252771" lon="17.0035922"><ele>113.33333333333334</ele><time>2026-03-28T16:00:09.635Z</time></trkpt><trkpt lat="39.325236" lon="17.0036763"><ele>113.0</ele><time>2026-03-28T16:00:11.639Z</time></trkpt><trkpt lat="39.3251862" lon="17.0037767"><ele>112.66666666666667</ele><time>2026-03-28T16:00:13.636Z</time></trkpt><trkpt lat="39.3251658" lon="17.0038695"><ele>112.33333333333334</ele><time>2026-03-28T16:00:16.661Z</time></trkpt><trkpt lat="39.32514" lon="17.003981"><ele>112.0</ele><time>2026-03-28T16:00:18.702Z</time></trkpt><trkpt lat="39.3251506" lon="17.004104"><ele>111.16666666666667</ele><time>2026-03-28T16:00:20.709Z</time></trkpt><trkpt lat="39.325148" lon="17.0042615"><ele>110.33333333333334</ele><time>2026-03-28T16:00:22.635Z</time></trkpt><trkpt lat="39.3251648" lon="17.0043455"><ele>109.5</ele><time>2026-03-28T16:00:23.642Z</time></trkpt><trkpt lat="39.3251781" lon="17.0044286"><ele>108.66666666666666</ele><time>2026-03-28T16:00:24.638Z</time></trkpt><trkpt lat="39.3251803" lon="17.0045106"><ele>107.83333333333333</ele><time>2026-03-28T16:00:25.636Z</time></trkpt><trkpt lat="39.3251744" lon="17.0046007"><ele>107.0</ele><time>2026-03-28T16:00:26.638Z</time></trkpt><trkpt lat="39.325167" lon="17.0047155"><ele>106.99999999999999</ele><time>2026-03-28T16:00:27.643Z</time></trkpt><trkpt lat="39.3251605" lon="17.0048424"><ele>107.0</ele><time>2026-03-28T16:00:28.632Z</time></trkpt><trkpt lat="39.3251565" lon="17.0049574"><ele>107.0</ele><time>2026-03-28T16:00:29.634Z</time></trkpt><trkpt lat="39.3251554" lon="17.0050549"><ele>107.0</ele><time>2026-03-28T16:00:30.633Z</time></trkpt><trkpt lat="39.3251479" lon="17.0051429"><ele>106.99999999999999</ele><time>2026-03-28T16:00:31.639Z</time></trkpt><trkpt lat="39.3251343" lon="17.0052827"><ele>107.0</ele><time>2026-03-28T16:00:33.638Z</time></trkpt><trkpt lat="39.3251519" lon="17.00537"><ele>106.83333333333333</ele><time>2026-03-28T16:00:35.64Z</time></trkpt><trkpt lat="39.3251707" lon="17.0055016"><ele>106.66666666666666</ele><time>2026-03-28T16:00:37.638Z</time></trkpt><trkpt lat="39.3251669" lon="17.0055911"><ele>106.5</ele><time>2026-03-28T16:00:38.637Z</time></trkpt><trkpt lat="39.3251559" lon="17.0056857"><ele>106.33333333333334</ele><time>2026-03-28T16:00:39.638Z</time></trkpt><trkpt lat="39.325156" lon="17.0057765"><ele>106.16666666666667</ele><time>2026-03-28T16:00:40.637Z</time></trkpt><trkpt lat="39.3251549" lon="17.0058728"><ele>106.0</ele><time>2026-03-28T16:00:41.642Z</time></trkpt><trkpt lat="39.3251537" lon="17.0059614"><ele>105.50000000000001</ele><time>2026-03-28T16:00:42.637Z</time></trkpt><trkpt lat="39.3251438" lon="17.0060927"><ele>105.0</ele><time>2026-03-28T16:00:44.636Z</time></trkpt><trkpt lat="39.3251074" lon="17.0061745"><ele>104.5</ele><time>2026-03-28T16:00:46.638Z</time></trkpt><trkpt lat="39.3250945" lon="17.0062797"><ele>104.0</ele><time>2026-03-28T16:00:48.635Z</time></trkpt><trkpt lat="39.3250906" lon="17.0064093"><ele>103.50000000000001</ele><time>2026-03-28T16:00:50.641Z</time></trkpt><trkpt lat="39.3250926" lon="17.0065131"><ele>103.0</ele><time>2026-03-28T16:00:52.637Z</time></trkpt><trkpt lat="39.325098" lon="17.0066367"><ele>103.33333333333334</ele><time>2026-03-28T16:00:55.648Z</time></trkpt><trkpt lat="39.3251259" lon="17.0067417"><ele>103.66666666666667</ele><time>2026-03-28T16:00:57.635Z</time></trkpt><trkpt lat="39.3251521" lon="17.0068455"><ele>104.0</ele><time>2026-03-28T16:00:59.638Z</time></trkpt><trkpt lat="39.3251716" lon="17.0069402"><ele>104.33333333333334</ele><time>2026-03-28T16:01:01.635Z</time></trkpt><trkpt lat="39.3252201" lon="17.007014"><ele>104.66666666666667</ele><time>2026-03-28T16:01:03.639Z</time></trkpt><trkpt lat="39.3252723" lon="17.0071031"><ele>105.0</ele><time>2026-03-28T16:01:05.638Z</time></trkpt><trkpt lat="39.3253412" lon="17.0071666"><ele>105.0</ele><time>2026-03-28T16:01:07.635Z</time></trkpt><trkpt lat="39.3254383" lon="17.0071732"><ele>105.0</ele><time>2026-03-28T16:01:09.637Z</time></trkpt><trkpt lat="39.3255261" lon="17.0071659"><ele>105.0</ele><time>2026-03-28T16:01:11.635Z</time></trkpt><trkpt lat="39.325592" lon="17.00716"><ele>105.0</ele><time>2026-03-28T16:01:12.635Z</time></trkpt><trkpt lat="39.3256639" lon="17.0071509"><ele>105.0</ele><time>2026-03-28T16:01:13.634Z</time></trkpt><trkpt lat="39.3257318" lon="17.0071407"><ele>105.0</ele><time>2026-03-28T16:01:14.646Z</time></trkpt><trkpt lat="39.325795" lon="17.0071347"><ele>103.4</ele><time>2026-03-28T16:01:15.636Z</time></trkpt><trkpt lat="39.325858" lon="17.0071325"><ele>101.8</ele><time>2026-03-28T16:01:16.642Z</time></trkpt><trkpt lat="39.3259631" lon="17.0071475"><ele>100.19999999999999</ele><time>2026-03-28T16:01:18.633Z</time></trkpt><trkpt lat="39.3260553" lon="17.0071718"><ele>98.6</ele><time>2026-03-28T16:01:20.644Z</time></trkpt><trkpt lat="39.3261468" lon="17.0072033"><ele>97.0</ele><time>2026-03-28T16:01:22.637Z</time></trkpt><trkpt lat="39.3262357" lon="17.0072599"><ele>97.00000000000001</ele><time>2026-03-28T16:01:24.639Z</time></trkpt><trkpt lat="39.3263099" lon="17.0073247"><ele>97.0</ele><time>2026-03-28T16:01:26.645Z</time></trkpt><trkpt lat="39.3263692" lon="17.0073825"><ele>97.0</ele><time>2026-03-28T16:01:28.635Z</time></trkpt><trkpt lat="39.3264289" lon="17.0074437"><ele>97.0</ele><time>2026-03-28T16:01:30.637Z</time></trkpt><trkpt lat="39.3264692" lon="17.007519"><ele>97.00000000000001</ele><time>2026-03-28T16:01:32.64Z</time></trkpt><trkpt lat="39.3264972" lon="17.0075923"><ele>97.0</ele><time>2026-03-28T16:01:34.645Z</time></trkpt><trkpt lat="39.3265356" lon="17.0076992"><ele>96.6</ele><time>2026-03-28T16:01:36.635Z</time></trkpt><trkpt lat="39.3265763" lon="17.0078101"><ele>96.19999999999999</ele><time>2026-03-28T16:01:38.638Z</time></trkpt><trkpt lat="39.3266043" lon="17.0079194"><ele>95.8</ele><time>2026-03-28T16:01:40.636Z</time></trkpt><trkpt lat="39.3266288" lon="17.0080665"><ele>95.4</ele><time>2026-03-28T16:01:42.64Z</time></trkpt><trkpt lat="39.3266058" lon="17.0082034"><ele>95.0</ele><time>2026-03-28T16:01:44.633Z</time></trkpt><trkpt lat="39.3265446" lon="17.0083167"><ele>94.66666666666667</ele><time>2026-03-28T16:01:46.633Z</time></trkpt><trkpt lat="39.3264838" lon="17.0084309"><ele>94.33333333333334</ele><time>2026-03-28T16:01:48.637Z</time></trkpt><trkpt lat="39.326449" lon="17.0085112"><ele>94.0</ele><time>2026-03-28T16:01:50.637Z</time></trkpt><trkpt lat="39.3264216" lon="17.0086132"><ele>93.66666666666667</ele><time>2026-03-28T16:01:52.637Z</time></trkpt><trkpt lat="39.3264208" lon="17.0086994"><ele>93.33333333333333</ele><time>2026-03-28T16:01:54.636Z</time></trkpt><trkpt lat="39.3264211" lon="17.0088299"><ele>93.0</ele><time>2026-03-28T16:01:56.639Z</time></trkpt><trkpt lat="39.3264398" lon="17.0089109"><ele>93.0</ele><time>2026-03-28T16:01:57.637Z</time></trkpt><trkpt lat="39.3265004" lon="17.00904"><ele>93.0</ele><time>2026-03-28T16:01:59.643Z</time></trkpt><trkpt lat="39.3265669" lon="17.0091142"><ele>93.0</ele><time>2026-03-28T16:02:01.636Z</time></trkpt><trkpt lat="39.3266369" lon="17.0091676"><ele>93.0</ele><time>2026-03-28T16:02:03.64Z</time></trkpt><trkpt lat="39.3267213" lon="17.0092349"><ele>93.0</ele><time>2026-03-28T16:02:05.637Z</time></trkpt><trkpt lat="39.3268198" lon="17.0092692"><ele>92.5</ele><time>2026-03-28T16:02:07.641Z</time></trkpt><trkpt lat="39.3268957" lon="17.0092731"><ele>92.0</ele><time>2026-03-28T16:02:10.637Z</time></trkpt><trkpt lat="39.3269631" lon="17.0092861"><ele>91.5</ele><time>2026-03-28T16:02:14.638Z</time></trkpt><trkpt lat="39.32703" lon="17.0093157"><ele>91.0</ele><time>2026-03-28T16:02:17.646Z</time></trkpt><trkpt lat="39.3270844" lon="17.0093645"><ele>90.5</ele><time>2026-03-28T16:02:20.64Z</time></trkpt><trkpt lat="39.3271482" lon="17.0094321"><ele>90.0</ele><time>2026-03-28T16:02:22.642Z</time></trkpt><trkpt lat="39.3272251" lon="17.0095049"><ele>90.8</ele><time>2026-03-28T16:02:24.637Z</time></trkpt><trkpt lat="39.327321" lon="17.0095467"><ele>91.6</ele><time>2026-03-28T16:02:26.639Z</time></trkpt><trkpt lat="39.3274314" lon="17.0095845"><ele>92.4</ele><time>2026-03-28T16:02:28.636Z</time></trkpt><trkpt lat="39.3275266" lon="17.0096813"><ele>93.2</ele><time>2026-03-28T16:02:30.633Z</time></trkpt><trkpt lat="39.3275478" lon="17.0097635"><ele>94.0</ele><time>2026-03-28T16:02:31.635Z</time></trkpt><trkpt lat="39.3275689" lon="17.0098476"><ele>94.0</ele><time>2026-03-28T16:02:32.634Z</time></trkpt><trkpt lat="39.3275438" lon="17.0099304"><ele>94.0</ele><time>2026-03-28T16:02:33.638Z</time></trkpt><trkpt lat="39.3275098" lon="17.0100603"><ele>94.0</ele><time>2026-03-28T16:02:35.64Z</time></trkpt><trkpt lat="39.3274898" lon="17.0101568"><ele>94.0</ele><time>2026-03-28T16:02:37.64Z</time></trkpt><trkpt lat="39.3274644" lon="17.0102457"><ele>94.0</ele><time>2026-03-28T16:02:39.633Z</time></trkpt><trkpt lat="39.3274178" lon="17.010347"><ele>94.0</ele><time>2026-03-28T16:02:41.637Z</time></trkpt><trkpt lat="39.3273858" lon="17.0104229"><ele>93.33333333333333</ele><time>2026-03-28T16:02:43.638Z</time></trkpt><trkpt lat="39.3273506" lon="17.0104996"><ele>92.66666666666666</ele><time>2026-03-28T16:02:45.638Z</time></trkpt><trkpt lat="39.3273199" lon="17.0106013"><ele>92.0</ele><time>2026-03-28T16:02:47.636Z</time></trkpt><trkpt lat="39.3273108" lon="17.0106894"><ele>91.33333333333333</ele><time>2026-03-28T16:02:49.638Z</time></trkpt><trkpt lat="39.3273183" lon="17.0107845"><ele>90.66666666666667</ele><time>2026-03-28T16:02:53.636Z</time></trkpt><trkpt lat="39.3273831" lon="17.0108366"><ele>90.0</ele><time>2026-03-28T16:02:59.638Z</time></trkpt><trkpt lat="39.3274591" lon="17.0108816"><ele>90.0</ele><time>2026-03-28T16:03:02.633Z</time></trkpt><trkpt lat="39.3275281" lon="17.0109502"><ele>90.0</ele><time>2026-03-28T16:03:04.637Z</time></trkpt><trkpt lat="39.3276046" lon="17.0110091"><ele>90.0</ele><time>2026-03-28T16:03:06.633Z</time></trkpt><trkpt lat="39.3276932" lon="17.0110769"><ele>90.0</ele><time>2026-03-28T16:03:08.637Z</time></trkpt><trkpt lat="39.3277879" lon="17.0111495"><ele>90.0</ele><time>2026-03-28T16:03:10.632Z</time></trkpt><trkpt lat="39.3278435" lon="17.0111943"><ele>90.0</ele><time>2026-03-28T16:03:11.635Z</time></trkpt><trkpt lat="39.3279433" lon="17.0112805"><ele>90.0</ele><time>2026-03-28T16:03:13.638Z</time></trkpt><trkpt lat="39.3280167" lon="17.0113695"><ele>90.0</ele><time>2026-03-28T16:03:15.636Z</time></trkpt><trkpt lat="39.3280737" lon="17.0114626"><ele>90.0</ele><time>2026-03-28T16:03:17.637Z</time></trkpt><trkpt lat="39.3280908" lon="17.0115606"><ele>90.0</ele><time>2026-03-28T16:03:19.655Z</time></trkpt><trkpt lat="39.3280367" lon="17.0116516"><ele>91.0</ele><time>2026-03-28T16:03:22.64Z</time></trkpt><trkpt lat="39.3279589" lon="17.0116987"><ele>92.0</ele><time>2026-03-28T16:03:24.636Z</time></trkpt><trkpt lat="39.327873" lon="17.0117555"><ele>93.0</ele><time>2026-03-28T16:03:26.635Z</time></trkpt><trkpt lat="39.3278169" lon="17.0118021"><ele>94.0</ele><time>2026-03-28T16:03:27.636Z</time></trkpt><trkpt lat="39.3277641" lon="17.0118551"><ele>95.0</ele><time>2026-03-28T16:03:28.639Z</time></trkpt><trkpt lat="39.3277134" lon="17.0119393"><ele>96.0</ele><time>2026-03-28T16:03:30.637Z</time></trkpt><trkpt lat="39.3277099" lon="17.0120311"><ele>96.0</ele><time>2026-03-28T16:03:32.639Z</time></trkpt><trkpt lat="39.3276967" lon="17.0121437"><ele>96.0</ele><time>2026-03-28T16:03:34.639Z</time></trkpt><trkpt lat="39.3276838" lon="17.0122479"><ele>96.0</ele><time>2026-03-28T16:03:36.635Z</time></trkpt><trkpt lat="39.327689" lon="17.0123586"><ele>96.0</ele><time>2026-03-28T16:03:38.639Z</time></trkpt><trkpt lat="39.3277037" lon="17.0124699"><ele>96.0</ele><time>2026-03-28T16:03:40.634Z</time></trkpt><trkpt lat="39.327729" lon="17.0125861"><ele>96.0</ele><time>2026-03-28T16:03:42.634Z</time></trkpt><trkpt lat="39.3277896" lon="17.0127003"><ele>95.6</ele><time>2026-03-28T16:03:44.636Z</time></trkpt><trkpt lat="39.3278516" lon="17.0127741"><ele>95.19999999999999</ele><time>2026-03-28T16:03:46.637Z</time></trkpt><trkpt lat="39.3279087" lon="17.012815"><ele>94.80000000000001</ele><time>2026-03-28T16:03:48.643Z</time></trkpt><trkpt lat="39.3279857" lon="17.0128268"><ele>94.4</ele><time>2026-03-28T16:03:50.636Z</time></trkpt><trkpt lat="39.3280874" lon="17.0127928"><ele>94.0</ele><time>2026-03-28T16:03:52.641Z</time></trkpt><trkpt lat="39.3281958" lon="17.0127343"><ele>93.0</ele><time>2026-03-28T16:03:54.636Z</time></trkpt><trkpt lat="39.328264" lon="17.0127155"><ele>92.0</ele><time>2026-03-28T16:03:55.634Z</time></trkpt><trkpt lat="39.3283712" lon="17.0127096"><ele>91.0</ele><time>2026-03-28T16:03:57.636Z</time></trkpt><trkpt lat="39.3284333" lon="17.0126873"><ele>90.0</ele><time>2026-03-28T16:03:59.637Z</time></trkpt><trkpt lat="39.3285039" lon="17.0126753"><ele>89.0</ele><time>2026-03-28T16:04:03.641Z</time></trkpt><trkpt lat="39.3285925" lon="17.0126886"><ele>88.0</ele><time>2026-03-28T16:04:06.633Z</time></trkpt><trkpt lat="39.3286817" lon="17.0126928"><ele>88.0</ele><time>2026-03-28T16:04:08.636Z</time></trkpt><trkpt lat="39.3287459" lon="17.0127068"><ele>88.0</ele><time>2026-03-28T16:04:09.647Z</time></trkpt><trkpt lat="39.328818" lon="17.012725"><ele>88.0</ele><time>2026-03-28T16:04:10.639Z</time></trkpt><trkpt lat="39.328883" lon="17.0127459"><ele>88.0</ele><time>2026-03-28T16:04:11.637Z</time></trkpt><trkpt lat="39.3289499" lon="17.0127688"><ele>88.0</ele><time>2026-03-28T16:04:12.636Z</time></trkpt><trkpt lat="39.329009" lon="17.0127978"><ele>88.0</ele><time>2026-03-28T16:04:13.635Z</time></trkpt><trkpt lat="39.3290999" lon="17.0128685"><ele>88.0</ele><time>2026-03-28T16:04:15.636Z</time></trkpt><trkpt lat="39.329124" lon="17.012947"><ele>88.0</ele><time>2026-03-28T16:04:17.637Z</time></trkpt><trkpt lat="39.3290844" lon="17.0130691"><ele>88.0</ele><time>2026-03-28T16:04:20.637Z</time></trkpt><trkpt lat="39.3290076" lon="17.0131919"><ele>88.0</ele><time>2026-03-28T16:04:22.636Z</time></trkpt><trkpt lat="39.3289528" lon="17.0133251"><ele>88.0</ele><time>2026-03-28T16:04:24.646Z</time></trkpt><trkpt lat="39.3289072" lon="17.0134705"><ele>88.0</ele><time>2026-03-28T16:04:26.634Z</time></trkpt><trkpt lat="39.3289088" lon="17.0136045"><ele>88.0</ele><time>2026-03-28T16:04:28.644Z</time></trkpt><trkpt lat="39.3289275" lon="17.0137395"><ele>88.0</ele><time>2026-03-28T16:04:30.65Z</time></trkpt><trkpt lat="39.32896" lon="17.0138869"><ele>88.0</ele><time>2026-03-28T16:04:32.634Z</time></trkpt><trkpt lat="39.3289744" lon="17.0140091"><ele>88.0</ele><time>2026-03-28T16:04:34.642Z</time></trkpt><trkpt lat="39.3289869" lon="17.014132"><ele>88.0</ele><time>2026-03-28T16:04:36.643Z</time></trkpt><trkpt lat="39.3290188" lon="17.0142591"><ele>88.0</ele><time>2026-03-28T16:04:38.647Z</time></trkpt><trkpt lat="39.3290454" lon="17.0143777"><ele>88.0</ele><time>2026-03-28T16:04:40.634Z</time></trkpt><trkpt lat="39.3290558" lon="17.0145043"><ele>88.0</ele><time>2026-03-28T16:04:42.636Z</time></trkpt><trkpt lat="39.3290676" lon="17.0146665"><ele>88.0</ele><time>2026-03-28T16:04:44.644Z</time></trkpt><trkpt lat="39.3290722" lon="17.0147499"><ele>88.0</ele><time>2026-03-28T16:04:45.645Z</time></trkpt><trkpt lat="39.3290786" lon="17.0148549"><ele>88.0</ele><time>2026-03-28T16:04:47.633Z</time></trkpt><trkpt lat="39.3290825" lon="17.0149407"><ele>88.0</ele><time>2026-03-28T16:04:49.636Z</time></trkpt><trkpt lat="39.3290892" lon="17.0150427"><ele>88.0</ele><time>2026-03-28T16:04:51.641Z</time></trkpt><trkpt lat="39.3291006" lon="17.0151737"><ele>88.0</ele><time>2026-03-28T16:04:53.635Z</time></trkpt><trkpt lat="39.329115" lon="17.0153035"><ele>88.0</ele><time>2026-03-28T16:04:55.637Z</time></trkpt><trkpt lat="39.3291289" lon="17.0154207"><ele>86.80000000000001</ele><time>2026-03-28T16:04:57.638Z</time></trkpt><trkpt lat="39.3291364" lon="17.0155127"><ele>85.6</ele><time>2026-03-28T16:04:59.634Z</time></trkpt><trkpt lat="39.3291458" lon="17.0156241"><ele>84.4</ele><time>2026-03-28T16:05:01.638Z</time></trkpt><trkpt lat="39.3291569" lon="17.0157628"><ele>83.19999999999999</ele><time>2026-03-28T16:05:03.636Z</time></trkpt><trkpt lat="39.3291662" lon="17.0159006"><ele>82.0</ele><time>2026-03-28T16:05:05.634Z</time></trkpt><trkpt lat="39.3291994" lon="17.0160084"><ele>81.8</ele><time>2026-03-28T16:05:07.636Z</time></trkpt><trkpt lat="39.3292284" lon="17.0161346"><ele>81.6</ele><time>2026-03-28T16:05:09.644Z</time></trkpt><trkpt lat="39.3292602" lon="17.0162602"><ele>81.39999999999999</ele><time>2026-03-28T16:05:11.636Z</time></trkpt><trkpt lat="39.3292865" lon="17.0163576"><ele>81.19999999999999</ele><time>2026-03-28T16:05:12.645Z</time></trkpt><trkpt lat="39.329326" lon="17.0164713"><ele>81.0</ele><time>2026-03-28T16:05:13.642Z</time></trkpt><trkpt lat="39.3293614" lon="17.0165689"><ele>81.0</ele><time>2026-03-28T16:05:14.645Z</time></trkpt><trkpt lat="39.329395" lon="17.0166423"><ele>81.0</ele><time>2026-03-28T16:05:15.634Z</time></trkpt><trkpt lat="39.3294302" lon="17.0167136"><ele>81.0</ele><time>2026-03-28T16:05:16.634Z</time></trkpt><trkpt lat="39.3294702" lon="17.0167824"><ele>81.0</ele><time>2026-03-28T16:05:17.636Z</time></trkpt><trkpt lat="39.3295194" lon="17.0168464"><ele>81.0</ele><time>2026-03-28T16:05:18.64Z</time></trkpt><trkpt lat="39.3295717" lon="17.0169117"><ele>81.0</ele><time>2026-03-28T16:05:19.637Z</time></trkpt><trkpt lat="39.3296253" lon="17.01698"><ele>81.0</ele><time>2026-03-28T16:05:20.637Z</time></trkpt><trkpt lat="39.3296748" lon="17.017042"><ele>80.66666666666667</ele><time>2026-03-28T16:05:21.646Z</time></trkpt><trkpt lat="39.3297259" lon="17.0170986"><ele>80.33333333333333</ele><time>2026-03-28T16:05:22.637Z</time></trkpt><trkpt lat="39.3297749" lon="17.0171504"><ele>80.0</ele><time>2026-03-28T16:05:23.636Z</time></trkpt><trkpt lat="39.3298646" lon="17.0172408"><ele>79.66666666666666</ele><time>2026-03-28T16:05:25.638Z</time></trkpt><trkpt lat="39.3299576" lon="17.0173616"><ele>79.33333333333333</ele><time>2026-03-28T16:05:27.637Z</time></trkpt><trkpt lat="39.3300092" lon="17.0174264"><ele>79.0</ele><time>2026-03-28T16:05:28.635Z</time></trkpt><trkpt lat="39.3300843" lon="17.0175441"><ele>79.0</ele><time>2026-03-28T16:05:30.637Z</time></trkpt><trkpt lat="39.3301524" lon="17.0176784"><ele>79.0</ele><time>2026-03-28T16:05:32.651Z</time></trkpt><trkpt lat="39.3302012" lon="17.017817"><ele>79.0</ele><time>2026-03-28T16:05:34.635Z</time></trkpt><trkpt lat="39.3302225" lon="17.0179507"><ele>79.0</ele><time>2026-03-28T16:05:36.633Z</time></trkpt><trkpt lat="39.3302651" lon="17.0180664"><ele>79.0</ele><time>2026-03-28T16:05:38.634Z</time></trkpt><trkpt lat="39.3302912" lon="17.0181908"><ele>78.83333333333333</ele><time>2026-03-28T16:05:40.637Z</time></trkpt><trkpt lat="39.3303073" lon="17.0183268"><ele>78.66666666666666</ele><time>2026-03-28T16:05:42.633Z</time></trkpt><trkpt lat="39.3303067" lon="17.0184714"><ele>78.5</ele><time>2026-03-28T16:05:44.651Z</time></trkpt><trkpt lat="39.3303003" lon="17.0185529"><ele>78.33333333333333</ele><time>2026-03-28T16:05:45.636Z</time></trkpt><trkpt lat="39.3302903" lon="17.0186423"><ele>78.16666666666667</ele><time>2026-03-28T16:05:46.634Z</time></trkpt><trkpt lat="39.3302744" lon="17.0187268"><ele>78.0</ele><time>2026-03-28T16:05:47.636Z</time></trkpt><trkpt lat="39.3302401" lon="17.0188639"><ele>78.0</ele><time>2026-03-28T16:05:49.635Z</time></trkpt><trkpt lat="39.3302068" lon="17.0189816"><ele>78.0</ele><time>2026-03-28T16:05:51.648Z</time></trkpt><trkpt lat="39.3301581" lon="17.0191006"><ele>78.0</ele><time>2026-03-28T16:05:53.64Z</time></trkpt><trkpt lat="39.3300838" lon="17.0192177"><ele>78.0</ele><time>2026-03-28T16:05:55.64Z</time></trkpt><trkpt lat="39.3300215" lon="17.0193325"><ele>78.0</ele><time>2026-03-28T16:05:57.633Z</time></trkpt><trkpt lat="39.3299646" lon="17.0194471"><ele>77.16666666666667</ele><time>2026-03-28T16:05:59.646Z</time></trkpt><trkpt lat="39.3299332" lon="17.0195224"><ele>76.33333333333333</ele><time>2026-03-28T16:06:00.638Z</time></trkpt><trkpt lat="39.3298891" lon="17.0196257"><ele>75.5</ele><time>2026-03-28T16:06:01.65Z</time></trkpt><trkpt lat="39.3298444" lon="17.0197217"><ele>74.66666666666666</ele><time>2026-03-28T16:06:02.633Z</time></trkpt><trkpt lat="39.3298048" lon="17.0198042"><ele>73.83333333333333</ele><time>2026-03-28T16:06:03.637Z</time></trkpt><trkpt lat="39.3297739" lon="17.0198847"><ele>73.0</ele><time>2026-03-28T16:06:04.636Z</time></trkpt><trkpt lat="39.3297454" lon="17.0199634"><ele>75.66666666666666</ele><time>2026-03-28T16:06:05.635Z</time></trkpt><trkpt lat="39.3297151" lon="17.020049"><ele>78.33333333333333</ele><time>2026-03-28T16:06:06.643Z</time></trkpt><trkpt lat="39.3296903" lon="17.0201329"><ele>81.0</ele><time>2026-03-28T16:06:07.636Z</time></trkpt><trkpt lat="39.3296697" lon="17.0202146"><ele>83.66666666666667</ele><time>2026-03-28T16:06:08.637Z</time></trkpt><trkpt lat="39.3296496" lon="17.0202989"><ele>86.33333333333334</ele><time>2026-03-28T16:06:09.637Z</time></trkpt><trkpt lat="39.3296313" lon="17.0203869"><ele>89.0</ele><time>2026-03-28T16:06:10.637Z</time></trkpt><trkpt lat="39.3296128" lon="17.020522"><ele>89.0</ele><time>2026-03-28T16:06:12.643Z</time></trkpt><trkpt lat="39.3296323" lon="17.02063"><ele>89.0</ele><time>2026-03-28T16:06:14.634Z</time></trkpt><trkpt lat="39.3296902" lon="17.0206969"><ele>89.0</ele><time>2026-03-28T16:06:16.637Z</time></trkpt><trkpt lat="39.3297529" lon="17.0207933"><ele>89.0</ele><time>2026-03-28T16:06:18.637Z</time></trkpt><trkpt lat="39.3297978" lon="17.020852"><ele>89.0</ele><time>2026-03-28T16:06:19.638Z</time></trkpt><trkpt lat="39.3298829" lon="17.0209543"><ele>89.0</ele><time>2026-03-28T16:06:21.635Z</time></trkpt><trkpt lat="39.3299427" lon="17.0210833"><ele>86.16666666666667</ele><time>2026-03-28T16:06:23.638Z</time></trkpt><trkpt lat="39.3299508" lon="17.0211753"><ele>83.33333333333334</ele><time>2026-03-28T16:06:24.639Z</time></trkpt><trkpt lat="39.3299443" lon="17.021292"><ele>80.5</ele><time>2026-03-28T16:06:25.638Z</time></trkpt><trkpt lat="39.3299388" lon="17.0214108"><ele>77.66666666666667</ele><time>2026-03-28T16:06:26.648Z</time></trkpt><trkpt lat="39.3299285" lon="17.0215064"><ele>74.83333333333333</ele><time>2026-03-28T16:06:27.636Z</time></trkpt><trkpt lat="39.3299234" lon="17.0216455"><ele>72.0</ele><time>2026-03-28T16:06:29.643Z</time></trkpt><trkpt lat="39.3299139" lon="17.0218136"><ele>71.71428571428572</ele><time>2026-03-28T16:06:31.636Z</time></trkpt><trkpt lat="39.3299033" lon="17.0219268"><ele>71.42857142857143</ele><time>2026-03-28T16:06:32.64Z</time></trkpt><trkpt lat="39.3299034" lon="17.0220404"><ele>71.14285714285714</ele><time>2026-03-28T16:06:33.635Z</time></trkpt><trkpt lat="39.3299195" lon="17.022129"><ele>70.85714285714286</ele><time>2026-03-28T16:06:34.636Z</time></trkpt><trkpt lat="39.3299469" lon="17.0222091"><ele>70.57142857142857</ele><time>2026-03-28T16:06:35.65Z</time></trkpt><trkpt lat="39.3299791" lon="17.0222814"><ele>70.28571428571429</ele><time>2026-03-28T16:06:36.643Z</time></trkpt><trkpt lat="39.3300166" lon="17.022357"><ele>70.0</ele><time>2026-03-28T16:06:37.642Z</time></trkpt><trkpt lat="39.3300609" lon="17.022427"><ele>71.0</ele><time>2026-03-28T16:06:38.634Z</time></trkpt><trkpt lat="39.330118" lon="17.0224885"><ele>72.0</ele><time>2026-03-28T16:06:39.635Z</time></trkpt><trkpt lat="39.3301836" lon="17.0225462"><ele>73.0</ele><time>2026-03-28T16:06:40.635Z</time></trkpt><trkpt lat="39.3302532" lon="17.0225955"><ele>74.0</ele><time>2026-03-28T16:06:41.646Z</time></trkpt><trkpt lat="39.3303207" lon="17.0226438"><ele>75.0</ele><time>2026-03-28T16:06:42.639Z</time></trkpt><trkpt lat="39.3303858" lon="17.0227045"><ele>76.0</ele><time>2026-03-28T16:06:43.637Z</time></trkpt><trkpt lat="39.3304507" lon="17.0227567"><ele>76.0</ele><time>2026-03-28T16:06:44.635Z</time></trkpt><trkpt lat="39.3305243" lon="17.022796"><ele>76.0</ele><time>2026-03-28T16:06:45.633Z</time></trkpt><trkpt lat="39.3305978" lon="17.0228529"><ele>76.0</ele><time>2026-03-28T16:06:46.642Z</time></trkpt><trkpt lat="39.3306762" lon="17.0229251"><ele>76.0</ele><time>2026-03-28T16:06:47.641Z</time></trkpt><trkpt lat="39.3307521" lon="17.0229997"><ele>76.0</ele><time>2026-03-28T16:06:48.653Z</time></trkpt><trkpt lat="39.3308291" lon="17.0230739"><ele>75.0</ele><time>2026-03-28T16:06:49.632Z</time></trkpt><trkpt lat="39.3308966" lon="17.0231479"><ele>74.0</ele><time>2026-03-28T16:06:50.637Z</time></trkpt><trkpt lat="39.3309635" lon="17.0232243"><ele>73.0</ele><time>2026-03-28T16:06:51.635Z</time></trkpt><trkpt lat="39.3310357" lon="17.0232948"><ele>72.0</ele><time>2026-03-28T16:06:52.637Z</time></trkpt><trkpt lat="39.3311131" lon="17.0233549"><ele>71.0</ele><time>2026-03-28T16:06:53.631Z</time></trkpt><trkpt lat="39.3311985" lon="17.0234114"><ele>70.33333333333334</ele><time>2026-03-28T16:06:54.641Z</time></trkpt><trkpt lat="39.3312854" lon="17.0234665"><ele>69.66666666666667</ele><time>2026-03-28T16:06:55.637Z</time></trkpt><trkpt lat="39.3313699" lon="17.0235168"><ele>69.0</ele><time>2026-03-28T16:06:56.652Z</time></trkpt><trkpt lat="39.3314527" lon="17.0235631"><ele>68.33333333333333</ele><time>2026-03-28T16:06:57.637Z</time></trkpt><trkpt lat="39.3315306" lon="17.0236083"><ele>67.66666666666666</ele><time>2026-03-28T16:06:58.64Z</time></trkpt><trkpt lat="39.3315981" lon="17.0236589"><ele>67.0</ele><time>2026-03-28T16:06:59.638Z</time></trkpt><trkpt lat="39.3316634" lon="17.0237169"><ele>67.5</ele><time>2026-03-28T16:07:00.643Z</time></trkpt><trkpt lat="39.3317274" lon="17.0237671"><ele>68.0</ele><time>2026-03-28T16:07:01.643Z</time></trkpt><trkpt lat="39.3317911" lon="17.0238154"><ele>68.5</ele><time>2026-03-28T16:07:02.644Z</time></trkpt><trkpt lat="39.3318437" lon="17.0238707"><ele>69.0</ele><time>2026-03-28T16:07:03.635Z</time></trkpt><trkpt lat="39.3319029" lon="17.023978"><ele>69.5</ele><time>2026-03-28T16:07:05.635Z</time></trkpt><trkpt lat="39.3319304" lon="17.0240786"><ele>70.0</ele><time>2026-03-28T16:07:08.639Z</time></trkpt><trkpt lat="39.3319281" lon="17.0242236"><ele>70.0</ele><time>2026-03-28T16:07:11.636Z</time></trkpt><trkpt lat="39.3319069" lon="17.0243027"><ele>70.0</ele><time>2026-03-28T16:07:12.647Z</time></trkpt><trkpt lat="39.3318698" lon="17.0243718"><ele>70.0</ele><time>2026-03-28T16:07:13.637Z</time></trkpt><trkpt lat="39.3318259" lon="17.0244327"><ele>70.0</ele><time>2026-03-28T16:07:14.634Z</time></trkpt><trkpt lat="39.3317242" lon="17.0245175"><ele>70.0</ele><time>2026-03-28T16:07:16.637Z</time></trkpt><trkpt lat="39.331623" lon="17.0245913"><ele>70.0</ele><time>2026-03-28T16:07:18.648Z</time></trkpt><trkpt lat="39.3315121" lon="17.024659"><ele>70.0</ele><time>2026-03-28T16:07:20.633Z</time></trkpt><trkpt lat="39.3314514" lon="17.0246896"><ele>70.0</ele><time>2026-03-28T16:07:21.637Z</time></trkpt><trkpt lat="39.3313881" lon="17.0247154"><ele>70.0</ele><time>2026-03-28T16:07:22.633Z</time></trkpt><trkpt lat="39.3313246" lon="17.0247456"><ele>70.0</ele><time>2026-03-28T16:07:23.633Z</time></trkpt><trkpt lat="39.3312605" lon="17.0247824"><ele>70.0</ele><time>2026-03-28T16:07:24.64Z</time></trkpt><trkpt lat="39.3311987" lon="17.0248228"><ele>70.0</ele><time>2026-03-28T16:07:25.633Z</time></trkpt><trkpt lat="39.3311356" lon="17.0248654"><ele>70.0</ele><time>2026-03-28T16:07:26.648Z</time></trkpt><trkpt lat="39.3310701" lon="17.0249092"><ele>69.16666666666666</ele><time>2026-03-28T16:07:27.639Z</time></trkpt><trkpt lat="39.3310072" lon="17.0249582"><ele>68.33333333333333</ele><time>2026-03-28T16:07:28.637Z</time></trkpt><trkpt lat="39.3309527" lon="17.0250082"><ele>67.5</ele><time>2026-03-28T16:07:29.637Z</time></trkpt><trkpt lat="39.3308924" lon="17.0251124"><ele>66.66666666666667</ele><time>2026-03-28T16:07:31.637Z</time></trkpt><trkpt lat="39.3308663" lon="17.0252003"><ele>65.83333333333334</ele><time>2026-03-28T16:08:08.64Z</time></trkpt><trkpt lat="39.3308537" lon="17.0253076"><ele>65.0</ele><time>2026-03-28T16:08:10.64Z</time></trkpt><trkpt lat="39.3308674" lon="17.0254508"><ele>64.8</ele><time>2026-03-28T16:08:12.636Z</time></trkpt><trkpt lat="39.3309176" lon="17.0255882"><ele>64.6</ele><time>2026-03-28T16:08:14.648Z</time></trkpt><trkpt lat="39.3310071" lon="17.0256695"><ele>64.4</ele><time>2026-03-28T16:08:16.646Z</time></trkpt><trkpt lat="39.331101" lon="17.0257333"><ele>64.2</ele><time>2026-03-28T16:08:18.64Z</time></trkpt><trkpt lat="39.3311719" lon="17.0258191"><ele>64.0</ele><time>2026-03-28T16:08:20.643Z</time></trkpt><trkpt lat="39.3311972" lon="17.0259047"><ele>63.49999999999999</ele><time>2026-03-28T16:08:21.641Z</time></trkpt><trkpt lat="39.3312164" lon="17.0259855"><ele>63.0</ele><time>2026-03-28T16:08:22.633Z</time></trkpt><trkpt lat="39.3312343" lon="17.0261082"><ele>62.5</ele><time>2026-03-28T16:08:24.636Z</time></trkpt><trkpt lat="39.3312377" lon="17.0262416"><ele>62.0</ele><time>2026-03-28T16:08:26.637Z</time></trkpt><trkpt lat="39.331234" lon="17.0263252"><ele>61.49999999999999</ele><time>2026-03-28T16:08:27.637Z</time></trkpt><trkpt lat="39.331226" lon="17.0264121"><ele>61.0</ele><time>2026-03-28T16:08:28.638Z</time></trkpt><trkpt lat="39.3312171" lon="17.0265059"><ele>60.99999999999999</ele><time>2026-03-28T16:08:29.637Z</time></trkpt><trkpt lat="39.3312115" lon="17.0266071"><ele>61.0</ele><time>2026-03-28T16:08:30.638Z</time></trkpt><trkpt lat="39.3312096" lon="17.0267099"><ele>61.0</ele><time>2026-03-28T16:08:31.641Z</time></trkpt><trkpt lat="39.3311963" lon="17.0268191"><ele>61.0</ele><time>2026-03-28T16:08:32.634Z</time></trkpt><trkpt lat="39.3311803" lon="17.0269361"><ele>60.99999999999999</ele><time>2026-03-28T16:08:33.64Z</time></trkpt><trkpt lat="39.3311647" lon="17.0270736"><ele>61.0</ele><time>2026-03-28T16:08:34.636Z</time></trkpt><trkpt lat="39.3311573" lon="17.0272142"><ele>61.0</ele><time>2026-03-28T16:08:35.638Z</time></trkpt><trkpt lat="39.3311509" lon="17.0273598"><ele>60.99999999999999</ele><time>2026-03-28T16:08:36.636Z</time></trkpt><trkpt lat="39.3311766" lon="17.0274972"><ele>60.99999999999999</ele><time>2026-03-28T16:08:37.643Z</time></trkpt><trkpt lat="39.3312111" lon="17.0276187"><ele>61.0</ele><time>2026-03-28T16:08:38.637Z</time></trkpt><trkpt lat="39.3312674" lon="17.0277164"><ele>61.0</ele><time>2026-03-28T16:08:39.636Z</time></trkpt><trkpt lat="39.3313346" lon="17.0277942"><ele>61.0</ele><time>2026-03-28T16:08:40.639Z</time></trkpt><trkpt lat="39.3314194" lon="17.0278519"><ele>60.99999999999999</ele><time>2026-03-28T16:08:41.634Z</time></trkpt><trkpt lat="39.3315136" lon="17.0278962"><ele>60.99999999999999</ele><time>2026-03-28T16:08:42.645Z</time></trkpt><trkpt lat="39.3316059" lon="17.0279396"><ele>61.0</ele><time>2026-03-28T16:08:43.638Z</time></trkpt><trkpt lat="39.3316998" lon="17.0279847"><ele>61.0</ele><time>2026-03-28T16:08:44.637Z</time></trkpt><trkpt lat="39.331773" lon="17.0280324"><ele>60.99999999999999</ele><time>2026-03-28T16:08:45.639Z</time></trkpt><trkpt lat="39.3318311" lon="17.028068"><ele>61.0</ele><time>2026-03-28T16:08:46.632Z</time></trkpt><trkpt lat="39.3319002" lon="17.0281183"><ele>61.0</ele><time>2026-03-28T16:08:48.636Z</time></trkpt><trkpt lat="39.3319475" lon="17.0281749"><ele>61.0</ele><time>2026-03-28T16:08:50.634Z</time></trkpt><trkpt lat="39.331995" lon="17.0282447"><ele>60.99999999999999</ele><time>2026-03-28T16:08:52.636Z</time></trkpt><trkpt lat="39.332067" lon="17.0283341"><ele>61.0</ele><time>2026-03-28T16:08:54.635Z</time></trkpt><trkpt lat="39.3321533" lon="17.028447"><ele>60.49999999999999</ele><time>2026-03-28T16:08:56.645Z</time></trkpt><trkpt lat="39.332198" lon="17.0285096"><ele>60.0</ele><time>2026-03-28T16:08:57.636Z</time></trkpt><trkpt lat="39.3322498" lon="17.0286495"><ele>59.5</ele><time>2026-03-28T16:08:59.638Z</time></trkpt><trkpt lat="39.3322629" lon="17.028733"><ele>59.0</ele><time>2026-03-28T16:09:00.633Z</time></trkpt><trkpt lat="39.3322691" lon="17.0288301"><ele>58.49999999999999</ele><time>2026-03-28T16:09:01.659Z</time></trkpt><trkpt lat="39.3322717" lon="17.0289335"><ele>58.0</ele><time>2026-03-28T16:09:02.639Z</time></trkpt><trkpt lat="39.3322858" lon="17.0290341"><ele>59.0</ele><time>2026-03-28T16:09:03.634Z</time></trkpt><trkpt lat="39.3323071" lon="17.0291455"><ele>60.0</ele><time>2026-03-28T16:09:04.644Z</time></trkpt><trkpt lat="39.3323372" lon="17.0292822"><ele>61.0</ele><time>2026-03-28T16:09:05.637Z</time></trkpt><trkpt lat="39.3323732" lon="17.0294437"><ele>62.0</ele><time>2026-03-28T16:09:06.642Z</time></trkpt><trkpt lat="39.332416" lon="17.0295982"><ele>62.00000000000001</ele><time>2026-03-28T16:09:07.637Z</time></trkpt><trkpt lat="39.3324547" lon="17.0297169"><ele>62.0</ele><time>2026-03-28T16:09:08.639Z</time></trkpt><trkpt lat="39.3324816" lon="17.0297948"><ele>62.0</ele><time>2026-03-28T16:09:09.635Z</time></trkpt><trkpt lat="39.332519" lon="17.0298616"><ele>62.0</ele><time>2026-03-28T16:09:11.635Z</time></trkpt><trkpt lat="39.332566" lon="17.0299253"><ele>62.00000000000001</ele><time>2026-03-28T16:09:14.635Z</time></trkpt><trkpt lat="39.3326407" lon="17.0299719"><ele>62.0</ele><time>2026-03-28T16:09:17.638Z</time></trkpt><trkpt lat="39.332724" lon="17.0299642"><ele>61.00000000000001</ele><time>2026-03-28T16:09:20.641Z</time></trkpt><trkpt lat="39.33279" lon="17.029992"><ele>60.0</ele><time>2026-03-28T16:09:22.636Z</time></trkpt><trkpt lat="39.3328573" lon="17.0301448"><ele>59.0</ele><time>2026-03-28T16:09:24.635Z</time></trkpt><trkpt lat="39.3328974" lon="17.0302243"><ele>58.0</ele><time>2026-03-28T16:09:25.65Z</time></trkpt><trkpt lat="39.3329365" lon="17.0303039"><ele>57.00000000000001</ele><time>2026-03-28T16:09:26.644Z</time></trkpt><trkpt lat="39.3329787" lon="17.030373"><ele>56.0</ele><time>2026-03-28T16:09:27.637Z</time></trkpt><trkpt lat="39.33302" lon="17.0304346"><ele>55.833333333333336</ele><time>2026-03-28T16:09:28.651Z</time></trkpt><trkpt lat="39.3330849" lon="17.0305292"><ele>55.66666666666667</ele><time>2026-03-28T16:09:30.641Z</time></trkpt><trkpt lat="39.3331374" lon="17.030604"><ele>55.5</ele><time>2026-03-28T16:09:32.635Z</time></trkpt><trkpt lat="39.3331906" lon="17.0306669"><ele>55.33333333333333</ele><time>2026-03-28T16:09:39.642Z</time></trkpt><trkpt lat="39.3332652" lon="17.0307247"><ele>55.166666666666664</ele><time>2026-03-28T16:09:45.641Z</time></trkpt><trkpt lat="39.333323" lon="17.0307614"><ele>55.0</ele><time>2026-03-28T16:09:47.638Z</time></trkpt><trkpt lat="39.3333962" lon="17.0308061"><ele>54.666666666666664</ele><time>2026-03-28T16:09:49.641Z</time></trkpt><trkpt lat="39.3334799" lon="17.0308552"><ele>54.33333333333333</ele><time>2026-03-28T16:09:51.64Z</time></trkpt><trkpt lat="39.3335889" lon="17.0309119"><ele>54.0</ele><time>2026-03-28T16:09:53.641Z</time></trkpt><trkpt lat="39.3336495" lon="17.0309437"><ele>53.66666666666667</ele><time>2026-03-28T16:09:54.644Z</time></trkpt><trkpt lat="39.3337119" lon="17.0309771"><ele>53.333333333333336</ele><time>2026-03-28T16:09:55.639Z</time></trkpt><trkpt lat="39.3337914" lon="17.031019"><ele>53.0</ele><time>2026-03-28T16:09:56.643Z</time></trkpt><trkpt lat="39.3339022" lon="17.0310702"><ele>53.0</ele><time>2026-03-28T16:09:57.637Z</time></trkpt><trkpt lat="39.3340132" lon="17.0311224"><ele>53.0</ele><time>2026-03-28T16:09:58.637Z</time></trkpt><trkpt lat="39.3341092" lon="17.0311757"><ele>53.0</ele><time>2026-03-28T16:09:59.647Z</time></trkpt><trkpt lat="39.3341831" lon="17.0312404"><ele>53.0</ele><time>2026-03-28T16:10:00.637Z</time></trkpt><trkpt lat="39.3342453" lon="17.0313184"><ele>53.0</ele><time>2026-03-28T16:10:01.634Z</time></trkpt><trkpt lat="39.3343028" lon="17.0313999"><ele>53.00000000000001</ele><time>2026-03-28T16:10:02.638Z</time></trkpt><trkpt lat="39.3343669" lon="17.0314618"><ele>53.0</ele><time>2026-03-28T16:10:03.644Z</time></trkpt><trkpt lat="39.3344309" lon="17.0315123"><ele>53.0</ele><time>2026-03-28T16:10:04.64Z</time></trkpt><trkpt lat="39.3345033" lon="17.0316082"><ele>53.0</ele><time>2026-03-28T16:10:06.638Z</time></trkpt><trkpt lat="39.3345571" lon="17.0316952"><ele>53.00000000000001</ele><time>2026-03-28T16:10:08.642Z</time></trkpt><trkpt lat="39.3346107" lon="17.0318043"><ele>53.0</ele><time>2026-03-28T16:10:10.642Z</time></trkpt><trkpt lat="39.3346913" lon="17.0319273"><ele>52.599999999999994</ele><time>2026-03-28T16:10:12.639Z</time></trkpt><trkpt lat="39.3347586" lon="17.0320606"><ele>52.199999999999996</ele><time>2026-03-28T16:10:14.639Z</time></trkpt><trkpt lat="39.3348181" lon="17.0321978"><ele>51.8</ele><time>2026-03-28T16:10:16.632Z</time></trkpt><trkpt lat="39.3348845" lon="17.0323414"><ele>51.4</ele><time>2026-03-28T16:10:18.638Z</time></trkpt><trkpt lat="39.3349299" lon="17.032404"><ele>51.0</ele><time>2026-03-28T16:10:19.636Z</time></trkpt><trkpt lat="39.3349867" lon="17.0324581"><ele>51.0</ele><time>2026-03-28T16:10:20.646Z</time></trkpt><trkpt lat="39.3350465" lon="17.0325053"><ele>51.0</ele><time>2026-03-28T16:10:21.637Z</time></trkpt><trkpt lat="39.3351087" lon="17.0325443"><ele>51.0</ele><time>2026-03-28T16:10:22.639Z</time></trkpt><trkpt lat="39.3351731" lon="17.0325758"><ele>51.0</ele><time>2026-03-28T16:10:23.637Z</time></trkpt><trkpt lat="39.3352419" lon="17.0326021"><ele>51.0</ele><time>2026-03-28T16:10:24.639Z</time></trkpt><trkpt lat="39.3353139" lon="17.0326359"><ele>51.0</ele><time>2026-03-28T16:10:25.64Z</time></trkpt><trkpt lat="39.3353817" lon="17.0326822"><ele>51.0</ele><time>2026-03-28T16:10:26.638Z</time></trkpt><trkpt lat="39.3354497" lon="17.0327298"><ele>51.0</ele><time>2026-03-28T16:10:27.635Z</time></trkpt><trkpt lat="39.3355307" lon="17.0327871"><ele>51.0</ele><time>2026-03-28T16:10:28.642Z</time></trkpt><trkpt lat="39.335599" lon="17.0328388"><ele>51.0</ele><time>2026-03-28T16:10:29.639Z</time></trkpt><trkpt lat="39.3357133" lon="17.0329071"><ele>51.0</ele><time>2026-03-28T16:10:31.641Z</time></trkpt><trkpt lat="39.335817" lon="17.0329765"><ele>51.0</ele><time>2026-03-28T16:10:33.638Z</time></trkpt><trkpt lat="39.335892" lon="17.0330879"><ele>51.0</ele><time>2026-03-28T16:10:35.643Z</time></trkpt><trkpt lat="39.3359553" lon="17.0332356"><ele>51.0</ele><time>2026-03-28T16:10:37.646Z</time></trkpt><trkpt lat="39.3359659" lon="17.0333301"><ele>51.0</ele><time>2026-03-28T16:10:38.643Z</time></trkpt><trkpt lat="39.3359637" lon="17.0334698"><ele>51.0</ele><time>2026-03-28T16:10:40.644Z</time></trkpt><trkpt lat="39.3359776" lon="17.0335809"><ele>51.0</ele><time>2026-03-28T16:10:42.637Z</time></trkpt><trkpt lat="39.3359863" lon="17.0336722"><ele>50.666666666666664</ele><time>2026-03-28T16:10:44.637Z</time></trkpt><trkpt lat="39.3359833" lon="17.0337601"><ele>50.33333333333333</ele><time>2026-03-28T16:10:46.636Z</time></trkpt><trkpt lat="39.3359811" lon="17.0338426"><ele>50.0</ele><time>2026-03-28T16:10:48.643Z</time></trkpt><trkpt lat="39.3359812" lon="17.033966"><ele>49.666666666666664</ele><time>2026-03-28T16:10:51.645Z</time></trkpt><trkpt lat="39.335945" lon="17.0340516"><ele>49.33333333333333</ele><time>2026-03-28T16:10:53.637Z</time></trkpt><trkpt lat="39.3359091" lon="17.0341353"><ele>49.0</ele><time>2026-03-28T16:10:55.641Z</time></trkpt><trkpt lat="39.3358682" lon="17.0342215"><ele>48.800000000000004</ele><time>2026-03-28T16:10:57.643Z</time></trkpt><trkpt lat="39.3358276" lon="17.0343189"><ele>48.6</ele><time>2026-03-28T16:11:00.638Z</time></trkpt><trkpt lat="39.3357969" lon="17.0344276"><ele>48.4</ele><time>2026-03-28T16:11:02.638Z</time></trkpt><trkpt lat="39.335811" lon="17.0345698"><ele>48.2</ele><time>2026-03-28T16:11:04.651Z</time></trkpt><trkpt lat="39.3358385" lon="17.0346706"><ele>48.0</ele><time>2026-03-28T16:11:05.636Z</time></trkpt><trkpt lat="39.3358636" lon="17.034784"><ele>48.0</ele><time>2026-03-28T16:11:06.647Z</time></trkpt><trkpt lat="39.3358804" lon="17.0348992"><ele>48.0</ele><time>2026-03-28T16:11:07.637Z</time></trkpt><trkpt lat="39.335886" lon="17.0350096"><ele>48.0</ele><time>2026-03-28T16:11:08.649Z</time></trkpt><trkpt lat="39.3358879" lon="17.035116"><ele>48.0</ele><time>2026-03-28T16:11:09.649Z</time></trkpt><trkpt lat="39.3358873" lon="17.0352188"><ele>48.0</ele><time>2026-03-28T16:11:10.641Z</time></trkpt><trkpt lat="39.3358843" lon="17.0353104"><ele>48.0</ele><time>2026-03-28T16:11:11.648Z</time></trkpt><trkpt lat="39.3358776" lon="17.0354588"><ele>48.333333333333336</ele><time>2026-03-28T16:11:13.643Z</time></trkpt><trkpt lat="39.3358766" lon="17.0355495"><ele>48.66666666666667</ele><time>2026-03-28T16:11:14.637Z</time></trkpt><trkpt lat="39.3358713" lon="17.0356484"><ele>49.0</ele><time>2026-03-28T16:11:15.637Z</time></trkpt><trkpt lat="39.3358693" lon="17.0357333"><ele>49.333333333333336</ele><time>2026-03-28T16:11:16.638Z</time></trkpt><trkpt lat="39.3358702" lon="17.0358683"><ele>49.66666666666667</ele><time>2026-03-28T16:11:18.64Z</time></trkpt><trkpt lat="39.3358499" lon="17.035982"><ele>50.0</ele><time>2026-03-28T16:11:20.639Z</time></trkpt><trkpt lat="39.3358354" lon="17.0361079"><ele>50.0</ele><time>2026-03-28T16:11:22.637Z</time></trkpt><trkpt lat="39.3358289" lon="17.0361965"><ele>50.0</ele><time>2026-03-28T16:11:24.638Z</time></trkpt><trkpt lat="39.3358108" lon="17.0363307"><ele>50.0</ele><time>2026-03-28T16:11:26.636Z</time></trkpt><trkpt lat="39.3357947" lon="17.0364767"><ele>50.0</ele><time>2026-03-28T16:11:28.651Z</time></trkpt><trkpt lat="39.3357859" lon="17.0366185"><ele>50.0</ele><time>2026-03-28T16:11:30.639Z</time></trkpt><trkpt lat="39.3357661" lon="17.0367437"><ele>49.6</ele><time>2026-03-28T16:11:32.637Z</time></trkpt><trkpt lat="39.3357462" lon="17.0368848"><ele>49.2</ele><time>2026-03-28T16:11:34.641Z</time></trkpt><trkpt lat="39.335753" lon="17.036992"><ele>48.8</ele><time>2026-03-28T16:11:35.638Z</time></trkpt><trkpt lat="39.3357619" lon="17.0370866"><ele>48.4</ele><time>2026-03-28T16:11:36.644Z</time></trkpt><trkpt lat="39.3357698" lon="17.0371757"><ele>48.0</ele><time>2026-03-28T16:11:37.64Z</time></trkpt><trkpt lat="39.3357865" lon="17.0373441"><ele>47.99999999999999</ele><time>2026-03-28T16:11:39.635Z</time></trkpt><trkpt lat="39.3357896" lon="17.0374408"><ele>48.0</ele><time>2026-03-28T16:11:40.648Z</time></trkpt><trkpt lat="39.3357895" lon="17.0375388"><ele>48.0</ele><time>2026-03-28T16:11:41.648Z</time></trkpt><trkpt lat="39.3357884" lon="17.037635"><ele>48.0</ele><time>2026-03-28T16:11:42.643Z</time></trkpt><trkpt lat="39.3357886" lon="17.037726"><ele>48.0</ele><time>2026-03-28T16:11:43.657Z</time></trkpt><trkpt lat="39.3357901" lon="17.0378158"><ele>47.99999999999999</ele><time>2026-03-28T16:11:44.642Z</time></trkpt><trkpt lat="39.3357997" lon="17.0379028"><ele>48.0</ele><time>2026-03-28T16:11:45.636Z</time></trkpt><trkpt lat="39.3358105" lon="17.0379919"><ele>47.833333333333336</ele><time>2026-03-28T16:11:46.639Z</time></trkpt><trkpt lat="39.3358272" lon="17.0380917"><ele>47.666666666666664</ele><time>2026-03-28T16:11:47.639Z</time></trkpt><trkpt lat="39.3358447" lon="17.0381864"><ele>47.5</ele><time>2026-03-28T16:11:48.643Z</time></trkpt><trkpt lat="39.3358596" lon="17.0382834"><ele>47.33333333333333</ele><time>2026-03-28T16:11:49.642Z</time></trkpt><trkpt lat="39.3358698" lon="17.0383826"><ele>47.166666666666664</ele><time>2026-03-28T16:11:50.637Z</time></trkpt><trkpt lat="39.3358817" lon="17.0384805"><ele>47.0</ele><time>2026-03-28T16:11:51.643Z</time></trkpt><trkpt lat="39.3358897" lon="17.0385818"><ele>46.8</ele><time>2026-03-28T16:11:52.638Z</time></trkpt><trkpt lat="39.3358868" lon="17.0386827"><ele>46.6</ele><time>2026-03-28T16:11:53.661Z</time></trkpt><trkpt lat="39.3358745" lon="17.0387811"><ele>46.4</ele><time>2026-03-28T16:11:54.637Z</time></trkpt><trkpt lat="39.3358614" lon="17.0388873"><ele>46.199999999999996</ele><time>2026-03-28T16:11:55.637Z</time></trkpt><trkpt lat="39.3358423" lon="17.0390122"><ele>46.0</ele><time>2026-03-28T16:11:56.637Z</time></trkpt><trkpt lat="39.3358173" lon="17.0391674"><ele>46.0</ele><time>2026-03-28T16:11:57.634Z</time></trkpt><trkpt lat="39.3357906" lon="17.0393406"><ele>46.0</ele><time>2026-03-28T16:11:58.636Z</time></trkpt><trkpt lat="39.3357586" lon="17.039532"><ele>46.0</ele><time>2026-03-28T16:11:59.651Z</time></trkpt><trkpt lat="39.335734" lon="17.0397119"><ele>46.0</ele><time>2026-03-28T16:12:00.634Z</time></trkpt><trkpt lat="39.3357222" lon="17.0398646"><ele>45.833333333333336</ele><time>2026-03-28T16:12:01.637Z</time></trkpt><trkpt lat="39.3357127" lon="17.0399909"><ele>45.66666666666667</ele><time>2026-03-28T16:12:02.636Z</time></trkpt><trkpt lat="39.3357124" lon="17.0400943"><ele>45.5</ele><time>2026-03-28T16:12:03.638Z</time></trkpt><trkpt lat="39.3357123" lon="17.0401817"><ele>45.333333333333336</ele><time>2026-03-28T16:12:04.659Z</time></trkpt><trkpt lat="39.3357063" lon="17.040331"><ele>45.166666666666664</ele><time>2026-03-28T16:12:06.64Z</time></trkpt><trkpt lat="39.3356855" lon="17.0404196"><ele>45.0</ele><time>2026-03-28T16:12:07.645Z</time></trkpt><trkpt lat="39.3356423" lon="17.0405214"><ele>45.0</ele><time>2026-03-28T16:12:08.637Z</time></trkpt><trkpt lat="39.3356072" lon="17.0406171"><ele>45.0</ele><time>2026-03-28T16:12:09.656Z</time></trkpt><trkpt lat="39.3355785" lon="17.0407124"><ele>45.0</ele><time>2026-03-28T16:12:10.638Z</time></trkpt><trkpt lat="39.3355499" lon="17.0408067"><ele>45.0</ele><time>2026-03-28T16:12:11.642Z</time></trkpt><trkpt lat="39.335523" lon="17.0409053"><ele>45.0</ele><time>2026-03-28T16:12:12.651Z</time></trkpt><trkpt lat="39.3354972" lon="17.0409999"><ele>45.0</ele><time>2026-03-28T16:12:13.643Z</time></trkpt><trkpt lat="39.3355052" lon="17.0410965"><ele>45.5</ele><time>2026-03-28T16:12:14.65Z</time></trkpt><trkpt lat="39.3355361" lon="17.0411925"><ele>46.0</ele><time>2026-03-28T16:12:15.649Z</time></trkpt><trkpt lat="39.3355685" lon="17.0412868"><ele>46.5</ele><time>2026-03-28T16:12:16.651Z</time></trkpt><trkpt lat="39.3356444" lon="17.041344"><ele>47.0</ele><time>2026-03-28T16:12:17.64Z</time></trkpt><trkpt lat="39.3357308" lon="17.041375"><ele>47.5</ele><time>2026-03-28T16:12:18.645Z</time></trkpt><trkpt lat="39.3358238" lon="17.0413852"><ele>48.0</ele><time>2026-03-28T16:12:19.642Z</time></trkpt><trkpt lat="39.3359237" lon="17.0413945"><ele>46.8</ele><time>2026-03-28T16:12:20.641Z</time></trkpt><trkpt lat="39.3360275" lon="17.0414057"><ele>45.599999999999994</ele><time>2026-03-28T16:12:21.647Z</time></trkpt><trkpt lat="39.3361393" lon="17.0414187"><ele>44.400000000000006</ele><time>2026-03-28T16:12:22.642Z</time></trkpt><trkpt lat="39.336247" lon="17.0414266"><ele>43.2</ele><time>2026-03-28T16:12:23.65Z</time></trkpt><trkpt lat="39.3363362" lon="17.0414311"><ele>42.0</ele><time>2026-03-28T16:12:24.638Z</time></trkpt><trkpt lat="39.3364075" lon="17.0414292"><ele>42.0</ele><time>2026-03-28T16:12:25.644Z</time></trkpt><trkpt lat="39.3365055" lon="17.0414322"><ele>42.0</ele><time>2026-03-28T16:12:27.639Z</time></trkpt><trkpt lat="39.3365881" lon="17.0414552"><ele>42.0</ele><time>2026-03-28T16:12:29.65Z</time></trkpt><trkpt lat="39.3366402" lon="17.0415215"><ele>42.0</ele><time>2026-03-28T16:12:32.638Z</time></trkpt><trkpt lat="39.3366869" lon="17.0415851"><ele>42.0</ele><time>2026-03-28T16:12:37.646Z</time></trkpt><trkpt lat="39.3367179" lon="17.0416673"><ele>42.0</ele><time>2026-03-28T16:12:41.641Z</time></trkpt><trkpt lat="39.3367458" lon="17.0417539"><ele>42.0</ele><time>2026-03-28T16:12:43.638Z</time></trkpt><trkpt lat="39.3367782" lon="17.0418745"><ele>42.0</ele><time>2026-03-28T16:12:45.637Z</time></trkpt><trkpt lat="39.336794" lon="17.0419542"><ele>42.0</ele><time>2026-03-28T16:12:46.646Z</time></trkpt><trkpt lat="39.3368112" lon="17.0420371"><ele>42.0</ele><time>2026-03-28T16:12:47.649Z</time></trkpt><trkpt lat="39.3368286" lon="17.0421232"><ele>42.0</ele><time>2026-03-28T16:12:48.646Z</time></trkpt><trkpt lat="39.336845" lon="17.0422108"><ele>42.0</ele><time>2026-03-28T16:12:49.64Z</time></trkpt><trkpt lat="39.3368544" lon="17.0422989"><ele>42.0</ele><time>2026-03-28T16:12:50.644Z</time></trkpt><trkpt lat="39.3368598" lon="17.0423938"><ele>41.666666666666664</ele><time>2026-03-28T16:12:51.637Z</time></trkpt><trkpt lat="39.3368587" lon="17.0424926"><ele>41.333333333333336</ele><time>2026-03-28T16:12:52.637Z</time></trkpt><trkpt lat="39.3368558" lon="17.0425927"><ele>41.0</ele><time>2026-03-28T16:12:53.639Z</time></trkpt><trkpt lat="39.3368608" lon="17.0426924"><ele>40.66666666666667</ele><time>2026-03-28T16:12:54.639Z</time></trkpt><trkpt lat="39.3368725" lon="17.0427897"><ele>40.333333333333336</ele><time>2026-03-28T16:12:55.652Z</time></trkpt><trkpt lat="39.3368852" lon="17.0428902"><ele>40.0</ele><time>2026-03-28T16:12:56.642Z</time></trkpt><trkpt lat="39.3369046" lon="17.0429911"><ele>40.0</ele><time>2026-03-28T16:12:57.638Z</time></trkpt><trkpt lat="39.3369336" lon="17.0430876"><ele>40.0</ele><time>2026-03-28T16:12:58.639Z</time></trkpt><trkpt lat="39.3369634" lon="17.0431842"><ele>40.0</ele><time>2026-03-28T16:12:59.642Z</time></trkpt><trkpt lat="39.3369865" lon="17.0432865"><ele>40.0</ele><time>2026-03-28T16:13:00.645Z</time></trkpt><trkpt lat="39.3369942" lon="17.0433971"><ele>40.0</ele><time>2026-03-28T16:13:01.637Z</time></trkpt><trkpt lat="39.3369989" lon="17.0434939"><ele>40.0</ele><time>2026-03-28T16:13:02.657Z</time></trkpt><trkpt lat="39.3369841" lon="17.0435807"><ele>40.333333333333336</ele><time>2026-03-28T16:13:03.635Z</time></trkpt><trkpt lat="39.3369587" lon="17.0437026"><ele>40.66666666666667</ele><time>2026-03-28T16:13:05.64Z</time></trkpt><trkpt lat="39.3369377" lon="17.043789"><ele>41.0</ele><time>2026-03-28T16:13:07.643Z</time></trkpt><trkpt lat="39.336924" lon="17.0438737"><ele>41.333333333333336</ele><time>2026-03-28T16:13:09.648Z</time></trkpt><trkpt lat="39.3369164" lon="17.0439644"><ele>41.666666666666664</ele><time>2026-03-28T16:13:11.643Z</time></trkpt><trkpt lat="39.3369099" lon="17.0440632"><ele>42.0</ele><time>2026-03-28T16:13:13.641Z</time></trkpt><trkpt lat="39.3369109" lon="17.0441599"><ele>42.0</ele><time>2026-03-28T16:13:15.635Z</time></trkpt><trkpt lat="39.3369129" lon="17.0442551"><ele>42.0</ele><time>2026-03-28T16:13:17.647Z</time></trkpt><trkpt lat="39.3369293" lon="17.0443862"><ele>42.0</ele><time>2026-03-28T16:13:19.635Z</time></trkpt><trkpt lat="39.3369436" lon="17.0444685"><ele>42.0</ele><time>2026-03-28T16:13:20.642Z</time></trkpt><trkpt lat="39.3369651" lon="17.044558"><ele>42.0</ele><time>2026-03-28T16:13:21.64Z</time></trkpt><trkpt lat="39.3369878" lon="17.0446525"><ele>42.0</ele><time>2026-03-28T16:13:22.639Z</time></trkpt><trkpt lat="39.337012" lon="17.04475"><ele>42.0</ele><time>2026-03-28T16:13:23.645Z</time></trkpt><trkpt lat="39.3370371" lon="17.0448563"><ele>42.0</ele><time>2026-03-28T16:13:24.642Z</time></trkpt><trkpt lat="39.3370578" lon="17.0449651"><ele>42.0</ele><time>2026-03-28T16:13:25.643Z</time></trkpt><trkpt lat="39.3370712" lon="17.0450641"><ele>42.0</ele><time>2026-03-28T16:13:26.649Z</time></trkpt><trkpt lat="39.3370779" lon="17.0452079"><ele>42.0</ele><time>2026-03-28T16:13:28.644Z</time></trkpt><trkpt lat="39.3370764" lon="17.0453225"><ele>42.0</ele><time>2026-03-28T16:13:30.636Z</time></trkpt><trkpt lat="39.3370755" lon="17.0454127"><ele>42.0</ele><time>2026-03-28T16:13:32.641Z</time></trkpt><trkpt lat="39.3370759" lon="17.0455423"><ele>42.0</ele><time>2026-03-28T16:13:34.64Z</time></trkpt><trkpt lat="39.337083" lon="17.0456294"><ele>42.0</ele><time>2026-03-28T16:13:35.637Z</time></trkpt><trkpt lat="39.337097" lon="17.0457405"><ele>42.0</ele><time>2026-03-28T16:13:36.644Z</time></trkpt><trkpt lat="39.3371099" lon="17.0458558"><ele>42.0</ele><time>2026-03-28T16:13:37.645Z</time></trkpt><trkpt lat="39.337123" lon="17.0459746"><ele>42.2</ele><time>2026-03-28T16:13:38.646Z</time></trkpt><trkpt lat="39.3371452" lon="17.0460916"><ele>42.400000000000006</ele><time>2026-03-28T16:13:39.635Z</time></trkpt><trkpt lat="39.3371651" lon="17.0462036"><ele>42.599999999999994</ele><time>2026-03-28T16:13:40.65Z</time></trkpt><trkpt lat="39.3371792" lon="17.0463144"><ele>42.8</ele><time>2026-03-28T16:13:41.647Z</time></trkpt><trkpt lat="39.337189" lon="17.0464259"><ele>43.0</ele><time>2026-03-28T16:13:42.64Z</time></trkpt><trkpt lat="39.3371931" lon="17.0465482"><ele>43.0</ele><time>2026-03-28T16:13:43.64Z</time></trkpt><trkpt lat="39.3371979" lon="17.0466916"><ele>43.0</ele><time>2026-03-28T16:13:44.636Z</time></trkpt><trkpt lat="39.3371983" lon="17.0468436"><ele>43.0</ele><time>2026-03-28T16:13:45.65Z</time></trkpt><trkpt lat="39.3371926" lon="17.0470014"><ele>43.0</ele><time>2026-03-28T16:13:46.638Z</time></trkpt><trkpt lat="39.3371754" lon="17.0471373"><ele>43.0</ele><time>2026-03-28T16:13:47.642Z</time></trkpt><trkpt lat="39.3371652" lon="17.0472554"><ele>43.0</ele><time>2026-03-28T16:13:48.638Z</time></trkpt><trkpt lat="39.3371536" lon="17.0473439"><ele>43.0</ele><time>2026-03-28T16:13:49.64Z</time></trkpt><trkpt lat="39.3370721" lon="17.0474178"><ele>43.0</ele><time>2026-03-28T16:13:51.647Z</time></trkpt><trkpt lat="39.3369628" lon="17.0474855"><ele>43.0</ele><time>2026-03-28T16:13:53.634Z</time></trkpt><trkpt lat="39.3369025" lon="17.0475729"><ele>42.5</ele><time>2026-03-28T16:13:55.637Z</time></trkpt><trkpt lat="39.336864" lon="17.0476487"><ele>42.0</ele><time>2026-03-28T16:13:57.636Z</time></trkpt><trkpt lat="39.3368478" lon="17.0477435"><ele>41.5</ele><time>2026-03-28T16:13:59.641Z</time></trkpt><trkpt lat="39.3368502" lon="17.0478526"><ele>41.0</ele><time>2026-03-28T16:14:01.65Z</time></trkpt><trkpt lat="39.3368436" lon="17.0479421"><ele>40.5</ele><time>2026-03-28T16:14:03.639Z</time></trkpt><trkpt lat="39.336834" lon="17.0480479"><ele>40.0</ele><time>2026-03-28T16:14:06.637Z</time></trkpt><trkpt lat="39.3368163" lon="17.0481593"><ele>40.333333333333336</ele><time>2026-03-28T16:14:08.65Z</time></trkpt><trkpt lat="39.3367985" lon="17.0483096"><ele>40.66666666666667</ele><time>2026-03-28T16:14:10.643Z</time></trkpt><trkpt lat="39.336802" lon="17.0483964"><ele>41.0</ele><time>2026-03-28T16:14:11.646Z</time></trkpt><trkpt lat="39.3368084" lon="17.0484864"><ele>41.333333333333336</ele><time>2026-03-28T16:14:12.646Z</time></trkpt><trkpt lat="39.3368218" lon="17.048582"><ele>41.666666666666664</ele><time>2026-03-28T16:14:13.639Z</time></trkpt><trkpt lat="39.3368346" lon="17.0486844"><ele>42.0</ele><time>2026-03-28T16:14:14.654Z</time></trkpt><trkpt lat="39.3368478" lon="17.048786"><ele>42.0</ele><time>2026-03-28T16:14:15.645Z</time></trkpt><trkpt lat="39.3368627" lon="17.0488843"><ele>42.0</ele><time>2026-03-28T16:14:16.644Z</time></trkpt><trkpt lat="39.3368748" lon="17.0489832"><ele>42.0</ele><time>2026-03-28T16:14:17.638Z</time></trkpt><trkpt lat="39.3368847" lon="17.0490759"><ele>42.0</ele><time>2026-03-28T16:14:18.646Z</time></trkpt><trkpt lat="39.3368933" lon="17.0491636"><ele>42.0</ele><time>2026-03-28T16:14:19.643Z</time></trkpt><trkpt lat="39.3369025" lon="17.0492506"><ele>42.0</ele><time>2026-03-28T16:14:20.637Z</time></trkpt><trkpt lat="39.3369139" lon="17.0493401"><ele>42.0</ele><time>2026-03-28T16:14:21.641Z</time></trkpt><trkpt lat="39.3369265" lon="17.0494333"><ele>41.833333333333336</ele><time>2026-03-28T16:14:22.652Z</time></trkpt><trkpt lat="39.3369427" lon="17.049528"><ele>41.666666666666664</ele><time>2026-03-28T16:14:23.64Z</time></trkpt><trkpt lat="39.3369593" lon="17.0496259"><ele>41.5</ele><time>2026-03-28T16:14:24.66Z</time></trkpt><trkpt lat="39.3369735" lon="17.0497252"><ele>41.33333333333333</ele><time>2026-03-28T16:14:25.64Z</time></trkpt><trkpt lat="39.3369875" lon="17.0498316"><ele>41.166666666666664</ele><time>2026-03-28T16:14:26.651Z</time></trkpt><trkpt lat="39.3370016" lon="17.0499441"><ele>41.0</ele><time>2026-03-28T16:14:27.639Z</time></trkpt><trkpt lat="39.337019" lon="17.0500635"><ele>40.5</ele><time>2026-03-28T16:14:28.653Z</time></trkpt><trkpt lat="39.3370367" lon="17.0501921"><ele>40.0</ele><time>2026-03-28T16:14:29.639Z</time></trkpt><trkpt lat="39.3370584" lon="17.0503448"><ele>39.5</ele><time>2026-03-28T16:14:30.65Z</time></trkpt><trkpt lat="39.3370814" lon="17.0505161"><ele>39.0</ele><time>2026-03-28T16:14:31.652Z</time></trkpt><trkpt lat="39.3371017" lon="17.0506705"><ele>39.2</ele><time>2026-03-28T16:14:32.649Z</time></trkpt><trkpt lat="39.3371207" lon="17.050804"><ele>39.4</ele><time>2026-03-28T16:14:33.651Z</time></trkpt><trkpt lat="39.3371371" lon="17.0509251"><ele>39.6</ele><time>2026-03-28T16:14:34.649Z</time></trkpt><trkpt lat="39.3371419" lon="17.0510352"><ele>39.8</ele><time>2026-03-28T16:14:35.654Z</time></trkpt><trkpt lat="39.3371452" lon="17.0511479"><ele>40.0</ele><time>2026-03-28T16:14:36.642Z</time></trkpt><trkpt lat="39.337148" lon="17.051258"><ele>40.0</ele><time>2026-03-28T16:14:37.642Z</time></trkpt><trkpt lat="39.3371515" lon="17.0513699"><ele>40.0</ele><time>2026-03-28T16:14:38.64Z</time></trkpt><trkpt lat="39.337155" lon="17.051473"><ele>40.0</ele><time>2026-03-28T16:14:39.638Z</time></trkpt><trkpt lat="39.3371596" lon="17.0515567"><ele>40.0</ele><time>2026-03-28T16:14:40.653Z</time></trkpt><trkpt lat="39.3371623" lon="17.0516958"><ele>40.0</ele><time>2026-03-28T16:14:42.646Z</time></trkpt><trkpt lat="39.3371575" lon="17.0518285"><ele>40.0</ele><time>2026-03-28T16:14:44.649Z</time></trkpt><trkpt lat="39.3371505" lon="17.0519246"><ele>39.833333333333336</ele><time>2026-03-28T16:14:45.639Z</time></trkpt><trkpt lat="39.3371385" lon="17.0520261"><ele>39.66666666666667</ele><time>2026-03-28T16:14:46.637Z</time></trkpt><trkpt lat="39.3371253" lon="17.0521343"><ele>39.5</ele><time>2026-03-28T16:14:47.636Z</time></trkpt><trkpt lat="39.3371151" lon="17.0522454"><ele>39.333333333333336</ele><time>2026-03-28T16:14:48.648Z</time></trkpt><trkpt lat="39.3371058" lon="17.0523609"><ele>39.166666666666664</ele><time>2026-03-28T16:14:49.638Z</time></trkpt><trkpt lat="39.3370966" lon="17.0524752"><ele>39.0</ele><time>2026-03-28T16:14:50.643Z</time></trkpt><trkpt lat="39.3370744" lon="17.0525917"><ele>38.833333333333336</ele><time>2026-03-28T16:14:51.638Z</time></trkpt><trkpt lat="39.3370514" lon="17.0526953"><ele>38.666666666666664</ele><time>2026-03-28T16:14:52.648Z</time></trkpt><trkpt lat="39.3370233" lon="17.052791"><ele>38.5</ele><time>2026-03-28T16:14:53.639Z</time></trkpt><trkpt lat="39.3369894" lon="17.0528825"><ele>38.33333333333333</ele><time>2026-03-28T16:14:54.637Z</time></trkpt><trkpt lat="39.3369605" lon="17.0529614"><ele>38.166666666666664</ele><time>2026-03-28T16:14:55.649Z</time></trkpt><trkpt lat="39.336959" lon="17.0530653"><ele>38.0</ele><time>2026-03-28T16:14:57.653Z</time></trkpt><trkpt lat="39.3370498" lon="17.053104"><ele>38.0</ele><time>2026-03-28T16:14:59.634Z</time></trkpt><trkpt lat="39.3371535" lon="17.0530485"><ele>38.0</ele><time>2026-03-28T16:15:01.639Z</time></trkpt><trkpt lat="39.3372479" lon="17.0529871"><ele>38.0</ele><time>2026-03-28T16:15:03.648Z</time></trkpt><trkpt lat="39.3373574" lon="17.0530088"><ele>38.0</ele><time>2026-03-28T16:15:05.645Z</time></trkpt><trkpt lat="39.3374456" lon="17.0530546"><ele>38.0</ele><time>2026-03-28T16:15:07.638Z</time></trkpt><trkpt lat="39.3375205" lon="17.0531062"><ele>37.83333333333333</ele><time>2026-03-28T16:15:09.643Z</time></trkpt><trkpt lat="39.3375729" lon="17.0531612"><ele>37.666666666666664</ele><time>2026-03-28T16:15:11.642Z</time></trkpt><trkpt lat="39.3376159" lon="17.0532303"><ele>37.5</ele><time>2026-03-28T16:15:13.639Z</time></trkpt><trkpt lat="39.3376562" lon="17.0533041"><ele>37.333333333333336</ele><time>2026-03-28T16:15:15.64Z</time></trkpt><trkpt lat="39.3376978" lon="17.0533847"><ele>37.16666666666667</ele><time>2026-03-28T16:15:17.639Z</time></trkpt><trkpt lat="39.3377669" lon="17.0534883"><ele>37.0</ele><time>2026-03-28T16:15:19.64Z</time></trkpt><trkpt lat="39.3378222" lon="17.0535782"><ele>37.333333333333336</ele><time>2026-03-28T16:15:21.642Z</time></trkpt><trkpt lat="39.3378734" lon="17.0536518"><ele>37.66666666666667</ele><time>2026-03-28T16:15:23.654Z</time></trkpt><trkpt lat="39.3379339" lon="17.0537081"><ele>38.0</ele><time>2026-03-28T16:15:26.641Z</time></trkpt><trkpt lat="39.3380154" lon="17.0537217"><ele>38.333333333333336</ele><time>2026-03-28T16:15:29.637Z</time></trkpt><trkpt lat="39.3379916" lon="17.0538084"><ele>38.666666666666664</ele><time>2026-03-28T16:15:35.645Z</time></trkpt><trkpt lat="39.3379321" lon="17.053737"><ele>39.0</ele><time>2026-03-28T16:15:38.639Z</time></trkpt><trkpt lat="39.3378833" lon="17.0536792"><ele>39.0</ele><time>2026-03-28T16:15:41.638Z</time></trkpt><trkpt lat="39.3378356" lon="17.0535919"><ele>39.0</ele><time>2026-03-28T16:15:48.649Z</time></trkpt><trkpt lat="39.337795" lon="17.0535291"><ele>39.0</ele><time>2026-03-28T16:15:50.643Z</time></trkpt><trkpt lat="39.337742" lon="17.0534628"><ele>39.0</ele><time>2026-03-28T16:16:10.641Z</time></trkpt><trkpt lat="39.3376893" lon="17.0534103"><ele>39.0</ele><time>2026-03-28T16:16:20.64Z</time></trkpt><trkpt lat="39.3377007" lon="17.0533033"><ele>39.0</ele><time>2026-03-28T16:16:25.645Z</time></trkpt><trkpt lat="39.337756" lon="17.0532221"><ele>38.714285714285715</ele><time>2026-03-28T16:16:29.641Z</time></trkpt><trkpt lat="39.3378187" lon="17.053155"><ele>38.42857142857142</ele><time>2026-03-28T16:16:32.637Z</time></trkpt><trkpt lat="39.3378737" lon="17.0530868"><ele>38.14285714285714</ele><time>2026-03-28T16:16:35.644Z</time></trkpt><trkpt lat="39.3378803" lon="17.0530032"><ele>37.85714285714286</ele><time>2026-03-28T16:16:39.641Z</time></trkpt><trkpt lat="39.3378121" lon="17.0529807"><ele>37.57142857142857</ele><time>2026-03-28T16:16:42.64Z</time></trkpt><trkpt lat="39.3377423" lon="17.053021"><ele>37.285714285714285</ele><time>2026-03-28T16:17:10.639Z</time></trkpt><trkpt lat="39.3376828" lon="17.0530725"><ele>37.0</ele><time>2026-03-28T16:17:48.642Z</time></trkpt><trkpt lat="39.3376885" lon="17.0531773"><ele>37.0</ele><time>2026-03-28T16:17:57.64Z</time></trkpt><trkpt lat="39.3376715" lon="17.0532759"><ele>37.0</ele><time>2026-03-28T16:18:00.64Z</time></trkpt><trkpt lat="39.3376603" lon="17.0533562"><ele>37.0</ele><time>2026-03-28T16:18:02.644Z</time></trkpt><trkpt lat="39.337692" lon="17.0534504"><ele>37.0</ele><time>2026-03-28T16:18:05.639Z</time></trkpt><trkpt lat="39.3377694" lon="17.0535055"><ele>37.0</ele><time>2026-03-28T16:18:08.64Z</time></trkpt><trkpt lat="39.3378421" lon="17.0536309"><ele>37.0</ele><time>2026-03-28T16:18:10.641Z</time></trkpt><trkpt lat="39.3379199" lon="17.0537417"><ele>37.333333333333336</ele><time>2026-03-28T16:18:12.638Z</time></trkpt><trkpt lat="39.3379763" lon="17.0538381"><ele>37.66666666666667</ele><time>2026-03-28T16:18:14.648Z</time></trkpt><trkpt lat="39.3379783" lon="17.0539296"><ele>38.0</ele><time>2026-03-28T16:18:16.64Z</time></trkpt><trkpt lat="39.3380346" lon="17.053877"><ele>38.333333333333336</ele><time>2026-03-28T16:18:19.644Z</time></trkpt><trkpt lat="39.3379844" lon="17.0537796"><ele>38.666666666666664</ele><time>2026-03-28T16:18:21.639Z</time></trkpt><trkpt lat="39.3379196" lon="17.0537086"><ele>39.0</ele><time>2026-03-28T16:18:23.641Z</time></trkpt><trkpt lat="39.3378468" lon="17.0536206"><ele>39.0</ele><time>2026-03-28T16:18:31.644Z</time></trkpt><trkpt lat="39.3378064" lon="17.0535411"><ele>39.0</ele><time>2026-03-28T16:18:33.638Z</time></trkpt><trkpt lat="39.3377588" lon="17.0534674"><ele>39.0</ele><time>2026-03-28T16:18:36.649Z</time></trkpt><trkpt lat="39.3377125" lon="17.0533975"><ele>39.0</ele><time>2026-03-28T16:19:06.641Z</time></trkpt><trkpt lat="39.3377218" lon="17.0533101"><ele>39.0</ele><time>2026-03-28T16:19:11.643Z</time></trkpt><trkpt lat="39.3377536" lon="17.0532312"><ele>39.0</ele><time>2026-03-28T16:19:14.639Z</time></trkpt><trkpt lat="39.3377888" lon="17.0531546"><ele>39.0</ele><time>2026-03-28T16:19:17.638Z</time></trkpt><trkpt lat="39.3378423" lon="17.0530926"><ele>38.714285714285715</ele><time>2026-03-28T16:19:20.64Z</time></trkpt><trkpt lat="39.3378494" lon="17.0530106"><ele>38.42857142857142</ele><time>2026-03-28T16:19:24.649Z</time></trkpt><trkpt lat="39.3377904" lon="17.052962"><ele>38.14285714285714</ele><time>2026-03-28T16:19:59.646Z</time></trkpt><trkpt lat="39.3377212" lon="17.0529872"><ele>37.85714285714286</ele><time>2026-03-28T16:20:03.638Z</time></trkpt><trkpt lat="39.337661" lon="17.0530423"><ele>37.57142857142857</ele><time>2026-03-28T16:20:05.639Z</time></trkpt><trkpt lat="39.3376038" lon="17.0531098"><ele>37.285714285714285</ele><time>2026-03-28T16:20:07.641Z</time></trkpt><trkpt lat="39.3376039" lon="17.0531947"><ele>37.0</ele><time>2026-03-28T16:20:11.649Z</time></trkpt><trkpt lat="39.3376574" lon="17.0532496"><ele>37.333333333333336</ele><time>2026-03-28T16:20:14.642Z</time></trkpt><trkpt lat="39.3377167" lon="17.0533273"><ele>37.66666666666667</ele><time>2026-03-28T16:20:17.638Z</time></trkpt><trkpt lat="39.3377047" lon="17.053411"><ele>38.0</ele><time>2026-03-28T16:20:21.643Z</time></trkpt><trkpt lat="39.3376196" lon="17.0534597"><ele>38.333333333333336</ele><time>2026-03-28T16:20:35.638Z</time></trkpt><trkpt lat="39.3375673" lon="17.053527"><ele>38.666666666666664</ele><time>2026-03-28T16:20:38.645Z</time></trkpt><trkpt lat="39.3376413" lon="17.0535296"><ele>39.0</ele><time>2026-03-28T16:20:41.639Z</time></trkpt><trkpt lat="39.3376819" lon="17.0534642"><ele>39.0</ele><time>2026-03-28T16:20:44.648Z</time></trkpt><trkpt lat="39.3377126" lon="17.0533828"><ele>39.0</ele><time>2026-03-28T16:20:48.644Z</time></trkpt><trkpt lat="39.337715" lon="17.0533012"><ele>39.0</ele><time>2026-03-28T16:20:54.646Z</time></trkpt><trkpt lat="39.3376522" lon="17.0532362"><ele>39.0</ele><time>2026-03-28T16:20:57.648Z</time></trkpt><trkpt lat="39.3376073" lon="17.0531776"><ele>39.0</ele><time>2026-03-28T16:20:59.641Z</time></trkpt><trkpt lat="39.3376374" lon="17.0530901"><ele>39.0</ele><time>2026-03-28T16:21:01.645Z</time></trkpt><trkpt lat="39.3376997" lon="17.0530286"><ele>39.0</ele><time>2026-03-28T16:21:03.645Z</time></trkpt><trkpt lat="39.3377752" lon="17.0529669"><ele>39.0</ele><time>2026-03-28T16:21:06.652Z</time></trkpt><trkpt lat="39.337849" lon="17.0529647"><ele>39.0</ele><time>2026-03-28T16:21:11.647Z</time></trkpt><trkpt lat="39.3378465" lon="17.0530487"><ele>39.0</ele><time>2026-03-28T16:21:31.639Z</time></trkpt><trkpt lat="39.337824" lon="17.0531427"><ele>39.0</ele><time>2026-03-28T16:21:36.643Z</time></trkpt><trkpt lat="39.3377587" lon="17.0532027"><ele>39.0</ele><time>2026-03-28T16:21:39.636Z</time></trkpt><trkpt lat="39.3377426" lon="17.0532836"><ele>39.0</ele><time>2026-03-28T16:21:41.64Z</time></trkpt><trkpt lat="39.3377426" lon="17.0533831"><ele>39.0</ele><time>2026-03-28T16:21:44.641Z</time></trkpt><trkpt lat="39.3377259" lon="17.0532862"><ele>38.6</ele><time>2026-03-28T16:21:49.639Z</time></trkpt><trkpt lat="39.3377875" lon="17.0531906"><ele>38.2</ele><time>2026-03-28T16:21:52.649Z</time></trkpt><trkpt lat="39.3378458" lon="17.0531015"><ele>37.800000000000004</ele><time>2026-03-28T16:21:55.644Z</time></trkpt><trkpt lat="39.3378788" lon="17.0530056"><ele>37.4</ele><time>2026-03-28T16:21:57.651Z</time></trkpt><trkpt lat="39.3378735" lon="17.052818"><ele>37.0</ele><time>2026-03-28T16:22:12.725Z</time></trkpt><trkpt lat="39.3378816" lon="17.0529995"><ele>37.0</ele><time>2026-03-28T16:22:17.643Z</time></trkpt><trkpt lat="39.3378748" lon="17.0528992"><ele>37.0</ele><time>2026-03-28T16:23:00.65Z</time></trkpt><trkpt lat="39.3377866" lon="17.0528954"><ele>37.0</ele><time>2026-03-28T16:23:02.639Z</time></trkpt><trkpt lat="39.3377188" lon="17.0529566"><ele>37.0</ele><time>2026-03-28T16:23:03.65Z</time></trkpt><trkpt lat="39.3376684" lon="17.0530323"><ele>37.0</ele><time>2026-03-28T16:23:04.638Z</time></trkpt><trkpt lat="39.3376167" lon="17.0531404"><ele>37.0</ele><time>2026-03-28T16:23:06.641Z</time></trkpt><trkpt lat="39.3376118" lon="17.0532269"><ele>37.0</ele><time>2026-03-28T16:23:08.638Z</time></trkpt><trkpt lat="39.3376616" lon="17.0533469"><ele>37.0</ele><time>2026-03-28T16:23:11.644Z</time></trkpt><trkpt lat="39.3376818" lon="17.0534579"><ele>37.0</ele><time>2026-03-28T16:23:13.64Z</time></trkpt><trkpt lat="39.3377222" lon="17.0535298"><ele>37.0</ele><time>2026-03-28T16:23:16.643Z</time></trkpt><trkpt lat="39.3376986" lon="17.0534442"><ele>37.0</ele><time>2026-03-28T16:23:27.641Z</time></trkpt><trkpt lat="39.3377094" lon="17.053334"><ele>37.0</ele><time>2026-03-28T16:23:31.639Z</time></trkpt><trkpt lat="39.3377454" lon="17.0532646"><ele>37.0</ele><time>2026-03-28T16:23:33.649Z</time></trkpt><trkpt lat="39.3377908" lon="17.0531775"><ele>37.0</ele><time>2026-03-28T16:23:36.655Z</time></trkpt><trkpt lat="39.3378367" lon="17.0530991"><ele>37.0</ele><time>2026-03-28T16:23:39.648Z</time></trkpt><trkpt lat="39.3378732" lon="17.0530055"><ele>37.0</ele><time>2026-03-28T16:23:42.658Z</time></trkpt><trkpt lat="39.3378735" lon="17.0529144"><ele>37.0</ele><time>2026-03-28T16:23:46.64Z</time></trkpt><trkpt lat="39.3378097" lon="17.0529429"><ele>37.0</ele><time>2026-03-28T16:23:53.64Z</time></trkpt><trkpt lat="39.3377194" lon="17.0530282"><ele>37.0</ele><time>2026-03-28T16:25:49.641Z</time></trkpt><trkpt lat="39.3376643" lon="17.053076"><ele>37.0</ele><time>2026-03-28T16:25:50.641Z</time></trkpt><trkpt lat="39.3376078" lon="17.0531679"><ele>37.0</ele><time>2026-03-28T16:25:52.639Z</time></trkpt><trkpt lat="39.3376394" lon="17.0532581"><ele>37.0</ele><time>2026-03-28T16:25:54.643Z</time></trkpt><trkpt lat="39.3376862" lon="17.0533601"><ele>37.0</ele><time>2026-03-28T16:25:56.64Z</time></trkpt><trkpt lat="39.3377439" lon="17.053466"><ele>37.0</ele><time>2026-03-28T16:25:58.669Z</time></trkpt><trkpt lat="39.3378305" lon="17.0535829"><ele>37.333333333333336</ele><time>2026-03-28T16:26:00.648Z</time></trkpt><trkpt lat="39.3378619" lon="17.0536591"><ele>37.66666666666667</ele><time>2026-03-28T16:26:01.637Z</time></trkpt><trkpt lat="39.3379288" lon="17.0537723"><ele>38.0</ele><time>2026-03-28T16:26:03.642Z</time></trkpt><trkpt lat="39.3379725" lon="17.0538545"><ele>38.333333333333336</ele><time>2026-03-28T16:26:05.637Z</time></trkpt><trkpt lat="39.3379893" lon="17.0539508"><ele>38.666666666666664</ele><time>2026-03-28T16:26:09.642Z</time></trkpt><trkpt lat="39.3380526" lon="17.0539229"><ele>39.0</ele><time>2026-03-28T16:26:14.642Z</time></trkpt><trkpt lat="39.3380348" lon="17.0538404"><ele>39.0</ele><time>2026-03-28T16:26:18.647Z</time></trkpt><trkpt lat="39.3379953" lon="17.0537581"><ele>39.0</ele><time>2026-03-28T16:26:51.641Z</time></trkpt><trkpt lat="39.337972" lon="17.0538437"><ele>39.0</ele><time>2026-03-28T16:26:55.64Z</time></trkpt><trkpt lat="39.3380446" lon="17.0538943"><ele>39.0</ele><time>2026-03-28T16:27:08.64Z</time></trkpt><trkpt lat="39.3381398" lon="17.053971"><ele>39.0</ele><time>2026-03-28T16:27:10.644Z</time></trkpt><trkpt lat="39.3382072" lon="17.0540239"><ele>39.0</ele><time>2026-03-28T16:27:11.652Z</time></trkpt><trkpt lat="39.3382741" lon="17.0540778"><ele>39.0</ele><time>2026-03-28T16:27:13.64Z</time></trkpt><trkpt lat="39.3381867" lon="17.05403"><ele>39.0</ele><time>2026-03-28T16:27:34.652Z</time></trkpt><trkpt lat="39.3381261" lon="17.0539823"><ele>39.0</ele><time>2026-03-28T16:27:36.649Z</time></trkpt><trkpt lat="39.3380562" lon="17.0539395"><ele>39.0</ele><time>2026-03-28T16:27:38.642Z</time></trkpt><trkpt lat="39.337964" lon="17.0540288"><ele>39.0</ele><time>2026-03-28T16:27:40.64Z</time></trkpt><trkpt lat="39.337933" lon="17.0541088"><ele>39.0</ele><time>2026-03-28T16:27:41.641Z</time></trkpt><trkpt lat="39.3379031" lon="17.054193"><ele>38.714285714285715</ele><time>2026-03-28T16:27:42.641Z</time></trkpt><trkpt lat="39.3378744" lon="17.0542748"><ele>38.42857142857142</ele><time>2026-03-28T16:27:43.64Z</time></trkpt><trkpt lat="39.3378439" lon="17.0543484"><ele>38.14285714285714</ele><time>2026-03-28T16:27:44.643Z</time></trkpt><trkpt lat="39.3378061" lon="17.054466"><ele>37.85714285714286</ele><time>2026-03-28T16:27:46.645Z</time></trkpt><trkpt lat="39.337785" lon="17.0545456"><ele>37.57142857142857</ele><time>2026-03-28T16:27:48.642Z</time></trkpt><trkpt lat="39.3377589" lon="17.0546424"><ele>37.285714285714285</ele><time>2026-03-28T16:27:57.643Z</time></trkpt><trkpt lat="39.3377361" lon="17.054723"><ele>37.0</ele><time>2026-03-28T16:27:59.643Z</time></trkpt><trkpt lat="39.3377" lon="17.0548043"><ele>37.0</ele><time>2026-03-28T16:28:01.638Z</time></trkpt><trkpt lat="39.3377599" lon="17.054736"><ele>37.0</ele><time>2026-03-28T16:28:06.641Z</time></trkpt><trkpt lat="39.3377631" lon="17.054649"><ele>37.0</ele><time>2026-03-28T16:28:08.643Z</time></trkpt><trkpt lat="39.3377911" lon="17.0545061"><ele>37.0</ele><time>2026-03-28T16:28:51.653Z</time></trkpt><trkpt lat="39.3378174" lon="17.0544233"><ele>37.0</ele><time>2026-03-28T16:28:52.64Z</time></trkpt><trkpt lat="39.3378526" lon="17.054324"><ele>37.0</ele><time>2026-03-28T16:28:53.641Z</time></trkpt><trkpt lat="39.337891" lon="17.0542167"><ele>37.0</ele><time>2026-03-28T16:28:54.64Z</time></trkpt><trkpt lat="39.3379238" lon="17.0541273"><ele>37.0</ele><time>2026-03-28T16:28:55.639Z</time></trkpt><trkpt lat="39.3379607" lon="17.0540345"><ele>37.0</ele><time>2026-03-28T16:28:57.648Z</time></trkpt><trkpt lat="39.3379911" lon="17.0539441"><ele>37.0</ele><time>2026-03-28T16:29:02.644Z</time></trkpt><trkpt lat="39.3380674" lon="17.0539371"><ele>37.0</ele><time>2026-03-28T16:29:04.651Z</time></trkpt><trkpt lat="39.3381279" lon="17.0539707"><ele>37.0</ele><time>2026-03-28T16:29:05.646Z</time></trkpt><trkpt lat="39.338182" lon="17.0540166"><ele>37.0</ele><time>2026-03-28T16:29:06.642Z</time></trkpt><trkpt lat="39.3382843" lon="17.0541085"><ele>37.333333333333336</ele><time>2026-03-28T16:29:08.64Z</time></trkpt><trkpt lat="39.3383447" lon="17.0541529"><ele>37.66666666666667</ele><time>2026-03-28T16:29:09.642Z</time></trkpt><trkpt lat="39.3383954" lon="17.0542237"><ele>38.0</ele><time>2026-03-28T16:29:10.641Z</time></trkpt><trkpt lat="39.3384252" lon="17.054299"><ele>38.333333333333336</ele><time>2026-03-28T16:29:11.65Z</time></trkpt><trkpt lat="39.3384689" lon="17.0544323"><ele>38.666666666666664</ele><time>2026-03-28T16:29:13.639Z</time></trkpt><trkpt lat="39.3384815" lon="17.0545772"><ele>39.0</ele><time>2026-03-28T16:29:15.649Z</time></trkpt><trkpt lat="39.3384856" lon="17.0546661"><ele>39.0</ele><time>2026-03-28T16:29:16.641Z</time></trkpt><trkpt lat="39.3384936" lon="17.0547547"><ele>39.0</ele><time>2026-03-28T16:29:17.644Z</time></trkpt><trkpt lat="39.3385043" lon="17.0548386"><ele>39.0</ele><time>2026-03-28T16:29:18.637Z</time></trkpt><trkpt lat="39.3385178" lon="17.0549216"><ele>39.0</ele><time>2026-03-28T16:29:19.639Z</time></trkpt><trkpt lat="39.3385363" lon="17.0550029"><ele>39.0</ele><time>2026-03-28T16:29:20.64Z</time></trkpt><trkpt lat="39.3385564" lon="17.0550831"><ele>39.0</ele><time>2026-03-28T16:29:21.648Z</time></trkpt><trkpt lat="39.3385794" lon="17.0551653"><ele>39.0</ele><time>2026-03-28T16:29:22.651Z</time></trkpt><trkpt lat="39.3386043" lon="17.0552507"><ele>39.166666666666664</ele><time>2026-03-28T16:29:23.643Z</time></trkpt><trkpt lat="39.3386278" lon="17.0553328"><ele>39.333333333333336</ele><time>2026-03-28T16:29:24.651Z</time></trkpt><trkpt lat="39.3386497" lon="17.0554141"><ele>39.5</ele><time>2026-03-28T16:29:25.642Z</time></trkpt><trkpt lat="39.3386745" lon="17.0554952"><ele>39.66666666666667</ele><time>2026-03-28T16:29:26.652Z</time></trkpt><trkpt lat="39.3386984" lon="17.055572"><ele>39.833333333333336</ele><time>2026-03-28T16:29:27.637Z</time></trkpt><trkpt lat="39.3387338" lon="17.055703"><ele>40.0</ele><time>2026-03-28T16:29:29.639Z</time></trkpt><trkpt lat="39.3387666" lon="17.0558266"><ele>39.5</ele><time>2026-03-28T16:29:31.643Z</time></trkpt><trkpt lat="39.3388009" lon="17.0559586"><ele>39.0</ele><time>2026-03-28T16:29:33.653Z</time></trkpt><trkpt lat="39.3388532" lon="17.0561326"><ele>38.5</ele><time>2026-03-28T16:29:35.642Z</time></trkpt><trkpt lat="39.3388953" lon="17.0562849"><ele>38.0</ele><time>2026-03-28T16:29:36.637Z</time></trkpt><trkpt lat="39.3389374" lon="17.056434"><ele>38.8</ele><time>2026-03-28T16:29:37.64Z</time></trkpt><trkpt lat="39.3389736" lon="17.0565627"><ele>39.599999999999994</ele><time>2026-03-28T16:29:38.64Z</time></trkpt><trkpt lat="39.3390062" lon="17.0566756"><ele>40.400000000000006</ele><time>2026-03-28T16:29:39.641Z</time></trkpt><trkpt lat="39.339031" lon="17.0567822"><ele>41.2</ele><time>2026-03-28T16:29:40.649Z</time></trkpt><trkpt lat="39.3390447" lon="17.0568974"><ele>42.0</ele><time>2026-03-28T16:29:41.643Z</time></trkpt><trkpt lat="39.3390454" lon="17.0570186"><ele>42.0</ele><time>2026-03-28T16:29:42.639Z</time></trkpt><trkpt lat="39.3390352" lon="17.0571565"><ele>42.0</ele><time>2026-03-28T16:29:43.657Z</time></trkpt><trkpt lat="39.3390253" lon="17.0572835"><ele>42.0</ele><time>2026-03-28T16:29:44.641Z</time></trkpt><trkpt lat="39.3390148" lon="17.0574013"><ele>42.0</ele><time>2026-03-28T16:29:45.644Z</time></trkpt><trkpt lat="39.3390043" lon="17.0575009"><ele>42.0</ele><time>2026-03-28T16:29:46.652Z</time></trkpt><trkpt lat="39.3389873" lon="17.0576463"><ele>42.400000000000006</ele><time>2026-03-28T16:29:48.65Z</time></trkpt><trkpt lat="39.3389808" lon="17.057779"><ele>42.800000000000004</ele><time>2026-03-28T16:29:50.637Z</time></trkpt><trkpt lat="39.3389846" lon="17.0578964"><ele>43.2</ele><time>2026-03-28T16:29:51.656Z</time></trkpt><trkpt lat="39.3389891" lon="17.0580019"><ele>43.6</ele><time>2026-03-28T16:29:52.638Z</time></trkpt><trkpt lat="39.3389969" lon="17.0580858"><ele>44.0</ele><time>2026-03-28T16:29:53.643Z</time></trkpt><trkpt lat="39.3390252" lon="17.0582254"><ele>43.6</ele><time>2026-03-28T16:29:55.65Z</time></trkpt><trkpt lat="39.3390644" lon="17.0583763"><ele>43.2</ele><time>2026-03-28T16:29:57.641Z</time></trkpt><trkpt lat="39.3390892" lon="17.0584633"><ele>42.800000000000004</ele><time>2026-03-28T16:29:58.65Z</time></trkpt><trkpt lat="39.3391228" lon="17.0585799"><ele>42.400000000000006</ele><time>2026-03-28T16:29:59.649Z</time></trkpt><trkpt lat="39.3391589" lon="17.0586938"><ele>42.0</ele><time>2026-03-28T16:30:00.656Z</time></trkpt><trkpt lat="39.33919" lon="17.0587907"><ele>42.0</ele><time>2026-03-28T16:30:01.639Z</time></trkpt><trkpt lat="39.3392182" lon="17.0588796"><ele>42.0</ele><time>2026-03-28T16:30:02.643Z</time></trkpt><trkpt lat="39.3392445" lon="17.0589621"><ele>42.0</ele><time>2026-03-28T16:30:03.65Z</time></trkpt><trkpt lat="39.3392697" lon="17.059042"><ele>42.0</ele><time>2026-03-28T16:30:04.645Z</time></trkpt><trkpt lat="39.3392949" lon="17.0591211"><ele>42.0</ele><time>2026-03-28T16:30:05.658Z</time></trkpt><trkpt lat="39.3393234" lon="17.0592156"><ele>42.0</ele><time>2026-03-28T16:30:06.643Z</time></trkpt><trkpt lat="39.3393493" lon="17.0593045"><ele>42.0</ele><time>2026-03-28T16:30:07.649Z</time></trkpt><trkpt lat="39.3393729" lon="17.0593839"><ele>41.857142857142854</ele><time>2026-03-28T16:30:08.641Z</time></trkpt><trkpt lat="39.3394022" lon="17.0594771"><ele>41.714285714285715</ele><time>2026-03-28T16:30:09.641Z</time></trkpt><trkpt lat="39.3394295" lon="17.0595633"><ele>41.57142857142857</ele><time>2026-03-28T16:30:10.646Z</time></trkpt><trkpt lat="39.3394553" lon="17.0596462"><ele>41.42857142857143</ele><time>2026-03-28T16:30:11.641Z</time></trkpt><trkpt lat="39.3394813" lon="17.0597314"><ele>41.285714285714285</ele><time>2026-03-28T16:30:12.648Z</time></trkpt><trkpt lat="39.3395084" lon="17.0598199"><ele>41.14285714285714</ele><time>2026-03-28T16:30:13.649Z</time></trkpt><trkpt lat="39.3395333" lon="17.0599037"><ele>41.0</ele><time>2026-03-28T16:30:14.637Z</time></trkpt><trkpt lat="39.3395554" lon="17.0599857"><ele>40.42857142857142</ele><time>2026-03-28T16:30:15.643Z</time></trkpt><trkpt lat="39.3395759" lon="17.060066"><ele>39.857142857142854</ele><time>2026-03-28T16:30:16.65Z</time></trkpt><trkpt lat="39.3395959" lon="17.0601448"><ele>39.285714285714285</ele><time>2026-03-28T16:30:17.64Z</time></trkpt><trkpt lat="39.3396157" lon="17.0602231"><ele>38.71428571428571</ele><time>2026-03-28T16:30:18.658Z</time></trkpt><trkpt lat="39.3396391" lon="17.0603192"><ele>38.14285714285714</ele><time>2026-03-28T16:30:19.652Z</time></trkpt><trkpt lat="39.339664" lon="17.0604259"><ele>37.57142857142857</ele><time>2026-03-28T16:30:20.651Z</time></trkpt><trkpt lat="39.3396852" lon="17.0605248"><ele>37.0</ele><time>2026-03-28T16:30:21.643Z</time></trkpt><trkpt lat="39.3397023" lon="17.0606267"><ele>37.0</ele><time>2026-03-28T16:30:22.642Z</time></trkpt><trkpt lat="39.3397143" lon="17.0607445"><ele>37.0</ele><time>2026-03-28T16:30:23.645Z</time></trkpt><trkpt lat="39.3397202" lon="17.0608705"><ele>37.0</ele><time>2026-03-28T16:30:24.642Z</time></trkpt><trkpt lat="39.3397264" lon="17.0609885"><ele>37.0</ele><time>2026-03-28T16:30:25.651Z</time></trkpt><trkpt lat="39.3397332" lon="17.0611011"><ele>37.0</ele><time>2026-03-28T16:30:26.647Z</time></trkpt><trkpt lat="39.3397403" lon="17.0612163"><ele>38.66666666666667</ele><time>2026-03-28T16:30:27.637Z</time></trkpt><trkpt lat="39.3397458" lon="17.0613445"><ele>40.333333333333336</ele><time>2026-03-28T16:30:28.66Z</time></trkpt><trkpt lat="39.3397507" lon="17.0614582"><ele>42.0</ele><time>2026-03-28T16:30:29.64Z</time></trkpt><trkpt lat="39.3397565" lon="17.0615585"><ele>43.666666666666664</ele><time>2026-03-28T16:30:30.639Z</time></trkpt><trkpt lat="39.3397612" lon="17.0616557"><ele>45.33333333333333</ele><time>2026-03-28T16:30:31.637Z</time></trkpt><trkpt lat="39.339766" lon="17.0617492"><ele>47.0</ele><time>2026-03-28T16:30:32.646Z</time></trkpt><trkpt lat="39.339772" lon="17.0618427"><ele>47.33333333333333</ele><time>2026-03-28T16:30:33.644Z</time></trkpt><trkpt lat="39.3397775" lon="17.0619401"><ele>47.666666666666664</ele><time>2026-03-28T16:30:34.637Z</time></trkpt><trkpt lat="39.3397823" lon="17.0620465"><ele>48.0</ele><time>2026-03-28T16:30:35.648Z</time></trkpt><trkpt lat="39.3397877" lon="17.0621542"><ele>48.33333333333333</ele><time>2026-03-28T16:30:36.641Z</time></trkpt><trkpt lat="39.3397953" lon="17.0622599"><ele>48.666666666666664</ele><time>2026-03-28T16:30:37.641Z</time></trkpt><trkpt lat="39.3398061" lon="17.0623586"><ele>49.0</ele><time>2026-03-28T16:30:38.641Z</time></trkpt><trkpt lat="39.3398201" lon="17.0624518"><ele>48.33333333333333</ele><time>2026-03-28T16:30:39.642Z</time></trkpt><trkpt lat="39.3398398" lon="17.0625481"><ele>47.666666666666664</ele><time>2026-03-28T16:30:40.641Z</time></trkpt><trkpt lat="39.339865" lon="17.0626421"><ele>47.0</ele><time>2026-03-28T16:30:41.64Z</time></trkpt><trkpt lat="39.3398917" lon="17.0627348"><ele>46.33333333333333</ele><time>2026-03-28T16:30:42.644Z</time></trkpt><trkpt lat="39.3399188" lon="17.0628263"><ele>45.666666666666664</ele><time>2026-03-28T16:30:43.637Z</time></trkpt><trkpt lat="39.3399478" lon="17.0629188"><ele>45.0</ele><time>2026-03-28T16:30:44.642Z</time></trkpt><trkpt lat="39.3399755" lon="17.0630159"><ele>45.0</ele><time>2026-03-28T16:30:45.64Z</time></trkpt><trkpt lat="39.3400077" lon="17.0631311"><ele>45.0</ele><time>2026-03-28T16:30:46.643Z</time></trkpt><trkpt lat="39.3400498" lon="17.0632771"><ele>45.0</ele><time>2026-03-28T16:30:47.644Z</time></trkpt><trkpt lat="39.3400963" lon="17.0634316"><ele>45.0</ele><time>2026-03-28T16:30:48.636Z</time></trkpt><trkpt lat="39.3401391" lon="17.0635722"><ele>43.8</ele><time>2026-03-28T16:30:49.653Z</time></trkpt><trkpt lat="39.3401785" lon="17.0636963"><ele>42.6</ele><time>2026-03-28T16:30:50.639Z</time></trkpt><trkpt lat="39.3402184" lon="17.0638107"><ele>41.4</ele><time>2026-03-28T16:30:51.656Z</time></trkpt><trkpt lat="39.3402657" lon="17.0639227"><ele>40.2</ele><time>2026-03-28T16:30:52.647Z</time></trkpt><trkpt lat="39.3403194" lon="17.0640322"><ele>39.0</ele><time>2026-03-28T16:30:53.651Z</time></trkpt><trkpt lat="39.3403724" lon="17.0641294"><ele>38.6</ele><time>2026-03-28T16:30:54.645Z</time></trkpt><trkpt lat="39.3404258" lon="17.0642262"><ele>38.2</ele><time>2026-03-28T16:30:55.651Z</time></trkpt><trkpt lat="39.3404792" lon="17.0643194"><ele>37.800000000000004</ele><time>2026-03-28T16:30:56.639Z</time></trkpt><trkpt lat="39.3405314" lon="17.0644094"><ele>37.4</ele><time>2026-03-28T16:30:57.646Z</time></trkpt><trkpt lat="39.3405842" lon="17.0645026"><ele>37.0</ele><time>2026-03-28T16:30:58.638Z</time></trkpt><trkpt lat="39.3406401" lon="17.0646042"><ele>38.833333333333336</ele><time>2026-03-28T16:30:59.651Z</time></trkpt><trkpt lat="39.3406924" lon="17.0646999"><ele>40.66666666666667</ele><time>2026-03-28T16:31:00.637Z</time></trkpt><trkpt lat="39.3407384" lon="17.0647879"><ele>42.5</ele><time>2026-03-28T16:31:01.652Z</time></trkpt><trkpt lat="39.340777" lon="17.0648679"><ele>44.333333333333336</ele><time>2026-03-28T16:31:02.644Z</time></trkpt><trkpt lat="39.3408076" lon="17.0649481"><ele>46.166666666666664</ele><time>2026-03-28T16:31:03.64Z</time></trkpt><trkpt lat="39.3408309" lon="17.0650332"><ele>48.0</ele><time>2026-03-28T16:31:04.637Z</time></trkpt><trkpt lat="39.3408489" lon="17.0651278"><ele>48.0</ele><time>2026-03-28T16:31:05.649Z</time></trkpt><trkpt lat="39.3408602" lon="17.0652285"><ele>48.0</ele><time>2026-03-28T16:31:06.637Z</time></trkpt><trkpt lat="39.3408678" lon="17.0653349"><ele>48.0</ele><time>2026-03-28T16:31:07.641Z</time></trkpt><trkpt lat="39.3408764" lon="17.065444"><ele>48.0</ele><time>2026-03-28T16:31:08.641Z</time></trkpt><trkpt lat="39.3408814" lon="17.0655564"><ele>48.0</ele><time>2026-03-28T16:31:09.649Z</time></trkpt><trkpt lat="39.3408795" lon="17.065672"><ele>48.0</ele><time>2026-03-28T16:31:10.642Z</time></trkpt><trkpt lat="39.3408708" lon="17.0657912"><ele>47.333333333333336</ele><time>2026-03-28T16:31:11.637Z</time></trkpt><trkpt lat="39.3408574" lon="17.0659107"><ele>46.666666666666664</ele><time>2026-03-28T16:31:12.652Z</time></trkpt><trkpt lat="39.3408404" lon="17.0660296"><ele>46.0</ele><time>2026-03-28T16:31:13.636Z</time></trkpt><trkpt lat="39.340824" lon="17.0661472"><ele>45.33333333333333</ele><time>2026-03-28T16:31:14.647Z</time></trkpt><trkpt lat="39.3408111" lon="17.0662544"><ele>44.666666666666664</ele><time>2026-03-28T16:31:15.645Z</time></trkpt><trkpt lat="39.3408025" lon="17.0663611"><ele>44.0</ele><time>2026-03-28T16:31:16.642Z</time></trkpt><trkpt lat="39.3408027" lon="17.0664744"><ele>44.0</ele><time>2026-03-28T16:31:17.647Z</time></trkpt><trkpt lat="39.3408128" lon="17.0665893"><ele>44.0</ele><time>2026-03-28T16:31:18.648Z</time></trkpt><trkpt lat="39.3408309" lon="17.0667023"><ele>44.0</ele><time>2026-03-28T16:31:19.653Z</time></trkpt><trkpt lat="39.3408522" lon="17.0668115"><ele>44.0</ele><time>2026-03-28T16:31:20.642Z</time></trkpt><trkpt lat="39.3408766" lon="17.0669174"><ele>44.0</ele><time>2026-03-28T16:31:21.646Z</time></trkpt><trkpt lat="39.3409033" lon="17.0670227"><ele>44.0</ele><time>2026-03-28T16:31:22.638Z</time></trkpt><trkpt lat="39.340932" lon="17.0671393"><ele>43.33333333333333</ele><time>2026-03-28T16:31:23.643Z</time></trkpt><trkpt lat="39.340959" lon="17.0672563"><ele>42.666666666666664</ele><time>2026-03-28T16:31:24.643Z</time></trkpt><trkpt lat="39.3409857" lon="17.0673696"><ele>42.0</ele><time>2026-03-28T16:31:25.643Z</time></trkpt><trkpt lat="39.3410109" lon="17.067468"><ele>41.333333333333336</ele><time>2026-03-28T16:31:26.645Z</time></trkpt><trkpt lat="39.3410351" lon="17.06756"><ele>40.66666666666667</ele><time>2026-03-28T16:31:27.653Z</time></trkpt><trkpt lat="39.3410597" lon="17.0676487"><ele>40.0</ele><time>2026-03-28T16:31:28.639Z</time></trkpt><trkpt lat="39.341083" lon="17.0677305"><ele>39.857142857142854</ele><time>2026-03-28T16:31:29.653Z</time></trkpt><trkpt lat="39.3411074" lon="17.0678113"><ele>39.714285714285715</ele><time>2026-03-28T16:31:30.636Z</time></trkpt><trkpt lat="39.3411346" lon="17.0678907"><ele>39.57142857142857</ele><time>2026-03-28T16:31:31.651Z</time></trkpt><trkpt lat="39.3411669" lon="17.0679713"><ele>39.42857142857143</ele><time>2026-03-28T16:31:32.64Z</time></trkpt><trkpt lat="39.3412058" lon="17.0680498"><ele>39.285714285714285</ele><time>2026-03-28T16:31:33.64Z</time></trkpt><trkpt lat="39.341252" lon="17.0681183"><ele>39.142857142857146</ele><time>2026-03-28T16:31:34.647Z</time></trkpt><trkpt lat="39.3413054" lon="17.0681707"><ele>39.0</ele><time>2026-03-28T16:31:35.639Z</time></trkpt><trkpt lat="39.3413631" lon="17.0682081"><ele>38.85714285714286</ele><time>2026-03-28T16:31:36.642Z</time></trkpt><trkpt lat="39.3414296" lon="17.0682395"><ele>38.71428571428571</ele><time>2026-03-28T16:31:37.637Z</time></trkpt><trkpt lat="39.3415043" lon="17.0682602"><ele>38.57142857142857</ele><time>2026-03-28T16:31:38.651Z</time></trkpt><trkpt lat="39.3415825" lon="17.068271"><ele>38.42857142857143</ele><time>2026-03-28T16:31:39.642Z</time></trkpt><trkpt lat="39.3416555" lon="17.068278"><ele>38.28571428571429</ele><time>2026-03-28T16:31:40.657Z</time></trkpt><trkpt lat="39.3417254" lon="17.0682828"><ele>38.14285714285714</ele><time>2026-03-28T16:31:41.64Z</time></trkpt><trkpt lat="39.3417946" lon="17.0682864"><ele>38.0</ele><time>2026-03-28T16:31:42.638Z</time></trkpt><trkpt lat="39.3418618" lon="17.0682927"><ele>38.0</ele><time>2026-03-28T16:31:43.641Z</time></trkpt><trkpt lat="39.341927" lon="17.0683025"><ele>38.0</ele><time>2026-03-28T16:31:44.651Z</time></trkpt><trkpt lat="39.3419912" lon="17.0683172"><ele>38.0</ele><time>2026-03-28T16:31:45.64Z</time></trkpt><trkpt lat="39.3420548" lon="17.0683385"><ele>38.0</ele><time>2026-03-28T16:31:46.651Z</time></trkpt><trkpt lat="39.3421174" lon="17.0683683"><ele>38.0</ele><time>2026-03-28T16:31:47.639Z</time></trkpt><trkpt lat="39.3421787" lon="17.0684065"><ele>38.0</ele><time>2026-03-28T16:31:48.643Z</time></trkpt><trkpt lat="39.3422382" lon="17.0684521"><ele>38.0</ele><time>2026-03-28T16:31:49.641Z</time></trkpt><trkpt lat="39.3422978" lon="17.0685038"><ele>39.4</ele><time>2026-03-28T16:31:50.648Z</time></trkpt><trkpt lat="39.342363" lon="17.0685642"><ele>40.8</ele><time>2026-03-28T16:31:51.648Z</time></trkpt><trkpt lat="39.3424431" lon="17.0686413"><ele>42.2</ele><time>2026-03-28T16:31:52.642Z</time></trkpt><trkpt lat="39.3425408" lon="17.0687375"><ele>43.6</ele><time>2026-03-28T16:31:53.647Z</time></trkpt><trkpt lat="39.3426411" lon="17.0688398"><ele>45.0</ele><time>2026-03-28T16:31:54.637Z</time></trkpt><trkpt lat="39.3427311" lon="17.068944"><ele>45.0</ele><time>2026-03-28T16:31:55.638Z</time></trkpt><trkpt lat="39.3428155" lon="17.0690615"><ele>45.0</ele><time>2026-03-28T16:31:56.643Z</time></trkpt><trkpt lat="39.3428913" lon="17.0691779"><ele>45.0</ele><time>2026-03-28T16:31:57.638Z</time></trkpt><trkpt lat="39.3429681" lon="17.0692934"><ele>45.0</ele><time>2026-03-28T16:31:58.646Z</time></trkpt><trkpt lat="39.3430443" lon="17.0693996"><ele>44.8</ele><time>2026-03-28T16:31:59.645Z</time></trkpt><trkpt lat="39.3431194" lon="17.0694986"><ele>44.6</ele><time>2026-03-28T16:32:00.64Z</time></trkpt><trkpt lat="39.3431956" lon="17.0695925"><ele>44.400000000000006</ele><time>2026-03-28T16:32:01.634Z</time></trkpt><trkpt lat="39.3432721" lon="17.069681"><ele>44.2</ele><time>2026-03-28T16:32:02.641Z</time></trkpt><trkpt lat="39.3433466" lon="17.0697645"><ele>44.0</ele><time>2026-03-28T16:32:03.645Z</time></trkpt><trkpt lat="39.3434198" lon="17.0698445"><ele>44.0</ele><time>2026-03-28T16:32:04.64Z</time></trkpt><trkpt lat="39.3435039" lon="17.0699335"><ele>44.0</ele><time>2026-03-28T16:32:05.651Z</time></trkpt><trkpt lat="39.3436059" lon="17.0700424"><ele>44.0</ele><time>2026-03-28T16:32:06.638Z</time></trkpt><trkpt lat="39.3437155" lon="17.0701588"><ele>44.0</ele><time>2026-03-28T16:32:07.64Z</time></trkpt><trkpt lat="39.3438077" lon="17.0702572"><ele>44.0</ele><time>2026-03-28T16:32:08.641Z</time></trkpt><trkpt lat="39.34389" lon="17.0703427"><ele>44.0</ele><time>2026-03-28T16:32:09.641Z</time></trkpt><trkpt lat="39.3439696" lon="17.0704242"><ele>44.0</ele><time>2026-03-28T16:32:10.653Z</time></trkpt><trkpt lat="39.3440489" lon="17.0705044"><ele>44.0</ele><time>2026-03-28T16:32:11.642Z</time></trkpt><trkpt lat="39.3441268" lon="17.0705855"><ele>44.0</ele><time>2026-03-28T16:32:12.649Z</time></trkpt><trkpt lat="39.3442083" lon="17.0706681"><ele>44.0</ele><time>2026-03-28T16:32:13.638Z</time></trkpt><trkpt lat="39.3442981" lon="17.0707488"><ele>44.0</ele><time>2026-03-28T16:32:14.638Z</time></trkpt><trkpt lat="39.3443928" lon="17.0708182"><ele>44.0</ele><time>2026-03-28T16:32:15.638Z</time></trkpt><trkpt lat="39.3444896" lon="17.070873"><ele>44.0</ele><time>2026-03-28T16:32:16.642Z</time></trkpt><trkpt lat="39.3445805" lon="17.0709132"><ele>44.0</ele><time>2026-03-28T16:32:17.642Z</time></trkpt><trkpt lat="39.3446676" lon="17.0709427"><ele>42.83333333333333</ele><time>2026-03-28T16:32:18.661Z</time></trkpt><trkpt lat="39.3447562" lon="17.0709672"><ele>41.666666666666664</ele><time>2026-03-28T16:32:19.642Z</time></trkpt><trkpt lat="39.3448448" lon="17.0709856"><ele>40.5</ele><time>2026-03-28T16:32:20.654Z</time></trkpt><trkpt lat="39.3449322" lon="17.0710017"><ele>39.333333333333336</ele><time>2026-03-28T16:32:21.639Z</time></trkpt><trkpt lat="39.3450138" lon="17.0710163"><ele>38.16666666666667</ele><time>2026-03-28T16:32:22.641Z</time></trkpt><trkpt lat="39.3450917" lon="17.0710293"><ele>37.0</ele><time>2026-03-28T16:32:23.643Z</time></trkpt><trkpt lat="39.345169" lon="17.0710443"><ele>37.0</ele><time>2026-03-28T16:32:24.647Z</time></trkpt><trkpt lat="39.3452447" lon="17.0710639"><ele>37.0</ele><time>2026-03-28T16:32:25.652Z</time></trkpt><trkpt lat="39.3453137" lon="17.0710871"><ele>37.0</ele><time>2026-03-28T16:32:26.659Z</time></trkpt><trkpt lat="39.3453759" lon="17.0711298"><ele>37.0</ele><time>2026-03-28T16:32:27.655Z</time></trkpt><trkpt lat="39.3454282" lon="17.071189"><ele>37.0</ele><time>2026-03-28T16:32:28.639Z</time></trkpt><trkpt lat="39.3454687" lon="17.0712619"><ele>37.0</ele><time>2026-03-28T16:32:29.642Z</time></trkpt><trkpt lat="39.3454942" lon="17.0713495"><ele>37.0</ele><time>2026-03-28T16:32:30.642Z</time></trkpt><trkpt lat="39.3455147" lon="17.0714675"><ele>35.6</ele><time>2026-03-28T16:32:31.658Z</time></trkpt><trkpt lat="39.3455366" lon="17.0716134"><ele>34.2</ele><time>2026-03-28T16:32:32.645Z</time></trkpt><trkpt lat="39.3455565" lon="17.0717437"><ele>32.8</ele><time>2026-03-28T16:32:33.649Z</time></trkpt><trkpt lat="39.3455743" lon="17.0718616"><ele>31.4</ele><time>2026-03-28T16:32:34.649Z</time></trkpt><trkpt lat="39.3455919" lon="17.0719829"><ele>30.0</ele><time>2026-03-28T16:32:35.654Z</time></trkpt><trkpt lat="39.3456099" lon="17.0721045"><ele>30.0</ele><time>2026-03-28T16:32:36.645Z</time></trkpt><trkpt lat="39.3456272" lon="17.0722212"><ele>30.0</ele><time>2026-03-28T16:32:37.655Z</time></trkpt><trkpt lat="39.3456421" lon="17.0723234"><ele>30.0</ele><time>2026-03-28T16:32:38.652Z</time></trkpt><trkpt lat="39.3456553" lon="17.0724092"><ele>30.0</ele><time>2026-03-28T16:32:39.656Z</time></trkpt><trkpt lat="39.3456759" lon="17.0725482"><ele>30.0</ele><time>2026-03-28T16:32:41.654Z</time></trkpt><trkpt lat="39.3456952" lon="17.0726882"><ele>29.8</ele><time>2026-03-28T16:32:43.655Z</time></trkpt><trkpt lat="39.3457156" lon="17.0728256"><ele>29.6</ele><time>2026-03-28T16:32:45.644Z</time></trkpt><trkpt lat="39.3457363" lon="17.0729512"><ele>29.4</ele><time>2026-03-28T16:32:47.654Z</time></trkpt><trkpt lat="39.3457549" lon="17.073072"><ele>29.2</ele><time>2026-03-28T16:32:49.639Z</time></trkpt><trkpt lat="39.3457741" lon="17.0732018"><ele>29.0</ele><time>2026-03-28T16:32:51.654Z</time></trkpt><trkpt lat="39.3457984" lon="17.0733603"><ele>28.666666666666664</ele><time>2026-03-28T16:32:53.65Z</time></trkpt><trkpt lat="39.3458126" lon="17.0734497"><ele>28.333333333333332</ele><time>2026-03-28T16:32:54.639Z</time></trkpt><trkpt lat="39.3458278" lon="17.073542"><ele>28.0</ele><time>2026-03-28T16:32:55.641Z</time></trkpt><trkpt lat="39.3458435" lon="17.0736362"><ele>27.666666666666664</ele><time>2026-03-28T16:32:56.637Z</time></trkpt><trkpt lat="39.3458589" lon="17.0737328"><ele>27.333333333333332</ele><time>2026-03-28T16:32:57.64Z</time></trkpt><trkpt lat="39.3458742" lon="17.0738343"><ele>27.0</ele><time>2026-03-28T16:32:58.637Z</time></trkpt><trkpt lat="39.3458907" lon="17.073943"><ele>27.0</ele><time>2026-03-28T16:32:59.64Z</time></trkpt><trkpt lat="39.3459088" lon="17.0740672"><ele>27.000000000000004</ele><time>2026-03-28T16:33:00.642Z</time></trkpt><trkpt lat="39.3459287" lon="17.0742059"><ele>27.000000000000004</ele><time>2026-03-28T16:33:01.651Z</time></trkpt><trkpt lat="39.3459486" lon="17.0743363"><ele>27.0</ele><time>2026-03-28T16:33:02.642Z</time></trkpt><trkpt lat="39.3459684" lon="17.0744607"><ele>27.0</ele><time>2026-03-28T16:33:03.65Z</time></trkpt><trkpt lat="39.345988" lon="17.0745837"><ele>27.0</ele><time>2026-03-28T16:33:04.646Z</time></trkpt><trkpt lat="39.346007" lon="17.0747055"><ele>27.000000000000004</ele><time>2026-03-28T16:33:05.641Z</time></trkpt><trkpt lat="39.3460286" lon="17.0748267"><ele>27.000000000000004</ele><time>2026-03-28T16:33:06.639Z</time></trkpt><trkpt lat="39.3460504" lon="17.0749442"><ele>27.0</ele><time>2026-03-28T16:33:07.642Z</time></trkpt><trkpt lat="39.3460694" lon="17.0750588"><ele>27.0</ele><time>2026-03-28T16:33:08.639Z</time></trkpt><trkpt lat="39.3460856" lon="17.0751732"><ele>27.0</ele><time>2026-03-28T16:33:09.65Z</time></trkpt><trkpt lat="39.3461009" lon="17.07529"><ele>27.000000000000004</ele><time>2026-03-28T16:33:10.638Z</time></trkpt><trkpt lat="39.3461178" lon="17.0754096"><ele>27.000000000000004</ele><time>2026-03-28T16:33:11.638Z</time></trkpt><trkpt lat="39.34614" lon="17.0755318"><ele>27.0</ele><time>2026-03-28T16:33:12.64Z</time></trkpt><trkpt lat="39.3461662" lon="17.075649"><ele>27.0</ele><time>2026-03-28T16:33:13.638Z</time></trkpt><trkpt lat="39.3461947" lon="17.0757562"><ele>26.833333333333332</ele><time>2026-03-28T16:33:14.658Z</time></trkpt><trkpt lat="39.3462247" lon="17.0758542"><ele>26.666666666666664</ele><time>2026-03-28T16:33:15.64Z</time></trkpt><trkpt lat="39.3462581" lon="17.0759507"><ele>26.5</ele><time>2026-03-28T16:33:16.64Z</time></trkpt><trkpt lat="39.3462935" lon="17.0760506"><ele>26.333333333333332</ele><time>2026-03-28T16:33:17.657Z</time></trkpt><trkpt lat="39.3463284" lon="17.0761497"><ele>26.166666666666664</ele><time>2026-03-28T16:33:18.643Z</time></trkpt><trkpt lat="39.3463648" lon="17.0762423"><ele>26.0</ele><time>2026-03-28T16:33:19.659Z</time></trkpt><trkpt lat="39.3464033" lon="17.0763305"><ele>25.999999999999996</ele><time>2026-03-28T16:33:20.65Z</time></trkpt><trkpt lat="39.3464426" lon="17.076416"><ele>26.0</ele><time>2026-03-28T16:33:21.645Z</time></trkpt><trkpt lat="39.3464823" lon="17.0765002"><ele>26.0</ele><time>2026-03-28T16:33:22.644Z</time></trkpt><trkpt lat="39.3465223" lon="17.076584"><ele>26.0</ele><time>2026-03-28T16:33:23.651Z</time></trkpt><trkpt lat="39.3465648" lon="17.0766696"><ele>25.999999999999996</ele><time>2026-03-28T16:33:24.639Z</time></trkpt><trkpt lat="39.3466139" lon="17.0767628"><ele>26.0</ele><time>2026-03-28T16:33:25.659Z</time></trkpt><trkpt lat="39.3466677" lon="17.076859"><ele>26.4</ele><time>2026-03-28T16:33:26.647Z</time></trkpt><trkpt lat="39.3467323" lon="17.0769728"><ele>26.8</ele><time>2026-03-28T16:33:27.655Z</time></trkpt><trkpt lat="39.3468012" lon="17.0770921"><ele>27.199999999999996</ele><time>2026-03-28T16:33:28.649Z</time></trkpt><trkpt lat="39.3468681" lon="17.0772161"><ele>27.599999999999998</ele><time>2026-03-28T16:33:29.64Z</time></trkpt><trkpt lat="39.3469234" lon="17.0773291"><ele>28.0</ele><time>2026-03-28T16:33:30.647Z</time></trkpt><trkpt lat="39.3469671" lon="17.077441"><ele>28.0</ele><time>2026-03-28T16:33:31.639Z</time></trkpt><trkpt lat="39.3469991" lon="17.0775508"><ele>27.999999999999996</ele><time>2026-03-28T16:33:32.655Z</time></trkpt><trkpt lat="39.3470174" lon="17.0776644"><ele>27.999999999999996</ele><time>2026-03-28T16:33:33.642Z</time></trkpt><trkpt lat="39.3470181" lon="17.0777884"><ele>28.0</ele><time>2026-03-28T16:33:34.65Z</time></trkpt><trkpt lat="39.3470013" lon="17.0779248"><ele>28.0</ele><time>2026-03-28T16:33:35.654Z</time></trkpt><trkpt lat="39.3469764" lon="17.0780909"><ele>28.0</ele><time>2026-03-28T16:33:36.638Z</time></trkpt><trkpt lat="39.3469641" lon="17.078278"><ele>28.0</ele><time>2026-03-28T16:33:37.654Z</time></trkpt><trkpt lat="39.3469631" lon="17.0784616"><ele>28.0</ele><time>2026-03-28T16:33:38.638Z</time></trkpt><trkpt lat="39.3469619" lon="17.0786271"><ele>28.0</ele><time>2026-03-28T16:33:39.653Z</time></trkpt><trkpt lat="39.3469585" lon="17.0787698"><ele>28.0</ele><time>2026-03-28T16:33:40.639Z</time></trkpt><trkpt lat="39.346951" lon="17.0789033"><ele>27.999999999999996</ele><time>2026-03-28T16:33:41.641Z</time></trkpt><trkpt lat="39.3469374" lon="17.0790373"><ele>27.999999999999996</ele><time>2026-03-28T16:33:42.636Z</time></trkpt><trkpt lat="39.3469222" lon="17.079171"><ele>28.0</ele><time>2026-03-28T16:33:43.641Z</time></trkpt><trkpt lat="39.3469061" lon="17.0792991"><ele>28.0</ele><time>2026-03-28T16:33:44.639Z</time></trkpt><trkpt lat="39.3468915" lon="17.0794242"><ele>27.799999999999997</ele><time>2026-03-28T16:33:45.64Z</time></trkpt><trkpt lat="39.3468777" lon="17.0795449"><ele>27.599999999999998</ele><time>2026-03-28T16:33:46.639Z</time></trkpt><trkpt lat="39.3468653" lon="17.0796587"><ele>27.400000000000002</ele><time>2026-03-28T16:33:47.643Z</time></trkpt><trkpt lat="39.3468501" lon="17.0797711"><ele>27.200000000000003</ele><time>2026-03-28T16:33:48.638Z</time></trkpt><trkpt lat="39.3468323" lon="17.0799029"><ele>27.0</ele><time>2026-03-28T16:33:49.646Z</time></trkpt><trkpt lat="39.3468162" lon="17.080038"><ele>27.0</ele><time>2026-03-28T16:33:50.639Z</time></trkpt><trkpt lat="39.3468058" lon="17.0801673"><ele>27.000000000000004</ele><time>2026-03-28T16:33:51.645Z</time></trkpt><trkpt lat="39.3468009" lon="17.0802947"><ele>27.000000000000004</ele><time>2026-03-28T16:33:52.647Z</time></trkpt><trkpt lat="39.3468047" lon="17.0804243"><ele>27.0</ele><time>2026-03-28T16:33:53.645Z</time></trkpt><trkpt lat="39.3468195" lon="17.0805569"><ele>27.0</ele><time>2026-03-28T16:33:54.654Z</time></trkpt><trkpt lat="39.3468488" lon="17.0806901"><ele>26.400000000000002</ele><time>2026-03-28T16:33:55.641Z</time></trkpt><trkpt lat="39.3468924" lon="17.0808197"><ele>25.800000000000004</ele><time>2026-03-28T16:33:56.642Z</time></trkpt><trkpt lat="39.3469463" lon="17.0809438"><ele>25.2</ele><time>2026-03-28T16:33:57.642Z</time></trkpt><trkpt lat="39.3470093" lon="17.0810609"><ele>24.6</ele><time>2026-03-28T16:33:58.642Z</time></trkpt><trkpt lat="39.3470747" lon="17.081174"><ele>24.0</ele><time>2026-03-28T16:33:59.638Z</time></trkpt><trkpt lat="39.3471409" lon="17.0812845"><ele>24.0</ele><time>2026-03-28T16:34:00.657Z</time></trkpt><trkpt lat="39.3472074" lon="17.0813936"><ele>24.0</ele><time>2026-03-28T16:34:01.642Z</time></trkpt><trkpt lat="39.3472738" lon="17.0815022"><ele>24.0</ele><time>2026-03-28T16:34:02.641Z</time></trkpt><trkpt lat="39.3473402" lon="17.0816123"><ele>24.0</ele><time>2026-03-28T16:34:03.641Z</time></trkpt><trkpt lat="39.3474087" lon="17.0817239"><ele>24.0</ele><time>2026-03-28T16:34:04.637Z</time></trkpt><trkpt lat="39.3474784" lon="17.0818343"><ele>24.6</ele><time>2026-03-28T16:34:05.641Z</time></trkpt><trkpt lat="39.3475452" lon="17.0819387"><ele>25.2</ele><time>2026-03-28T16:34:06.646Z</time></trkpt><trkpt lat="39.3476082" lon="17.0820381"><ele>25.800000000000004</ele><time>2026-03-28T16:34:07.641Z</time></trkpt><trkpt lat="39.3476679" lon="17.0821318"><ele>26.400000000000002</ele><time>2026-03-28T16:34:08.654Z</time></trkpt><trkpt lat="39.3477268" lon="17.0822243"><ele>27.0</ele><time>2026-03-28T16:34:09.643Z</time></trkpt><trkpt lat="39.3477869" lon="17.0823175"><ele>27.0</ele><time>2026-03-28T16:34:10.645Z</time></trkpt><trkpt lat="39.3478479" lon="17.0824142"><ele>27.0</ele><time>2026-03-28T16:34:11.646Z</time></trkpt><trkpt lat="39.3479186" lon="17.0825247"><ele>27.0</ele><time>2026-03-28T16:34:12.642Z</time></trkpt><trkpt lat="39.3480042" lon="17.0826586"><ele>27.0</ele><time>2026-03-28T16:34:13.643Z</time></trkpt><trkpt lat="39.3480986" lon="17.0828091"><ele>26.25</ele><time>2026-03-28T16:34:14.639Z</time></trkpt><trkpt lat="39.3481869" lon="17.0829485"><ele>25.5</ele><time>2026-03-28T16:34:15.644Z</time></trkpt><trkpt lat="39.3482673" lon="17.0830769"><ele>24.75</ele><time>2026-03-28T16:34:16.644Z</time></trkpt><trkpt lat="39.3483403" lon="17.0831949"><ele>24.0</ele><time>2026-03-28T16:34:17.643Z</time></trkpt><trkpt lat="39.3484108" lon="17.0833069"><ele>23.2</ele><time>2026-03-28T16:34:18.644Z</time></trkpt><trkpt lat="39.3484776" lon="17.0834132"><ele>22.4</ele><time>2026-03-28T16:34:19.641Z</time></trkpt><trkpt lat="39.3485384" lon="17.083509"><ele>21.6</ele><time>2026-03-28T16:34:20.645Z</time></trkpt><trkpt lat="39.3485986" lon="17.0835994"><ele>20.8</ele><time>2026-03-28T16:34:21.643Z</time></trkpt><trkpt lat="39.348655" lon="17.0836866"><ele>20.0</ele><time>2026-03-28T16:34:22.639Z</time></trkpt><trkpt lat="39.3487066" lon="17.0837729"><ele>20.0</ele><time>2026-03-28T16:34:23.651Z</time></trkpt><trkpt lat="39.348764" lon="17.0838625"><ele>20.0</ele><time>2026-03-28T16:34:24.641Z</time></trkpt><trkpt lat="39.348828" lon="17.0839623"><ele>20.0</ele><time>2026-03-28T16:34:25.643Z</time></trkpt><trkpt lat="39.3489058" lon="17.084091"><ele>20.0</ele><time>2026-03-28T16:34:26.642Z</time></trkpt><trkpt lat="39.3490029" lon="17.0842475"><ele>20.5</ele><time>2026-03-28T16:34:27.64Z</time></trkpt><trkpt lat="39.3490991" lon="17.0844042"><ele>21.0</ele><time>2026-03-28T16:34:28.642Z</time></trkpt><trkpt lat="39.3491845" lon="17.0845412"><ele>21.5</ele><time>2026-03-28T16:34:29.643Z</time></trkpt><trkpt lat="39.3492662" lon="17.0846733"><ele>22.0</ele><time>2026-03-28T16:34:30.65Z</time></trkpt><trkpt lat="39.3493453" lon="17.0848013"><ele>22.0</ele><time>2026-03-28T16:34:31.639Z</time></trkpt><trkpt lat="39.3494221" lon="17.0849256"><ele>22.0</ele><time>2026-03-28T16:34:32.656Z</time></trkpt><trkpt lat="39.3494911" lon="17.0850473"><ele>22.0</ele><time>2026-03-28T16:34:33.641Z</time></trkpt><trkpt lat="39.3495621" lon="17.0851965"><ele>22.0</ele><time>2026-03-28T16:34:34.651Z</time></trkpt><trkpt lat="39.3496239" lon="17.085353"><ele>21.25</ele><time>2026-03-28T16:34:35.647Z</time></trkpt><trkpt lat="39.349674" lon="17.0855106"><ele>20.5</ele><time>2026-03-28T16:34:36.656Z</time></trkpt><trkpt lat="39.3497179" lon="17.0856834"><ele>19.75</ele><time>2026-03-28T16:34:37.649Z</time></trkpt><trkpt lat="39.3497602" lon="17.0858533"><ele>19.0</ele><time>2026-03-28T16:34:38.658Z</time></trkpt><trkpt lat="39.349801" lon="17.0860186"><ele>19.0</ele><time>2026-03-28T16:34:39.642Z</time></trkpt><trkpt lat="39.3498404" lon="17.086176"><ele>19.0</ele><time>2026-03-28T16:34:40.655Z</time></trkpt><trkpt lat="39.3498797" lon="17.0863231"><ele>19.0</ele><time>2026-03-28T16:34:41.642Z</time></trkpt><trkpt lat="39.3499178" lon="17.0864662"><ele>19.0</ele><time>2026-03-28T16:34:42.654Z</time></trkpt><trkpt lat="39.3499565" lon="17.0866136"><ele>19.0</ele><time>2026-03-28T16:34:43.648Z</time></trkpt><trkpt lat="39.3499994" lon="17.0867626"><ele>19.0</ele><time>2026-03-28T16:34:44.65Z</time></trkpt><trkpt lat="39.3500474" lon="17.0869081"><ele>19.0</ele><time>2026-03-28T16:34:45.65Z</time></trkpt><trkpt lat="39.350099" lon="17.0870559"><ele>19.0</ele><time>2026-03-28T16:34:46.658Z</time></trkpt><trkpt lat="39.3501557" lon="17.0872066"><ele>19.0</ele><time>2026-03-28T16:34:47.659Z</time></trkpt><trkpt lat="39.3502145" lon="17.087361"><ele>19.0</ele><time>2026-03-28T16:34:48.652Z</time></trkpt><trkpt lat="39.3502751" lon="17.0875192"><ele>19.0</ele><time>2026-03-28T16:34:49.654Z</time></trkpt><trkpt lat="39.3503389" lon="17.087681"><ele>19.0</ele><time>2026-03-28T16:34:50.653Z</time></trkpt><trkpt lat="39.3504109" lon="17.087866"><ele>19.0</ele><time>2026-03-28T16:34:51.639Z</time></trkpt><trkpt lat="39.3504951" lon="17.088076"><ele>19.0</ele><time>2026-03-28T16:34:52.65Z</time></trkpt><trkpt lat="39.3505839" lon="17.0882968"><ele>19.0</ele><time>2026-03-28T16:34:53.651Z</time></trkpt><trkpt lat="39.3506683" lon="17.0885187"><ele>18.666666666666664</ele><time>2026-03-28T16:34:54.654Z</time></trkpt><trkpt lat="39.3507408" lon="17.0887098"><ele>18.333333333333332</ele><time>2026-03-28T16:34:55.643Z</time></trkpt><trkpt lat="39.3508065" lon="17.088878"><ele>18.0</ele><time>2026-03-28T16:34:56.657Z</time></trkpt><trkpt lat="39.350875" lon="17.0890556"><ele>17.666666666666668</ele><time>2026-03-28T16:34:57.654Z</time></trkpt><trkpt lat="39.3509439" lon="17.0892392"><ele>17.333333333333336</ele><time>2026-03-28T16:34:58.657Z</time></trkpt><trkpt lat="39.3510173" lon="17.0894274"><ele>17.0</ele><time>2026-03-28T16:34:59.652Z</time></trkpt><trkpt lat="39.3511022" lon="17.089636"><ele>17.0</ele><time>2026-03-28T16:35:00.641Z</time></trkpt><trkpt lat="39.351193" lon="17.0898609"><ele>17.0</ele><time>2026-03-28T16:35:01.644Z</time></trkpt><trkpt lat="39.3512802" lon="17.0900788"><ele>17.0</ele><time>2026-03-28T16:35:02.646Z</time></trkpt><trkpt lat="39.351371" lon="17.0903054"><ele>17.666666666666668</ele><time>2026-03-28T16:35:03.649Z</time></trkpt><trkpt lat="39.3514607" lon="17.0905237"><ele>18.333333333333332</ele><time>2026-03-28T16:35:04.636Z</time></trkpt><trkpt lat="39.3515504" lon="17.0907475"><ele>19.0</ele><time>2026-03-28T16:35:05.652Z</time></trkpt><trkpt lat="39.3516471" lon="17.0909883"><ele>19.0</ele><time>2026-03-28T16:35:06.645Z</time></trkpt><trkpt lat="39.3517528" lon="17.0912425"><ele>19.0</ele><time>2026-03-28T16:35:07.648Z</time></trkpt><trkpt lat="39.3518559" lon="17.0914858"><ele>19.0</ele><time>2026-03-28T16:35:08.644Z</time></trkpt><trkpt lat="39.3519482" lon="17.09171"><ele>19.333333333333332</ele><time>2026-03-28T16:35:09.648Z</time></trkpt><trkpt lat="39.3520397" lon="17.0919336"><ele>19.666666666666668</ele><time>2026-03-28T16:35:10.649Z</time></trkpt><trkpt lat="39.3521384" lon="17.0921671"><ele>20.0</ele><time>2026-03-28T16:35:11.645Z</time></trkpt><trkpt lat="39.352244" lon="17.0924188"><ele>18.5</ele><time>2026-03-28T16:35:12.646Z</time></trkpt><trkpt lat="39.3523549" lon="17.0926864"><ele>17.0</ele><time>2026-03-28T16:35:13.658Z</time></trkpt><trkpt lat="39.3524686" lon="17.0929612"><ele>17.0</ele><time>2026-03-28T16:35:14.647Z</time></trkpt><trkpt lat="39.352582" lon="17.0932336"><ele>17.0</ele><time>2026-03-28T16:35:15.649Z</time></trkpt><trkpt lat="39.3526859" lon="17.093487"><ele>16.333333333333336</ele><time>2026-03-28T16:35:16.637Z</time></trkpt><trkpt lat="39.3527822" lon="17.0937205"><ele>15.666666666666668</ele><time>2026-03-28T16:35:17.643Z</time></trkpt><trkpt lat="39.3528723" lon="17.0939423"><ele>15.0</ele><time>2026-03-28T16:35:18.647Z</time></trkpt><trkpt lat="39.3529597" lon="17.0941573"><ele>15.0</ele><time>2026-03-28T16:35:19.64Z</time></trkpt><trkpt lat="39.3530421" lon="17.0943585"><ele>15.0</ele><time>2026-03-28T16:35:20.647Z</time></trkpt><trkpt lat="39.3531197" lon="17.0945444"><ele>15.0</ele><time>2026-03-28T16:35:21.639Z</time></trkpt><trkpt lat="39.3531952" lon="17.0947115"><ele>15.0</ele><time>2026-03-28T16:35:22.64Z</time></trkpt><trkpt lat="39.3532762" lon="17.0948625"><ele>15.0</ele><time>2026-03-28T16:35:23.641Z</time></trkpt><trkpt lat="39.3533762" lon="17.0950092"><ele>15.0</ele><time>2026-03-28T16:35:24.636Z</time></trkpt><trkpt lat="39.353508" lon="17.095147"><ele>15.0</ele><time>2026-03-28T16:35:25.637Z</time></trkpt><trkpt lat="39.3536671" lon="17.0952822"><ele>15.0</ele><time>2026-03-28T16:35:26.656Z</time></trkpt><trkpt lat="39.3538462" lon="17.0954181"><ele>15.0</ele><time>2026-03-28T16:35:27.639Z</time></trkpt><trkpt lat="39.3540378" lon="17.0955639"><ele>15.0</ele><time>2026-03-28T16:35:28.637Z</time></trkpt><trkpt lat="39.3542393" lon="17.0957157"><ele>15.0</ele><time>2026-03-28T16:35:29.644Z</time></trkpt><trkpt lat="39.3544309" lon="17.095857"><ele>15.0</ele><time>2026-03-28T16:35:30.64Z</time></trkpt><trkpt lat="39.35461" lon="17.0959888"><ele>15.0</ele><time>2026-03-28T16:35:31.649Z</time></trkpt><trkpt lat="39.3547773" lon="17.0961111"><ele>15.0</ele><time>2026-03-28T16:35:32.637Z</time></trkpt><trkpt lat="39.3549317" lon="17.0962274"><ele>16.333333333333332</ele><time>2026-03-28T16:35:33.64Z</time></trkpt><trkpt lat="39.355091" lon="17.0963486"><ele>17.666666666666664</ele><time>2026-03-28T16:35:34.637Z</time></trkpt><trkpt lat="39.3552434" lon="17.096462"><ele>19.0</ele><time>2026-03-28T16:35:35.638Z</time></trkpt><trkpt lat="39.3553859" lon="17.096568"><ele>18.333333333333332</ele><time>2026-03-28T16:35:36.638Z</time></trkpt><trkpt lat="39.3555226" lon="17.0966708"><ele>17.666666666666668</ele><time>2026-03-28T16:35:37.637Z</time></trkpt><trkpt lat="39.3556537" lon="17.0967775"><ele>17.0</ele><time>2026-03-28T16:35:38.637Z</time></trkpt><trkpt lat="39.3557929" lon="17.0969073"><ele>19.0</ele><time>2026-03-28T16:35:39.646Z</time></trkpt><trkpt lat="39.3559424" lon="17.0970568"><ele>21.0</ele><time>2026-03-28T16:35:40.647Z</time></trkpt><trkpt lat="39.3560851" lon="17.0972094"><ele>23.0</ele><time>2026-03-28T16:35:41.655Z</time></trkpt><trkpt lat="39.356206" lon="17.0973485"><ele>22.5</ele><time>2026-03-28T16:35:42.643Z</time></trkpt><trkpt lat="39.3563195" lon="17.097481"><ele>22.0</ele><time>2026-03-28T16:35:43.636Z</time></trkpt><trkpt lat="39.3564294" lon="17.0976107"><ele>21.5</ele><time>2026-03-28T16:35:44.647Z</time></trkpt><trkpt lat="39.3565384" lon="17.0977393"><ele>21.0</ele><time>2026-03-28T16:35:45.646Z</time></trkpt><trkpt lat="39.3566359" lon="17.0978559"><ele>21.5</ele><time>2026-03-28T16:35:46.662Z</time></trkpt><trkpt lat="39.3567313" lon="17.0979696"><ele>22.0</ele><time>2026-03-28T16:35:47.638Z</time></trkpt><trkpt lat="39.3568303" lon="17.0980855"><ele>22.5</ele><time>2026-03-28T16:35:48.644Z</time></trkpt><trkpt lat="39.3569284" lon="17.098199"><ele>23.0</ele><time>2026-03-28T16:35:49.642Z</time></trkpt><trkpt lat="39.3570189" lon="17.0983064"><ele>23.0</ele><time>2026-03-28T16:35:50.64Z</time></trkpt><trkpt lat="39.3570922" lon="17.0984151"><ele>23.0</ele><time>2026-03-28T16:35:51.65Z</time></trkpt><trkpt lat="39.3571545" lon="17.0985396"><ele>23.0</ele><time>2026-03-28T16:35:52.642Z</time></trkpt><trkpt lat="39.3572045" lon="17.0986737"><ele>23.0</ele><time>2026-03-28T16:35:53.648Z</time></trkpt><trkpt lat="39.3572383" lon="17.0988173"><ele>24.666666666666668</ele><time>2026-03-28T16:35:54.646Z</time></trkpt><trkpt lat="39.3572569" lon="17.0989893"><ele>26.333333333333336</ele><time>2026-03-28T16:35:55.638Z</time></trkpt><trkpt lat="39.3572712" lon="17.0991998"><ele>28.0</ele><time>2026-03-28T16:35:56.65Z</time></trkpt><trkpt lat="39.35729" lon="17.0994186"><ele>28.0</ele><time>2026-03-28T16:35:57.644Z</time></trkpt><trkpt lat="39.3573128" lon="17.0996302"><ele>28.0</ele><time>2026-03-28T16:35:58.645Z</time></trkpt><trkpt lat="39.3573408" lon="17.0998237"><ele>28.0</ele><time>2026-03-28T16:35:59.65Z</time></trkpt><trkpt lat="39.3573725" lon="17.1000086"><ele>26.666666666666668</ele><time>2026-03-28T16:36:00.638Z</time></trkpt><trkpt lat="39.3574101" lon="17.1001914"><ele>25.333333333333336</ele><time>2026-03-28T16:36:01.647Z</time></trkpt><trkpt lat="39.3574536" lon="17.1003825"><ele>24.0</ele><time>2026-03-28T16:36:02.644Z</time></trkpt><trkpt lat="39.3574969" lon="17.1005771"><ele>23.25</ele><time>2026-03-28T16:36:03.643Z</time></trkpt><trkpt lat="39.3575365" lon="17.1007597"><ele>22.5</ele><time>2026-03-28T16:36:04.658Z</time></trkpt><trkpt lat="39.3575723" lon="17.1009428"><ele>21.75</ele><time>2026-03-28T16:36:05.641Z</time></trkpt><trkpt lat="39.3576018" lon="17.1011245"><ele>21.0</ele><time>2026-03-28T16:36:06.643Z</time></trkpt><trkpt lat="39.3576312" lon="17.1013036"><ele>21.0</ele><time>2026-03-28T16:36:07.641Z</time></trkpt><trkpt lat="39.35766" lon="17.1014912"><ele>21.0</ele><time>2026-03-28T16:36:08.642Z</time></trkpt><trkpt lat="39.3576844" lon="17.1016837"><ele>21.0</ele><time>2026-03-28T16:36:09.642Z</time></trkpt><trkpt lat="39.3577076" lon="17.1018638"><ele>21.0</ele><time>2026-03-28T16:36:10.641Z</time></trkpt><trkpt lat="39.3577328" lon="17.1020411"><ele>21.0</ele><time>2026-03-28T16:36:11.643Z</time></trkpt><trkpt lat="39.3577612" lon="17.1022412"><ele>21.0</ele><time>2026-03-28T16:36:12.642Z</time></trkpt><trkpt lat="39.3577892" lon="17.1024488"><ele>21.0</ele><time>2026-03-28T16:36:13.652Z</time></trkpt><trkpt lat="39.3578129" lon="17.1026375"><ele>21.0</ele><time>2026-03-28T16:36:14.643Z</time></trkpt><trkpt lat="39.3578394" lon="17.1027921"><ele>21.0</ele><time>2026-03-28T16:36:15.642Z</time></trkpt><trkpt lat="39.3578674" lon="17.1029613"><ele>21.0</ele><time>2026-03-28T16:36:16.641Z</time></trkpt><trkpt lat="39.3578946" lon="17.1031594"><ele>21.0</ele><time>2026-03-28T16:36:17.639Z</time></trkpt><trkpt lat="39.3579229" lon="17.1033714"><ele>21.666666666666668</ele><time>2026-03-28T16:36:18.639Z</time></trkpt><trkpt lat="39.357942" lon="17.1035769"><ele>22.333333333333336</ele><time>2026-03-28T16:36:19.648Z</time></trkpt><trkpt lat="39.3579517" lon="17.1037841"><ele>23.0</ele><time>2026-03-28T16:36:20.643Z</time></trkpt><trkpt lat="39.3579612" lon="17.1039895"><ele>22.75</ele><time>2026-03-28T16:36:21.642Z</time></trkpt><trkpt lat="39.3579696" lon="17.1041871"><ele>22.5</ele><time>2026-03-28T16:36:22.643Z</time></trkpt><trkpt lat="39.357981" lon="17.1043797"><ele>22.25</ele><time>2026-03-28T16:36:23.645Z</time></trkpt><trkpt lat="39.3579926" lon="17.1045693"><ele>22.0</ele><time>2026-03-28T16:36:24.653Z</time></trkpt><trkpt lat="39.3580078" lon="17.1047599"><ele>22.5</ele><time>2026-03-28T16:36:25.644Z</time></trkpt><trkpt lat="39.3580235" lon="17.1049372"><ele>23.0</ele><time>2026-03-28T16:36:26.642Z</time></trkpt><trkpt lat="39.3580394" lon="17.1051001"><ele>23.5</ele><time>2026-03-28T16:36:27.648Z</time></trkpt><trkpt lat="39.3580586" lon="17.10526"><ele>24.0</ele><time>2026-03-28T16:36:28.643Z</time></trkpt><trkpt lat="39.3580757" lon="17.1054261"><ele>24.0</ele><time>2026-03-28T16:36:29.646Z</time></trkpt><trkpt lat="39.3580933" lon="17.1055921"><ele>24.0</ele><time>2026-03-28T16:36:30.639Z</time></trkpt><trkpt lat="39.3581124" lon="17.1057593"><ele>24.0</ele><time>2026-03-28T16:36:31.643Z</time></trkpt><trkpt lat="39.3581344" lon="17.1059251"><ele>24.0</ele><time>2026-03-28T16:36:32.644Z</time></trkpt><trkpt lat="39.3581598" lon="17.106086"><ele>23.75</ele><time>2026-03-28T16:36:33.646Z</time></trkpt><trkpt lat="39.3581899" lon="17.1062417"><ele>23.5</ele><time>2026-03-28T16:36:34.648Z</time></trkpt><trkpt lat="39.3582281" lon="17.1063975"><ele>23.25</ele><time>2026-03-28T16:36:35.644Z</time></trkpt><trkpt lat="39.35828" lon="17.1065512"><ele>23.0</ele><time>2026-03-28T16:36:36.655Z</time></trkpt><trkpt lat="39.3583415" lon="17.1067053"><ele>23.0</ele><time>2026-03-28T16:36:37.647Z</time></trkpt><trkpt lat="39.3584034" lon="17.1068557"><ele>23.0</ele><time>2026-03-28T16:36:38.65Z</time></trkpt><trkpt lat="39.3584558" lon="17.1069984"><ele>23.0</ele><time>2026-03-28T16:36:39.644Z</time></trkpt><trkpt lat="39.3585021" lon="17.1071412"><ele>23.0</ele><time>2026-03-28T16:36:40.653Z</time></trkpt><trkpt lat="39.3585486" lon="17.1072825"><ele>22.0</ele><time>2026-03-28T16:36:41.645Z</time></trkpt><trkpt lat="39.3585914" lon="17.1074242"><ele>21.0</ele><time>2026-03-28T16:36:42.652Z</time></trkpt><trkpt lat="39.3586293" lon="17.1075669"><ele>20.0</ele><time>2026-03-28T16:36:43.653Z</time></trkpt><trkpt lat="39.3586652" lon="17.1077084"><ele>19.0</ele><time>2026-03-28T16:36:44.642Z</time></trkpt><trkpt lat="39.358708" lon="17.1078482"><ele>19.0</ele><time>2026-03-28T16:36:45.664Z</time></trkpt><trkpt lat="39.3587586" lon="17.1079999"><ele>19.0</ele><time>2026-03-28T16:36:46.647Z</time></trkpt><trkpt lat="39.358808" lon="17.1081426"><ele>19.0</ele><time>2026-03-28T16:36:47.645Z</time></trkpt><trkpt lat="39.3588565" lon="17.1082755"><ele>19.0</ele><time>2026-03-28T16:36:48.648Z</time></trkpt><trkpt lat="39.358908" lon="17.1084115"><ele>20.0</ele><time>2026-03-28T16:36:49.646Z</time></trkpt><trkpt lat="39.3589557" lon="17.1085436"><ele>21.0</ele><time>2026-03-28T16:36:50.646Z</time></trkpt><trkpt lat="39.358997" lon="17.10867"><ele>22.0</ele><time>2026-03-28T16:36:51.65Z</time></trkpt><trkpt lat="39.3590365" lon="17.1087845"><ele>23.0</ele><time>2026-03-28T16:36:52.65Z</time></trkpt><trkpt lat="39.3590698" lon="17.1088827"><ele>24.0</ele><time>2026-03-28T16:36:53.647Z</time></trkpt><trkpt lat="39.3590968" lon="17.1089628"><ele>23.5</ele><time>2026-03-28T16:36:54.653Z</time></trkpt><trkpt lat="39.3591377" lon="17.1090934"><ele>23.0</ele><time>2026-03-28T16:36:56.647Z</time></trkpt><trkpt lat="39.3591672" lon="17.1092055"><ele>22.5</ele><time>2026-03-28T16:36:59.644Z</time></trkpt><trkpt lat="39.3591885" lon="17.1093165"><ele>22.0</ele><time>2026-03-28T16:37:01.644Z</time></trkpt><trkpt lat="39.359198" lon="17.1094223"><ele>21.5</ele><time>2026-03-28T16:37:03.642Z</time></trkpt><trkpt lat="39.3592027" lon="17.1095157"><ele>21.0</ele><time>2026-03-28T16:37:07.645Z</time></trkpt><trkpt lat="39.3592205" lon="17.1096342"><ele>21.0</ele><time>2026-03-28T16:37:13.642Z</time></trkpt><trkpt lat="39.3592614" lon="17.109781"><ele>21.0</ele><time>2026-03-28T16:37:15.652Z</time></trkpt><trkpt lat="39.3592941" lon="17.1098883"><ele>21.0</ele><time>2026-03-28T16:37:16.647Z</time></trkpt><trkpt lat="39.3593356" lon="17.1100343"><ele>21.0</ele><time>2026-03-28T16:37:17.647Z</time></trkpt><trkpt lat="39.3593734" lon="17.1101955"><ele>21.0</ele><time>2026-03-28T16:37:18.647Z</time></trkpt><trkpt lat="39.3594003" lon="17.1103437"><ele>21.0</ele><time>2026-03-28T16:37:19.643Z</time></trkpt><trkpt lat="39.3594149" lon="17.1104701"><ele>21.0</ele><time>2026-03-28T16:37:20.645Z</time></trkpt><trkpt lat="39.359421" lon="17.1105726"><ele>21.0</ele><time>2026-03-28T16:37:21.64Z</time></trkpt><trkpt lat="39.3594228" lon="17.1107025"><ele>21.0</ele><time>2026-03-28T16:37:23.644Z</time></trkpt><trkpt lat="39.3594576" lon="17.1109247"><ele>21.0</ele><time>2026-03-28T16:37:39.648Z</time></trkpt><trkpt lat="39.3595106" lon="17.1109881"><ele>21.0</ele><time>2026-03-28T16:37:41.651Z</time></trkpt><trkpt lat="39.3596085" lon="17.111091"><ele>21.0</ele><time>2026-03-28T16:37:43.647Z</time></trkpt><trkpt lat="39.3596637" lon="17.1111582"><ele>21.0</ele><time>2026-03-28T16:37:44.644Z</time></trkpt><trkpt lat="39.3597093" lon="17.1112893"><ele>21.0</ele><time>2026-03-28T16:37:46.646Z</time></trkpt><trkpt lat="39.3596831" lon="17.1114488"><ele>21.0</ele><time>2026-03-28T16:37:48.645Z</time></trkpt><trkpt lat="39.3596565" lon="17.1115429"><ele>21.0</ele><time>2026-03-28T16:37:49.644Z</time></trkpt><trkpt lat="39.3596331" lon="17.1116325"><ele>21.0</ele><time>2026-03-28T16:37:50.65Z</time></trkpt><trkpt lat="39.3596108" lon="17.1117168"><ele>21.0</ele><time>2026-03-28T16:37:51.65Z</time></trkpt><trkpt lat="39.3595829" lon="17.1118345"><ele>21.0</ele><time>2026-03-28T16:37:53.655Z</time></trkpt><trkpt lat="39.3596089" lon="17.111912"><ele>21.0</ele><time>2026-03-28T16:37:55.643Z</time></trkpt><trkpt lat="39.3597555" lon="17.1119952"><ele>20.25</ele><time>2026-03-28T16:37:57.641Z</time></trkpt><trkpt lat="39.35987" lon="17.112042"><ele>19.5</ele><time>2026-03-28T16:37:58.654Z</time></trkpt><trkpt lat="39.3600082" lon="17.1120837"><ele>18.75</ele><time>2026-03-28T16:37:59.646Z</time></trkpt><trkpt lat="39.3601481" lon="17.1121292"><ele>18.0</ele><time>2026-03-28T16:38:00.647Z</time></trkpt><trkpt lat="39.360284" lon="17.1121751"><ele>18.0</ele><time>2026-03-28T16:38:01.64Z</time></trkpt><trkpt lat="39.3604082" lon="17.1122115"><ele>18.0</ele><time>2026-03-28T16:38:02.651Z</time></trkpt><trkpt lat="39.3605199" lon="17.1122469"><ele>18.0</ele><time>2026-03-28T16:38:03.64Z</time></trkpt><trkpt lat="39.3606295" lon="17.112284"><ele>18.0</ele><time>2026-03-28T16:38:04.651Z</time></trkpt><trkpt lat="39.3607355" lon="17.1123183"><ele>18.5</ele><time>2026-03-28T16:38:05.643Z</time></trkpt><trkpt lat="39.3608368" lon="17.1123555"><ele>19.0</ele><time>2026-03-28T16:38:06.649Z</time></trkpt><trkpt lat="39.3609466" lon="17.1123953"><ele>19.5</ele><time>2026-03-28T16:38:07.64Z</time></trkpt><trkpt lat="39.3610807" lon="17.1124441"><ele>20.0</ele><time>2026-03-28T16:38:08.648Z</time></trkpt><trkpt lat="39.3612159" lon="17.112489"><ele>20.0</ele><time>2026-03-28T16:38:09.65Z</time></trkpt><trkpt lat="39.3613527" lon="17.1125305"><ele>20.0</ele><time>2026-03-28T16:38:10.642Z</time></trkpt><trkpt lat="39.3614899" lon="17.1125726"><ele>20.0</ele><time>2026-03-28T16:38:11.656Z</time></trkpt><trkpt lat="39.3616168" lon="17.112614"><ele>20.0</ele><time>2026-03-28T16:38:12.651Z</time></trkpt><trkpt lat="39.3617383" lon="17.1126563"><ele>19.8</ele><time>2026-03-28T16:38:13.647Z</time></trkpt><trkpt lat="39.3618535" lon="17.1126962"><ele>19.6</ele><time>2026-03-28T16:38:14.654Z</time></trkpt><trkpt lat="39.3619636" lon="17.1127328"><ele>19.4</ele><time>2026-03-28T16:38:15.64Z</time></trkpt><trkpt lat="39.3620649" lon="17.1127668"><ele>19.2</ele><time>2026-03-28T16:38:16.646Z</time></trkpt><trkpt lat="39.3621618" lon="17.112802"><ele>19.0</ele><time>2026-03-28T16:38:17.643Z</time></trkpt><trkpt lat="39.3622566" lon="17.1128357"><ele>19.4</ele><time>2026-03-28T16:38:18.647Z</time></trkpt><trkpt lat="39.3623471" lon="17.112864"><ele>19.799999999999997</ele><time>2026-03-28T16:38:19.647Z</time></trkpt><trkpt lat="39.3624329" lon="17.1128901"><ele>20.200000000000003</ele><time>2026-03-28T16:38:20.643Z</time></trkpt><trkpt lat="39.3625261" lon="17.1129198"><ele>20.6</ele><time>2026-03-28T16:38:21.642Z</time></trkpt><trkpt lat="39.3626354" lon="17.1129591"><ele>21.0</ele><time>2026-03-28T16:38:22.645Z</time></trkpt><trkpt lat="39.3627355" lon="17.1129943"><ele>21.0</ele><time>2026-03-28T16:38:23.642Z</time></trkpt><trkpt lat="39.3628152" lon="17.1130243"><ele>21.0</ele><time>2026-03-28T16:38:24.649Z</time></trkpt><trkpt lat="39.3628777" lon="17.1130497"><ele>21.0</ele><time>2026-03-28T16:38:25.65Z</time></trkpt><trkpt lat="39.3629878" lon="17.1130897"><ele>21.0</ele><time>2026-03-28T16:38:27.641Z</time></trkpt><trkpt lat="39.3630961" lon="17.1131034"><ele>21.0</ele><time>2026-03-28T16:38:29.642Z</time></trkpt><trkpt lat="39.3632314" lon="17.1131311"><ele>20.666666666666668</ele><time>2026-03-28T16:38:31.65Z</time></trkpt><trkpt lat="39.3633095" lon="17.1131789"><ele>20.333333333333332</ele><time>2026-03-28T16:38:32.639Z</time></trkpt><trkpt lat="39.3633871" lon="17.1132167"><ele>20.0</ele><time>2026-03-28T16:38:33.64Z</time></trkpt><trkpt lat="39.3634651" lon="17.1132451"><ele>19.666666666666664</ele><time>2026-03-28T16:38:34.644Z</time></trkpt><trkpt lat="39.3635373" lon="17.1132682"><ele>19.333333333333332</ele><time>2026-03-28T16:38:35.644Z</time></trkpt><trkpt lat="39.3636069" lon="17.1132884"><ele>19.0</ele><time>2026-03-28T16:38:36.642Z</time></trkpt><trkpt lat="39.3636789" lon="17.1133109"><ele>19.0</ele><time>2026-03-28T16:38:37.641Z</time></trkpt><trkpt lat="39.3637545" lon="17.1133366"><ele>19.0</ele><time>2026-03-28T16:38:38.641Z</time></trkpt><trkpt lat="39.3638343" lon="17.1133634"><ele>19.0</ele><time>2026-03-28T16:38:39.641Z</time></trkpt><trkpt lat="39.3639186" lon="17.1133919"><ele>19.0</ele><time>2026-03-28T16:38:40.645Z</time></trkpt><trkpt lat="39.3640079" lon="17.1134205"><ele>19.0</ele><time>2026-03-28T16:38:41.641Z</time></trkpt><trkpt lat="39.3641018" lon="17.1134497"><ele>19.0</ele><time>2026-03-28T16:38:42.661Z</time></trkpt><trkpt lat="39.364201" lon="17.1134804"><ele>19.799999999999997</ele><time>2026-03-28T16:38:43.644Z</time></trkpt><trkpt lat="39.3643097" lon="17.1135144"><ele>20.599999999999998</ele><time>2026-03-28T16:38:44.643Z</time></trkpt><trkpt lat="39.3644207" lon="17.1135485"><ele>21.4</ele><time>2026-03-28T16:38:45.649Z</time></trkpt><trkpt lat="39.3645236" lon="17.113582"><ele>22.2</ele><time>2026-03-28T16:38:46.648Z</time></trkpt><trkpt lat="39.3646287" lon="17.1136214"><ele>23.0</ele><time>2026-03-28T16:38:47.654Z</time></trkpt><trkpt lat="39.3647514" lon="17.1136773"><ele>24.0</ele><time>2026-03-28T16:38:48.65Z</time></trkpt><trkpt lat="39.3648827" lon="17.1137406"><ele>25.0</ele><time>2026-03-28T16:38:49.641Z</time></trkpt><trkpt lat="39.3650214" lon="17.1138103"><ele>26.0</ele><time>2026-03-28T16:38:50.646Z</time></trkpt><trkpt lat="39.3651536" lon="17.1138805"><ele>27.0</ele><time>2026-03-28T16:38:51.642Z</time></trkpt><trkpt lat="39.3652756" lon="17.1139463"><ele>27.0</ele><time>2026-03-28T16:38:52.666Z</time></trkpt><trkpt lat="39.3653873" lon="17.1140098"><ele>27.0</ele><time>2026-03-28T16:38:53.644Z</time></trkpt><trkpt lat="39.3654972" lon="17.1140736"><ele>27.0</ele><time>2026-03-28T16:38:54.64Z</time></trkpt><trkpt lat="39.3656076" lon="17.1141322"><ele>27.0</ele><time>2026-03-28T16:38:55.649Z</time></trkpt><trkpt lat="39.3657144" lon="17.1141852"><ele>26.200000000000003</ele><time>2026-03-28T16:38:56.636Z</time></trkpt><trkpt lat="39.365818" lon="17.1142355"><ele>25.400000000000002</ele><time>2026-03-28T16:38:57.659Z</time></trkpt><trkpt lat="39.3659205" lon="17.1142861"><ele>24.6</ele><time>2026-03-28T16:38:58.647Z</time></trkpt><trkpt lat="39.3660224" lon="17.1143343"><ele>23.799999999999997</ele><time>2026-03-28T16:38:59.642Z</time></trkpt><trkpt lat="39.3661233" lon="17.1143836"><ele>23.0</ele><time>2026-03-28T16:39:00.643Z</time></trkpt><trkpt lat="39.3662456" lon="17.1144419"><ele>22.75</ele><time>2026-03-28T16:39:01.648Z</time></trkpt><trkpt lat="39.3663739" lon="17.1145011"><ele>22.5</ele><time>2026-03-28T16:39:02.646Z</time></trkpt><trkpt lat="39.3664927" lon="17.1145539"><ele>22.25</ele><time>2026-03-28T16:39:03.654Z</time></trkpt><trkpt lat="39.3666025" lon="17.1146015"><ele>22.0</ele><time>2026-03-28T16:39:04.639Z</time></trkpt><trkpt lat="39.3666957" lon="17.1146418"><ele>22.0</ele><time>2026-03-28T16:39:05.644Z</time></trkpt><trkpt lat="39.3667804" lon="17.1146783"><ele>22.0</ele><time>2026-03-28T16:39:06.64Z</time></trkpt><trkpt lat="39.3668467" lon="17.1147056"><ele>22.0</ele><time>2026-03-28T16:39:07.641Z</time></trkpt><trkpt lat="39.3669475" lon="17.1147515"><ele>22.0</ele><time>2026-03-28T16:39:09.649Z</time></trkpt><trkpt lat="39.367017" lon="17.1147796"><ele>22.0</ele><time>2026-03-28T16:39:11.649Z</time></trkpt><trkpt lat="39.3670803" lon="17.1148101"><ele>22.0</ele><time>2026-03-28T16:39:13.639Z</time></trkpt><trkpt lat="39.3671564" lon="17.1148435"><ele>22.0</ele><time>2026-03-28T16:39:16.651Z</time></trkpt><trkpt lat="39.3672238" lon="17.1148782"><ele>22.0</ele><time>2026-03-28T16:39:20.651Z</time></trkpt><trkpt lat="39.3672933" lon="17.114902"><ele>22.0</ele><time>2026-03-28T16:39:38.642Z</time></trkpt><trkpt lat="39.3673644" lon="17.1149441"><ele>22.0</ele><time>2026-03-28T16:39:53.654Z</time></trkpt><trkpt lat="39.3674325" lon="17.1150001"><ele>22.0</ele><time>2026-03-28T16:39:56.648Z</time></trkpt><trkpt lat="39.3674745" lon="17.1150688"><ele>22.0</ele><time>2026-03-28T16:39:59.651Z</time></trkpt><trkpt lat="39.3674237" lon="17.1151754"><ele>22.0</ele><time>2026-03-28T16:40:02.646Z</time></trkpt><trkpt lat="39.3673622" lon="17.1152331"><ele>22.0</ele><time>2026-03-28T16:40:03.654Z</time></trkpt><trkpt lat="39.3673066" lon="17.1152897"><ele>22.0</ele><time>2026-03-28T16:40:04.641Z</time></trkpt><trkpt lat="39.3672267" lon="17.1153782"><ele>22.0</ele><time>2026-03-28T16:40:06.65Z</time></trkpt><trkpt lat="39.3671576" lon="17.115473"><ele>22.0</ele><time>2026-03-28T16:40:08.643Z</time></trkpt><trkpt lat="39.3670814" lon="17.1155748"><ele>21.6</ele><time>2026-03-28T16:40:10.638Z</time></trkpt><trkpt lat="39.3669882" lon="17.1156896"><ele>21.200000000000003</ele><time>2026-03-28T16:40:12.654Z</time></trkpt><trkpt lat="39.3669423" lon="17.1157481"><ele>20.8</ele><time>2026-03-28T16:40:13.649Z</time></trkpt><trkpt lat="39.366898" lon="17.1158062"><ele>20.4</ele><time>2026-03-28T16:40:14.648Z</time></trkpt><trkpt lat="39.3668211" lon="17.1159227"><ele>20.0</ele><time>2026-03-28T16:40:16.641Z</time></trkpt><trkpt lat="39.3667563" lon="17.1160447"><ele>19.333333333333336</ele><time>2026-03-28T16:40:18.641Z</time></trkpt><trkpt lat="39.3666938" lon="17.1161859"><ele>18.666666666666668</ele><time>2026-03-28T16:40:20.645Z</time></trkpt><trkpt lat="39.3666672" lon="17.1162678"><ele>18.0</ele><time>2026-03-28T16:40:21.649Z</time></trkpt><trkpt lat="39.3666483" lon="17.1163536"><ele>17.333333333333332</ele><time>2026-03-28T16:40:22.646Z</time></trkpt><trkpt lat="39.3666408" lon="17.1164424"><ele>16.666666666666664</ele><time>2026-03-28T16:40:23.653Z</time></trkpt><trkpt lat="39.3666448" lon="17.116534"><ele>16.0</ele><time>2026-03-28T16:40:24.647Z</time></trkpt><trkpt lat="39.3666596" lon="17.1166231"><ele>15.600000000000001</ele><time>2026-03-28T16:40:25.666Z</time></trkpt><trkpt lat="39.3666823" lon="17.1167033"><ele>15.200000000000001</ele><time>2026-03-28T16:40:26.651Z</time></trkpt><trkpt lat="39.366727" lon="17.1168384"><ele>14.799999999999999</ele><time>2026-03-28T16:40:28.654Z</time></trkpt><trkpt lat="39.3667735" lon="17.1169745"><ele>14.399999999999999</ele><time>2026-03-28T16:40:30.657Z</time></trkpt><trkpt lat="39.3668236" lon="17.1171258"><ele>14.0</ele><time>2026-03-28T16:40:32.647Z</time></trkpt><trkpt lat="39.3668483" lon="17.1172044"><ele>14.000000000000002</ele><time>2026-03-28T16:40:33.641Z</time></trkpt><trkpt lat="39.366873" lon="17.117289"><ele>14.0</ele><time>2026-03-28T16:40:34.641Z</time></trkpt><trkpt lat="39.3668955" lon="17.1173829"><ele>14.0</ele><time>2026-03-28T16:40:35.646Z</time></trkpt><trkpt lat="39.3669173" lon="17.1174921"><ele>14.0</ele><time>2026-03-28T16:40:36.641Z</time></trkpt><trkpt lat="39.3669409" lon="17.1176223"><ele>14.000000000000002</ele><time>2026-03-28T16:40:37.637Z</time></trkpt><trkpt lat="39.3669607" lon="17.1177436"><ele>14.0</ele><time>2026-03-28T16:40:38.641Z</time></trkpt><trkpt lat="39.3669757" lon="17.1178462"><ele>13.857142857142858</ele><time>2026-03-28T16:40:39.642Z</time></trkpt><trkpt lat="39.3669892" lon="17.117937"><ele>13.714285714285715</ele><time>2026-03-28T16:40:40.649Z</time></trkpt><trkpt lat="39.367002" lon="17.1180244"><ele>13.571428571428571</ele><time>2026-03-28T16:40:41.642Z</time></trkpt><trkpt lat="39.3670148" lon="17.118113"><ele>13.428571428571429</ele><time>2026-03-28T16:40:42.643Z</time></trkpt><trkpt lat="39.3670274" lon="17.1182064"><ele>13.285714285714286</ele><time>2026-03-28T16:40:43.654Z</time></trkpt><trkpt lat="39.3670403" lon="17.1183048"><ele>13.142857142857142</ele><time>2026-03-28T16:40:44.64Z</time></trkpt><trkpt lat="39.3670527" lon="17.1184026"><ele>13.0</ele><time>2026-03-28T16:40:45.636Z</time></trkpt><trkpt lat="39.3670656" lon="17.1184959"><ele>12.428571428571429</ele><time>2026-03-28T16:40:46.64Z</time></trkpt><trkpt lat="39.3670772" lon="17.1185885"><ele>11.857142857142858</ele><time>2026-03-28T16:40:47.638Z</time></trkpt><trkpt lat="39.3670879" lon="17.1186732"><ele>11.285714285714286</ele><time>2026-03-28T16:40:48.639Z</time></trkpt><trkpt lat="39.3670992" lon="17.1187665"><ele>10.714285714285715</ele><time>2026-03-28T16:40:49.638Z</time></trkpt><trkpt lat="39.3671158" lon="17.1188635"><ele>10.142857142857142</ele><time>2026-03-28T16:40:50.64Z</time></trkpt><trkpt lat="39.3671342" lon="17.1189583"><ele>9.571428571428573</ele><time>2026-03-28T16:40:51.635Z</time></trkpt><trkpt lat="39.3671486" lon="17.1190413"><ele>9.0</ele><time>2026-03-28T16:40:52.648Z</time></trkpt><trkpt lat="39.3671714" lon="17.1191864"><ele>8.8</ele><time>2026-03-28T16:40:54.648Z</time></trkpt><trkpt lat="39.3671931" lon="17.1193275"><ele>8.600000000000001</ele><time>2026-03-28T16:40:56.639Z</time></trkpt><trkpt lat="39.3672134" lon="17.1194774"><ele>8.4</ele><time>2026-03-28T16:40:58.647Z</time></trkpt><trkpt lat="39.3672386" lon="17.1196331"><ele>8.200000000000001</ele><time>2026-03-28T16:41:00.653Z</time></trkpt><trkpt lat="39.3672521" lon="17.1197147"><ele>8.0</ele><time>2026-03-28T16:41:01.64Z</time></trkpt><trkpt lat="39.3672633" lon="17.1197955"><ele>8.333333333333332</ele><time>2026-03-28T16:41:02.652Z</time></trkpt><trkpt lat="39.3672834" lon="17.1199445"><ele>8.666666666666666</ele><time>2026-03-28T16:41:04.645Z</time></trkpt><trkpt lat="39.3672953" lon="17.1200249"><ele>9.0</ele><time>2026-03-28T16:41:05.649Z</time></trkpt><trkpt lat="39.3673069" lon="17.1201125"><ele>9.333333333333334</ele><time>2026-03-28T16:41:06.646Z</time></trkpt><trkpt lat="39.3673211" lon="17.1202203"><ele>9.666666666666668</ele><time>2026-03-28T16:41:07.646Z</time></trkpt><trkpt lat="39.3673368" lon="17.1203352"><ele>10.0</ele><time>2026-03-28T16:41:08.656Z</time></trkpt><trkpt lat="39.3673532" lon="17.1204508"><ele>10.0</ele><time>2026-03-28T16:41:09.643Z</time></trkpt><trkpt lat="39.3673725" lon="17.1205632"><ele>10.0</ele><time>2026-03-28T16:41:10.641Z</time></trkpt><trkpt lat="39.3673864" lon="17.1206648"><ele>10.0</ele><time>2026-03-28T16:41:11.641Z</time></trkpt><trkpt lat="39.3674057" lon="17.1208089"><ele>10.0</ele><time>2026-03-28T16:41:13.646Z</time></trkpt><trkpt lat="39.367429" lon="17.1209596"><ele>10.0</ele><time>2026-03-28T16:41:15.654Z</time></trkpt><trkpt lat="39.3674418" lon="17.1210429"><ele>9.8</ele><time>2026-03-28T16:41:16.639Z</time></trkpt><trkpt lat="39.3674626" lon="17.1211873"><ele>9.6</ele><time>2026-03-28T16:41:18.651Z</time></trkpt><trkpt lat="39.3674788" lon="17.1213045"><ele>9.4</ele><time>2026-03-28T16:41:20.65Z</time></trkpt><trkpt lat="39.3674969" lon="17.1214321"><ele>9.2</ele><time>2026-03-28T16:41:22.653Z</time></trkpt><trkpt lat="39.3675136" lon="17.1215543"><ele>9.0</ele><time>2026-03-28T16:41:24.661Z</time></trkpt><trkpt lat="39.3675294" lon="17.1216676"><ele>9.000000000000002</ele><time>2026-03-28T16:41:26.651Z</time></trkpt><trkpt lat="39.3675457" lon="17.1217855"><ele>9.0</ele><time>2026-03-28T16:41:29.66Z</time></trkpt><trkpt lat="39.3675594" lon="17.1218824"><ele>9.0</ele><time>2026-03-28T16:41:31.65Z</time></trkpt><trkpt lat="39.3675704" lon="17.1219659"><ele>9.0</ele><time>2026-03-28T16:41:33.644Z</time></trkpt><trkpt lat="39.3675841" lon="17.1220624"><ele>9.0</ele><time>2026-03-28T16:41:35.644Z</time></trkpt><trkpt lat="39.3675971" lon="17.1221495"><ele>9.000000000000002</ele><time>2026-03-28T16:41:37.64Z</time></trkpt><trkpt lat="39.3676091" lon="17.1222389"><ele>9.0</ele><time>2026-03-28T16:41:39.64Z</time></trkpt><trkpt lat="39.3676223" lon="17.1223319"><ele>9.666666666666666</ele><time>2026-03-28T16:41:41.644Z</time></trkpt><trkpt lat="39.3676335" lon="17.122416"><ele>10.333333333333332</ele><time>2026-03-28T16:41:43.643Z</time></trkpt><trkpt lat="39.3676471" lon="17.1225205"><ele>11.0</ele><time>2026-03-28T16:41:46.643Z</time></trkpt><trkpt lat="39.3676668" lon="17.1226452"><ele>11.666666666666666</ele><time>2026-03-28T16:41:49.644Z</time></trkpt><trkpt lat="39.3676799" lon="17.1227389"><ele>12.333333333333332</ele><time>2026-03-28T16:41:51.651Z</time></trkpt><trkpt lat="39.3676921" lon="17.1228233"><ele>13.0</ele><time>2026-03-28T16:41:53.645Z</time></trkpt><trkpt lat="39.3677051" lon="17.1229113"><ele>12.999999999999998</ele><time>2026-03-28T16:41:55.646Z</time></trkpt><trkpt lat="39.3677167" lon="17.1229968"><ele>13.0</ele><time>2026-03-28T16:41:57.651Z</time></trkpt><trkpt lat="39.3677323" lon="17.1231129"><ele>13.0</ele><time>2026-03-28T16:42:00.64Z</time></trkpt><trkpt lat="39.3677488" lon="17.1232199"><ele>13.0</ele><time>2026-03-28T16:42:02.649Z</time></trkpt><trkpt lat="39.3677627" lon="17.123318"><ele>12.999999999999998</ele><time>2026-03-28T16:42:04.665Z</time></trkpt><trkpt lat="39.3677765" lon="17.1234046"><ele>13.0</ele><time>2026-03-28T16:42:06.652Z</time></trkpt><trkpt lat="39.3677859" lon="17.1235144"><ele>12.499999999999998</ele><time>2026-03-28T16:42:09.649Z</time></trkpt><trkpt lat="39.3677963" lon="17.1236132"><ele>12.0</ele><time>2026-03-28T16:42:12.648Z</time></trkpt><trkpt lat="39.3678086" lon="17.1236938"><ele>11.5</ele><time>2026-03-28T16:42:14.636Z</time></trkpt><trkpt lat="39.3678218" lon="17.123795"><ele>11.0</ele><time>2026-03-28T16:42:16.64Z</time></trkpt><trkpt lat="39.367828" lon="17.1239194"><ele>10.5</ele><time>2026-03-28T16:42:19.649Z</time></trkpt><trkpt lat="39.3678433" lon="17.1240607"><ele>10.0</ele><time>2026-03-28T16:42:21.649Z</time></trkpt><trkpt lat="39.3678655" lon="17.1241384"><ele>9.666666666666668</ele><time>2026-03-28T16:42:22.66Z</time></trkpt><trkpt lat="39.3678893" lon="17.1242145"><ele>9.333333333333334</ele><time>2026-03-28T16:42:23.65Z</time></trkpt><trkpt lat="39.367913" lon="17.1243249"><ele>9.0</ele><time>2026-03-28T16:42:25.655Z</time></trkpt><trkpt lat="39.3679282" lon="17.1244288"><ele>8.666666666666666</ele><time>2026-03-28T16:42:27.651Z</time></trkpt><trkpt lat="39.3679423" lon="17.124523"><ele>8.333333333333332</ele><time>2026-03-28T16:42:29.646Z</time></trkpt><trkpt lat="39.3679543" lon="17.1246108"><ele>8.0</ele><time>2026-03-28T16:42:32.648Z</time></trkpt><trkpt lat="39.3679713" lon="17.124718"><ele>7.999999999999999</ele><time>2026-03-28T16:42:35.643Z</time></trkpt><trkpt lat="39.3679837" lon="17.1247989"><ele>8.0</ele><time>2026-03-28T16:42:40.651Z</time></trkpt><trkpt lat="39.3680035" lon="17.1249047"><ele>8.0</ele><time>2026-03-28T16:42:57.642Z</time></trkpt><trkpt lat="39.3680201" lon="17.125013"><ele>8.0</ele><time>2026-03-28T16:42:59.647Z</time></trkpt><trkpt lat="39.3680375" lon="17.1251569"><ele>7.999999999999999</ele><time>2026-03-28T16:43:01.638Z</time></trkpt><trkpt lat="39.3680558" lon="17.1252769"><ele>8.0</ele><time>2026-03-28T16:43:02.653Z</time></trkpt><trkpt lat="39.3680755" lon="17.1254115"><ele>8.4</ele><time>2026-03-28T16:43:03.647Z</time></trkpt><trkpt lat="39.3680953" lon="17.1255435"><ele>8.8</ele><time>2026-03-28T16:43:04.639Z</time></trkpt><trkpt lat="39.3681129" lon="17.1256654"><ele>9.2</ele><time>2026-03-28T16:43:05.646Z</time></trkpt><trkpt lat="39.3681323" lon="17.125816"><ele>9.6</ele><time>2026-03-28T16:43:06.649Z</time></trkpt><trkpt lat="39.3681507" lon="17.1259575"><ele>10.0</ele><time>2026-03-28T16:43:07.659Z</time></trkpt><trkpt lat="39.3681669" lon="17.1260813"><ele>10.0</ele><time>2026-03-28T16:43:08.64Z</time></trkpt><trkpt lat="39.3681794" lon="17.1261774"><ele>10.0</ele><time>2026-03-28T16:43:09.649Z</time></trkpt><trkpt lat="39.3681945" lon="17.1263037"><ele>10.0</ele><time>2026-03-28T16:43:11.639Z</time></trkpt><trkpt lat="39.3682031" lon="17.1264142"><ele>10.0</ele><time>2026-03-28T16:43:13.638Z</time></trkpt><trkpt lat="39.3682138" lon="17.1264969"><ele>10.0</ele><time>2026-03-28T16:43:15.639Z</time></trkpt><trkpt lat="39.3682327" lon="17.1266136"><ele>10.0</ele><time>2026-03-28T16:43:18.648Z</time></trkpt><trkpt lat="39.3682486" lon="17.1267022"><ele>9.8</ele><time>2026-03-28T16:43:20.641Z</time></trkpt><trkpt lat="39.3682656" lon="17.1268151"><ele>9.6</ele><time>2026-03-28T16:43:22.639Z</time></trkpt><trkpt lat="39.3682802" lon="17.1269236"><ele>9.4</ele><time>2026-03-28T16:43:24.64Z</time></trkpt><trkpt lat="39.3682901" lon="17.12701"><ele>9.2</ele><time>2026-03-28T16:43:26.649Z</time></trkpt><trkpt lat="39.3683106" lon="17.1271345"><ele>9.0</ele><time>2026-03-28T16:43:29.643Z</time></trkpt><trkpt lat="39.368332" lon="17.1272828"><ele>9.0</ele><time>2026-03-28T16:43:31.646Z</time></trkpt><trkpt lat="39.3683468" lon="17.1273759"><ele>9.0</ele><time>2026-03-28T16:43:32.646Z</time></trkpt><trkpt lat="39.3683581" lon="17.1274596"><ele>9.0</ele><time>2026-03-28T16:43:33.643Z</time></trkpt><trkpt lat="39.368375" lon="17.127588"><ele>9.0</ele><time>2026-03-28T16:43:35.64Z</time></trkpt><trkpt lat="39.3683879" lon="17.1277024"><ele>9.0</ele><time>2026-03-28T16:43:37.639Z</time></trkpt><trkpt lat="39.3684035" lon="17.1278061"><ele>9.0</ele><time>2026-03-28T16:43:39.651Z</time></trkpt><trkpt lat="39.3684229" lon="17.1279224"><ele>9.0</ele><time>2026-03-28T16:43:42.647Z</time></trkpt><trkpt lat="39.3684396" lon="17.1280332"><ele>9.0</ele><time>2026-03-28T16:43:45.637Z</time></trkpt><trkpt lat="39.3684513" lon="17.1281193"><ele>9.0</ele><time>2026-03-28T16:43:47.644Z</time></trkpt><trkpt lat="39.3684666" lon="17.1282206"><ele>9.0</ele><time>2026-03-28T16:43:49.646Z</time></trkpt><trkpt lat="39.3684858" lon="17.1283568"><ele>9.0</ele><time>2026-03-28T16:43:51.642Z</time></trkpt><trkpt lat="39.3684989" lon="17.1284391"><ele>9.0</ele><time>2026-03-28T16:43:52.641Z</time></trkpt><trkpt lat="39.36851" lon="17.1285239"><ele>8.8</ele><time>2026-03-28T16:43:53.641Z</time></trkpt><trkpt lat="39.368522" lon="17.1286075"><ele>8.600000000000001</ele><time>2026-03-28T16:43:54.64Z</time></trkpt><trkpt lat="39.3685416" lon="17.1287649"><ele>8.4</ele><time>2026-03-28T16:43:56.641Z</time></trkpt><trkpt lat="39.3685644" lon="17.1289283"><ele>8.200000000000001</ele><time>2026-03-28T16:43:58.64Z</time></trkpt><trkpt lat="39.3685765" lon="17.1290207"><ele>8.0</ele><time>2026-03-28T16:43:59.65Z</time></trkpt><trkpt lat="39.3685892" lon="17.1291114"><ele>8.0</ele><time>2026-03-28T16:44:00.645Z</time></trkpt><trkpt lat="39.3686102" lon="17.1292623"><ele>8.0</ele><time>2026-03-28T16:44:02.637Z</time></trkpt><trkpt lat="39.3686244" lon="17.1293988"><ele>8.0</ele><time>2026-03-28T16:44:04.638Z</time></trkpt><trkpt lat="39.3686377" lon="17.1295148"><ele>8.0</ele><time>2026-03-28T16:44:06.649Z</time></trkpt><trkpt lat="39.3686558" lon="17.1296483"><ele>8.0</ele><time>2026-03-28T16:44:08.648Z</time></trkpt><trkpt lat="39.3686805" lon="17.1297972"><ele>7.666666666666666</ele><time>2026-03-28T16:44:10.649Z</time></trkpt><trkpt lat="39.3686986" lon="17.129928"><ele>7.333333333333333</ele><time>2026-03-28T16:44:12.649Z</time></trkpt><trkpt lat="39.3687122" lon="17.1300129"><ele>7.0</ele><time>2026-03-28T16:44:14.65Z</time></trkpt><trkpt lat="39.3687299" lon="17.1301299"><ele>6.666666666666666</ele><time>2026-03-28T16:44:17.642Z</time></trkpt><trkpt lat="39.3687407" lon="17.1302143"><ele>6.333333333333333</ele><time>2026-03-28T16:44:19.64Z</time></trkpt><trkpt lat="39.3687564" lon="17.1303278"><ele>6.0</ele><time>2026-03-28T16:44:22.637Z</time></trkpt><trkpt lat="39.3687703" lon="17.1304115"><ele>6.0</ele><time>2026-03-28T16:44:24.648Z</time></trkpt><trkpt lat="39.3687851" lon="17.1305175"><ele>6.0</ele><time>2026-03-28T16:44:26.644Z</time></trkpt><trkpt lat="39.3687928" lon="17.1306101"><ele>6.0</ele><time>2026-03-28T16:44:28.637Z</time></trkpt><trkpt lat="39.3688026" lon="17.1306978"><ele>6.0</ele><time>2026-03-28T16:44:31.65Z</time></trkpt><trkpt lat="39.368818" lon="17.1307779"><ele>6.0</ele><time>2026-03-28T16:44:35.648Z</time></trkpt><trkpt lat="39.3688381" lon="17.130886"><ele>6.0</ele><time>2026-03-28T16:44:41.65Z</time></trkpt><trkpt lat="39.3688592" lon="17.1309896"><ele>6.0</ele><time>2026-03-28T16:44:44.647Z</time></trkpt><trkpt lat="39.3688752" lon="17.1311397"><ele>6.0</ele><time>2026-03-28T16:44:45.641Z</time></trkpt><trkpt lat="39.3688903" lon="17.1312836"><ele>6.0</ele><time>2026-03-28T16:44:46.638Z</time></trkpt><trkpt lat="39.3689064" lon="17.1314044"><ele>6.0</ele><time>2026-03-28T16:44:47.64Z</time></trkpt><trkpt lat="39.3689202" lon="17.1315066"><ele>6.0</ele><time>2026-03-28T16:44:48.637Z</time></trkpt><trkpt lat="39.368934" lon="17.1315936"><ele>6.0</ele><time>2026-03-28T16:44:49.638Z</time></trkpt><trkpt lat="39.3689474" lon="17.1316742"><ele>6.0</ele><time>2026-03-28T16:44:50.638Z</time></trkpt><trkpt lat="39.3689666" lon="17.1318037"><ele>6.0</ele><time>2026-03-28T16:44:52.638Z</time></trkpt><trkpt lat="39.3689842" lon="17.1319043"><ele>6.0</ele><time>2026-03-28T16:44:54.64Z</time></trkpt><trkpt lat="39.3689991" lon="17.1319974"><ele>6.0</ele><time>2026-03-28T16:44:56.639Z</time></trkpt><trkpt lat="39.3690118" lon="17.1321217"><ele>6.0</ele><time>2026-03-28T16:44:58.641Z</time></trkpt><trkpt lat="39.3690207" lon="17.1322241"><ele>6.0</ele><time>2026-03-28T16:45:00.642Z</time></trkpt><trkpt lat="39.3690273" lon="17.1323274"><ele>6.0</ele><time>2026-03-28T16:45:03.641Z</time></trkpt><trkpt lat="39.369028" lon="17.1324213"><ele>6.0</ele><time>2026-03-28T16:45:08.646Z</time></trkpt><trkpt lat="39.3690341" lon="17.1325224"><ele>6.0</ele><time>2026-03-28T16:45:22.652Z</time></trkpt><trkpt lat="39.3690796" lon="17.1326174"><ele>6.0</ele><time>2026-03-28T16:45:25.646Z</time></trkpt><trkpt lat="39.369142" lon="17.1326662"><ele>6.0</ele><time>2026-03-28T16:45:27.641Z</time></trkpt><trkpt lat="39.3692016" lon="17.1326925"><ele>6.333333333333333</ele><time>2026-03-28T16:45:29.648Z</time></trkpt><trkpt lat="39.3692918" lon="17.1327257"><ele>6.666666666666666</ele><time>2026-03-28T16:45:32.639Z</time></trkpt><trkpt lat="39.3693418" lon="17.1327812"><ele>7.0</ele><time>2026-03-28T16:45:34.644Z</time></trkpt><trkpt lat="39.3693536" lon="17.1328682"><ele>7.333333333333333</ele><time>2026-03-28T16:45:36.648Z</time></trkpt><trkpt lat="39.36935" lon="17.1329557"><ele>7.666666666666666</ele><time>2026-03-28T16:45:39.64Z</time></trkpt><trkpt lat="39.3693405" lon="17.1330534"><ele>8.0</ele><time>2026-03-28T16:45:42.649Z</time></trkpt><trkpt lat="39.3693084" lon="17.133162"><ele>7.999999999999999</ele><time>2026-03-28T16:45:45.651Z</time></trkpt><trkpt lat="39.3692515" lon="17.1332133"><ele>8.0</ele><time>2026-03-28T16:45:47.64Z</time></trkpt><trkpt lat="39.3691457" lon="17.1332178"><ele>8.0</ele><time>2026-03-28T16:45:49.648Z</time></trkpt><trkpt lat="39.3690587" lon="17.1331965"><ele>8.0</ele><time>2026-03-28T16:45:50.642Z</time></trkpt><trkpt lat="39.3689721" lon="17.1331731"><ele>7.999999999999999</ele><time>2026-03-28T16:45:51.649Z</time></trkpt><trkpt lat="39.3688809" lon="17.1331501"><ele>8.0</ele><time>2026-03-28T16:45:52.647Z</time></trkpt><trkpt lat="39.3687917" lon="17.1331316"><ele>7.999999999999999</ele><time>2026-03-28T16:45:53.64Z</time></trkpt><trkpt lat="39.3687092" lon="17.1331177"><ele>8.0</ele><time>2026-03-28T16:45:54.641Z</time></trkpt><trkpt lat="39.3686389" lon="17.133107"><ele>8.0</ele><time>2026-03-28T16:45:55.639Z</time></trkpt><trkpt lat="39.3685754" lon="17.1330979"><ele>8.0</ele><time>2026-03-28T16:45:56.642Z</time></trkpt><trkpt lat="39.3684705" lon="17.1330853"><ele>7.999999999999999</ele><time>2026-03-28T16:45:58.662Z</time></trkpt><trkpt lat="39.3683561" lon="17.1330733"><ele>8.0</ele><time>2026-03-28T16:46:00.643Z</time></trkpt><trkpt lat="39.3682527" lon="17.1330635"><ele>8.0</ele><time>2026-03-28T16:46:02.641Z</time></trkpt><trkpt lat="39.3681474" lon="17.1330553"><ele>8.0</ele><time>2026-03-28T16:46:04.637Z</time></trkpt><trkpt lat="39.3680496" lon="17.1330468"><ele>8.0</ele><time>2026-03-28T16:46:06.644Z</time></trkpt><trkpt lat="39.3679705" lon="17.1330394"><ele>8.0</ele><time>2026-03-28T16:46:08.64Z</time></trkpt><trkpt lat="39.3678749" lon="17.133031"><ele>8.0</ele><time>2026-03-28T16:46:10.65Z</time></trkpt><trkpt lat="39.3677715" lon="17.1330276"><ele>7.999999999999999</ele><time>2026-03-28T16:46:12.652Z</time></trkpt><trkpt lat="39.3677061" lon="17.133027"><ele>8.0</ele><time>2026-03-28T16:46:13.642Z</time></trkpt><trkpt lat="39.3676147" lon="17.1330254"><ele>8.0</ele><time>2026-03-28T16:46:14.642Z</time></trkpt><trkpt lat="39.3675221" lon="17.1330222"><ele>8.0</ele><time>2026-03-28T16:46:15.648Z</time></trkpt><trkpt lat="39.3674386" lon="17.1330185"><ele>7.999999999999999</ele><time>2026-03-28T16:46:16.64Z</time></trkpt><trkpt lat="39.3673621" lon="17.1330161"><ele>8.0</ele><time>2026-03-28T16:46:17.644Z</time></trkpt><trkpt lat="39.3672918" lon="17.1330149"><ele>8.0</ele><time>2026-03-28T16:46:18.647Z</time></trkpt><trkpt lat="39.3671572" lon="17.1330046"><ele>8.0</ele><time>2026-03-28T16:46:20.641Z</time></trkpt><trkpt lat="39.3670783" lon="17.1330029"><ele>8.0</ele><time>2026-03-28T16:46:21.647Z</time></trkpt><trkpt lat="39.3670116" lon="17.1330011"><ele>8.0</ele><time>2026-03-28T16:46:22.645Z</time></trkpt><trkpt lat="39.3669431" lon="17.1329983"><ele>8.0</ele><time>2026-03-28T16:46:23.652Z</time></trkpt><trkpt lat="39.3668347" lon="17.1329925"><ele>7.999999999999999</ele><time>2026-03-28T16:46:25.647Z</time></trkpt><trkpt lat="39.3667394" lon="17.1329889"><ele>8.0</ele><time>2026-03-28T16:46:27.641Z</time></trkpt><trkpt lat="39.3666675" lon="17.1329857"><ele>8.0</ele><time>2026-03-28T16:46:29.646Z</time></trkpt><trkpt lat="39.3665987" lon="17.1329847"><ele>8.0</ele><time>2026-03-28T16:46:31.641Z</time></trkpt><trkpt lat="39.366524" lon="17.1329851"><ele>7.999999999999999</ele><time>2026-03-28T16:46:33.649Z</time></trkpt><trkpt lat="39.3664319" lon="17.132988"><ele>8.0</ele><time>2026-03-28T16:46:35.646Z</time></trkpt><trkpt lat="39.3663198" lon="17.1329895"><ele>7.4</ele><time>2026-03-28T16:46:37.642Z</time></trkpt><trkpt lat="39.3661934" lon="17.1329864"><ele>6.800000000000001</ele><time>2026-03-28T16:46:39.649Z</time></trkpt><trkpt lat="39.3661277" lon="17.1329845"><ele>6.2</ele><time>2026-03-28T16:46:40.639Z</time></trkpt><trkpt lat="39.3660093" lon="17.1329726"><ele>5.6</ele><time>2026-03-28T16:46:42.652Z</time></trkpt><trkpt lat="39.3658846" lon="17.1329573"><ele>5.0</ele><time>2026-03-28T16:46:44.651Z</time></trkpt><trkpt lat="39.3658178" lon="17.1329489"><ele>5.0</ele><time>2026-03-28T16:46:45.642Z</time></trkpt><trkpt lat="39.3657526" lon="17.1329409"><ele>5.0</ele><time>2026-03-28T16:46:46.642Z</time></trkpt><trkpt lat="39.3656812" lon="17.1329332"><ele>5.0</ele><time>2026-03-28T16:46:47.649Z</time></trkpt><trkpt lat="39.3655982" lon="17.132925"><ele>5.0</ele><time>2026-03-28T16:46:48.65Z</time></trkpt><trkpt lat="39.365496" lon="17.1329174"><ele>5.0</ele><time>2026-03-28T16:46:49.655Z</time></trkpt><trkpt lat="39.3653969" lon="17.1329108"><ele>5.0</ele><time>2026-03-28T16:46:50.647Z</time></trkpt><trkpt lat="39.3653087" lon="17.1329057"><ele>5.0</ele><time>2026-03-28T16:46:51.652Z</time></trkpt><trkpt lat="39.3652257" lon="17.1329016"><ele>5.0</ele><time>2026-03-28T16:46:52.647Z</time></trkpt><trkpt lat="39.3651443" lon="17.132898"><ele>5.0</ele><time>2026-03-28T16:46:53.638Z</time></trkpt><trkpt lat="39.365065" lon="17.1328938"><ele>5.0</ele><time>2026-03-28T16:46:54.65Z</time></trkpt><trkpt lat="39.3649863" lon="17.1328863"><ele>5.0</ele><time>2026-03-28T16:46:55.64Z</time></trkpt><trkpt lat="39.3649088" lon="17.1328794"><ele>5.0</ele><time>2026-03-28T16:46:56.644Z</time></trkpt><trkpt lat="39.3648293" lon="17.1328705"><ele>5.0</ele><time>2026-03-28T16:46:57.645Z</time></trkpt><trkpt lat="39.3647461" lon="17.1328595"><ele>5.0</ele><time>2026-03-28T16:46:58.642Z</time></trkpt><trkpt lat="39.3646676" lon="17.1328474"><ele>5.0</ele><time>2026-03-28T16:46:59.659Z</time></trkpt><trkpt lat="39.3645922" lon="17.1328351"><ele>5.0</ele><time>2026-03-28T16:47:00.644Z</time></trkpt><trkpt lat="39.3645134" lon="17.1328231"><ele>5.0</ele><time>2026-03-28T16:47:01.641Z</time></trkpt><trkpt lat="39.3644356" lon="17.1328117"><ele>5.0</ele><time>2026-03-28T16:47:02.65Z</time></trkpt><trkpt lat="39.364359" lon="17.1328018"><ele>4.8</ele><time>2026-03-28T16:47:03.642Z</time></trkpt><trkpt lat="39.3642841" lon="17.1327928"><ele>4.6</ele><time>2026-03-28T16:47:04.655Z</time></trkpt><trkpt lat="39.3642074" lon="17.132784"><ele>4.4</ele><time>2026-03-28T16:47:05.645Z</time></trkpt><trkpt lat="39.3641392" lon="17.1327759"><ele>4.2</ele><time>2026-03-28T16:47:06.645Z</time></trkpt><trkpt lat="39.3640197" lon="17.1327581"><ele>4.0</ele><time>2026-03-28T16:47:08.643Z</time></trkpt><trkpt lat="39.3639159" lon="17.132711"><ele>3.9999999999999996</ele><time>2026-03-28T16:47:10.643Z</time></trkpt><trkpt lat="39.3638524" lon="17.1326013"><ele>4.0</ele><time>2026-03-28T16:47:12.645Z</time></trkpt><trkpt lat="39.3638212" lon="17.1325037"><ele>4.0</ele><time>2026-03-28T16:47:14.639Z</time></trkpt><trkpt lat="39.3637932" lon="17.1324032"><ele>4.0</ele><time>2026-03-28T16:47:16.652Z</time></trkpt><trkpt lat="39.363764" lon="17.132305"><ele>3.9999999999999996</ele><time>2026-03-28T16:47:18.649Z</time></trkpt><trkpt lat="39.3637296" lon="17.1322097"><ele>4.0</ele><time>2026-03-28T16:47:20.648Z</time></trkpt><trkpt lat="39.3636973" lon="17.1321121"><ele>4.4</ele><time>2026-03-28T16:47:22.642Z</time></trkpt><trkpt lat="39.3636699" lon="17.1320217"><ele>4.800000000000001</ele><time>2026-03-28T16:47:24.651Z</time></trkpt><trkpt lat="39.3636199" lon="17.1319333"><ele>5.199999999999999</ele><time>2026-03-28T16:47:26.642Z</time></trkpt><trkpt lat="39.3635321" lon="17.1318892"><ele>5.6</ele><time>2026-03-28T16:47:28.649Z</time></trkpt><trkpt lat="39.3634132" lon="17.1318949"><ele>6.0</ele><time>2026-03-28T16:47:30.642Z</time></trkpt><trkpt lat="39.3633292" lon="17.1319087"><ele>6.0</ele><time>2026-03-28T16:47:31.642Z</time></trkpt><trkpt lat="39.36322" lon="17.1319256"><ele>6.0</ele><time>2026-03-28T16:47:32.641Z</time></trkpt><trkpt lat="39.3631173" lon="17.1319399"><ele>6.0</ele><time>2026-03-28T16:47:33.647Z</time></trkpt><trkpt lat="39.3630285" lon="17.1319451"><ele>6.0</ele><time>2026-03-28T16:47:34.645Z</time></trkpt><trkpt lat="39.3629428" lon="17.1319452"><ele>6.0</ele><time>2026-03-28T16:47:35.642Z</time></trkpt><trkpt lat="39.3628554" lon="17.1319411"><ele>5.5</ele><time>2026-03-28T16:47:36.651Z</time></trkpt><trkpt lat="39.3627543" lon="17.131933"><ele>5.0</ele><time>2026-03-28T16:47:37.641Z</time></trkpt><trkpt lat="39.3626246" lon="17.1319169"><ele>4.5</ele><time>2026-03-28T16:47:38.645Z</time></trkpt><trkpt lat="39.3625024" lon="17.1318945"><ele>4.0</ele><time>2026-03-28T16:47:39.644Z</time></trkpt><trkpt lat="39.3623925" lon="17.1318698"><ele>3.9999999999999996</ele><time>2026-03-28T16:47:40.645Z</time></trkpt><trkpt lat="39.3622943" lon="17.1318477"><ele>4.0</ele><time>2026-03-28T16:47:41.648Z</time></trkpt><trkpt lat="39.362208" lon="17.1318291"><ele>4.0</ele><time>2026-03-28T16:47:42.647Z</time></trkpt><trkpt lat="39.3621319" lon="17.1318129"><ele>4.0</ele><time>2026-03-28T16:47:43.649Z</time></trkpt><trkpt lat="39.3620607" lon="17.1317969"><ele>3.9999999999999996</ele><time>2026-03-28T16:47:44.648Z</time></trkpt><trkpt lat="39.3619925" lon="17.1317828"><ele>4.0</ele><time>2026-03-28T16:47:45.657Z</time></trkpt><trkpt lat="39.3619249" lon="17.1317691"><ele>4.333333333333333</ele><time>2026-03-28T16:47:46.64Z</time></trkpt><trkpt lat="39.361856" lon="17.1317557"><ele>4.666666666666666</ele><time>2026-03-28T16:47:47.64Z</time></trkpt><trkpt lat="39.3617867" lon="17.1317403"><ele>5.0</ele><time>2026-03-28T16:47:48.639Z</time></trkpt><trkpt lat="39.3617188" lon="17.1317236"><ele>5.333333333333333</ele><time>2026-03-28T16:47:49.642Z</time></trkpt><trkpt lat="39.3616525" lon="17.1317082"><ele>5.666666666666667</ele><time>2026-03-28T16:47:50.651Z</time></trkpt><trkpt lat="39.3615886" lon="17.1316943"><ele>6.0</ele><time>2026-03-28T16:47:51.641Z</time></trkpt><trkpt lat="39.3614718" lon="17.1316719"><ele>6.0</ele><time>2026-03-28T16:47:53.637Z</time></trkpt><trkpt lat="39.3613704" lon="17.1316523"><ele>6.0</ele><time>2026-03-28T16:47:55.649Z</time></trkpt><trkpt lat="39.3612734" lon="17.1316326"><ele>6.0</ele><time>2026-03-28T16:47:57.66Z</time></trkpt><trkpt lat="39.3611478" lon="17.1316072"><ele>6.0</ele><time>2026-03-28T16:47:59.652Z</time></trkpt><trkpt lat="39.3610799" lon="17.1315949"><ele>6.0</ele><time>2026-03-28T16:48:00.643Z</time></trkpt><trkpt lat="39.361017" lon="17.1315833"><ele>5.833333333333333</ele><time>2026-03-28T16:48:01.646Z</time></trkpt><trkpt lat="39.3609075" lon="17.1315641"><ele>5.666666666666667</ele><time>2026-03-28T16:48:03.642Z</time></trkpt><trkpt lat="39.3608227" lon="17.1315505"><ele>5.5</ele><time>2026-03-28T16:48:05.645Z</time></trkpt><trkpt lat="39.3607369" lon="17.1315403"><ele>5.333333333333334</ele><time>2026-03-28T16:48:07.646Z</time></trkpt><trkpt lat="39.3606554" lon="17.131539"><ele>5.166666666666667</ele><time>2026-03-28T16:48:09.645Z</time></trkpt><trkpt lat="39.3606001" lon="17.131578"><ele>5.0</ele><time>2026-03-28T16:48:11.645Z</time></trkpt><trkpt lat="39.3606151" lon="17.131695"><ele>4.8</ele><time>2026-03-28T16:48:14.644Z</time></trkpt><trkpt lat="39.3606993" lon="17.1317361"><ele>4.6</ele><time>2026-03-28T16:48:16.644Z</time></trkpt><trkpt lat="39.3608319" lon="17.1317639"><ele>4.4</ele><time>2026-03-28T16:48:18.648Z</time></trkpt><trkpt lat="39.3609117" lon="17.1317789"><ele>4.2</ele><time>2026-03-28T16:48:19.643Z</time></trkpt><trkpt lat="39.3610091" lon="17.1317957"><ele>4.0</ele><time>2026-03-28T16:48:20.641Z</time></trkpt><trkpt lat="39.3611096" lon="17.1318122"><ele>3.9999999999999996</ele><time>2026-03-28T16:48:21.642Z</time></trkpt><trkpt lat="39.3612021" lon="17.1318304"><ele>4.0</ele><time>2026-03-28T16:48:22.645Z</time></trkpt><trkpt lat="39.3612848" lon="17.1318482"><ele>4.0</ele><time>2026-03-28T16:48:23.662Z</time></trkpt><trkpt lat="39.3613629" lon="17.1318656"><ele>4.0</ele><time>2026-03-28T16:48:24.647Z</time></trkpt><trkpt lat="39.3614435" lon="17.1318821"><ele>3.9999999999999996</ele><time>2026-03-28T16:48:25.646Z</time></trkpt><trkpt lat="39.3615286" lon="17.1318992"><ele>4.0</ele><time>2026-03-28T16:48:26.643Z</time></trkpt><trkpt lat="39.3616122" lon="17.1319191"><ele>4.285714285714286</ele><time>2026-03-28T16:48:27.645Z</time></trkpt><trkpt lat="39.3616886" lon="17.1319368"><ele>4.571428571428571</ele><time>2026-03-28T16:48:28.643Z</time></trkpt><trkpt lat="39.3617659" lon="17.131952"><ele>4.857142857142857</ele><time>2026-03-28T16:48:29.646Z</time></trkpt><trkpt lat="39.3618426" lon="17.1319688"><ele>5.142857142857142</ele><time>2026-03-28T16:48:30.645Z</time></trkpt><trkpt lat="39.3619134" lon="17.1319869"><ele>5.428571428571429</ele><time>2026-03-28T16:48:31.65Z</time></trkpt><trkpt lat="39.3619789" lon="17.132004"><ele>5.7142857142857135</ele><time>2026-03-28T16:48:32.644Z</time></trkpt><trkpt lat="39.3620421" lon="17.1320212"><ele>6.0</ele><time>2026-03-28T16:48:33.649Z</time></trkpt><trkpt lat="39.3621083" lon="17.1320377"><ele>6.0</ele><time>2026-03-28T16:48:34.642Z</time></trkpt><trkpt lat="39.362176" lon="17.1320559"><ele>6.0</ele><time>2026-03-28T16:48:35.64Z</time></trkpt><trkpt lat="39.3622455" lon="17.1320733"><ele>6.0</ele><time>2026-03-28T16:48:36.653Z</time></trkpt><trkpt lat="39.3623161" lon="17.1320889"><ele>6.0</ele><time>2026-03-28T16:48:37.643Z</time></trkpt><trkpt lat="39.3623872" lon="17.1321049"><ele>6.0</ele><time>2026-03-28T16:48:38.658Z</time></trkpt><trkpt lat="39.3624544" lon="17.1321188"><ele>6.0</ele><time>2026-03-28T16:48:39.644Z</time></trkpt><trkpt lat="39.3625633" lon="17.1321396"><ele>6.0</ele><time>2026-03-28T16:48:41.643Z</time></trkpt><trkpt lat="39.3626717" lon="17.1321658"><ele>6.0</ele><time>2026-03-28T16:48:43.643Z</time></trkpt><trkpt lat="39.3627719" lon="17.1321891"><ele>6.0</ele><time>2026-03-28T16:48:45.648Z</time></trkpt><trkpt lat="39.3629021" lon="17.1322194"><ele>6.0</ele><time>2026-03-28T16:48:47.651Z</time></trkpt><trkpt lat="39.3629802" lon="17.1322421"><ele>6.0</ele><time>2026-03-28T16:48:48.651Z</time></trkpt><trkpt lat="39.3630455" lon="17.1322617"><ele>6.0</ele><time>2026-03-28T16:48:49.65Z</time></trkpt><trkpt lat="39.363154" lon="17.1322876"><ele>6.0</ele><time>2026-03-28T16:48:51.653Z</time></trkpt><trkpt lat="39.3632555" lon="17.1323102"><ele>6.0</ele><time>2026-03-28T16:48:53.654Z</time></trkpt><trkpt lat="39.3633536" lon="17.1323329"><ele>6.0</ele><time>2026-03-28T16:48:55.644Z</time></trkpt><trkpt lat="39.3634181" lon="17.1323499"><ele>6.0</ele><time>2026-03-28T16:48:57.644Z</time></trkpt><trkpt lat="39.3634819" lon="17.1323707"><ele>6.0</ele><time>2026-03-28T16:49:00.644Z</time></trkpt><trkpt lat="39.3635611" lon="17.1324119"><ele>5.666666666666667</ele><time>2026-03-28T16:49:05.651Z</time></trkpt><trkpt lat="39.3636382" lon="17.1324777"><ele>5.333333333333333</ele><time>2026-03-28T16:49:08.646Z</time></trkpt><trkpt lat="39.3637015" lon="17.1325649"><ele>5.0</ele><time>2026-03-28T16:49:10.65Z</time></trkpt><trkpt lat="39.3637381" lon="17.1326849"><ele>4.666666666666666</ele><time>2026-03-28T16:49:12.646Z</time></trkpt><trkpt lat="39.3637545" lon="17.1327652"><ele>4.333333333333333</ele><time>2026-03-28T16:49:13.653Z</time></trkpt><trkpt lat="39.3637796" lon="17.1328406"><ele>4.0</ele><time>2026-03-28T16:49:14.642Z</time></trkpt><trkpt lat="39.3638537" lon="17.1329467"><ele>4.0</ele><time>2026-03-28T16:49:16.646Z</time></trkpt><trkpt lat="39.3639558" lon="17.1330133"><ele>4.0</ele><time>2026-03-28T16:49:18.652Z</time></trkpt><trkpt lat="39.3640593" lon="17.1330425"><ele>4.0</ele><time>2026-03-28T16:49:20.655Z</time></trkpt><trkpt lat="39.3641771" lon="17.1330594"><ele>4.0</ele><time>2026-03-28T16:49:22.642Z</time></trkpt><trkpt lat="39.3642458" lon="17.1330655"><ele>4.0</ele><time>2026-03-28T16:49:23.647Z</time></trkpt><trkpt lat="39.3643172" lon="17.1330703"><ele>4.0</ele><time>2026-03-28T16:49:24.657Z</time></trkpt><trkpt lat="39.3643957" lon="17.1330743"><ele>4.0</ele><time>2026-03-28T16:49:25.645Z</time></trkpt><trkpt lat="39.3644653" lon="17.1330809"><ele>4.0</ele><time>2026-03-28T16:49:26.663Z</time></trkpt><trkpt lat="39.3645773" lon="17.1330911"><ele>4.0</ele><time>2026-03-28T16:49:28.642Z</time></trkpt><trkpt lat="39.3646972" lon="17.1331019"><ele>4.0</ele><time>2026-03-28T16:49:30.654Z</time></trkpt><trkpt lat="39.3647866" lon="17.133113"><ele>4.166666666666666</ele><time>2026-03-28T16:49:31.653Z</time></trkpt><trkpt lat="39.364881" lon="17.1331256"><ele>4.333333333333333</ele><time>2026-03-28T16:49:32.642Z</time></trkpt><trkpt lat="39.3649621" lon="17.1331372"><ele>4.5</ele><time>2026-03-28T16:49:33.661Z</time></trkpt><trkpt lat="39.3650344" lon="17.1331477"><ele>4.666666666666667</ele><time>2026-03-28T16:49:34.646Z</time></trkpt><trkpt lat="39.365113" lon="17.1331574"><ele>4.833333333333334</ele><time>2026-03-28T16:49:35.642Z</time></trkpt><trkpt lat="39.3651862" lon="17.1331647"><ele>5.0</ele><time>2026-03-28T16:49:36.647Z</time></trkpt><trkpt lat="39.365259" lon="17.1331729"><ele>5.0</ele><time>2026-03-28T16:49:37.646Z</time></trkpt><trkpt lat="39.3653273" lon="17.1331811"><ele>5.0</ele><time>2026-03-28T16:49:38.657Z</time></trkpt><trkpt lat="39.3654423" lon="17.1331906"><ele>5.0</ele><time>2026-03-28T16:49:40.641Z</time></trkpt><trkpt lat="39.3655579" lon="17.1332003"><ele>5.0</ele><time>2026-03-28T16:49:42.642Z</time></trkpt><trkpt lat="39.3656726" lon="17.1332098"><ele>5.0</ele><time>2026-03-28T16:49:44.648Z</time></trkpt><trkpt lat="39.3657752" lon="17.1332175"><ele>4.333333333333334</ele><time>2026-03-28T16:49:46.659Z</time></trkpt><trkpt lat="39.3658504" lon="17.1332258"><ele>3.666666666666667</ele><time>2026-03-28T16:49:48.647Z</time></trkpt><trkpt lat="39.3659338" lon="17.1332365"><ele>3.0</ele><time>2026-03-28T16:49:50.647Z</time></trkpt><trkpt lat="39.3660298" lon="17.1332578"><ele>2.3333333333333335</ele><time>2026-03-28T16:49:52.645Z</time></trkpt><trkpt lat="39.3661115" lon="17.1332856"><ele>1.6666666666666665</ele><time>2026-03-28T16:49:54.646Z</time></trkpt><trkpt lat="39.3661998" lon="17.1333154"><ele>1.0</ele><time>2026-03-28T16:49:56.646Z</time></trkpt><trkpt lat="39.3663067" lon="17.1333284"><ele>1.0</ele><time>2026-03-28T16:49:58.646Z</time></trkpt><trkpt lat="39.3664018" lon="17.133309"><ele>1.0</ele><time>2026-03-28T16:50:00.644Z</time></trkpt><trkpt lat="39.3664767" lon="17.1332465"><ele>1.0</ele><time>2026-03-28T16:50:02.645Z</time></trkpt><trkpt lat="39.366521" lon="17.1331759"><ele>1.0</ele><time>2026-03-28T16:50:04.644Z</time></trkpt><trkpt lat="39.366566" lon="17.1330982"><ele>1.0</ele><time>2026-03-28T16:50:06.644Z</time></trkpt><trkpt lat="39.3666867" lon="17.1330577"><ele>2.4000000000000004</ele><time>2026-03-28T16:50:08.641Z</time></trkpt><trkpt lat="39.3668007" lon="17.1330544"><ele>3.8000000000000003</ele><time>2026-03-28T16:50:10.642Z</time></trkpt><trkpt lat="39.3669002" lon="17.1330601"><ele>5.200000000000001</ele><time>2026-03-28T16:50:12.637Z</time></trkpt><trkpt lat="39.3669861" lon="17.1330642"><ele>6.6000000000000005</ele><time>2026-03-28T16:50:14.639Z</time></trkpt><trkpt lat="39.3670691" lon="17.1330626"><ele>8.0</ele><time>2026-03-28T16:50:16.643Z</time></trkpt><trkpt lat="39.3671724" lon="17.1330639"><ele>7.999999999999999</ele><time>2026-03-28T16:50:18.645Z</time></trkpt><trkpt lat="39.3672456" lon="17.1330631"><ele>8.0</ele><time>2026-03-28T16:50:20.642Z</time></trkpt><trkpt lat="39.3673235" lon="17.13306"><ele>8.0</ele><time>2026-03-28T16:50:22.645Z</time></trkpt><trkpt lat="39.367416" lon="17.133057"><ele>8.0</ele><time>2026-03-28T16:50:25.643Z</time></trkpt><trkpt lat="39.367496" lon="17.1330518"><ele>7.999999999999999</ele><time>2026-03-28T16:50:28.641Z</time></trkpt><trkpt lat="39.367571" lon="17.1330521"><ele>8.0</ele><time>2026-03-28T16:50:31.651Z</time></trkpt><trkpt lat="39.3676676" lon="17.1330521"><ele>8.0</ele><time>2026-03-28T16:50:34.642Z</time></trkpt><trkpt lat="39.3677541" lon="17.1330555"><ele>8.0</ele><time>2026-03-28T16:50:36.644Z</time></trkpt><trkpt lat="39.3678651" lon="17.1330612"><ele>8.0</ele><time>2026-03-28T16:50:38.654Z</time></trkpt><trkpt lat="39.3679811" lon="17.1330665"><ele>8.0</ele><time>2026-03-28T16:50:40.648Z</time></trkpt><trkpt lat="39.3681169" lon="17.1330754"><ele>8.0</ele><time>2026-03-28T16:50:42.641Z</time></trkpt><trkpt lat="39.3682194" lon="17.1330817"><ele>8.0</ele><time>2026-03-28T16:50:44.639Z</time></trkpt><trkpt lat="39.3682967" lon="17.1330867"><ele>8.0</ele><time>2026-03-28T16:50:46.638Z</time></trkpt><trkpt lat="39.3683922" lon="17.1330953"><ele>8.0</ele><time>2026-03-28T16:50:48.64Z</time></trkpt><trkpt lat="39.3684979" lon="17.133106"><ele>8.0</ele><time>2026-03-28T16:50:50.646Z</time></trkpt><trkpt lat="39.3685862" lon="17.1331159"><ele>7.999999999999999</ele><time>2026-03-28T16:50:52.647Z</time></trkpt><trkpt lat="39.3686652" lon="17.1331258"><ele>8.0</ele><time>2026-03-28T16:50:54.649Z</time></trkpt><trkpt lat="39.368755" lon="17.1331407"><ele>8.0</ele><time>2026-03-28T16:50:57.645Z</time></trkpt><trkpt lat="39.3688462" lon="17.1331565"><ele>8.0</ele><time>2026-03-28T16:51:00.643Z</time></trkpt><trkpt lat="39.3689202" lon="17.133169"><ele>7.999999999999999</ele><time>2026-03-28T16:51:02.654Z</time></trkpt><trkpt lat="39.3689966" lon="17.133187"><ele>8.0</ele><time>2026-03-28T16:51:04.65Z</time></trkpt><trkpt lat="39.3691038" lon="17.133221"><ele>7.25</ele><time>2026-03-28T16:51:06.65Z</time></trkpt><trkpt lat="39.3692123" lon="17.1332695"><ele>6.5</ele><time>2026-03-28T16:51:08.643Z</time></trkpt><trkpt lat="39.3693249" lon="17.1333129"><ele>5.75</ele><time>2026-03-28T16:51:10.642Z</time></trkpt><trkpt lat="39.3694316" lon="17.1333443"><ele>5.0</ele><time>2026-03-28T16:51:12.64Z</time></trkpt><trkpt lat="39.3695401" lon="17.1333817"><ele>5.0</ele><time>2026-03-28T16:51:14.641Z</time></trkpt><trkpt lat="39.3696544" lon="17.1334358"><ele>5.0</ele><time>2026-03-28T16:51:16.64Z</time></trkpt><trkpt lat="39.3697157" lon="17.1334684"><ele>5.0</ele><time>2026-03-28T16:51:17.64Z</time></trkpt><trkpt lat="39.3697791" lon="17.133502"><ele>5.0</ele><time>2026-03-28T16:51:18.649Z</time></trkpt><trkpt lat="39.3698433" lon="17.1335342"><ele>5.0</ele><time>2026-03-28T16:51:19.644Z</time></trkpt><trkpt lat="39.3699081" lon="17.1335642"><ele>5.0</ele><time>2026-03-28T16:51:20.645Z</time></trkpt><trkpt lat="39.369974" lon="17.133591"><ele>5.5</ele><time>2026-03-28T16:51:21.647Z</time></trkpt><trkpt lat="39.3700416" lon="17.1336142"><ele>6.0</ele><time>2026-03-28T16:51:22.642Z</time></trkpt><trkpt lat="39.3701167" lon="17.1336373"><ele>6.5</ele><time>2026-03-28T16:51:23.66Z</time></trkpt><trkpt lat="39.3701835" lon="17.1336558"><ele>7.0</ele><time>2026-03-28T16:51:24.643Z</time></trkpt><trkpt lat="39.3702462" lon="17.13367"><ele>7.499999999999999</ele><time>2026-03-28T16:51:25.641Z</time></trkpt><trkpt lat="39.3703149" lon="17.1336838"><ele>8.0</ele><time>2026-03-28T16:51:26.638Z</time></trkpt><trkpt lat="39.3704308" lon="17.133708"><ele>7.999999999999999</ele><time>2026-03-28T16:51:28.645Z</time></trkpt><trkpt lat="39.3705397" lon="17.1337297"><ele>8.0</ele><time>2026-03-28T16:51:30.648Z</time></trkpt><trkpt lat="39.3706114" lon="17.133745"><ele>8.0</ele><time>2026-03-28T16:51:32.642Z</time></trkpt><trkpt lat="39.3706909" lon="17.1337613"><ele>8.0</ele><time>2026-03-28T16:51:35.641Z</time></trkpt><trkpt lat="39.3707579" lon="17.1337796"><ele>7.999999999999999</ele><time>2026-03-28T16:51:37.657Z</time></trkpt><trkpt lat="39.3708256" lon="17.133799"><ele>8.0</ele><time>2026-03-28T16:51:39.641Z</time></trkpt><trkpt lat="39.370895" lon="17.1338204"><ele>8.0</ele><time>2026-03-28T16:51:41.645Z</time></trkpt><trkpt lat="39.3709771" lon="17.1338479"><ele>8.0</ele><time>2026-03-28T16:51:43.641Z</time></trkpt><trkpt lat="39.3710643" lon="17.1338847"><ele>8.0</ele><time>2026-03-28T16:51:45.646Z</time></trkpt><trkpt lat="39.3711526" lon="17.1339192"><ele>8.0</ele><time>2026-03-28T16:51:47.648Z</time></trkpt><trkpt lat="39.3712471" lon="17.1339524"><ele>8.0</ele><time>2026-03-28T16:51:49.652Z</time></trkpt><trkpt lat="39.3713679" lon="17.1339991"><ele>8.142857142857142</ele><time>2026-03-28T16:51:51.657Z</time></trkpt><trkpt lat="39.371431" lon="17.1340253"><ele>8.285714285714285</ele><time>2026-03-28T16:51:52.642Z</time></trkpt><trkpt lat="39.3714911" lon="17.1340496"><ele>8.428571428571429</ele><time>2026-03-28T16:51:53.652Z</time></trkpt><trkpt lat="39.3715557" lon="17.1340759"><ele>8.571428571428571</ele><time>2026-03-28T16:51:54.649Z</time></trkpt><trkpt lat="39.3716257" lon="17.1341037"><ele>8.714285714285715</ele><time>2026-03-28T16:51:55.65Z</time></trkpt><trkpt lat="39.3717013" lon="17.1341351"><ele>8.857142857142858</ele><time>2026-03-28T16:51:56.654Z</time></trkpt><trkpt lat="39.3717826" lon="17.1341699"><ele>9.0</ele><time>2026-03-28T16:51:57.642Z</time></trkpt><trkpt lat="39.3718689" lon="17.1342063"><ele>8.571428571428573</ele><time>2026-03-28T16:51:58.658Z</time></trkpt><trkpt lat="39.3719553" lon="17.1342407"><ele>8.142857142857142</ele><time>2026-03-28T16:51:59.652Z</time></trkpt><trkpt lat="39.372035" lon="17.1342728"><ele>7.714285714285714</ele><time>2026-03-28T16:52:00.651Z</time></trkpt><trkpt lat="39.3721078" lon="17.1343023"><ele>7.2857142857142865</ele><time>2026-03-28T16:52:01.647Z</time></trkpt><trkpt lat="39.3721706" lon="17.1343287"><ele>6.857142857142858</ele><time>2026-03-28T16:52:02.653Z</time></trkpt><trkpt lat="39.3722323" lon="17.1343543"><ele>6.428571428571428</ele><time>2026-03-28T16:52:03.65Z</time></trkpt><trkpt lat="39.3722956" lon="17.1343805"><ele>6.0</ele><time>2026-03-28T16:52:04.641Z</time></trkpt><trkpt lat="39.3723613" lon="17.1344079"><ele>5.999999999999999</ele><time>2026-03-28T16:52:05.65Z</time></trkpt><trkpt lat="39.3724299" lon="17.134436"><ele>6.0</ele><time>2026-03-28T16:52:06.64Z</time></trkpt><trkpt lat="39.3724983" lon="17.1344647"><ele>6.0</ele><time>2026-03-28T16:52:07.655Z</time></trkpt><trkpt lat="39.3725656" lon="17.1344939"><ele>6.0</ele><time>2026-03-28T16:52:08.647Z</time></trkpt><trkpt lat="39.3726299" lon="17.1345218"><ele>6.0</ele><time>2026-03-28T16:52:09.649Z</time></trkpt><trkpt lat="39.3726912" lon="17.1345468"><ele>5.999999999999999</ele><time>2026-03-28T16:52:10.646Z</time></trkpt><trkpt lat="39.3727541" lon="17.1345725"><ele>6.0</ele><time>2026-03-28T16:52:11.642Z</time></trkpt><trkpt lat="39.3728165" lon="17.1345978"><ele>6.0</ele><time>2026-03-28T16:52:12.644Z</time></trkpt><trkpt lat="39.372878" lon="17.1346245"><ele>6.0</ele><time>2026-03-28T16:52:13.645Z</time></trkpt><trkpt lat="39.3729927" lon="17.1346741"><ele>6.0</ele><time>2026-03-28T16:52:15.644Z</time></trkpt><trkpt lat="39.3730988" lon="17.1347208"><ele>6.0</ele><time>2026-03-28T16:52:17.644Z</time></trkpt><trkpt lat="39.3732135" lon="17.1347772"><ele>6.0</ele><time>2026-03-28T16:52:19.643Z</time></trkpt><trkpt lat="39.373275" lon="17.1348108"><ele>6.166666666666667</ele><time>2026-03-28T16:52:20.644Z</time></trkpt><trkpt lat="39.3733375" lon="17.1348462"><ele>6.333333333333334</ele><time>2026-03-28T16:52:21.656Z</time></trkpt><trkpt lat="39.3733999" lon="17.134882"><ele>6.5</ele><time>2026-03-28T16:52:22.64Z</time></trkpt><trkpt lat="39.3734612" lon="17.1349167"><ele>6.666666666666667</ele><time>2026-03-28T16:52:23.643Z</time></trkpt><trkpt lat="39.3735201" lon="17.1349497"><ele>6.833333333333334</ele><time>2026-03-28T16:52:24.645Z</time></trkpt><trkpt lat="39.3736267" lon="17.1350075"><ele>7.0</ele><time>2026-03-28T16:52:26.644Z</time></trkpt><trkpt lat="39.373716" lon="17.1350529"><ele>6.6</ele><time>2026-03-28T16:52:28.641Z</time></trkpt><trkpt lat="39.3738002" lon="17.1350958"><ele>6.199999999999999</ele><time>2026-03-28T16:52:30.642Z</time></trkpt><trkpt lat="39.3738879" lon="17.1351393"><ele>5.8</ele><time>2026-03-28T16:52:32.648Z</time></trkpt><trkpt lat="39.3739904" lon="17.1351852"><ele>5.4</ele><time>2026-03-28T16:52:34.667Z</time></trkpt><trkpt lat="39.3740712" lon="17.1352168"><ele>5.0</ele><time>2026-03-28T16:52:35.644Z</time></trkpt><trkpt lat="39.3741672" lon="17.1352536"><ele>5.0</ele><time>2026-03-28T16:52:36.65Z</time></trkpt><trkpt lat="39.3742558" lon="17.1352905"><ele>5.0</ele><time>2026-03-28T16:52:37.644Z</time></trkpt><trkpt lat="39.3743422" lon="17.1353265"><ele>5.0</ele><time>2026-03-28T16:52:38.643Z</time></trkpt><trkpt lat="39.3744268" lon="17.1353622"><ele>5.0</ele><time>2026-03-28T16:52:39.641Z</time></trkpt><trkpt lat="39.3745035" lon="17.1353954"><ele>5.0</ele><time>2026-03-28T16:52:40.644Z</time></trkpt><trkpt lat="39.3745798" lon="17.1354273"><ele>5.0</ele><time>2026-03-28T16:52:41.638Z</time></trkpt><trkpt lat="39.374656" lon="17.135458"><ele>5.666666666666667</ele><time>2026-03-28T16:52:42.644Z</time></trkpt><trkpt lat="39.3747332" lon="17.1354869"><ele>6.333333333333334</ele><time>2026-03-28T16:52:43.645Z</time></trkpt><trkpt lat="39.3748108" lon="17.1355161"><ele>7.0</ele><time>2026-03-28T16:52:44.644Z</time></trkpt><trkpt lat="39.3748893" lon="17.1355462"><ele>7.666666666666667</ele><time>2026-03-28T16:52:45.642Z</time></trkpt><trkpt lat="39.3749655" lon="17.1355746"><ele>8.333333333333334</ele><time>2026-03-28T16:52:46.649Z</time></trkpt><trkpt lat="39.3750366" lon="17.1355999"><ele>9.0</ele><time>2026-03-28T16:52:47.641Z</time></trkpt><trkpt lat="39.3751463" lon="17.1356403"><ele>9.0</ele><time>2026-03-28T16:52:49.654Z</time></trkpt><trkpt lat="39.3752495" lon="17.1356833"><ele>9.0</ele><time>2026-03-28T16:52:51.656Z</time></trkpt><trkpt lat="39.3753659" lon="17.1357265"><ele>9.0</ele><time>2026-03-28T16:52:53.643Z</time></trkpt><trkpt lat="39.375444" lon="17.1357558"><ele>9.0</ele><time>2026-03-28T16:52:54.654Z</time></trkpt><trkpt lat="39.3755223" lon="17.1357867"><ele>9.0</ele><time>2026-03-28T16:52:55.644Z</time></trkpt><trkpt lat="39.375599" lon="17.135818"><ele>8.333333333333334</ele><time>2026-03-28T16:52:56.66Z</time></trkpt><trkpt lat="39.3756793" lon="17.1358518"><ele>7.666666666666667</ele><time>2026-03-28T16:52:57.641Z</time></trkpt><trkpt lat="39.3757667" lon="17.1358924"><ele>7.0</ele><time>2026-03-28T16:52:58.645Z</time></trkpt><trkpt lat="39.375857" lon="17.1359382"><ele>6.333333333333334</ele><time>2026-03-28T16:52:59.642Z</time></trkpt><trkpt lat="39.3759399" lon="17.1359827"><ele>5.666666666666667</ele><time>2026-03-28T16:53:00.652Z</time></trkpt><trkpt lat="39.3760138" lon="17.1360232"><ele>5.0</ele><time>2026-03-28T16:53:01.641Z</time></trkpt><trkpt lat="39.376075" lon="17.1360598"><ele>5.0</ele><time>2026-03-28T16:53:02.656Z</time></trkpt><trkpt lat="39.3761318" lon="17.1360954"><ele>5.0</ele><time>2026-03-28T16:53:03.643Z</time></trkpt><trkpt lat="39.3762179" lon="17.1361467"><ele>5.0</ele><time>2026-03-28T16:53:05.642Z</time></trkpt><trkpt lat="39.3762859" lon="17.1361871"><ele>5.0</ele><time>2026-03-28T16:53:07.644Z</time></trkpt><trkpt lat="39.3763685" lon="17.1362387"><ele>5.0</ele><time>2026-03-28T16:53:09.642Z</time></trkpt><trkpt lat="39.376481" lon="17.1363151"><ele>5.0</ele><time>2026-03-28T16:53:11.654Z</time></trkpt><trkpt lat="39.3765486" lon="17.13636"><ele>5.0</ele><time>2026-03-28T16:53:12.653Z</time></trkpt><trkpt lat="39.3766203" lon="17.1364064"><ele>5.0</ele><time>2026-03-28T16:53:13.644Z</time></trkpt><trkpt lat="39.3766941" lon="17.1364563"><ele>5.0</ele><time>2026-03-28T16:53:14.646Z</time></trkpt><trkpt lat="39.3767599" lon="17.1365051"><ele>5.0</ele><time>2026-03-28T16:53:15.641Z</time></trkpt><trkpt lat="39.3768202" lon="17.1365518"><ele>5.0</ele><time>2026-03-28T16:53:16.653Z</time></trkpt><trkpt lat="39.3768834" lon="17.1366018"><ele>5.0</ele><time>2026-03-28T16:53:17.647Z</time></trkpt><trkpt lat="39.3769535" lon="17.1366589"><ele>5.0</ele><time>2026-03-28T16:53:18.641Z</time></trkpt><trkpt lat="39.3770224" lon="17.1367163"><ele>5.0</ele><time>2026-03-28T16:53:19.649Z</time></trkpt><trkpt lat="39.3770829" lon="17.1367656"><ele>5.0</ele><time>2026-03-28T16:53:20.644Z</time></trkpt><trkpt lat="39.3771401" lon="17.1368119"><ele>5.0</ele><time>2026-03-28T16:53:21.66Z</time></trkpt><trkpt lat="39.3771938" lon="17.1368552"><ele>5.0</ele><time>2026-03-28T16:53:22.646Z</time></trkpt><trkpt lat="39.3772989" lon="17.1369411"><ele>5.2</ele><time>2026-03-28T16:53:24.642Z</time></trkpt><trkpt lat="39.3774016" lon="17.137027"><ele>5.4</ele><time>2026-03-28T16:53:26.644Z</time></trkpt><trkpt lat="39.3774898" lon="17.1371004"><ele>5.6</ele><time>2026-03-28T16:53:28.648Z</time></trkpt><trkpt lat="39.3775711" lon="17.1371704"><ele>5.8</ele><time>2026-03-28T16:53:30.643Z</time></trkpt><trkpt lat="39.3776483" lon="17.1372382"><ele>6.0</ele><time>2026-03-28T16:53:32.642Z</time></trkpt><trkpt lat="39.3777311" lon="17.137312"><ele>6.0</ele><time>2026-03-28T16:53:34.647Z</time></trkpt><trkpt lat="39.3778007" lon="17.1373758"><ele>6.0</ele><time>2026-03-28T16:53:36.643Z</time></trkpt><trkpt lat="39.3778692" lon="17.1374404"><ele>6.0</ele><time>2026-03-28T16:53:38.642Z</time></trkpt><trkpt lat="39.3779198" lon="17.1374965"><ele>6.0</ele><time>2026-03-28T16:53:40.641Z</time></trkpt><trkpt lat="39.3779684" lon="17.1375529"><ele>6.0</ele><time>2026-03-28T16:53:42.651Z</time></trkpt><trkpt lat="39.3780411" lon="17.1375573"><ele>6.0</ele><time>2026-03-28T16:53:45.645Z</time></trkpt><trkpt lat="39.3780106" lon="17.1374361"><ele>5.999999999999999</ele><time>2026-03-28T16:53:48.652Z</time></trkpt><trkpt lat="39.3779399" lon="17.1373928"><ele>6.0</ele><time>2026-03-28T16:53:49.66Z</time></trkpt><trkpt lat="39.3778768" lon="17.1373545"><ele>6.0</ele><time>2026-03-28T16:53:50.65Z</time></trkpt><trkpt lat="39.3777998" lon="17.1372973"><ele>6.0</ele><time>2026-03-28T16:53:52.649Z</time></trkpt><trkpt lat="39.3777415" lon="17.137253"><ele>6.0</ele><time>2026-03-28T16:53:54.657Z</time></trkpt><trkpt lat="39.3776768" lon="17.1372115"><ele>5.999999999999999</ele><time>2026-03-28T16:53:56.649Z</time></trkpt><trkpt lat="39.3776123" lon="17.1371742"><ele>6.0</ele><time>2026-03-28T16:53:58.657Z</time></trkpt><trkpt lat="39.3775467" lon="17.1371287"><ele>6.0</ele><time>2026-03-28T16:54:00.647Z</time></trkpt><trkpt lat="39.3774781" lon="17.1370741"><ele>6.0</ele><time>2026-03-28T16:54:02.647Z</time></trkpt><trkpt lat="39.3773798" lon="17.1369845"><ele>6.0</ele><time>2026-03-28T16:54:04.662Z</time></trkpt><trkpt lat="39.3773149" lon="17.1369328"><ele>6.0</ele><time>2026-03-28T16:54:05.655Z</time></trkpt><trkpt lat="39.3772455" lon="17.1368765"><ele>6.0</ele><time>2026-03-28T16:54:06.645Z</time></trkpt><trkpt lat="39.3771734" lon="17.136817"><ele>6.0</ele><time>2026-03-28T16:54:07.649Z</time></trkpt><trkpt lat="39.377103" lon="17.1367591"><ele>6.0</ele><time>2026-03-28T16:54:08.649Z</time></trkpt><trkpt lat="39.3770364" lon="17.1367053"><ele>6.0</ele><time>2026-03-28T16:54:09.642Z</time></trkpt><trkpt lat="39.3769691" lon="17.1366527"><ele>6.0</ele><time>2026-03-28T16:54:10.656Z</time></trkpt><trkpt lat="39.3769074" lon="17.1366041"><ele>6.0</ele><time>2026-03-28T16:54:11.647Z</time></trkpt><trkpt lat="39.3768061" lon="17.1365219"><ele>6.0</ele><time>2026-03-28T16:54:13.646Z</time></trkpt><trkpt lat="39.3767125" lon="17.136455"><ele>6.0</ele><time>2026-03-28T16:54:15.641Z</time></trkpt><trkpt lat="39.3766167" lon="17.1363894"><ele>6.0</ele><time>2026-03-28T16:54:17.65Z</time></trkpt><trkpt lat="39.3765259" lon="17.1363253"><ele>6.0</ele><time>2026-03-28T16:54:19.647Z</time></trkpt><trkpt lat="39.3764451" lon="17.1362683"><ele>6.0</ele><time>2026-03-28T16:54:21.645Z</time></trkpt><trkpt lat="39.376361" lon="17.1362091"><ele>6.0</ele><time>2026-03-28T16:54:23.647Z</time></trkpt><trkpt lat="39.3762707" lon="17.1361474"><ele>5.833333333333333</ele><time>2026-03-28T16:54:25.646Z</time></trkpt><trkpt lat="39.3761677" lon="17.13608"><ele>5.666666666666667</ele><time>2026-03-28T16:54:27.645Z</time></trkpt><trkpt lat="39.3761066" lon="17.1360398"><ele>5.5</ele><time>2026-03-28T16:54:28.666Z</time></trkpt><trkpt lat="39.3760362" lon="17.1359941"><ele>5.333333333333334</ele><time>2026-03-28T16:54:29.646Z</time></trkpt><trkpt lat="39.375968" lon="17.1359532"><ele>5.166666666666667</ele><time>2026-03-28T16:54:30.644Z</time></trkpt><trkpt lat="39.375902" lon="17.1359161"><ele>5.0</ele><time>2026-03-28T16:54:31.645Z</time></trkpt><trkpt lat="39.3758376" lon="17.135883"><ele>5.0</ele><time>2026-03-28T16:54:32.64Z</time></trkpt><trkpt lat="39.3757284" lon="17.1358316"><ele>5.0</ele><time>2026-03-28T16:54:34.641Z</time></trkpt><trkpt lat="39.3756264" lon="17.1357842"><ele>5.0</ele><time>2026-03-28T16:54:36.64Z</time></trkpt><trkpt lat="39.375517" lon="17.1357352"><ele>5.0</ele><time>2026-03-28T16:54:38.657Z</time></trkpt><trkpt lat="39.3754164" lon="17.1356928"><ele>5.0</ele><time>2026-03-28T16:54:40.649Z</time></trkpt><trkpt lat="39.3753343" lon="17.1356605"><ele>5.666666666666667</ele><time>2026-03-28T16:54:42.653Z</time></trkpt><trkpt lat="39.3752559" lon="17.1356321"><ele>6.333333333333334</ele><time>2026-03-28T16:54:44.653Z</time></trkpt><trkpt lat="39.375147" lon="17.1355913"><ele>7.0</ele><time>2026-03-28T16:54:46.642Z</time></trkpt><trkpt lat="39.3750867" lon="17.1355675"><ele>7.666666666666667</ele><time>2026-03-28T16:54:47.652Z</time></trkpt><trkpt lat="39.3750237" lon="17.1355424"><ele>8.333333333333334</ele><time>2026-03-28T16:54:48.651Z</time></trkpt><trkpt lat="39.3749588" lon="17.135517"><ele>9.0</ele><time>2026-03-28T16:54:49.642Z</time></trkpt><trkpt lat="39.3748936" lon="17.1354912"><ele>9.000000000000002</ele><time>2026-03-28T16:54:50.647Z</time></trkpt><trkpt lat="39.3748279" lon="17.1354652"><ele>9.0</ele><time>2026-03-28T16:54:51.647Z</time></trkpt><trkpt lat="39.3747628" lon="17.1354388"><ele>9.0</ele><time>2026-03-28T16:54:52.646Z</time></trkpt><trkpt lat="39.3746982" lon="17.1354125"><ele>9.0</ele><time>2026-03-28T16:54:53.665Z</time></trkpt><trkpt lat="39.3746337" lon="17.135386"><ele>9.0</ele><time>2026-03-28T16:54:54.651Z</time></trkpt><trkpt lat="39.3745687" lon="17.1353591"><ele>9.000000000000002</ele><time>2026-03-28T16:54:55.652Z</time></trkpt><trkpt lat="39.3745043" lon="17.1353325"><ele>9.0</ele><time>2026-03-28T16:54:56.657Z</time></trkpt><trkpt lat="39.3744396" lon="17.1353063"><ele>8.428571428571429</ele><time>2026-03-28T16:54:57.652Z</time></trkpt><trkpt lat="39.3743743" lon="17.1352806"><ele>7.857142857142858</ele><time>2026-03-28T16:54:58.645Z</time></trkpt><trkpt lat="39.3743089" lon="17.1352549"><ele>7.2857142857142865</ele><time>2026-03-28T16:54:59.648Z</time></trkpt><trkpt lat="39.3742436" lon="17.1352294"><ele>6.714285714285715</ele><time>2026-03-28T16:55:00.643Z</time></trkpt><trkpt lat="39.3741779" lon="17.1352043"><ele>6.142857142857143</ele><time>2026-03-28T16:55:01.643Z</time></trkpt><trkpt lat="39.3741119" lon="17.1351786"><ele>5.571428571428571</ele><time>2026-03-28T16:55:02.64Z</time></trkpt><trkpt lat="39.3740461" lon="17.1351512"><ele>5.0</ele><time>2026-03-28T16:55:03.647Z</time></trkpt><trkpt lat="39.3739807" lon="17.1351221"><ele>5.0</ele><time>2026-03-28T16:55:04.65Z</time></trkpt><trkpt lat="39.3738695" lon="17.1350699"><ele>5.0</ele><time>2026-03-28T16:55:06.646Z</time></trkpt><trkpt lat="39.3737636" lon="17.1350173"><ele>5.0</ele><time>2026-03-28T16:55:08.652Z</time></trkpt><trkpt lat="39.3736523" lon="17.1349616"><ele>5.0</ele><time>2026-03-28T16:55:10.663Z</time></trkpt><trkpt lat="39.373564" lon="17.1349147"><ele>5.0</ele><time>2026-03-28T16:55:12.642Z</time></trkpt><trkpt lat="39.3734974" lon="17.134879"><ele>5.285714285714286</ele><time>2026-03-28T16:55:15.654Z</time></trkpt><trkpt lat="39.3734356" lon="17.1348463"><ele>5.571428571428571</ele><time>2026-03-28T16:55:18.649Z</time></trkpt><trkpt lat="39.3733721" lon="17.1348099"><ele>5.857142857142858</ele><time>2026-03-28T16:55:24.644Z</time></trkpt><trkpt lat="39.3732985" lon="17.1347669"><ele>6.142857142857142</ele><time>2026-03-28T16:55:28.654Z</time></trkpt><trkpt lat="39.3732271" lon="17.1347288"><ele>6.428571428571429</ele><time>2026-03-28T16:55:32.642Z</time></trkpt><trkpt lat="39.3731653" lon="17.1346932"><ele>6.714285714285714</ele><time>2026-03-28T16:55:35.644Z</time></trkpt><trkpt lat="39.3731309" lon="17.1346163"><ele>7.0</ele><time>2026-03-28T16:55:38.644Z</time></trkpt><trkpt lat="39.3731404" lon="17.1345113"><ele>7.0</ele><time>2026-03-28T16:55:41.644Z</time></trkpt><trkpt lat="39.3731496" lon="17.1344199"><ele>7.0</ele><time>2026-03-28T16:55:44.646Z</time></trkpt><trkpt lat="39.373149" lon="17.1343299"><ele>7.0</ele><time>2026-03-28T16:55:47.646Z</time></trkpt><trkpt lat="39.3731654" lon="17.1342276"><ele>7.0</ele><time>2026-03-28T16:55:50.646Z</time></trkpt><trkpt lat="39.3731787" lon="17.1341462"><ele>7.0</ele><time>2026-03-28T16:55:52.645Z</time></trkpt><trkpt lat="39.3731903" lon="17.1340573"><ele>7.0</ele><time>2026-03-28T16:55:54.646Z</time></trkpt><trkpt lat="39.3731653" lon="17.1339726"><ele>7.0</ele><time>2026-03-28T16:55:56.644Z</time></trkpt><trkpt lat="39.3730766" lon="17.1339129"><ele>7.166666666666667</ele><time>2026-03-28T16:55:58.642Z</time></trkpt><trkpt lat="39.3729959" lon="17.1338915"><ele>7.333333333333334</ele><time>2026-03-28T16:55:59.647Z</time></trkpt><trkpt lat="39.3729135" lon="17.1338655"><ele>7.5</ele><time>2026-03-28T16:56:00.648Z</time></trkpt><trkpt lat="39.3728464" lon="17.133845"><ele>7.666666666666666</ele><time>2026-03-28T16:56:01.643Z</time></trkpt><trkpt lat="39.3727833" lon="17.1338238"><ele>7.833333333333333</ele><time>2026-03-28T16:56:02.649Z</time></trkpt><trkpt lat="39.3726736" lon="17.1337924"><ele>8.0</ele><time>2026-03-28T16:56:04.649Z</time></trkpt><trkpt lat="39.3725439" lon="17.1337525"><ele>7.999999999999999</ele><time>2026-03-28T16:56:06.644Z</time></trkpt><trkpt lat="39.3724509" lon="17.1337261"><ele>8.0</ele><time>2026-03-28T16:56:07.655Z</time></trkpt><trkpt lat="39.3723432" lon="17.1336951"><ele>8.0</ele><time>2026-03-28T16:56:08.649Z</time></trkpt><trkpt lat="39.3722452" lon="17.1336676"><ele>8.0</ele><time>2026-03-28T16:56:09.649Z</time></trkpt><trkpt lat="39.3721807" lon="17.1336431"><ele>7.999999999999999</ele><time>2026-03-28T16:56:10.643Z</time></trkpt><trkpt lat="39.3721188" lon="17.1336241"><ele>8.0</ele><time>2026-03-28T16:56:11.642Z</time></trkpt><trkpt lat="39.3720539" lon="17.1336042"><ele>8.166666666666666</ele><time>2026-03-28T16:56:12.651Z</time></trkpt><trkpt lat="39.3719865" lon="17.1335859"><ele>8.333333333333332</ele><time>2026-03-28T16:56:13.65Z</time></trkpt><trkpt lat="39.3719124" lon="17.1335652"><ele>8.5</ele><time>2026-03-28T16:56:14.647Z</time></trkpt><trkpt lat="39.3718363" lon="17.133538"><ele>8.666666666666666</ele><time>2026-03-28T16:56:15.649Z</time></trkpt><trkpt lat="39.3717582" lon="17.1335119"><ele>8.833333333333334</ele><time>2026-03-28T16:56:16.653Z</time></trkpt><trkpt lat="39.3716749" lon="17.1334885"><ele>9.0</ele><time>2026-03-28T16:56:17.653Z</time></trkpt><trkpt lat="39.3715811" lon="17.1334553"><ele>9.0</ele><time>2026-03-28T16:56:18.65Z</time></trkpt><trkpt lat="39.3714985" lon="17.1334275"><ele>9.0</ele><time>2026-03-28T16:56:19.65Z</time></trkpt><trkpt lat="39.3714243" lon="17.1334036"><ele>9.0</ele><time>2026-03-28T16:56:20.659Z</time></trkpt><trkpt lat="39.3713547" lon="17.1333839"><ele>9.0</ele><time>2026-03-28T16:56:21.65Z</time></trkpt><trkpt lat="39.3712357" lon="17.1333443"><ele>9.0</ele><time>2026-03-28T16:56:23.651Z</time></trkpt><trkpt lat="39.3711246" lon="17.133298"><ele>8.8</ele><time>2026-03-28T16:56:25.646Z</time></trkpt><trkpt lat="39.3710159" lon="17.13326"><ele>8.600000000000001</ele><time>2026-03-28T16:56:27.645Z</time></trkpt><trkpt lat="39.3709104" lon="17.1332346"><ele>8.4</ele><time>2026-03-28T16:56:29.654Z</time></trkpt><trkpt lat="39.3707905" lon="17.133212"><ele>8.200000000000001</ele><time>2026-03-28T16:56:31.667Z</time></trkpt><trkpt lat="39.3707137" lon="17.1331998"><ele>8.0</ele><time>2026-03-28T16:56:32.654Z</time></trkpt><trkpt lat="39.3706328" lon="17.1331879"><ele>7.999999999999999</ele><time>2026-03-28T16:56:33.65Z</time></trkpt><trkpt lat="39.370555" lon="17.1331722"><ele>8.0</ele><time>2026-03-28T16:56:34.655Z</time></trkpt><trkpt lat="39.3704815" lon="17.133154"><ele>8.0</ele><time>2026-03-28T16:56:35.645Z</time></trkpt><trkpt lat="39.3704132" lon="17.1331324"><ele>8.0</ele><time>2026-03-28T16:56:36.657Z</time></trkpt><trkpt lat="39.3703488" lon="17.1331099"><ele>7.999999999999999</ele><time>2026-03-28T16:56:37.642Z</time></trkpt><trkpt lat="39.370288" lon="17.1330844"><ele>8.0</ele><time>2026-03-28T16:56:38.648Z</time></trkpt><trkpt lat="39.3701715" lon="17.1330268"><ele>8.166666666666666</ele><time>2026-03-28T16:56:40.645Z</time></trkpt><trkpt lat="39.3700554" lon="17.1329672"><ele>8.333333333333332</ele><time>2026-03-28T16:56:42.641Z</time></trkpt><trkpt lat="39.3699887" lon="17.1329394"><ele>8.5</ele><time>2026-03-28T16:56:43.642Z</time></trkpt><trkpt lat="39.3699223" lon="17.1329146"><ele>8.666666666666666</ele><time>2026-03-28T16:56:44.653Z</time></trkpt><trkpt lat="39.3698549" lon="17.132889"><ele>8.833333333333334</ele><time>2026-03-28T16:56:45.647Z</time></trkpt><trkpt lat="39.3697835" lon="17.132862"><ele>9.0</ele><time>2026-03-28T16:56:46.645Z</time></trkpt><trkpt lat="39.3697169" lon="17.1328626"><ele>8.833333333333334</ele><time>2026-03-28T16:56:47.651Z</time></trkpt><trkpt lat="39.3696268" lon="17.1328306"><ele>8.666666666666666</ele><time>2026-03-28T16:56:49.642Z</time></trkpt><trkpt lat="39.3695397" lon="17.1328005"><ele>8.5</ele><time>2026-03-28T16:56:52.652Z</time></trkpt><trkpt lat="39.3694643" lon="17.1327659"><ele>8.333333333333332</ele><time>2026-03-28T16:56:55.639Z</time></trkpt><trkpt lat="39.3693905" lon="17.132724"><ele>8.166666666666666</ele><time>2026-03-28T16:56:58.652Z</time></trkpt><trkpt lat="39.3693629" lon="17.132638"><ele>8.0</ele><time>2026-03-28T16:57:01.654Z</time></trkpt><trkpt lat="39.3693713" lon="17.1325483"><ele>7.999999999999999</ele><time>2026-03-28T16:57:03.646Z</time></trkpt><trkpt lat="39.3694008" lon="17.1324456"><ele>8.0</ele><time>2026-03-28T16:57:05.642Z</time></trkpt><trkpt lat="39.3694287" lon="17.1323548"><ele>8.0</ele><time>2026-03-28T16:57:07.64Z</time></trkpt><trkpt lat="39.3694518" lon="17.132272"><ele>8.0</ele><time>2026-03-28T16:57:09.646Z</time></trkpt><trkpt lat="39.3694721" lon="17.132189"><ele>7.999999999999999</ele><time>2026-03-28T16:57:11.641Z</time></trkpt><trkpt lat="39.3694898" lon="17.13209"><ele>8.0</ele><time>2026-03-28T16:57:13.649Z</time></trkpt><trkpt lat="39.3695063" lon="17.131974"><ele>8.0</ele><time>2026-03-28T16:57:15.641Z</time></trkpt><trkpt lat="39.3695394" lon="17.1318212"><ele>8.0</ele><time>2026-03-28T16:57:17.643Z</time></trkpt><trkpt lat="39.3695678" lon="17.1316892"><ele>8.0</ele><time>2026-03-28T16:57:18.639Z</time></trkpt><trkpt lat="39.3695908" lon="17.131552"><ele>8.0</ele><time>2026-03-28T16:57:19.641Z</time></trkpt><trkpt lat="39.3696091" lon="17.131428"><ele>8.0</ele><time>2026-03-28T16:57:20.648Z</time></trkpt><trkpt lat="39.3696223" lon="17.1313207"><ele>8.0</ele><time>2026-03-28T16:57:21.64Z</time></trkpt><trkpt lat="39.3696355" lon="17.1312014"><ele>8.0</ele><time>2026-03-28T16:57:22.651Z</time></trkpt><trkpt lat="39.3696513" lon="17.1310592"><ele>8.0</ele><time>2026-03-28T16:57:23.64Z</time></trkpt><trkpt lat="39.3696657" lon="17.13093"><ele>8.0</ele><time>2026-03-28T16:57:24.646Z</time></trkpt><trkpt lat="39.3696815" lon="17.1307917"><ele>8.0</ele><time>2026-03-28T16:57:25.644Z</time></trkpt><trkpt lat="39.3696967" lon="17.1306567"><ele>8.4</ele><time>2026-03-28T16:57:26.638Z</time></trkpt><trkpt lat="39.3697076" lon="17.1305296"><ele>8.8</ele><time>2026-03-28T16:57:27.64Z</time></trkpt><trkpt lat="39.3697176" lon="17.130405"><ele>9.2</ele><time>2026-03-28T16:57:28.64Z</time></trkpt><trkpt lat="39.3697242" lon="17.1302954"><ele>9.6</ele><time>2026-03-28T16:57:29.647Z</time></trkpt><trkpt lat="39.3697281" lon="17.1302023"><ele>10.0</ele><time>2026-03-28T16:57:30.645Z</time></trkpt><trkpt lat="39.3697344" lon="17.1300713"><ele>10.0</ele><time>2026-03-28T16:57:32.652Z</time></trkpt><trkpt lat="39.3697429" lon="17.1299798"><ele>10.0</ele><time>2026-03-28T16:57:34.647Z</time></trkpt><trkpt lat="39.3697504" lon="17.1298988"><ele>10.0</ele><time>2026-03-28T16:57:38.64Z</time></trkpt><trkpt lat="39.3697649" lon="17.1298097"><ele>10.0</ele><time>2026-03-28T16:57:42.64Z</time></trkpt><trkpt lat="39.3697803" lon="17.129708"><ele>10.0</ele><time>2026-03-28T16:57:45.641Z</time></trkpt><trkpt lat="39.3697964" lon="17.1296108"><ele>10.0</ele><time>2026-03-28T16:57:47.642Z</time></trkpt><trkpt lat="39.3698076" lon="17.1295179"><ele>10.0</ele><time>2026-03-28T16:57:49.643Z</time></trkpt><trkpt lat="39.3698122" lon="17.1294337"><ele>9.833333333333334</ele><time>2026-03-28T16:57:52.641Z</time></trkpt><trkpt lat="39.3698013" lon="17.1293467"><ele>9.666666666666668</ele><time>2026-03-28T16:57:55.647Z</time></trkpt><trkpt lat="39.3697455" lon="17.1292629"><ele>9.5</ele><time>2026-03-28T16:57:58.643Z</time></trkpt><trkpt lat="39.3696793" lon="17.1292231"><ele>9.333333333333334</ele><time>2026-03-28T16:58:00.645Z</time></trkpt><trkpt lat="39.3696052" lon="17.1292081"><ele>9.166666666666666</ele><time>2026-03-28T16:58:02.65Z</time></trkpt><trkpt lat="39.369524" lon="17.1291899"><ele>9.0</ele><time>2026-03-28T16:58:04.647Z</time></trkpt><trkpt lat="39.3694455" lon="17.1291686"><ele>9.0</ele><time>2026-03-28T16:58:06.641Z</time></trkpt><trkpt lat="39.3693794" lon="17.1291521"><ele>9.0</ele><time>2026-03-28T16:58:08.648Z</time></trkpt><trkpt lat="39.3692993" lon="17.1291355"><ele>9.0</ele><time>2026-03-28T16:58:11.643Z</time></trkpt><trkpt lat="39.3692317" lon="17.1291216"><ele>9.0</ele><time>2026-03-28T16:58:14.649Z</time></trkpt><trkpt lat="39.3691657" lon="17.1291062"><ele>9.0</ele><time>2026-03-28T16:58:18.637Z</time></trkpt><trkpt lat="39.3690949" lon="17.1290903"><ele>9.0</ele><time>2026-03-28T16:58:22.641Z</time></trkpt><trkpt lat="39.3690188" lon="17.1290725"><ele>9.0</ele><time>2026-03-28T16:58:26.652Z</time></trkpt></trkseg></trk></gpx>